<?xml version="1.0" encoding="UTF-8" standalone="no" ?>
<gpx xmlns="http://www.topografix.com/GPX/1/1" xmlns:xsi="http://www.w3.org/2001/XMLSchema-instance" xsi:schemaLocation="http://www.topografix.com/GPX/1/1 http://www.topografix.com/GPX/1/1/gpx.xsd" version="1.1" creator="VisuGPX - https://www.visugpx.com">
  <metadata>
    <name>Pimorin Cyclisme sur route</name>
  </metadata>
  <trk>
    <name><![CDATA[Pimorin Cyclisme sur route_1]]></name>
    <trkseg>
      <trkpt lat="46.4965" lon="5.5028">
        <ele>507.8</ele>
        <time>2022-05-21T10:40:16Z</time>
      </trkpt>
      <trkpt lat="46.49651" lon="5.5028">
        <ele>504.6</ele>
        <time>2022-05-21T10:40:17Z</time>
      </trkpt>
      <trkpt lat="46.49651" lon="5.50297">
        <ele>505</ele>
        <time>2022-05-21T10:43:20Z</time>
      </trkpt>
      <trkpt lat="46.49654" lon="5.50303">
        <ele>505.2</ele>
        <time>2022-05-21T10:43:22Z</time>
      </trkpt>
      <trkpt lat="46.49667" lon="5.5033">
        <ele>505.4</ele>
        <time>2022-05-21T10:43:28Z</time>
      </trkpt>
      <trkpt lat="46.49673" lon="5.5034">
        <ele>505.6</ele>
        <time>2022-05-21T10:43:30Z</time>
      </trkpt>
      <trkpt lat="46.4968" lon="5.50349">
        <ele>505.8</ele>
        <time>2022-05-21T10:43:32Z</time>
      </trkpt>
      <trkpt lat="46.49697" lon="5.50373">
        <ele>505.8</ele>
        <time>2022-05-21T10:43:37Z</time>
      </trkpt>
      <trkpt lat="46.49702" lon="5.50379">
        <ele>506</ele>
        <time>2022-05-21T10:43:38Z</time>
      </trkpt>
      <trkpt lat="46.49729" lon="5.50418">
        <ele>506</ele>
        <time>2022-05-21T10:43:45Z</time>
      </trkpt>
      <trkpt lat="46.49734" lon="5.50424">
        <ele>505.8</ele>
        <time>2022-05-21T10:43:46Z</time>
      </trkpt>
      <trkpt lat="46.4975" lon="5.50441">
        <ele>505.6</ele>
        <time>2022-05-21T10:43:49Z</time>
      </trkpt>
      <trkpt lat="46.49755" lon="5.50445">
        <ele>505.2</ele>
        <time>2022-05-21T10:43:50Z</time>
      </trkpt>
      <trkpt lat="46.49761" lon="5.50449">
        <ele>505</ele>
        <time>2022-05-21T10:43:51Z</time>
      </trkpt>
      <trkpt lat="46.49779" lon="5.50457">
        <ele>504.2</ele>
        <time>2022-05-21T10:43:54Z</time>
      </trkpt>
      <trkpt lat="46.49791" lon="5.50462">
        <ele>503.6</ele>
        <time>2022-05-21T10:43:56Z</time>
      </trkpt>
      <trkpt lat="46.49834" lon="5.50473">
        <ele>503</ele>
        <time>2022-05-21T10:44:03Z</time>
      </trkpt>
      <trkpt lat="46.49846" lon="5.50477">
        <ele>502.8</ele>
        <time>2022-05-21T10:44:05Z</time>
      </trkpt>
      <trkpt lat="46.4988" lon="5.50498">
        <ele>503.2</ele>
        <time>2022-05-21T10:44:11Z</time>
      </trkpt>
      <trkpt lat="46.49922" lon="5.50528">
        <ele>503.6</ele>
        <time>2022-05-21T10:44:19Z</time>
      </trkpt>
      <trkpt lat="46.49942" lon="5.50536">
        <ele>503.8</ele>
        <time>2022-05-21T10:44:23Z</time>
      </trkpt>
      <trkpt lat="46.49948" lon="5.50537">
        <ele>504</ele>
        <time>2022-05-21T10:44:24Z</time>
      </trkpt>
      <trkpt lat="46.49953" lon="5.50537">
        <ele>504</ele>
        <time>2022-05-21T10:44:25Z</time>
      </trkpt>
      <trkpt lat="46.49977" lon="5.5053">
        <ele>504.4</ele>
        <time>2022-05-21T10:44:29Z</time>
      </trkpt>
      <trkpt lat="46.50013" lon="5.50506">
        <ele>504.2</ele>
        <time>2022-05-21T10:44:35Z</time>
      </trkpt>
      <trkpt lat="46.50043" lon="5.50483">
        <ele>503.6</ele>
        <time>2022-05-21T10:44:40Z</time>
      </trkpt>
      <trkpt lat="46.50049" lon="5.50476">
        <ele>503.4</ele>
        <time>2022-05-21T10:44:41Z</time>
      </trkpt>
      <trkpt lat="46.50064" lon="5.50454">
        <ele>502.8</ele>
        <time>2022-05-21T10:44:44Z</time>
      </trkpt>
      <trkpt lat="46.50078" lon="5.50432">
        <ele>502.4</ele>
        <time>2022-05-21T10:44:47Z</time>
      </trkpt>
      <trkpt lat="46.50084" lon="5.50427">
        <ele>502.2</ele>
        <time>2022-05-21T10:44:48Z</time>
      </trkpt>
      <trkpt lat="46.50089" lon="5.50422">
        <ele>502.2</ele>
        <time>2022-05-21T10:44:49Z</time>
      </trkpt>
      <trkpt lat="46.50095" lon="5.50418">
        <ele>502</ele>
        <time>2022-05-21T10:44:50Z</time>
      </trkpt>
      <trkpt lat="46.50101" lon="5.50415">
        <ele>502</ele>
        <time>2022-05-21T10:44:51Z</time>
      </trkpt>
      <trkpt lat="46.50107" lon="5.50413">
        <ele>502</ele>
        <time>2022-05-21T10:44:52Z</time>
      </trkpt>
      <trkpt lat="46.50126" lon="5.50409">
        <ele>502</ele>
        <time>2022-05-21T10:44:55Z</time>
      </trkpt>
      <trkpt lat="46.50138" lon="5.50411">
        <ele>502</ele>
        <time>2022-05-21T10:44:57Z</time>
      </trkpt>
      <trkpt lat="46.50176" lon="5.50429">
        <ele>502.2</ele>
        <time>2022-05-21T10:45:04Z</time>
      </trkpt>
      <trkpt lat="46.502" lon="5.50442">
        <ele>502.8</ele>
        <time>2022-05-21T10:45:09Z</time>
      </trkpt>
      <trkpt lat="46.50205" lon="5.50446">
        <ele>503</ele>
        <time>2022-05-21T10:45:10Z</time>
      </trkpt>
      <trkpt lat="46.50223" lon="5.50462">
        <ele>503.2</ele>
        <time>2022-05-21T10:45:14Z</time>
      </trkpt>
      <trkpt lat="46.50232" lon="5.50468">
        <ele>503.4</ele>
        <time>2022-05-21T10:45:16Z</time>
      </trkpt>
      <trkpt lat="46.50237" lon="5.5047">
        <ele>503.4</ele>
        <time>2022-05-21T10:45:17Z</time>
      </trkpt>
      <trkpt lat="46.50241" lon="5.50472">
        <ele>503.8</ele>
        <time>2022-05-21T10:45:18Z</time>
      </trkpt>
      <trkpt lat="46.50246" lon="5.50473">
        <ele>504.2</ele>
        <time>2022-05-21T10:45:19Z</time>
      </trkpt>
      <trkpt lat="46.5025" lon="5.50473">
        <ele>504.2</ele>
        <time>2022-05-21T10:45:20Z</time>
      </trkpt>
      <trkpt lat="46.50255" lon="5.50472">
        <ele>505</ele>
        <time>2022-05-21T10:45:21Z</time>
      </trkpt>
      <trkpt lat="46.50274" lon="5.50463">
        <ele>506.2</ele>
        <time>2022-05-21T10:45:25Z</time>
      </trkpt>
      <trkpt lat="46.50303" lon="5.50441">
        <ele>506.8</ele>
        <time>2022-05-21T10:45:32Z</time>
      </trkpt>
      <trkpt lat="46.50323" lon="5.5043">
        <ele>507.2</ele>
        <time>2022-05-21T10:45:37Z</time>
      </trkpt>
      <trkpt lat="46.50327" lon="5.50429">
        <ele>507.4</ele>
        <time>2022-05-21T10:45:38Z</time>
      </trkpt>
      <trkpt lat="46.50347" lon="5.50428">
        <ele>508.4</ele>
        <time>2022-05-21T10:45:43Z</time>
      </trkpt>
      <trkpt lat="46.50359" lon="5.5043">
        <ele>509</ele>
        <time>2022-05-21T10:45:46Z</time>
      </trkpt>
      <trkpt lat="46.50367" lon="5.50432">
        <ele>509.6</ele>
        <time>2022-05-21T10:45:48Z</time>
      </trkpt>
      <trkpt lat="46.50407" lon="5.50441">
        <ele>510</ele>
        <time>2022-05-21T10:45:57Z</time>
      </trkpt>
      <trkpt lat="46.5042" lon="5.50445">
        <ele>510</ele>
        <time>2022-05-21T10:46:00Z</time>
      </trkpt>
      <trkpt lat="46.50437" lon="5.50453">
        <ele>510.6</ele>
        <time>2022-05-21T10:46:04Z</time>
      </trkpt>
      <trkpt lat="46.5045" lon="5.50459">
        <ele>511</ele>
        <time>2022-05-21T10:46:07Z</time>
      </trkpt>
      <trkpt lat="46.50464" lon="5.50465">
        <ele>511.8</ele>
        <time>2022-05-21T10:46:10Z</time>
      </trkpt>
      <trkpt lat="46.50474" lon="5.50467">
        <ele>512</ele>
        <time>2022-05-21T10:46:12Z</time>
      </trkpt>
      <trkpt lat="46.50479" lon="5.50467">
        <ele>512</ele>
        <time>2022-05-21T10:46:13Z</time>
      </trkpt>
      <trkpt lat="46.50523" lon="5.50467">
        <ele>512.6</ele>
        <time>2022-05-21T10:46:22Z</time>
      </trkpt>
      <trkpt lat="46.50532" lon="5.50469">
        <ele>512.8</ele>
        <time>2022-05-21T10:46:24Z</time>
      </trkpt>
      <trkpt lat="46.50536" lon="5.50471">
        <ele>512.8</ele>
        <time>2022-05-21T10:46:25Z</time>
      </trkpt>
      <trkpt lat="46.50558" lon="5.50481">
        <ele>513.6</ele>
        <time>2022-05-21T10:46:30Z</time>
      </trkpt>
      <trkpt lat="46.50563" lon="5.50483">
        <ele>514</ele>
        <time>2022-05-21T10:46:31Z</time>
      </trkpt>
      <trkpt lat="46.50581" lon="5.50497">
        <ele>515.2</ele>
        <time>2022-05-21T10:46:36Z</time>
      </trkpt>
      <trkpt lat="46.50587" lon="5.50504">
        <ele>515.6</ele>
        <time>2022-05-21T10:46:38Z</time>
      </trkpt>
      <trkpt lat="46.50593" lon="5.50512">
        <ele>516</ele>
        <time>2022-05-21T10:46:40Z</time>
      </trkpt>
      <trkpt lat="46.50599" lon="5.50521">
        <ele>516.4</ele>
        <time>2022-05-21T10:46:42Z</time>
      </trkpt>
      <trkpt lat="46.50602" lon="5.50525">
        <ele>516.6</ele>
        <time>2022-05-21T10:46:43Z</time>
      </trkpt>
      <trkpt lat="46.50607" lon="5.50533">
        <ele>517.6</ele>
        <time>2022-05-21T10:46:45Z</time>
      </trkpt>
      <trkpt lat="46.50617" lon="5.50545">
        <ele>518.4</ele>
        <time>2022-05-21T10:46:48Z</time>
      </trkpt>
      <trkpt lat="46.50622" lon="5.5055">
        <ele>518.8</ele>
        <time>2022-05-21T10:46:49Z</time>
      </trkpt>
      <trkpt lat="46.50631" lon="5.50558">
        <ele>519</ele>
        <time>2022-05-21T10:46:51Z</time>
      </trkpt>
      <trkpt lat="46.50659" lon="5.50576">
        <ele>519.2</ele>
        <time>2022-05-21T10:46:56Z</time>
      </trkpt>
      <trkpt lat="46.50688" lon="5.50583">
        <ele>518.8</ele>
        <time>2022-05-21T10:47:01Z</time>
      </trkpt>
      <trkpt lat="46.50694" lon="5.50584">
        <ele>519</ele>
        <time>2022-05-21T10:47:02Z</time>
      </trkpt>
      <trkpt lat="46.50729" lon="5.50595">
        <ele>519.4</ele>
        <time>2022-05-21T10:47:08Z</time>
      </trkpt>
      <trkpt lat="46.50763" lon="5.50612">
        <ele>518.8</ele>
        <time>2022-05-21T10:47:13Z</time>
      </trkpt>
      <trkpt lat="46.50778" lon="5.50617">
        <ele>518.2</ele>
        <time>2022-05-21T10:47:15Z</time>
      </trkpt>
      <trkpt lat="46.50794" lon="5.50618">
        <ele>518</ele>
        <time>2022-05-21T10:47:17Z</time>
      </trkpt>
      <trkpt lat="46.50809" lon="5.50618">
        <ele>517.4</ele>
        <time>2022-05-21T10:47:19Z</time>
      </trkpt>
      <trkpt lat="46.50865" lon="5.50619">
        <ele>517</ele>
        <time>2022-05-21T10:47:27Z</time>
      </trkpt>
      <trkpt lat="46.50914" lon="5.50609">
        <ele>517.6</ele>
        <time>2022-05-21T10:47:34Z</time>
      </trkpt>
      <trkpt lat="46.5095" lon="5.50609">
        <ele>516.8</ele>
        <time>2022-05-21T10:47:39Z</time>
      </trkpt>
      <trkpt lat="46.51008" lon="5.50621">
        <ele>516.4</ele>
        <time>2022-05-21T10:47:48Z</time>
      </trkpt>
      <trkpt lat="46.51035" lon="5.50629">
        <ele>517.2</ele>
        <time>2022-05-21T10:47:53Z</time>
      </trkpt>
      <trkpt lat="46.51052" lon="5.50633">
        <ele>517.4</ele>
        <time>2022-05-21T10:47:56Z</time>
      </trkpt>
      <trkpt lat="46.51097" lon="5.50645">
        <ele>518.4</ele>
        <time>2022-05-21T10:48:04Z</time>
      </trkpt>
      <trkpt lat="46.51125" lon="5.50648">
        <ele>518.6</ele>
        <time>2022-05-21T10:48:09Z</time>
      </trkpt>
      <trkpt lat="46.51163" lon="5.50644">
        <ele>519.6</ele>
        <time>2022-05-21T10:48:16Z</time>
      </trkpt>
      <trkpt lat="46.51184" lon="5.5064">
        <ele>520.6</ele>
        <time>2022-05-21T10:48:20Z</time>
      </trkpt>
      <trkpt lat="46.5119" lon="5.50639">
        <ele>520.8</ele>
        <time>2022-05-21T10:48:21Z</time>
      </trkpt>
      <trkpt lat="46.51233" lon="5.50637">
        <ele>521.8</ele>
        <time>2022-05-21T10:48:29Z</time>
      </trkpt>
      <trkpt lat="46.51288" lon="5.50641">
        <ele>522.4</ele>
        <time>2022-05-21T10:48:39Z</time>
      </trkpt>
      <trkpt lat="46.51298" lon="5.50642">
        <ele>522.4</ele>
        <time>2022-05-21T10:48:41Z</time>
      </trkpt>
      <trkpt lat="46.51315" lon="5.50645">
        <ele>522.8</ele>
        <time>2022-05-21T10:48:44Z</time>
      </trkpt>
      <trkpt lat="46.51343" lon="5.50649">
        <ele>523</ele>
        <time>2022-05-21T10:48:49Z</time>
      </trkpt>
      <trkpt lat="46.5136" lon="5.50651">
        <ele>523.4</ele>
        <time>2022-05-21T10:48:52Z</time>
      </trkpt>
      <trkpt lat="46.51377" lon="5.50653">
        <ele>523.8</ele>
        <time>2022-05-21T10:48:55Z</time>
      </trkpt>
      <trkpt lat="46.51413" lon="5.5066">
        <ele>524.6</ele>
        <time>2022-05-21T10:49:01Z</time>
      </trkpt>
      <trkpt lat="46.51461" lon="5.50675">
        <ele>524.8</ele>
        <time>2022-05-21T10:49:09Z</time>
      </trkpt>
      <trkpt lat="46.51507" lon="5.50678">
        <ele>524.6</ele>
        <time>2022-05-21T10:49:16Z</time>
      </trkpt>
      <trkpt lat="46.51564" lon="5.50681">
        <ele>524.2</ele>
        <time>2022-05-21T10:49:25Z</time>
      </trkpt>
      <trkpt lat="46.51607" lon="5.50698">
        <ele>524</ele>
        <time>2022-05-21T10:49:32Z</time>
      </trkpt>
      <trkpt lat="46.5166" lon="5.50717">
        <ele>524</ele>
        <time>2022-05-21T10:49:41Z</time>
      </trkpt>
      <trkpt lat="46.51695" lon="5.50728">
        <ele>525</ele>
        <time>2022-05-21T10:49:47Z</time>
      </trkpt>
      <trkpt lat="46.51717" lon="5.50737">
        <ele>525.4</ele>
        <time>2022-05-21T10:49:51Z</time>
      </trkpt>
      <trkpt lat="46.51733" lon="5.50746">
        <ele>526</ele>
        <time>2022-05-21T10:49:54Z</time>
      </trkpt>
      <trkpt lat="46.51748" lon="5.50757">
        <ele>526.4</ele>
        <time>2022-05-21T10:49:57Z</time>
      </trkpt>
      <trkpt lat="46.51762" lon="5.50768">
        <ele>527.2</ele>
        <time>2022-05-21T10:50:00Z</time>
      </trkpt>
      <trkpt lat="46.51783" lon="5.50781">
        <ele>528.2</ele>
        <time>2022-05-21T10:50:04Z</time>
      </trkpt>
      <trkpt lat="46.51794" lon="5.50788">
        <ele>528.6</ele>
        <time>2022-05-21T10:50:06Z</time>
      </trkpt>
      <trkpt lat="46.51823" lon="5.50807">
        <ele>528.6</ele>
        <time>2022-05-21T10:50:11Z</time>
      </trkpt>
      <trkpt lat="46.51859" lon="5.50829">
        <ele>528</ele>
        <time>2022-05-21T10:50:16Z</time>
      </trkpt>
      <trkpt lat="46.51866" lon="5.50833">
        <ele>527</ele>
        <time>2022-05-21T10:50:17Z</time>
      </trkpt>
      <trkpt lat="46.5189" lon="5.5084">
        <ele>526</ele>
        <time>2022-05-21T10:50:20Z</time>
      </trkpt>
      <trkpt lat="46.51898" lon="5.50843">
        <ele>525.8</ele>
        <time>2022-05-21T10:50:21Z</time>
      </trkpt>
      <trkpt lat="46.5193" lon="5.50846">
        <ele>525</ele>
        <time>2022-05-21T10:50:25Z</time>
      </trkpt>
      <trkpt lat="46.51946" lon="5.50844">
        <ele>524.6</ele>
        <time>2022-05-21T10:50:27Z</time>
      </trkpt>
      <trkpt lat="46.51987" lon="5.50839">
        <ele>524.2</ele>
        <time>2022-05-21T10:50:32Z</time>
      </trkpt>
      <trkpt lat="46.51995" lon="5.50841">
        <ele>524</ele>
        <time>2022-05-21T10:50:33Z</time>
      </trkpt>
      <trkpt lat="46.52052" lon="5.50864">
        <ele>522.8</ele>
        <time>2022-05-21T10:50:40Z</time>
      </trkpt>
      <trkpt lat="46.5209" lon="5.50886">
        <ele>521.6</ele>
        <time>2022-05-21T10:50:45Z</time>
      </trkpt>
      <trkpt lat="46.52098" lon="5.50891">
        <ele>521.6</ele>
        <time>2022-05-21T10:50:46Z</time>
      </trkpt>
      <trkpt lat="46.52147" lon="5.5093">
        <ele>521</ele>
        <time>2022-05-21T10:50:53Z</time>
      </trkpt>
      <trkpt lat="46.52158" lon="5.50942">
        <ele>521.2</ele>
        <time>2022-05-21T10:50:55Z</time>
      </trkpt>
      <trkpt lat="46.52168" lon="5.50956">
        <ele>521</ele>
        <time>2022-05-21T10:50:57Z</time>
      </trkpt>
      <trkpt lat="46.52173" lon="5.50963">
        <ele>520.8</ele>
        <time>2022-05-21T10:50:58Z</time>
      </trkpt>
      <trkpt lat="46.52185" lon="5.50989">
        <ele>520.6</ele>
        <time>2022-05-21T10:51:01Z</time>
      </trkpt>
      <trkpt lat="46.52196" lon="5.51006">
        <ele>521.2</ele>
        <time>2022-05-21T10:51:03Z</time>
      </trkpt>
      <trkpt lat="46.52208" lon="5.51019">
        <ele>521</ele>
        <time>2022-05-21T10:51:05Z</time>
      </trkpt>
      <trkpt lat="46.52247" lon="5.51051">
        <ele>520.6</ele>
        <time>2022-05-21T10:51:11Z</time>
      </trkpt>
      <trkpt lat="46.52261" lon="5.51061">
        <ele>520.4</ele>
        <time>2022-05-21T10:51:13Z</time>
      </trkpt>
      <trkpt lat="46.523" lon="5.51086">
        <ele>521</ele>
        <time>2022-05-21T10:51:19Z</time>
      </trkpt>
      <trkpt lat="46.52326" lon="5.51102">
        <ele>521.6</ele>
        <time>2022-05-21T10:51:23Z</time>
      </trkpt>
      <trkpt lat="46.52345" lon="5.51115">
        <ele>522.8</ele>
        <time>2022-05-21T10:51:26Z</time>
      </trkpt>
      <trkpt lat="46.52357" lon="5.51123">
        <ele>523.4</ele>
        <time>2022-05-21T10:51:28Z</time>
      </trkpt>
      <trkpt lat="46.52376" lon="5.51135">
        <ele>523.6</ele>
        <time>2022-05-21T10:51:31Z</time>
      </trkpt>
      <trkpt lat="46.52414" lon="5.51159">
        <ele>524.4</ele>
        <time>2022-05-21T10:51:37Z</time>
      </trkpt>
      <trkpt lat="46.52428" lon="5.51167">
        <ele>524.4</ele>
        <time>2022-05-21T10:51:39Z</time>
      </trkpt>
      <trkpt lat="46.52464" lon="5.5119">
        <ele>524.4</ele>
        <time>2022-05-21T10:51:44Z</time>
      </trkpt>
      <trkpt lat="46.52516" lon="5.5122">
        <ele>523.4</ele>
        <time>2022-05-21T10:51:51Z</time>
      </trkpt>
      <trkpt lat="46.52532" lon="5.51228">
        <ele>523</ele>
        <time>2022-05-21T10:51:53Z</time>
      </trkpt>
      <trkpt lat="46.52548" lon="5.51235">
        <ele>522.6</ele>
        <time>2022-05-21T10:51:55Z</time>
      </trkpt>
      <trkpt lat="46.52573" lon="5.51245">
        <ele>521.4</ele>
        <time>2022-05-21T10:51:58Z</time>
      </trkpt>
      <trkpt lat="46.52598" lon="5.51257">
        <ele>520.2</ele>
        <time>2022-05-21T10:52:01Z</time>
      </trkpt>
      <trkpt lat="46.52632" lon="5.51272">
        <ele>519.2</ele>
        <time>2022-05-21T10:52:05Z</time>
      </trkpt>
      <trkpt lat="46.52681" lon="5.513">
        <ele>518.4</ele>
        <time>2022-05-21T10:52:11Z</time>
      </trkpt>
      <trkpt lat="46.52696" lon="5.51309">
        <ele>518.2</ele>
        <time>2022-05-21T10:52:13Z</time>
      </trkpt>
      <trkpt lat="46.52734" lon="5.51331">
        <ele>516.8</ele>
        <time>2022-05-21T10:52:18Z</time>
      </trkpt>
      <trkpt lat="46.52789" lon="5.51358">
        <ele>516</ele>
        <time>2022-05-21T10:52:25Z</time>
      </trkpt>
      <trkpt lat="46.52804" lon="5.51367">
        <ele>515.8</ele>
        <time>2022-05-21T10:52:27Z</time>
      </trkpt>
      <trkpt lat="46.52812" lon="5.51372">
        <ele>515.6</ele>
        <time>2022-05-21T10:52:28Z</time>
      </trkpt>
      <trkpt lat="46.52866" lon="5.514">
        <ele>515</ele>
        <time>2022-05-21T10:52:35Z</time>
      </trkpt>
      <trkpt lat="46.52914" lon="5.51422">
        <ele>514.6</ele>
        <time>2022-05-21T10:52:41Z</time>
      </trkpt>
      <trkpt lat="46.52929" lon="5.51433">
        <ele>514.4</ele>
        <time>2022-05-21T10:52:43Z</time>
      </trkpt>
      <trkpt lat="46.52971" lon="5.51473">
        <ele>513.4</ele>
        <time>2022-05-21T10:52:49Z</time>
      </trkpt>
      <trkpt lat="46.53022" lon="5.51521">
        <ele>513.6</ele>
        <time>2022-05-21T10:52:57Z</time>
      </trkpt>
      <trkpt lat="46.53076" lon="5.51553">
        <ele>513.8</ele>
        <time>2022-05-21T10:53:05Z</time>
      </trkpt>
      <trkpt lat="46.53129" lon="5.51564">
        <ele>514</ele>
        <time>2022-05-21T10:53:12Z</time>
      </trkpt>
      <trkpt lat="46.53173" lon="5.51558">
        <ele>513.4</ele>
        <time>2022-05-21T10:53:17Z</time>
      </trkpt>
      <trkpt lat="46.53209" lon="5.51555">
        <ele>512.2</ele>
        <time>2022-05-21T10:53:21Z</time>
      </trkpt>
      <trkpt lat="46.53237" lon="5.51554">
        <ele>510.8</ele>
        <time>2022-05-21T10:53:24Z</time>
      </trkpt>
      <trkpt lat="46.53275" lon="5.51571">
        <ele>509.4</ele>
        <time>2022-05-21T10:53:28Z</time>
      </trkpt>
      <trkpt lat="46.53303" lon="5.51588">
        <ele>508.2</ele>
        <time>2022-05-21T10:53:31Z</time>
      </trkpt>
      <trkpt lat="46.53322" lon="5.516">
        <ele>506.6</ele>
        <time>2022-05-21T10:53:33Z</time>
      </trkpt>
      <trkpt lat="46.5335" lon="5.51617">
        <ele>505.6</ele>
        <time>2022-05-21T10:53:36Z</time>
      </trkpt>
      <trkpt lat="46.53359" lon="5.51623">
        <ele>505.2</ele>
        <time>2022-05-21T10:53:37Z</time>
      </trkpt>
      <trkpt lat="46.53377" lon="5.51634">
        <ele>504</ele>
        <time>2022-05-21T10:53:39Z</time>
      </trkpt>
      <trkpt lat="46.53405" lon="5.51652">
        <ele>503</ele>
        <time>2022-05-21T10:53:42Z</time>
      </trkpt>
      <trkpt lat="46.53422" lon="5.51663">
        <ele>502.2</ele>
        <time>2022-05-21T10:53:44Z</time>
      </trkpt>
      <trkpt lat="46.53431" lon="5.51669">
        <ele>501.8</ele>
        <time>2022-05-21T10:53:45Z</time>
      </trkpt>
      <trkpt lat="46.53458" lon="5.51685">
        <ele>500.4</ele>
        <time>2022-05-21T10:53:48Z</time>
      </trkpt>
      <trkpt lat="46.53482" lon="5.51706">
        <ele>499.4</ele>
        <time>2022-05-21T10:53:51Z</time>
      </trkpt>
      <trkpt lat="46.5349" lon="5.51714">
        <ele>499.2</ele>
        <time>2022-05-21T10:53:52Z</time>
      </trkpt>
      <trkpt lat="46.53536" lon="5.51757">
        <ele>498.4</ele>
        <time>2022-05-21T10:53:58Z</time>
      </trkpt>
      <trkpt lat="46.53544" lon="5.51764">
        <ele>498</ele>
        <time>2022-05-21T10:53:59Z</time>
      </trkpt>
      <trkpt lat="46.53552" lon="5.51772">
        <ele>498</ele>
        <time>2022-05-21T10:54:00Z</time>
      </trkpt>
      <trkpt lat="46.5358" lon="5.51807">
        <ele>497.6</ele>
        <time>2022-05-21T10:54:04Z</time>
      </trkpt>
      <trkpt lat="46.53585" lon="5.51817">
        <ele>497.4</ele>
        <time>2022-05-21T10:54:05Z</time>
      </trkpt>
      <trkpt lat="46.53602" lon="5.5185">
        <ele>496.8</ele>
        <time>2022-05-21T10:54:08Z</time>
      </trkpt>
      <trkpt lat="46.53615" lon="5.5187">
        <ele>496.2</ele>
        <time>2022-05-21T10:54:10Z</time>
      </trkpt>
      <trkpt lat="46.53629" lon="5.51888">
        <ele>495.6</ele>
        <time>2022-05-21T10:54:12Z</time>
      </trkpt>
      <trkpt lat="46.53671" lon="5.51942">
        <ele>494.6</ele>
        <time>2022-05-21T10:54:18Z</time>
      </trkpt>
      <trkpt lat="46.53679" lon="5.51949">
        <ele>494.4</ele>
        <time>2022-05-21T10:54:19Z</time>
      </trkpt>
      <trkpt lat="46.5372" lon="5.51975">
        <ele>494</ele>
        <time>2022-05-21T10:54:24Z</time>
      </trkpt>
      <trkpt lat="46.53752" lon="5.51996">
        <ele>493.4</ele>
        <time>2022-05-21T10:54:28Z</time>
      </trkpt>
      <trkpt lat="46.53784" lon="5.52017">
        <ele>493</ele>
        <time>2022-05-21T10:54:32Z</time>
      </trkpt>
      <trkpt lat="46.53799" lon="5.52031">
        <ele>492.8</ele>
        <time>2022-05-21T10:54:34Z</time>
      </trkpt>
      <trkpt lat="46.53819" lon="5.52055">
        <ele>492.4</ele>
        <time>2022-05-21T10:54:37Z</time>
      </trkpt>
      <trkpt lat="46.53825" lon="5.52064">
        <ele>492.4</ele>
        <time>2022-05-21T10:54:38Z</time>
      </trkpt>
      <trkpt lat="46.53831" lon="5.52073">
        <ele>492.2</ele>
        <time>2022-05-21T10:54:39Z</time>
      </trkpt>
      <trkpt lat="46.53841" lon="5.52094">
        <ele>491.8</ele>
        <time>2022-05-21T10:54:41Z</time>
      </trkpt>
      <trkpt lat="46.53847" lon="5.52104">
        <ele>491.6</ele>
        <time>2022-05-21T10:54:42Z</time>
      </trkpt>
      <trkpt lat="46.53861" lon="5.5212">
        <ele>491.4</ele>
        <time>2022-05-21T10:54:44Z</time>
      </trkpt>
      <trkpt lat="46.53876" lon="5.52134">
        <ele>491.2</ele>
        <time>2022-05-21T10:54:46Z</time>
      </trkpt>
      <trkpt lat="46.53919" lon="5.52175">
        <ele>490.2</ele>
        <time>2022-05-21T10:54:52Z</time>
      </trkpt>
      <trkpt lat="46.53926" lon="5.52182">
        <ele>490</ele>
        <time>2022-05-21T10:54:53Z</time>
      </trkpt>
      <trkpt lat="46.53962" lon="5.52208">
        <ele>489.6</ele>
        <time>2022-05-21T10:54:58Z</time>
      </trkpt>
      <trkpt lat="46.54017" lon="5.52231">
        <ele>489.8</ele>
        <time>2022-05-21T10:55:05Z</time>
      </trkpt>
      <trkpt lat="46.54024" lon="5.52235">
        <ele>489.8</ele>
        <time>2022-05-21T10:55:06Z</time>
      </trkpt>
      <trkpt lat="46.54074" lon="5.52266">
        <ele>489.4</ele>
        <time>2022-05-21T10:55:13Z</time>
      </trkpt>
      <trkpt lat="46.54086" lon="5.52274">
        <ele>489.2</ele>
        <time>2022-05-21T10:55:15Z</time>
      </trkpt>
      <trkpt lat="46.54106" lon="5.52288">
        <ele>489</ele>
        <time>2022-05-21T10:55:18Z</time>
      </trkpt>
      <trkpt lat="46.54147" lon="5.52312">
        <ele>489.2</ele>
        <time>2022-05-21T10:55:24Z</time>
      </trkpt>
      <trkpt lat="46.54167" lon="5.52321">
        <ele>489.2</ele>
        <time>2022-05-21T10:55:27Z</time>
      </trkpt>
      <trkpt lat="46.5418" lon="5.52323">
        <ele>489.2</ele>
        <time>2022-05-21T10:55:29Z</time>
      </trkpt>
      <trkpt lat="46.54221" lon="5.52338">
        <ele>489.6</ele>
        <time>2022-05-21T10:55:35Z</time>
      </trkpt>
      <trkpt lat="46.54265" lon="5.52352">
        <ele>489.8</ele>
        <time>2022-05-21T10:55:41Z</time>
      </trkpt>
      <trkpt lat="46.54318" lon="5.52373">
        <ele>489.6</ele>
        <time>2022-05-21T10:55:48Z</time>
      </trkpt>
      <trkpt lat="46.5437" lon="5.52399">
        <ele>489</ele>
        <time>2022-05-21T10:55:55Z</time>
      </trkpt>
      <trkpt lat="46.54385" lon="5.52406">
        <ele>488.6</ele>
        <time>2022-05-21T10:55:57Z</time>
      </trkpt>
      <trkpt lat="46.54408" lon="5.52409">
        <ele>488</ele>
        <time>2022-05-21T10:56:00Z</time>
      </trkpt>
      <trkpt lat="46.54417" lon="5.5241">
        <ele>487.8</ele>
        <time>2022-05-21T10:56:01Z</time>
      </trkpt>
      <trkpt lat="46.54461" lon="5.52414">
        <ele>486.8</ele>
        <time>2022-05-21T10:56:07Z</time>
      </trkpt>
      <trkpt lat="46.5449" lon="5.52418">
        <ele>486.8</ele>
        <time>2022-05-21T10:56:11Z</time>
      </trkpt>
      <trkpt lat="46.54505" lon="5.5242">
        <ele>486.2</ele>
        <time>2022-05-21T10:56:13Z</time>
      </trkpt>
      <trkpt lat="46.54512" lon="5.52421">
        <ele>486</ele>
        <time>2022-05-21T10:56:14Z</time>
      </trkpt>
      <trkpt lat="46.54549" lon="5.52428">
        <ele>485.6</ele>
        <time>2022-05-21T10:56:19Z</time>
      </trkpt>
      <trkpt lat="46.54563" lon="5.5243">
        <ele>485.6</ele>
        <time>2022-05-21T10:56:21Z</time>
      </trkpt>
      <trkpt lat="46.54578" lon="5.52433">
        <ele>485.4</ele>
        <time>2022-05-21T10:56:23Z</time>
      </trkpt>
      <trkpt lat="46.54622" lon="5.52444">
        <ele>485.2</ele>
        <time>2022-05-21T10:56:29Z</time>
      </trkpt>
      <trkpt lat="46.54667" lon="5.52454">
        <ele>485.2</ele>
        <time>2022-05-21T10:56:35Z</time>
      </trkpt>
      <trkpt lat="46.5471" lon="5.52459">
        <ele>485.2</ele>
        <time>2022-05-21T10:56:41Z</time>
      </trkpt>
      <trkpt lat="46.5476" lon="5.52454">
        <ele>484.4</ele>
        <time>2022-05-21T10:56:48Z</time>
      </trkpt>
      <trkpt lat="46.54784" lon="5.52453">
        <ele>484</ele>
        <time>2022-05-21T10:56:51Z</time>
      </trkpt>
      <trkpt lat="46.54807" lon="5.52451">
        <ele>483.4</ele>
        <time>2022-05-21T10:56:54Z</time>
      </trkpt>
      <trkpt lat="46.54829" lon="5.52449">
        <ele>482.8</ele>
        <time>2022-05-21T10:56:57Z</time>
      </trkpt>
      <trkpt lat="46.54869" lon="5.52443">
        <ele>482.2</ele>
        <time>2022-05-21T10:57:02Z</time>
      </trkpt>
      <trkpt lat="46.54895" lon="5.52444">
        <ele>481.6</ele>
        <time>2022-05-21T10:57:05Z</time>
      </trkpt>
      <trkpt lat="46.54911" lon="5.52451">
        <ele>481.2</ele>
        <time>2022-05-21T10:57:07Z</time>
      </trkpt>
      <trkpt lat="46.54919" lon="5.52456">
        <ele>481.2</ele>
        <time>2022-05-21T10:57:08Z</time>
      </trkpt>
      <trkpt lat="46.54939" lon="5.52479">
        <ele>480.4</ele>
        <time>2022-05-21T10:57:11Z</time>
      </trkpt>
      <trkpt lat="46.54945" lon="5.52489">
        <ele>480</ele>
        <time>2022-05-21T10:57:12Z</time>
      </trkpt>
      <trkpt lat="46.54972" lon="5.52541">
        <ele>479</ele>
        <time>2022-05-21T10:57:17Z</time>
      </trkpt>
      <trkpt lat="46.54984" lon="5.52559">
        <ele>479</ele>
        <time>2022-05-21T10:57:19Z</time>
      </trkpt>
      <trkpt lat="46.55014" lon="5.526">
        <ele>478.2</ele>
        <time>2022-05-21T10:57:24Z</time>
      </trkpt>
      <trkpt lat="46.55025" lon="5.52615">
        <ele>478</ele>
        <time>2022-05-21T10:57:26Z</time>
      </trkpt>
      <trkpt lat="46.55049" lon="5.52649">
        <ele>478</ele>
        <time>2022-05-21T10:57:31Z</time>
      </trkpt>
      <trkpt lat="46.55065" lon="5.52674">
        <ele>478.4</ele>
        <time>2022-05-21T10:57:36Z</time>
      </trkpt>
      <trkpt lat="46.5507" lon="5.52691">
        <ele>478.6</ele>
        <time>2022-05-21T10:57:39Z</time>
      </trkpt>
      <trkpt lat="46.55068" lon="5.52698">
        <ele>478.6</ele>
        <time>2022-05-21T10:57:40Z</time>
      </trkpt>
      <trkpt lat="46.55066" lon="5.52706">
        <ele>478.6</ele>
        <time>2022-05-21T10:57:41Z</time>
      </trkpt>
      <trkpt lat="46.55059" lon="5.52721">
        <ele>478.6</ele>
        <time>2022-05-21T10:57:43Z</time>
      </trkpt>
      <trkpt lat="46.55056" lon="5.52729">
        <ele>478.6</ele>
        <time>2022-05-21T10:57:44Z</time>
      </trkpt>
      <trkpt lat="46.55053" lon="5.52736">
        <ele>478.6</ele>
        <time>2022-05-21T10:57:45Z</time>
      </trkpt>
      <trkpt lat="46.55037" lon="5.52772">
        <ele>478.6</ele>
        <time>2022-05-21T10:57:50Z</time>
      </trkpt>
      <trkpt lat="46.55005" lon="5.52819">
        <ele>478.8</ele>
        <time>2022-05-21T10:57:57Z</time>
      </trkpt>
      <trkpt lat="46.54986" lon="5.52844">
        <ele>478.8</ele>
        <time>2022-05-21T10:58:01Z</time>
      </trkpt>
      <trkpt lat="46.54974" lon="5.52868">
        <ele>478.8</ele>
        <time>2022-05-21T10:58:04Z</time>
      </trkpt>
      <trkpt lat="46.54958" lon="5.52912">
        <ele>479</ele>
        <time>2022-05-21T10:58:09Z</time>
      </trkpt>
      <trkpt lat="46.54945" lon="5.52972">
        <ele>479.6</ele>
        <time>2022-05-21T10:58:16Z</time>
      </trkpt>
      <trkpt lat="46.54943" lon="5.52981">
        <ele>480</ele>
        <time>2022-05-21T10:58:17Z</time>
      </trkpt>
      <trkpt lat="46.54931" lon="5.53017">
        <ele>480.8</ele>
        <time>2022-05-21T10:58:22Z</time>
      </trkpt>
      <trkpt lat="46.54925" lon="5.5303">
        <ele>481</ele>
        <time>2022-05-21T10:58:24Z</time>
      </trkpt>
      <trkpt lat="46.54913" lon="5.53055">
        <ele>482.6</ele>
        <time>2022-05-21T10:58:28Z</time>
      </trkpt>
      <trkpt lat="46.5491" lon="5.5306">
        <ele>482.8</ele>
        <time>2022-05-21T10:58:29Z</time>
      </trkpt>
      <trkpt lat="46.54898" lon="5.53084">
        <ele>483.6</ele>
        <time>2022-05-21T10:58:33Z</time>
      </trkpt>
      <trkpt lat="46.54886" lon="5.53106">
        <ele>484.4</ele>
        <time>2022-05-21T10:58:37Z</time>
      </trkpt>
      <trkpt lat="46.54883" lon="5.53111">
        <ele>484.6</ele>
        <time>2022-05-21T10:58:38Z</time>
      </trkpt>
      <trkpt lat="46.5488" lon="5.53116">
        <ele>484.8</ele>
        <time>2022-05-21T10:58:39Z</time>
      </trkpt>
      <trkpt lat="46.54869" lon="5.53129">
        <ele>485.8</ele>
        <time>2022-05-21T10:58:42Z</time>
      </trkpt>
      <trkpt lat="46.5486" lon="5.53137">
        <ele>486</ele>
        <time>2022-05-21T10:58:44Z</time>
      </trkpt>
      <trkpt lat="46.54845" lon="5.53147">
        <ele>487</ele>
        <time>2022-05-21T10:58:47Z</time>
      </trkpt>
      <trkpt lat="46.5482" lon="5.53162">
        <ele>487.6</ele>
        <time>2022-05-21T10:58:52Z</time>
      </trkpt>
      <trkpt lat="46.54799" lon="5.53174">
        <ele>488</ele>
        <time>2022-05-21T10:58:56Z</time>
      </trkpt>
      <trkpt lat="46.54764" lon="5.5319">
        <ele>488.8</ele>
        <time>2022-05-21T10:59:03Z</time>
      </trkpt>
      <trkpt lat="46.54759" lon="5.53192">
        <ele>489</ele>
        <time>2022-05-21T10:59:04Z</time>
      </trkpt>
      <trkpt lat="46.54735" lon="5.53194">
        <ele>490.4</ele>
        <time>2022-05-21T10:59:09Z</time>
      </trkpt>
      <trkpt lat="46.5473" lon="5.53194">
        <ele>490.6</ele>
        <time>2022-05-21T10:59:10Z</time>
      </trkpt>
      <trkpt lat="46.54708" lon="5.53191">
        <ele>491.4</ele>
        <time>2022-05-21T10:59:15Z</time>
      </trkpt>
      <trkpt lat="46.54692" lon="5.5319">
        <ele>492.2</ele>
        <time>2022-05-21T10:59:19Z</time>
      </trkpt>
      <trkpt lat="46.54688" lon="5.53189">
        <ele>492.4</ele>
        <time>2022-05-21T10:59:20Z</time>
      </trkpt>
      <trkpt lat="46.54676" lon="5.53189">
        <ele>493.6</ele>
        <time>2022-05-21T10:59:23Z</time>
      </trkpt>
      <trkpt lat="46.54672" lon="5.53189">
        <ele>493.8</ele>
        <time>2022-05-21T10:59:24Z</time>
      </trkpt>
      <trkpt lat="46.54661" lon="5.5319">
        <ele>494.6</ele>
        <time>2022-05-21T10:59:27Z</time>
      </trkpt>
      <trkpt lat="46.54642" lon="5.53194">
        <ele>495.8</ele>
        <time>2022-05-21T10:59:32Z</time>
      </trkpt>
      <trkpt lat="46.54631" lon="5.53198">
        <ele>496.4</ele>
        <time>2022-05-21T10:59:35Z</time>
      </trkpt>
      <trkpt lat="46.54627" lon="5.53199">
        <ele>496.8</ele>
        <time>2022-05-21T10:59:36Z</time>
      </trkpt>
      <trkpt lat="46.54609" lon="5.53207">
        <ele>498</ele>
        <time>2022-05-21T10:59:41Z</time>
      </trkpt>
      <trkpt lat="46.5459" lon="5.53215">
        <ele>498.8</ele>
        <time>2022-05-21T10:59:46Z</time>
      </trkpt>
      <trkpt lat="46.54583" lon="5.53218">
        <ele>499</ele>
        <time>2022-05-21T10:59:48Z</time>
      </trkpt>
      <trkpt lat="46.54561" lon="5.53225">
        <ele>500.2</ele>
        <time>2022-05-21T10:59:54Z</time>
      </trkpt>
      <trkpt lat="46.54557" lon="5.53226">
        <ele>500.4</ele>
        <time>2022-05-21T10:59:55Z</time>
      </trkpt>
      <trkpt lat="46.5455" lon="5.53229">
        <ele>500.8</ele>
        <time>2022-05-21T10:59:57Z</time>
      </trkpt>
      <trkpt lat="46.54539" lon="5.53231">
        <ele>501.2</ele>
        <time>2022-05-21T11:00:00Z</time>
      </trkpt>
      <trkpt lat="46.54525" lon="5.53235">
        <ele>502.2</ele>
        <time>2022-05-21T11:00:04Z</time>
      </trkpt>
      <trkpt lat="46.54521" lon="5.53235">
        <ele>502.4</ele>
        <time>2022-05-21T11:00:05Z</time>
      </trkpt>
      <trkpt lat="46.54504" lon="5.53239">
        <ele>503.4</ele>
        <time>2022-05-21T11:00:10Z</time>
      </trkpt>
      <trkpt lat="46.54486" lon="5.53243">
        <ele>504.4</ele>
        <time>2022-05-21T11:00:15Z</time>
      </trkpt>
      <trkpt lat="46.54475" lon="5.53245">
        <ele>505.2</ele>
        <time>2022-05-21T11:00:18Z</time>
      </trkpt>
      <trkpt lat="46.54468" lon="5.53246">
        <ele>505.6</ele>
        <time>2022-05-21T11:00:20Z</time>
      </trkpt>
      <trkpt lat="46.54462" lon="5.53248">
        <ele>506</ele>
        <time>2022-05-21T11:00:22Z</time>
      </trkpt>
      <trkpt lat="46.54451" lon="5.5325">
        <ele>506.8</ele>
        <time>2022-05-21T11:00:25Z</time>
      </trkpt>
      <trkpt lat="46.54438" lon="5.53253">
        <ele>507.4</ele>
        <time>2022-05-21T11:00:29Z</time>
      </trkpt>
      <trkpt lat="46.54435" lon="5.53253">
        <ele>508</ele>
        <time>2022-05-21T11:00:30Z</time>
      </trkpt>
      <trkpt lat="46.54418" lon="5.53258">
        <ele>509</ele>
        <time>2022-05-21T11:00:35Z</time>
      </trkpt>
      <trkpt lat="46.54407" lon="5.53261">
        <ele>509.8</ele>
        <time>2022-05-21T11:00:38Z</time>
      </trkpt>
      <trkpt lat="46.54404" lon="5.53263">
        <ele>510</ele>
        <time>2022-05-21T11:00:39Z</time>
      </trkpt>
      <trkpt lat="46.54385" lon="5.53277">
        <ele>511.2</ele>
        <time>2022-05-21T11:00:44Z</time>
      </trkpt>
      <trkpt lat="46.54382" lon="5.53281">
        <ele>511.4</ele>
        <time>2022-05-21T11:00:45Z</time>
      </trkpt>
      <trkpt lat="46.54371" lon="5.53298">
        <ele>511.8</ele>
        <time>2022-05-21T11:00:49Z</time>
      </trkpt>
      <trkpt lat="46.54366" lon="5.53308">
        <ele>512</ele>
        <time>2022-05-21T11:00:51Z</time>
      </trkpt>
      <trkpt lat="46.54364" lon="5.53313">
        <ele>512.2</ele>
        <time>2022-05-21T11:00:52Z</time>
      </trkpt>
      <trkpt lat="46.54362" lon="5.53319">
        <ele>512.4</ele>
        <time>2022-05-21T11:00:53Z</time>
      </trkpt>
      <trkpt lat="46.54355" lon="5.53354">
        <ele>513.4</ele>
        <time>2022-05-21T11:00:59Z</time>
      </trkpt>
      <trkpt lat="46.54354" lon="5.53361">
        <ele>513.8</ele>
        <time>2022-05-21T11:01:00Z</time>
      </trkpt>
      <trkpt lat="46.54348" lon="5.53388">
        <ele>514.6</ele>
        <time>2022-05-21T11:01:04Z</time>
      </trkpt>
      <trkpt lat="46.54346" lon="5.53395">
        <ele>514.8</ele>
        <time>2022-05-21T11:01:05Z</time>
      </trkpt>
      <trkpt lat="46.54344" lon="5.53401">
        <ele>514.8</ele>
        <time>2022-05-21T11:01:06Z</time>
      </trkpt>
      <trkpt lat="46.5433" lon="5.53423">
        <ele>515.2</ele>
        <time>2022-05-21T11:01:10Z</time>
      </trkpt>
      <trkpt lat="46.54323" lon="5.53432">
        <ele>515.8</ele>
        <time>2022-05-21T11:01:12Z</time>
      </trkpt>
      <trkpt lat="46.54305" lon="5.53453">
        <ele>516.2</ele>
        <time>2022-05-21T11:01:17Z</time>
      </trkpt>
      <trkpt lat="46.54302" lon="5.53458">
        <ele>516.2</ele>
        <time>2022-05-21T11:01:18Z</time>
      </trkpt>
      <trkpt lat="46.54293" lon="5.53474">
        <ele>516.8</ele>
        <time>2022-05-21T11:01:21Z</time>
      </trkpt>
      <trkpt lat="46.54291" lon="5.5348">
        <ele>517</ele>
        <time>2022-05-21T11:01:22Z</time>
      </trkpt>
      <trkpt lat="46.54287" lon="5.53492">
        <ele>517.2</ele>
        <time>2022-05-21T11:01:24Z</time>
      </trkpt>
      <trkpt lat="46.54277" lon="5.5352">
        <ele>517.6</ele>
        <time>2022-05-21T11:01:28Z</time>
      </trkpt>
      <trkpt lat="46.54269" lon="5.53542">
        <ele>517.8</ele>
        <time>2022-05-21T11:01:31Z</time>
      </trkpt>
      <trkpt lat="46.54257" lon="5.53571">
        <ele>518</ele>
        <time>2022-05-21T11:01:35Z</time>
      </trkpt>
      <trkpt lat="46.54231" lon="5.53621">
        <ele>518.8</ele>
        <time>2022-05-21T11:01:43Z</time>
      </trkpt>
      <trkpt lat="46.54228" lon="5.53627">
        <ele>519</ele>
        <time>2022-05-21T11:01:44Z</time>
      </trkpt>
      <trkpt lat="46.54209" lon="5.53672">
        <ele>520</ele>
        <time>2022-05-21T11:01:51Z</time>
      </trkpt>
      <trkpt lat="46.54205" lon="5.53687">
        <ele>520.2</ele>
        <time>2022-05-21T11:01:53Z</time>
      </trkpt>
      <trkpt lat="46.54203" lon="5.53718">
        <ele>520.6</ele>
        <time>2022-05-21T11:01:57Z</time>
      </trkpt>
      <trkpt lat="46.54201" lon="5.53768">
        <ele>521</ele>
        <time>2022-05-21T11:02:03Z</time>
      </trkpt>
      <trkpt lat="46.542" lon="5.53809">
        <ele>521.6</ele>
        <time>2022-05-21T11:02:08Z</time>
      </trkpt>
      <trkpt lat="46.542" lon="5.53825">
        <ele>521.6</ele>
        <time>2022-05-21T11:02:10Z</time>
      </trkpt>
      <trkpt lat="46.54197" lon="5.5388">
        <ele>522</ele>
        <time>2022-05-21T11:02:17Z</time>
      </trkpt>
      <trkpt lat="46.54197" lon="5.53888">
        <ele>522</ele>
        <time>2022-05-21T11:02:18Z</time>
      </trkpt>
      <trkpt lat="46.54192" lon="5.53959">
        <ele>522.6</ele>
        <time>2022-05-21T11:02:26Z</time>
      </trkpt>
      <trkpt lat="46.54173" lon="5.54034">
        <ele>522.8</ele>
        <time>2022-05-21T11:02:35Z</time>
      </trkpt>
      <trkpt lat="46.5416" lon="5.5408">
        <ele>523.2</ele>
        <time>2022-05-21T11:02:41Z</time>
      </trkpt>
      <trkpt lat="46.54153" lon="5.54103">
        <ele>523.4</ele>
        <time>2022-05-21T11:02:44Z</time>
      </trkpt>
      <trkpt lat="46.54137" lon="5.54163">
        <ele>524.6</ele>
        <time>2022-05-21T11:02:52Z</time>
      </trkpt>
      <trkpt lat="46.54125" lon="5.54198">
        <ele>525.8</ele>
        <time>2022-05-21T11:02:57Z</time>
      </trkpt>
      <trkpt lat="46.5412" lon="5.5421">
        <ele>526</ele>
        <time>2022-05-21T11:02:59Z</time>
      </trkpt>
      <trkpt lat="46.54113" lon="5.54233">
        <ele>526.2</ele>
        <time>2022-05-21T11:03:02Z</time>
      </trkpt>
      <trkpt lat="46.54106" lon="5.54262">
        <ele>526.8</ele>
        <time>2022-05-21T11:03:06Z</time>
      </trkpt>
      <trkpt lat="46.54102" lon="5.54281">
        <ele>527.2</ele>
        <time>2022-05-21T11:03:09Z</time>
      </trkpt>
      <trkpt lat="46.54097" lon="5.54297">
        <ele>528</ele>
        <time>2022-05-21T11:03:12Z</time>
      </trkpt>
      <trkpt lat="46.54093" lon="5.54313">
        <ele>529</ele>
        <time>2022-05-21T11:03:15Z</time>
      </trkpt>
      <trkpt lat="46.54088" lon="5.54336">
        <ele>530.2</ele>
        <time>2022-05-21T11:03:19Z</time>
      </trkpt>
      <trkpt lat="46.54084" lon="5.54356">
        <ele>531.2</ele>
        <time>2022-05-21T11:03:22Z</time>
      </trkpt>
      <trkpt lat="46.54074" lon="5.54393">
        <ele>532.2</ele>
        <time>2022-05-21T11:03:28Z</time>
      </trkpt>
      <trkpt lat="46.5407" lon="5.54405">
        <ele>532.4</ele>
        <time>2022-05-21T11:03:30Z</time>
      </trkpt>
      <trkpt lat="46.54065" lon="5.54424">
        <ele>533.4</ele>
        <time>2022-05-21T11:03:33Z</time>
      </trkpt>
      <trkpt lat="46.54058" lon="5.54449">
        <ele>534.4</ele>
        <time>2022-05-21T11:03:37Z</time>
      </trkpt>
      <trkpt lat="46.54055" lon="5.54462">
        <ele>534.8</ele>
        <time>2022-05-21T11:03:39Z</time>
      </trkpt>
      <trkpt lat="46.54045" lon="5.54495">
        <ele>535.2</ele>
        <time>2022-05-21T11:03:44Z</time>
      </trkpt>
      <trkpt lat="46.54038" lon="5.54523">
        <ele>535.4</ele>
        <time>2022-05-21T11:03:48Z</time>
      </trkpt>
      <trkpt lat="46.54032" lon="5.54545">
        <ele>535.4</ele>
        <time>2022-05-21T11:03:51Z</time>
      </trkpt>
      <trkpt lat="46.54021" lon="5.54584">
        <ele>535.8</ele>
        <time>2022-05-21T11:03:56Z</time>
      </trkpt>
      <trkpt lat="46.54008" lon="5.5463">
        <ele>536.4</ele>
        <time>2022-05-21T11:04:02Z</time>
      </trkpt>
      <trkpt lat="46.54002" lon="5.54653">
        <ele>536.6</ele>
        <time>2022-05-21T11:04:05Z</time>
      </trkpt>
      <trkpt lat="46.53992" lon="5.54688">
        <ele>537</ele>
        <time>2022-05-21T11:04:10Z</time>
      </trkpt>
      <trkpt lat="46.53987" lon="5.547">
        <ele>537.2</ele>
        <time>2022-05-21T11:04:12Z</time>
      </trkpt>
      <trkpt lat="46.53983" lon="5.54706">
        <ele>537.2</ele>
        <time>2022-05-21T11:04:13Z</time>
      </trkpt>
      <trkpt lat="46.53959" lon="5.54742">
        <ele>537.6</ele>
        <time>2022-05-21T11:04:19Z</time>
      </trkpt>
      <trkpt lat="46.53931" lon="5.54769">
        <ele>537.6</ele>
        <time>2022-05-21T11:04:24Z</time>
      </trkpt>
      <trkpt lat="46.53896" lon="5.54789">
        <ele>537.2</ele>
        <time>2022-05-21T11:04:29Z</time>
      </trkpt>
      <trkpt lat="46.53881" lon="5.54794">
        <ele>537</ele>
        <time>2022-05-21T11:04:31Z</time>
      </trkpt>
      <trkpt lat="46.53858" lon="5.54799">
        <ele>536.6</ele>
        <time>2022-05-21T11:04:34Z</time>
      </trkpt>
      <trkpt lat="46.53826" lon="5.54807">
        <ele>536.2</ele>
        <time>2022-05-21T11:04:38Z</time>
      </trkpt>
      <trkpt lat="46.53792" lon="5.54814">
        <ele>535.6</ele>
        <time>2022-05-21T11:04:42Z</time>
      </trkpt>
      <trkpt lat="46.53774" lon="5.54815">
        <ele>535.2</ele>
        <time>2022-05-21T11:04:44Z</time>
      </trkpt>
      <trkpt lat="46.53747" lon="5.54811">
        <ele>534.8</ele>
        <time>2022-05-21T11:04:47Z</time>
      </trkpt>
      <trkpt lat="46.53721" lon="5.54802">
        <ele>534</ele>
        <time>2022-05-21T11:04:50Z</time>
      </trkpt>
      <trkpt lat="46.53677" lon="5.54786">
        <ele>533</ele>
        <time>2022-05-21T11:04:55Z</time>
      </trkpt>
      <trkpt lat="46.53658" lon="5.5478">
        <ele>532.6</ele>
        <time>2022-05-21T11:04:57Z</time>
      </trkpt>
      <trkpt lat="46.5363" lon="5.54771">
        <ele>531.6</ele>
        <time>2022-05-21T11:05:00Z</time>
      </trkpt>
      <trkpt lat="46.53602" lon="5.54761">
        <ele>530.4</ele>
        <time>2022-05-21T11:05:03Z</time>
      </trkpt>
      <trkpt lat="46.53583" lon="5.54755">
        <ele>529.2</ele>
        <time>2022-05-21T11:05:05Z</time>
      </trkpt>
      <trkpt lat="46.53535" lon="5.54739">
        <ele>528.2</ele>
        <time>2022-05-21T11:05:10Z</time>
      </trkpt>
      <trkpt lat="46.53516" lon="5.54732">
        <ele>527</ele>
        <time>2022-05-21T11:05:12Z</time>
      </trkpt>
      <trkpt lat="46.53467" lon="5.54715">
        <ele>526</ele>
        <time>2022-05-21T11:05:17Z</time>
      </trkpt>
      <trkpt lat="46.53457" lon="5.54712">
        <ele>525.6</ele>
        <time>2022-05-21T11:05:18Z</time>
      </trkpt>
      <trkpt lat="46.53427" lon="5.54702">
        <ele>524.4</ele>
        <time>2022-05-21T11:05:21Z</time>
      </trkpt>
      <trkpt lat="46.53397" lon="5.54692">
        <ele>523.4</ele>
        <time>2022-05-21T11:05:24Z</time>
      </trkpt>
      <trkpt lat="46.53367" lon="5.54683">
        <ele>522.6</ele>
        <time>2022-05-21T11:05:27Z</time>
      </trkpt>
      <trkpt lat="46.53358" lon="5.5468">
        <ele>522.2</ele>
        <time>2022-05-21T11:05:28Z</time>
      </trkpt>
      <trkpt lat="46.5332" lon="5.54667">
        <ele>521</ele>
        <time>2022-05-21T11:05:32Z</time>
      </trkpt>
      <trkpt lat="46.533" lon="5.54661">
        <ele>520.8</ele>
        <time>2022-05-21T11:05:34Z</time>
      </trkpt>
      <trkpt lat="46.53252" lon="5.54648">
        <ele>520</ele>
        <time>2022-05-21T11:05:39Z</time>
      </trkpt>
      <trkpt lat="46.53222" lon="5.54642">
        <ele>519.6</ele>
        <time>2022-05-21T11:05:42Z</time>
      </trkpt>
      <trkpt lat="46.53191" lon="5.54639">
        <ele>518.8</ele>
        <time>2022-05-21T11:05:45Z</time>
      </trkpt>
      <trkpt lat="46.5317" lon="5.54636">
        <ele>517.4</ele>
        <time>2022-05-21T11:05:47Z</time>
      </trkpt>
      <trkpt lat="46.53159" lon="5.54633">
        <ele>517.2</ele>
        <time>2022-05-21T11:05:48Z</time>
      </trkpt>
      <trkpt lat="46.53136" lon="5.54629">
        <ele>516.2</ele>
        <time>2022-05-21T11:05:50Z</time>
      </trkpt>
      <trkpt lat="46.53102" lon="5.54624">
        <ele>515.2</ele>
        <time>2022-05-21T11:05:53Z</time>
      </trkpt>
      <trkpt lat="46.5308" lon="5.54622">
        <ele>513.8</ele>
        <time>2022-05-21T11:05:55Z</time>
      </trkpt>
      <trkpt lat="46.53058" lon="5.5462">
        <ele>512.6</ele>
        <time>2022-05-21T11:05:57Z</time>
      </trkpt>
      <trkpt lat="46.53026" lon="5.54618">
        <ele>511.2</ele>
        <time>2022-05-21T11:06:00Z</time>
      </trkpt>
      <trkpt lat="46.53015" lon="5.54617">
        <ele>510.2</ele>
        <time>2022-05-21T11:06:01Z</time>
      </trkpt>
      <trkpt lat="46.52994" lon="5.54614">
        <ele>509.4</ele>
        <time>2022-05-21T11:06:03Z</time>
      </trkpt>
      <trkpt lat="46.52973" lon="5.54613">
        <ele>509</ele>
        <time>2022-05-21T11:06:05Z</time>
      </trkpt>
      <trkpt lat="46.52911" lon="5.5461">
        <ele>508.2</ele>
        <time>2022-05-21T11:06:11Z</time>
      </trkpt>
      <trkpt lat="46.52901" lon="5.5461">
        <ele>508</ele>
        <time>2022-05-21T11:06:12Z</time>
      </trkpt>
      <trkpt lat="46.52882" lon="5.54607">
        <ele>506.8</ele>
        <time>2022-05-21T11:06:14Z</time>
      </trkpt>
      <trkpt lat="46.52872" lon="5.54606">
        <ele>506.4</ele>
        <time>2022-05-21T11:06:15Z</time>
      </trkpt>
      <trkpt lat="46.52852" lon="5.54605">
        <ele>505.8</ele>
        <time>2022-05-21T11:06:17Z</time>
      </trkpt>
      <trkpt lat="46.52812" lon="5.54602">
        <ele>504.4</ele>
        <time>2022-05-21T11:06:21Z</time>
      </trkpt>
      <trkpt lat="46.52791" lon="5.54601">
        <ele>503.6</ele>
        <time>2022-05-21T11:06:23Z</time>
      </trkpt>
      <trkpt lat="46.52781" lon="5.54601">
        <ele>503.2</ele>
        <time>2022-05-21T11:06:24Z</time>
      </trkpt>
      <trkpt lat="46.52749" lon="5.54604">
        <ele>501.8</ele>
        <time>2022-05-21T11:06:27Z</time>
      </trkpt>
      <trkpt lat="46.52739" lon="5.54611">
        <ele>501</ele>
        <time>2022-05-21T11:06:28Z</time>
      </trkpt>
      <trkpt lat="46.52731" lon="5.54623">
        <ele>500.6</ele>
        <time>2022-05-21T11:06:29Z</time>
      </trkpt>
      <trkpt lat="46.52725" lon="5.54637">
        <ele>500</ele>
        <time>2022-05-21T11:06:30Z</time>
      </trkpt>
      <trkpt lat="46.52722" lon="5.54652">
        <ele>499.2</ele>
        <time>2022-05-21T11:06:31Z</time>
      </trkpt>
      <trkpt lat="46.52719" lon="5.54686">
        <ele>497.8</ele>
        <time>2022-05-21T11:06:33Z</time>
      </trkpt>
      <trkpt lat="46.52716" lon="5.54719">
        <ele>496.4</ele>
        <time>2022-05-21T11:06:35Z</time>
      </trkpt>
      <trkpt lat="46.52714" lon="5.54751">
        <ele>495.2</ele>
        <time>2022-05-21T11:06:37Z</time>
      </trkpt>
      <trkpt lat="46.5271" lon="5.54797">
        <ele>494.2</ele>
        <time>2022-05-21T11:06:40Z</time>
      </trkpt>
      <trkpt lat="46.52709" lon="5.54813">
        <ele>494.2</ele>
        <time>2022-05-21T11:06:41Z</time>
      </trkpt>
      <trkpt lat="46.52705" lon="5.54892">
        <ele>493.2</ele>
        <time>2022-05-21T11:06:46Z</time>
      </trkpt>
      <trkpt lat="46.527" lon="5.54957">
        <ele>492.8</ele>
        <time>2022-05-21T11:06:50Z</time>
      </trkpt>
      <trkpt lat="46.52699" lon="5.54973">
        <ele>492</ele>
        <time>2022-05-21T11:06:51Z</time>
      </trkpt>
      <trkpt lat="46.52696" lon="5.55007">
        <ele>491</ele>
        <time>2022-05-21T11:06:53Z</time>
      </trkpt>
      <trkpt lat="46.52693" lon="5.55055">
        <ele>489.8</ele>
        <time>2022-05-21T11:06:56Z</time>
      </trkpt>
      <trkpt lat="46.52688" lon="5.55117">
        <ele>488.8</ele>
        <time>2022-05-21T11:07:00Z</time>
      </trkpt>
      <trkpt lat="46.52681" lon="5.55203">
        <ele>487.6</ele>
        <time>2022-05-21T11:07:06Z</time>
      </trkpt>
      <trkpt lat="46.52675" lon="5.55282">
        <ele>487</ele>
        <time>2022-05-21T11:07:12Z</time>
      </trkpt>
      <trkpt lat="46.52673" lon="5.55309">
        <ele>487</ele>
        <time>2022-05-21T11:07:14Z</time>
      </trkpt>
      <trkpt lat="46.52668" lon="5.55375">
        <ele>486.6</ele>
        <time>2022-05-21T11:07:19Z</time>
      </trkpt>
      <trkpt lat="46.52664" lon="5.55431">
        <ele>485.8</ele>
        <time>2022-05-21T11:07:23Z</time>
      </trkpt>
      <trkpt lat="46.52662" lon="5.55459">
        <ele>485.4</ele>
        <time>2022-05-21T11:07:25Z</time>
      </trkpt>
      <trkpt lat="46.52657" lon="5.55513">
        <ele>484.4</ele>
        <time>2022-05-21T11:07:29Z</time>
      </trkpt>
      <trkpt lat="46.52656" lon="5.55541">
        <ele>484.2</ele>
        <time>2022-05-21T11:07:31Z</time>
      </trkpt>
      <trkpt lat="46.52649" lon="5.55621">
        <ele>483.8</ele>
        <time>2022-05-21T11:07:37Z</time>
      </trkpt>
      <trkpt lat="46.52645" lon="5.55686">
        <ele>483.8</ele>
        <time>2022-05-21T11:07:42Z</time>
      </trkpt>
      <trkpt lat="46.52638" lon="5.55772">
        <ele>484</ele>
        <time>2022-05-21T11:07:49Z</time>
      </trkpt>
      <trkpt lat="46.52631" lon="5.55856">
        <ele>484</ele>
        <time>2022-05-21T11:07:56Z</time>
      </trkpt>
      <trkpt lat="46.5263" lon="5.5588">
        <ele>484</ele>
        <time>2022-05-21T11:07:58Z</time>
      </trkpt>
      <trkpt lat="46.52623" lon="5.55964">
        <ele>483.8</ele>
        <time>2022-05-21T11:08:05Z</time>
      </trkpt>
      <trkpt lat="46.52622" lon="5.55984">
        <ele>483.8</ele>
        <time>2022-05-21T11:08:07Z</time>
      </trkpt>
      <trkpt lat="46.52616" lon="5.56051">
        <ele>483.8</ele>
        <time>2022-05-21T11:08:13Z</time>
      </trkpt>
      <trkpt lat="46.52613" lon="5.56103">
        <ele>484.4</ele>
        <time>2022-05-21T11:08:18Z</time>
      </trkpt>
      <trkpt lat="46.52615" lon="5.56112">
        <ele>484.4</ele>
        <time>2022-05-21T11:08:19Z</time>
      </trkpt>
      <trkpt lat="46.5262" lon="5.56117">
        <ele>484.4</ele>
        <time>2022-05-21T11:08:20Z</time>
      </trkpt>
      <trkpt lat="46.52627" lon="5.56119">
        <ele>484.4</ele>
        <time>2022-05-21T11:08:21Z</time>
      </trkpt>
      <trkpt lat="46.52633" lon="5.56117">
        <ele>484.6</ele>
        <time>2022-05-21T11:08:22Z</time>
      </trkpt>
      <trkpt lat="46.52646" lon="5.56111">
        <ele>484.8</ele>
        <time>2022-05-21T11:08:24Z</time>
      </trkpt>
      <trkpt lat="46.52688" lon="5.56092">
        <ele>484.6</ele>
        <time>2022-05-21T11:08:31Z</time>
      </trkpt>
      <trkpt lat="46.52717" lon="5.56083">
        <ele>485</ele>
        <time>2022-05-21T11:08:36Z</time>
      </trkpt>
      <trkpt lat="46.52722" lon="5.56087">
        <ele>485.2</ele>
        <time>2022-05-21T11:08:37Z</time>
      </trkpt>
      <trkpt lat="46.52726" lon="5.56093">
        <ele>485.4</ele>
        <time>2022-05-21T11:08:38Z</time>
      </trkpt>
      <trkpt lat="46.52731" lon="5.56109">
        <ele>485.6</ele>
        <time>2022-05-21T11:08:40Z</time>
      </trkpt>
      <trkpt lat="46.52737" lon="5.56134">
        <ele>486</ele>
        <time>2022-05-21T11:08:43Z</time>
      </trkpt>
      <trkpt lat="46.52749" lon="5.56179">
        <ele>486.6</ele>
        <time>2022-05-21T11:08:48Z</time>
      </trkpt>
      <trkpt lat="46.52769" lon="5.56255">
        <ele>486.2</ele>
        <time>2022-05-21T11:08:56Z</time>
      </trkpt>
      <trkpt lat="46.52787" lon="5.5633">
        <ele>486.2</ele>
        <time>2022-05-21T11:09:04Z</time>
      </trkpt>
      <trkpt lat="46.528" lon="5.56386">
        <ele>486.2</ele>
        <time>2022-05-21T11:09:10Z</time>
      </trkpt>
      <trkpt lat="46.52815" lon="5.56445">
        <ele>486.2</ele>
        <time>2022-05-21T11:09:16Z</time>
      </trkpt>
      <trkpt lat="46.52833" lon="5.56521">
        <ele>486.4</ele>
        <time>2022-05-21T11:09:24Z</time>
      </trkpt>
      <trkpt lat="46.52835" lon="5.56527">
        <ele>486.4</ele>
        <time>2022-05-21T11:09:25Z</time>
      </trkpt>
      <trkpt lat="46.52839" lon="5.56546">
        <ele>486.8</ele>
        <time>2022-05-21T11:09:27Z</time>
      </trkpt>
      <trkpt lat="46.52849" lon="5.56586">
        <ele>487.6</ele>
        <time>2022-05-21T11:09:32Z</time>
      </trkpt>
      <trkpt lat="46.52853" lon="5.56603">
        <ele>487.8</ele>
        <time>2022-05-21T11:09:34Z</time>
      </trkpt>
      <trkpt lat="46.52865" lon="5.56657">
        <ele>488.8</ele>
        <time>2022-05-21T11:09:40Z</time>
      </trkpt>
      <trkpt lat="46.52867" lon="5.56667">
        <ele>489</ele>
        <time>2022-05-21T11:09:41Z</time>
      </trkpt>
      <trkpt lat="46.5288" lon="5.56725">
        <ele>489.8</ele>
        <time>2022-05-21T11:09:48Z</time>
      </trkpt>
      <trkpt lat="46.52884" lon="5.56745">
        <ele>490</ele>
        <time>2022-05-21T11:09:50Z</time>
      </trkpt>
      <trkpt lat="46.52902" lon="5.56821">
        <ele>490.4</ele>
        <time>2022-05-21T11:09:59Z</time>
      </trkpt>
      <trkpt lat="46.5291" lon="5.56861">
        <ele>491</ele>
        <time>2022-05-21T11:10:03Z</time>
      </trkpt>
      <trkpt lat="46.52917" lon="5.56887">
        <ele>491.2</ele>
        <time>2022-05-21T11:10:06Z</time>
      </trkpt>
      <trkpt lat="46.52934" lon="5.56954">
        <ele>491.4</ele>
        <time>2022-05-21T11:10:13Z</time>
      </trkpt>
      <trkpt lat="46.52946" lon="5.56989">
        <ele>492.2</ele>
        <time>2022-05-21T11:10:17Z</time>
      </trkpt>
      <trkpt lat="46.52951" lon="5.56997">
        <ele>490.6</ele>
        <time>2022-05-21T11:10:18Z</time>
      </trkpt>
      <trkpt lat="46.5298" lon="5.57041">
        <ele>490.2</ele>
        <time>2022-05-21T11:10:24Z</time>
      </trkpt>
      <trkpt lat="46.52989" lon="5.57057">
        <ele>490.2</ele>
        <time>2022-05-21T11:10:26Z</time>
      </trkpt>
      <trkpt lat="46.52997" lon="5.57074">
        <ele>489.8</ele>
        <time>2022-05-21T11:10:28Z</time>
      </trkpt>
      <trkpt lat="46.53001" lon="5.57083">
        <ele>489.8</ele>
        <time>2022-05-21T11:10:29Z</time>
      </trkpt>
      <trkpt lat="46.53023" lon="5.57137">
        <ele>489.2</ele>
        <time>2022-05-21T11:10:35Z</time>
      </trkpt>
      <trkpt lat="46.53052" lon="5.57212">
        <ele>488.8</ele>
        <time>2022-05-21T11:10:44Z</time>
      </trkpt>
      <trkpt lat="46.53072" lon="5.57261">
        <ele>490.4</ele>
        <time>2022-05-21T11:10:51Z</time>
      </trkpt>
      <trkpt lat="46.53077" lon="5.57276">
        <ele>491</ele>
        <time>2022-05-21T11:10:53Z</time>
      </trkpt>
      <trkpt lat="46.53094" lon="5.57309">
        <ele>491.4</ele>
        <time>2022-05-21T11:10:58Z</time>
      </trkpt>
      <trkpt lat="46.53098" lon="5.57315">
        <ele>491.6</ele>
        <time>2022-05-21T11:10:59Z</time>
      </trkpt>
      <trkpt lat="46.53124" lon="5.57342">
        <ele>492</ele>
        <time>2022-05-21T11:11:05Z</time>
      </trkpt>
      <trkpt lat="46.53162" lon="5.57371">
        <ele>492.8</ele>
        <time>2022-05-21T11:11:13Z</time>
      </trkpt>
      <trkpt lat="46.53167" lon="5.57375">
        <ele>493</ele>
        <time>2022-05-21T11:11:14Z</time>
      </trkpt>
      <trkpt lat="46.53202" lon="5.57408">
        <ele>494.2</ele>
        <time>2022-05-21T11:11:22Z</time>
      </trkpt>
      <trkpt lat="46.53234" lon="5.57443">
        <ele>495</ele>
        <time>2022-05-21T11:11:30Z</time>
      </trkpt>
      <trkpt lat="46.53238" lon="5.57448">
        <ele>495.2</ele>
        <time>2022-05-21T11:11:31Z</time>
      </trkpt>
      <trkpt lat="46.53255" lon="5.57473">
        <ele>495.6</ele>
        <time>2022-05-21T11:11:35Z</time>
      </trkpt>
      <trkpt lat="46.53268" lon="5.57502">
        <ele>495.2</ele>
        <time>2022-05-21T11:11:39Z</time>
      </trkpt>
      <trkpt lat="46.53271" lon="5.57511">
        <ele>495.2</ele>
        <time>2022-05-21T11:11:40Z</time>
      </trkpt>
      <trkpt lat="46.53285" lon="5.5757">
        <ele>494.4</ele>
        <time>2022-05-21T11:11:47Z</time>
      </trkpt>
      <trkpt lat="46.53287" lon="5.57597">
        <ele>494.4</ele>
        <time>2022-05-21T11:11:50Z</time>
      </trkpt>
      <trkpt lat="46.53287" lon="5.57615">
        <ele>494.6</ele>
        <time>2022-05-21T11:11:52Z</time>
      </trkpt>
      <trkpt lat="46.53284" lon="5.57647">
        <ele>494.8</ele>
        <time>2022-05-21T11:11:56Z</time>
      </trkpt>
      <trkpt lat="46.53284" lon="5.57654">
        <ele>494.8</ele>
        <time>2022-05-21T11:11:57Z</time>
      </trkpt>
      <trkpt lat="46.53285" lon="5.57662">
        <ele>495</ele>
        <time>2022-05-21T11:11:58Z</time>
      </trkpt>
      <trkpt lat="46.53286" lon="5.57672">
        <ele>495.4</ele>
        <time>2022-05-21T11:12:00Z</time>
      </trkpt>
      <trkpt lat="46.53286" lon="5.57675">
        <ele>495.6</ele>
        <time>2022-05-21T11:12:01Z</time>
      </trkpt>
      <trkpt lat="46.53286" lon="5.57678">
        <ele>496.6</ele>
        <time>2022-05-21T11:12:04Z</time>
      </trkpt>
      <trkpt lat="46.53286" lon="5.57678">
        <ele>496.8</ele>
        <time>2022-05-21T11:12:05Z</time>
      </trkpt>
      <trkpt lat="46.53288" lon="5.5768">
        <ele>497</ele>
        <time>2022-05-21T11:12:55Z</time>
      </trkpt>
      <trkpt lat="46.53293" lon="5.57688">
        <ele>497</ele>
        <time>2022-05-21T11:12:57Z</time>
      </trkpt>
      <trkpt lat="46.53307" lon="5.5771">
        <ele>496.8</ele>
        <time>2022-05-21T11:13:01Z</time>
      </trkpt>
      <trkpt lat="46.53329" lon="5.5773">
        <ele>496.4</ele>
        <time>2022-05-21T11:13:05Z</time>
      </trkpt>
      <trkpt lat="46.53342" lon="5.57738">
        <ele>495.4</ele>
        <time>2022-05-21T11:13:07Z</time>
      </trkpt>
      <trkpt lat="46.53363" lon="5.57745">
        <ele>494.8</ele>
        <time>2022-05-21T11:13:10Z</time>
      </trkpt>
      <trkpt lat="46.5338" lon="5.57749">
        <ele>494.2</ele>
        <time>2022-05-21T11:13:12Z</time>
      </trkpt>
      <trkpt lat="46.53411" lon="5.5776">
        <ele>493.4</ele>
        <time>2022-05-21T11:13:16Z</time>
      </trkpt>
      <trkpt lat="46.53458" lon="5.57784">
        <ele>493.4</ele>
        <time>2022-05-21T11:13:23Z</time>
      </trkpt>
      <trkpt lat="46.53488" lon="5.57815">
        <ele>493.2</ele>
        <time>2022-05-21T11:13:28Z</time>
      </trkpt>
      <trkpt lat="46.53518" lon="5.57844">
        <ele>492</ele>
        <time>2022-05-21T11:13:32Z</time>
      </trkpt>
      <trkpt lat="46.53527" lon="5.57851">
        <ele>491.8</ele>
        <time>2022-05-21T11:13:33Z</time>
      </trkpt>
      <trkpt lat="46.53544" lon="5.57864">
        <ele>490.2</ele>
        <time>2022-05-21T11:13:35Z</time>
      </trkpt>
      <trkpt lat="46.5357" lon="5.57878">
        <ele>489</ele>
        <time>2022-05-21T11:13:38Z</time>
      </trkpt>
      <trkpt lat="46.53587" lon="5.57885">
        <ele>487.8</ele>
        <time>2022-05-21T11:13:40Z</time>
      </trkpt>
      <trkpt lat="46.53628" lon="5.57901">
        <ele>487.2</ele>
        <time>2022-05-21T11:13:45Z</time>
      </trkpt>
      <trkpt lat="46.5365" lon="5.57908">
        <ele>486.8</ele>
        <time>2022-05-21T11:13:48Z</time>
      </trkpt>
      <trkpt lat="46.53671" lon="5.57915">
        <ele>486.8</ele>
        <time>2022-05-21T11:13:51Z</time>
      </trkpt>
      <trkpt lat="46.53707" lon="5.57926">
        <ele>487.8</ele>
        <time>2022-05-21T11:13:57Z</time>
      </trkpt>
      <trkpt lat="46.53713" lon="5.57927">
        <ele>488.2</ele>
        <time>2022-05-21T11:13:58Z</time>
      </trkpt>
      <trkpt lat="46.53733" lon="5.57933">
        <ele>489</ele>
        <time>2022-05-21T11:14:02Z</time>
      </trkpt>
      <trkpt lat="46.53743" lon="5.57935">
        <ele>490</ele>
        <time>2022-05-21T11:14:04Z</time>
      </trkpt>
      <trkpt lat="46.53753" lon="5.57938">
        <ele>490.6</ele>
        <time>2022-05-21T11:14:06Z</time>
      </trkpt>
      <trkpt lat="46.53757" lon="5.57939">
        <ele>491</ele>
        <time>2022-05-21T11:14:07Z</time>
      </trkpt>
      <trkpt lat="46.5378" lon="5.57946">
        <ele>492.2</ele>
        <time>2022-05-21T11:14:12Z</time>
      </trkpt>
      <trkpt lat="46.53784" lon="5.57947">
        <ele>492.2</ele>
        <time>2022-05-21T11:14:13Z</time>
      </trkpt>
      <trkpt lat="46.53805" lon="5.57954">
        <ele>493.2</ele>
        <time>2022-05-21T11:14:18Z</time>
      </trkpt>
      <trkpt lat="46.53817" lon="5.57957">
        <ele>493.8</ele>
        <time>2022-05-21T11:14:21Z</time>
      </trkpt>
      <trkpt lat="46.53826" lon="5.5796">
        <ele>494.4</ele>
        <time>2022-05-21T11:14:23Z</time>
      </trkpt>
      <trkpt lat="46.53858" lon="5.5797">
        <ele>495.6</ele>
        <time>2022-05-21T11:14:31Z</time>
      </trkpt>
      <trkpt lat="46.53886" lon="5.57977">
        <ele>496.6</ele>
        <time>2022-05-21T11:14:38Z</time>
      </trkpt>
      <trkpt lat="46.53897" lon="5.5798">
        <ele>497</ele>
        <time>2022-05-21T11:14:41Z</time>
      </trkpt>
      <trkpt lat="46.53908" lon="5.57981">
        <ele>498</ele>
        <time>2022-05-21T11:14:44Z</time>
      </trkpt>
      <trkpt lat="46.53922" lon="5.57983">
        <ele>499</ele>
        <time>2022-05-21T11:14:48Z</time>
      </trkpt>
      <trkpt lat="46.53925" lon="5.57984">
        <ele>499.6</ele>
        <time>2022-05-21T11:14:49Z</time>
      </trkpt>
      <trkpt lat="46.53937" lon="5.57987">
        <ele>501</ele>
        <time>2022-05-21T11:14:53Z</time>
      </trkpt>
      <trkpt lat="46.53946" lon="5.57988">
        <ele>502</ele>
        <time>2022-05-21T11:14:56Z</time>
      </trkpt>
      <trkpt lat="46.5396" lon="5.57991">
        <ele>503.2</ele>
        <time>2022-05-21T11:15:01Z</time>
      </trkpt>
      <trkpt lat="46.53966" lon="5.57992">
        <ele>503.6</ele>
        <time>2022-05-21T11:15:03Z</time>
      </trkpt>
      <trkpt lat="46.53977" lon="5.57995">
        <ele>504.6</ele>
        <time>2022-05-21T11:15:07Z</time>
      </trkpt>
      <trkpt lat="46.53982" lon="5.57997">
        <ele>505.4</ele>
        <time>2022-05-21T11:15:09Z</time>
      </trkpt>
      <trkpt lat="46.53985" lon="5.57998">
        <ele>505.8</ele>
        <time>2022-05-21T11:15:10Z</time>
      </trkpt>
      <trkpt lat="46.53999" lon="5.58003">
        <ele>506.8</ele>
        <time>2022-05-21T11:15:14Z</time>
      </trkpt>
      <trkpt lat="46.54013" lon="5.58011">
        <ele>507.4</ele>
        <time>2022-05-21T11:15:18Z</time>
      </trkpt>
      <trkpt lat="46.54017" lon="5.58014">
        <ele>507.6</ele>
        <time>2022-05-21T11:15:19Z</time>
      </trkpt>
      <trkpt lat="46.54025" lon="5.5802">
        <ele>507.8</ele>
        <time>2022-05-21T11:15:21Z</time>
      </trkpt>
      <trkpt lat="46.54032" lon="5.58025">
        <ele>508.2</ele>
        <time>2022-05-21T11:15:23Z</time>
      </trkpt>
      <trkpt lat="46.54062" lon="5.58049">
        <ele>508.8</ele>
        <time>2022-05-21T11:15:31Z</time>
      </trkpt>
      <trkpt lat="46.54065" lon="5.58052">
        <ele>509.2</ele>
        <time>2022-05-21T11:15:32Z</time>
      </trkpt>
      <trkpt lat="46.5407" lon="5.58057">
        <ele>509.2</ele>
        <time>2022-05-21T11:15:33Z</time>
      </trkpt>
      <trkpt lat="46.54086" lon="5.58081">
        <ele>509</ele>
        <time>2022-05-21T11:15:37Z</time>
      </trkpt>
      <trkpt lat="46.54115" lon="5.58112">
        <ele>508</ele>
        <time>2022-05-21T11:15:42Z</time>
      </trkpt>
      <trkpt lat="46.5412" lon="5.58118">
        <ele>507.4</ele>
        <time>2022-05-21T11:15:43Z</time>
      </trkpt>
      <trkpt lat="46.54141" lon="5.58139">
        <ele>506.2</ele>
        <time>2022-05-21T11:15:46Z</time>
      </trkpt>
      <trkpt lat="46.54151" lon="5.58153">
        <ele>505.2</ele>
        <time>2022-05-21T11:15:48Z</time>
      </trkpt>
      <trkpt lat="46.54162" lon="5.58171">
        <ele>504</ele>
        <time>2022-05-21T11:15:50Z</time>
      </trkpt>
      <trkpt lat="46.5417" lon="5.5819">
        <ele>503.4</ele>
        <time>2022-05-21T11:15:52Z</time>
      </trkpt>
      <trkpt lat="46.54175" lon="5.58213">
        <ele>502.8</ele>
        <time>2022-05-21T11:15:54Z</time>
      </trkpt>
      <trkpt lat="46.5418" lon="5.58238">
        <ele>502.2</ele>
        <time>2022-05-21T11:15:56Z</time>
      </trkpt>
      <trkpt lat="46.54183" lon="5.58251">
        <ele>501.6</ele>
        <time>2022-05-21T11:15:57Z</time>
      </trkpt>
      <trkpt lat="46.54194" lon="5.58275">
        <ele>500.8</ele>
        <time>2022-05-21T11:15:59Z</time>
      </trkpt>
      <trkpt lat="46.54201" lon="5.58283">
        <ele>500.6</ele>
        <time>2022-05-21T11:16:00Z</time>
      </trkpt>
      <trkpt lat="46.54208" lon="5.58288">
        <ele>500</ele>
        <time>2022-05-21T11:16:01Z</time>
      </trkpt>
      <trkpt lat="46.54216" lon="5.58293">
        <ele>499.8</ele>
        <time>2022-05-21T11:16:02Z</time>
      </trkpt>
      <trkpt lat="46.54224" lon="5.58298">
        <ele>499.2</ele>
        <time>2022-05-21T11:16:03Z</time>
      </trkpt>
      <trkpt lat="46.54256" lon="5.58314">
        <ele>498</ele>
        <time>2022-05-21T11:16:07Z</time>
      </trkpt>
      <trkpt lat="46.54271" lon="5.58322">
        <ele>497.8</ele>
        <time>2022-05-21T11:16:09Z</time>
      </trkpt>
      <trkpt lat="46.54317" lon="5.58345">
        <ele>497.4</ele>
        <time>2022-05-21T11:16:16Z</time>
      </trkpt>
      <trkpt lat="46.54356" lon="5.58365">
        <ele>498.8</ele>
        <time>2022-05-21T11:16:23Z</time>
      </trkpt>
      <trkpt lat="46.54361" lon="5.58367">
        <ele>499.2</ele>
        <time>2022-05-21T11:16:24Z</time>
      </trkpt>
      <trkpt lat="46.54376" lon="5.58375">
        <ele>500.4</ele>
        <time>2022-05-21T11:16:27Z</time>
      </trkpt>
      <trkpt lat="46.54391" lon="5.58382">
        <ele>500.8</ele>
        <time>2022-05-21T11:16:30Z</time>
      </trkpt>
      <trkpt lat="46.54411" lon="5.58392">
        <ele>501.4</ele>
        <time>2022-05-21T11:16:34Z</time>
      </trkpt>
      <trkpt lat="46.54438" lon="5.58404">
        <ele>501.6</ele>
        <time>2022-05-21T11:16:39Z</time>
      </trkpt>
      <trkpt lat="46.54485" lon="5.58419">
        <ele>502.4</ele>
        <time>2022-05-21T11:16:48Z</time>
      </trkpt>
      <trkpt lat="46.54509" lon="5.58425">
        <ele>503.6</ele>
        <time>2022-05-21T11:16:53Z</time>
      </trkpt>
      <trkpt lat="46.54519" lon="5.58427">
        <ele>503.8</ele>
        <time>2022-05-21T11:16:55Z</time>
      </trkpt>
      <trkpt lat="46.54529" lon="5.5843">
        <ele>504</ele>
        <time>2022-05-21T11:16:57Z</time>
      </trkpt>
      <trkpt lat="46.54538" lon="5.58443">
        <ele>504</ele>
        <time>2022-05-21T11:16:59Z</time>
      </trkpt>
      <trkpt lat="46.5454" lon="5.5846">
        <ele>504.4</ele>
        <time>2022-05-21T11:17:01Z</time>
      </trkpt>
      <trkpt lat="46.54541" lon="5.58472">
        <ele>504.6</ele>
        <time>2022-05-21T11:17:02Z</time>
      </trkpt>
      <trkpt lat="46.54536" lon="5.58527">
        <ele>504.6</ele>
        <time>2022-05-21T11:17:07Z</time>
      </trkpt>
      <trkpt lat="46.54527" lon="5.58609">
        <ele>503.6</ele>
        <time>2022-05-21T11:17:14Z</time>
      </trkpt>
      <trkpt lat="46.54526" lon="5.58621">
        <ele>503.4</ele>
        <time>2022-05-21T11:17:15Z</time>
      </trkpt>
      <trkpt lat="46.54517" lon="5.58699">
        <ele>503</ele>
        <time>2022-05-21T11:17:22Z</time>
      </trkpt>
      <trkpt lat="46.54516" lon="5.5871">
        <ele>503</ele>
        <time>2022-05-21T11:17:23Z</time>
      </trkpt>
      <trkpt lat="46.54514" lon="5.58778">
        <ele>503.2</ele>
        <time>2022-05-21T11:17:29Z</time>
      </trkpt>
      <trkpt lat="46.54512" lon="5.58827">
        <ele>502.4</ele>
        <time>2022-05-21T11:17:33Z</time>
      </trkpt>
      <trkpt lat="46.54512" lon="5.58851">
        <ele>501.8</ele>
        <time>2022-05-21T11:17:35Z</time>
      </trkpt>
      <trkpt lat="46.54511" lon="5.58886">
        <ele>501.4</ele>
        <time>2022-05-21T11:17:38Z</time>
      </trkpt>
      <trkpt lat="46.5451" lon="5.58953">
        <ele>501</ele>
        <time>2022-05-21T11:17:44Z</time>
      </trkpt>
      <trkpt lat="46.54508" lon="5.59036">
        <ele>501</ele>
        <time>2022-05-21T11:17:52Z</time>
      </trkpt>
      <trkpt lat="46.54501" lon="5.59114">
        <ele>500.8</ele>
        <time>2022-05-21T11:17:59Z</time>
      </trkpt>
      <trkpt lat="46.54495" lon="5.59164">
        <ele>500</ele>
        <time>2022-05-21T11:18:03Z</time>
      </trkpt>
      <trkpt lat="46.54492" lon="5.5919">
        <ele>499.4</ele>
        <time>2022-05-21T11:18:05Z</time>
      </trkpt>
      <trkpt lat="46.54491" lon="5.59215">
        <ele>498.8</ele>
        <time>2022-05-21T11:18:07Z</time>
      </trkpt>
      <trkpt lat="46.54489" lon="5.59251">
        <ele>498.6</ele>
        <time>2022-05-21T11:18:10Z</time>
      </trkpt>
      <trkpt lat="46.54486" lon="5.59262">
        <ele>498.4</ele>
        <time>2022-05-21T11:18:11Z</time>
      </trkpt>
      <trkpt lat="46.54483" lon="5.59272">
        <ele>498.4</ele>
        <time>2022-05-21T11:18:12Z</time>
      </trkpt>
      <trkpt lat="46.54474" lon="5.59291">
        <ele>498.4</ele>
        <time>2022-05-21T11:18:14Z</time>
      </trkpt>
      <trkpt lat="46.5446" lon="5.59322">
        <ele>498.4</ele>
        <time>2022-05-21T11:18:17Z</time>
      </trkpt>
      <trkpt lat="46.54457" lon="5.59333">
        <ele>498.4</ele>
        <time>2022-05-21T11:18:18Z</time>
      </trkpt>
      <trkpt lat="46.54454" lon="5.59348">
        <ele>498.2</ele>
        <time>2022-05-21T11:18:19Z</time>
      </trkpt>
      <trkpt lat="46.5445" lon="5.59373">
        <ele>497.8</ele>
        <time>2022-05-21T11:18:21Z</time>
      </trkpt>
      <trkpt lat="46.54449" lon="5.59384">
        <ele>497.6</ele>
        <time>2022-05-21T11:18:22Z</time>
      </trkpt>
      <trkpt lat="46.54442" lon="5.59438">
        <ele>496.4</ele>
        <time>2022-05-21T11:18:26Z</time>
      </trkpt>
      <trkpt lat="46.54439" lon="5.59466">
        <ele>495.4</ele>
        <time>2022-05-21T11:18:28Z</time>
      </trkpt>
      <trkpt lat="46.54435" lon="5.59507">
        <ele>494.4</ele>
        <time>2022-05-21T11:18:31Z</time>
      </trkpt>
      <trkpt lat="46.54427" lon="5.59577">
        <ele>493.4</ele>
        <time>2022-05-21T11:18:36Z</time>
      </trkpt>
      <trkpt lat="46.54422" lon="5.5962">
        <ele>492.6</ele>
        <time>2022-05-21T11:18:39Z</time>
      </trkpt>
      <trkpt lat="46.5442" lon="5.59634">
        <ele>492</ele>
        <time>2022-05-21T11:18:40Z</time>
      </trkpt>
      <trkpt lat="46.54415" lon="5.59677">
        <ele>491</ele>
        <time>2022-05-21T11:18:43Z</time>
      </trkpt>
      <trkpt lat="46.54408" lon="5.59747">
        <ele>490</ele>
        <time>2022-05-21T11:18:48Z</time>
      </trkpt>
      <trkpt lat="46.54405" lon="5.59773">
        <ele>489.8</ele>
        <time>2022-05-21T11:18:50Z</time>
      </trkpt>
      <trkpt lat="46.54397" lon="5.59838">
        <ele>489.2</ele>
        <time>2022-05-21T11:18:55Z</time>
      </trkpt>
      <trkpt lat="46.54391" lon="5.59885">
        <ele>488.6</ele>
        <time>2022-05-21T11:18:59Z</time>
      </trkpt>
      <trkpt lat="46.54388" lon="5.59904">
        <ele>488.4</ele>
        <time>2022-05-21T11:19:01Z</time>
      </trkpt>
      <trkpt lat="46.54388" lon="5.59917">
        <ele>488.4</ele>
        <time>2022-05-21T11:19:03Z</time>
      </trkpt>
      <trkpt lat="46.54389" lon="5.5992">
        <ele>488.4</ele>
        <time>2022-05-21T11:19:04Z</time>
      </trkpt>
      <trkpt lat="46.5439" lon="5.59923">
        <ele>489</ele>
        <time>2022-05-21T11:19:08Z</time>
      </trkpt>
      <trkpt lat="46.5439" lon="5.59928">
        <ele>489</ele>
        <time>2022-05-21T11:19:37Z</time>
      </trkpt>
      <trkpt lat="46.54391" lon="5.59933">
        <ele>489</ele>
        <time>2022-05-21T11:19:39Z</time>
      </trkpt>
      <trkpt lat="46.54396" lon="5.59936">
        <ele>489</ele>
        <time>2022-05-21T11:19:41Z</time>
      </trkpt>
      <trkpt lat="46.54403" lon="5.59938">
        <ele>488.8</ele>
        <time>2022-05-21T11:19:43Z</time>
      </trkpt>
      <trkpt lat="46.54426" lon="5.59945">
        <ele>488.8</ele>
        <time>2022-05-21T11:19:47Z</time>
      </trkpt>
      <trkpt lat="46.5447" lon="5.59958">
        <ele>488.8</ele>
        <time>2022-05-21T11:19:54Z</time>
      </trkpt>
      <trkpt lat="46.54506" lon="5.59968">
        <ele>489.6</ele>
        <time>2022-05-21T11:20:00Z</time>
      </trkpt>
      <trkpt lat="46.54517" lon="5.59971">
        <ele>490</ele>
        <time>2022-05-21T11:20:02Z</time>
      </trkpt>
      <trkpt lat="46.54537" lon="5.59979">
        <ele>490.8</ele>
        <time>2022-05-21T11:20:06Z</time>
      </trkpt>
      <trkpt lat="46.54552" lon="5.59983">
        <ele>492</ele>
        <time>2022-05-21T11:20:09Z</time>
      </trkpt>
      <trkpt lat="46.54578" lon="5.59987">
        <ele>493</ele>
        <time>2022-05-21T11:20:14Z</time>
      </trkpt>
      <trkpt lat="46.54594" lon="5.59986">
        <ele>493.4</ele>
        <time>2022-05-21T11:20:17Z</time>
      </trkpt>
      <trkpt lat="46.54632" lon="5.59977">
        <ele>494</ele>
        <time>2022-05-21T11:20:24Z</time>
      </trkpt>
      <trkpt lat="46.54638" lon="5.59974">
        <ele>494.2</ele>
        <time>2022-05-21T11:20:25Z</time>
      </trkpt>
      <trkpt lat="46.54678" lon="5.5995">
        <ele>494.6</ele>
        <time>2022-05-21T11:20:32Z</time>
      </trkpt>
      <trkpt lat="46.5472" lon="5.59934">
        <ele>494.6</ele>
        <time>2022-05-21T11:20:39Z</time>
      </trkpt>
      <trkpt lat="46.54732" lon="5.59936">
        <ele>494.8</ele>
        <time>2022-05-21T11:20:41Z</time>
      </trkpt>
      <trkpt lat="46.54744" lon="5.59942">
        <ele>495</ele>
        <time>2022-05-21T11:20:43Z</time>
      </trkpt>
      <trkpt lat="46.54749" lon="5.59946">
        <ele>495</ele>
        <time>2022-05-21T11:20:44Z</time>
      </trkpt>
      <trkpt lat="46.54759" lon="5.59957">
        <ele>495.2</ele>
        <time>2022-05-21T11:20:46Z</time>
      </trkpt>
      <trkpt lat="46.54763" lon="5.59964">
        <ele>495.2</ele>
        <time>2022-05-21T11:20:47Z</time>
      </trkpt>
      <trkpt lat="46.54796" lon="5.60014">
        <ele>495.4</ele>
        <time>2022-05-21T11:20:55Z</time>
      </trkpt>
      <trkpt lat="46.54811" lon="5.60027">
        <ele>495.4</ele>
        <time>2022-05-21T11:20:58Z</time>
      </trkpt>
      <trkpt lat="46.54823" lon="5.60034">
        <ele>495.6</ele>
        <time>2022-05-21T11:21:00Z</time>
      </trkpt>
      <trkpt lat="46.5487" lon="5.60049">
        <ele>496.4</ele>
        <time>2022-05-21T11:21:08Z</time>
      </trkpt>
      <trkpt lat="46.5491" lon="5.60069">
        <ele>496.4</ele>
        <time>2022-05-21T11:21:15Z</time>
      </trkpt>
      <trkpt lat="46.54938" lon="5.601">
        <ele>496.4</ele>
        <time>2022-05-21T11:21:21Z</time>
      </trkpt>
      <trkpt lat="46.54978" lon="5.60138">
        <ele>497</ele>
        <time>2022-05-21T11:21:29Z</time>
      </trkpt>
      <trkpt lat="46.55001" lon="5.60153">
        <ele>497.4</ele>
        <time>2022-05-21T11:21:33Z</time>
      </trkpt>
      <trkpt lat="46.55034" lon="5.60174">
        <ele>497.8</ele>
        <time>2022-05-21T11:21:39Z</time>
      </trkpt>
      <trkpt lat="46.55063" lon="5.60203">
        <ele>498.2</ele>
        <time>2022-05-21T11:21:45Z</time>
      </trkpt>
      <trkpt lat="46.55083" lon="5.60235">
        <ele>498.4</ele>
        <time>2022-05-21T11:21:50Z</time>
      </trkpt>
      <trkpt lat="46.5509" lon="5.60248">
        <ele>498.6</ele>
        <time>2022-05-21T11:21:52Z</time>
      </trkpt>
      <trkpt lat="46.55121" lon="5.60297">
        <ele>498.8</ele>
        <time>2022-05-21T11:22:00Z</time>
      </trkpt>
      <trkpt lat="46.55149" lon="5.60321">
        <ele>499.2</ele>
        <time>2022-05-21T11:22:06Z</time>
      </trkpt>
      <trkpt lat="46.55165" lon="5.60328">
        <ele>499.4</ele>
        <time>2022-05-21T11:22:09Z</time>
      </trkpt>
      <trkpt lat="46.55176" lon="5.6033">
        <ele>499.4</ele>
        <time>2022-05-21T11:22:11Z</time>
      </trkpt>
      <trkpt lat="46.55187" lon="5.6033">
        <ele>499.4</ele>
        <time>2022-05-21T11:22:13Z</time>
      </trkpt>
      <trkpt lat="46.55198" lon="5.60329">
        <ele>499.6</ele>
        <time>2022-05-21T11:22:15Z</time>
      </trkpt>
      <trkpt lat="46.55209" lon="5.60325">
        <ele>500</ele>
        <time>2022-05-21T11:22:17Z</time>
      </trkpt>
      <trkpt lat="46.55236" lon="5.60313">
        <ele>500.6</ele>
        <time>2022-05-21T11:22:22Z</time>
      </trkpt>
      <trkpt lat="46.55253" lon="5.60306">
        <ele>501</ele>
        <time>2022-05-21T11:22:25Z</time>
      </trkpt>
      <trkpt lat="46.55308" lon="5.60284">
        <ele>501.6</ele>
        <time>2022-05-21T11:22:35Z</time>
      </trkpt>
      <trkpt lat="46.55314" lon="5.60283">
        <ele>501.8</ele>
        <time>2022-05-21T11:22:36Z</time>
      </trkpt>
      <trkpt lat="46.55352" lon="5.60288">
        <ele>502</ele>
        <time>2022-05-21T11:22:43Z</time>
      </trkpt>
      <trkpt lat="46.554" lon="5.60306">
        <ele>502.6</ele>
        <time>2022-05-21T11:22:52Z</time>
      </trkpt>
      <trkpt lat="46.55411" lon="5.6031">
        <ele>502.8</ele>
        <time>2022-05-21T11:22:54Z</time>
      </trkpt>
      <trkpt lat="46.5546" lon="5.60328">
        <ele>503.8</ele>
        <time>2022-05-21T11:23:03Z</time>
      </trkpt>
      <trkpt lat="46.55466" lon="5.6033">
        <ele>504</ele>
        <time>2022-05-21T11:23:04Z</time>
      </trkpt>
      <trkpt lat="46.55496" lon="5.6034">
        <ele>504.4</ele>
        <time>2022-05-21T11:23:10Z</time>
      </trkpt>
      <trkpt lat="46.55533" lon="5.60349">
        <ele>505</ele>
        <time>2022-05-21T11:23:17Z</time>
      </trkpt>
      <trkpt lat="46.55554" lon="5.60352">
        <ele>505.4</ele>
        <time>2022-05-21T11:23:21Z</time>
      </trkpt>
      <trkpt lat="46.5557" lon="5.60353">
        <ele>505.8</ele>
        <time>2022-05-21T11:23:24Z</time>
      </trkpt>
      <trkpt lat="46.55586" lon="5.60354">
        <ele>506</ele>
        <time>2022-05-21T11:23:27Z</time>
      </trkpt>
      <trkpt lat="46.55606" lon="5.60355">
        <ele>506.4</ele>
        <time>2022-05-21T11:23:31Z</time>
      </trkpt>
      <trkpt lat="46.55638" lon="5.60359">
        <ele>507</ele>
        <time>2022-05-21T11:23:37Z</time>
      </trkpt>
      <trkpt lat="46.55648" lon="5.60363">
        <ele>507.2</ele>
        <time>2022-05-21T11:23:39Z</time>
      </trkpt>
      <trkpt lat="46.55662" lon="5.60373">
        <ele>507.8</ele>
        <time>2022-05-21T11:23:42Z</time>
      </trkpt>
      <trkpt lat="46.55675" lon="5.60385">
        <ele>508.2</ele>
        <time>2022-05-21T11:23:45Z</time>
      </trkpt>
      <trkpt lat="46.55695" lon="5.60419">
        <ele>508.6</ele>
        <time>2022-05-21T11:23:51Z</time>
      </trkpt>
      <trkpt lat="46.55715" lon="5.60464">
        <ele>509.2</ele>
        <time>2022-05-21T11:23:58Z</time>
      </trkpt>
      <trkpt lat="46.55726" lon="5.60487">
        <ele>509.6</ele>
        <time>2022-05-21T11:24:02Z</time>
      </trkpt>
      <trkpt lat="46.55737" lon="5.60502">
        <ele>510.2</ele>
        <time>2022-05-21T11:24:05Z</time>
      </trkpt>
      <trkpt lat="46.55754" lon="5.60519">
        <ele>511</ele>
        <time>2022-05-21T11:24:09Z</time>
      </trkpt>
      <trkpt lat="46.55764" lon="5.60525">
        <ele>511</ele>
        <time>2022-05-21T11:24:11Z</time>
      </trkpt>
      <trkpt lat="46.55775" lon="5.60529">
        <ele>511.2</ele>
        <time>2022-05-21T11:24:13Z</time>
      </trkpt>
      <trkpt lat="46.55808" lon="5.60538">
        <ele>511.8</ele>
        <time>2022-05-21T11:24:19Z</time>
      </trkpt>
      <trkpt lat="46.55831" lon="5.60543">
        <ele>512.4</ele>
        <time>2022-05-21T11:24:23Z</time>
      </trkpt>
      <trkpt lat="46.55847" lon="5.60549">
        <ele>512.6</ele>
        <time>2022-05-21T11:24:26Z</time>
      </trkpt>
      <trkpt lat="46.55852" lon="5.60552">
        <ele>512.6</ele>
        <time>2022-05-21T11:24:27Z</time>
      </trkpt>
      <trkpt lat="46.55874" lon="5.60575">
        <ele>513</ele>
        <time>2022-05-21T11:24:32Z</time>
      </trkpt>
      <trkpt lat="46.5588" lon="5.60587">
        <ele>513.4</ele>
        <time>2022-05-21T11:24:34Z</time>
      </trkpt>
      <trkpt lat="46.55888" lon="5.60606">
        <ele>514</ele>
        <time>2022-05-21T11:24:37Z</time>
      </trkpt>
      <trkpt lat="46.55893" lon="5.60626">
        <ele>514.6</ele>
        <time>2022-05-21T11:24:40Z</time>
      </trkpt>
      <trkpt lat="46.55899" lon="5.60653">
        <ele>515</ele>
        <time>2022-05-21T11:24:44Z</time>
      </trkpt>
      <trkpt lat="46.55904" lon="5.60673">
        <ele>515.6</ele>
        <time>2022-05-21T11:24:47Z</time>
      </trkpt>
      <trkpt lat="46.55915" lon="5.60721">
        <ele>516</ele>
        <time>2022-05-21T11:24:54Z</time>
      </trkpt>
      <trkpt lat="46.55925" lon="5.60782">
        <ele>516.8</ele>
        <time>2022-05-21T11:25:03Z</time>
      </trkpt>
      <trkpt lat="46.5593" lon="5.60861">
        <ele>517</ele>
        <time>2022-05-21T11:25:13Z</time>
      </trkpt>
      <trkpt lat="46.55938" lon="5.60913">
        <ele>517</ele>
        <time>2022-05-21T11:25:19Z</time>
      </trkpt>
      <trkpt lat="46.55953" lon="5.60977">
        <ele>516.4</ele>
        <time>2022-05-21T11:25:26Z</time>
      </trkpt>
      <trkpt lat="46.55971" lon="5.61052">
        <ele>515.6</ele>
        <time>2022-05-21T11:25:34Z</time>
      </trkpt>
      <trkpt lat="46.55976" lon="5.6107">
        <ele>515.8</ele>
        <time>2022-05-21T11:25:36Z</time>
      </trkpt>
      <trkpt lat="46.55983" lon="5.61088">
        <ele>515.4</ele>
        <time>2022-05-21T11:25:38Z</time>
      </trkpt>
      <trkpt lat="46.56002" lon="5.6113">
        <ele>515.2</ele>
        <time>2022-05-21T11:25:43Z</time>
      </trkpt>
      <trkpt lat="46.5603" lon="5.61187">
        <ele>514.6</ele>
        <time>2022-05-21T11:25:50Z</time>
      </trkpt>
      <trkpt lat="46.56057" lon="5.6124">
        <ele>513.2</ele>
        <time>2022-05-21T11:25:56Z</time>
      </trkpt>
      <trkpt lat="46.56066" lon="5.61259">
        <ele>513.2</ele>
        <time>2022-05-21T11:25:58Z</time>
      </trkpt>
      <trkpt lat="46.561" lon="5.61329">
        <ele>512.8</ele>
        <time>2022-05-21T11:26:05Z</time>
      </trkpt>
      <trkpt lat="46.56105" lon="5.61339">
        <ele>512.6</ele>
        <time>2022-05-21T11:26:06Z</time>
      </trkpt>
      <trkpt lat="46.56134" lon="5.61398">
        <ele>512.2</ele>
        <time>2022-05-21T11:26:12Z</time>
      </trkpt>
      <trkpt lat="46.56138" lon="5.61408">
        <ele>512.2</ele>
        <time>2022-05-21T11:26:13Z</time>
      </trkpt>
      <trkpt lat="46.56166" lon="5.61465">
        <ele>512.4</ele>
        <time>2022-05-21T11:26:19Z</time>
      </trkpt>
      <trkpt lat="46.56197" lon="5.61529">
        <ele>512.6</ele>
        <time>2022-05-21T11:26:26Z</time>
      </trkpt>
      <trkpt lat="46.56206" lon="5.61547">
        <ele>512.4</ele>
        <time>2022-05-21T11:26:28Z</time>
      </trkpt>
      <trkpt lat="46.56238" lon="5.61606">
        <ele>512.2</ele>
        <time>2022-05-21T11:26:35Z</time>
      </trkpt>
      <trkpt lat="46.56259" lon="5.61637">
        <ele>512.4</ele>
        <time>2022-05-21T11:26:39Z</time>
      </trkpt>
      <trkpt lat="46.56276" lon="5.6166">
        <ele>512.6</ele>
        <time>2022-05-21T11:26:42Z</time>
      </trkpt>
      <trkpt lat="46.56317" lon="5.61713">
        <ele>512.4</ele>
        <time>2022-05-21T11:26:49Z</time>
      </trkpt>
      <trkpt lat="46.56324" lon="5.6172">
        <ele>512.4</ele>
        <time>2022-05-21T11:26:50Z</time>
      </trkpt>
      <trkpt lat="46.56358" lon="5.61766">
        <ele>511.8</ele>
        <time>2022-05-21T11:26:56Z</time>
      </trkpt>
      <trkpt lat="46.56364" lon="5.61787">
        <ele>511.8</ele>
        <time>2022-05-21T11:26:58Z</time>
      </trkpt>
      <trkpt lat="46.56365" lon="5.61799">
        <ele>511.8</ele>
        <time>2022-05-21T11:26:59Z</time>
      </trkpt>
      <trkpt lat="46.56365" lon="5.61812">
        <ele>511.6</ele>
        <time>2022-05-21T11:27:00Z</time>
      </trkpt>
      <trkpt lat="46.56365" lon="5.61824">
        <ele>511.4</ele>
        <time>2022-05-21T11:27:01Z</time>
      </trkpt>
      <trkpt lat="46.56362" lon="5.61851">
        <ele>510.8</ele>
        <time>2022-05-21T11:27:03Z</time>
      </trkpt>
      <trkpt lat="46.56358" lon="5.61879">
        <ele>510</ele>
        <time>2022-05-21T11:27:05Z</time>
      </trkpt>
      <trkpt lat="46.56358" lon="5.61907">
        <ele>509</ele>
        <time>2022-05-21T11:27:07Z</time>
      </trkpt>
      <trkpt lat="46.56358" lon="5.61922">
        <ele>508.6</ele>
        <time>2022-05-21T11:27:08Z</time>
      </trkpt>
      <trkpt lat="46.5636" lon="5.61951">
        <ele>507</ele>
        <time>2022-05-21T11:27:10Z</time>
      </trkpt>
      <trkpt lat="46.56365" lon="5.61995">
        <ele>505.8</ele>
        <time>2022-05-21T11:27:13Z</time>
      </trkpt>
      <trkpt lat="46.56382" lon="5.62077">
        <ele>504.8</ele>
        <time>2022-05-21T11:27:19Z</time>
      </trkpt>
      <trkpt lat="46.56386" lon="5.6209">
        <ele>504.6</ele>
        <time>2022-05-21T11:27:20Z</time>
      </trkpt>
      <trkpt lat="46.56403" lon="5.62165">
        <ele>504</ele>
        <time>2022-05-21T11:27:26Z</time>
      </trkpt>
      <trkpt lat="46.56406" lon="5.62177">
        <ele>503.8</ele>
        <time>2022-05-21T11:27:27Z</time>
      </trkpt>
      <trkpt lat="46.56426" lon="5.62252">
        <ele>503</ele>
        <time>2022-05-21T11:27:33Z</time>
      </trkpt>
      <trkpt lat="46.56432" lon="5.62277">
        <ele>502.4</ele>
        <time>2022-05-21T11:27:35Z</time>
      </trkpt>
      <trkpt lat="46.56446" lon="5.62331">
        <ele>502.6</ele>
        <time>2022-05-21T11:27:40Z</time>
      </trkpt>
      <trkpt lat="46.56454" lon="5.6238">
        <ele>503.6</ele>
        <time>2022-05-21T11:27:45Z</time>
      </trkpt>
      <trkpt lat="46.56455" lon="5.6239">
        <ele>503.6</ele>
        <time>2022-05-21T11:27:46Z</time>
      </trkpt>
      <trkpt lat="46.56454" lon="5.62409">
        <ele>504</ele>
        <time>2022-05-21T11:27:48Z</time>
      </trkpt>
      <trkpt lat="46.56451" lon="5.62427">
        <ele>504.4</ele>
        <time>2022-05-21T11:27:50Z</time>
      </trkpt>
      <trkpt lat="46.56449" lon="5.62436">
        <ele>504.6</ele>
        <time>2022-05-21T11:27:51Z</time>
      </trkpt>
      <trkpt lat="46.56437" lon="5.62496">
        <ele>505.6</ele>
        <time>2022-05-21T11:27:58Z</time>
      </trkpt>
      <trkpt lat="46.56435" lon="5.62504">
        <ele>505.8</ele>
        <time>2022-05-21T11:27:59Z</time>
      </trkpt>
      <trkpt lat="46.56423" lon="5.62561">
        <ele>507</ele>
        <time>2022-05-21T11:28:06Z</time>
      </trkpt>
      <trkpt lat="46.56417" lon="5.62592">
        <ele>507.2</ele>
        <time>2022-05-21T11:28:10Z</time>
      </trkpt>
      <trkpt lat="46.56416" lon="5.62617">
        <ele>507.6</ele>
        <time>2022-05-21T11:28:13Z</time>
      </trkpt>
      <trkpt lat="46.56419" lon="5.62649">
        <ele>508</ele>
        <time>2022-05-21T11:28:17Z</time>
      </trkpt>
      <trkpt lat="46.56422" lon="5.62664">
        <ele>508</ele>
        <time>2022-05-21T11:28:19Z</time>
      </trkpt>
      <trkpt lat="46.56424" lon="5.6267">
        <ele>508.4</ele>
        <time>2022-05-21T11:28:20Z</time>
      </trkpt>
      <trkpt lat="46.5643" lon="5.6268">
        <ele>508.8</ele>
        <time>2022-05-21T11:28:22Z</time>
      </trkpt>
      <trkpt lat="46.56437" lon="5.6269">
        <ele>509.4</ele>
        <time>2022-05-21T11:28:24Z</time>
      </trkpt>
      <trkpt lat="46.56441" lon="5.62695">
        <ele>509.6</ele>
        <time>2022-05-21T11:28:25Z</time>
      </trkpt>
      <trkpt lat="46.56447" lon="5.62707">
        <ele>510</ele>
        <time>2022-05-21T11:28:27Z</time>
      </trkpt>
      <trkpt lat="46.56465" lon="5.62729">
        <ele>510.6</ele>
        <time>2022-05-21T11:28:31Z</time>
      </trkpt>
      <trkpt lat="46.5647" lon="5.62734">
        <ele>510.6</ele>
        <time>2022-05-21T11:28:32Z</time>
      </trkpt>
      <trkpt lat="46.5649" lon="5.62755">
        <ele>511.4</ele>
        <time>2022-05-21T11:28:36Z</time>
      </trkpt>
      <trkpt lat="46.56495" lon="5.6276">
        <ele>511.4</ele>
        <time>2022-05-21T11:28:37Z</time>
      </trkpt>
      <trkpt lat="46.56527" lon="5.62793">
        <ele>511.6</ele>
        <time>2022-05-21T11:28:43Z</time>
      </trkpt>
      <trkpt lat="46.56566" lon="5.62829">
        <ele>511.6</ele>
        <time>2022-05-21T11:28:51Z</time>
      </trkpt>
      <trkpt lat="46.56591" lon="5.62855">
        <ele>512.6</ele>
        <time>2022-05-21T11:28:57Z</time>
      </trkpt>
      <trkpt lat="46.56599" lon="5.62863">
        <ele>513.2</ele>
        <time>2022-05-21T11:28:59Z</time>
      </trkpt>
      <trkpt lat="46.56607" lon="5.62872">
        <ele>513.6</ele>
        <time>2022-05-21T11:29:01Z</time>
      </trkpt>
      <trkpt lat="46.56614" lon="5.62882">
        <ele>514.2</ele>
        <time>2022-05-21T11:29:03Z</time>
      </trkpt>
      <trkpt lat="46.56622" lon="5.62891">
        <ele>514.4</ele>
        <time>2022-05-21T11:29:05Z</time>
      </trkpt>
      <trkpt lat="46.56634" lon="5.62907">
        <ele>514.6</ele>
        <time>2022-05-21T11:29:08Z</time>
      </trkpt>
      <trkpt lat="46.56641" lon="5.62917">
        <ele>514.6</ele>
        <time>2022-05-21T11:29:10Z</time>
      </trkpt>
      <trkpt lat="46.56649" lon="5.62935">
        <ele>514.8</ele>
        <time>2022-05-21T11:29:13Z</time>
      </trkpt>
      <trkpt lat="46.56658" lon="5.62953">
        <ele>515</ele>
        <time>2022-05-21T11:29:16Z</time>
      </trkpt>
      <trkpt lat="46.56662" lon="5.62967">
        <ele>515</ele>
        <time>2022-05-21T11:29:18Z</time>
      </trkpt>
      <trkpt lat="46.56667" lon="5.62987">
        <ele>515</ele>
        <time>2022-05-21T11:29:21Z</time>
      </trkpt>
      <trkpt lat="46.5667" lon="5.63">
        <ele>515.4</ele>
        <time>2022-05-21T11:29:23Z</time>
      </trkpt>
      <trkpt lat="46.56671" lon="5.63007">
        <ele>515.4</ele>
        <time>2022-05-21T11:29:24Z</time>
      </trkpt>
      <trkpt lat="46.5668" lon="5.63048">
        <ele>516.2</ele>
        <time>2022-05-21T11:29:30Z</time>
      </trkpt>
      <trkpt lat="46.56682" lon="5.63061">
        <ele>516.6</ele>
        <time>2022-05-21T11:29:32Z</time>
      </trkpt>
      <trkpt lat="46.56685" lon="5.63096">
        <ele>517</ele>
        <time>2022-05-21T11:29:37Z</time>
      </trkpt>
      <trkpt lat="46.56684" lon="5.63109">
        <ele>517.6</ele>
        <time>2022-05-21T11:29:39Z</time>
      </trkpt>
      <trkpt lat="46.56679" lon="5.63136">
        <ele>518.6</ele>
        <time>2022-05-21T11:29:44Z</time>
      </trkpt>
      <trkpt lat="46.56676" lon="5.63145">
        <ele>518.8</ele>
        <time>2022-05-21T11:29:46Z</time>
      </trkpt>
      <trkpt lat="46.56673" lon="5.63165">
        <ele>519</ele>
        <time>2022-05-21T11:29:50Z</time>
      </trkpt>
      <trkpt lat="46.56672" lon="5.63182">
        <ele>519.8</ele>
        <time>2022-05-21T11:29:53Z</time>
      </trkpt>
      <trkpt lat="46.5667" lon="5.63209">
        <ele>521</ele>
        <time>2022-05-21T11:29:58Z</time>
      </trkpt>
      <trkpt lat="46.5667" lon="5.63214">
        <ele>521.2</ele>
        <time>2022-05-21T11:29:59Z</time>
      </trkpt>
      <trkpt lat="46.56676" lon="5.63241">
        <ele>521.8</ele>
        <time>2022-05-21T11:30:04Z</time>
      </trkpt>
      <trkpt lat="46.56678" lon="5.63245">
        <ele>522</ele>
        <time>2022-05-21T11:30:05Z</time>
      </trkpt>
      <trkpt lat="46.5669" lon="5.63261">
        <ele>523</ele>
        <time>2022-05-21T11:30:09Z</time>
      </trkpt>
      <trkpt lat="46.56694" lon="5.63264">
        <ele>523</ele>
        <time>2022-05-21T11:30:10Z</time>
      </trkpt>
      <trkpt lat="46.56698" lon="5.63266">
        <ele>523.4</ele>
        <time>2022-05-21T11:30:11Z</time>
      </trkpt>
      <trkpt lat="46.56713" lon="5.63272">
        <ele>523.8</ele>
        <time>2022-05-21T11:30:14Z</time>
      </trkpt>
      <trkpt lat="46.56755" lon="5.63288">
        <ele>523.6</ele>
        <time>2022-05-21T11:30:22Z</time>
      </trkpt>
      <trkpt lat="46.56806" lon="5.6331">
        <ele>523.4</ele>
        <time>2022-05-21T11:30:31Z</time>
      </trkpt>
      <trkpt lat="46.56831" lon="5.63328">
        <ele>522.8</ele>
        <time>2022-05-21T11:30:36Z</time>
      </trkpt>
      <trkpt lat="46.56836" lon="5.63333">
        <ele>522.8</ele>
        <time>2022-05-21T11:30:37Z</time>
      </trkpt>
      <trkpt lat="46.56881" lon="5.63386">
        <ele>523.2</ele>
        <time>2022-05-21T11:30:47Z</time>
      </trkpt>
      <trkpt lat="46.56911" lon="5.63423">
        <ele>523.2</ele>
        <time>2022-05-21T11:30:55Z</time>
      </trkpt>
      <trkpt lat="46.56945" lon="5.63457">
        <ele>524</ele>
        <time>2022-05-21T11:31:03Z</time>
      </trkpt>
      <trkpt lat="46.56982" lon="5.63484">
        <ele>524</ele>
        <time>2022-05-21T11:31:10Z</time>
      </trkpt>
      <trkpt lat="46.57026" lon="5.63513">
        <ele>523</ele>
        <time>2022-05-21T11:31:17Z</time>
      </trkpt>
      <trkpt lat="46.57072" lon="5.63554">
        <ele>522.6</ele>
        <time>2022-05-21T11:31:25Z</time>
      </trkpt>
      <trkpt lat="46.57108" lon="5.63574">
        <ele>523.2</ele>
        <time>2022-05-21T11:31:31Z</time>
      </trkpt>
      <trkpt lat="46.57155" lon="5.63589">
        <ele>523.8</ele>
        <time>2022-05-21T11:31:38Z</time>
      </trkpt>
      <trkpt lat="46.572" lon="5.63585">
        <ele>522.4</ele>
        <time>2022-05-21T11:31:44Z</time>
      </trkpt>
      <trkpt lat="46.57221" lon="5.63588">
        <ele>522</ele>
        <time>2022-05-21T11:31:47Z</time>
      </trkpt>
      <trkpt lat="46.57235" lon="5.63592">
        <ele>521.8</ele>
        <time>2022-05-21T11:31:49Z</time>
      </trkpt>
      <trkpt lat="46.57274" lon="5.63607">
        <ele>521.8</ele>
        <time>2022-05-21T11:31:55Z</time>
      </trkpt>
      <trkpt lat="46.57316" lon="5.63617">
        <ele>522.2</ele>
        <time>2022-05-21T11:32:02Z</time>
      </trkpt>
      <trkpt lat="46.57328" lon="5.63619">
        <ele>522.4</ele>
        <time>2022-05-21T11:32:04Z</time>
      </trkpt>
      <trkpt lat="46.5734" lon="5.63627">
        <ele>522.4</ele>
        <time>2022-05-21T11:32:06Z</time>
      </trkpt>
      <trkpt lat="46.57348" lon="5.63642">
        <ele>522.4</ele>
        <time>2022-05-21T11:32:08Z</time>
      </trkpt>
      <trkpt lat="46.57351" lon="5.6365">
        <ele>522.4</ele>
        <time>2022-05-21T11:32:09Z</time>
      </trkpt>
      <trkpt lat="46.5737" lon="5.63717">
        <ele>523</ele>
        <time>2022-05-21T11:32:17Z</time>
      </trkpt>
      <trkpt lat="46.57373" lon="5.63725">
        <ele>523</ele>
        <time>2022-05-21T11:32:18Z</time>
      </trkpt>
      <trkpt lat="46.57382" lon="5.63757">
        <ele>522.8</ele>
        <time>2022-05-21T11:32:22Z</time>
      </trkpt>
      <trkpt lat="46.57399" lon="5.63819">
        <ele>523.4</ele>
        <time>2022-05-21T11:32:30Z</time>
      </trkpt>
      <trkpt lat="46.57418" lon="5.63867">
        <ele>523.8</ele>
        <time>2022-05-21T11:32:37Z</time>
      </trkpt>
      <trkpt lat="46.57425" lon="5.63879">
        <ele>524</ele>
        <time>2022-05-21T11:32:39Z</time>
      </trkpt>
      <trkpt lat="46.57433" lon="5.6389">
        <ele>524</ele>
        <time>2022-05-21T11:32:41Z</time>
      </trkpt>
      <trkpt lat="46.57446" lon="5.63906">
        <ele>524.2</ele>
        <time>2022-05-21T11:32:44Z</time>
      </trkpt>
      <trkpt lat="46.57486" lon="5.63951">
        <ele>524.6</ele>
        <time>2022-05-21T11:32:53Z</time>
      </trkpt>
      <trkpt lat="46.57493" lon="5.6396">
        <ele>524.6</ele>
        <time>2022-05-21T11:32:55Z</time>
      </trkpt>
      <trkpt lat="46.57498" lon="5.63971">
        <ele>525</ele>
        <time>2022-05-21T11:32:57Z</time>
      </trkpt>
      <trkpt lat="46.57497" lon="5.63977">
        <ele>525.2</ele>
        <time>2022-05-21T11:32:58Z</time>
      </trkpt>
      <trkpt lat="46.57495" lon="5.63984">
        <ele>525.2</ele>
        <time>2022-05-21T11:32:59Z</time>
      </trkpt>
      <trkpt lat="46.57492" lon="5.63989">
        <ele>525.2</ele>
        <time>2022-05-21T11:33:00Z</time>
      </trkpt>
      <trkpt lat="46.57489" lon="5.63995">
        <ele>525.2</ele>
        <time>2022-05-21T11:33:01Z</time>
      </trkpt>
      <trkpt lat="46.57487" lon="5.64007">
        <ele>525.2</ele>
        <time>2022-05-21T11:33:03Z</time>
      </trkpt>
      <trkpt lat="46.57493" lon="5.64017">
        <ele>525.4</ele>
        <time>2022-05-21T11:33:05Z</time>
      </trkpt>
      <trkpt lat="46.57497" lon="5.64023">
        <ele>525.4</ele>
        <time>2022-05-21T11:33:06Z</time>
      </trkpt>
      <trkpt lat="46.57518" lon="5.6406">
        <ele>525.2</ele>
        <time>2022-05-21T11:33:12Z</time>
      </trkpt>
      <trkpt lat="46.57526" lon="5.64072">
        <ele>525.4</ele>
        <time>2022-05-21T11:33:14Z</time>
      </trkpt>
      <trkpt lat="46.57534" lon="5.64081">
        <ele>525.8</ele>
        <time>2022-05-21T11:33:16Z</time>
      </trkpt>
      <trkpt lat="46.57544" lon="5.64085">
        <ele>525.8</ele>
        <time>2022-05-21T11:33:18Z</time>
      </trkpt>
      <trkpt lat="46.57556" lon="5.64088">
        <ele>526.2</ele>
        <time>2022-05-21T11:33:20Z</time>
      </trkpt>
      <trkpt lat="46.57574" lon="5.64089">
        <ele>526.2</ele>
        <time>2022-05-21T11:33:23Z</time>
      </trkpt>
      <trkpt lat="46.5758" lon="5.64091">
        <ele>526.2</ele>
        <time>2022-05-21T11:33:24Z</time>
      </trkpt>
      <trkpt lat="46.57591" lon="5.64097">
        <ele>526.2</ele>
        <time>2022-05-21T11:33:26Z</time>
      </trkpt>
      <trkpt lat="46.57635" lon="5.64128">
        <ele>525.8</ele>
        <time>2022-05-21T11:33:34Z</time>
      </trkpt>
      <trkpt lat="46.57667" lon="5.64151">
        <ele>526</ele>
        <time>2022-05-21T11:33:40Z</time>
      </trkpt>
      <trkpt lat="46.57717" lon="5.64184">
        <ele>526.4</ele>
        <time>2022-05-21T11:33:49Z</time>
      </trkpt>
      <trkpt lat="46.57723" lon="5.64187">
        <ele>526.4</ele>
        <time>2022-05-21T11:33:50Z</time>
      </trkpt>
      <trkpt lat="46.57769" lon="5.64209">
        <ele>527</ele>
        <time>2022-05-21T11:33:58Z</time>
      </trkpt>
      <trkpt lat="46.57783" lon="5.64217">
        <ele>527.2</ele>
        <time>2022-05-21T11:34:01Z</time>
      </trkpt>
      <trkpt lat="46.57803" lon="5.64228">
        <ele>528.2</ele>
        <time>2022-05-21T11:34:05Z</time>
      </trkpt>
      <trkpt lat="46.57814" lon="5.64234">
        <ele>528.4</ele>
        <time>2022-05-21T11:34:07Z</time>
      </trkpt>
      <trkpt lat="46.57848" lon="5.64253">
        <ele>528.6</ele>
        <time>2022-05-21T11:34:14Z</time>
      </trkpt>
      <trkpt lat="46.57869" lon="5.64265">
        <ele>529.6</ele>
        <time>2022-05-21T11:34:18Z</time>
      </trkpt>
      <trkpt lat="46.57896" lon="5.64278">
        <ele>530.2</ele>
        <time>2022-05-21T11:34:23Z</time>
      </trkpt>
      <trkpt lat="46.57931" lon="5.64298">
        <ele>530.6</ele>
        <time>2022-05-21T11:34:30Z</time>
      </trkpt>
      <trkpt lat="46.5794" lon="5.64303">
        <ele>530.8</ele>
        <time>2022-05-21T11:34:32Z</time>
      </trkpt>
      <trkpt lat="46.57953" lon="5.64312">
        <ele>531.6</ele>
        <time>2022-05-21T11:34:35Z</time>
      </trkpt>
      <trkpt lat="46.57971" lon="5.64323">
        <ele>532.8</ele>
        <time>2022-05-21T11:34:39Z</time>
      </trkpt>
      <trkpt lat="46.57984" lon="5.6433">
        <ele>533</ele>
        <time>2022-05-21T11:34:42Z</time>
      </trkpt>
      <trkpt lat="46.58006" lon="5.64343">
        <ele>533.6</ele>
        <time>2022-05-21T11:34:47Z</time>
      </trkpt>
      <trkpt lat="46.58015" lon="5.64349">
        <ele>533.8</ele>
        <time>2022-05-21T11:34:49Z</time>
      </trkpt>
      <trkpt lat="46.58033" lon="5.6436">
        <ele>534.2</ele>
        <time>2022-05-21T11:34:53Z</time>
      </trkpt>
      <trkpt lat="46.58064" lon="5.64379">
        <ele>534.8</ele>
        <time>2022-05-21T11:35:00Z</time>
      </trkpt>
      <trkpt lat="46.58073" lon="5.64385">
        <ele>535.2</ele>
        <time>2022-05-21T11:35:02Z</time>
      </trkpt>
      <trkpt lat="46.58111" lon="5.64409">
        <ele>535.8</ele>
        <time>2022-05-21T11:35:11Z</time>
      </trkpt>
      <trkpt lat="46.58115" lon="5.64411">
        <ele>535.8</ele>
        <time>2022-05-21T11:35:12Z</time>
      </trkpt>
      <trkpt lat="46.58151" lon="5.64432">
        <ele>537</ele>
        <time>2022-05-21T11:35:20Z</time>
      </trkpt>
      <trkpt lat="46.58164" lon="5.64438">
        <ele>538</ele>
        <time>2022-05-21T11:35:23Z</time>
      </trkpt>
      <trkpt lat="46.58194" lon="5.64459">
        <ele>539</ele>
        <time>2022-05-21T11:35:30Z</time>
      </trkpt>
      <trkpt lat="46.5822" lon="5.64491">
        <ele>539.6</ele>
        <time>2022-05-21T11:35:37Z</time>
      </trkpt>
      <trkpt lat="46.58254" lon="5.64543">
        <ele>539.8</ele>
        <time>2022-05-21T11:35:47Z</time>
      </trkpt>
      <trkpt lat="46.58274" lon="5.64566">
        <ele>540.2</ele>
        <time>2022-05-21T11:35:52Z</time>
      </trkpt>
      <trkpt lat="46.5829" lon="5.64582">
        <ele>540.6</ele>
        <time>2022-05-21T11:35:56Z</time>
      </trkpt>
      <trkpt lat="46.58302" lon="5.64594">
        <ele>541.2</ele>
        <time>2022-05-21T11:35:59Z</time>
      </trkpt>
      <trkpt lat="46.58327" lon="5.64616">
        <ele>542.2</ele>
        <time>2022-05-21T11:36:05Z</time>
      </trkpt>
      <trkpt lat="46.58332" lon="5.64621">
        <ele>542.4</ele>
        <time>2022-05-21T11:36:06Z</time>
      </trkpt>
      <trkpt lat="46.58363" lon="5.64649">
        <ele>543.4</ele>
        <time>2022-05-21T11:36:14Z</time>
      </trkpt>
      <trkpt lat="46.58367" lon="5.64653">
        <ele>543.6</ele>
        <time>2022-05-21T11:36:15Z</time>
      </trkpt>
      <trkpt lat="46.58391" lon="5.64672">
        <ele>544.4</ele>
        <time>2022-05-21T11:36:21Z</time>
      </trkpt>
      <trkpt lat="46.58399" lon="5.64678">
        <ele>544.8</ele>
        <time>2022-05-21T11:36:23Z</time>
      </trkpt>
      <trkpt lat="46.58411" lon="5.64685">
        <ele>545.6</ele>
        <time>2022-05-21T11:36:26Z</time>
      </trkpt>
      <trkpt lat="46.58432" lon="5.64699">
        <ele>546.8</ele>
        <time>2022-05-21T11:36:31Z</time>
      </trkpt>
      <trkpt lat="46.58464" lon="5.64719">
        <ele>547.8</ele>
        <time>2022-05-21T11:36:38Z</time>
      </trkpt>
      <trkpt lat="46.58496" lon="5.64747">
        <ele>547.8</ele>
        <time>2022-05-21T11:36:44Z</time>
      </trkpt>
      <trkpt lat="46.58514" lon="5.64759">
        <ele>547</ele>
        <time>2022-05-21T11:36:47Z</time>
      </trkpt>
      <trkpt lat="46.58527" lon="5.64763">
        <ele>546.8</ele>
        <time>2022-05-21T11:36:49Z</time>
      </trkpt>
      <trkpt lat="46.58553" lon="5.64758">
        <ele>546.2</ele>
        <time>2022-05-21T11:36:53Z</time>
      </trkpt>
      <trkpt lat="46.58573" lon="5.64755">
        <ele>546.2</ele>
        <time>2022-05-21T11:36:56Z</time>
      </trkpt>
      <trkpt lat="46.58592" lon="5.64757">
        <ele>546.4</ele>
        <time>2022-05-21T11:36:59Z</time>
      </trkpt>
      <trkpt lat="46.58628" lon="5.64763">
        <ele>547</ele>
        <time>2022-05-21T11:37:05Z</time>
      </trkpt>
      <trkpt lat="46.58652" lon="5.64759">
        <ele>547.6</ele>
        <time>2022-05-21T11:37:09Z</time>
      </trkpt>
      <trkpt lat="46.58658" lon="5.6476">
        <ele>547.8</ele>
        <time>2022-05-21T11:37:10Z</time>
      </trkpt>
      <trkpt lat="46.58665" lon="5.64762">
        <ele>547.8</ele>
        <time>2022-05-21T11:37:11Z</time>
      </trkpt>
      <trkpt lat="46.58686" lon="5.64772">
        <ele>547.8</ele>
        <time>2022-05-21T11:37:14Z</time>
      </trkpt>
      <trkpt lat="46.5873" lon="5.64799">
        <ele>547</ele>
        <time>2022-05-21T11:37:20Z</time>
      </trkpt>
      <trkpt lat="46.58737" lon="5.64801">
        <ele>547</ele>
        <time>2022-05-21T11:37:21Z</time>
      </trkpt>
      <trkpt lat="46.58744" lon="5.64802">
        <ele>546.8</ele>
        <time>2022-05-21T11:37:22Z</time>
      </trkpt>
      <trkpt lat="46.58759" lon="5.648">
        <ele>546.4</ele>
        <time>2022-05-21T11:37:24Z</time>
      </trkpt>
      <trkpt lat="46.58766" lon="5.64798">
        <ele>546.4</ele>
        <time>2022-05-21T11:37:25Z</time>
      </trkpt>
      <trkpt lat="46.58805" lon="5.64776">
        <ele>545.6</ele>
        <time>2022-05-21T11:37:31Z</time>
      </trkpt>
      <trkpt lat="46.58812" lon="5.64773">
        <ele>545.6</ele>
        <time>2022-05-21T11:37:32Z</time>
      </trkpt>
      <trkpt lat="46.58857" lon="5.64748">
        <ele>545</ele>
        <time>2022-05-21T11:37:38Z</time>
      </trkpt>
      <trkpt lat="46.58873" lon="5.64738">
        <ele>544.8</ele>
        <time>2022-05-21T11:37:40Z</time>
      </trkpt>
      <trkpt lat="46.58881" lon="5.64735">
        <ele>544.6</ele>
        <time>2022-05-21T11:37:41Z</time>
      </trkpt>
      <trkpt lat="46.58889" lon="5.64735">
        <ele>544.2</ele>
        <time>2022-05-21T11:37:42Z</time>
      </trkpt>
      <trkpt lat="46.58906" lon="5.64741">
        <ele>544</ele>
        <time>2022-05-21T11:37:44Z</time>
      </trkpt>
      <trkpt lat="46.58913" lon="5.64746">
        <ele>543.6</ele>
        <time>2022-05-21T11:37:45Z</time>
      </trkpt>
      <trkpt lat="46.58928" lon="5.64755">
        <ele>543.4</ele>
        <time>2022-05-21T11:37:47Z</time>
      </trkpt>
      <trkpt lat="46.58936" lon="5.64758">
        <ele>543.4</ele>
        <time>2022-05-21T11:37:48Z</time>
      </trkpt>
      <trkpt lat="46.58944" lon="5.6476">
        <ele>542.8</ele>
        <time>2022-05-21T11:37:49Z</time>
      </trkpt>
      <trkpt lat="46.58952" lon="5.64761">
        <ele>542.2</ele>
        <time>2022-05-21T11:37:50Z</time>
      </trkpt>
      <trkpt lat="46.5896" lon="5.6476">
        <ele>541.8</ele>
        <time>2022-05-21T11:37:51Z</time>
      </trkpt>
      <trkpt lat="46.58976" lon="5.64756">
        <ele>541.6</ele>
        <time>2022-05-21T11:37:53Z</time>
      </trkpt>
      <trkpt lat="46.58983" lon="5.64752">
        <ele>541.6</ele>
        <time>2022-05-21T11:37:54Z</time>
      </trkpt>
      <trkpt lat="46.5899" lon="5.64747">
        <ele>541.6</ele>
        <time>2022-05-21T11:37:55Z</time>
      </trkpt>
      <trkpt lat="46.59015" lon="5.64725">
        <ele>541.4</ele>
        <time>2022-05-21T11:37:59Z</time>
      </trkpt>
      <trkpt lat="46.59054" lon="5.6469">
        <ele>541.4</ele>
        <time>2022-05-21T11:38:06Z</time>
      </trkpt>
      <trkpt lat="46.59092" lon="5.64664">
        <ele>542.4</ele>
        <time>2022-05-21T11:38:13Z</time>
      </trkpt>
      <trkpt lat="46.59113" lon="5.6465">
        <ele>543</ele>
        <time>2022-05-21T11:38:17Z</time>
      </trkpt>
      <trkpt lat="46.59127" lon="5.64641">
        <ele>543.4</ele>
        <time>2022-05-21T11:38:20Z</time>
      </trkpt>
      <trkpt lat="46.59142" lon="5.64631">
        <ele>544.6</ele>
        <time>2022-05-21T11:38:23Z</time>
      </trkpt>
      <trkpt lat="46.59166" lon="5.64614">
        <ele>545.4</ele>
        <time>2022-05-21T11:38:28Z</time>
      </trkpt>
      <trkpt lat="46.59175" lon="5.64608">
        <ele>546</ele>
        <time>2022-05-21T11:38:30Z</time>
      </trkpt>
      <trkpt lat="46.59194" lon="5.64595">
        <ele>546.8</ele>
        <time>2022-05-21T11:38:34Z</time>
      </trkpt>
      <trkpt lat="46.59199" lon="5.64594">
        <ele>546.8</ele>
        <time>2022-05-21T11:38:35Z</time>
      </trkpt>
      <trkpt lat="46.59214" lon="5.64591">
        <ele>547.6</ele>
        <time>2022-05-21T11:38:38Z</time>
      </trkpt>
      <trkpt lat="46.59233" lon="5.64591">
        <ele>548.6</ele>
        <time>2022-05-21T11:38:42Z</time>
      </trkpt>
      <trkpt lat="46.59238" lon="5.6459">
        <ele>548.6</ele>
        <time>2022-05-21T11:38:43Z</time>
      </trkpt>
      <trkpt lat="46.59259" lon="5.64585">
        <ele>549.2</ele>
        <time>2022-05-21T11:38:47Z</time>
      </trkpt>
      <trkpt lat="46.5928" lon="5.64577">
        <ele>550</ele>
        <time>2022-05-21T11:38:51Z</time>
      </trkpt>
      <trkpt lat="46.59301" lon="5.6457">
        <ele>550.8</ele>
        <time>2022-05-21T11:38:55Z</time>
      </trkpt>
      <trkpt lat="46.59338" lon="5.64562">
        <ele>550.8</ele>
        <time>2022-05-21T11:39:02Z</time>
      </trkpt>
      <trkpt lat="46.59348" lon="5.64562">
        <ele>551</ele>
        <time>2022-05-21T11:39:04Z</time>
      </trkpt>
      <trkpt lat="46.59372" lon="5.64569">
        <ele>552</ele>
        <time>2022-05-21T11:39:09Z</time>
      </trkpt>
      <trkpt lat="46.59381" lon="5.64572">
        <ele>552.2</ele>
        <time>2022-05-21T11:39:11Z</time>
      </trkpt>
      <trkpt lat="46.59418" lon="5.64583">
        <ele>553.2</ele>
        <time>2022-05-21T11:39:19Z</time>
      </trkpt>
      <trkpt lat="46.59436" lon="5.64588">
        <ele>554.4</ele>
        <time>2022-05-21T11:39:23Z</time>
      </trkpt>
      <trkpt lat="46.59471" lon="5.64599">
        <ele>555.2</ele>
        <time>2022-05-21T11:39:30Z</time>
      </trkpt>
      <trkpt lat="46.59475" lon="5.64601">
        <ele>555.6</ele>
        <time>2022-05-21T11:39:31Z</time>
      </trkpt>
      <trkpt lat="46.59522" lon="5.64611">
        <ele>555.4</ele>
        <time>2022-05-21T11:39:39Z</time>
      </trkpt>
      <trkpt lat="46.59535" lon="5.64614">
        <ele>555.4</ele>
        <time>2022-05-21T11:39:41Z</time>
      </trkpt>
      <trkpt lat="46.59552" lon="5.64619">
        <ele>555.2</ele>
        <time>2022-05-21T11:39:44Z</time>
      </trkpt>
      <trkpt lat="46.59603" lon="5.64637">
        <ele>555.8</ele>
        <time>2022-05-21T11:39:53Z</time>
      </trkpt>
      <trkpt lat="46.59634" lon="5.64644">
        <ele>557</ele>
        <time>2022-05-21T11:39:59Z</time>
      </trkpt>
      <trkpt lat="46.5964" lon="5.64643">
        <ele>557</ele>
        <time>2022-05-21T11:40:00Z</time>
      </trkpt>
      <trkpt lat="46.59659" lon="5.64636">
        <ele>557.8</ele>
        <time>2022-05-21T11:40:04Z</time>
      </trkpt>
      <trkpt lat="46.59668" lon="5.6463">
        <ele>557.8</ele>
        <time>2022-05-21T11:40:06Z</time>
      </trkpt>
      <trkpt lat="46.59697" lon="5.64603">
        <ele>558.4</ele>
        <time>2022-05-21T11:40:13Z</time>
      </trkpt>
      <trkpt lat="46.597" lon="5.646">
        <ele>558.4</ele>
        <time>2022-05-21T11:40:14Z</time>
      </trkpt>
      <trkpt lat="46.59714" lon="5.64585">
        <ele>559</ele>
        <time>2022-05-21T11:40:18Z</time>
      </trkpt>
      <trkpt lat="46.59721" lon="5.64581">
        <ele>559.2</ele>
        <time>2022-05-21T11:40:20Z</time>
      </trkpt>
      <trkpt lat="46.59728" lon="5.64578">
        <ele>560.2</ele>
        <time>2022-05-21T11:40:22Z</time>
      </trkpt>
      <trkpt lat="46.59732" lon="5.64575">
        <ele>560.4</ele>
        <time>2022-05-21T11:40:23Z</time>
      </trkpt>
      <trkpt lat="46.59735" lon="5.64569">
        <ele>560.4</ele>
        <time>2022-05-21T11:40:24Z</time>
      </trkpt>
      <trkpt lat="46.59739" lon="5.64555">
        <ele>560.4</ele>
        <time>2022-05-21T11:40:26Z</time>
      </trkpt>
      <trkpt lat="46.59742" lon="5.64539">
        <ele>560.4</ele>
        <time>2022-05-21T11:40:28Z</time>
      </trkpt>
      <trkpt lat="46.59743" lon="5.64531">
        <ele>560.2</ele>
        <time>2022-05-21T11:40:29Z</time>
      </trkpt>
      <trkpt lat="46.59758" lon="5.64495">
        <ele>559.4</ele>
        <time>2022-05-21T11:40:34Z</time>
      </trkpt>
      <trkpt lat="46.59765" lon="5.64479">
        <ele>559</ele>
        <time>2022-05-21T11:40:36Z</time>
      </trkpt>
      <trkpt lat="46.59778" lon="5.64454">
        <ele>558.4</ele>
        <time>2022-05-21T11:40:39Z</time>
      </trkpt>
      <trkpt lat="46.59791" lon="5.64427">
        <ele>557.8</ele>
        <time>2022-05-21T11:40:42Z</time>
      </trkpt>
      <trkpt lat="46.59811" lon="5.64389">
        <ele>556.8</ele>
        <time>2022-05-21T11:40:46Z</time>
      </trkpt>
      <trkpt lat="46.59831" lon="5.64348">
        <ele>555.4</ele>
        <time>2022-05-21T11:40:50Z</time>
      </trkpt>
      <trkpt lat="46.59842" lon="5.64326">
        <ele>554</ele>
        <time>2022-05-21T11:40:52Z</time>
      </trkpt>
      <trkpt lat="46.59858" lon="5.64295">
        <ele>552.8</ele>
        <time>2022-05-21T11:40:55Z</time>
      </trkpt>
      <trkpt lat="46.5988" lon="5.64253">
        <ele>551.4</ele>
        <time>2022-05-21T11:40:59Z</time>
      </trkpt>
      <trkpt lat="46.59885" lon="5.64242">
        <ele>551</ele>
        <time>2022-05-21T11:41:00Z</time>
      </trkpt>
      <trkpt lat="46.59909" lon="5.64197">
        <ele>550.4</ele>
        <time>2022-05-21T11:41:05Z</time>
      </trkpt>
      <trkpt lat="46.5994" lon="5.64137">
        <ele>549.8</ele>
        <time>2022-05-21T11:41:12Z</time>
      </trkpt>
      <trkpt lat="46.59956" lon="5.64106">
        <ele>550</ele>
        <time>2022-05-21T11:41:16Z</time>
      </trkpt>
      <trkpt lat="46.59966" lon="5.64098">
        <ele>550.2</ele>
        <time>2022-05-21T11:41:18Z</time>
      </trkpt>
      <trkpt lat="46.59982" lon="5.64098">
        <ele>550.6</ele>
        <time>2022-05-21T11:41:21Z</time>
      </trkpt>
      <trkpt lat="46.59993" lon="5.64097">
        <ele>551.4</ele>
        <time>2022-05-21T11:41:23Z</time>
      </trkpt>
      <trkpt lat="46.60015" lon="5.64092">
        <ele>552.6</ele>
        <time>2022-05-21T11:41:27Z</time>
      </trkpt>
      <trkpt lat="46.60031" lon="5.64088">
        <ele>552.8</ele>
        <time>2022-05-21T11:41:30Z</time>
      </trkpt>
      <trkpt lat="46.60082" lon="5.64075">
        <ele>553.6</ele>
        <time>2022-05-21T11:41:39Z</time>
      </trkpt>
      <trkpt lat="46.60088" lon="5.64074">
        <ele>553.6</ele>
        <time>2022-05-21T11:41:40Z</time>
      </trkpt>
      <trkpt lat="46.60133" lon="5.64071">
        <ele>553.8</ele>
        <time>2022-05-21T11:41:47Z</time>
      </trkpt>
      <trkpt lat="46.60181" lon="5.6408">
        <ele>553</ele>
        <time>2022-05-21T11:41:54Z</time>
      </trkpt>
      <trkpt lat="46.60196" lon="5.64081">
        <ele>552.4</ele>
        <time>2022-05-21T11:41:56Z</time>
      </trkpt>
      <trkpt lat="46.60238" lon="5.64082">
        <ele>552</ele>
        <time>2022-05-21T11:42:02Z</time>
      </trkpt>
      <trkpt lat="46.60287" lon="5.64089">
        <ele>552.4</ele>
        <time>2022-05-21T11:42:09Z</time>
      </trkpt>
      <trkpt lat="46.6034" lon="5.64105">
        <ele>552.6</ele>
        <time>2022-05-21T11:42:17Z</time>
      </trkpt>
      <trkpt lat="46.60346" lon="5.64107">
        <ele>552.4</ele>
        <time>2022-05-21T11:42:18Z</time>
      </trkpt>
      <trkpt lat="46.60404" lon="5.64125">
        <ele>552.8</ele>
        <time>2022-05-21T11:42:27Z</time>
      </trkpt>
      <trkpt lat="46.6041" lon="5.64127">
        <ele>553</ele>
        <time>2022-05-21T11:42:28Z</time>
      </trkpt>
      <trkpt lat="46.60447" lon="5.64139">
        <ele>553.6</ele>
        <time>2022-05-21T11:42:34Z</time>
      </trkpt>
      <trkpt lat="46.60465" lon="5.64145">
        <ele>554</ele>
        <time>2022-05-21T11:42:37Z</time>
      </trkpt>
      <trkpt lat="46.60509" lon="5.64152">
        <ele>554.6</ele>
        <time>2022-05-21T11:42:44Z</time>
      </trkpt>
      <trkpt lat="46.60515" lon="5.64152">
        <ele>554.6</ele>
        <time>2022-05-21T11:42:45Z</time>
      </trkpt>
      <trkpt lat="46.6057" lon="5.6415">
        <ele>555.8</ele>
        <time>2022-05-21T11:42:54Z</time>
      </trkpt>
      <trkpt lat="46.6061" lon="5.64138">
        <ele>556.4</ele>
        <time>2022-05-21T11:43:01Z</time>
      </trkpt>
      <trkpt lat="46.60627" lon="5.64137">
        <ele>557</ele>
        <time>2022-05-21T11:43:04Z</time>
      </trkpt>
      <trkpt lat="46.60644" lon="5.6414">
        <ele>557.6</ele>
        <time>2022-05-21T11:43:07Z</time>
      </trkpt>
      <trkpt lat="46.60662" lon="5.64146">
        <ele>557.8</ele>
        <time>2022-05-21T11:43:10Z</time>
      </trkpt>
      <trkpt lat="46.60692" lon="5.64156">
        <ele>558.4</ele>
        <time>2022-05-21T11:43:15Z</time>
      </trkpt>
      <trkpt lat="46.60742" lon="5.64166">
        <ele>558.6</ele>
        <time>2022-05-21T11:43:23Z</time>
      </trkpt>
      <trkpt lat="46.60792" lon="5.64161">
        <ele>558.6</ele>
        <time>2022-05-21T11:43:30Z</time>
      </trkpt>
      <trkpt lat="46.6085" lon="5.64154">
        <ele>557.8</ele>
        <time>2022-05-21T11:43:38Z</time>
      </trkpt>
      <trkpt lat="46.60902" lon="5.64157">
        <ele>558.4</ele>
        <time>2022-05-21T11:43:46Z</time>
      </trkpt>
      <trkpt lat="46.60925" lon="5.64158">
        <ele>559</ele>
        <time>2022-05-21T11:43:50Z</time>
      </trkpt>
      <trkpt lat="46.60948" lon="5.6416">
        <ele>559.8</ele>
        <time>2022-05-21T11:43:54Z</time>
      </trkpt>
      <trkpt lat="46.60959" lon="5.6416">
        <ele>560.2</ele>
        <time>2022-05-21T11:43:56Z</time>
      </trkpt>
      <trkpt lat="46.60993" lon="5.6416">
        <ele>560.6</ele>
        <time>2022-05-21T11:44:02Z</time>
      </trkpt>
      <trkpt lat="46.61015" lon="5.64159">
        <ele>561.4</ele>
        <time>2022-05-21T11:44:06Z</time>
      </trkpt>
      <trkpt lat="46.61041" lon="5.64155">
        <ele>562</ele>
        <time>2022-05-21T11:44:11Z</time>
      </trkpt>
      <trkpt lat="46.61086" lon="5.64151">
        <ele>562.4</ele>
        <time>2022-05-21T11:44:19Z</time>
      </trkpt>
      <trkpt lat="46.61097" lon="5.64151">
        <ele>562.6</ele>
        <time>2022-05-21T11:44:21Z</time>
      </trkpt>
      <trkpt lat="46.61127" lon="5.64164">
        <ele>562.8</ele>
        <time>2022-05-21T11:44:26Z</time>
      </trkpt>
      <trkpt lat="46.61132" lon="5.64168">
        <ele>562.8</ele>
        <time>2022-05-21T11:44:27Z</time>
      </trkpt>
      <trkpt lat="46.61155" lon="5.64193">
        <ele>562.8</ele>
        <time>2022-05-21T11:44:31Z</time>
      </trkpt>
      <trkpt lat="46.61173" lon="5.64216">
        <ele>562.6</ele>
        <time>2022-05-21T11:44:34Z</time>
      </trkpt>
      <trkpt lat="46.61177" lon="5.64228">
        <ele>562.6</ele>
        <time>2022-05-21T11:44:35Z</time>
      </trkpt>
      <trkpt lat="46.61179" lon="5.64241">
        <ele>562.2</ele>
        <time>2022-05-21T11:44:36Z</time>
      </trkpt>
      <trkpt lat="46.61178" lon="5.64255">
        <ele>562</ele>
        <time>2022-05-21T11:44:37Z</time>
      </trkpt>
      <trkpt lat="46.61174" lon="5.64282">
        <ele>561</ele>
        <time>2022-05-21T11:44:39Z</time>
      </trkpt>
      <trkpt lat="46.61172" lon="5.64297">
        <ele>559.8</ele>
        <time>2022-05-21T11:44:40Z</time>
      </trkpt>
      <trkpt lat="46.61171" lon="5.64312">
        <ele>558.8</ele>
        <time>2022-05-21T11:44:41Z</time>
      </trkpt>
      <trkpt lat="46.6117" lon="5.64327">
        <ele>558.2</ele>
        <time>2022-05-21T11:44:42Z</time>
      </trkpt>
      <trkpt lat="46.6117" lon="5.64342">
        <ele>556.8</ele>
        <time>2022-05-21T11:44:43Z</time>
      </trkpt>
      <trkpt lat="46.61174" lon="5.64372">
        <ele>555.4</ele>
        <time>2022-05-21T11:44:45Z</time>
      </trkpt>
      <trkpt lat="46.61178" lon="5.64385">
        <ele>555</ele>
        <time>2022-05-21T11:44:46Z</time>
      </trkpt>
      <trkpt lat="46.61184" lon="5.64396">
        <ele>554.2</ele>
        <time>2022-05-21T11:44:47Z</time>
      </trkpt>
      <trkpt lat="46.61192" lon="5.64405">
        <ele>553.2</ele>
        <time>2022-05-21T11:44:48Z</time>
      </trkpt>
      <trkpt lat="46.61201" lon="5.64414">
        <ele>553</ele>
        <time>2022-05-21T11:44:49Z</time>
      </trkpt>
      <trkpt lat="46.61219" lon="5.6443">
        <ele>552.4</ele>
        <time>2022-05-21T11:44:51Z</time>
      </trkpt>
      <trkpt lat="46.61229" lon="5.64437">
        <ele>551.8</ele>
        <time>2022-05-21T11:44:52Z</time>
      </trkpt>
      <trkpt lat="46.6124" lon="5.64442">
        <ele>551.6</ele>
        <time>2022-05-21T11:44:53Z</time>
      </trkpt>
      <trkpt lat="46.6125" lon="5.64445">
        <ele>551.2</ele>
        <time>2022-05-21T11:44:54Z</time>
      </trkpt>
      <trkpt lat="46.61273" lon="5.6445">
        <ele>550.6</ele>
        <time>2022-05-21T11:44:56Z</time>
      </trkpt>
      <trkpt lat="46.61308" lon="5.64455">
        <ele>549.8</ele>
        <time>2022-05-21T11:44:59Z</time>
      </trkpt>
      <trkpt lat="46.61319" lon="5.64455">
        <ele>549.6</ele>
        <time>2022-05-21T11:45:00Z</time>
      </trkpt>
      <trkpt lat="46.61342" lon="5.64451">
        <ele>547.8</ele>
        <time>2022-05-21T11:45:02Z</time>
      </trkpt>
      <trkpt lat="46.61353" lon="5.64449">
        <ele>547.2</ele>
        <time>2022-05-21T11:45:03Z</time>
      </trkpt>
      <trkpt lat="46.61364" lon="5.64447">
        <ele>546.2</ele>
        <time>2022-05-21T11:45:04Z</time>
      </trkpt>
      <trkpt lat="46.61396" lon="5.6444">
        <ele>545</ele>
        <time>2022-05-21T11:45:07Z</time>
      </trkpt>
      <trkpt lat="46.61438" lon="5.6443">
        <ele>544.4</ele>
        <time>2022-05-21T11:45:11Z</time>
      </trkpt>
      <trkpt lat="46.61482" lon="5.6441">
        <ele>544.4</ele>
        <time>2022-05-21T11:45:16Z</time>
      </trkpt>
      <trkpt lat="46.61511" lon="5.64383">
        <ele>544.6</ele>
        <time>2022-05-21T11:45:20Z</time>
      </trkpt>
      <trkpt lat="46.61555" lon="5.64337">
        <ele>546</ele>
        <time>2022-05-21T11:45:27Z</time>
      </trkpt>
      <trkpt lat="46.61562" lon="5.64331">
        <ele>546.2</ele>
        <time>2022-05-21T11:45:28Z</time>
      </trkpt>
      <trkpt lat="46.61596" lon="5.64315">
        <ele>546.8</ele>
        <time>2022-05-21T11:45:33Z</time>
      </trkpt>
      <trkpt lat="46.61617" lon="5.64311">
        <ele>547.4</ele>
        <time>2022-05-21T11:45:36Z</time>
      </trkpt>
      <trkpt lat="46.61624" lon="5.64309">
        <ele>547.8</ele>
        <time>2022-05-21T11:45:37Z</time>
      </trkpt>
      <trkpt lat="46.6163" lon="5.64306">
        <ele>548</ele>
        <time>2022-05-21T11:45:38Z</time>
      </trkpt>
      <trkpt lat="46.61637" lon="5.64303">
        <ele>548.4</ele>
        <time>2022-05-21T11:45:39Z</time>
      </trkpt>
      <trkpt lat="46.61649" lon="5.64294">
        <ele>548.6</ele>
        <time>2022-05-21T11:45:41Z</time>
      </trkpt>
      <trkpt lat="46.61661" lon="5.64282">
        <ele>549</ele>
        <time>2022-05-21T11:45:43Z</time>
      </trkpt>
      <trkpt lat="46.61692" lon="5.64238">
        <ele>549</ele>
        <time>2022-05-21T11:45:49Z</time>
      </trkpt>
      <trkpt lat="46.6172" lon="5.64186">
        <ele>548</ele>
        <time>2022-05-21T11:45:55Z</time>
      </trkpt>
      <trkpt lat="46.61731" lon="5.64172">
        <ele>548</ele>
        <time>2022-05-21T11:45:57Z</time>
      </trkpt>
      <trkpt lat="46.61742" lon="5.64162">
        <ele>548</ele>
        <time>2022-05-21T11:45:59Z</time>
      </trkpt>
      <trkpt lat="46.61755" lon="5.64158">
        <ele>548</ele>
        <time>2022-05-21T11:46:01Z</time>
      </trkpt>
      <trkpt lat="46.61768" lon="5.64155">
        <ele>548</ele>
        <time>2022-05-21T11:46:03Z</time>
      </trkpt>
      <trkpt lat="46.61814" lon="5.64152">
        <ele>548.2</ele>
        <time>2022-05-21T11:46:09Z</time>
      </trkpt>
      <trkpt lat="46.61871" lon="5.64148">
        <ele>547</ele>
        <time>2022-05-21T11:46:16Z</time>
      </trkpt>
      <trkpt lat="46.6192" lon="5.64143">
        <ele>546</ele>
        <time>2022-05-21T11:46:22Z</time>
      </trkpt>
      <trkpt lat="46.61936" lon="5.64141">
        <ele>545.6</ele>
        <time>2022-05-21T11:46:24Z</time>
      </trkpt>
      <trkpt lat="46.6197" lon="5.64139">
        <ele>545</ele>
        <time>2022-05-21T11:46:28Z</time>
      </trkpt>
      <trkpt lat="46.62006" lon="5.64137">
        <ele>544.2</ele>
        <time>2022-05-21T11:46:32Z</time>
      </trkpt>
      <trkpt lat="46.62025" lon="5.64135">
        <ele>543.8</ele>
        <time>2022-05-21T11:46:34Z</time>
      </trkpt>
      <trkpt lat="46.62054" lon="5.64127">
        <ele>542.4</ele>
        <time>2022-05-21T11:46:37Z</time>
      </trkpt>
      <trkpt lat="46.62091" lon="5.64113">
        <ele>541</ele>
        <time>2022-05-21T11:46:41Z</time>
      </trkpt>
      <trkpt lat="46.62118" lon="5.64105">
        <ele>540.2</ele>
        <time>2022-05-21T11:46:44Z</time>
      </trkpt>
      <trkpt lat="46.62137" lon="5.64104">
        <ele>539.8</ele>
        <time>2022-05-21T11:46:46Z</time>
      </trkpt>
      <trkpt lat="46.62163" lon="5.64106">
        <ele>539.2</ele>
        <time>2022-05-21T11:46:49Z</time>
      </trkpt>
      <trkpt lat="46.62181" lon="5.64104">
        <ele>538.8</ele>
        <time>2022-05-21T11:46:51Z</time>
      </trkpt>
      <trkpt lat="46.62189" lon="5.64102">
        <ele>538.8</ele>
        <time>2022-05-21T11:46:52Z</time>
      </trkpt>
      <trkpt lat="46.62197" lon="5.64099">
        <ele>538.6</ele>
        <time>2022-05-21T11:46:53Z</time>
      </trkpt>
      <trkpt lat="46.62231" lon="5.64076">
        <ele>538.8</ele>
        <time>2022-05-21T11:46:58Z</time>
      </trkpt>
      <trkpt lat="46.62274" lon="5.64055">
        <ele>539</ele>
        <time>2022-05-21T11:47:04Z</time>
      </trkpt>
      <trkpt lat="46.62308" lon="5.64053">
        <ele>538.4</ele>
        <time>2022-05-21T11:47:08Z</time>
      </trkpt>
      <trkpt lat="46.62317" lon="5.64054">
        <ele>538.2</ele>
        <time>2022-05-21T11:47:09Z</time>
      </trkpt>
      <trkpt lat="46.62342" lon="5.64066">
        <ele>538.2</ele>
        <time>2022-05-21T11:47:12Z</time>
      </trkpt>
      <trkpt lat="46.62392" lon="5.64094">
        <ele>538.2</ele>
        <time>2022-05-21T11:47:19Z</time>
      </trkpt>
      <trkpt lat="46.62433" lon="5.64129">
        <ele>539.2</ele>
        <time>2022-05-21T11:47:26Z</time>
      </trkpt>
      <trkpt lat="46.62482" lon="5.64174">
        <ele>539</ele>
        <time>2022-05-21T11:47:34Z</time>
      </trkpt>
      <trkpt lat="46.62489" lon="5.64181">
        <ele>538.8</ele>
        <time>2022-05-21T11:47:35Z</time>
      </trkpt>
      <trkpt lat="46.62509" lon="5.64202">
        <ele>537.4</ele>
        <time>2022-05-21T11:47:38Z</time>
      </trkpt>
      <trkpt lat="46.62523" lon="5.64217">
        <ele>536.8</ele>
        <time>2022-05-21T11:47:40Z</time>
      </trkpt>
      <trkpt lat="46.6253" lon="5.64224">
        <ele>536.8</ele>
        <time>2022-05-21T11:47:41Z</time>
      </trkpt>
      <trkpt lat="46.62538" lon="5.64229">
        <ele>536</ele>
        <time>2022-05-21T11:47:42Z</time>
      </trkpt>
      <trkpt lat="46.62546" lon="5.64234">
        <ele>535.8</ele>
        <time>2022-05-21T11:47:43Z</time>
      </trkpt>
      <trkpt lat="46.62555" lon="5.64237">
        <ele>535</ele>
        <time>2022-05-21T11:47:44Z</time>
      </trkpt>
      <trkpt lat="46.62564" lon="5.64238">
        <ele>534.6</ele>
        <time>2022-05-21T11:47:45Z</time>
      </trkpt>
      <trkpt lat="46.62594" lon="5.64237">
        <ele>533.6</ele>
        <time>2022-05-21T11:47:48Z</time>
      </trkpt>
      <trkpt lat="46.62603" lon="5.64237">
        <ele>533</ele>
        <time>2022-05-21T11:47:49Z</time>
      </trkpt>
      <trkpt lat="46.62623" lon="5.64237">
        <ele>532</ele>
        <time>2022-05-21T11:47:51Z</time>
      </trkpt>
      <trkpt lat="46.62643" lon="5.64237">
        <ele>530.8</ele>
        <time>2022-05-21T11:47:53Z</time>
      </trkpt>
      <trkpt lat="46.62672" lon="5.64239">
        <ele>529.4</ele>
        <time>2022-05-21T11:47:56Z</time>
      </trkpt>
      <trkpt lat="46.62709" lon="5.64248">
        <ele>528.4</ele>
        <time>2022-05-21T11:48:00Z</time>
      </trkpt>
      <trkpt lat="46.62718" lon="5.64252">
        <ele>528.2</ele>
        <time>2022-05-21T11:48:01Z</time>
      </trkpt>
      <trkpt lat="46.62749" lon="5.64273">
        <ele>528.2</ele>
        <time>2022-05-21T11:48:05Z</time>
      </trkpt>
      <trkpt lat="46.62788" lon="5.64295">
        <ele>528.8</ele>
        <time>2022-05-21T11:48:11Z</time>
      </trkpt>
      <trkpt lat="46.62808" lon="5.64299">
        <ele>529.6</ele>
        <time>2022-05-21T11:48:14Z</time>
      </trkpt>
      <trkpt lat="46.62827" lon="5.64302">
        <ele>530.4</ele>
        <time>2022-05-21T11:48:17Z</time>
      </trkpt>
      <trkpt lat="46.62833" lon="5.64304">
        <ele>530.6</ele>
        <time>2022-05-21T11:48:18Z</time>
      </trkpt>
      <trkpt lat="46.62872" lon="5.6431">
        <ele>531.6</ele>
        <time>2022-05-21T11:48:24Z</time>
      </trkpt>
      <trkpt lat="46.62898" lon="5.64314">
        <ele>531.6</ele>
        <time>2022-05-21T11:48:28Z</time>
      </trkpt>
      <trkpt lat="46.62927" lon="5.64317">
        <ele>533</ele>
        <time>2022-05-21T11:48:33Z</time>
      </trkpt>
      <trkpt lat="46.62962" lon="5.6432">
        <ele>533.8</ele>
        <time>2022-05-21T11:48:39Z</time>
      </trkpt>
      <trkpt lat="46.62973" lon="5.64322">
        <ele>534</ele>
        <time>2022-05-21T11:48:41Z</time>
      </trkpt>
      <trkpt lat="46.6301" lon="5.64325">
        <ele>535</ele>
        <time>2022-05-21T11:48:48Z</time>
      </trkpt>
      <trkpt lat="46.63024" lon="5.64327">
        <ele>536.4</ele>
        <time>2022-05-21T11:48:51Z</time>
      </trkpt>
      <trkpt lat="46.63043" lon="5.64331">
        <ele>537.6</ele>
        <time>2022-05-21T11:48:55Z</time>
      </trkpt>
      <trkpt lat="46.63048" lon="5.64333">
        <ele>537.8</ele>
        <time>2022-05-21T11:48:56Z</time>
      </trkpt>
      <trkpt lat="46.63052" lon="5.64334">
        <ele>538</ele>
        <time>2022-05-21T11:48:57Z</time>
      </trkpt>
      <trkpt lat="46.63061" lon="5.64337">
        <ele>538.6</ele>
        <time>2022-05-21T11:48:59Z</time>
      </trkpt>
      <trkpt lat="46.6307" lon="5.6434">
        <ele>539</ele>
        <time>2022-05-21T11:49:01Z</time>
      </trkpt>
      <trkpt lat="46.63084" lon="5.64343">
        <ele>539.8</ele>
        <time>2022-05-21T11:49:04Z</time>
      </trkpt>
      <trkpt lat="46.63094" lon="5.64345">
        <ele>540.4</ele>
        <time>2022-05-21T11:49:06Z</time>
      </trkpt>
      <trkpt lat="46.63104" lon="5.64345">
        <ele>540.8</ele>
        <time>2022-05-21T11:49:08Z</time>
      </trkpt>
      <trkpt lat="46.63115" lon="5.64345">
        <ele>541</ele>
        <time>2022-05-21T11:49:10Z</time>
      </trkpt>
      <trkpt lat="46.63127" lon="5.64342">
        <ele>541</ele>
        <time>2022-05-21T11:49:12Z</time>
      </trkpt>
      <trkpt lat="46.63169" lon="5.64334">
        <ele>540</ele>
        <time>2022-05-21T11:49:18Z</time>
      </trkpt>
      <trkpt lat="46.632" lon="5.64335">
        <ele>538.4</ele>
        <time>2022-05-21T11:49:22Z</time>
      </trkpt>
      <trkpt lat="46.63216" lon="5.64337">
        <ele>537.4</ele>
        <time>2022-05-21T11:49:24Z</time>
      </trkpt>
      <trkpt lat="46.63226" lon="5.64337">
        <ele>537</ele>
        <time>2022-05-21T11:49:25Z</time>
      </trkpt>
      <trkpt lat="46.63239" lon="5.64332">
        <ele>536.8</ele>
        <time>2022-05-21T11:49:27Z</time>
      </trkpt>
      <trkpt lat="46.63252" lon="5.64321">
        <ele>535.8</ele>
        <time>2022-05-21T11:49:29Z</time>
      </trkpt>
      <trkpt lat="46.63264" lon="5.64308">
        <ele>535.4</ele>
        <time>2022-05-21T11:49:31Z</time>
      </trkpt>
      <trkpt lat="46.63296" lon="5.6427">
        <ele>535</ele>
        <time>2022-05-21T11:49:37Z</time>
      </trkpt>
      <trkpt lat="46.63302" lon="5.64265">
        <ele>534.6</ele>
        <time>2022-05-21T11:49:38Z</time>
      </trkpt>
      <trkpt lat="46.63308" lon="5.64262">
        <ele>534.6</ele>
        <time>2022-05-21T11:49:39Z</time>
      </trkpt>
      <trkpt lat="46.63323" lon="5.64256">
        <ele>534.6</ele>
        <time>2022-05-21T11:49:41Z</time>
      </trkpt>
      <trkpt lat="46.63337" lon="5.6425">
        <ele>534.6</ele>
        <time>2022-05-21T11:49:43Z</time>
      </trkpt>
      <trkpt lat="46.63349" lon="5.64238">
        <ele>534.4</ele>
        <time>2022-05-21T11:49:45Z</time>
      </trkpt>
      <trkpt lat="46.63366" lon="5.64214">
        <ele>533.6</ele>
        <time>2022-05-21T11:49:48Z</time>
      </trkpt>
      <trkpt lat="46.63376" lon="5.64197">
        <ele>533.4</ele>
        <time>2022-05-21T11:49:50Z</time>
      </trkpt>
      <trkpt lat="46.634" lon="5.64157">
        <ele>532.6</ele>
        <time>2022-05-21T11:49:55Z</time>
      </trkpt>
      <trkpt lat="46.63409" lon="5.64143">
        <ele>532.2</ele>
        <time>2022-05-21T11:49:57Z</time>
      </trkpt>
      <trkpt lat="46.6342" lon="5.64129">
        <ele>532</ele>
        <time>2022-05-21T11:49:59Z</time>
      </trkpt>
      <trkpt lat="46.63432" lon="5.64124">
        <ele>532</ele>
        <time>2022-05-21T11:50:01Z</time>
      </trkpt>
      <trkpt lat="46.63442" lon="5.64134">
        <ele>532</ele>
        <time>2022-05-21T11:50:03Z</time>
      </trkpt>
      <trkpt lat="46.6346" lon="5.64174">
        <ele>532.2</ele>
        <time>2022-05-21T11:50:08Z</time>
      </trkpt>
      <trkpt lat="46.6349" lon="5.64235">
        <ele>533.2</ele>
        <time>2022-05-21T11:50:16Z</time>
      </trkpt>
      <trkpt lat="46.63497" lon="5.6425">
        <ele>533.4</ele>
        <time>2022-05-21T11:50:18Z</time>
      </trkpt>
      <trkpt lat="46.63502" lon="5.64265">
        <ele>533.6</ele>
        <time>2022-05-21T11:50:20Z</time>
      </trkpt>
      <trkpt lat="46.63505" lon="5.64273">
        <ele>533.8</ele>
        <time>2022-05-21T11:50:21Z</time>
      </trkpt>
      <trkpt lat="46.63523" lon="5.64334">
        <ele>534.8</ele>
        <time>2022-05-21T11:50:28Z</time>
      </trkpt>
      <trkpt lat="46.63528" lon="5.64386">
        <ele>534.8</ele>
        <time>2022-05-21T11:50:33Z</time>
      </trkpt>
      <trkpt lat="46.63536" lon="5.6446">
        <ele>534.8</ele>
        <time>2022-05-21T11:50:40Z</time>
      </trkpt>
      <trkpt lat="46.63548" lon="5.64548">
        <ele>534.4</ele>
        <time>2022-05-21T11:50:48Z</time>
      </trkpt>
      <trkpt lat="46.63551" lon="5.64559">
        <ele>534.2</ele>
        <time>2022-05-21T11:50:49Z</time>
      </trkpt>
      <trkpt lat="46.63562" lon="5.64607">
        <ele>533.6</ele>
        <time>2022-05-21T11:50:53Z</time>
      </trkpt>
      <trkpt lat="46.63571" lon="5.6464">
        <ele>533.4</ele>
        <time>2022-05-21T11:50:56Z</time>
      </trkpt>
      <trkpt lat="46.6358" lon="5.64676">
        <ele>532.6</ele>
        <time>2022-05-21T11:50:59Z</time>
      </trkpt>
      <trkpt lat="46.63595" lon="5.64723">
        <ele>531.4</ele>
        <time>2022-05-21T11:51:03Z</time>
      </trkpt>
      <trkpt lat="46.63603" lon="5.64745">
        <ele>531</ele>
        <time>2022-05-21T11:51:05Z</time>
      </trkpt>
      <trkpt lat="46.63617" lon="5.64803">
        <ele>530.8</ele>
        <time>2022-05-21T11:51:10Z</time>
      </trkpt>
      <trkpt lat="46.63619" lon="5.6485">
        <ele>530.6</ele>
        <time>2022-05-21T11:51:14Z</time>
      </trkpt>
      <trkpt lat="46.63614" lon="5.64872">
        <ele>530.6</ele>
        <time>2022-05-21T11:51:16Z</time>
      </trkpt>
      <trkpt lat="46.6361" lon="5.64883">
        <ele>530.6</ele>
        <time>2022-05-21T11:51:17Z</time>
      </trkpt>
      <trkpt lat="46.63606" lon="5.64894">
        <ele>530.4</ele>
        <time>2022-05-21T11:51:18Z</time>
      </trkpt>
      <trkpt lat="46.63575" lon="5.64968">
        <ele>529.2</ele>
        <time>2022-05-21T11:51:25Z</time>
      </trkpt>
      <trkpt lat="46.63549" lon="5.65028">
        <ele>528</ele>
        <time>2022-05-21T11:51:30Z</time>
      </trkpt>
      <trkpt lat="46.63522" lon="5.65092">
        <ele>526.4</ele>
        <time>2022-05-21T11:51:35Z</time>
      </trkpt>
      <trkpt lat="46.63513" lon="5.65117">
        <ele>526</ele>
        <time>2022-05-21T11:51:37Z</time>
      </trkpt>
      <trkpt lat="46.635" lon="5.65153">
        <ele>525.2</ele>
        <time>2022-05-21T11:51:40Z</time>
      </trkpt>
      <trkpt lat="46.63484" lon="5.65199">
        <ele>525</ele>
        <time>2022-05-21T11:51:44Z</time>
      </trkpt>
      <trkpt lat="46.63461" lon="5.65253">
        <ele>524.8</ele>
        <time>2022-05-21T11:51:49Z</time>
      </trkpt>
      <trkpt lat="46.63457" lon="5.65278">
        <ele>524.6</ele>
        <time>2022-05-21T11:51:51Z</time>
      </trkpt>
      <trkpt lat="46.63458" lon="5.65292">
        <ele>524.4</ele>
        <time>2022-05-21T11:51:52Z</time>
      </trkpt>
      <trkpt lat="46.63461" lon="5.65305">
        <ele>524.2</ele>
        <time>2022-05-21T11:51:53Z</time>
      </trkpt>
      <trkpt lat="46.6347" lon="5.6533">
        <ele>523.6</ele>
        <time>2022-05-21T11:51:55Z</time>
      </trkpt>
      <trkpt lat="46.63475" lon="5.65342">
        <ele>523.2</ele>
        <time>2022-05-21T11:51:56Z</time>
      </trkpt>
      <trkpt lat="46.635" lon="5.65389">
        <ele>522.2</ele>
        <time>2022-05-21T11:52:00Z</time>
      </trkpt>
      <trkpt lat="46.63506" lon="5.65401">
        <ele>521.6</ele>
        <time>2022-05-21T11:52:01Z</time>
      </trkpt>
      <trkpt lat="46.63519" lon="5.65424">
        <ele>521</ele>
        <time>2022-05-21T11:52:03Z</time>
      </trkpt>
      <trkpt lat="46.63538" lon="5.65461">
        <ele>519.6</ele>
        <time>2022-05-21T11:52:06Z</time>
      </trkpt>
      <trkpt lat="46.63545" lon="5.65489">
        <ele>518</ele>
        <time>2022-05-21T11:52:08Z</time>
      </trkpt>
      <trkpt lat="46.63547" lon="5.65503">
        <ele>517.6</ele>
        <time>2022-05-21T11:52:09Z</time>
      </trkpt>
      <trkpt lat="46.63551" lon="5.6553">
        <ele>517.2</ele>
        <time>2022-05-21T11:52:11Z</time>
      </trkpt>
      <trkpt lat="46.63555" lon="5.65545">
        <ele>517.2</ele>
        <time>2022-05-21T11:52:12Z</time>
      </trkpt>
      <trkpt lat="46.63559" lon="5.65554">
        <ele>517.2</ele>
        <time>2022-05-21T11:52:13Z</time>
      </trkpt>
      <trkpt lat="46.63571" lon="5.65573">
        <ele>517.2</ele>
        <time>2022-05-21T11:52:15Z</time>
      </trkpt>
      <trkpt lat="46.63577" lon="5.65581">
        <ele>517.2</ele>
        <time>2022-05-21T11:52:16Z</time>
      </trkpt>
      <trkpt lat="46.63595" lon="5.656">
        <ele>517.8</ele>
        <time>2022-05-21T11:52:19Z</time>
      </trkpt>
      <trkpt lat="46.63614" lon="5.65625">
        <ele>518.6</ele>
        <time>2022-05-21T11:52:23Z</time>
      </trkpt>
      <trkpt lat="46.63618" lon="5.65632">
        <ele>519.2</ele>
        <time>2022-05-21T11:52:24Z</time>
      </trkpt>
      <trkpt lat="46.63623" lon="5.65646">
        <ele>519.8</ele>
        <time>2022-05-21T11:52:26Z</time>
      </trkpt>
      <trkpt lat="46.63627" lon="5.65659">
        <ele>520.4</ele>
        <time>2022-05-21T11:52:28Z</time>
      </trkpt>
      <trkpt lat="46.63628" lon="5.65666">
        <ele>520.8</ele>
        <time>2022-05-21T11:52:29Z</time>
      </trkpt>
      <trkpt lat="46.63632" lon="5.65683">
        <ele>521.8</ele>
        <time>2022-05-21T11:52:32Z</time>
      </trkpt>
      <trkpt lat="46.63634" lon="5.65699">
        <ele>523.2</ele>
        <time>2022-05-21T11:52:35Z</time>
      </trkpt>
      <trkpt lat="46.63636" lon="5.6571">
        <ele>524.4</ele>
        <time>2022-05-21T11:52:37Z</time>
      </trkpt>
      <trkpt lat="46.63639" lon="5.6572">
        <ele>525.6</ele>
        <time>2022-05-21T11:52:39Z</time>
      </trkpt>
      <trkpt lat="46.6364" lon="5.65725">
        <ele>526</ele>
        <time>2022-05-21T11:52:40Z</time>
      </trkpt>
      <trkpt lat="46.63641" lon="5.65731">
        <ele>526.4</ele>
        <time>2022-05-21T11:52:41Z</time>
      </trkpt>
      <trkpt lat="46.63641" lon="5.65738">
        <ele>526.8</ele>
        <time>2022-05-21T11:52:42Z</time>
      </trkpt>
      <trkpt lat="46.63642" lon="5.65759">
        <ele>527.8</ele>
        <time>2022-05-21T11:52:45Z</time>
      </trkpt>
      <trkpt lat="46.63642" lon="5.65766">
        <ele>528</ele>
        <time>2022-05-21T11:52:46Z</time>
      </trkpt>
      <trkpt lat="46.63645" lon="5.65807">
        <ele>528.6</ele>
        <time>2022-05-21T11:52:51Z</time>
      </trkpt>
      <trkpt lat="46.6365" lon="5.65833">
        <ele>528.6</ele>
        <time>2022-05-21T11:52:54Z</time>
      </trkpt>
      <trkpt lat="46.63652" lon="5.65842">
        <ele>528.6</ele>
        <time>2022-05-21T11:52:55Z</time>
      </trkpt>
      <trkpt lat="46.63655" lon="5.65851">
        <ele>528.6</ele>
        <time>2022-05-21T11:52:56Z</time>
      </trkpt>
      <trkpt lat="46.63659" lon="5.65859">
        <ele>528.2</ele>
        <time>2022-05-21T11:52:57Z</time>
      </trkpt>
      <trkpt lat="46.63664" lon="5.65867">
        <ele>528.2</ele>
        <time>2022-05-21T11:52:58Z</time>
      </trkpt>
      <trkpt lat="46.63679" lon="5.65884">
        <ele>528</ele>
        <time>2022-05-21T11:53:01Z</time>
      </trkpt>
      <trkpt lat="46.63724" lon="5.65936">
        <ele>528.4</ele>
        <time>2022-05-21T11:53:10Z</time>
      </trkpt>
      <trkpt lat="46.6374" lon="5.6597">
        <ele>528.4</ele>
        <time>2022-05-21T11:53:14Z</time>
      </trkpt>
      <trkpt lat="46.6375" lon="5.65985">
        <ele>528.2</ele>
        <time>2022-05-21T11:53:16Z</time>
      </trkpt>
      <trkpt lat="46.63763" lon="5.65996">
        <ele>527.8</ele>
        <time>2022-05-21T11:53:18Z</time>
      </trkpt>
      <trkpt lat="46.63779" lon="5.6601">
        <ele>526.8</ele>
        <time>2022-05-21T11:53:20Z</time>
      </trkpt>
      <trkpt lat="46.63786" lon="5.66017">
        <ele>526.4</ele>
        <time>2022-05-21T11:53:21Z</time>
      </trkpt>
      <trkpt lat="46.63794" lon="5.66026">
        <ele>526.2</ele>
        <time>2022-05-21T11:53:22Z</time>
      </trkpt>
      <trkpt lat="46.63808" lon="5.66046">
        <ele>525.2</ele>
        <time>2022-05-21T11:53:24Z</time>
      </trkpt>
      <trkpt lat="46.63832" lon="5.66072">
        <ele>524</ele>
        <time>2022-05-21T11:53:27Z</time>
      </trkpt>
      <trkpt lat="46.63864" lon="5.66104">
        <ele>523.2</ele>
        <time>2022-05-21T11:53:31Z</time>
      </trkpt>
      <trkpt lat="46.63874" lon="5.6611">
        <ele>522.8</ele>
        <time>2022-05-21T11:53:32Z</time>
      </trkpt>
      <trkpt lat="46.63883" lon="5.66115">
        <ele>522.6</ele>
        <time>2022-05-21T11:53:33Z</time>
      </trkpt>
      <trkpt lat="46.63919" lon="5.66137">
        <ele>521.8</ele>
        <time>2022-05-21T11:53:37Z</time>
      </trkpt>
      <trkpt lat="46.63935" lon="5.66152">
        <ele>521.4</ele>
        <time>2022-05-21T11:53:39Z</time>
      </trkpt>
      <trkpt lat="46.63955" lon="5.66183">
        <ele>520.8</ele>
        <time>2022-05-21T11:53:42Z</time>
      </trkpt>
      <trkpt lat="46.63961" lon="5.66195">
        <ele>520.4</ele>
        <time>2022-05-21T11:53:43Z</time>
      </trkpt>
      <trkpt lat="46.63972" lon="5.66218">
        <ele>520</ele>
        <time>2022-05-21T11:53:45Z</time>
      </trkpt>
      <trkpt lat="46.63978" lon="5.66227">
        <ele>519.8</ele>
        <time>2022-05-21T11:53:46Z</time>
      </trkpt>
      <trkpt lat="46.63985" lon="5.66236">
        <ele>519.6</ele>
        <time>2022-05-21T11:53:47Z</time>
      </trkpt>
      <trkpt lat="46.63993" lon="5.66243">
        <ele>519.4</ele>
        <time>2022-05-21T11:53:48Z</time>
      </trkpt>
      <trkpt lat="46.64007" lon="5.66254">
        <ele>519</ele>
        <time>2022-05-21T11:53:50Z</time>
      </trkpt>
      <trkpt lat="46.64049" lon="5.66277">
        <ele>519.8</ele>
        <time>2022-05-21T11:53:56Z</time>
      </trkpt>
      <trkpt lat="46.64067" lon="5.66288">
        <ele>521.4</ele>
        <time>2022-05-21T11:53:59Z</time>
      </trkpt>
      <trkpt lat="46.64077" lon="5.66296">
        <ele>522</ele>
        <time>2022-05-21T11:54:01Z</time>
      </trkpt>
      <trkpt lat="46.64083" lon="5.66301">
        <ele>522.2</ele>
        <time>2022-05-21T11:54:02Z</time>
      </trkpt>
      <trkpt lat="46.64091" lon="5.66313">
        <ele>522.6</ele>
        <time>2022-05-21T11:54:04Z</time>
      </trkpt>
      <trkpt lat="46.64095" lon="5.6632">
        <ele>522.8</ele>
        <time>2022-05-21T11:54:05Z</time>
      </trkpt>
      <trkpt lat="46.64097" lon="5.66328">
        <ele>523.2</ele>
        <time>2022-05-21T11:54:06Z</time>
      </trkpt>
      <trkpt lat="46.64099" lon="5.66336">
        <ele>524</ele>
        <time>2022-05-21T11:54:07Z</time>
      </trkpt>
      <trkpt lat="46.64103" lon="5.66355">
        <ele>524.4</ele>
        <time>2022-05-21T11:54:09Z</time>
      </trkpt>
      <trkpt lat="46.64108" lon="5.66394">
        <ele>525</ele>
        <time>2022-05-21T11:54:13Z</time>
      </trkpt>
      <trkpt lat="46.64114" lon="5.66433">
        <ele>525.2</ele>
        <time>2022-05-21T11:54:17Z</time>
      </trkpt>
      <trkpt lat="46.64123" lon="5.66501">
        <ele>525</ele>
        <time>2022-05-21T11:54:24Z</time>
      </trkpt>
      <trkpt lat="46.64136" lon="5.66586">
        <ele>524.8</ele>
        <time>2022-05-21T11:54:32Z</time>
      </trkpt>
      <trkpt lat="46.64148" lon="5.66665">
        <ele>524</ele>
        <time>2022-05-21T11:54:39Z</time>
      </trkpt>
      <trkpt lat="46.64149" lon="5.66676">
        <ele>524</ele>
        <time>2022-05-21T11:54:40Z</time>
      </trkpt>
      <trkpt lat="46.64153" lon="5.66699">
        <ele>523.8</ele>
        <time>2022-05-21T11:54:42Z</time>
      </trkpt>
      <trkpt lat="46.64165" lon="5.66782">
        <ele>522.6</ele>
        <time>2022-05-21T11:54:49Z</time>
      </trkpt>
      <trkpt lat="46.64167" lon="5.66793">
        <ele>522.6</ele>
        <time>2022-05-21T11:54:50Z</time>
      </trkpt>
      <trkpt lat="46.64181" lon="5.66879">
        <ele>521.6</ele>
        <time>2022-05-21T11:54:57Z</time>
      </trkpt>
      <trkpt lat="46.64185" lon="5.66905">
        <ele>521.2</ele>
        <time>2022-05-21T11:54:59Z</time>
      </trkpt>
      <trkpt lat="46.64193" lon="5.66961">
        <ele>520</ele>
        <time>2022-05-21T11:55:03Z</time>
      </trkpt>
      <trkpt lat="46.64195" lon="5.66976">
        <ele>519.8</ele>
        <time>2022-05-21T11:55:04Z</time>
      </trkpt>
      <trkpt lat="46.64202" lon="5.67005">
        <ele>518.8</ele>
        <time>2022-05-21T11:55:06Z</time>
      </trkpt>
      <trkpt lat="46.64207" lon="5.67019">
        <ele>518.6</ele>
        <time>2022-05-21T11:55:07Z</time>
      </trkpt>
      <trkpt lat="46.64213" lon="5.67033">
        <ele>518</ele>
        <time>2022-05-21T11:55:08Z</time>
      </trkpt>
      <trkpt lat="46.6422" lon="5.67046">
        <ele>517.4</ele>
        <time>2022-05-21T11:55:09Z</time>
      </trkpt>
      <trkpt lat="46.64241" lon="5.67086">
        <ele>515.4</ele>
        <time>2022-05-21T11:55:12Z</time>
      </trkpt>
      <trkpt lat="46.64249" lon="5.67099">
        <ele>515</ele>
        <time>2022-05-21T11:55:13Z</time>
      </trkpt>
      <trkpt lat="46.64263" lon="5.67124">
        <ele>513.8</ele>
        <time>2022-05-21T11:55:15Z</time>
      </trkpt>
      <trkpt lat="46.64276" lon="5.67149">
        <ele>512.6</ele>
        <time>2022-05-21T11:55:17Z</time>
      </trkpt>
      <trkpt lat="46.64293" lon="5.67185">
        <ele>511.6</ele>
        <time>2022-05-21T11:55:20Z</time>
      </trkpt>
      <trkpt lat="46.64298" lon="5.67196">
        <ele>511.2</ele>
        <time>2022-05-21T11:55:21Z</time>
      </trkpt>
      <trkpt lat="46.64318" lon="5.67226">
        <ele>510.6</ele>
        <time>2022-05-21T11:55:24Z</time>
      </trkpt>
      <trkpt lat="46.64323" lon="5.67236">
        <ele>510.6</ele>
        <time>2022-05-21T11:55:25Z</time>
      </trkpt>
      <trkpt lat="46.64344" lon="5.67276">
        <ele>510.4</ele>
        <time>2022-05-21T11:55:29Z</time>
      </trkpt>
      <trkpt lat="46.64372" lon="5.67327">
        <ele>511</ele>
        <time>2022-05-21T11:55:35Z</time>
      </trkpt>
      <trkpt lat="46.64383" lon="5.67342">
        <ele>511.2</ele>
        <time>2022-05-21T11:55:37Z</time>
      </trkpt>
      <trkpt lat="46.64396" lon="5.67355">
        <ele>511.6</ele>
        <time>2022-05-21T11:55:39Z</time>
      </trkpt>
      <trkpt lat="46.64403" lon="5.6736">
        <ele>511.8</ele>
        <time>2022-05-21T11:55:40Z</time>
      </trkpt>
      <trkpt lat="46.64442" lon="5.67379">
        <ele>511.4</ele>
        <time>2022-05-21T11:55:45Z</time>
      </trkpt>
      <trkpt lat="46.64477" lon="5.67396">
        <ele>510.2</ele>
        <time>2022-05-21T11:55:49Z</time>
      </trkpt>
      <trkpt lat="46.64494" lon="5.67403">
        <ele>510</ele>
        <time>2022-05-21T11:55:51Z</time>
      </trkpt>
      <trkpt lat="46.64549" lon="5.6743">
        <ele>509.8</ele>
        <time>2022-05-21T11:55:58Z</time>
      </trkpt>
      <trkpt lat="46.64564" lon="5.67438">
        <ele>510</ele>
        <time>2022-05-21T11:56:00Z</time>
      </trkpt>
      <trkpt lat="46.64599" lon="5.67467">
        <ele>510</ele>
        <time>2022-05-21T11:56:05Z</time>
      </trkpt>
      <trkpt lat="46.64641" lon="5.67519">
        <ele>510</ele>
        <time>2022-05-21T11:56:12Z</time>
      </trkpt>
      <trkpt lat="46.64654" lon="5.67533">
        <ele>510</ele>
        <time>2022-05-21T11:56:14Z</time>
      </trkpt>
      <trkpt lat="46.647" lon="5.67586">
        <ele>510</ele>
        <time>2022-05-21T11:56:21Z</time>
      </trkpt>
      <trkpt lat="46.64712" lon="5.676">
        <ele>509.6</ele>
        <time>2022-05-21T11:56:23Z</time>
      </trkpt>
      <trkpt lat="46.64724" lon="5.67615">
        <ele>509.2</ele>
        <time>2022-05-21T11:56:25Z</time>
      </trkpt>
      <trkpt lat="46.6475" lon="5.67642">
        <ele>508.8</ele>
        <time>2022-05-21T11:56:29Z</time>
      </trkpt>
      <trkpt lat="46.64801" lon="5.67683">
        <ele>508.4</ele>
        <time>2022-05-21T11:56:37Z</time>
      </trkpt>
      <trkpt lat="46.64848" lon="5.67737">
        <ele>508.4</ele>
        <time>2022-05-21T11:56:45Z</time>
      </trkpt>
      <trkpt lat="46.64871" lon="5.67763">
        <ele>508.2</ele>
        <time>2022-05-21T11:56:49Z</time>
      </trkpt>
      <trkpt lat="46.6489" lon="5.67782">
        <ele>508.2</ele>
        <time>2022-05-21T11:56:52Z</time>
      </trkpt>
      <trkpt lat="46.64939" lon="5.67832">
        <ele>508.4</ele>
        <time>2022-05-21T11:57:00Z</time>
      </trkpt>
      <trkpt lat="46.64979" lon="5.67872">
        <ele>509</ele>
        <time>2022-05-21T11:57:07Z</time>
      </trkpt>
      <trkpt lat="46.65025" lon="5.67911">
        <ele>508.8</ele>
        <time>2022-05-21T11:57:15Z</time>
      </trkpt>
      <trkpt lat="46.65072" lon="5.6794">
        <ele>509.4</ele>
        <time>2022-05-21T11:57:23Z</time>
      </trkpt>
      <trkpt lat="46.65078" lon="5.67942">
        <ele>509.4</ele>
        <time>2022-05-21T11:57:24Z</time>
      </trkpt>
      <trkpt lat="46.6512" lon="5.67969">
        <ele>509.8</ele>
        <time>2022-05-21T11:57:31Z</time>
      </trkpt>
      <trkpt lat="46.65152" lon="5.67996">
        <ele>509.8</ele>
        <time>2022-05-21T11:57:37Z</time>
      </trkpt>
      <trkpt lat="46.65156" lon="5.68">
        <ele>510</ele>
        <time>2022-05-21T11:57:38Z</time>
      </trkpt>
      <trkpt lat="46.65166" lon="5.68006">
        <ele>510.4</ele>
        <time>2022-05-21T11:57:40Z</time>
      </trkpt>
      <trkpt lat="46.65171" lon="5.68011">
        <ele>510.6</ele>
        <time>2022-05-21T11:57:41Z</time>
      </trkpt>
      <trkpt lat="46.65181" lon="5.68019">
        <ele>511.2</ele>
        <time>2022-05-21T11:57:43Z</time>
      </trkpt>
      <trkpt lat="46.65186" lon="5.68024">
        <ele>511.2</ele>
        <time>2022-05-21T11:57:44Z</time>
      </trkpt>
      <trkpt lat="46.65195" lon="5.68033">
        <ele>511.8</ele>
        <time>2022-05-21T11:57:46Z</time>
      </trkpt>
      <trkpt lat="46.65225" lon="5.68061">
        <ele>512.6</ele>
        <time>2022-05-21T11:57:52Z</time>
      </trkpt>
      <trkpt lat="46.65239" lon="5.68077">
        <ele>512.8</ele>
        <time>2022-05-21T11:57:55Z</time>
      </trkpt>
      <trkpt lat="46.65254" lon="5.68094">
        <ele>512.8</ele>
        <time>2022-05-21T11:57:58Z</time>
      </trkpt>
      <trkpt lat="46.65258" lon="5.68101">
        <ele>512.8</ele>
        <time>2022-05-21T11:57:59Z</time>
      </trkpt>
      <trkpt lat="46.65271" lon="5.68132">
        <ele>512.8</ele>
        <time>2022-05-21T11:58:03Z</time>
      </trkpt>
      <trkpt lat="46.65273" lon="5.68141">
        <ele>512.8</ele>
        <time>2022-05-21T11:58:04Z</time>
      </trkpt>
      <trkpt lat="46.65281" lon="5.68192">
        <ele>513</ele>
        <time>2022-05-21T11:58:10Z</time>
      </trkpt>
      <trkpt lat="46.65284" lon="5.68199">
        <ele>513</ele>
        <time>2022-05-21T11:58:11Z</time>
      </trkpt>
      <trkpt lat="46.65288" lon="5.68205">
        <ele>513</ele>
        <time>2022-05-21T11:58:12Z</time>
      </trkpt>
      <trkpt lat="46.65298" lon="5.68213">
        <ele>513</ele>
        <time>2022-05-21T11:58:14Z</time>
      </trkpt>
      <trkpt lat="46.65313" lon="5.68216">
        <ele>513.2</ele>
        <time>2022-05-21T11:58:17Z</time>
      </trkpt>
      <trkpt lat="46.65318" lon="5.68216">
        <ele>513.2</ele>
        <time>2022-05-21T11:58:18Z</time>
      </trkpt>
      <trkpt lat="46.65333" lon="5.68215">
        <ele>514</ele>
        <time>2022-05-21T11:58:21Z</time>
      </trkpt>
      <trkpt lat="46.65346" lon="5.68215">
        <ele>514.8</ele>
        <time>2022-05-21T11:58:24Z</time>
      </trkpt>
      <trkpt lat="46.65351" lon="5.68215">
        <ele>515.2</ele>
        <time>2022-05-21T11:58:25Z</time>
      </trkpt>
      <trkpt lat="46.65358" lon="5.68219">
        <ele>515.6</ele>
        <time>2022-05-21T11:58:27Z</time>
      </trkpt>
      <trkpt lat="46.65362" lon="5.68222">
        <ele>515.6</ele>
        <time>2022-05-21T11:58:28Z</time>
      </trkpt>
      <trkpt lat="46.65365" lon="5.68226">
        <ele>515.8</ele>
        <time>2022-05-21T11:58:29Z</time>
      </trkpt>
      <trkpt lat="46.65368" lon="5.68237">
        <ele>516.4</ele>
        <time>2022-05-21T11:58:31Z</time>
      </trkpt>
      <trkpt lat="46.65369" lon="5.68244">
        <ele>516.6</ele>
        <time>2022-05-21T11:58:32Z</time>
      </trkpt>
      <trkpt lat="46.65367" lon="5.68265">
        <ele>516.8</ele>
        <time>2022-05-21T11:58:35Z</time>
      </trkpt>
      <trkpt lat="46.65366" lon="5.68273">
        <ele>516.8</ele>
        <time>2022-05-21T11:58:36Z</time>
      </trkpt>
      <trkpt lat="46.65365" lon="5.68289">
        <ele>516.8</ele>
        <time>2022-05-21T11:58:38Z</time>
      </trkpt>
      <trkpt lat="46.65365" lon="5.68315">
        <ele>516.6</ele>
        <time>2022-05-21T11:58:41Z</time>
      </trkpt>
      <trkpt lat="46.65363" lon="5.68345">
        <ele>516</ele>
        <time>2022-05-21T11:58:44Z</time>
      </trkpt>
      <trkpt lat="46.65367" lon="5.68365">
        <ele>516</ele>
        <time>2022-05-21T11:58:46Z</time>
      </trkpt>
      <trkpt lat="46.65377" lon="5.6838">
        <ele>515.6</ele>
        <time>2022-05-21T11:58:48Z</time>
      </trkpt>
      <trkpt lat="46.65382" lon="5.68385">
        <ele>515.6</ele>
        <time>2022-05-21T11:58:49Z</time>
      </trkpt>
      <trkpt lat="46.65388" lon="5.68388">
        <ele>515.4</ele>
        <time>2022-05-21T11:58:50Z</time>
      </trkpt>
      <trkpt lat="46.65394" lon="5.68391">
        <ele>515.4</ele>
        <time>2022-05-21T11:58:51Z</time>
      </trkpt>
      <trkpt lat="46.65414" lon="5.68401">
        <ele>515.2</ele>
        <time>2022-05-21T11:58:54Z</time>
      </trkpt>
      <trkpt lat="46.6542" lon="5.68404">
        <ele>515</ele>
        <time>2022-05-21T11:58:55Z</time>
      </trkpt>
      <trkpt lat="46.65436" lon="5.6842">
        <ele>515.4</ele>
        <time>2022-05-21T11:58:58Z</time>
      </trkpt>
      <trkpt lat="46.65441" lon="5.68425">
        <ele>515.4</ele>
        <time>2022-05-21T11:58:59Z</time>
      </trkpt>
      <trkpt lat="46.6545" lon="5.68436">
        <ele>515.4</ele>
        <time>2022-05-21T11:59:01Z</time>
      </trkpt>
      <trkpt lat="46.65455" lon="5.6844">
        <ele>515.6</ele>
        <time>2022-05-21T11:59:02Z</time>
      </trkpt>
      <trkpt lat="46.65463" lon="5.68452">
        <ele>516.6</ele>
        <time>2022-05-21T11:59:04Z</time>
      </trkpt>
      <trkpt lat="46.65483" lon="5.68482">
        <ele>517.4</ele>
        <time>2022-05-21T11:59:09Z</time>
      </trkpt>
      <trkpt lat="46.65487" lon="5.68488">
        <ele>517.8</ele>
        <time>2022-05-21T11:59:10Z</time>
      </trkpt>
      <trkpt lat="46.65493" lon="5.68494">
        <ele>517.8</ele>
        <time>2022-05-21T11:59:11Z</time>
      </trkpt>
      <trkpt lat="46.65511" lon="5.68509">
        <ele>517.6</ele>
        <time>2022-05-21T11:59:14Z</time>
      </trkpt>
      <trkpt lat="46.65542" lon="5.68539">
        <ele>517.2</ele>
        <time>2022-05-21T11:59:19Z</time>
      </trkpt>
      <trkpt lat="46.65559" lon="5.68561">
        <ele>516.8</ele>
        <time>2022-05-21T11:59:22Z</time>
      </trkpt>
      <trkpt lat="46.65565" lon="5.68567">
        <ele>516.6</ele>
        <time>2022-05-21T11:59:23Z</time>
      </trkpt>
      <trkpt lat="46.65572" lon="5.68572">
        <ele>516.4</ele>
        <time>2022-05-21T11:59:24Z</time>
      </trkpt>
      <trkpt lat="46.65602" lon="5.68589">
        <ele>515.6</ele>
        <time>2022-05-21T11:59:28Z</time>
      </trkpt>
      <trkpt lat="46.6561" lon="5.68594">
        <ele>515.4</ele>
        <time>2022-05-21T11:59:29Z</time>
      </trkpt>
      <trkpt lat="46.65617" lon="5.68601">
        <ele>515.2</ele>
        <time>2022-05-21T11:59:30Z</time>
      </trkpt>
      <trkpt lat="46.65623" lon="5.68608">
        <ele>515</ele>
        <time>2022-05-21T11:59:31Z</time>
      </trkpt>
      <trkpt lat="46.65636" lon="5.68624">
        <ele>514.4</ele>
        <time>2022-05-21T11:59:33Z</time>
      </trkpt>
      <trkpt lat="46.65649" lon="5.68641">
        <ele>514</ele>
        <time>2022-05-21T11:59:35Z</time>
      </trkpt>
      <trkpt lat="46.65662" lon="5.68655">
        <ele>513.2</ele>
        <time>2022-05-21T11:59:37Z</time>
      </trkpt>
      <trkpt lat="46.65697" lon="5.68685">
        <ele>512.4</ele>
        <time>2022-05-21T11:59:42Z</time>
      </trkpt>
      <trkpt lat="46.65731" lon="5.68703">
        <ele>512.6</ele>
        <time>2022-05-21T11:59:47Z</time>
      </trkpt>
      <trkpt lat="46.65769" lon="5.68713">
        <ele>513.8</ele>
        <time>2022-05-21T11:59:53Z</time>
      </trkpt>
      <trkpt lat="46.65787" lon="5.68717">
        <ele>514.4</ele>
        <time>2022-05-21T11:59:56Z</time>
      </trkpt>
      <trkpt lat="46.6581" lon="5.6872">
        <ele>514.8</ele>
        <time>2022-05-21T12:00:00Z</time>
      </trkpt>
      <trkpt lat="46.65843" lon="5.68722">
        <ele>515</ele>
        <time>2022-05-21T12:00:06Z</time>
      </trkpt>
      <trkpt lat="46.65867" lon="5.68722">
        <ele>515.2</ele>
        <time>2022-05-21T12:00:10Z</time>
      </trkpt>
      <trkpt lat="46.65918" lon="5.68731">
        <ele>514.6</ele>
        <time>2022-05-21T12:00:17Z</time>
      </trkpt>
      <trkpt lat="46.65943" lon="5.6875">
        <ele>514</ele>
        <time>2022-05-21T12:00:21Z</time>
      </trkpt>
      <trkpt lat="46.65954" lon="5.68758">
        <ele>513.8</ele>
        <time>2022-05-21T12:00:23Z</time>
      </trkpt>
      <trkpt lat="46.65972" lon="5.68767">
        <ele>513.8</ele>
        <time>2022-05-21T12:00:26Z</time>
      </trkpt>
      <trkpt lat="46.65991" lon="5.68774">
        <ele>514.6</ele>
        <time>2022-05-21T12:00:29Z</time>
      </trkpt>
      <trkpt lat="46.66003" lon="5.68776">
        <ele>514.8</ele>
        <time>2022-05-21T12:00:31Z</time>
      </trkpt>
      <trkpt lat="46.66032" lon="5.68771">
        <ele>515.4</ele>
        <time>2022-05-21T12:00:36Z</time>
      </trkpt>
      <trkpt lat="46.66045" lon="5.68769">
        <ele>515.6</ele>
        <time>2022-05-21T12:00:38Z</time>
      </trkpt>
      <trkpt lat="46.66058" lon="5.68771">
        <ele>515.8</ele>
        <time>2022-05-21T12:00:40Z</time>
      </trkpt>
      <trkpt lat="46.66065" lon="5.68774">
        <ele>515.8</ele>
        <time>2022-05-21T12:00:41Z</time>
      </trkpt>
      <trkpt lat="46.66071" lon="5.68778">
        <ele>515.8</ele>
        <time>2022-05-21T12:00:42Z</time>
      </trkpt>
      <trkpt lat="46.66088" lon="5.68794">
        <ele>515.8</ele>
        <time>2022-05-21T12:00:45Z</time>
      </trkpt>
      <trkpt lat="46.66114" lon="5.68824">
        <ele>515.6</ele>
        <time>2022-05-21T12:00:49Z</time>
      </trkpt>
      <trkpt lat="46.66128" lon="5.68845">
        <ele>516</ele>
        <time>2022-05-21T12:00:53Z</time>
      </trkpt>
      <trkpt lat="46.6614" lon="5.68865">
        <ele>516</ele>
        <time>2022-05-21T12:00:55Z</time>
      </trkpt>
      <trkpt lat="46.66154" lon="5.68883">
        <ele>516.4</ele>
        <time>2022-05-21T12:00:59Z</time>
      </trkpt>
      <trkpt lat="46.66171" lon="5.68897">
        <ele>516.4</ele>
        <time>2022-05-21T12:01:01Z</time>
      </trkpt>
      <trkpt lat="46.66195" lon="5.68912">
        <ele>516.4</ele>
        <time>2022-05-21T12:01:05Z</time>
      </trkpt>
      <trkpt lat="46.66222" lon="5.68933">
        <ele>516.8</ele>
        <time>2022-05-21T12:01:10Z</time>
      </trkpt>
      <trkpt lat="46.66227" lon="5.68938">
        <ele>517</ele>
        <time>2022-05-21T12:01:11Z</time>
      </trkpt>
      <trkpt lat="46.66248" lon="5.68955">
        <ele>518</ele>
        <time>2022-05-21T12:01:15Z</time>
      </trkpt>
      <trkpt lat="46.66263" lon="5.68968">
        <ele>518.2</ele>
        <time>2022-05-21T12:01:18Z</time>
      </trkpt>
      <trkpt lat="46.66267" lon="5.68973">
        <ele>518.6</ele>
        <time>2022-05-21T12:01:19Z</time>
      </trkpt>
      <trkpt lat="46.66286" lon="5.68996">
        <ele>519.2</ele>
        <time>2022-05-21T12:01:23Z</time>
      </trkpt>
      <trkpt lat="46.6631" lon="5.69028">
        <ele>520.2</ele>
        <time>2022-05-21T12:01:28Z</time>
      </trkpt>
      <trkpt lat="46.66334" lon="5.6906">
        <ele>520</ele>
        <time>2022-05-21T12:01:33Z</time>
      </trkpt>
      <trkpt lat="46.66374" lon="5.69105">
        <ele>519.6</ele>
        <time>2022-05-21T12:01:40Z</time>
      </trkpt>
      <trkpt lat="46.66398" lon="5.69136">
        <ele>519</ele>
        <time>2022-05-21T12:01:45Z</time>
      </trkpt>
      <trkpt lat="46.66414" lon="5.69159">
        <ele>518.2</ele>
        <time>2022-05-21T12:01:47Z</time>
      </trkpt>
      <trkpt lat="46.66414" lon="5.69159">
        <ele>518.2</ele>
        <time>2022-05-21T12:01:48Z</time>
      </trkpt>
      <trkpt lat="46.66431" lon="5.69193">
        <ele>518</ele>
        <time>2022-05-21T12:01:52Z</time>
      </trkpt>
      <trkpt lat="46.66447" lon="5.69226">
        <ele>518.2</ele>
        <time>2022-05-21T12:01:55Z</time>
      </trkpt>
      <trkpt lat="46.66483" lon="5.69289">
        <ele>518.6</ele>
        <time>2022-05-21T12:02:03Z</time>
      </trkpt>
      <trkpt lat="46.66525" lon="5.69348">
        <ele>519</ele>
        <time>2022-05-21T12:02:11Z</time>
      </trkpt>
      <trkpt lat="46.66548" lon="5.69379">
        <ele>519.2</ele>
        <time>2022-05-21T12:02:15Z</time>
      </trkpt>
      <trkpt lat="46.66587" lon="5.69439">
        <ele>518.2</ele>
        <time>2022-05-21T12:02:22Z</time>
      </trkpt>
      <trkpt lat="46.66592" lon="5.69448">
        <ele>518</ele>
        <time>2022-05-21T12:02:23Z</time>
      </trkpt>
      <trkpt lat="46.66625" lon="5.69506">
        <ele>517.4</ele>
        <time>2022-05-21T12:02:30Z</time>
      </trkpt>
      <trkpt lat="46.66647" lon="5.6953">
        <ele>517.4</ele>
        <time>2022-05-21T12:02:34Z</time>
      </trkpt>
      <trkpt lat="46.66659" lon="5.6954">
        <ele>517.6</ele>
        <time>2022-05-21T12:02:36Z</time>
      </trkpt>
      <trkpt lat="46.66705" lon="5.69573">
        <ele>518.2</ele>
        <time>2022-05-21T12:02:43Z</time>
      </trkpt>
      <trkpt lat="46.66733" lon="5.69601">
        <ele>518.2</ele>
        <time>2022-05-21T12:02:48Z</time>
      </trkpt>
      <trkpt lat="46.6675" lon="5.69619">
        <ele>519</ele>
        <time>2022-05-21T12:02:52Z</time>
      </trkpt>
      <trkpt lat="46.66753" lon="5.69624">
        <ele>519.6</ele>
        <time>2022-05-21T12:02:53Z</time>
      </trkpt>
      <trkpt lat="46.66756" lon="5.69629">
        <ele>519.8</ele>
        <time>2022-05-21T12:02:54Z</time>
      </trkpt>
      <trkpt lat="46.66757" lon="5.69642">
        <ele>520.6</ele>
        <time>2022-05-21T12:02:56Z</time>
      </trkpt>
      <trkpt lat="46.66756" lon="5.69649">
        <ele>520.8</ele>
        <time>2022-05-21T12:02:57Z</time>
      </trkpt>
      <trkpt lat="46.66751" lon="5.69669">
        <ele>522.2</ele>
        <time>2022-05-21T12:03:00Z</time>
      </trkpt>
      <trkpt lat="46.6675" lon="5.69677">
        <ele>522.4</ele>
        <time>2022-05-21T12:03:01Z</time>
      </trkpt>
      <trkpt lat="46.66742" lon="5.69732">
        <ele>523.2</ele>
        <time>2022-05-21T12:03:08Z</time>
      </trkpt>
      <trkpt lat="46.6674" lon="5.69749">
        <ele>523.6</ele>
        <time>2022-05-21T12:03:10Z</time>
      </trkpt>
      <trkpt lat="46.66735" lon="5.69788">
        <ele>524.4</ele>
        <time>2022-05-21T12:03:16Z</time>
      </trkpt>
      <trkpt lat="46.66731" lon="5.69811">
        <ele>524.6</ele>
        <time>2022-05-21T12:03:18Z</time>
      </trkpt>
      <trkpt lat="46.66725" lon="5.69849">
        <ele>525.4</ele>
        <time>2022-05-21T12:03:23Z</time>
      </trkpt>
      <trkpt lat="46.66721" lon="5.69871">
        <ele>526</ele>
        <time>2022-05-21T12:03:26Z</time>
      </trkpt>
      <trkpt lat="46.66716" lon="5.699">
        <ele>526.8</ele>
        <time>2022-05-21T12:03:30Z</time>
      </trkpt>
      <trkpt lat="46.66713" lon="5.69922">
        <ele>527.4</ele>
        <time>2022-05-21T12:03:33Z</time>
      </trkpt>
      <trkpt lat="46.66713" lon="5.69937">
        <ele>527.8</ele>
        <time>2022-05-21T12:03:35Z</time>
      </trkpt>
      <trkpt lat="46.66713" lon="5.69944">
        <ele>527.8</ele>
        <time>2022-05-21T12:03:36Z</time>
      </trkpt>
      <trkpt lat="46.66712" lon="5.69965">
        <ele>528</ele>
        <time>2022-05-21T12:03:39Z</time>
      </trkpt>
      <trkpt lat="46.66713" lon="5.69995">
        <ele>528.8</ele>
        <time>2022-05-21T12:03:43Z</time>
      </trkpt>
      <trkpt lat="46.66715" lon="5.70016">
        <ele>529.2</ele>
        <time>2022-05-21T12:03:46Z</time>
      </trkpt>
      <trkpt lat="46.6672" lon="5.70052">
        <ele>530</ele>
        <time>2022-05-21T12:03:51Z</time>
      </trkpt>
      <trkpt lat="46.66723" lon="5.70066">
        <ele>530</ele>
        <time>2022-05-21T12:03:53Z</time>
      </trkpt>
      <trkpt lat="46.66729" lon="5.70087">
        <ele>530.8</ele>
        <time>2022-05-21T12:03:56Z</time>
      </trkpt>
      <trkpt lat="46.66734" lon="5.701">
        <ele>531.2</ele>
        <time>2022-05-21T12:03:58Z</time>
      </trkpt>
      <trkpt lat="46.66739" lon="5.70112">
        <ele>531.6</ele>
        <time>2022-05-21T12:04:00Z</time>
      </trkpt>
      <trkpt lat="46.66754" lon="5.70142">
        <ele>532.4</ele>
        <time>2022-05-21T12:04:05Z</time>
      </trkpt>
      <trkpt lat="46.66761" lon="5.7016">
        <ele>533</ele>
        <time>2022-05-21T12:04:08Z</time>
      </trkpt>
      <trkpt lat="46.66766" lon="5.70171">
        <ele>533.4</ele>
        <time>2022-05-21T12:04:10Z</time>
      </trkpt>
      <trkpt lat="46.66783" lon="5.702">
        <ele>534</ele>
        <time>2022-05-21T12:04:15Z</time>
      </trkpt>
      <trkpt lat="46.66786" lon="5.70206">
        <ele>534</ele>
        <time>2022-05-21T12:04:16Z</time>
      </trkpt>
      <trkpt lat="46.66793" lon="5.70217">
        <ele>534.6</ele>
        <time>2022-05-21T12:04:18Z</time>
      </trkpt>
      <trkpt lat="46.66812" lon="5.70242">
        <ele>535.4</ele>
        <time>2022-05-21T12:04:23Z</time>
      </trkpt>
      <trkpt lat="46.66816" lon="5.70247">
        <ele>535.8</ele>
        <time>2022-05-21T12:04:24Z</time>
      </trkpt>
      <trkpt lat="46.66837" lon="5.70269">
        <ele>536.8</ele>
        <time>2022-05-21T12:04:29Z</time>
      </trkpt>
      <trkpt lat="46.66853" lon="5.70285">
        <ele>537.6</ele>
        <time>2022-05-21T12:04:33Z</time>
      </trkpt>
      <trkpt lat="46.66857" lon="5.70289">
        <ele>538</ele>
        <time>2022-05-21T12:04:34Z</time>
      </trkpt>
      <trkpt lat="46.66882" lon="5.70315">
        <ele>539.2</ele>
        <time>2022-05-21T12:04:40Z</time>
      </trkpt>
      <trkpt lat="46.66886" lon="5.70319">
        <ele>539.4</ele>
        <time>2022-05-21T12:04:41Z</time>
      </trkpt>
      <trkpt lat="46.66905" lon="5.70342">
        <ele>540.2</ele>
        <time>2022-05-21T12:04:46Z</time>
      </trkpt>
      <trkpt lat="46.66909" lon="5.70347">
        <ele>540.2</ele>
        <time>2022-05-21T12:04:47Z</time>
      </trkpt>
      <trkpt lat="46.66913" lon="5.70351">
        <ele>540.4</ele>
        <time>2022-05-21T12:04:48Z</time>
      </trkpt>
      <trkpt lat="46.66916" lon="5.70357">
        <ele>540.6</ele>
        <time>2022-05-21T12:04:49Z</time>
      </trkpt>
      <trkpt lat="46.66929" lon="5.70379">
        <ele>540.8</ele>
        <time>2022-05-21T12:04:53Z</time>
      </trkpt>
      <trkpt lat="46.66932" lon="5.70385">
        <ele>541</ele>
        <time>2022-05-21T12:04:54Z</time>
      </trkpt>
      <trkpt lat="46.66935" lon="5.7039">
        <ele>541.4</ele>
        <time>2022-05-21T12:04:55Z</time>
      </trkpt>
      <trkpt lat="46.66942" lon="5.70402">
        <ele>541.6</ele>
        <time>2022-05-21T12:04:57Z</time>
      </trkpt>
      <trkpt lat="46.66945" lon="5.70408">
        <ele>541.6</ele>
        <time>2022-05-21T12:04:58Z</time>
      </trkpt>
      <trkpt lat="46.66947" lon="5.70414">
        <ele>541.8</ele>
        <time>2022-05-21T12:04:59Z</time>
      </trkpt>
      <trkpt lat="46.66954" lon="5.70433">
        <ele>542.4</ele>
        <time>2022-05-21T12:05:02Z</time>
      </trkpt>
      <trkpt lat="46.66956" lon="5.7044">
        <ele>542.6</ele>
        <time>2022-05-21T12:05:03Z</time>
      </trkpt>
      <trkpt lat="46.66958" lon="5.70446">
        <ele>543</ele>
        <time>2022-05-21T12:05:04Z</time>
      </trkpt>
      <trkpt lat="46.66961" lon="5.70459">
        <ele>543.4</ele>
        <time>2022-05-21T12:05:06Z</time>
      </trkpt>
      <trkpt lat="46.66961" lon="5.70472">
        <ele>543.6</ele>
        <time>2022-05-21T12:05:08Z</time>
      </trkpt>
      <trkpt lat="46.66965" lon="5.70484">
        <ele>544.2</ele>
        <time>2022-05-21T12:05:10Z</time>
      </trkpt>
      <trkpt lat="46.66966" lon="5.7049">
        <ele>544.4</ele>
        <time>2022-05-21T12:05:11Z</time>
      </trkpt>
      <trkpt lat="46.66968" lon="5.70496">
        <ele>544.6</ele>
        <time>2022-05-21T12:05:12Z</time>
      </trkpt>
      <trkpt lat="46.66971" lon="5.70503">
        <ele>545</ele>
        <time>2022-05-21T12:05:13Z</time>
      </trkpt>
      <trkpt lat="46.66975" lon="5.70516">
        <ele>545.4</ele>
        <time>2022-05-21T12:05:15Z</time>
      </trkpt>
      <trkpt lat="46.66979" lon="5.70528">
        <ele>545.8</ele>
        <time>2022-05-21T12:05:17Z</time>
      </trkpt>
      <trkpt lat="46.66982" lon="5.70534">
        <ele>546</ele>
        <time>2022-05-21T12:05:18Z</time>
      </trkpt>
      <trkpt lat="46.66986" lon="5.70545">
        <ele>546.2</ele>
        <time>2022-05-21T12:05:20Z</time>
      </trkpt>
      <trkpt lat="46.66991" lon="5.70557">
        <ele>546.6</ele>
        <time>2022-05-21T12:05:22Z</time>
      </trkpt>
      <trkpt lat="46.66993" lon="5.70563">
        <ele>547</ele>
        <time>2022-05-21T12:05:23Z</time>
      </trkpt>
      <trkpt lat="46.66995" lon="5.7057">
        <ele>547.2</ele>
        <time>2022-05-21T12:05:24Z</time>
      </trkpt>
      <trkpt lat="46.66999" lon="5.70583">
        <ele>547.6</ele>
        <time>2022-05-21T12:05:26Z</time>
      </trkpt>
      <trkpt lat="46.67001" lon="5.7059">
        <ele>547.8</ele>
        <time>2022-05-21T12:05:27Z</time>
      </trkpt>
      <trkpt lat="46.67009" lon="5.70611">
        <ele>548.2</ele>
        <time>2022-05-21T12:05:30Z</time>
      </trkpt>
      <trkpt lat="46.67011" lon="5.70619">
        <ele>548.6</ele>
        <time>2022-05-21T12:05:31Z</time>
      </trkpt>
      <trkpt lat="46.67014" lon="5.70632">
        <ele>549</ele>
        <time>2022-05-21T12:05:33Z</time>
      </trkpt>
      <trkpt lat="46.67014" lon="5.7064">
        <ele>549.2</ele>
        <time>2022-05-21T12:05:34Z</time>
      </trkpt>
      <trkpt lat="46.67019" lon="5.70673">
        <ele>550.2</ele>
        <time>2022-05-21T12:05:39Z</time>
      </trkpt>
      <trkpt lat="46.67022" lon="5.70692">
        <ele>550.6</ele>
        <time>2022-05-21T12:05:42Z</time>
      </trkpt>
      <trkpt lat="46.67025" lon="5.70706">
        <ele>550.8</ele>
        <time>2022-05-21T12:05:44Z</time>
      </trkpt>
      <trkpt lat="46.67026" lon="5.70714">
        <ele>551.2</ele>
        <time>2022-05-21T12:05:45Z</time>
      </trkpt>
      <trkpt lat="46.67027" lon="5.7073">
        <ele>551.6</ele>
        <time>2022-05-21T12:05:47Z</time>
      </trkpt>
      <trkpt lat="46.67024" lon="5.70756">
        <ele>552.4</ele>
        <time>2022-05-21T12:05:50Z</time>
      </trkpt>
      <trkpt lat="46.67024" lon="5.70756">
        <ele>552.6</ele>
        <time>2022-05-21T12:05:51Z</time>
      </trkpt>
      <trkpt lat="46.6702" lon="5.70774">
        <ele>552.8</ele>
        <time>2022-05-21T12:05:52Z</time>
      </trkpt>
      <trkpt lat="46.67014" lon="5.70787">
        <ele>553.2</ele>
        <time>2022-05-21T12:05:54Z</time>
      </trkpt>
      <trkpt lat="46.67005" lon="5.70795">
        <ele>553.4</ele>
        <time>2022-05-21T12:05:56Z</time>
      </trkpt>
      <trkpt lat="46.67001" lon="5.70798">
        <ele>553.6</ele>
        <time>2022-05-21T12:05:57Z</time>
      </trkpt>
      <trkpt lat="46.66996" lon="5.708">
        <ele>553.6</ele>
        <time>2022-05-21T12:05:58Z</time>
      </trkpt>
      <trkpt lat="46.66991" lon="5.70801">
        <ele>553.8</ele>
        <time>2022-05-21T12:05:59Z</time>
      </trkpt>
      <trkpt lat="46.66963" lon="5.70803">
        <ele>554.6</ele>
        <time>2022-05-21T12:06:04Z</time>
      </trkpt>
      <trkpt lat="46.6695" lon="5.70805">
        <ele>554.6</ele>
        <time>2022-05-21T12:06:06Z</time>
      </trkpt>
      <trkpt lat="46.6692" lon="5.70808">
        <ele>554.8</ele>
        <time>2022-05-21T12:06:11Z</time>
      </trkpt>
      <trkpt lat="46.66874" lon="5.70812">
        <ele>554.8</ele>
        <time>2022-05-21T12:06:19Z</time>
      </trkpt>
      <trkpt lat="46.66863" lon="5.70813">
        <ele>554.8</ele>
        <time>2022-05-21T12:06:21Z</time>
      </trkpt>
      <trkpt lat="46.66835" lon="5.70814">
        <ele>555.4</ele>
        <time>2022-05-21T12:06:26Z</time>
      </trkpt>
      <trkpt lat="46.66823" lon="5.70815">
        <ele>556.2</ele>
        <time>2022-05-21T12:06:28Z</time>
      </trkpt>
      <trkpt lat="46.66812" lon="5.70816">
        <ele>556.8</ele>
        <time>2022-05-21T12:06:30Z</time>
      </trkpt>
      <trkpt lat="46.66805" lon="5.70816">
        <ele>556.8</ele>
        <time>2022-05-21T12:06:31Z</time>
      </trkpt>
      <trkpt lat="46.66753" lon="5.7082">
        <ele>556.6</ele>
        <time>2022-05-21T12:06:39Z</time>
      </trkpt>
      <trkpt lat="46.66695" lon="5.70824">
        <ele>556</ele>
        <time>2022-05-21T12:06:47Z</time>
      </trkpt>
      <trkpt lat="46.66688" lon="5.70825">
        <ele>555.6</ele>
        <time>2022-05-21T12:06:48Z</time>
      </trkpt>
      <trkpt lat="46.66644" lon="5.7083">
        <ele>555.2</ele>
        <time>2022-05-21T12:06:54Z</time>
      </trkpt>
      <trkpt lat="46.66598" lon="5.70847">
        <ele>555.2</ele>
        <time>2022-05-21T12:07:01Z</time>
      </trkpt>
      <trkpt lat="46.66557" lon="5.70863">
        <ele>555.8</ele>
        <time>2022-05-21T12:07:08Z</time>
      </trkpt>
      <trkpt lat="46.66524" lon="5.70891">
        <ele>556.6</ele>
        <time>2022-05-21T12:07:14Z</time>
      </trkpt>
      <trkpt lat="46.66519" lon="5.70896">
        <ele>556.6</ele>
        <time>2022-05-21T12:07:15Z</time>
      </trkpt>
      <trkpt lat="46.66509" lon="5.70909">
        <ele>556.8</ele>
        <time>2022-05-21T12:07:17Z</time>
      </trkpt>
      <trkpt lat="46.66493" lon="5.70929">
        <ele>557</ele>
        <time>2022-05-21T12:07:20Z</time>
      </trkpt>
      <trkpt lat="46.66463" lon="5.70965">
        <ele>557</ele>
        <time>2022-05-21T12:07:26Z</time>
      </trkpt>
      <trkpt lat="46.66459" lon="5.7097">
        <ele>557</ele>
        <time>2022-05-21T12:07:27Z</time>
      </trkpt>
      <trkpt lat="46.66415" lon="5.71021">
        <ele>556.4</ele>
        <time>2022-05-21T12:07:35Z</time>
      </trkpt>
      <trkpt lat="46.66392" lon="5.71049">
        <ele>556</ele>
        <time>2022-05-21T12:07:39Z</time>
      </trkpt>
      <trkpt lat="46.66375" lon="5.71069">
        <ele>555.2</ele>
        <time>2022-05-21T12:07:42Z</time>
      </trkpt>
      <trkpt lat="46.66345" lon="5.71107">
        <ele>555</ele>
        <time>2022-05-21T12:07:47Z</time>
      </trkpt>
      <trkpt lat="46.66303" lon="5.7116">
        <ele>554.4</ele>
        <time>2022-05-21T12:07:54Z</time>
      </trkpt>
      <trkpt lat="46.66297" lon="5.71167">
        <ele>554.4</ele>
        <time>2022-05-21T12:07:55Z</time>
      </trkpt>
      <trkpt lat="46.66264" lon="5.71206">
        <ele>554.6</ele>
        <time>2022-05-21T12:08:01Z</time>
      </trkpt>
      <trkpt lat="46.6622" lon="5.7126">
        <ele>555</ele>
        <time>2022-05-21T12:08:09Z</time>
      </trkpt>
      <trkpt lat="46.6618" lon="5.71306">
        <ele>555.2</ele>
        <time>2022-05-21T12:08:16Z</time>
      </trkpt>
      <trkpt lat="46.6617" lon="5.71318">
        <ele>555.6</ele>
        <time>2022-05-21T12:08:18Z</time>
      </trkpt>
      <trkpt lat="46.6615" lon="5.71342">
        <ele>556</ele>
        <time>2022-05-21T12:08:22Z</time>
      </trkpt>
      <trkpt lat="46.66141" lon="5.71353">
        <ele>556.8</ele>
        <time>2022-05-21T12:08:24Z</time>
      </trkpt>
      <trkpt lat="46.66124" lon="5.71375">
        <ele>557.4</ele>
        <time>2022-05-21T12:08:28Z</time>
      </trkpt>
      <trkpt lat="46.66116" lon="5.71385">
        <ele>557.8</ele>
        <time>2022-05-21T12:08:30Z</time>
      </trkpt>
      <trkpt lat="46.66101" lon="5.71406">
        <ele>559</ele>
        <time>2022-05-21T12:08:34Z</time>
      </trkpt>
      <trkpt lat="46.66097" lon="5.71411">
        <ele>559</ele>
        <time>2022-05-21T12:08:35Z</time>
      </trkpt>
      <trkpt lat="46.66091" lon="5.71422">
        <ele>559.2</ele>
        <time>2022-05-21T12:08:37Z</time>
      </trkpt>
      <trkpt lat="46.66077" lon="5.71451">
        <ele>559.6</ele>
        <time>2022-05-21T12:08:42Z</time>
      </trkpt>
      <trkpt lat="46.66076" lon="5.71456">
        <ele>560</ele>
        <time>2022-05-21T12:08:43Z</time>
      </trkpt>
      <trkpt lat="46.66068" lon="5.71485">
        <ele>561.4</ele>
        <time>2022-05-21T12:08:48Z</time>
      </trkpt>
      <trkpt lat="46.66066" lon="5.71497">
        <ele>562</ele>
        <time>2022-05-21T12:08:50Z</time>
      </trkpt>
      <trkpt lat="46.66065" lon="5.71514">
        <ele>562.4</ele>
        <time>2022-05-21T12:08:53Z</time>
      </trkpt>
      <trkpt lat="46.66065" lon="5.71526">
        <ele>563</ele>
        <time>2022-05-21T12:08:55Z</time>
      </trkpt>
      <trkpt lat="46.66065" lon="5.71538">
        <ele>563.6</ele>
        <time>2022-05-21T12:08:57Z</time>
      </trkpt>
      <trkpt lat="46.66066" lon="5.7155">
        <ele>564.6</ele>
        <time>2022-05-21T12:09:00Z</time>
      </trkpt>
      <trkpt lat="46.6607" lon="5.71573">
        <ele>565.6</ele>
        <time>2022-05-21T12:09:03Z</time>
      </trkpt>
      <trkpt lat="46.66071" lon="5.71579">
        <ele>566</ele>
        <time>2022-05-21T12:09:04Z</time>
      </trkpt>
      <trkpt lat="46.66076" lon="5.71599">
        <ele>567.2</ele>
        <time>2022-05-21T12:09:08Z</time>
      </trkpt>
      <trkpt lat="46.66081" lon="5.71619">
        <ele>568.2</ele>
        <time>2022-05-21T12:09:12Z</time>
      </trkpt>
      <trkpt lat="46.66082" lon="5.71624">
        <ele>568.6</ele>
        <time>2022-05-21T12:09:13Z</time>
      </trkpt>
      <trkpt lat="46.66089" lon="5.71647">
        <ele>569.6</ele>
        <time>2022-05-21T12:09:18Z</time>
      </trkpt>
      <trkpt lat="46.66095" lon="5.71671">
        <ele>570.8</ele>
        <time>2022-05-21T12:09:23Z</time>
      </trkpt>
      <trkpt lat="46.66096" lon="5.71676">
        <ele>571</ele>
        <time>2022-05-21T12:09:24Z</time>
      </trkpt>
      <trkpt lat="46.66102" lon="5.71706">
        <ele>572.2</ele>
        <time>2022-05-21T12:09:30Z</time>
      </trkpt>
      <trkpt lat="46.66103" lon="5.71722">
        <ele>572.8</ele>
        <time>2022-05-21T12:09:33Z</time>
      </trkpt>
      <trkpt lat="46.66104" lon="5.71738">
        <ele>573.4</ele>
        <time>2022-05-21T12:09:36Z</time>
      </trkpt>
      <trkpt lat="46.66104" lon="5.71759">
        <ele>574.4</ele>
        <time>2022-05-21T12:09:40Z</time>
      </trkpt>
      <trkpt lat="46.66103" lon="5.71765">
        <ele>574.6</ele>
        <time>2022-05-21T12:09:41Z</time>
      </trkpt>
      <trkpt lat="46.66101" lon="5.71781">
        <ele>575.6</ele>
        <time>2022-05-21T12:09:45Z</time>
      </trkpt>
      <trkpt lat="46.66096" lon="5.718">
        <ele>576.2</ele>
        <time>2022-05-21T12:09:48Z</time>
      </trkpt>
      <trkpt lat="46.66092" lon="5.71813">
        <ele>576.8</ele>
        <time>2022-05-21T12:09:51Z</time>
      </trkpt>
      <trkpt lat="46.66087" lon="5.7183">
        <ele>578</ele>
        <time>2022-05-21T12:09:55Z</time>
      </trkpt>
      <trkpt lat="46.66084" lon="5.7184">
        <ele>578</ele>
        <time>2022-05-21T12:09:57Z</time>
      </trkpt>
      <trkpt lat="46.66078" lon="5.71857">
        <ele>579</ele>
        <time>2022-05-21T12:10:00Z</time>
      </trkpt>
      <trkpt lat="46.66074" lon="5.71869">
        <ele>579.4</ele>
        <time>2022-05-21T12:10:03Z</time>
      </trkpt>
      <trkpt lat="46.66059" lon="5.71908">
        <ele>579.6</ele>
        <time>2022-05-21T12:10:07Z</time>
      </trkpt>
      <trkpt lat="46.6604" lon="5.71964">
        <ele>578.4</ele>
        <time>2022-05-21T12:10:13Z</time>
      </trkpt>
      <trkpt lat="46.66036" lon="5.71975">
        <ele>577.8</ele>
        <time>2022-05-21T12:10:14Z</time>
      </trkpt>
      <trkpt lat="46.66021" lon="5.72016">
        <ele>576.2</ele>
        <time>2022-05-21T12:10:18Z</time>
      </trkpt>
      <trkpt lat="46.66013" lon="5.72038">
        <ele>575.6</ele>
        <time>2022-05-21T12:10:20Z</time>
      </trkpt>
      <trkpt lat="46.66005" lon="5.72061">
        <ele>575.2</ele>
        <time>2022-05-21T12:10:22Z</time>
      </trkpt>
      <trkpt lat="46.65997" lon="5.72085">
        <ele>574.6</ele>
        <time>2022-05-21T12:10:24Z</time>
      </trkpt>
      <trkpt lat="46.65995" lon="5.72098">
        <ele>574</ele>
        <time>2022-05-21T12:10:25Z</time>
      </trkpt>
      <trkpt lat="46.65994" lon="5.72111">
        <ele>573.8</ele>
        <time>2022-05-21T12:10:26Z</time>
      </trkpt>
      <trkpt lat="46.65999" lon="5.72137">
        <ele>572.4</ele>
        <time>2022-05-21T12:10:28Z</time>
      </trkpt>
      <trkpt lat="46.6601" lon="5.7216">
        <ele>571.2</ele>
        <time>2022-05-21T12:10:30Z</time>
      </trkpt>
      <trkpt lat="46.66017" lon="5.72171">
        <ele>571</ele>
        <time>2022-05-21T12:10:31Z</time>
      </trkpt>
      <trkpt lat="46.66039" lon="5.72202">
        <ele>570.4</ele>
        <time>2022-05-21T12:10:34Z</time>
      </trkpt>
      <trkpt lat="46.66046" lon="5.72213">
        <ele>569.8</ele>
        <time>2022-05-21T12:10:35Z</time>
      </trkpt>
      <trkpt lat="46.66053" lon="5.72224">
        <ele>569.6</ele>
        <time>2022-05-21T12:10:36Z</time>
      </trkpt>
      <trkpt lat="46.6606" lon="5.72236">
        <ele>568.4</ele>
        <time>2022-05-21T12:10:37Z</time>
      </trkpt>
      <trkpt lat="46.66074" lon="5.72258">
        <ele>566.6</ele>
        <time>2022-05-21T12:10:39Z</time>
      </trkpt>
      <trkpt lat="46.66091" lon="5.72273">
        <ele>565.2</ele>
        <time>2022-05-21T12:10:41Z</time>
      </trkpt>
      <trkpt lat="46.6611" lon="5.7228">
        <ele>564.4</ele>
        <time>2022-05-21T12:10:43Z</time>
      </trkpt>
      <trkpt lat="46.66121" lon="5.72281">
        <ele>563.6</ele>
        <time>2022-05-21T12:10:44Z</time>
      </trkpt>
      <trkpt lat="46.66152" lon="5.72291">
        <ele>561.8</ele>
        <time>2022-05-21T12:10:47Z</time>
      </trkpt>
      <trkpt lat="46.66162" lon="5.72298">
        <ele>561.6</ele>
        <time>2022-05-21T12:10:48Z</time>
      </trkpt>
      <trkpt lat="46.66171" lon="5.72308">
        <ele>561.2</ele>
        <time>2022-05-21T12:10:49Z</time>
      </trkpt>
      <trkpt lat="46.66188" lon="5.72331">
        <ele>560.6</ele>
        <time>2022-05-21T12:10:51Z</time>
      </trkpt>
      <trkpt lat="46.66213" lon="5.72367">
        <ele>559.4</ele>
        <time>2022-05-21T12:10:54Z</time>
      </trkpt>
      <trkpt lat="46.6623" lon="5.72389">
        <ele>557.8</ele>
        <time>2022-05-21T12:10:56Z</time>
      </trkpt>
      <trkpt lat="46.66247" lon="5.72413">
        <ele>556.6</ele>
        <time>2022-05-21T12:10:58Z</time>
      </trkpt>
      <trkpt lat="46.66263" lon="5.72437">
        <ele>555.6</ele>
        <time>2022-05-21T12:11:00Z</time>
      </trkpt>
      <trkpt lat="46.6627" lon="5.7245">
        <ele>554.8</ele>
        <time>2022-05-21T12:11:01Z</time>
      </trkpt>
      <trkpt lat="46.66289" lon="5.72477">
        <ele>553.6</ele>
        <time>2022-05-21T12:11:03Z</time>
      </trkpt>
      <trkpt lat="46.66296" lon="5.72492">
        <ele>553.2</ele>
        <time>2022-05-21T12:11:04Z</time>
      </trkpt>
      <trkpt lat="46.66302" lon="5.72508">
        <ele>552.4</ele>
        <time>2022-05-21T12:11:05Z</time>
      </trkpt>
      <trkpt lat="46.66313" lon="5.7254">
        <ele>551.2</ele>
        <time>2022-05-21T12:11:07Z</time>
      </trkpt>
      <trkpt lat="46.66317" lon="5.72557">
        <ele>550</ele>
        <time>2022-05-21T12:11:08Z</time>
      </trkpt>
      <trkpt lat="46.6632" lon="5.72575">
        <ele>549.6</ele>
        <time>2022-05-21T12:11:09Z</time>
      </trkpt>
      <trkpt lat="46.66322" lon="5.72594">
        <ele>548.4</ele>
        <time>2022-05-21T12:11:10Z</time>
      </trkpt>
      <trkpt lat="46.6632" lon="5.72632">
        <ele>547</ele>
        <time>2022-05-21T12:11:12Z</time>
      </trkpt>
      <trkpt lat="46.66312" lon="5.72668">
        <ele>546.2</ele>
        <time>2022-05-21T12:11:14Z</time>
      </trkpt>
      <trkpt lat="46.66306" lon="5.72685">
        <ele>545.4</ele>
        <time>2022-05-21T12:11:15Z</time>
      </trkpt>
      <trkpt lat="46.66294" lon="5.72718">
        <ele>543.8</ele>
        <time>2022-05-21T12:11:17Z</time>
      </trkpt>
      <trkpt lat="46.66281" lon="5.7275">
        <ele>542</ele>
        <time>2022-05-21T12:11:19Z</time>
      </trkpt>
      <trkpt lat="46.66273" lon="5.72764">
        <ele>541.8</ele>
        <time>2022-05-21T12:11:20Z</time>
      </trkpt>
      <trkpt lat="46.66264" lon="5.72776">
        <ele>540.6</ele>
        <time>2022-05-21T12:11:21Z</time>
      </trkpt>
      <trkpt lat="46.66254" lon="5.72787">
        <ele>539.4</ele>
        <time>2022-05-21T12:11:22Z</time>
      </trkpt>
      <trkpt lat="46.66243" lon="5.72796">
        <ele>538.8</ele>
        <time>2022-05-21T12:11:23Z</time>
      </trkpt>
      <trkpt lat="46.66231" lon="5.72804">
        <ele>538</ele>
        <time>2022-05-21T12:11:24Z</time>
      </trkpt>
      <trkpt lat="46.66196" lon="5.72825">
        <ele>536.8</ele>
        <time>2022-05-21T12:11:27Z</time>
      </trkpt>
      <trkpt lat="46.66185" lon="5.72831">
        <ele>535.6</ele>
        <time>2022-05-21T12:11:28Z</time>
      </trkpt>
      <trkpt lat="46.66173" lon="5.72837">
        <ele>534.6</ele>
        <time>2022-05-21T12:11:29Z</time>
      </trkpt>
      <trkpt lat="46.66149" lon="5.7285">
        <ele>533.2</ele>
        <time>2022-05-21T12:11:31Z</time>
      </trkpt>
      <trkpt lat="46.66125" lon="5.72862">
        <ele>532</ele>
        <time>2022-05-21T12:11:33Z</time>
      </trkpt>
      <trkpt lat="46.66101" lon="5.72874">
        <ele>530.6</ele>
        <time>2022-05-21T12:11:35Z</time>
      </trkpt>
      <trkpt lat="46.6609" lon="5.72882">
        <ele>530</ele>
        <time>2022-05-21T12:11:36Z</time>
      </trkpt>
      <trkpt lat="46.6607" lon="5.72904">
        <ele>529.2</ele>
        <time>2022-05-21T12:11:38Z</time>
      </trkpt>
      <trkpt lat="46.66061" lon="5.72917">
        <ele>528.8</ele>
        <time>2022-05-21T12:11:39Z</time>
      </trkpt>
      <trkpt lat="46.66053" lon="5.72931">
        <ele>527.8</ele>
        <time>2022-05-21T12:11:40Z</time>
      </trkpt>
      <trkpt lat="46.66034" lon="5.72957">
        <ele>526</ele>
        <time>2022-05-21T12:11:42Z</time>
      </trkpt>
      <trkpt lat="46.66024" lon="5.72969">
        <ele>524.8</ele>
        <time>2022-05-21T12:11:43Z</time>
      </trkpt>
      <trkpt lat="46.66005" lon="5.72991">
        <ele>523.6</ele>
        <time>2022-05-21T12:11:45Z</time>
      </trkpt>
      <trkpt lat="46.65988" lon="5.73014">
        <ele>522.4</ele>
        <time>2022-05-21T12:11:47Z</time>
      </trkpt>
      <trkpt lat="46.6598" lon="5.73025">
        <ele>522.2</ele>
        <time>2022-05-21T12:11:48Z</time>
      </trkpt>
      <trkpt lat="46.65973" lon="5.73035">
        <ele>521.2</ele>
        <time>2022-05-21T12:11:49Z</time>
      </trkpt>
      <trkpt lat="46.65965" lon="5.73042">
        <ele>520.4</ele>
        <time>2022-05-21T12:11:50Z</time>
      </trkpt>
      <trkpt lat="46.65949" lon="5.73053">
        <ele>520</ele>
        <time>2022-05-21T12:11:52Z</time>
      </trkpt>
      <trkpt lat="46.65941" lon="5.73055">
        <ele>519.8</ele>
        <time>2022-05-21T12:11:53Z</time>
      </trkpt>
      <trkpt lat="46.65926" lon="5.73054">
        <ele>519.4</ele>
        <time>2022-05-21T12:11:55Z</time>
      </trkpt>
      <trkpt lat="46.65919" lon="5.7305">
        <ele>519.2</ele>
        <time>2022-05-21T12:11:56Z</time>
      </trkpt>
      <trkpt lat="46.65912" lon="5.73044">
        <ele>519</ele>
        <time>2022-05-21T12:11:57Z</time>
      </trkpt>
      <trkpt lat="46.65901" lon="5.73028">
        <ele>518.4</ele>
        <time>2022-05-21T12:11:59Z</time>
      </trkpt>
      <trkpt lat="46.65886" lon="5.72988">
        <ele>517.8</ele>
        <time>2022-05-21T12:12:03Z</time>
      </trkpt>
      <trkpt lat="46.65869" lon="5.72923">
        <ele>517.2</ele>
        <time>2022-05-21T12:12:09Z</time>
      </trkpt>
      <trkpt lat="46.65856" lon="5.72858">
        <ele>516.8</ele>
        <time>2022-05-21T12:12:15Z</time>
      </trkpt>
      <trkpt lat="46.65841" lon="5.72801">
        <ele>516.4</ele>
        <time>2022-05-21T12:12:20Z</time>
      </trkpt>
      <trkpt lat="46.65837" lon="5.72792">
        <ele>516.4</ele>
        <time>2022-05-21T12:12:21Z</time>
      </trkpt>
      <trkpt lat="46.65831" lon="5.72782">
        <ele>516.2</ele>
        <time>2022-05-21T12:12:22Z</time>
      </trkpt>
      <trkpt lat="46.65819" lon="5.72765">
        <ele>516</ele>
        <time>2022-05-21T12:12:24Z</time>
      </trkpt>
      <trkpt lat="46.65813" lon="5.72753">
        <ele>515.6</ele>
        <time>2022-05-21T12:12:25Z</time>
      </trkpt>
      <trkpt lat="46.65811" lon="5.72745">
        <ele>515</ele>
        <time>2022-05-21T12:12:26Z</time>
      </trkpt>
      <trkpt lat="46.65808" lon="5.72734">
        <ele>514.4</ele>
        <time>2022-05-21T12:12:27Z</time>
      </trkpt>
      <trkpt lat="46.65807" lon="5.72721">
        <ele>514.2</ele>
        <time>2022-05-21T12:12:28Z</time>
      </trkpt>
      <trkpt lat="46.65804" lon="5.72694">
        <ele>513</ele>
        <time>2022-05-21T12:12:30Z</time>
      </trkpt>
      <trkpt lat="46.65801" lon="5.72681">
        <ele>512.2</ele>
        <time>2022-05-21T12:12:31Z</time>
      </trkpt>
      <trkpt lat="46.65796" lon="5.72672">
        <ele>511.6</ele>
        <time>2022-05-21T12:12:32Z</time>
      </trkpt>
      <trkpt lat="46.65788" lon="5.72666">
        <ele>511.4</ele>
        <time>2022-05-21T12:12:33Z</time>
      </trkpt>
      <trkpt lat="46.6578" lon="5.72665">
        <ele>511</ele>
        <time>2022-05-21T12:12:34Z</time>
      </trkpt>
      <trkpt lat="46.65773" lon="5.7267">
        <ele>510.6</ele>
        <time>2022-05-21T12:12:35Z</time>
      </trkpt>
      <trkpt lat="46.6577" lon="5.72682">
        <ele>510</ele>
        <time>2022-05-21T12:12:36Z</time>
      </trkpt>
      <trkpt lat="46.65769" lon="5.72723">
        <ele>509</ele>
        <time>2022-05-21T12:12:39Z</time>
      </trkpt>
      <trkpt lat="46.6577" lon="5.72751">
        <ele>508.8</ele>
        <time>2022-05-21T12:12:41Z</time>
      </trkpt>
      <trkpt lat="46.65776" lon="5.7282">
        <ele>507.6</ele>
        <time>2022-05-21T12:12:46Z</time>
      </trkpt>
      <trkpt lat="46.65777" lon="5.72834">
        <ele>507.4</ele>
        <time>2022-05-21T12:12:47Z</time>
      </trkpt>
      <trkpt lat="46.65782" lon="5.72879">
        <ele>506.4</ele>
        <time>2022-05-21T12:12:50Z</time>
      </trkpt>
      <trkpt lat="46.65785" lon="5.72909">
        <ele>505.6</ele>
        <time>2022-05-21T12:12:52Z</time>
      </trkpt>
      <trkpt lat="46.65786" lon="5.72924">
        <ele>504.6</ele>
        <time>2022-05-21T12:12:53Z</time>
      </trkpt>
      <trkpt lat="46.65792" lon="5.7297">
        <ele>503.6</ele>
        <time>2022-05-21T12:12:56Z</time>
      </trkpt>
      <trkpt lat="46.65797" lon="5.73015">
        <ele>502</ele>
        <time>2022-05-21T12:12:59Z</time>
      </trkpt>
      <trkpt lat="46.65801" lon="5.73046">
        <ele>500.8</ele>
        <time>2022-05-21T12:13:01Z</time>
      </trkpt>
      <trkpt lat="46.65807" lon="5.73093">
        <ele>499</ele>
        <time>2022-05-21T12:13:04Z</time>
      </trkpt>
      <trkpt lat="46.65811" lon="5.73125">
        <ele>497.8</ele>
        <time>2022-05-21T12:13:06Z</time>
      </trkpt>
      <trkpt lat="46.65814" lon="5.73141">
        <ele>497.6</ele>
        <time>2022-05-21T12:13:07Z</time>
      </trkpt>
      <trkpt lat="46.65817" lon="5.73157">
        <ele>496.8</ele>
        <time>2022-05-21T12:13:08Z</time>
      </trkpt>
      <trkpt lat="46.65827" lon="5.73187">
        <ele>495.6</ele>
        <time>2022-05-21T12:13:10Z</time>
      </trkpt>
      <trkpt lat="46.65832" lon="5.73201">
        <ele>495</ele>
        <time>2022-05-21T12:13:11Z</time>
      </trkpt>
      <trkpt lat="46.65839" lon="5.73214">
        <ele>494.6</ele>
        <time>2022-05-21T12:13:12Z</time>
      </trkpt>
      <trkpt lat="46.65847" lon="5.73226">
        <ele>493.8</ele>
        <time>2022-05-21T12:13:13Z</time>
      </trkpt>
      <trkpt lat="46.65856" lon="5.73235">
        <ele>493.4</ele>
        <time>2022-05-21T12:13:14Z</time>
      </trkpt>
      <trkpt lat="46.65866" lon="5.73241">
        <ele>492.6</ele>
        <time>2022-05-21T12:13:15Z</time>
      </trkpt>
      <trkpt lat="46.65877" lon="5.73245">
        <ele>492.2</ele>
        <time>2022-05-21T12:13:16Z</time>
      </trkpt>
      <trkpt lat="46.65887" lon="5.73249">
        <ele>492</ele>
        <time>2022-05-21T12:13:17Z</time>
      </trkpt>
      <trkpt lat="46.65919" lon="5.7326">
        <ele>491.2</ele>
        <time>2022-05-21T12:13:20Z</time>
      </trkpt>
      <trkpt lat="46.65929" lon="5.73266">
        <ele>490.8</ele>
        <time>2022-05-21T12:13:21Z</time>
      </trkpt>
      <trkpt lat="46.65936" lon="5.73277">
        <ele>490.4</ele>
        <time>2022-05-21T12:13:22Z</time>
      </trkpt>
      <trkpt lat="46.6594" lon="5.7329">
        <ele>490</ele>
        <time>2022-05-21T12:13:23Z</time>
      </trkpt>
      <trkpt lat="46.6594" lon="5.73303">
        <ele>489.8</ele>
        <time>2022-05-21T12:13:24Z</time>
      </trkpt>
      <trkpt lat="46.65935" lon="5.73314">
        <ele>488.8</ele>
        <time>2022-05-21T12:13:25Z</time>
      </trkpt>
      <trkpt lat="46.65928" lon="5.73323">
        <ele>488.6</ele>
        <time>2022-05-21T12:13:26Z</time>
      </trkpt>
      <trkpt lat="46.65919" lon="5.73327">
        <ele>488</ele>
        <time>2022-05-21T12:13:27Z</time>
      </trkpt>
      <trkpt lat="46.6591" lon="5.7333">
        <ele>488</ele>
        <time>2022-05-21T12:13:28Z</time>
      </trkpt>
      <trkpt lat="46.659" lon="5.73331">
        <ele>487.4</ele>
        <time>2022-05-21T12:13:29Z</time>
      </trkpt>
      <trkpt lat="46.6588" lon="5.73331">
        <ele>486.4</ele>
        <time>2022-05-21T12:13:31Z</time>
      </trkpt>
      <trkpt lat="46.6587" lon="5.73332">
        <ele>486.2</ele>
        <time>2022-05-21T12:13:32Z</time>
      </trkpt>
      <trkpt lat="46.65818" lon="5.73335">
        <ele>484.2</ele>
        <time>2022-05-21T12:13:37Z</time>
      </trkpt>
      <trkpt lat="46.65797" lon="5.73337">
        <ele>483.2</ele>
        <time>2022-05-21T12:13:39Z</time>
      </trkpt>
      <trkpt lat="46.65765" lon="5.7334">
        <ele>482</ele>
        <time>2022-05-21T12:13:42Z</time>
      </trkpt>
      <trkpt lat="46.65743" lon="5.73342">
        <ele>480.6</ele>
        <time>2022-05-21T12:13:44Z</time>
      </trkpt>
      <trkpt lat="46.65721" lon="5.73344">
        <ele>480</ele>
        <time>2022-05-21T12:13:46Z</time>
      </trkpt>
      <trkpt lat="46.65699" lon="5.73346">
        <ele>479.4</ele>
        <time>2022-05-21T12:13:48Z</time>
      </trkpt>
      <trkpt lat="46.65665" lon="5.73349">
        <ele>478</ele>
        <time>2022-05-21T12:13:51Z</time>
      </trkpt>
      <trkpt lat="46.65631" lon="5.73353">
        <ele>476.6</ele>
        <time>2022-05-21T12:13:54Z</time>
      </trkpt>
      <trkpt lat="46.6562" lon="5.73355">
        <ele>475.8</ele>
        <time>2022-05-21T12:13:55Z</time>
      </trkpt>
      <trkpt lat="46.65608" lon="5.73357">
        <ele>475.4</ele>
        <time>2022-05-21T12:13:56Z</time>
      </trkpt>
      <trkpt lat="46.65587" lon="5.73365">
        <ele>474.4</ele>
        <time>2022-05-21T12:13:58Z</time>
      </trkpt>
      <trkpt lat="46.65566" lon="5.73376">
        <ele>473.2</ele>
        <time>2022-05-21T12:14:00Z</time>
      </trkpt>
      <trkpt lat="46.65556" lon="5.73382">
        <ele>472.8</ele>
        <time>2022-05-21T12:14:01Z</time>
      </trkpt>
      <trkpt lat="46.65538" lon="5.734">
        <ele>472</ele>
        <time>2022-05-21T12:14:03Z</time>
      </trkpt>
      <trkpt lat="46.65529" lon="5.73411">
        <ele>471.6</ele>
        <time>2022-05-21T12:14:04Z</time>
      </trkpt>
      <trkpt lat="46.65522" lon="5.73423">
        <ele>471</ele>
        <time>2022-05-21T12:14:05Z</time>
      </trkpt>
      <trkpt lat="46.65516" lon="5.73436">
        <ele>470.8</ele>
        <time>2022-05-21T12:14:06Z</time>
      </trkpt>
      <trkpt lat="46.65506" lon="5.73481">
        <ele>469.8</ele>
        <time>2022-05-21T12:14:09Z</time>
      </trkpt>
      <trkpt lat="46.65503" lon="5.73496">
        <ele>469.6</ele>
        <time>2022-05-21T12:14:10Z</time>
      </trkpt>
      <trkpt lat="46.65495" lon="5.73568">
        <ele>468.8</ele>
        <time>2022-05-21T12:14:15Z</time>
      </trkpt>
      <trkpt lat="46.6549" lon="5.73651">
        <ele>469.4</ele>
        <time>2022-05-21T12:14:21Z</time>
      </trkpt>
      <trkpt lat="46.65489" lon="5.73664">
        <ele>469.6</ele>
        <time>2022-05-21T12:14:22Z</time>
      </trkpt>
      <trkpt lat="46.65486" lon="5.73747">
        <ele>469.2</ele>
        <time>2022-05-21T12:14:28Z</time>
      </trkpt>
      <trkpt lat="46.65483" lon="5.73804">
        <ele>468.8</ele>
        <time>2022-05-21T12:14:32Z</time>
      </trkpt>
      <trkpt lat="46.65481" lon="5.73847">
        <ele>467.8</ele>
        <time>2022-05-21T12:14:35Z</time>
      </trkpt>
      <trkpt lat="46.65479" lon="5.73919">
        <ele>466.4</ele>
        <time>2022-05-21T12:14:40Z</time>
      </trkpt>
      <trkpt lat="46.65478" lon="5.73933">
        <ele>466.2</ele>
        <time>2022-05-21T12:14:41Z</time>
      </trkpt>
      <trkpt lat="46.65477" lon="5.7396">
        <ele>465.4</ele>
        <time>2022-05-21T12:14:43Z</time>
      </trkpt>
      <trkpt lat="46.65471" lon="5.74">
        <ele>464.2</ele>
        <time>2022-05-21T12:14:46Z</time>
      </trkpt>
      <trkpt lat="46.65468" lon="5.74013">
        <ele>463.8</ele>
        <time>2022-05-21T12:14:47Z</time>
      </trkpt>
      <trkpt lat="46.65459" lon="5.74037">
        <ele>463.2</ele>
        <time>2022-05-21T12:14:49Z</time>
      </trkpt>
      <trkpt lat="46.65424" lon="5.74098">
        <ele>462.4</ele>
        <time>2022-05-21T12:14:55Z</time>
      </trkpt>
      <trkpt lat="46.65406" lon="5.74126">
        <ele>462.4</ele>
        <time>2022-05-21T12:14:58Z</time>
      </trkpt>
      <trkpt lat="46.65402" lon="5.74137">
        <ele>462.6</ele>
        <time>2022-05-21T12:14:59Z</time>
      </trkpt>
      <trkpt lat="46.65399" lon="5.74146">
        <ele>462.6</ele>
        <time>2022-05-21T12:15:00Z</time>
      </trkpt>
      <trkpt lat="46.65398" lon="5.74166">
        <ele>463</ele>
        <time>2022-05-21T12:15:02Z</time>
      </trkpt>
      <trkpt lat="46.65401" lon="5.74184">
        <ele>463.2</ele>
        <time>2022-05-21T12:15:04Z</time>
      </trkpt>
      <trkpt lat="46.65404" lon="5.74193">
        <ele>463.4</ele>
        <time>2022-05-21T12:15:05Z</time>
      </trkpt>
      <trkpt lat="46.65413" lon="5.74217">
        <ele>464.2</ele>
        <time>2022-05-21T12:15:08Z</time>
      </trkpt>
      <trkpt lat="46.65419" lon="5.74232">
        <ele>465.6</ele>
        <time>2022-05-21T12:15:10Z</time>
      </trkpt>
      <trkpt lat="46.65419" lon="5.74232">
        <ele>465.8</ele>
        <time>2022-05-21T12:15:11Z</time>
      </trkpt>
      <trkpt lat="46.65435" lon="5.74263">
        <ele>466.6</ele>
        <time>2022-05-21T12:15:15Z</time>
      </trkpt>
      <trkpt lat="46.6544" lon="5.74275">
        <ele>467.2</ele>
        <time>2022-05-21T12:15:17Z</time>
      </trkpt>
      <trkpt lat="46.65445" lon="5.74287">
        <ele>467.8</ele>
        <time>2022-05-21T12:15:20Z</time>
      </trkpt>
      <trkpt lat="46.65457" lon="5.74315">
        <ele>469</ele>
        <time>2022-05-21T12:15:24Z</time>
      </trkpt>
      <trkpt lat="46.65459" lon="5.7432">
        <ele>469.2</ele>
        <time>2022-05-21T12:15:25Z</time>
      </trkpt>
      <trkpt lat="46.65466" lon="5.74337">
        <ele>470.4</ele>
        <time>2022-05-21T12:15:28Z</time>
      </trkpt>
      <trkpt lat="46.65472" lon="5.74354">
        <ele>470.8</ele>
        <time>2022-05-21T12:15:31Z</time>
      </trkpt>
      <trkpt lat="46.65479" lon="5.74371">
        <ele>471.4</ele>
        <time>2022-05-21T12:15:34Z</time>
      </trkpt>
      <trkpt lat="46.65485" lon="5.7438">
        <ele>471.8</ele>
        <time>2022-05-21T12:15:36Z</time>
      </trkpt>
      <trkpt lat="46.65487" lon="5.74386">
        <ele>472</ele>
        <time>2022-05-21T12:15:38Z</time>
      </trkpt>
      <trkpt lat="46.65491" lon="5.74396">
        <ele>472.2</ele>
        <time>2022-05-21T12:15:39Z</time>
      </trkpt>
      <trkpt lat="46.65494" lon="5.74402">
        <ele>472.4</ele>
        <time>2022-05-21T12:15:40Z</time>
      </trkpt>
      <trkpt lat="46.65496" lon="5.74407">
        <ele>472.4</ele>
        <time>2022-05-21T12:15:41Z</time>
      </trkpt>
      <trkpt lat="46.65502" lon="5.74417">
        <ele>473</ele>
        <time>2022-05-21T12:15:43Z</time>
      </trkpt>
      <trkpt lat="46.65504" lon="5.74422">
        <ele>473.2</ele>
        <time>2022-05-21T12:15:44Z</time>
      </trkpt>
      <trkpt lat="46.65512" lon="5.74438">
        <ele>473.8</ele>
        <time>2022-05-21T12:15:47Z</time>
      </trkpt>
      <trkpt lat="46.6552" lon="5.74453">
        <ele>474.6</ele>
        <time>2022-05-21T12:15:50Z</time>
      </trkpt>
      <trkpt lat="46.65522" lon="5.74459">
        <ele>474.8</ele>
        <time>2022-05-21T12:15:51Z</time>
      </trkpt>
      <trkpt lat="46.65534" lon="5.74485">
        <ele>475.4</ele>
        <time>2022-05-21T12:15:56Z</time>
      </trkpt>
      <trkpt lat="46.65538" lon="5.74495">
        <ele>475.6</ele>
        <time>2022-05-21T12:15:58Z</time>
      </trkpt>
      <trkpt lat="46.65541" lon="5.745">
        <ele>475.8</ele>
        <time>2022-05-21T12:15:59Z</time>
      </trkpt>
      <trkpt lat="46.65552" lon="5.74525">
        <ele>477</ele>
        <time>2022-05-21T12:16:04Z</time>
      </trkpt>
      <trkpt lat="46.65555" lon="5.7453">
        <ele>477.2</ele>
        <time>2022-05-21T12:16:05Z</time>
      </trkpt>
      <trkpt lat="46.65567" lon="5.74549">
        <ele>478.2</ele>
        <time>2022-05-21T12:16:10Z</time>
      </trkpt>
      <trkpt lat="46.65588" lon="5.74571">
        <ele>479.6</ele>
        <time>2022-05-21T12:16:17Z</time>
      </trkpt>
      <trkpt lat="46.65605" lon="5.74589">
        <ele>480.6</ele>
        <time>2022-05-21T12:16:22Z</time>
      </trkpt>
      <trkpt lat="46.65608" lon="5.74593">
        <ele>480.8</ele>
        <time>2022-05-21T12:16:23Z</time>
      </trkpt>
      <trkpt lat="46.6562" lon="5.74612">
        <ele>481.8</ele>
        <time>2022-05-21T12:16:27Z</time>
      </trkpt>
      <trkpt lat="46.65631" lon="5.74638">
        <ele>482.6</ele>
        <time>2022-05-21T12:16:32Z</time>
      </trkpt>
      <trkpt lat="46.65635" lon="5.74648">
        <ele>483</ele>
        <time>2022-05-21T12:16:34Z</time>
      </trkpt>
      <trkpt lat="46.65648" lon="5.74684">
        <ele>483.8</ele>
        <time>2022-05-21T12:16:41Z</time>
      </trkpt>
      <trkpt lat="46.65652" lon="5.74694">
        <ele>484.4</ele>
        <time>2022-05-21T12:16:43Z</time>
      </trkpt>
      <trkpt lat="46.65658" lon="5.74714">
        <ele>485.4</ele>
        <time>2022-05-21T12:16:47Z</time>
      </trkpt>
      <trkpt lat="46.6566" lon="5.74719">
        <ele>485.6</ele>
        <time>2022-05-21T12:16:48Z</time>
      </trkpt>
      <trkpt lat="46.65672" lon="5.74748">
        <ele>486.6</ele>
        <time>2022-05-21T12:16:54Z</time>
      </trkpt>
      <trkpt lat="46.65677" lon="5.74758">
        <ele>486.8</ele>
        <time>2022-05-21T12:16:56Z</time>
      </trkpt>
      <trkpt lat="46.65684" lon="5.7478">
        <ele>487.8</ele>
        <time>2022-05-21T12:17:00Z</time>
      </trkpt>
      <trkpt lat="46.65687" lon="5.74796">
        <ele>488.4</ele>
        <time>2022-05-21T12:17:03Z</time>
      </trkpt>
      <trkpt lat="46.65691" lon="5.7482">
        <ele>489</ele>
        <time>2022-05-21T12:17:07Z</time>
      </trkpt>
      <trkpt lat="46.65694" lon="5.74836">
        <ele>489.6</ele>
        <time>2022-05-21T12:17:10Z</time>
      </trkpt>
      <trkpt lat="46.65698" lon="5.7486">
        <ele>490.4</ele>
        <time>2022-05-21T12:17:14Z</time>
      </trkpt>
      <trkpt lat="46.65703" lon="5.74883">
        <ele>491.4</ele>
        <time>2022-05-21T12:17:18Z</time>
      </trkpt>
      <trkpt lat="46.65704" lon="5.74888">
        <ele>491.8</ele>
        <time>2022-05-21T12:17:19Z</time>
      </trkpt>
      <trkpt lat="46.65709" lon="5.74922">
        <ele>493</ele>
        <time>2022-05-21T12:17:25Z</time>
      </trkpt>
      <trkpt lat="46.65711" lon="5.74927">
        <ele>493.2</ele>
        <time>2022-05-21T12:17:26Z</time>
      </trkpt>
      <trkpt lat="46.65718" lon="5.7496">
        <ele>494.2</ele>
        <time>2022-05-21T12:17:32Z</time>
      </trkpt>
      <trkpt lat="46.65719" lon="5.74965">
        <ele>494.6</ele>
        <time>2022-05-21T12:17:33Z</time>
      </trkpt>
      <trkpt lat="46.65731" lon="5.74984">
        <ele>495.6</ele>
        <time>2022-05-21T12:17:37Z</time>
      </trkpt>
      <trkpt lat="46.65734" lon="5.74988">
        <ele>495.8</ele>
        <time>2022-05-21T12:17:38Z</time>
      </trkpt>
      <trkpt lat="46.65738" lon="5.74992">
        <ele>496.4</ele>
        <time>2022-05-21T12:17:39Z</time>
      </trkpt>
      <trkpt lat="46.65745" lon="5.74997">
        <ele>496.8</ele>
        <time>2022-05-21T12:17:41Z</time>
      </trkpt>
      <trkpt lat="46.65753" lon="5.75001">
        <ele>497</ele>
        <time>2022-05-21T12:17:43Z</time>
      </trkpt>
      <trkpt lat="46.65768" lon="5.75009">
        <ele>497.8</ele>
        <time>2022-05-21T12:17:47Z</time>
      </trkpt>
      <trkpt lat="46.65787" lon="5.75021">
        <ele>498.2</ele>
        <time>2022-05-21T12:17:52Z</time>
      </trkpt>
      <trkpt lat="46.65795" lon="5.75025">
        <ele>499</ele>
        <time>2022-05-21T12:17:54Z</time>
      </trkpt>
      <trkpt lat="46.65821" lon="5.75045">
        <ele>500.2</ele>
        <time>2022-05-21T12:18:01Z</time>
      </trkpt>
      <trkpt lat="46.6584" lon="5.75071">
        <ele>501</ele>
        <time>2022-05-21T12:18:07Z</time>
      </trkpt>
      <trkpt lat="46.65842" lon="5.75076">
        <ele>501.2</ele>
        <time>2022-05-21T12:18:08Z</time>
      </trkpt>
      <trkpt lat="46.65851" lon="5.75096">
        <ele>501.8</ele>
        <time>2022-05-21T12:18:12Z</time>
      </trkpt>
      <trkpt lat="46.65857" lon="5.75105">
        <ele>502</ele>
        <time>2022-05-21T12:18:14Z</time>
      </trkpt>
      <trkpt lat="46.65859" lon="5.7511">
        <ele>502.2</ele>
        <time>2022-05-21T12:18:15Z</time>
      </trkpt>
      <trkpt lat="46.6587" lon="5.75129">
        <ele>503</ele>
        <time>2022-05-21T12:18:19Z</time>
      </trkpt>
      <trkpt lat="46.65876" lon="5.75138">
        <ele>503.2</ele>
        <time>2022-05-21T12:18:21Z</time>
      </trkpt>
      <trkpt lat="46.65878" lon="5.75142">
        <ele>503.4</ele>
        <time>2022-05-21T12:18:22Z</time>
      </trkpt>
      <trkpt lat="46.65893" lon="5.75162">
        <ele>504.4</ele>
        <time>2022-05-21T12:18:27Z</time>
      </trkpt>
      <trkpt lat="46.65903" lon="5.75175">
        <ele>504.8</ele>
        <time>2022-05-21T12:18:30Z</time>
      </trkpt>
      <trkpt lat="46.65911" lon="5.75189">
        <ele>505.4</ele>
        <time>2022-05-21T12:18:33Z</time>
      </trkpt>
      <trkpt lat="46.65916" lon="5.75206">
        <ele>505.8</ele>
        <time>2022-05-21T12:18:36Z</time>
      </trkpt>
      <trkpt lat="46.65919" lon="5.75218">
        <ele>506</ele>
        <time>2022-05-21T12:18:38Z</time>
      </trkpt>
      <trkpt lat="46.6592" lon="5.75231">
        <ele>506.4</ele>
        <time>2022-05-21T12:18:40Z</time>
      </trkpt>
      <trkpt lat="46.6592" lon="5.75238">
        <ele>506.4</ele>
        <time>2022-05-21T12:18:41Z</time>
      </trkpt>
      <trkpt lat="46.6592" lon="5.75245">
        <ele>506.6</ele>
        <time>2022-05-21T12:18:42Z</time>
      </trkpt>
      <trkpt lat="46.65913" lon="5.7528">
        <ele>507.8</ele>
        <time>2022-05-21T12:18:48Z</time>
      </trkpt>
      <trkpt lat="46.65911" lon="5.75286">
        <ele>508</ele>
        <time>2022-05-21T12:18:49Z</time>
      </trkpt>
      <trkpt lat="46.65904" lon="5.75311">
        <ele>508.6</ele>
        <time>2022-05-21T12:18:53Z</time>
      </trkpt>
      <trkpt lat="46.65897" lon="5.75329">
        <ele>509</ele>
        <time>2022-05-21T12:18:56Z</time>
      </trkpt>
      <trkpt lat="46.65895" lon="5.75336">
        <ele>509.2</ele>
        <time>2022-05-21T12:18:57Z</time>
      </trkpt>
      <trkpt lat="46.6589" lon="5.75356">
        <ele>509.4</ele>
        <time>2022-05-21T12:19:00Z</time>
      </trkpt>
      <trkpt lat="46.65886" lon="5.75376">
        <ele>510.4</ele>
        <time>2022-05-21T12:19:03Z</time>
      </trkpt>
      <trkpt lat="46.65882" lon="5.75389">
        <ele>510.8</ele>
        <time>2022-05-21T12:19:05Z</time>
      </trkpt>
      <trkpt lat="46.65874" lon="5.75414">
        <ele>511.4</ele>
        <time>2022-05-21T12:19:09Z</time>
      </trkpt>
      <trkpt lat="46.65865" lon="5.75441">
        <ele>512.2</ele>
        <time>2022-05-21T12:19:13Z</time>
      </trkpt>
      <trkpt lat="46.65861" lon="5.75454">
        <ele>512.4</ele>
        <time>2022-05-21T12:19:15Z</time>
      </trkpt>
      <trkpt lat="46.65849" lon="5.75496">
        <ele>513.6</ele>
        <time>2022-05-21T12:19:21Z</time>
      </trkpt>
      <trkpt lat="46.65831" lon="5.75558">
        <ele>514.2</ele>
        <time>2022-05-21T12:19:30Z</time>
      </trkpt>
      <trkpt lat="46.6582" lon="5.756">
        <ele>514.8</ele>
        <time>2022-05-21T12:19:36Z</time>
      </trkpt>
      <trkpt lat="46.65815" lon="5.75621">
        <ele>515.4</ele>
        <time>2022-05-21T12:19:39Z</time>
      </trkpt>
      <trkpt lat="46.65813" lon="5.75666">
        <ele>515.6</ele>
        <time>2022-05-21T12:19:45Z</time>
      </trkpt>
      <trkpt lat="46.65814" lon="5.75682">
        <ele>515.8</ele>
        <time>2022-05-21T12:19:47Z</time>
      </trkpt>
      <trkpt lat="46.65815" lon="5.7569">
        <ele>516.2</ele>
        <time>2022-05-21T12:19:48Z</time>
      </trkpt>
      <trkpt lat="46.65818" lon="5.75706">
        <ele>516.4</ele>
        <time>2022-05-21T12:19:50Z</time>
      </trkpt>
      <trkpt lat="46.6582" lon="5.75714">
        <ele>516.4</ele>
        <time>2022-05-21T12:19:51Z</time>
      </trkpt>
      <trkpt lat="46.65823" lon="5.75722">
        <ele>516.8</ele>
        <time>2022-05-21T12:19:52Z</time>
      </trkpt>
      <trkpt lat="46.65837" lon="5.7575">
        <ele>516.6</ele>
        <time>2022-05-21T12:19:56Z</time>
      </trkpt>
      <trkpt lat="46.65862" lon="5.75772">
        <ele>516.8</ele>
        <time>2022-05-21T12:20:01Z</time>
      </trkpt>
      <trkpt lat="46.65903" lon="5.75801">
        <ele>516.8</ele>
        <time>2022-05-21T12:20:09Z</time>
      </trkpt>
      <trkpt lat="46.65921" lon="5.75816">
        <ele>517.4</ele>
        <time>2022-05-21T12:20:13Z</time>
      </trkpt>
      <trkpt lat="46.65938" lon="5.7583">
        <ele>518.4</ele>
        <time>2022-05-21T12:20:17Z</time>
      </trkpt>
      <trkpt lat="46.65942" lon="5.75834">
        <ele>518.8</ele>
        <time>2022-05-21T12:20:18Z</time>
      </trkpt>
      <trkpt lat="46.65959" lon="5.75846">
        <ele>519.8</ele>
        <time>2022-05-21T12:20:22Z</time>
      </trkpt>
      <trkpt lat="46.65976" lon="5.75859">
        <ele>520.4</ele>
        <time>2022-05-21T12:20:26Z</time>
      </trkpt>
      <trkpt lat="46.65993" lon="5.75872">
        <ele>521.4</ele>
        <time>2022-05-21T12:20:30Z</time>
      </trkpt>
      <trkpt lat="46.6601" lon="5.75884">
        <ele>522</ele>
        <time>2022-05-21T12:20:34Z</time>
      </trkpt>
      <trkpt lat="46.66018" lon="5.7589">
        <ele>522.4</ele>
        <time>2022-05-21T12:20:36Z</time>
      </trkpt>
      <trkpt lat="46.66025" lon="5.75896">
        <ele>522.8</ele>
        <time>2022-05-21T12:20:38Z</time>
      </trkpt>
      <trkpt lat="46.66037" lon="5.75905">
        <ele>523.4</ele>
        <time>2022-05-21T12:20:41Z</time>
      </trkpt>
      <trkpt lat="46.66053" lon="5.75917">
        <ele>524</ele>
        <time>2022-05-21T12:20:45Z</time>
      </trkpt>
      <trkpt lat="46.66069" lon="5.75929">
        <ele>524.6</ele>
        <time>2022-05-21T12:20:49Z</time>
      </trkpt>
      <trkpt lat="46.66084" lon="5.75944">
        <ele>525.2</ele>
        <time>2022-05-21T12:20:53Z</time>
      </trkpt>
      <trkpt lat="46.66092" lon="5.75954">
        <ele>525.4</ele>
        <time>2022-05-21T12:20:55Z</time>
      </trkpt>
      <trkpt lat="46.66098" lon="5.75964">
        <ele>525.6</ele>
        <time>2022-05-21T12:20:57Z</time>
      </trkpt>
      <trkpt lat="46.66103" lon="5.75976">
        <ele>525.8</ele>
        <time>2022-05-21T12:20:59Z</time>
      </trkpt>
      <trkpt lat="46.66118" lon="5.76019">
        <ele>526.4</ele>
        <time>2022-05-21T12:21:06Z</time>
      </trkpt>
      <trkpt lat="46.6612" lon="5.76025">
        <ele>526.6</ele>
        <time>2022-05-21T12:21:07Z</time>
      </trkpt>
      <trkpt lat="46.66136" lon="5.76084">
        <ele>527.6</ele>
        <time>2022-05-21T12:21:16Z</time>
      </trkpt>
      <trkpt lat="46.66141" lon="5.76103">
        <ele>527.8</ele>
        <time>2022-05-21T12:21:19Z</time>
      </trkpt>
      <trkpt lat="46.66148" lon="5.76127">
        <ele>528</ele>
        <time>2022-05-21T12:21:23Z</time>
      </trkpt>
      <trkpt lat="46.66152" lon="5.76139">
        <ele>528.6</ele>
        <time>2022-05-21T12:21:25Z</time>
      </trkpt>
      <trkpt lat="46.66154" lon="5.76145">
        <ele>529</ele>
        <time>2022-05-21T12:21:26Z</time>
      </trkpt>
      <trkpt lat="46.66165" lon="5.76182">
        <ele>530.2</ele>
        <time>2022-05-21T12:21:32Z</time>
      </trkpt>
      <trkpt lat="46.66167" lon="5.76188">
        <ele>530.4</ele>
        <time>2022-05-21T12:21:33Z</time>
      </trkpt>
      <trkpt lat="46.6618" lon="5.76232">
        <ele>531</ele>
        <time>2022-05-21T12:21:39Z</time>
      </trkpt>
      <trkpt lat="46.66199" lon="5.76291">
        <ele>530.8</ele>
        <time>2022-05-21T12:21:46Z</time>
      </trkpt>
      <trkpt lat="46.66221" lon="5.76361">
        <ele>530.8</ele>
        <time>2022-05-21T12:21:54Z</time>
      </trkpt>
      <trkpt lat="46.66243" lon="5.76434">
        <ele>530.8</ele>
        <time>2022-05-21T12:22:02Z</time>
      </trkpt>
      <trkpt lat="46.66245" lon="5.76443">
        <ele>530.8</ele>
        <time>2022-05-21T12:22:03Z</time>
      </trkpt>
      <trkpt lat="46.66269" lon="5.76523">
        <ele>530.6</ele>
        <time>2022-05-21T12:22:12Z</time>
      </trkpt>
      <trkpt lat="46.66292" lon="5.76599">
        <ele>531</ele>
        <time>2022-05-21T12:22:21Z</time>
      </trkpt>
      <trkpt lat="46.66297" lon="5.76615">
        <ele>531.4</ele>
        <time>2022-05-21T12:22:23Z</time>
      </trkpt>
      <trkpt lat="46.66318" lon="5.76689">
        <ele>532.2</ele>
        <time>2022-05-21T12:22:32Z</time>
      </trkpt>
      <trkpt lat="46.66321" lon="5.76697">
        <ele>532.2</ele>
        <time>2022-05-21T12:22:33Z</time>
      </trkpt>
      <trkpt lat="46.66333" lon="5.7674">
        <ele>532.4</ele>
        <time>2022-05-21T12:22:38Z</time>
      </trkpt>
      <trkpt lat="46.66353" lon="5.76808">
        <ele>532.6</ele>
        <time>2022-05-21T12:22:46Z</time>
      </trkpt>
      <trkpt lat="46.66377" lon="5.76886">
        <ele>532.6</ele>
        <time>2022-05-21T12:22:55Z</time>
      </trkpt>
      <trkpt lat="46.66387" lon="5.7692">
        <ele>532.6</ele>
        <time>2022-05-21T12:22:59Z</time>
      </trkpt>
      <trkpt lat="46.66392" lon="5.76957">
        <ele>532.6</ele>
        <time>2022-05-21T12:23:03Z</time>
      </trkpt>
      <trkpt lat="46.66391" lon="5.76967">
        <ele>532.6</ele>
        <time>2022-05-21T12:23:04Z</time>
      </trkpt>
      <trkpt lat="46.6639" lon="5.76976">
        <ele>532.6</ele>
        <time>2022-05-21T12:23:05Z</time>
      </trkpt>
      <trkpt lat="46.66385" lon="5.76995">
        <ele>532.6</ele>
        <time>2022-05-21T12:23:07Z</time>
      </trkpt>
      <trkpt lat="46.66381" lon="5.77004">
        <ele>532.6</ele>
        <time>2022-05-21T12:23:08Z</time>
      </trkpt>
      <trkpt lat="46.66359" lon="5.7706">
        <ele>532.2</ele>
        <time>2022-05-21T12:23:14Z</time>
      </trkpt>
      <trkpt lat="46.6633" lon="5.77127">
        <ele>531.4</ele>
        <time>2022-05-21T12:23:21Z</time>
      </trkpt>
      <trkpt lat="46.66326" lon="5.77137">
        <ele>531.2</ele>
        <time>2022-05-21T12:23:22Z</time>
      </trkpt>
      <trkpt lat="46.66317" lon="5.77156">
        <ele>531</ele>
        <time>2022-05-21T12:23:24Z</time>
      </trkpt>
      <trkpt lat="46.66299" lon="5.77189">
        <ele>530.2</ele>
        <time>2022-05-21T12:23:28Z</time>
      </trkpt>
      <trkpt lat="46.66272" lon="5.77245">
        <ele>529.6</ele>
        <time>2022-05-21T12:23:34Z</time>
      </trkpt>
      <trkpt lat="46.66249" lon="5.77291">
        <ele>529.4</ele>
        <time>2022-05-21T12:23:40Z</time>
      </trkpt>
      <trkpt lat="46.66246" lon="5.77296">
        <ele>529.2</ele>
        <time>2022-05-21T12:23:41Z</time>
      </trkpt>
      <trkpt lat="46.6624" lon="5.77301">
        <ele>529.2</ele>
        <time>2022-05-21T12:23:43Z</time>
      </trkpt>
      <trkpt lat="46.66233" lon="5.77304">
        <ele>529.2</ele>
        <time>2022-05-21T12:23:47Z</time>
      </trkpt>
      <trkpt lat="46.66233" lon="5.77304">
        <ele>529.4</ele>
        <time>2022-05-21T12:23:49Z</time>
      </trkpt>
      <trkpt lat="46.66236" lon="5.77306">
        <ele>529.8</ele>
        <time>2022-05-21T12:24:43Z</time>
      </trkpt>
      <trkpt lat="46.66238" lon="5.77308">
        <ele>529.8</ele>
        <time>2022-05-21T12:24:44Z</time>
      </trkpt>
      <trkpt lat="46.66239" lon="5.77312">
        <ele>529.8</ele>
        <time>2022-05-21T12:24:45Z</time>
      </trkpt>
      <trkpt lat="46.66236" lon="5.77321">
        <ele>529.8</ele>
        <time>2022-05-21T12:24:47Z</time>
      </trkpt>
      <trkpt lat="46.66219" lon="5.77354">
        <ele>530</ele>
        <time>2022-05-21T12:24:52Z</time>
      </trkpt>
      <trkpt lat="46.66193" lon="5.77404">
        <ele>529.8</ele>
        <time>2022-05-21T12:24:59Z</time>
      </trkpt>
      <trkpt lat="46.6618" lon="5.77425">
        <ele>529.8</ele>
        <time>2022-05-21T12:25:02Z</time>
      </trkpt>
      <trkpt lat="46.66175" lon="5.77441">
        <ele>529.8</ele>
        <time>2022-05-21T12:25:04Z</time>
      </trkpt>
      <trkpt lat="46.66175" lon="5.77459">
        <ele>529.8</ele>
        <time>2022-05-21T12:25:06Z</time>
      </trkpt>
      <trkpt lat="46.66177" lon="5.77466">
        <ele>529.8</ele>
        <time>2022-05-21T12:25:07Z</time>
      </trkpt>
      <trkpt lat="46.66179" lon="5.77471">
        <ele>529.8</ele>
        <time>2022-05-21T12:25:08Z</time>
      </trkpt>
      <trkpt lat="46.66186" lon="5.77479">
        <ele>529.8</ele>
        <time>2022-05-21T12:25:10Z</time>
      </trkpt>
      <trkpt lat="46.66198" lon="5.77477">
        <ele>529.6</ele>
        <time>2022-05-21T12:25:12Z</time>
      </trkpt>
      <trkpt lat="46.66203" lon="5.77473">
        <ele>529.6</ele>
        <time>2022-05-21T12:25:13Z</time>
      </trkpt>
      <trkpt lat="46.66215" lon="5.77461">
        <ele>529.4</ele>
        <time>2022-05-21T12:25:15Z</time>
      </trkpt>
      <trkpt lat="46.66239" lon="5.77437">
        <ele>529</ele>
        <time>2022-05-21T12:25:19Z</time>
      </trkpt>
      <trkpt lat="46.66264" lon="5.77413">
        <ele>528.6</ele>
        <time>2022-05-21T12:25:23Z</time>
      </trkpt>
      <trkpt lat="46.66296" lon="5.77385">
        <ele>528</ele>
        <time>2022-05-21T12:25:28Z</time>
      </trkpt>
      <trkpt lat="46.66346" lon="5.77341">
        <ele>527.6</ele>
        <time>2022-05-21T12:25:36Z</time>
      </trkpt>
      <trkpt lat="46.66352" lon="5.77335">
        <ele>527.8</ele>
        <time>2022-05-21T12:25:37Z</time>
      </trkpt>
      <trkpt lat="46.66394" lon="5.77297">
        <ele>528</ele>
        <time>2022-05-21T12:25:44Z</time>
      </trkpt>
      <trkpt lat="46.66441" lon="5.77255">
        <ele>528.2</ele>
        <time>2022-05-21T12:25:52Z</time>
      </trkpt>
      <trkpt lat="46.66472" lon="5.77226">
        <ele>528.2</ele>
        <time>2022-05-21T12:25:57Z</time>
      </trkpt>
      <trkpt lat="46.66503" lon="5.77185">
        <ele>527.6</ele>
        <time>2022-05-21T12:26:02Z</time>
      </trkpt>
      <trkpt lat="46.66508" lon="5.77175">
        <ele>527.4</ele>
        <time>2022-05-21T12:26:03Z</time>
      </trkpt>
      <trkpt lat="46.66519" lon="5.77141">
        <ele>526.6</ele>
        <time>2022-05-21T12:26:06Z</time>
      </trkpt>
      <trkpt lat="46.66523" lon="5.77129">
        <ele>526.2</ele>
        <time>2022-05-21T12:26:07Z</time>
      </trkpt>
      <trkpt lat="46.6654" lon="5.77067">
        <ele>524.8</ele>
        <time>2022-05-21T12:26:12Z</time>
      </trkpt>
      <trkpt lat="46.66547" lon="5.77041">
        <ele>523.6</ele>
        <time>2022-05-21T12:26:14Z</time>
      </trkpt>
      <trkpt lat="46.66565" lon="5.76987">
        <ele>522.4</ele>
        <time>2022-05-21T12:26:18Z</time>
      </trkpt>
      <trkpt lat="46.6657" lon="5.76975">
        <ele>521.8</ele>
        <time>2022-05-21T12:26:19Z</time>
      </trkpt>
      <trkpt lat="46.66576" lon="5.76962">
        <ele>521.4</ele>
        <time>2022-05-21T12:26:20Z</time>
      </trkpt>
      <trkpt lat="46.66592" lon="5.76925">
        <ele>520</ele>
        <time>2022-05-21T12:26:23Z</time>
      </trkpt>
      <trkpt lat="46.66602" lon="5.76899">
        <ele>519.4</ele>
        <time>2022-05-21T12:26:25Z</time>
      </trkpt>
      <trkpt lat="46.66613" lon="5.76873">
        <ele>519</ele>
        <time>2022-05-21T12:26:27Z</time>
      </trkpt>
      <trkpt lat="46.66623" lon="5.76848">
        <ele>517.6</ele>
        <time>2022-05-21T12:26:29Z</time>
      </trkpt>
      <trkpt lat="46.66638" lon="5.76808">
        <ele>516.8</ele>
        <time>2022-05-21T12:26:32Z</time>
      </trkpt>
      <trkpt lat="46.66644" lon="5.76795">
        <ele>515.8</ele>
        <time>2022-05-21T12:26:33Z</time>
      </trkpt>
      <trkpt lat="46.66657" lon="5.76772">
        <ele>515</ele>
        <time>2022-05-21T12:26:35Z</time>
      </trkpt>
      <trkpt lat="46.66665" lon="5.76762">
        <ele>514.8</ele>
        <time>2022-05-21T12:26:36Z</time>
      </trkpt>
      <trkpt lat="46.66683" lon="5.76745">
        <ele>513.6</ele>
        <time>2022-05-21T12:26:38Z</time>
      </trkpt>
      <trkpt lat="46.66693" lon="5.7674">
        <ele>513</ele>
        <time>2022-05-21T12:26:39Z</time>
      </trkpt>
      <trkpt lat="46.66703" lon="5.76736">
        <ele>512.4</ele>
        <time>2022-05-21T12:26:40Z</time>
      </trkpt>
      <trkpt lat="46.66725" lon="5.76735">
        <ele>511.2</ele>
        <time>2022-05-21T12:26:42Z</time>
      </trkpt>
      <trkpt lat="46.66746" lon="5.76738">
        <ele>510.2</ele>
        <time>2022-05-21T12:26:44Z</time>
      </trkpt>
      <trkpt lat="46.66757" lon="5.76743">
        <ele>509.8</ele>
        <time>2022-05-21T12:26:45Z</time>
      </trkpt>
      <trkpt lat="46.66768" lon="5.76747">
        <ele>509.4</ele>
        <time>2022-05-21T12:26:46Z</time>
      </trkpt>
      <trkpt lat="46.66779" lon="5.76752">
        <ele>508.8</ele>
        <time>2022-05-21T12:26:47Z</time>
      </trkpt>
      <trkpt lat="46.66822" lon="5.7677">
        <ele>507</ele>
        <time>2022-05-21T12:26:51Z</time>
      </trkpt>
      <trkpt lat="46.66843" lon="5.76778">
        <ele>505.8</ele>
        <time>2022-05-21T12:26:53Z</time>
      </trkpt>
      <trkpt lat="46.66854" lon="5.76783">
        <ele>505.4</ele>
        <time>2022-05-21T12:26:54Z</time>
      </trkpt>
      <trkpt lat="46.66874" lon="5.76791">
        <ele>504.4</ele>
        <time>2022-05-21T12:26:56Z</time>
      </trkpt>
      <trkpt lat="46.66904" lon="5.76803">
        <ele>503.4</ele>
        <time>2022-05-21T12:26:59Z</time>
      </trkpt>
      <trkpt lat="46.66913" lon="5.76807">
        <ele>503</ele>
        <time>2022-05-21T12:27:00Z</time>
      </trkpt>
      <trkpt lat="46.66969" lon="5.76829">
        <ele>502.8</ele>
        <time>2022-05-21T12:27:06Z</time>
      </trkpt>
      <trkpt lat="46.66978" lon="5.76832">
        <ele>502.6</ele>
        <time>2022-05-21T12:27:07Z</time>
      </trkpt>
      <trkpt lat="46.67038" lon="5.76856">
        <ele>502.6</ele>
        <time>2022-05-21T12:27:14Z</time>
      </trkpt>
      <trkpt lat="46.67098" lon="5.76879">
        <ele>502.4</ele>
        <time>2022-05-21T12:27:21Z</time>
      </trkpt>
      <trkpt lat="46.67115" lon="5.76886">
        <ele>502.2</ele>
        <time>2022-05-21T12:27:23Z</time>
      </trkpt>
      <trkpt lat="46.67133" lon="5.76894">
        <ele>502</ele>
        <time>2022-05-21T12:27:25Z</time>
      </trkpt>
      <trkpt lat="46.67158" lon="5.76904">
        <ele>501.2</ele>
        <time>2022-05-21T12:27:28Z</time>
      </trkpt>
      <trkpt lat="46.67215" lon="5.76926">
        <ele>500.4</ele>
        <time>2022-05-21T12:27:35Z</time>
      </trkpt>
      <trkpt lat="46.67223" lon="5.7693">
        <ele>500.2</ele>
        <time>2022-05-21T12:27:36Z</time>
      </trkpt>
      <trkpt lat="46.67277" lon="5.76959">
        <ele>499.4</ele>
        <time>2022-05-21T12:27:43Z</time>
      </trkpt>
      <trkpt lat="46.67309" lon="5.76995">
        <ele>499.8</ele>
        <time>2022-05-21T12:27:48Z</time>
      </trkpt>
      <trkpt lat="46.67352" lon="5.77052">
        <ele>500</ele>
        <time>2022-05-21T12:27:55Z</time>
      </trkpt>
      <trkpt lat="46.67363" lon="5.77067">
        <ele>499.2</ele>
        <time>2022-05-21T12:27:57Z</time>
      </trkpt>
      <trkpt lat="46.67403" lon="5.77121">
        <ele>498.6</ele>
        <time>2022-05-21T12:28:04Z</time>
      </trkpt>
      <trkpt lat="46.67415" lon="5.77137">
        <ele>498.4</ele>
        <time>2022-05-21T12:28:06Z</time>
      </trkpt>
      <trkpt lat="46.67457" lon="5.77191">
        <ele>498.4</ele>
        <time>2022-05-21T12:28:13Z</time>
      </trkpt>
      <trkpt lat="46.6748" lon="5.77222">
        <ele>498.4</ele>
        <time>2022-05-21T12:28:17Z</time>
      </trkpt>
      <trkpt lat="46.67521" lon="5.77275">
        <ele>498.2</ele>
        <time>2022-05-21T12:28:24Z</time>
      </trkpt>
      <trkpt lat="46.67526" lon="5.77282">
        <ele>498.2</ele>
        <time>2022-05-21T12:28:25Z</time>
      </trkpt>
      <trkpt lat="46.67549" lon="5.77311">
        <ele>498</ele>
        <time>2022-05-21T12:28:29Z</time>
      </trkpt>
      <trkpt lat="46.67592" lon="5.77368">
        <ele>497.6</ele>
        <time>2022-05-21T12:28:37Z</time>
      </trkpt>
      <trkpt lat="46.67607" lon="5.77388">
        <ele>497.8</ele>
        <time>2022-05-21T12:28:40Z</time>
      </trkpt>
      <trkpt lat="46.67637" lon="5.77436">
        <ele>498.6</ele>
        <time>2022-05-21T12:28:47Z</time>
      </trkpt>
      <trkpt lat="46.67654" lon="5.77485">
        <ele>498.6</ele>
        <time>2022-05-21T12:28:53Z</time>
      </trkpt>
      <trkpt lat="46.67664" lon="5.77545">
        <ele>498.6</ele>
        <time>2022-05-21T12:28:59Z</time>
      </trkpt>
      <trkpt lat="46.67674" lon="5.77618">
        <ele>498.4</ele>
        <time>2022-05-21T12:29:06Z</time>
      </trkpt>
      <trkpt lat="46.67686" lon="5.77702">
        <ele>498.2</ele>
        <time>2022-05-21T12:29:14Z</time>
      </trkpt>
      <trkpt lat="46.67691" lon="5.77734">
        <ele>498</ele>
        <time>2022-05-21T12:29:17Z</time>
      </trkpt>
      <trkpt lat="46.67702" lon="5.77811">
        <ele>497.6</ele>
        <time>2022-05-21T12:29:24Z</time>
      </trkpt>
      <trkpt lat="46.67705" lon="5.77834">
        <ele>497.4</ele>
        <time>2022-05-21T12:29:26Z</time>
      </trkpt>
      <trkpt lat="46.6771" lon="5.77867">
        <ele>497.2</ele>
        <time>2022-05-21T12:29:29Z</time>
      </trkpt>
      <trkpt lat="46.67718" lon="5.7792">
        <ele>496.8</ele>
        <time>2022-05-21T12:29:34Z</time>
      </trkpt>
      <trkpt lat="46.67724" lon="5.77939">
        <ele>496.6</ele>
        <time>2022-05-21T12:29:36Z</time>
      </trkpt>
      <trkpt lat="46.67731" lon="5.77957">
        <ele>496.6</ele>
        <time>2022-05-21T12:29:38Z</time>
      </trkpt>
      <trkpt lat="46.67739" lon="5.77972">
        <ele>496.6</ele>
        <time>2022-05-21T12:29:40Z</time>
      </trkpt>
      <trkpt lat="46.67754" lon="5.77991">
        <ele>496.6</ele>
        <time>2022-05-21T12:29:43Z</time>
      </trkpt>
      <trkpt lat="46.67783" lon="5.7801">
        <ele>497.2</ele>
        <time>2022-05-21T12:29:48Z</time>
      </trkpt>
      <trkpt lat="46.67797" lon="5.78013">
        <ele>497.6</ele>
        <time>2022-05-21T12:29:50Z</time>
      </trkpt>
      <trkpt lat="46.6781" lon="5.78012">
        <ele>497.8</ele>
        <time>2022-05-21T12:29:52Z</time>
      </trkpt>
      <trkpt lat="46.67852" lon="5.78004">
        <ele>497.8</ele>
        <time>2022-05-21T12:29:58Z</time>
      </trkpt>
      <trkpt lat="46.67874" lon="5.77998">
        <ele>497.4</ele>
        <time>2022-05-21T12:30:01Z</time>
      </trkpt>
      <trkpt lat="46.67902" lon="5.77993">
        <ele>496.6</ele>
        <time>2022-05-21T12:30:05Z</time>
      </trkpt>
      <trkpt lat="46.67929" lon="5.77987">
        <ele>496.2</ele>
        <time>2022-05-21T12:30:09Z</time>
      </trkpt>
      <trkpt lat="46.67955" lon="5.7798">
        <ele>496</ele>
        <time>2022-05-21T12:30:13Z</time>
      </trkpt>
      <trkpt lat="46.67998" lon="5.77955">
        <ele>495.8</ele>
        <time>2022-05-21T12:30:20Z</time>
      </trkpt>
      <trkpt lat="46.6804" lon="5.77919">
        <ele>495.8</ele>
        <time>2022-05-21T12:30:27Z</time>
      </trkpt>
      <trkpt lat="46.68047" lon="5.77916">
        <ele>495.8</ele>
        <time>2022-05-21T12:30:28Z</time>
      </trkpt>
      <trkpt lat="46.68053" lon="5.77915">
        <ele>495.8</ele>
        <time>2022-05-21T12:30:29Z</time>
      </trkpt>
      <trkpt lat="46.68066" lon="5.7792">
        <ele>495.6</ele>
        <time>2022-05-21T12:30:31Z</time>
      </trkpt>
      <trkpt lat="46.68083" lon="5.7794">
        <ele>495.8</ele>
        <time>2022-05-21T12:30:35Z</time>
      </trkpt>
      <trkpt lat="46.68093" lon="5.77966">
        <ele>497.8</ele>
        <time>2022-05-21T12:30:40Z</time>
      </trkpt>
      <trkpt lat="46.68097" lon="5.7798">
        <ele>499.2</ele>
        <time>2022-05-21T12:30:43Z</time>
      </trkpt>
      <trkpt lat="46.681" lon="5.77993">
        <ele>500.6</ele>
        <time>2022-05-21T12:30:46Z</time>
      </trkpt>
      <trkpt lat="46.68102" lon="5.78002">
        <ele>501.4</ele>
        <time>2022-05-21T12:30:48Z</time>
      </trkpt>
      <trkpt lat="46.68104" lon="5.78006">
        <ele>502.2</ele>
        <time>2022-05-21T12:30:49Z</time>
      </trkpt>
      <trkpt lat="46.68109" lon="5.78023">
        <ele>503.2</ele>
        <time>2022-05-21T12:30:53Z</time>
      </trkpt>
      <trkpt lat="46.68111" lon="5.78031">
        <ele>503.8</ele>
        <time>2022-05-21T12:30:55Z</time>
      </trkpt>
      <trkpt lat="46.68114" lon="5.7804">
        <ele>504.4</ele>
        <time>2022-05-21T12:30:57Z</time>
      </trkpt>
      <trkpt lat="46.68117" lon="5.78052">
        <ele>505.6</ele>
        <time>2022-05-21T12:31:00Z</time>
      </trkpt>
      <trkpt lat="46.68119" lon="5.7806">
        <ele>506.2</ele>
        <time>2022-05-21T12:31:02Z</time>
      </trkpt>
      <trkpt lat="46.68121" lon="5.78068">
        <ele>506.6</ele>
        <time>2022-05-21T12:31:04Z</time>
      </trkpt>
      <trkpt lat="46.68127" lon="5.78092">
        <ele>508</ele>
        <time>2022-05-21T12:31:10Z</time>
      </trkpt>
      <trkpt lat="46.68127" lon="5.78096">
        <ele>508.2</ele>
        <time>2022-05-21T12:31:11Z</time>
      </trkpt>
      <trkpt lat="46.6813" lon="5.78108">
        <ele>509</ele>
        <time>2022-05-21T12:31:14Z</time>
      </trkpt>
      <trkpt lat="46.68131" lon="5.78112">
        <ele>509.4</ele>
        <time>2022-05-21T12:31:15Z</time>
      </trkpt>
      <trkpt lat="46.68134" lon="5.78129">
        <ele>510.4</ele>
        <time>2022-05-21T12:31:19Z</time>
      </trkpt>
      <trkpt lat="46.68135" lon="5.78137">
        <ele>511</ele>
        <time>2022-05-21T12:31:21Z</time>
      </trkpt>
      <trkpt lat="46.68136" lon="5.78145">
        <ele>511.4</ele>
        <time>2022-05-21T12:31:23Z</time>
      </trkpt>
      <trkpt lat="46.6814" lon="5.78168">
        <ele>512.4</ele>
        <time>2022-05-21T12:31:29Z</time>
      </trkpt>
      <trkpt lat="46.68143" lon="5.78175">
        <ele>513.2</ele>
        <time>2022-05-21T12:31:31Z</time>
      </trkpt>
      <trkpt lat="46.68147" lon="5.78182">
        <ele>513.8</ele>
        <time>2022-05-21T12:31:33Z</time>
      </trkpt>
      <trkpt lat="46.68157" lon="5.78196">
        <ele>515</ele>
        <time>2022-05-21T12:31:38Z</time>
      </trkpt>
      <trkpt lat="46.6816" lon="5.78198">
        <ele>515.2</ele>
        <time>2022-05-21T12:31:39Z</time>
      </trkpt>
      <trkpt lat="46.68166" lon="5.78205">
        <ele>516.4</ele>
        <time>2022-05-21T12:31:42Z</time>
      </trkpt>
      <trkpt lat="46.68174" lon="5.78218">
        <ele>517.4</ele>
        <time>2022-05-21T12:31:46Z</time>
      </trkpt>
      <trkpt lat="46.68176" lon="5.78223">
        <ele>517.8</ele>
        <time>2022-05-21T12:31:47Z</time>
      </trkpt>
      <trkpt lat="46.68177" lon="5.78242">
        <ele>518.6</ele>
        <time>2022-05-21T12:31:51Z</time>
      </trkpt>
      <trkpt lat="46.68176" lon="5.78247">
        <ele>519</ele>
        <time>2022-05-21T12:31:52Z</time>
      </trkpt>
      <trkpt lat="46.6817" lon="5.78265">
        <ele>519.6</ele>
        <time>2022-05-21T12:31:56Z</time>
      </trkpt>
      <trkpt lat="46.68162" lon="5.78283">
        <ele>520.6</ele>
        <time>2022-05-21T12:32:00Z</time>
      </trkpt>
      <trkpt lat="46.6816" lon="5.78287">
        <ele>521</ele>
        <time>2022-05-21T12:32:01Z</time>
      </trkpt>
      <trkpt lat="46.68147" lon="5.78317">
        <ele>522</ele>
        <time>2022-05-21T12:32:06Z</time>
      </trkpt>
      <trkpt lat="46.68144" lon="5.78323">
        <ele>522</ele>
        <time>2022-05-21T12:32:07Z</time>
      </trkpt>
      <trkpt lat="46.68136" lon="5.78336">
        <ele>522.2</ele>
        <time>2022-05-21T12:32:09Z</time>
      </trkpt>
      <trkpt lat="46.68129" lon="5.78346">
        <ele>522.2</ele>
        <time>2022-05-21T12:32:11Z</time>
      </trkpt>
      <trkpt lat="46.68124" lon="5.78361">
        <ele>522.6</ele>
        <time>2022-05-21T12:32:13Z</time>
      </trkpt>
      <trkpt lat="46.68122" lon="5.78374">
        <ele>522.8</ele>
        <time>2022-05-21T12:32:15Z</time>
      </trkpt>
      <trkpt lat="46.68119" lon="5.78389">
        <ele>523</ele>
        <time>2022-05-21T12:32:17Z</time>
      </trkpt>
      <trkpt lat="46.68118" lon="5.78397">
        <ele>523</ele>
        <time>2022-05-21T12:32:18Z</time>
      </trkpt>
      <trkpt lat="46.68112" lon="5.78428">
        <ele>523.2</ele>
        <time>2022-05-21T12:32:22Z</time>
      </trkpt>
      <trkpt lat="46.68101" lon="5.78501">
        <ele>523.4</ele>
        <time>2022-05-21T12:32:31Z</time>
      </trkpt>
      <trkpt lat="46.68099" lon="5.78526">
        <ele>523.4</ele>
        <time>2022-05-21T12:32:34Z</time>
      </trkpt>
      <trkpt lat="46.68101" lon="5.78543">
        <ele>523.4</ele>
        <time>2022-05-21T12:32:36Z</time>
      </trkpt>
      <trkpt lat="46.68103" lon="5.78551">
        <ele>523.4</ele>
        <time>2022-05-21T12:32:37Z</time>
      </trkpt>
      <trkpt lat="46.68119" lon="5.78597">
        <ele>523.4</ele>
        <time>2022-05-21T12:32:43Z</time>
      </trkpt>
      <trkpt lat="46.68124" lon="5.78613">
        <ele>523.4</ele>
        <time>2022-05-21T12:32:45Z</time>
      </trkpt>
      <trkpt lat="46.68126" lon="5.7863">
        <ele>523.6</ele>
        <time>2022-05-21T12:32:47Z</time>
      </trkpt>
      <trkpt lat="46.68125" lon="5.78638">
        <ele>523.6</ele>
        <time>2022-05-21T12:32:48Z</time>
      </trkpt>
      <trkpt lat="46.68123" lon="5.78647">
        <ele>523.6</ele>
        <time>2022-05-21T12:32:49Z</time>
      </trkpt>
      <trkpt lat="46.68116" lon="5.78661">
        <ele>523.6</ele>
        <time>2022-05-21T12:32:51Z</time>
      </trkpt>
      <trkpt lat="46.68108" lon="5.78674">
        <ele>523.8</ele>
        <time>2022-05-21T12:32:53Z</time>
      </trkpt>
      <trkpt lat="46.68102" lon="5.78688">
        <ele>524.2</ele>
        <time>2022-05-21T12:32:55Z</time>
      </trkpt>
      <trkpt lat="46.68099" lon="5.78696">
        <ele>524.2</ele>
        <time>2022-05-21T12:32:56Z</time>
      </trkpt>
      <trkpt lat="46.68098" lon="5.78704">
        <ele>524.4</ele>
        <time>2022-05-21T12:32:57Z</time>
      </trkpt>
      <trkpt lat="46.68096" lon="5.78729">
        <ele>524.8</ele>
        <time>2022-05-21T12:33:00Z</time>
      </trkpt>
      <trkpt lat="46.68096" lon="5.78737">
        <ele>525</ele>
        <time>2022-05-21T12:33:01Z</time>
      </trkpt>
      <trkpt lat="46.68097" lon="5.78746">
        <ele>525.2</ele>
        <time>2022-05-21T12:33:02Z</time>
      </trkpt>
      <trkpt lat="46.68099" lon="5.78762">
        <ele>525.4</ele>
        <time>2022-05-21T12:33:04Z</time>
      </trkpt>
      <trkpt lat="46.68101" lon="5.78771">
        <ele>525.4</ele>
        <time>2022-05-21T12:33:05Z</time>
      </trkpt>
      <trkpt lat="46.68104" lon="5.78788">
        <ele>525.6</ele>
        <time>2022-05-21T12:33:07Z</time>
      </trkpt>
      <trkpt lat="46.68122" lon="5.78859">
        <ele>525.8</ele>
        <time>2022-05-21T12:33:15Z</time>
      </trkpt>
      <trkpt lat="46.68133" lon="5.78902">
        <ele>526.2</ele>
        <time>2022-05-21T12:33:20Z</time>
      </trkpt>
      <trkpt lat="46.68141" lon="5.78927">
        <ele>526.4</ele>
        <time>2022-05-21T12:33:23Z</time>
      </trkpt>
      <trkpt lat="46.68147" lon="5.78943">
        <ele>526.4</ele>
        <time>2022-05-21T12:33:25Z</time>
      </trkpt>
      <trkpt lat="46.6817" lon="5.78996">
        <ele>526.6</ele>
        <time>2022-05-21T12:33:32Z</time>
      </trkpt>
      <trkpt lat="46.68188" lon="5.79054">
        <ele>527</ele>
        <time>2022-05-21T12:33:39Z</time>
      </trkpt>
      <trkpt lat="46.68195" lon="5.79101">
        <ele>527</ele>
        <time>2022-05-21T12:33:44Z</time>
      </trkpt>
      <trkpt lat="46.68191" lon="5.7917">
        <ele>526.8</ele>
        <time>2022-05-21T12:33:51Z</time>
      </trkpt>
      <trkpt lat="46.68184" lon="5.79232">
        <ele>527.4</ele>
        <time>2022-05-21T12:33:58Z</time>
      </trkpt>
      <trkpt lat="46.68177" lon="5.79289">
        <ele>528</ele>
        <time>2022-05-21T12:34:05Z</time>
      </trkpt>
      <trkpt lat="46.68176" lon="5.79305">
        <ele>528.4</ele>
        <time>2022-05-21T12:34:07Z</time>
      </trkpt>
      <trkpt lat="46.6817" lon="5.79354">
        <ele>529.6</ele>
        <time>2022-05-21T12:34:13Z</time>
      </trkpt>
      <trkpt lat="46.68167" lon="5.79378">
        <ele>530.4</ele>
        <time>2022-05-21T12:34:16Z</time>
      </trkpt>
      <trkpt lat="46.68167" lon="5.79395">
        <ele>530.6</ele>
        <time>2022-05-21T12:34:18Z</time>
      </trkpt>
      <trkpt lat="46.68167" lon="5.79419">
        <ele>531</ele>
        <time>2022-05-21T12:34:21Z</time>
      </trkpt>
      <trkpt lat="46.68169" lon="5.79448">
        <ele>531.6</ele>
        <time>2022-05-21T12:34:25Z</time>
      </trkpt>
      <trkpt lat="46.68172" lon="5.79463">
        <ele>532.2</ele>
        <time>2022-05-21T12:34:27Z</time>
      </trkpt>
      <trkpt lat="46.68175" lon="5.79479">
        <ele>532.8</ele>
        <time>2022-05-21T12:34:29Z</time>
      </trkpt>
      <trkpt lat="46.68182" lon="5.79518">
        <ele>533.8</ele>
        <time>2022-05-21T12:34:34Z</time>
      </trkpt>
      <trkpt lat="46.68184" lon="5.79526">
        <ele>534.4</ele>
        <time>2022-05-21T12:34:35Z</time>
      </trkpt>
      <trkpt lat="46.68202" lon="5.79594">
        <ele>535.4</ele>
        <time>2022-05-21T12:34:44Z</time>
      </trkpt>
      <trkpt lat="46.68211" lon="5.79629">
        <ele>536.4</ele>
        <time>2022-05-21T12:34:49Z</time>
      </trkpt>
      <trkpt lat="46.68215" lon="5.79651">
        <ele>536.8</ele>
        <time>2022-05-21T12:34:52Z</time>
      </trkpt>
      <trkpt lat="46.68222" lon="5.79681">
        <ele>537.2</ele>
        <time>2022-05-21T12:34:56Z</time>
      </trkpt>
      <trkpt lat="46.68228" lon="5.79705">
        <ele>537.4</ele>
        <time>2022-05-21T12:34:59Z</time>
      </trkpt>
      <trkpt lat="46.6824" lon="5.79753">
        <ele>537.6</ele>
        <time>2022-05-21T12:35:05Z</time>
      </trkpt>
      <trkpt lat="46.68244" lon="5.7977">
        <ele>537.6</ele>
        <time>2022-05-21T12:35:07Z</time>
      </trkpt>
      <trkpt lat="46.6826" lon="5.79825">
        <ele>538</ele>
        <time>2022-05-21T12:35:14Z</time>
      </trkpt>
      <trkpt lat="46.68282" lon="5.79883">
        <ele>538.4</ele>
        <time>2022-05-21T12:35:22Z</time>
      </trkpt>
      <trkpt lat="46.68285" lon="5.7989">
        <ele>538.4</ele>
        <time>2022-05-21T12:35:23Z</time>
      </trkpt>
      <trkpt lat="46.68292" lon="5.79903">
        <ele>538.4</ele>
        <time>2022-05-21T12:35:25Z</time>
      </trkpt>
      <trkpt lat="46.68294" lon="5.7991">
        <ele>538.6</ele>
        <time>2022-05-21T12:35:26Z</time>
      </trkpt>
      <trkpt lat="46.68314" lon="5.79948">
        <ele>539.2</ele>
        <time>2022-05-21T12:35:32Z</time>
      </trkpt>
      <trkpt lat="46.68317" lon="5.79952">
        <ele>539.4</ele>
        <time>2022-05-21T12:35:33Z</time>
      </trkpt>
      <trkpt lat="46.68324" lon="5.79961">
        <ele>539.8</ele>
        <time>2022-05-21T12:35:35Z</time>
      </trkpt>
      <trkpt lat="46.68327" lon="5.79965">
        <ele>539.8</ele>
        <time>2022-05-21T12:35:36Z</time>
      </trkpt>
      <trkpt lat="46.68333" lon="5.79974">
        <ele>540.4</ele>
        <time>2022-05-21T12:35:38Z</time>
      </trkpt>
      <trkpt lat="46.6834" lon="5.79981">
        <ele>540.8</ele>
        <time>2022-05-21T12:35:40Z</time>
      </trkpt>
      <trkpt lat="46.68352" lon="5.79993">
        <ele>542.2</ele>
        <time>2022-05-21T12:35:44Z</time>
      </trkpt>
      <trkpt lat="46.68371" lon="5.80009">
        <ele>543</ele>
        <time>2022-05-21T12:35:50Z</time>
      </trkpt>
      <trkpt lat="46.68374" lon="5.80012">
        <ele>543.4</ele>
        <time>2022-05-21T12:35:51Z</time>
      </trkpt>
      <trkpt lat="46.6839" lon="5.80021">
        <ele>544.6</ele>
        <time>2022-05-21T12:35:56Z</time>
      </trkpt>
      <trkpt lat="46.68397" lon="5.80024">
        <ele>545</ele>
        <time>2022-05-21T12:35:58Z</time>
      </trkpt>
      <trkpt lat="46.684" lon="5.80025">
        <ele>545.4</ele>
        <time>2022-05-21T12:35:59Z</time>
      </trkpt>
      <trkpt lat="46.68414" lon="5.80026">
        <ele>546.6</ele>
        <time>2022-05-21T12:36:03Z</time>
      </trkpt>
      <trkpt lat="46.68419" lon="5.80025">
        <ele>546.6</ele>
        <time>2022-05-21T12:36:04Z</time>
      </trkpt>
      <trkpt lat="46.68436" lon="5.80023">
        <ele>547.6</ele>
        <time>2022-05-21T12:36:09Z</time>
      </trkpt>
      <trkpt lat="46.68444" lon="5.80021">
        <ele>548</ele>
        <time>2022-05-21T12:36:11Z</time>
      </trkpt>
      <trkpt lat="46.68458" lon="5.80018">
        <ele>548.6</ele>
        <time>2022-05-21T12:36:15Z</time>
      </trkpt>
      <trkpt lat="46.68466" lon="5.80014">
        <ele>549.2</ele>
        <time>2022-05-21T12:36:18Z</time>
      </trkpt>
      <trkpt lat="46.68472" lon="5.8001">
        <ele>549.8</ele>
        <time>2022-05-21T12:36:20Z</time>
      </trkpt>
      <trkpt lat="46.6848" lon="5.80005">
        <ele>550.6</ele>
        <time>2022-05-21T12:36:23Z</time>
      </trkpt>
      <trkpt lat="46.68483" lon="5.80004">
        <ele>551</ele>
        <time>2022-05-21T12:36:24Z</time>
      </trkpt>
      <trkpt lat="46.68486" lon="5.80004">
        <ele>551.4</ele>
        <time>2022-05-21T12:36:26Z</time>
      </trkpt>
      <trkpt lat="46.68489" lon="5.80004">
        <ele>551.6</ele>
        <time>2022-05-21T12:36:27Z</time>
      </trkpt>
      <trkpt lat="46.68499" lon="5.80001">
        <ele>552</ele>
        <time>2022-05-21T12:36:30Z</time>
      </trkpt>
      <trkpt lat="46.68502" lon="5.79999">
        <ele>552.2</ele>
        <time>2022-05-21T12:36:31Z</time>
      </trkpt>
      <trkpt lat="46.68513" lon="5.79996">
        <ele>552.8</ele>
        <time>2022-05-21T12:36:35Z</time>
      </trkpt>
      <trkpt lat="46.68524" lon="5.79991">
        <ele>553.8</ele>
        <time>2022-05-21T12:36:39Z</time>
      </trkpt>
      <trkpt lat="46.68527" lon="5.79989">
        <ele>554</ele>
        <time>2022-05-21T12:36:40Z</time>
      </trkpt>
      <trkpt lat="46.68539" lon="5.79985">
        <ele>554.8</ele>
        <time>2022-05-21T12:36:44Z</time>
      </trkpt>
      <trkpt lat="46.68546" lon="5.79987">
        <ele>555.2</ele>
        <time>2022-05-21T12:36:46Z</time>
      </trkpt>
      <trkpt lat="46.68559" lon="5.79984">
        <ele>555.8</ele>
        <time>2022-05-21T12:36:49Z</time>
      </trkpt>
      <trkpt lat="46.68562" lon="5.79984">
        <ele>556.2</ele>
        <time>2022-05-21T12:36:50Z</time>
      </trkpt>
      <trkpt lat="46.68576" lon="5.79983">
        <ele>557</ele>
        <time>2022-05-21T12:36:54Z</time>
      </trkpt>
      <trkpt lat="46.68579" lon="5.79984">
        <ele>557.2</ele>
        <time>2022-05-21T12:36:55Z</time>
      </trkpt>
      <trkpt lat="46.68581" lon="5.79985">
        <ele>557.4</ele>
        <time>2022-05-21T12:36:56Z</time>
      </trkpt>
      <trkpt lat="46.68595" lon="5.79989">
        <ele>558</ele>
        <time>2022-05-21T12:37:00Z</time>
      </trkpt>
      <trkpt lat="46.68605" lon="5.79992">
        <ele>558.6</ele>
        <time>2022-05-21T12:37:02Z</time>
      </trkpt>
      <trkpt lat="46.68614" lon="5.80002">
        <ele>559.6</ele>
        <time>2022-05-21T12:37:06Z</time>
      </trkpt>
      <trkpt lat="46.68617" lon="5.80004">
        <ele>559.8</ele>
        <time>2022-05-21T12:37:07Z</time>
      </trkpt>
      <trkpt lat="46.68621" lon="5.8">
        <ele>560</ele>
        <time>2022-05-21T12:37:08Z</time>
      </trkpt>
      <trkpt lat="46.68636" lon="5.80013">
        <ele>561</ele>
        <time>2022-05-21T12:37:13Z</time>
      </trkpt>
      <trkpt lat="46.68649" lon="5.80025">
        <ele>561.8</ele>
        <time>2022-05-21T12:37:18Z</time>
      </trkpt>
      <trkpt lat="46.68652" lon="5.80028">
        <ele>562</ele>
        <time>2022-05-21T12:37:19Z</time>
      </trkpt>
      <trkpt lat="46.68669" lon="5.80041">
        <ele>562.8</ele>
        <time>2022-05-21T12:37:25Z</time>
      </trkpt>
      <trkpt lat="46.6867" lon="5.80043">
        <ele>562.8</ele>
        <time>2022-05-21T12:37:26Z</time>
      </trkpt>
      <trkpt lat="46.68681" lon="5.80054">
        <ele>564</ele>
        <time>2022-05-21T12:37:30Z</time>
      </trkpt>
      <trkpt lat="46.68686" lon="5.8006">
        <ele>564.4</ele>
        <time>2022-05-21T12:37:32Z</time>
      </trkpt>
      <trkpt lat="46.68694" lon="5.80071">
        <ele>565.2</ele>
        <time>2022-05-21T12:37:35Z</time>
      </trkpt>
      <trkpt lat="46.68696" lon="5.80079">
        <ele>565.8</ele>
        <time>2022-05-21T12:37:37Z</time>
      </trkpt>
      <trkpt lat="46.68692" lon="5.80088">
        <ele>566</ele>
        <time>2022-05-21T12:37:39Z</time>
      </trkpt>
      <trkpt lat="46.68689" lon="5.80094">
        <ele>566.4</ele>
        <time>2022-05-21T12:37:41Z</time>
      </trkpt>
      <trkpt lat="46.68684" lon="5.80096">
        <ele>566.6</ele>
        <time>2022-05-21T12:37:43Z</time>
      </trkpt>
      <trkpt lat="46.68679" lon="5.80095">
        <ele>566.8</ele>
        <time>2022-05-21T12:37:45Z</time>
      </trkpt>
      <trkpt lat="46.6867" lon="5.80087">
        <ele>567.4</ele>
        <time>2022-05-21T12:37:48Z</time>
      </trkpt>
      <trkpt lat="46.68665" lon="5.80084">
        <ele>567.6</ele>
        <time>2022-05-21T12:37:50Z</time>
      </trkpt>
      <trkpt lat="46.68658" lon="5.80082">
        <ele>568.4</ele>
        <time>2022-05-21T12:37:52Z</time>
      </trkpt>
      <trkpt lat="46.68647" lon="5.80079">
        <ele>569.2</ele>
        <time>2022-05-21T12:37:56Z</time>
      </trkpt>
      <trkpt lat="46.68633" lon="5.80081">
        <ele>570</ele>
        <time>2022-05-21T12:38:00Z</time>
      </trkpt>
      <trkpt lat="46.68631" lon="5.80081">
        <ele>570.4</ele>
        <time>2022-05-21T12:38:01Z</time>
      </trkpt>
      <trkpt lat="46.68628" lon="5.80081">
        <ele>570.6</ele>
        <time>2022-05-21T12:38:02Z</time>
      </trkpt>
      <trkpt lat="46.68619" lon="5.80085">
        <ele>571.4</ele>
        <time>2022-05-21T12:38:05Z</time>
      </trkpt>
      <trkpt lat="46.68613" lon="5.8009">
        <ele>571.8</ele>
        <time>2022-05-21T12:38:07Z</time>
      </trkpt>
      <trkpt lat="46.68595" lon="5.80103">
        <ele>572.4</ele>
        <time>2022-05-21T12:38:12Z</time>
      </trkpt>
      <trkpt lat="46.6859" lon="5.80108">
        <ele>572.8</ele>
        <time>2022-05-21T12:38:14Z</time>
      </trkpt>
      <trkpt lat="46.68584" lon="5.80118">
        <ele>573.2</ele>
        <time>2022-05-21T12:38:16Z</time>
      </trkpt>
      <trkpt lat="46.68581" lon="5.80121">
        <ele>573.6</ele>
        <time>2022-05-21T12:38:17Z</time>
      </trkpt>
      <trkpt lat="46.68567" lon="5.80141">
        <ele>574.6</ele>
        <time>2022-05-21T12:38:22Z</time>
      </trkpt>
      <trkpt lat="46.68565" lon="5.80145">
        <ele>574.8</ele>
        <time>2022-05-21T12:38:23Z</time>
      </trkpt>
      <trkpt lat="46.68557" lon="5.80165">
        <ele>575.8</ele>
        <time>2022-05-21T12:38:27Z</time>
      </trkpt>
      <trkpt lat="46.68552" lon="5.80181">
        <ele>576.6</ele>
        <time>2022-05-21T12:38:30Z</time>
      </trkpt>
      <trkpt lat="46.68551" lon="5.80186">
        <ele>576.8</ele>
        <time>2022-05-21T12:38:31Z</time>
      </trkpt>
      <trkpt lat="46.68548" lon="5.80195">
        <ele>577.2</ele>
        <time>2022-05-21T12:38:33Z</time>
      </trkpt>
      <trkpt lat="46.68543" lon="5.80212">
        <ele>577.8</ele>
        <time>2022-05-21T12:38:37Z</time>
      </trkpt>
      <trkpt lat="46.68537" lon="5.8023">
        <ele>578.8</ele>
        <time>2022-05-21T12:38:41Z</time>
      </trkpt>
      <trkpt lat="46.68531" lon="5.80252">
        <ele>579.4</ele>
        <time>2022-05-21T12:38:46Z</time>
      </trkpt>
      <trkpt lat="46.68526" lon="5.8027">
        <ele>579.8</ele>
        <time>2022-05-21T12:38:50Z</time>
      </trkpt>
      <trkpt lat="46.68522" lon="5.8029">
        <ele>581.2</ele>
        <time>2022-05-21T12:38:54Z</time>
      </trkpt>
      <trkpt lat="46.68517" lon="5.80313">
        <ele>582.4</ele>
        <time>2022-05-21T12:38:59Z</time>
      </trkpt>
      <trkpt lat="46.68515" lon="5.80323">
        <ele>583</ele>
        <time>2022-05-21T12:39:01Z</time>
      </trkpt>
      <trkpt lat="46.68511" lon="5.80331">
        <ele>583.4</ele>
        <time>2022-05-21T12:39:03Z</time>
      </trkpt>
      <trkpt lat="46.68504" lon="5.80349">
        <ele>584.4</ele>
        <time>2022-05-21T12:39:07Z</time>
      </trkpt>
      <trkpt lat="46.685" lon="5.80356">
        <ele>584.6</ele>
        <time>2022-05-21T12:39:09Z</time>
      </trkpt>
      <trkpt lat="46.68491" lon="5.80371">
        <ele>585.6</ele>
        <time>2022-05-21T12:39:13Z</time>
      </trkpt>
      <trkpt lat="46.68482" lon="5.80382">
        <ele>586.2</ele>
        <time>2022-05-21T12:39:17Z</time>
      </trkpt>
      <trkpt lat="46.68478" lon="5.80387">
        <ele>586.8</ele>
        <time>2022-05-21T12:39:19Z</time>
      </trkpt>
      <trkpt lat="46.68471" lon="5.80396">
        <ele>587.8</ele>
        <time>2022-05-21T12:39:22Z</time>
      </trkpt>
      <trkpt lat="46.6847" lon="5.804">
        <ele>587.8</ele>
        <time>2022-05-21T12:39:23Z</time>
      </trkpt>
      <trkpt lat="46.68462" lon="5.80418">
        <ele>588.6</ele>
        <time>2022-05-21T12:39:27Z</time>
      </trkpt>
      <trkpt lat="46.68458" lon="5.80429">
        <ele>589</ele>
        <time>2022-05-21T12:39:29Z</time>
      </trkpt>
      <trkpt lat="46.68455" lon="5.80447">
        <ele>589.6</ele>
        <time>2022-05-21T12:39:32Z</time>
      </trkpt>
      <trkpt lat="46.68455" lon="5.80453">
        <ele>590.2</ele>
        <time>2022-05-21T12:39:33Z</time>
      </trkpt>
      <trkpt lat="46.68457" lon="5.80474">
        <ele>591.2</ele>
        <time>2022-05-21T12:39:37Z</time>
      </trkpt>
      <trkpt lat="46.68457" lon="5.80479">
        <ele>591.4</ele>
        <time>2022-05-21T12:39:38Z</time>
      </trkpt>
      <trkpt lat="46.68458" lon="5.80493">
        <ele>591.8</ele>
        <time>2022-05-21T12:39:41Z</time>
      </trkpt>
      <trkpt lat="46.68459" lon="5.80502">
        <ele>592.6</ele>
        <time>2022-05-21T12:39:43Z</time>
      </trkpt>
      <trkpt lat="46.6846" lon="5.80507">
        <ele>592.6</ele>
        <time>2022-05-21T12:39:44Z</time>
      </trkpt>
      <trkpt lat="46.68465" lon="5.80526">
        <ele>593.8</ele>
        <time>2022-05-21T12:39:48Z</time>
      </trkpt>
      <trkpt lat="46.68469" lon="5.80536">
        <ele>594.2</ele>
        <time>2022-05-21T12:39:50Z</time>
      </trkpt>
      <trkpt lat="46.68476" lon="5.80563">
        <ele>595</ele>
        <time>2022-05-21T12:39:55Z</time>
      </trkpt>
      <trkpt lat="46.6848" lon="5.80574">
        <ele>595.2</ele>
        <time>2022-05-21T12:39:57Z</time>
      </trkpt>
      <trkpt lat="46.68492" lon="5.80616">
        <ele>595.2</ele>
        <time>2022-05-21T12:40:04Z</time>
      </trkpt>
      <trkpt lat="46.68496" lon="5.80635">
        <ele>595.6</ele>
        <time>2022-05-21T12:40:07Z</time>
      </trkpt>
      <trkpt lat="46.68499" lon="5.80647">
        <ele>595.8</ele>
        <time>2022-05-21T12:40:09Z</time>
      </trkpt>
      <trkpt lat="46.68502" lon="5.80659">
        <ele>596</ele>
        <time>2022-05-21T12:40:11Z</time>
      </trkpt>
      <trkpt lat="46.68509" lon="5.80683">
        <ele>596.4</ele>
        <time>2022-05-21T12:40:15Z</time>
      </trkpt>
      <trkpt lat="46.68513" lon="5.807">
        <ele>597</ele>
        <time>2022-05-21T12:40:18Z</time>
      </trkpt>
      <trkpt lat="46.6852" lon="5.80728">
        <ele>597.8</ele>
        <time>2022-05-21T12:40:23Z</time>
      </trkpt>
      <trkpt lat="46.68522" lon="5.80739">
        <ele>598</ele>
        <time>2022-05-21T12:40:25Z</time>
      </trkpt>
      <trkpt lat="46.68527" lon="5.80765">
        <ele>599.2</ele>
        <time>2022-05-21T12:40:30Z</time>
      </trkpt>
      <trkpt lat="46.68528" lon="5.80769">
        <ele>599.6</ele>
        <time>2022-05-21T12:40:31Z</time>
      </trkpt>
      <trkpt lat="46.68531" lon="5.80783">
        <ele>600.6</ele>
        <time>2022-05-21T12:40:34Z</time>
      </trkpt>
      <trkpt lat="46.68534" lon="5.80792">
        <ele>601.2</ele>
        <time>2022-05-21T12:40:36Z</time>
      </trkpt>
      <trkpt lat="46.68536" lon="5.80802">
        <ele>601.6</ele>
        <time>2022-05-21T12:40:38Z</time>
      </trkpt>
      <trkpt lat="46.68541" lon="5.80822">
        <ele>603</ele>
        <time>2022-05-21T12:40:42Z</time>
      </trkpt>
      <trkpt lat="46.68546" lon="5.80838">
        <ele>604</ele>
        <time>2022-05-21T12:40:45Z</time>
      </trkpt>
      <trkpt lat="46.68552" lon="5.80857">
        <ele>604.2</ele>
        <time>2022-05-21T12:40:49Z</time>
      </trkpt>
      <trkpt lat="46.68555" lon="5.80867">
        <ele>604.8</ele>
        <time>2022-05-21T12:40:51Z</time>
      </trkpt>
      <trkpt lat="46.68561" lon="5.8089">
        <ele>605.6</ele>
        <time>2022-05-21T12:40:55Z</time>
      </trkpt>
      <trkpt lat="46.68562" lon="5.80895">
        <ele>605.8</ele>
        <time>2022-05-21T12:40:56Z</time>
      </trkpt>
      <trkpt lat="46.68572" lon="5.80927">
        <ele>607</ele>
        <time>2022-05-21T12:41:02Z</time>
      </trkpt>
      <trkpt lat="46.6858" lon="5.80957">
        <ele>607.6</ele>
        <time>2022-05-21T12:41:07Z</time>
      </trkpt>
      <trkpt lat="46.68584" lon="5.8097">
        <ele>608</ele>
        <time>2022-05-21T12:41:09Z</time>
      </trkpt>
      <trkpt lat="46.6859" lon="5.80992">
        <ele>608.4</ele>
        <time>2022-05-21T12:41:12Z</time>
      </trkpt>
      <trkpt lat="46.68598" lon="5.81024">
        <ele>609.2</ele>
        <time>2022-05-21T12:41:16Z</time>
      </trkpt>
      <trkpt lat="46.68603" lon="5.81041">
        <ele>609.4</ele>
        <time>2022-05-21T12:41:18Z</time>
      </trkpt>
      <trkpt lat="46.68618" lon="5.81098">
        <ele>609.2</ele>
        <time>2022-05-21T12:41:24Z</time>
      </trkpt>
      <trkpt lat="46.68638" lon="5.81169">
        <ele>608.4</ele>
        <time>2022-05-21T12:41:31Z</time>
      </trkpt>
      <trkpt lat="46.6864" lon="5.81177">
        <ele>608</ele>
        <time>2022-05-21T12:41:32Z</time>
      </trkpt>
      <trkpt lat="46.68657" lon="5.81242">
        <ele>607.2</ele>
        <time>2022-05-21T12:41:38Z</time>
      </trkpt>
      <trkpt lat="46.68672" lon="5.81305">
        <ele>607.4</ele>
        <time>2022-05-21T12:41:44Z</time>
      </trkpt>
      <trkpt lat="46.68675" lon="5.81316">
        <ele>607.4</ele>
        <time>2022-05-21T12:41:45Z</time>
      </trkpt>
      <trkpt lat="46.68692" lon="5.81384">
        <ele>606.8</ele>
        <time>2022-05-21T12:41:51Z</time>
      </trkpt>
      <trkpt lat="46.68696" lon="5.81398">
        <ele>606.8</ele>
        <time>2022-05-21T12:41:52Z</time>
      </trkpt>
      <trkpt lat="46.68702" lon="5.81418">
        <ele>606.4</ele>
        <time>2022-05-21T12:41:54Z</time>
      </trkpt>
      <trkpt lat="46.68706" lon="5.8144">
        <ele>606.4</ele>
        <time>2022-05-21T12:41:56Z</time>
      </trkpt>
      <trkpt lat="46.6872" lon="5.81495">
        <ele>606.4</ele>
        <time>2022-05-21T12:42:01Z</time>
      </trkpt>
      <trkpt lat="46.6874" lon="5.81573">
        <ele>607</ele>
        <time>2022-05-21T12:42:08Z</time>
      </trkpt>
      <trkpt lat="46.68743" lon="5.81585">
        <ele>606.6</ele>
        <time>2022-05-21T12:42:09Z</time>
      </trkpt>
      <trkpt lat="46.68755" lon="5.81641">
        <ele>606.2</ele>
        <time>2022-05-21T12:42:14Z</time>
      </trkpt>
      <trkpt lat="46.68766" lon="5.81692">
        <ele>606</ele>
        <time>2022-05-21T12:42:19Z</time>
      </trkpt>
      <trkpt lat="46.68768" lon="5.81701">
        <ele>606</ele>
        <time>2022-05-21T12:42:20Z</time>
      </trkpt>
      <trkpt lat="46.68771" lon="5.81717">
        <ele>606</ele>
        <time>2022-05-21T12:42:22Z</time>
      </trkpt>
      <trkpt lat="46.68776" lon="5.81731">
        <ele>606.6</ele>
        <time>2022-05-21T12:42:24Z</time>
      </trkpt>
      <trkpt lat="46.68778" lon="5.81739">
        <ele>606.8</ele>
        <time>2022-05-21T12:42:25Z</time>
      </trkpt>
      <trkpt lat="46.68785" lon="5.81766">
        <ele>608</ele>
        <time>2022-05-21T12:42:28Z</time>
      </trkpt>
      <trkpt lat="46.68787" lon="5.81774">
        <ele>608</ele>
        <time>2022-05-21T12:42:29Z</time>
      </trkpt>
      <trkpt lat="46.68796" lon="5.81818">
        <ele>608.6</ele>
        <time>2022-05-21T12:42:34Z</time>
      </trkpt>
      <trkpt lat="46.68804" lon="5.81885">
        <ele>608.6</ele>
        <time>2022-05-21T12:42:41Z</time>
      </trkpt>
      <trkpt lat="46.68806" lon="5.81903">
        <ele>608.6</ele>
        <time>2022-05-21T12:42:43Z</time>
      </trkpt>
      <trkpt lat="46.68809" lon="5.81932">
        <ele>608.8</ele>
        <time>2022-05-21T12:42:46Z</time>
      </trkpt>
      <trkpt lat="46.68807" lon="5.81955">
        <ele>608.6</ele>
        <time>2022-05-21T12:42:48Z</time>
      </trkpt>
      <trkpt lat="46.68802" lon="5.81965">
        <ele>608.6</ele>
        <time>2022-05-21T12:42:49Z</time>
      </trkpt>
      <trkpt lat="46.68775" lon="5.82019">
        <ele>607.6</ele>
        <time>2022-05-21T12:42:54Z</time>
      </trkpt>
      <trkpt lat="46.68759" lon="5.82051">
        <ele>606.6</ele>
        <time>2022-05-21T12:42:57Z</time>
      </trkpt>
      <trkpt lat="46.68744" lon="5.82079">
        <ele>605.6</ele>
        <time>2022-05-21T12:43:00Z</time>
      </trkpt>
      <trkpt lat="46.68737" lon="5.82086">
        <ele>605.6</ele>
        <time>2022-05-21T12:43:01Z</time>
      </trkpt>
      <trkpt lat="46.6873" lon="5.82092">
        <ele>605.4</ele>
        <time>2022-05-21T12:43:02Z</time>
      </trkpt>
      <trkpt lat="46.68723" lon="5.82097">
        <ele>605.6</ele>
        <time>2022-05-21T12:43:03Z</time>
      </trkpt>
      <trkpt lat="46.68682" lon="5.82123">
        <ele>605.6</ele>
        <time>2022-05-21T12:43:09Z</time>
      </trkpt>
      <trkpt lat="46.68651" lon="5.8214">
        <ele>606</ele>
        <time>2022-05-21T12:43:14Z</time>
      </trkpt>
      <trkpt lat="46.68596" lon="5.82163">
        <ele>606</ele>
        <time>2022-05-21T12:43:22Z</time>
      </trkpt>
      <trkpt lat="46.68558" lon="5.82172">
        <ele>606.4</ele>
        <time>2022-05-21T12:43:28Z</time>
      </trkpt>
      <trkpt lat="46.68552" lon="5.82172">
        <ele>606.8</ele>
        <time>2022-05-21T12:43:29Z</time>
      </trkpt>
      <trkpt lat="46.68526" lon="5.82175">
        <ele>607.6</ele>
        <time>2022-05-21T12:43:33Z</time>
      </trkpt>
      <trkpt lat="46.68506" lon="5.82177">
        <ele>607.8</ele>
        <time>2022-05-21T12:43:36Z</time>
      </trkpt>
      <trkpt lat="46.68471" lon="5.82179">
        <ele>607.6</ele>
        <time>2022-05-21T12:43:41Z</time>
      </trkpt>
      <trkpt lat="46.68437" lon="5.82183">
        <ele>607.6</ele>
        <time>2022-05-21T12:43:46Z</time>
      </trkpt>
      <trkpt lat="46.6842" lon="5.82185">
        <ele>607.8</ele>
        <time>2022-05-21T12:43:49Z</time>
      </trkpt>
      <trkpt lat="46.68415" lon="5.82186">
        <ele>608</ele>
        <time>2022-05-21T12:43:50Z</time>
      </trkpt>
      <trkpt lat="46.68398" lon="5.82197">
        <ele>608.6</ele>
        <time>2022-05-21T12:43:53Z</time>
      </trkpt>
      <trkpt lat="46.68393" lon="5.82204">
        <ele>609.2</ele>
        <time>2022-05-21T12:43:54Z</time>
      </trkpt>
      <trkpt lat="46.68371" lon="5.82229">
        <ele>610</ele>
        <time>2022-05-21T12:43:58Z</time>
      </trkpt>
      <trkpt lat="46.68356" lon="5.82246">
        <ele>610.2</ele>
        <time>2022-05-21T12:44:01Z</time>
      </trkpt>
      <trkpt lat="46.68335" lon="5.82269">
        <ele>610.4</ele>
        <time>2022-05-21T12:44:05Z</time>
      </trkpt>
      <trkpt lat="46.68306" lon="5.82305">
        <ele>610.8</ele>
        <time>2022-05-21T12:44:11Z</time>
      </trkpt>
      <trkpt lat="46.68287" lon="5.8233">
        <ele>611.2</ele>
        <time>2022-05-21T12:44:15Z</time>
      </trkpt>
      <trkpt lat="46.68264" lon="5.82358">
        <ele>611.4</ele>
        <time>2022-05-21T12:44:20Z</time>
      </trkpt>
      <trkpt lat="46.68228" lon="5.82411">
        <ele>612.2</ele>
        <time>2022-05-21T12:44:28Z</time>
      </trkpt>
      <trkpt lat="46.68222" lon="5.82418">
        <ele>612.2</ele>
        <time>2022-05-21T12:44:29Z</time>
      </trkpt>
      <trkpt lat="46.6821" lon="5.82428">
        <ele>612.2</ele>
        <time>2022-05-21T12:44:31Z</time>
      </trkpt>
      <trkpt lat="46.68203" lon="5.82431">
        <ele>612</ele>
        <time>2022-05-21T12:44:32Z</time>
      </trkpt>
      <trkpt lat="46.68195" lon="5.8243">
        <ele>612</ele>
        <time>2022-05-21T12:44:33Z</time>
      </trkpt>
      <trkpt lat="46.6818" lon="5.82425">
        <ele>611.6</ele>
        <time>2022-05-21T12:44:35Z</time>
      </trkpt>
      <trkpt lat="46.68158" lon="5.82416">
        <ele>610.8</ele>
        <time>2022-05-21T12:44:38Z</time>
      </trkpt>
      <trkpt lat="46.68143" lon="5.82415">
        <ele>610.4</ele>
        <time>2022-05-21T12:44:40Z</time>
      </trkpt>
      <trkpt lat="46.68136" lon="5.82415">
        <ele>610</ele>
        <time>2022-05-21T12:44:41Z</time>
      </trkpt>
      <trkpt lat="46.68099" lon="5.82425">
        <ele>609.8</ele>
        <time>2022-05-21T12:44:46Z</time>
      </trkpt>
      <trkpt lat="46.68056" lon="5.82428">
        <ele>609.6</ele>
        <time>2022-05-21T12:44:52Z</time>
      </trkpt>
      <trkpt lat="46.68019" lon="5.82414">
        <ele>609.4</ele>
        <time>2022-05-21T12:44:57Z</time>
      </trkpt>
      <trkpt lat="46.67999" lon="5.824">
        <ele>609</ele>
        <time>2022-05-21T12:45:00Z</time>
      </trkpt>
      <trkpt lat="46.67981" lon="5.82382">
        <ele>609</ele>
        <time>2022-05-21T12:45:03Z</time>
      </trkpt>
      <trkpt lat="46.67949" lon="5.82344">
        <ele>609.4</ele>
        <time>2022-05-21T12:45:09Z</time>
      </trkpt>
      <trkpt lat="46.67919" lon="5.82309">
        <ele>610</ele>
        <time>2022-05-21T12:45:15Z</time>
      </trkpt>
      <trkpt lat="46.67913" lon="5.82303">
        <ele>610.2</ele>
        <time>2022-05-21T12:45:16Z</time>
      </trkpt>
      <trkpt lat="46.67889" lon="5.82277">
        <ele>610.2</ele>
        <time>2022-05-21T12:45:20Z</time>
      </trkpt>
      <trkpt lat="46.67853" lon="5.82248">
        <ele>610</ele>
        <time>2022-05-21T12:45:25Z</time>
      </trkpt>
      <trkpt lat="46.67812" lon="5.82238">
        <ele>609</ele>
        <time>2022-05-21T12:45:30Z</time>
      </trkpt>
      <trkpt lat="46.67769" lon="5.82252">
        <ele>608.2</ele>
        <time>2022-05-21T12:45:35Z</time>
      </trkpt>
      <trkpt lat="46.67761" lon="5.82258">
        <ele>608</ele>
        <time>2022-05-21T12:45:36Z</time>
      </trkpt>
      <trkpt lat="46.67734" lon="5.82283">
        <ele>606.8</ele>
        <time>2022-05-21T12:45:39Z</time>
      </trkpt>
      <trkpt lat="46.67717" lon="5.82302">
        <ele>605.8</ele>
        <time>2022-05-21T12:45:41Z</time>
      </trkpt>
      <trkpt lat="46.67708" lon="5.8231">
        <ele>604.6</ele>
        <time>2022-05-21T12:45:42Z</time>
      </trkpt>
      <trkpt lat="46.6769" lon="5.82327">
        <ele>602.8</ele>
        <time>2022-05-21T12:45:44Z</time>
      </trkpt>
      <trkpt lat="46.67681" lon="5.82335">
        <ele>602.2</ele>
        <time>2022-05-21T12:45:45Z</time>
      </trkpt>
      <trkpt lat="46.67665" lon="5.82351">
        <ele>601.4</ele>
        <time>2022-05-21T12:45:47Z</time>
      </trkpt>
      <trkpt lat="46.67645" lon="5.82375">
        <ele>600.6</ele>
        <time>2022-05-21T12:45:50Z</time>
      </trkpt>
      <trkpt lat="46.67616" lon="5.82412">
        <ele>601</ele>
        <time>2022-05-21T12:45:55Z</time>
      </trkpt>
      <trkpt lat="46.676" lon="5.82433">
        <ele>601.6</ele>
        <time>2022-05-21T12:45:58Z</time>
      </trkpt>
      <trkpt lat="46.67587" lon="5.82445">
        <ele>602</ele>
        <time>2022-05-21T12:46:00Z</time>
      </trkpt>
      <trkpt lat="46.6758" lon="5.8245">
        <ele>601.8</ele>
        <time>2022-05-21T12:46:01Z</time>
      </trkpt>
      <trkpt lat="46.67564" lon="5.82454">
        <ele>601.8</ele>
        <time>2022-05-21T12:46:03Z</time>
      </trkpt>
      <trkpt lat="46.67548" lon="5.8245">
        <ele>601.4</ele>
        <time>2022-05-21T12:46:05Z</time>
      </trkpt>
      <trkpt lat="46.6754" lon="5.82446">
        <ele>601.4</ele>
        <time>2022-05-21T12:46:06Z</time>
      </trkpt>
      <trkpt lat="46.67517" lon="5.82432">
        <ele>600</ele>
        <time>2022-05-21T12:46:09Z</time>
      </trkpt>
      <trkpt lat="46.67496" lon="5.82418">
        <ele>599.4</ele>
        <time>2022-05-21T12:46:12Z</time>
      </trkpt>
      <trkpt lat="46.67482" lon="5.8241">
        <ele>599</ele>
        <time>2022-05-21T12:46:14Z</time>
      </trkpt>
      <trkpt lat="46.67454" lon="5.82401">
        <ele>599.4</ele>
        <time>2022-05-21T12:46:18Z</time>
      </trkpt>
      <trkpt lat="46.6744" lon="5.82402">
        <ele>599.8</ele>
        <time>2022-05-21T12:46:20Z</time>
      </trkpt>
      <trkpt lat="46.67426" lon="5.82408">
        <ele>600</ele>
        <time>2022-05-21T12:46:22Z</time>
      </trkpt>
      <trkpt lat="46.67397" lon="5.82417">
        <ele>600.2</ele>
        <time>2022-05-21T12:46:26Z</time>
      </trkpt>
      <trkpt lat="46.67382" lon="5.8242">
        <ele>599.8</ele>
        <time>2022-05-21T12:46:28Z</time>
      </trkpt>
      <trkpt lat="46.67374" lon="5.82419">
        <ele>599.8</ele>
        <time>2022-05-21T12:46:29Z</time>
      </trkpt>
      <trkpt lat="46.67366" lon="5.82417">
        <ele>599.6</ele>
        <time>2022-05-21T12:46:30Z</time>
      </trkpt>
      <trkpt lat="46.67342" lon="5.82407">
        <ele>599</ele>
        <time>2022-05-21T12:46:33Z</time>
      </trkpt>
      <trkpt lat="46.67333" lon="5.82403">
        <ele>598.6</ele>
        <time>2022-05-21T12:46:34Z</time>
      </trkpt>
      <trkpt lat="46.67316" lon="5.82398">
        <ele>597.8</ele>
        <time>2022-05-21T12:46:36Z</time>
      </trkpt>
      <trkpt lat="46.67299" lon="5.82397">
        <ele>596.8</ele>
        <time>2022-05-21T12:46:38Z</time>
      </trkpt>
      <trkpt lat="46.6729" lon="5.82398">
        <ele>596.8</ele>
        <time>2022-05-21T12:46:39Z</time>
      </trkpt>
      <trkpt lat="46.67249" lon="5.824">
        <ele>596.2</ele>
        <time>2022-05-21T12:46:44Z</time>
      </trkpt>
      <trkpt lat="46.67192" lon="5.82399">
        <ele>595.6</ele>
        <time>2022-05-21T12:46:51Z</time>
      </trkpt>
      <trkpt lat="46.67159" lon="5.82396">
        <ele>594.6</ele>
        <time>2022-05-21T12:46:55Z</time>
      </trkpt>
      <trkpt lat="46.67121" lon="5.82391">
        <ele>594</ele>
        <time>2022-05-21T12:47:00Z</time>
      </trkpt>
      <trkpt lat="46.67084" lon="5.82391">
        <ele>593.6</ele>
        <time>2022-05-21T12:47:05Z</time>
      </trkpt>
      <trkpt lat="46.67077" lon="5.82392">
        <ele>593.6</ele>
        <time>2022-05-21T12:47:06Z</time>
      </trkpt>
      <trkpt lat="46.67032" lon="5.82391">
        <ele>593</ele>
        <time>2022-05-21T12:47:12Z</time>
      </trkpt>
      <trkpt lat="46.6702" lon="5.82383">
        <ele>593</ele>
        <time>2022-05-21T12:47:14Z</time>
      </trkpt>
      <trkpt lat="46.67015" lon="5.82376">
        <ele>593</ele>
        <time>2022-05-21T12:47:15Z</time>
      </trkpt>
      <trkpt lat="46.66987" lon="5.8234">
        <ele>593.6</ele>
        <time>2022-05-21T12:47:21Z</time>
      </trkpt>
      <trkpt lat="46.66954" lon="5.82302">
        <ele>594.6</ele>
        <time>2022-05-21T12:47:28Z</time>
      </trkpt>
      <trkpt lat="46.6695" lon="5.82297">
        <ele>594.8</ele>
        <time>2022-05-21T12:47:29Z</time>
      </trkpt>
      <trkpt lat="46.66942" lon="5.82287">
        <ele>595.4</ele>
        <time>2022-05-21T12:47:31Z</time>
      </trkpt>
      <trkpt lat="46.66939" lon="5.82283">
        <ele>595.4</ele>
        <time>2022-05-21T12:47:32Z</time>
      </trkpt>
      <trkpt lat="46.66935" lon="5.82279">
        <ele>595.6</ele>
        <time>2022-05-21T12:47:33Z</time>
      </trkpt>
      <trkpt lat="46.66931" lon="5.82276">
        <ele>596</ele>
        <time>2022-05-21T12:47:34Z</time>
      </trkpt>
      <trkpt lat="46.66918" lon="5.82264">
        <ele>596</ele>
        <time>2022-05-21T12:47:38Z</time>
      </trkpt>
      <trkpt lat="46.6689" lon="5.82247">
        <ele>595.2</ele>
        <time>2022-05-21T12:47:46Z</time>
      </trkpt>
      <trkpt lat="46.66875" lon="5.82247">
        <ele>594.8</ele>
        <time>2022-05-21T12:47:50Z</time>
      </trkpt>
      <trkpt lat="46.66852" lon="5.82247">
        <ele>594</ele>
        <time>2022-05-21T12:47:56Z</time>
      </trkpt>
      <trkpt lat="46.66848" lon="5.82249">
        <ele>593.4</ele>
        <time>2022-05-21T12:47:57Z</time>
      </trkpt>
      <trkpt lat="46.66843" lon="5.82252">
        <ele>593.2</ele>
        <time>2022-05-21T12:47:58Z</time>
      </trkpt>
      <trkpt lat="46.6683" lon="5.82265">
        <ele>592.2</ele>
        <time>2022-05-21T12:48:01Z</time>
      </trkpt>
      <trkpt lat="46.66816" lon="5.82279">
        <ele>591.2</ele>
        <time>2022-05-21T12:48:04Z</time>
      </trkpt>
      <trkpt lat="46.66811" lon="5.82284">
        <ele>591</ele>
        <time>2022-05-21T12:48:05Z</time>
      </trkpt>
      <trkpt lat="46.66805" lon="5.82287">
        <ele>591</ele>
        <time>2022-05-21T12:48:06Z</time>
      </trkpt>
      <trkpt lat="46.6679" lon="5.82299">
        <ele>590.8</ele>
        <time>2022-05-21T12:48:09Z</time>
      </trkpt>
      <trkpt lat="46.6678" lon="5.82311">
        <ele>590.6</ele>
        <time>2022-05-21T12:48:11Z</time>
      </trkpt>
      <trkpt lat="46.66749" lon="5.82351">
        <ele>590</ele>
        <time>2022-05-21T12:48:17Z</time>
      </trkpt>
      <trkpt lat="46.66704" lon="5.82396">
        <ele>589.4</ele>
        <time>2022-05-21T12:48:24Z</time>
      </trkpt>
      <trkpt lat="46.66693" lon="5.8241">
        <ele>589</ele>
        <time>2022-05-21T12:48:26Z</time>
      </trkpt>
      <trkpt lat="46.66658" lon="5.82447">
        <ele>588.8</ele>
        <time>2022-05-21T12:48:32Z</time>
      </trkpt>
      <trkpt lat="46.66618" lon="5.82485">
        <ele>589.6</ele>
        <time>2022-05-21T12:48:39Z</time>
      </trkpt>
      <trkpt lat="46.66594" lon="5.82498">
        <ele>590.2</ele>
        <time>2022-05-21T12:48:43Z</time>
      </trkpt>
      <trkpt lat="46.66588" lon="5.825">
        <ele>590.4</ele>
        <time>2022-05-21T12:48:44Z</time>
      </trkpt>
      <trkpt lat="46.66571" lon="5.82509">
        <ele>591.2</ele>
        <time>2022-05-21T12:48:47Z</time>
      </trkpt>
      <trkpt lat="46.66565" lon="5.82513">
        <ele>591.4</ele>
        <time>2022-05-21T12:48:48Z</time>
      </trkpt>
      <trkpt lat="46.66559" lon="5.82518">
        <ele>591.4</ele>
        <time>2022-05-21T12:48:49Z</time>
      </trkpt>
      <trkpt lat="46.66527" lon="5.82547">
        <ele>591.6</ele>
        <time>2022-05-21T12:48:54Z</time>
      </trkpt>
      <trkpt lat="46.66511" lon="5.82556">
        <ele>591.6</ele>
        <time>2022-05-21T12:48:56Z</time>
      </trkpt>
      <trkpt lat="46.66487" lon="5.82566">
        <ele>591</ele>
        <time>2022-05-21T12:48:59Z</time>
      </trkpt>
      <trkpt lat="46.66471" lon="5.82571">
        <ele>590.4</ele>
        <time>2022-05-21T12:49:01Z</time>
      </trkpt>
      <trkpt lat="46.66462" lon="5.82572">
        <ele>589.6</ele>
        <time>2022-05-21T12:49:02Z</time>
      </trkpt>
      <trkpt lat="46.66454" lon="5.82573">
        <ele>589.2</ele>
        <time>2022-05-21T12:49:03Z</time>
      </trkpt>
      <trkpt lat="46.66445" lon="5.82573">
        <ele>588.8</ele>
        <time>2022-05-21T12:49:04Z</time>
      </trkpt>
      <trkpt lat="46.66429" lon="5.82574">
        <ele>588.2</ele>
        <time>2022-05-21T12:49:06Z</time>
      </trkpt>
      <trkpt lat="46.66412" lon="5.82578">
        <ele>587.4</ele>
        <time>2022-05-21T12:49:08Z</time>
      </trkpt>
      <trkpt lat="46.66404" lon="5.82581">
        <ele>587</ele>
        <time>2022-05-21T12:49:09Z</time>
      </trkpt>
      <trkpt lat="46.66396" lon="5.82585">
        <ele>586.8</ele>
        <time>2022-05-21T12:49:10Z</time>
      </trkpt>
      <trkpt lat="46.66382" lon="5.82599">
        <ele>586.4</ele>
        <time>2022-05-21T12:49:12Z</time>
      </trkpt>
      <trkpt lat="46.66373" lon="5.82613">
        <ele>585.6</ele>
        <time>2022-05-21T12:49:14Z</time>
      </trkpt>
      <trkpt lat="46.66369" lon="5.82618">
        <ele>585.4</ele>
        <time>2022-05-21T12:49:15Z</time>
      </trkpt>
      <trkpt lat="46.66359" lon="5.82616">
        <ele>584.8</ele>
        <time>2022-05-21T12:49:17Z</time>
      </trkpt>
      <trkpt lat="46.66357" lon="5.82601">
        <ele>584.2</ele>
        <time>2022-05-21T12:49:19Z</time>
      </trkpt>
      <trkpt lat="46.66363" lon="5.82551">
        <ele>583.2</ele>
        <time>2022-05-21T12:49:24Z</time>
      </trkpt>
      <trkpt lat="46.66364" lon="5.8254">
        <ele>583</ele>
        <time>2022-05-21T12:49:25Z</time>
      </trkpt>
      <trkpt lat="46.66371" lon="5.8248">
        <ele>583</ele>
        <time>2022-05-21T12:49:31Z</time>
      </trkpt>
      <trkpt lat="46.6637" lon="5.82411">
        <ele>583</ele>
        <time>2022-05-21T12:49:38Z</time>
      </trkpt>
      <trkpt lat="46.66371" lon="5.82343">
        <ele>583.8</ele>
        <time>2022-05-21T12:49:45Z</time>
      </trkpt>
      <trkpt lat="46.66374" lon="5.82269">
        <ele>584.2</ele>
        <time>2022-05-21T12:49:53Z</time>
      </trkpt>
      <trkpt lat="46.6637" lon="5.82223">
        <ele>584.8</ele>
        <time>2022-05-21T12:49:58Z</time>
      </trkpt>
      <trkpt lat="46.66367" lon="5.82214">
        <ele>584.8</ele>
        <time>2022-05-21T12:49:59Z</time>
      </trkpt>
      <trkpt lat="46.66358" lon="5.82184">
        <ele>585.2</ele>
        <time>2022-05-21T12:50:02Z</time>
      </trkpt>
      <trkpt lat="46.66334" lon="5.82126">
        <ele>584.6</ele>
        <time>2022-05-21T12:50:08Z</time>
      </trkpt>
      <trkpt lat="46.66329" lon="5.82117">
        <ele>584.4</ele>
        <time>2022-05-21T12:50:09Z</time>
      </trkpt>
      <trkpt lat="46.66305" lon="5.82085">
        <ele>583.8</ele>
        <time>2022-05-21T12:50:13Z</time>
      </trkpt>
      <trkpt lat="46.66291" lon="5.82072">
        <ele>583</ele>
        <time>2022-05-21T12:50:15Z</time>
      </trkpt>
      <trkpt lat="46.66262" lon="5.82051">
        <ele>582.4</ele>
        <time>2022-05-21T12:50:19Z</time>
      </trkpt>
      <trkpt lat="46.66234" lon="5.82034">
        <ele>582</ele>
        <time>2022-05-21T12:50:23Z</time>
      </trkpt>
      <trkpt lat="46.66228" lon="5.82028">
        <ele>582</ele>
        <time>2022-05-21T12:50:24Z</time>
      </trkpt>
      <trkpt lat="46.66217" lon="5.82013">
        <ele>582</ele>
        <time>2022-05-21T12:50:26Z</time>
      </trkpt>
      <trkpt lat="46.66208" lon="5.81996">
        <ele>582</ele>
        <time>2022-05-21T12:50:28Z</time>
      </trkpt>
      <trkpt lat="46.66205" lon="5.81987">
        <ele>582.2</ele>
        <time>2022-05-21T12:50:29Z</time>
      </trkpt>
      <trkpt lat="46.66199" lon="5.81957">
        <ele>582.4</ele>
        <time>2022-05-21T12:50:32Z</time>
      </trkpt>
      <trkpt lat="46.66197" lon="5.8191">
        <ele>583.2</ele>
        <time>2022-05-21T12:50:37Z</time>
      </trkpt>
      <trkpt lat="46.66195" lon="5.81885">
        <ele>584</ele>
        <time>2022-05-21T12:50:40Z</time>
      </trkpt>
      <trkpt lat="46.66193" lon="5.81862">
        <ele>584.6</ele>
        <time>2022-05-21T12:50:43Z</time>
      </trkpt>
      <trkpt lat="46.6619" lon="5.81841">
        <ele>585.2</ele>
        <time>2022-05-21T12:50:46Z</time>
      </trkpt>
      <trkpt lat="46.66186" lon="5.81812">
        <ele>586.2</ele>
        <time>2022-05-21T12:50:50Z</time>
      </trkpt>
      <trkpt lat="46.66185" lon="5.81805">
        <ele>586.8</ele>
        <time>2022-05-21T12:50:51Z</time>
      </trkpt>
      <trkpt lat="46.66183" lon="5.81792">
        <ele>587.4</ele>
        <time>2022-05-21T12:50:53Z</time>
      </trkpt>
      <trkpt lat="46.66175" lon="5.8176">
        <ele>588.6</ele>
        <time>2022-05-21T12:50:58Z</time>
      </trkpt>
      <trkpt lat="46.66172" lon="5.81746">
        <ele>589.4</ele>
        <time>2022-05-21T12:51:00Z</time>
      </trkpt>
      <trkpt lat="46.66171" lon="5.8174">
        <ele>589.8</ele>
        <time>2022-05-21T12:51:01Z</time>
      </trkpt>
      <trkpt lat="46.66162" lon="5.81708">
        <ele>591</ele>
        <time>2022-05-21T12:51:06Z</time>
      </trkpt>
      <trkpt lat="46.66158" lon="5.81695">
        <ele>591.2</ele>
        <time>2022-05-21T12:51:08Z</time>
      </trkpt>
      <trkpt lat="46.66156" lon="5.81688">
        <ele>591.4</ele>
        <time>2022-05-21T12:51:09Z</time>
      </trkpt>
      <trkpt lat="46.66145" lon="5.81658">
        <ele>591.8</ele>
        <time>2022-05-21T12:51:13Z</time>
      </trkpt>
      <trkpt lat="46.66139" lon="5.81644">
        <ele>592.2</ele>
        <time>2022-05-21T12:51:15Z</time>
      </trkpt>
      <trkpt lat="46.6613" lon="5.81623">
        <ele>592.4</ele>
        <time>2022-05-21T12:51:18Z</time>
      </trkpt>
      <trkpt lat="46.66124" lon="5.81609">
        <ele>592.6</ele>
        <time>2022-05-21T12:51:20Z</time>
      </trkpt>
      <trkpt lat="46.66114" lon="5.81588">
        <ele>592.8</ele>
        <time>2022-05-21T12:51:23Z</time>
      </trkpt>
      <trkpt lat="46.661" lon="5.81557">
        <ele>592.4</ele>
        <time>2022-05-21T12:51:27Z</time>
      </trkpt>
      <trkpt lat="46.66094" lon="5.81541">
        <ele>592.2</ele>
        <time>2022-05-21T12:51:29Z</time>
      </trkpt>
      <trkpt lat="46.66081" lon="5.81499">
        <ele>592.2</ele>
        <time>2022-05-21T12:51:34Z</time>
      </trkpt>
      <trkpt lat="46.66063" lon="5.81446">
        <ele>592.8</ele>
        <time>2022-05-21T12:51:41Z</time>
      </trkpt>
      <trkpt lat="46.66058" lon="5.81432">
        <ele>593</ele>
        <time>2022-05-21T12:51:43Z</time>
      </trkpt>
      <trkpt lat="46.66046" lon="5.81408">
        <ele>593.2</ele>
        <time>2022-05-21T12:51:47Z</time>
      </trkpt>
      <trkpt lat="46.66037" lon="5.81398">
        <ele>593.6</ele>
        <time>2022-05-21T12:51:49Z</time>
      </trkpt>
      <trkpt lat="46.66032" lon="5.81393">
        <ele>593.8</ele>
        <time>2022-05-21T12:51:50Z</time>
      </trkpt>
      <trkpt lat="46.66027" lon="5.8139">
        <ele>593.8</ele>
        <time>2022-05-21T12:51:51Z</time>
      </trkpt>
      <trkpt lat="46.65996" lon="5.81385">
        <ele>594.8</ele>
        <time>2022-05-21T12:51:57Z</time>
      </trkpt>
      <trkpt lat="46.6599" lon="5.81385">
        <ele>595.2</ele>
        <time>2022-05-21T12:51:58Z</time>
      </trkpt>
      <trkpt lat="46.65974" lon="5.81382">
        <ele>596.2</ele>
        <time>2022-05-21T12:52:01Z</time>
      </trkpt>
      <trkpt lat="46.65949" lon="5.8138">
        <ele>597.6</ele>
        <time>2022-05-21T12:52:06Z</time>
      </trkpt>
      <trkpt lat="46.65944" lon="5.81379">
        <ele>597.8</ele>
        <time>2022-05-21T12:52:07Z</time>
      </trkpt>
      <trkpt lat="46.65929" lon="5.81378">
        <ele>598.6</ele>
        <time>2022-05-21T12:52:10Z</time>
      </trkpt>
      <trkpt lat="46.65901" lon="5.81376">
        <ele>599.4</ele>
        <time>2022-05-21T12:52:15Z</time>
      </trkpt>
      <trkpt lat="46.65884" lon="5.81375">
        <ele>599.8</ele>
        <time>2022-05-21T12:52:18Z</time>
      </trkpt>
      <trkpt lat="46.65866" lon="5.81373">
        <ele>600.2</ele>
        <time>2022-05-21T12:52:21Z</time>
      </trkpt>
      <trkpt lat="46.65824" lon="5.81376">
        <ele>600.4</ele>
        <time>2022-05-21T12:52:28Z</time>
      </trkpt>
      <trkpt lat="46.65778" lon="5.81387">
        <ele>600.8</ele>
        <time>2022-05-21T12:52:36Z</time>
      </trkpt>
      <trkpt lat="46.65736" lon="5.81406">
        <ele>601</ele>
        <time>2022-05-21T12:52:43Z</time>
      </trkpt>
      <trkpt lat="46.65692" lon="5.81418">
        <ele>600.8</ele>
        <time>2022-05-21T12:52:50Z</time>
      </trkpt>
      <trkpt lat="46.65648" lon="5.81433">
        <ele>601</ele>
        <time>2022-05-21T12:52:57Z</time>
      </trkpt>
      <trkpt lat="46.65612" lon="5.8145">
        <ele>600.6</ele>
        <time>2022-05-21T12:53:02Z</time>
      </trkpt>
      <trkpt lat="46.65579" lon="5.81454">
        <ele>600</ele>
        <time>2022-05-21T12:53:06Z</time>
      </trkpt>
      <trkpt lat="46.65558" lon="5.81451">
        <ele>599.4</ele>
        <time>2022-05-21T12:53:09Z</time>
      </trkpt>
      <trkpt lat="46.65551" lon="5.81451">
        <ele>599.2</ele>
        <time>2022-05-21T12:53:10Z</time>
      </trkpt>
      <trkpt lat="46.65544" lon="5.81452">
        <ele>599.2</ele>
        <time>2022-05-21T12:53:11Z</time>
      </trkpt>
      <trkpt lat="46.65538" lon="5.81455">
        <ele>599.2</ele>
        <time>2022-05-21T12:53:12Z</time>
      </trkpt>
      <trkpt lat="46.65526" lon="5.81464">
        <ele>599.2</ele>
        <time>2022-05-21T12:53:14Z</time>
      </trkpt>
      <trkpt lat="46.65522" lon="5.81471">
        <ele>599.2</ele>
        <time>2022-05-21T12:53:15Z</time>
      </trkpt>
      <trkpt lat="46.65517" lon="5.81478">
        <ele>599.2</ele>
        <time>2022-05-21T12:53:16Z</time>
      </trkpt>
      <trkpt lat="46.65507" lon="5.81505">
        <ele>598.8</ele>
        <time>2022-05-21T12:53:19Z</time>
      </trkpt>
      <trkpt lat="46.65494" lon="5.81544">
        <ele>598.2</ele>
        <time>2022-05-21T12:53:23Z</time>
      </trkpt>
      <trkpt lat="46.65491" lon="5.81554">
        <ele>598.2</ele>
        <time>2022-05-21T12:53:24Z</time>
      </trkpt>
      <trkpt lat="46.6548" lon="5.8158">
        <ele>597.6</ele>
        <time>2022-05-21T12:53:27Z</time>
      </trkpt>
      <trkpt lat="46.65476" lon="5.81587">
        <ele>597.4</ele>
        <time>2022-05-21T12:53:28Z</time>
      </trkpt>
      <trkpt lat="46.65473" lon="5.81593">
        <ele>597.4</ele>
        <time>2022-05-21T12:53:29Z</time>
      </trkpt>
      <trkpt lat="46.65469" lon="5.816">
        <ele>597.2</ele>
        <time>2022-05-21T12:53:30Z</time>
      </trkpt>
      <trkpt lat="46.65462" lon="5.81616">
        <ele>597.2</ele>
        <time>2022-05-21T12:53:32Z</time>
      </trkpt>
      <trkpt lat="46.65459" lon="5.81624">
        <ele>597.2</ele>
        <time>2022-05-21T12:53:33Z</time>
      </trkpt>
      <trkpt lat="46.65447" lon="5.81674">
        <ele>597.2</ele>
        <time>2022-05-21T12:53:38Z</time>
      </trkpt>
      <trkpt lat="46.65439" lon="5.81707">
        <ele>598</ele>
        <time>2022-05-21T12:53:42Z</time>
      </trkpt>
      <trkpt lat="46.65438" lon="5.81712">
        <ele>598.2</ele>
        <time>2022-05-21T12:53:43Z</time>
      </trkpt>
      <trkpt lat="46.65438" lon="5.81716">
        <ele>598.6</ele>
        <time>2022-05-21T12:53:44Z</time>
      </trkpt>
      <trkpt lat="46.65439" lon="5.81717">
        <ele>598.6</ele>
        <time>2022-05-21T12:53:45Z</time>
      </trkpt>
      <trkpt lat="46.6544" lon="5.81716">
        <ele>598.8</ele>
        <time>2022-05-21T12:53:46Z</time>
      </trkpt>
      <trkpt lat="46.65443" lon="5.81707">
        <ele>598.8</ele>
        <time>2022-05-21T12:53:48Z</time>
      </trkpt>
      <trkpt lat="46.65445" lon="5.81701">
        <ele>598.8</ele>
        <time>2022-05-21T12:53:49Z</time>
      </trkpt>
      <trkpt lat="46.65451" lon="5.81678">
        <ele>598.6</ele>
        <time>2022-05-21T12:53:52Z</time>
      </trkpt>
      <trkpt lat="46.65465" lon="5.81622">
        <ele>598</ele>
        <time>2022-05-21T12:53:58Z</time>
      </trkpt>
      <trkpt lat="46.65467" lon="5.81612">
        <ele>597.8</ele>
        <time>2022-05-21T12:53:59Z</time>
      </trkpt>
      <trkpt lat="46.65468" lon="5.81602">
        <ele>597.6</ele>
        <time>2022-05-21T12:54:00Z</time>
      </trkpt>
      <trkpt lat="46.65472" lon="5.8157">
        <ele>596.8</ele>
        <time>2022-05-21T12:54:03Z</time>
      </trkpt>
      <trkpt lat="46.65475" lon="5.81548">
        <ele>596.4</ele>
        <time>2022-05-21T12:54:05Z</time>
      </trkpt>
      <trkpt lat="46.6548" lon="5.81491">
        <ele>595.2</ele>
        <time>2022-05-21T12:54:10Z</time>
      </trkpt>
      <trkpt lat="46.65483" lon="5.81468">
        <ele>594.8</ele>
        <time>2022-05-21T12:54:12Z</time>
      </trkpt>
      <trkpt lat="46.65489" lon="5.81422">
        <ele>594</ele>
        <time>2022-05-21T12:54:16Z</time>
      </trkpt>
      <trkpt lat="46.65498" lon="5.81378">
        <ele>593.2</ele>
        <time>2022-05-21T12:54:20Z</time>
      </trkpt>
      <trkpt lat="46.655" lon="5.81368">
        <ele>593</ele>
        <time>2022-05-21T12:54:21Z</time>
      </trkpt>
      <trkpt lat="46.65516" lon="5.81291">
        <ele>592</ele>
        <time>2022-05-21T12:54:28Z</time>
      </trkpt>
      <trkpt lat="46.65518" lon="5.81279">
        <ele>592</ele>
        <time>2022-05-21T12:54:29Z</time>
      </trkpt>
      <trkpt lat="46.65523" lon="5.81257">
        <ele>591.8</ele>
        <time>2022-05-21T12:54:31Z</time>
      </trkpt>
      <trkpt lat="46.65539" lon="5.81191">
        <ele>590.8</ele>
        <time>2022-05-21T12:54:37Z</time>
      </trkpt>
      <trkpt lat="46.65546" lon="5.8117">
        <ele>590.2</ele>
        <time>2022-05-21T12:54:39Z</time>
      </trkpt>
      <trkpt lat="46.65553" lon="5.81149">
        <ele>589.8</ele>
        <time>2022-05-21T12:54:41Z</time>
      </trkpt>
      <trkpt lat="46.65579" lon="5.81074">
        <ele>588.8</ele>
        <time>2022-05-21T12:54:48Z</time>
      </trkpt>
      <trkpt lat="46.65605" lon="5.81001">
        <ele>587.6</ele>
        <time>2022-05-21T12:54:55Z</time>
      </trkpt>
      <trkpt lat="46.65612" lon="5.80981">
        <ele>587.4</ele>
        <time>2022-05-21T12:54:57Z</time>
      </trkpt>
      <trkpt lat="46.65638" lon="5.80904">
        <ele>587.4</ele>
        <time>2022-05-21T12:55:05Z</time>
      </trkpt>
      <trkpt lat="46.65641" lon="5.80895">
        <ele>587.4</ele>
        <time>2022-05-21T12:55:06Z</time>
      </trkpt>
      <trkpt lat="46.65661" lon="5.80837">
        <ele>588</ele>
        <time>2022-05-21T12:55:13Z</time>
      </trkpt>
      <trkpt lat="46.65675" lon="5.80797">
        <ele>588.8</ele>
        <time>2022-05-21T12:55:18Z</time>
      </trkpt>
      <trkpt lat="46.65683" lon="5.80773">
        <ele>589.4</ele>
        <time>2022-05-21T12:55:21Z</time>
      </trkpt>
      <trkpt lat="46.65689" lon="5.80757">
        <ele>589.6</ele>
        <time>2022-05-21T12:55:23Z</time>
      </trkpt>
      <trkpt lat="46.65693" lon="5.80741">
        <ele>590</ele>
        <time>2022-05-21T12:55:25Z</time>
      </trkpt>
      <trkpt lat="46.65694" lon="5.80733">
        <ele>590</ele>
        <time>2022-05-21T12:55:26Z</time>
      </trkpt>
      <trkpt lat="46.65695" lon="5.80686">
        <ele>591</ele>
        <time>2022-05-21T12:55:32Z</time>
      </trkpt>
      <trkpt lat="46.65691" lon="5.80648">
        <ele>592</ele>
        <time>2022-05-21T12:55:37Z</time>
      </trkpt>
      <trkpt lat="46.65688" lon="5.80633">
        <ele>592.4</ele>
        <time>2022-05-21T12:55:39Z</time>
      </trkpt>
      <trkpt lat="46.65679" lon="5.80588">
        <ele>593.4</ele>
        <time>2022-05-21T12:55:45Z</time>
      </trkpt>
      <trkpt lat="46.65675" lon="5.80565">
        <ele>594</ele>
        <time>2022-05-21T12:55:48Z</time>
      </trkpt>
      <trkpt lat="46.65673" lon="5.80534">
        <ele>594.6</ele>
        <time>2022-05-21T12:55:52Z</time>
      </trkpt>
      <trkpt lat="46.65674" lon="5.80518">
        <ele>594.8</ele>
        <time>2022-05-21T12:55:54Z</time>
      </trkpt>
      <trkpt lat="46.65676" lon="5.80493">
        <ele>595.6</ele>
        <time>2022-05-21T12:55:57Z</time>
      </trkpt>
      <trkpt lat="46.6568" lon="5.80462">
        <ele>596</ele>
        <time>2022-05-21T12:56:01Z</time>
      </trkpt>
      <trkpt lat="46.65683" lon="5.80441">
        <ele>596.6</ele>
        <time>2022-05-21T12:56:04Z</time>
      </trkpt>
      <trkpt lat="46.65685" lon="5.80414">
        <ele>597.6</ele>
        <time>2022-05-21T12:56:08Z</time>
      </trkpt>
      <trkpt lat="46.65688" lon="5.80394">
        <ele>598</ele>
        <time>2022-05-21T12:56:11Z</time>
      </trkpt>
      <trkpt lat="46.65689" lon="5.80388">
        <ele>598</ele>
        <time>2022-05-21T12:56:12Z</time>
      </trkpt>
      <trkpt lat="46.6569" lon="5.80369">
        <ele>598.2</ele>
        <time>2022-05-21T12:56:15Z</time>
      </trkpt>
      <trkpt lat="46.65692" lon="5.80362">
        <ele>598.4</ele>
        <time>2022-05-21T12:56:16Z</time>
      </trkpt>
      <trkpt lat="46.65694" lon="5.80349">
        <ele>598.8</ele>
        <time>2022-05-21T12:56:18Z</time>
      </trkpt>
      <trkpt lat="46.65698" lon="5.80311">
        <ele>599.4</ele>
        <time>2022-05-21T12:56:23Z</time>
      </trkpt>
      <trkpt lat="46.657" lon="5.80278">
        <ele>599.8</ele>
        <time>2022-05-21T12:56:27Z</time>
      </trkpt>
      <trkpt lat="46.657" lon="5.80253">
        <ele>600.2</ele>
        <time>2022-05-21T12:56:30Z</time>
      </trkpt>
      <trkpt lat="46.657" lon="5.80176">
        <ele>600.4</ele>
        <time>2022-05-21T12:56:39Z</time>
      </trkpt>
      <trkpt lat="46.657" lon="5.80099">
        <ele>600.2</ele>
        <time>2022-05-21T12:56:48Z</time>
      </trkpt>
      <trkpt lat="46.65701" lon="5.80022">
        <ele>599.8</ele>
        <time>2022-05-21T12:56:56Z</time>
      </trkpt>
      <trkpt lat="46.65703" lon="5.79964">
        <ele>598.6</ele>
        <time>2022-05-21T12:57:01Z</time>
      </trkpt>
      <trkpt lat="46.65703" lon="5.79951">
        <ele>598.2</ele>
        <time>2022-05-21T12:57:02Z</time>
      </trkpt>
      <trkpt lat="46.65703" lon="5.79938">
        <ele>597.6</ele>
        <time>2022-05-21T12:57:03Z</time>
      </trkpt>
      <trkpt lat="46.65703" lon="5.79897">
        <ele>596.2</ele>
        <time>2022-05-21T12:57:06Z</time>
      </trkpt>
      <trkpt lat="46.65702" lon="5.79869">
        <ele>595.2</ele>
        <time>2022-05-21T12:57:08Z</time>
      </trkpt>
      <trkpt lat="46.657" lon="5.79855">
        <ele>594.2</ele>
        <time>2022-05-21T12:57:09Z</time>
      </trkpt>
      <trkpt lat="46.65693" lon="5.79814">
        <ele>593</ele>
        <time>2022-05-21T12:57:12Z</time>
      </trkpt>
      <trkpt lat="46.6569" lon="5.79801">
        <ele>593</ele>
        <time>2022-05-21T12:57:13Z</time>
      </trkpt>
      <trkpt lat="46.65679" lon="5.79744">
        <ele>591.6</ele>
        <time>2022-05-21T12:57:17Z</time>
      </trkpt>
      <trkpt lat="46.65671" lon="5.79701">
        <ele>590.8</ele>
        <time>2022-05-21T12:57:20Z</time>
      </trkpt>
      <trkpt lat="46.65665" lon="5.79673">
        <ele>589.6</ele>
        <time>2022-05-21T12:57:22Z</time>
      </trkpt>
      <trkpt lat="46.65655" lon="5.79617">
        <ele>588.6</ele>
        <time>2022-05-21T12:57:26Z</time>
      </trkpt>
      <trkpt lat="46.65644" lon="5.79547">
        <ele>587.6</ele>
        <time>2022-05-21T12:57:31Z</time>
      </trkpt>
      <trkpt lat="46.65641" lon="5.79464">
        <ele>586.6</ele>
        <time>2022-05-21T12:57:37Z</time>
      </trkpt>
      <trkpt lat="46.65641" lon="5.7945">
        <ele>586.4</ele>
        <time>2022-05-21T12:57:38Z</time>
      </trkpt>
      <trkpt lat="46.65642" lon="5.79367">
        <ele>585.6</ele>
        <time>2022-05-21T12:57:44Z</time>
      </trkpt>
      <trkpt lat="46.65641" lon="5.79339">
        <ele>585.2</ele>
        <time>2022-05-21T12:57:46Z</time>
      </trkpt>
      <trkpt lat="46.65638" lon="5.79269">
        <ele>584.2</ele>
        <time>2022-05-21T12:57:51Z</time>
      </trkpt>
      <trkpt lat="46.65636" lon="5.79241">
        <ele>583.8</ele>
        <time>2022-05-21T12:57:53Z</time>
      </trkpt>
      <trkpt lat="46.65631" lon="5.79185">
        <ele>583.4</ele>
        <time>2022-05-21T12:57:57Z</time>
      </trkpt>
      <trkpt lat="46.65627" lon="5.79172">
        <ele>583.4</ele>
        <time>2022-05-21T12:57:58Z</time>
      </trkpt>
      <trkpt lat="46.65615" lon="5.79135">
        <ele>583</ele>
        <time>2022-05-21T12:58:01Z</time>
      </trkpt>
      <trkpt lat="46.65605" lon="5.79111">
        <ele>582.6</ele>
        <time>2022-05-21T12:58:03Z</time>
      </trkpt>
      <trkpt lat="46.65591" lon="5.79074">
        <ele>582</ele>
        <time>2022-05-21T12:58:06Z</time>
      </trkpt>
      <trkpt lat="46.65572" lon="5.79038">
        <ele>581</ele>
        <time>2022-05-21T12:58:09Z</time>
      </trkpt>
      <trkpt lat="46.65564" lon="5.79027">
        <ele>580.6</ele>
        <time>2022-05-21T12:58:10Z</time>
      </trkpt>
      <trkpt lat="46.65556" lon="5.79018">
        <ele>580.2</ele>
        <time>2022-05-21T12:58:11Z</time>
      </trkpt>
      <trkpt lat="46.65546" lon="5.79009">
        <ele>579.8</ele>
        <time>2022-05-21T12:58:12Z</time>
      </trkpt>
      <trkpt lat="46.65537" lon="5.79">
        <ele>578.8</ele>
        <time>2022-05-21T12:58:13Z</time>
      </trkpt>
      <trkpt lat="46.65508" lon="5.78971">
        <ele>577.6</ele>
        <time>2022-05-21T12:58:16Z</time>
      </trkpt>
      <trkpt lat="46.655" lon="5.78959">
        <ele>577</ele>
        <time>2022-05-21T12:58:17Z</time>
      </trkpt>
      <trkpt lat="46.65484" lon="5.78933">
        <ele>576</ele>
        <time>2022-05-21T12:58:19Z</time>
      </trkpt>
      <trkpt lat="46.65477" lon="5.78918">
        <ele>574.6</ele>
        <time>2022-05-21T12:58:20Z</time>
      </trkpt>
      <trkpt lat="46.6547" lon="5.78902">
        <ele>574.4</ele>
        <time>2022-05-21T12:58:21Z</time>
      </trkpt>
      <trkpt lat="46.65465" lon="5.78885">
        <ele>572.8</ele>
        <time>2022-05-21T12:58:22Z</time>
      </trkpt>
      <trkpt lat="46.65456" lon="5.7885">
        <ele>570.8</ele>
        <time>2022-05-21T12:58:24Z</time>
      </trkpt>
      <trkpt lat="46.65452" lon="5.78832">
        <ele>570.2</ele>
        <time>2022-05-21T12:58:25Z</time>
      </trkpt>
      <trkpt lat="46.65445" lon="5.78797">
        <ele>568.8</ele>
        <time>2022-05-21T12:58:27Z</time>
      </trkpt>
      <trkpt lat="46.65436" lon="5.7876">
        <ele>567.2</ele>
        <time>2022-05-21T12:58:29Z</time>
      </trkpt>
      <trkpt lat="46.65431" lon="5.78742">
        <ele>566.4</ele>
        <time>2022-05-21T12:58:30Z</time>
      </trkpt>
      <trkpt lat="46.65426" lon="5.78723">
        <ele>565.2</ele>
        <time>2022-05-21T12:58:31Z</time>
      </trkpt>
      <trkpt lat="46.65416" lon="5.78686">
        <ele>563.8</ele>
        <time>2022-05-21T12:58:33Z</time>
      </trkpt>
      <trkpt lat="46.65411" lon="5.78667">
        <ele>562.2</ele>
        <time>2022-05-21T12:58:34Z</time>
      </trkpt>
      <trkpt lat="46.654" lon="5.78625">
        <ele>560</ele>
        <time>2022-05-21T12:58:36Z</time>
      </trkpt>
      <trkpt lat="46.65391" lon="5.7859">
        <ele>558.2</ele>
        <time>2022-05-21T12:58:38Z</time>
      </trkpt>
      <trkpt lat="46.65381" lon="5.78552">
        <ele>557.2</ele>
        <time>2022-05-21T12:58:40Z</time>
      </trkpt>
      <trkpt lat="46.65371" lon="5.78513">
        <ele>555.6</ele>
        <time>2022-05-21T12:58:42Z</time>
      </trkpt>
      <trkpt lat="46.65366" lon="5.78493">
        <ele>554</ele>
        <time>2022-05-21T12:58:43Z</time>
      </trkpt>
      <trkpt lat="46.65357" lon="5.78453">
        <ele>552</ele>
        <time>2022-05-21T12:58:45Z</time>
      </trkpt>
      <trkpt lat="46.65353" lon="5.78433">
        <ele>550.6</ele>
        <time>2022-05-21T12:58:46Z</time>
      </trkpt>
      <trkpt lat="46.65344" lon="5.78393">
        <ele>548.6</ele>
        <time>2022-05-21T12:58:48Z</time>
      </trkpt>
      <trkpt lat="46.65335" lon="5.78352">
        <ele>546.8</ele>
        <time>2022-05-21T12:58:50Z</time>
      </trkpt>
      <trkpt lat="46.65328" lon="5.7831">
        <ele>545.4</ele>
        <time>2022-05-21T12:58:52Z</time>
      </trkpt>
      <trkpt lat="46.65325" lon="5.7829">
        <ele>543.8</ele>
        <time>2022-05-21T12:58:53Z</time>
      </trkpt>
      <trkpt lat="46.6532" lon="5.78249">
        <ele>541.6</ele>
        <time>2022-05-21T12:58:55Z</time>
      </trkpt>
      <trkpt lat="46.65318" lon="5.78228">
        <ele>540.8</ele>
        <time>2022-05-21T12:58:56Z</time>
      </trkpt>
      <trkpt lat="46.65316" lon="5.78207">
        <ele>539.2</ele>
        <time>2022-05-21T12:58:57Z</time>
      </trkpt>
      <trkpt lat="46.65315" lon="5.78167">
        <ele>537</ele>
        <time>2022-05-21T12:58:59Z</time>
      </trkpt>
      <trkpt lat="46.65315" lon="5.78147">
        <ele>535.8</ele>
        <time>2022-05-21T12:59:00Z</time>
      </trkpt>
      <trkpt lat="46.65315" lon="5.78128">
        <ele>535.2</ele>
        <time>2022-05-21T12:59:01Z</time>
      </trkpt>
      <trkpt lat="46.65316" lon="5.7811">
        <ele>534.4</ele>
        <time>2022-05-21T12:59:02Z</time>
      </trkpt>
      <trkpt lat="46.65317" lon="5.78073">
        <ele>533.2</ele>
        <time>2022-05-21T12:59:04Z</time>
      </trkpt>
      <trkpt lat="46.6532" lon="5.7804">
        <ele>531.8</ele>
        <time>2022-05-21T12:59:06Z</time>
      </trkpt>
      <trkpt lat="46.65321" lon="5.78025">
        <ele>530.6</ele>
        <time>2022-05-21T12:59:07Z</time>
      </trkpt>
      <trkpt lat="46.65327" lon="5.77991">
        <ele>529.8</ele>
        <time>2022-05-21T12:59:10Z</time>
      </trkpt>
      <trkpt lat="46.65335" lon="5.77966">
        <ele>528.2</ele>
        <time>2022-05-21T12:59:13Z</time>
      </trkpt>
      <trkpt lat="46.65339" lon="5.77961">
        <ele>528</ele>
        <time>2022-05-21T12:59:14Z</time>
      </trkpt>
      <trkpt lat="46.65355" lon="5.77944">
        <ele>527.4</ele>
        <time>2022-05-21T12:59:17Z</time>
      </trkpt>
      <trkpt lat="46.65361" lon="5.77939">
        <ele>527.4</ele>
        <time>2022-05-21T12:59:18Z</time>
      </trkpt>
      <trkpt lat="46.65367" lon="5.77934">
        <ele>527.2</ele>
        <time>2022-05-21T12:59:19Z</time>
      </trkpt>
      <trkpt lat="46.65379" lon="5.77921">
        <ele>526.2</ele>
        <time>2022-05-21T12:59:21Z</time>
      </trkpt>
      <trkpt lat="46.65384" lon="5.77914">
        <ele>526</ele>
        <time>2022-05-21T12:59:22Z</time>
      </trkpt>
      <trkpt lat="46.65395" lon="5.77904">
        <ele>525.2</ele>
        <time>2022-05-21T12:59:24Z</time>
      </trkpt>
      <trkpt lat="46.65402" lon="5.77901">
        <ele>524.6</ele>
        <time>2022-05-21T12:59:25Z</time>
      </trkpt>
      <trkpt lat="46.65416" lon="5.77896">
        <ele>524</ele>
        <time>2022-05-21T12:59:27Z</time>
      </trkpt>
      <trkpt lat="46.65422" lon="5.77894">
        <ele>523</ele>
        <time>2022-05-21T12:59:28Z</time>
      </trkpt>
      <trkpt lat="46.65429" lon="5.77892">
        <ele>522.8</ele>
        <time>2022-05-21T12:59:29Z</time>
      </trkpt>
      <trkpt lat="46.65435" lon="5.7789">
        <ele>522.2</ele>
        <time>2022-05-21T12:59:30Z</time>
      </trkpt>
      <trkpt lat="46.65446" lon="5.77886">
        <ele>521.6</ele>
        <time>2022-05-21T12:59:32Z</time>
      </trkpt>
      <trkpt lat="46.65455" lon="5.77877">
        <ele>521.4</ele>
        <time>2022-05-21T12:59:34Z</time>
      </trkpt>
      <trkpt lat="46.65459" lon="5.77873">
        <ele>521</ele>
        <time>2022-05-21T12:59:35Z</time>
      </trkpt>
      <trkpt lat="46.65462" lon="5.77867">
        <ele>521</ele>
        <time>2022-05-21T12:59:36Z</time>
      </trkpt>
      <trkpt lat="46.65472" lon="5.77848">
        <ele>521.4</ele>
        <time>2022-05-21T12:59:40Z</time>
      </trkpt>
      <trkpt lat="46.65472" lon="5.77843">
        <ele>521.4</ele>
        <time>2022-05-21T12:59:41Z</time>
      </trkpt>
      <trkpt lat="46.65471" lon="5.77836">
        <ele>521.4</ele>
        <time>2022-05-21T12:59:42Z</time>
      </trkpt>
      <trkpt lat="46.65463" lon="5.77821">
        <ele>521.8</ele>
        <time>2022-05-21T12:59:44Z</time>
      </trkpt>
      <trkpt lat="46.65433" lon="5.77785">
        <ele>521</ele>
        <time>2022-05-21T12:59:49Z</time>
      </trkpt>
      <trkpt lat="46.65421" lon="5.77772">
        <ele>521</ele>
        <time>2022-05-21T12:59:51Z</time>
      </trkpt>
      <trkpt lat="46.65387" lon="5.77733">
        <ele>521</ele>
        <time>2022-05-21T12:59:57Z</time>
      </trkpt>
      <trkpt lat="46.65341" lon="5.77679">
        <ele>522</ele>
        <time>2022-05-21T13:00:06Z</time>
      </trkpt>
      <trkpt lat="46.65336" lon="5.77673">
        <ele>522.2</ele>
        <time>2022-05-21T13:00:07Z</time>
      </trkpt>
      <trkpt lat="46.65305" lon="5.77636">
        <ele>522.6</ele>
        <time>2022-05-21T13:00:13Z</time>
      </trkpt>
      <trkpt lat="46.65268" lon="5.77596">
        <ele>522.2</ele>
        <time>2022-05-21T13:00:19Z</time>
      </trkpt>
      <trkpt lat="46.6522" lon="5.77544">
        <ele>521.2</ele>
        <time>2022-05-21T13:00:27Z</time>
      </trkpt>
      <trkpt lat="46.65214" lon="5.77537">
        <ele>521</ele>
        <time>2022-05-21T13:00:28Z</time>
      </trkpt>
      <trkpt lat="46.65181" lon="5.7751">
        <ele>520.4</ele>
        <time>2022-05-21T13:00:33Z</time>
      </trkpt>
      <trkpt lat="46.65136" lon="5.77492">
        <ele>520.4</ele>
        <time>2022-05-21T13:00:39Z</time>
      </trkpt>
      <trkpt lat="46.65087" lon="5.77479">
        <ele>520</ele>
        <time>2022-05-21T13:00:45Z</time>
      </trkpt>
      <trkpt lat="46.6507" lon="5.77475">
        <ele>520</ele>
        <time>2022-05-21T13:00:47Z</time>
      </trkpt>
      <trkpt lat="46.65053" lon="5.77474">
        <ele>519.6</ele>
        <time>2022-05-21T13:00:49Z</time>
      </trkpt>
      <trkpt lat="46.65034" lon="5.77476">
        <ele>519.2</ele>
        <time>2022-05-21T13:00:51Z</time>
      </trkpt>
      <trkpt lat="46.65025" lon="5.77477">
        <ele>518.6</ele>
        <time>2022-05-21T13:00:52Z</time>
      </trkpt>
      <trkpt lat="46.64996" lon="5.77485">
        <ele>518</ele>
        <time>2022-05-21T13:00:55Z</time>
      </trkpt>
      <trkpt lat="46.64967" lon="5.77492">
        <ele>517</ele>
        <time>2022-05-21T13:00:58Z</time>
      </trkpt>
      <trkpt lat="46.64957" lon="5.77494">
        <ele>516.2</ele>
        <time>2022-05-21T13:00:59Z</time>
      </trkpt>
      <trkpt lat="46.64927" lon="5.77502">
        <ele>515</ele>
        <time>2022-05-21T13:01:02Z</time>
      </trkpt>
      <trkpt lat="46.64897" lon="5.7751">
        <ele>513.8</ele>
        <time>2022-05-21T13:01:05Z</time>
      </trkpt>
      <trkpt lat="46.64877" lon="5.77515">
        <ele>512.8</ele>
        <time>2022-05-21T13:01:07Z</time>
      </trkpt>
      <trkpt lat="46.64866" lon="5.77518">
        <ele>512.2</ele>
        <time>2022-05-21T13:01:08Z</time>
      </trkpt>
      <trkpt lat="46.64846" lon="5.77524">
        <ele>511.6</ele>
        <time>2022-05-21T13:01:10Z</time>
      </trkpt>
      <trkpt lat="46.64836" lon="5.77527">
        <ele>511.2</ele>
        <time>2022-05-21T13:01:11Z</time>
      </trkpt>
      <trkpt lat="46.64805" lon="5.77533">
        <ele>509.8</ele>
        <time>2022-05-21T13:01:14Z</time>
      </trkpt>
      <trkpt lat="46.64795" lon="5.77534">
        <ele>509.6</ele>
        <time>2022-05-21T13:01:15Z</time>
      </trkpt>
      <trkpt lat="46.64776" lon="5.7753">
        <ele>509</ele>
        <time>2022-05-21T13:01:17Z</time>
      </trkpt>
      <trkpt lat="46.64768" lon="5.77525">
        <ele>508.8</ele>
        <time>2022-05-21T13:01:18Z</time>
      </trkpt>
      <trkpt lat="46.64761" lon="5.77518">
        <ele>508.4</ele>
        <time>2022-05-21T13:01:19Z</time>
      </trkpt>
      <trkpt lat="46.64757" lon="5.77508">
        <ele>508.4</ele>
        <time>2022-05-21T13:01:20Z</time>
      </trkpt>
      <trkpt lat="46.64755" lon="5.77497">
        <ele>508.4</ele>
        <time>2022-05-21T13:01:21Z</time>
      </trkpt>
      <trkpt lat="46.64754" lon="5.77476">
        <ele>508.2</ele>
        <time>2022-05-21T13:01:23Z</time>
      </trkpt>
      <trkpt lat="46.64757" lon="5.77456">
        <ele>508.4</ele>
        <time>2022-05-21T13:01:25Z</time>
      </trkpt>
      <trkpt lat="46.64762" lon="5.7744">
        <ele>509</ele>
        <time>2022-05-21T13:01:27Z</time>
      </trkpt>
      <trkpt lat="46.64768" lon="5.77426">
        <ele>510</ele>
        <time>2022-05-21T13:01:29Z</time>
      </trkpt>
      <trkpt lat="46.64771" lon="5.7742">
        <ele>510.6</ele>
        <time>2022-05-21T13:01:30Z</time>
      </trkpt>
      <trkpt lat="46.64773" lon="5.77414">
        <ele>511.2</ele>
        <time>2022-05-21T13:01:31Z</time>
      </trkpt>
      <trkpt lat="46.64782" lon="5.77388">
        <ele>512.6</ele>
        <time>2022-05-21T13:01:35Z</time>
      </trkpt>
      <trkpt lat="46.64785" lon="5.77382">
        <ele>513</ele>
        <time>2022-05-21T13:01:36Z</time>
      </trkpt>
      <trkpt lat="46.6479" lon="5.7737">
        <ele>513.6</ele>
        <time>2022-05-21T13:01:38Z</time>
      </trkpt>
      <trkpt lat="46.64792" lon="5.77363">
        <ele>513.6</ele>
        <time>2022-05-21T13:01:39Z</time>
      </trkpt>
      <trkpt lat="46.64797" lon="5.77349">
        <ele>514.4</ele>
        <time>2022-05-21T13:01:41Z</time>
      </trkpt>
      <trkpt lat="46.64802" lon="5.77335">
        <ele>515.4</ele>
        <time>2022-05-21T13:01:43Z</time>
      </trkpt>
      <trkpt lat="46.64812" lon="5.7731">
        <ele>516.4</ele>
        <time>2022-05-21T13:01:47Z</time>
      </trkpt>
      <trkpt lat="46.64814" lon="5.77304">
        <ele>516.8</ele>
        <time>2022-05-21T13:01:48Z</time>
      </trkpt>
      <trkpt lat="46.6482" lon="5.77287">
        <ele>517.4</ele>
        <time>2022-05-21T13:01:51Z</time>
      </trkpt>
      <trkpt lat="46.64829" lon="5.77265">
        <ele>518.4</ele>
        <time>2022-05-21T13:01:55Z</time>
      </trkpt>
      <trkpt lat="46.64837" lon="5.77243">
        <ele>519.6</ele>
        <time>2022-05-21T13:01:59Z</time>
      </trkpt>
      <trkpt lat="46.64846" lon="5.77221">
        <ele>520.4</ele>
        <time>2022-05-21T13:02:03Z</time>
      </trkpt>
      <trkpt lat="46.64848" lon="5.77216">
        <ele>520.6</ele>
        <time>2022-05-21T13:02:04Z</time>
      </trkpt>
      <trkpt lat="46.6485" lon="5.7721">
        <ele>520.8</ele>
        <time>2022-05-21T13:02:05Z</time>
      </trkpt>
      <trkpt lat="46.64855" lon="5.77199">
        <ele>521</ele>
        <time>2022-05-21T13:02:07Z</time>
      </trkpt>
      <trkpt lat="46.64862" lon="5.77177">
        <ele>521.6</ele>
        <time>2022-05-21T13:02:11Z</time>
      </trkpt>
      <trkpt lat="46.64866" lon="5.77166">
        <ele>522.2</ele>
        <time>2022-05-21T13:02:13Z</time>
      </trkpt>
      <trkpt lat="46.6487" lon="5.77156">
        <ele>522.8</ele>
        <time>2022-05-21T13:02:15Z</time>
      </trkpt>
      <trkpt lat="46.64879" lon="5.77122">
        <ele>523.6</ele>
        <time>2022-05-21T13:02:21Z</time>
      </trkpt>
      <trkpt lat="46.64881" lon="5.77116">
        <ele>524</ele>
        <time>2022-05-21T13:02:22Z</time>
      </trkpt>
      <trkpt lat="46.64888" lon="5.7709">
        <ele>525</ele>
        <time>2022-05-21T13:02:27Z</time>
      </trkpt>
      <trkpt lat="46.6489" lon="5.77079">
        <ele>525.2</ele>
        <time>2022-05-21T13:02:29Z</time>
      </trkpt>
      <trkpt lat="46.64886" lon="5.77046">
        <ele>525.8</ele>
        <time>2022-05-21T13:02:35Z</time>
      </trkpt>
      <trkpt lat="46.64885" lon="5.77041">
        <ele>526</ele>
        <time>2022-05-21T13:02:36Z</time>
      </trkpt>
      <trkpt lat="46.64872" lon="5.77017">
        <ele>527.2</ele>
        <time>2022-05-21T13:02:41Z</time>
      </trkpt>
      <trkpt lat="46.64859" lon="5.76999">
        <ele>527.8</ele>
        <time>2022-05-21T13:02:45Z</time>
      </trkpt>
      <trkpt lat="46.64855" lon="5.76995">
        <ele>528.2</ele>
        <time>2022-05-21T13:02:46Z</time>
      </trkpt>
      <trkpt lat="46.64852" lon="5.76992">
        <ele>528.2</ele>
        <time>2022-05-21T13:02:47Z</time>
      </trkpt>
      <trkpt lat="46.64849" lon="5.76987">
        <ele>528.6</ele>
        <time>2022-05-21T13:02:48Z</time>
      </trkpt>
      <trkpt lat="46.64843" lon="5.76979">
        <ele>528.8</ele>
        <time>2022-05-21T13:02:50Z</time>
      </trkpt>
      <trkpt lat="46.64834" lon="5.76967">
        <ele>529.4</ele>
        <time>2022-05-21T13:02:53Z</time>
      </trkpt>
      <trkpt lat="46.64822" lon="5.7695">
        <ele>530.2</ele>
        <time>2022-05-21T13:02:57Z</time>
      </trkpt>
      <trkpt lat="46.64817" lon="5.76941">
        <ele>530.4</ele>
        <time>2022-05-21T13:02:59Z</time>
      </trkpt>
      <trkpt lat="46.64814" lon="5.76937">
        <ele>530.8</ele>
        <time>2022-05-21T13:03:00Z</time>
      </trkpt>
      <trkpt lat="46.64809" lon="5.76927">
        <ele>531</ele>
        <time>2022-05-21T13:03:02Z</time>
      </trkpt>
      <trkpt lat="46.64805" lon="5.76917">
        <ele>531.4</ele>
        <time>2022-05-21T13:03:04Z</time>
      </trkpt>
      <trkpt lat="46.64803" lon="5.76912">
        <ele>531.6</ele>
        <time>2022-05-21T13:03:05Z</time>
      </trkpt>
      <trkpt lat="46.64802" lon="5.76906">
        <ele>531.8</ele>
        <time>2022-05-21T13:03:06Z</time>
      </trkpt>
      <trkpt lat="46.648" lon="5.76894">
        <ele>532.2</ele>
        <time>2022-05-21T13:03:08Z</time>
      </trkpt>
      <trkpt lat="46.64798" lon="5.76882">
        <ele>532.4</ele>
        <time>2022-05-21T13:03:10Z</time>
      </trkpt>
      <trkpt lat="46.64798" lon="5.76876">
        <ele>532.6</ele>
        <time>2022-05-21T13:03:11Z</time>
      </trkpt>
      <trkpt lat="46.64798" lon="5.7687">
        <ele>532.6</ele>
        <time>2022-05-21T13:03:12Z</time>
      </trkpt>
      <trkpt lat="46.64796" lon="5.76839">
        <ele>533.8</ele>
        <time>2022-05-21T13:03:17Z</time>
      </trkpt>
      <trkpt lat="46.64794" lon="5.76814">
        <ele>535</ele>
        <time>2022-05-21T13:03:21Z</time>
      </trkpt>
      <trkpt lat="46.64793" lon="5.76809">
        <ele>535</ele>
        <time>2022-05-21T13:03:22Z</time>
      </trkpt>
      <trkpt lat="46.64787" lon="5.76791">
        <ele>535.6</ele>
        <time>2022-05-21T13:03:25Z</time>
      </trkpt>
      <trkpt lat="46.64783" lon="5.76788">
        <ele>535.6</ele>
        <time>2022-05-21T13:03:26Z</time>
      </trkpt>
      <trkpt lat="46.64779" lon="5.76786">
        <ele>535.8</ele>
        <time>2022-05-21T13:03:27Z</time>
      </trkpt>
      <trkpt lat="46.64771" lon="5.76785">
        <ele>535.8</ele>
        <time>2022-05-21T13:03:29Z</time>
      </trkpt>
      <trkpt lat="46.64767" lon="5.76785">
        <ele>535.8</ele>
        <time>2022-05-21T13:03:30Z</time>
      </trkpt>
      <trkpt lat="46.64758" lon="5.76785">
        <ele>536.2</ele>
        <time>2022-05-21T13:03:32Z</time>
      </trkpt>
      <trkpt lat="46.6475" lon="5.76781">
        <ele>536.2</ele>
        <time>2022-05-21T13:03:34Z</time>
      </trkpt>
      <trkpt lat="46.64744" lon="5.76773">
        <ele>536.4</ele>
        <time>2022-05-21T13:03:36Z</time>
      </trkpt>
      <trkpt lat="46.64737" lon="5.7676">
        <ele>537</ele>
        <time>2022-05-21T13:03:39Z</time>
      </trkpt>
      <trkpt lat="46.6472" lon="5.76734">
        <ele>538</ele>
        <time>2022-05-21T13:03:45Z</time>
      </trkpt>
      <trkpt lat="46.64717" lon="5.76731">
        <ele>538</ele>
        <time>2022-05-21T13:03:46Z</time>
      </trkpt>
      <trkpt lat="46.64711" lon="5.76731">
        <ele>538.4</ele>
        <time>2022-05-21T13:03:48Z</time>
      </trkpt>
      <trkpt lat="46.64709" lon="5.76734">
        <ele>538.4</ele>
        <time>2022-05-21T13:03:49Z</time>
      </trkpt>
      <trkpt lat="46.64707" lon="5.76755">
        <ele>539.6</ele>
        <time>2022-05-21T13:03:53Z</time>
      </trkpt>
      <trkpt lat="46.64709" lon="5.76772">
        <ele>541</ele>
        <time>2022-05-21T13:03:56Z</time>
      </trkpt>
      <trkpt lat="46.64712" lon="5.7679">
        <ele>541.8</ele>
        <time>2022-05-21T13:03:59Z</time>
      </trkpt>
      <trkpt lat="46.64712" lon="5.76795">
        <ele>542.2</ele>
        <time>2022-05-21T13:04:00Z</time>
      </trkpt>
      <trkpt lat="46.64717" lon="5.76824">
        <ele>543.4</ele>
        <time>2022-05-21T13:04:05Z</time>
      </trkpt>
      <trkpt lat="46.64723" lon="5.76849">
        <ele>544.8</ele>
        <time>2022-05-21T13:04:09Z</time>
      </trkpt>
      <trkpt lat="46.64724" lon="5.76864">
        <ele>545.2</ele>
        <time>2022-05-21T13:04:11Z</time>
      </trkpt>
      <trkpt lat="46.64724" lon="5.76872">
        <ele>545.4</ele>
        <time>2022-05-21T13:04:12Z</time>
      </trkpt>
      <trkpt lat="46.64724" lon="5.76881">
        <ele>545.6</ele>
        <time>2022-05-21T13:04:13Z</time>
      </trkpt>
      <trkpt lat="46.64724" lon="5.76887">
        <ele>545.8</ele>
        <time>2022-05-21T13:04:14Z</time>
      </trkpt>
      <trkpt lat="46.64724" lon="5.76913">
        <ele>546.8</ele>
        <time>2022-05-21T13:04:18Z</time>
      </trkpt>
      <trkpt lat="46.64724" lon="5.76918">
        <ele>547.2</ele>
        <time>2022-05-21T13:04:19Z</time>
      </trkpt>
      <trkpt lat="46.64724" lon="5.76936">
        <ele>547.8</ele>
        <time>2022-05-21T13:04:22Z</time>
      </trkpt>
      <trkpt lat="46.64726" lon="5.76941">
        <ele>548</ele>
        <time>2022-05-21T13:04:23Z</time>
      </trkpt>
      <trkpt lat="46.64728" lon="5.76946">
        <ele>548.4</ele>
        <time>2022-05-21T13:04:24Z</time>
      </trkpt>
      <trkpt lat="46.64734" lon="5.7696">
        <ele>549</ele>
        <time>2022-05-21T13:04:27Z</time>
      </trkpt>
      <trkpt lat="46.64736" lon="5.76965">
        <ele>549.2</ele>
        <time>2022-05-21T13:04:29Z</time>
      </trkpt>
      <trkpt lat="46.64736" lon="5.76974">
        <ele>550.4</ele>
        <time>2022-05-21T13:04:33Z</time>
      </trkpt>
      <trkpt lat="46.64741" lon="5.76988">
        <ele>551.6</ele>
        <time>2022-05-21T13:04:38Z</time>
      </trkpt>
      <trkpt lat="46.64743" lon="5.7699">
        <ele>552</ele>
        <time>2022-05-21T13:04:39Z</time>
      </trkpt>
      <trkpt lat="46.64746" lon="5.76994">
        <ele>552.8</ele>
        <time>2022-05-21T13:04:41Z</time>
      </trkpt>
      <trkpt lat="46.64757" lon="5.77004">
        <ele>554</ele>
        <time>2022-05-21T13:04:46Z</time>
      </trkpt>
      <trkpt lat="46.64759" lon="5.77006">
        <ele>554.2</ele>
        <time>2022-05-21T13:04:47Z</time>
      </trkpt>
      <trkpt lat="46.64771" lon="5.77016">
        <ele>555.2</ele>
        <time>2022-05-21T13:04:52Z</time>
      </trkpt>
      <trkpt lat="46.64775" lon="5.77021">
        <ele>555.4</ele>
        <time>2022-05-21T13:04:54Z</time>
      </trkpt>
      <trkpt lat="46.64776" lon="5.77031">
        <ele>556.2</ele>
        <time>2022-05-21T13:04:57Z</time>
      </trkpt>
      <trkpt lat="46.64774" lon="5.77034">
        <ele>556.4</ele>
        <time>2022-05-21T13:04:58Z</time>
      </trkpt>
      <trkpt lat="46.64772" lon="5.77035">
        <ele>556.6</ele>
        <time>2022-05-21T13:04:59Z</time>
      </trkpt>
      <trkpt lat="46.64767" lon="5.77035">
        <ele>557.2</ele>
        <time>2022-05-21T13:05:01Z</time>
      </trkpt>
      <trkpt lat="46.64765" lon="5.77032">
        <ele>557.6</ele>
        <time>2022-05-21T13:05:02Z</time>
      </trkpt>
      <trkpt lat="46.64753" lon="5.77025">
        <ele>558.4</ele>
        <time>2022-05-21T13:05:07Z</time>
      </trkpt>
      <trkpt lat="46.64748" lon="5.77023">
        <ele>558.8</ele>
        <time>2022-05-21T13:05:09Z</time>
      </trkpt>
      <trkpt lat="46.64741" lon="5.7702">
        <ele>559.6</ele>
        <time>2022-05-21T13:05:12Z</time>
      </trkpt>
      <trkpt lat="46.64734" lon="5.77016">
        <ele>560.6</ele>
        <time>2022-05-21T13:05:15Z</time>
      </trkpt>
      <trkpt lat="46.64723" lon="5.7701">
        <ele>562</ele>
        <time>2022-05-21T13:05:20Z</time>
      </trkpt>
      <trkpt lat="46.64721" lon="5.77008">
        <ele>562.4</ele>
        <time>2022-05-21T13:05:21Z</time>
      </trkpt>
      <trkpt lat="46.64719" lon="5.77005">
        <ele>562.6</ele>
        <time>2022-05-21T13:05:23Z</time>
      </trkpt>
      <trkpt lat="46.64717" lon="5.77001">
        <ele>563</ele>
        <time>2022-05-21T13:05:25Z</time>
      </trkpt>
      <trkpt lat="46.64717" lon="5.76999">
        <ele>563.2</ele>
        <time>2022-05-21T13:05:26Z</time>
      </trkpt>
      <trkpt lat="46.64717" lon="5.76997">
        <ele>563.8</ele>
        <time>2022-05-21T13:05:27Z</time>
      </trkpt>
      <trkpt lat="46.64716" lon="5.76992">
        <ele>564.2</ele>
        <time>2022-05-21T13:05:29Z</time>
      </trkpt>
      <trkpt lat="46.64715" lon="5.7699">
        <ele>564.8</ele>
        <time>2022-05-21T13:05:30Z</time>
      </trkpt>
      <trkpt lat="46.64713" lon="5.76985">
        <ele>565.2</ele>
        <time>2022-05-21T13:05:32Z</time>
      </trkpt>
      <trkpt lat="46.64711" lon="5.76976">
        <ele>565.6</ele>
        <time>2022-05-21T13:05:34Z</time>
      </trkpt>
      <trkpt lat="46.64704" lon="5.76954">
        <ele>566.4</ele>
        <time>2022-05-21T13:05:39Z</time>
      </trkpt>
      <trkpt lat="46.64703" lon="5.7695">
        <ele>566.6</ele>
        <time>2022-05-21T13:05:40Z</time>
      </trkpt>
      <trkpt lat="46.64696" lon="5.76936">
        <ele>567.6</ele>
        <time>2022-05-21T13:05:44Z</time>
      </trkpt>
      <trkpt lat="46.6469" lon="5.76925">
        <ele>568.6</ele>
        <time>2022-05-21T13:05:47Z</time>
      </trkpt>
      <trkpt lat="46.64687" lon="5.76923">
        <ele>569</ele>
        <time>2022-05-21T13:05:48Z</time>
      </trkpt>
      <trkpt lat="46.64675" lon="5.76914">
        <ele>569.8</ele>
        <time>2022-05-21T13:05:53Z</time>
      </trkpt>
      <trkpt lat="46.6467" lon="5.76912">
        <ele>570.2</ele>
        <time>2022-05-21T13:05:55Z</time>
      </trkpt>
      <trkpt lat="46.64657" lon="5.7691">
        <ele>571</ele>
        <time>2022-05-21T13:06:00Z</time>
      </trkpt>
      <trkpt lat="46.64648" lon="5.76909">
        <ele>571.6</ele>
        <time>2022-05-21T13:06:03Z</time>
      </trkpt>
      <trkpt lat="46.64635" lon="5.76908">
        <ele>572.2</ele>
        <time>2022-05-21T13:06:07Z</time>
      </trkpt>
      <trkpt lat="46.64624" lon="5.76909">
        <ele>572.4</ele>
        <time>2022-05-21T13:06:10Z</time>
      </trkpt>
      <trkpt lat="46.64603" lon="5.76923">
        <ele>573.2</ele>
        <time>2022-05-21T13:06:16Z</time>
      </trkpt>
      <trkpt lat="46.646" lon="5.76926">
        <ele>573.2</ele>
        <time>2022-05-21T13:06:17Z</time>
      </trkpt>
      <trkpt lat="46.64586" lon="5.76946">
        <ele>574</ele>
        <time>2022-05-21T13:06:22Z</time>
      </trkpt>
      <trkpt lat="46.6458" lon="5.76955">
        <ele>574.4</ele>
        <time>2022-05-21T13:06:24Z</time>
      </trkpt>
      <trkpt lat="46.64562" lon="5.76978">
        <ele>574.8</ele>
        <time>2022-05-21T13:06:30Z</time>
      </trkpt>
      <trkpt lat="46.64554" lon="5.76987">
        <ele>575.4</ele>
        <time>2022-05-21T13:06:33Z</time>
      </trkpt>
      <trkpt lat="46.64541" lon="5.76998">
        <ele>576.6</ele>
        <time>2022-05-21T13:06:37Z</time>
      </trkpt>
      <trkpt lat="46.64516" lon="5.77014">
        <ele>577.8</ele>
        <time>2022-05-21T13:06:44Z</time>
      </trkpt>
      <trkpt lat="46.645" lon="5.77022">
        <ele>579.2</ele>
        <time>2022-05-21T13:06:49Z</time>
      </trkpt>
      <trkpt lat="46.64497" lon="5.77023">
        <ele>579.4</ele>
        <time>2022-05-21T13:06:50Z</time>
      </trkpt>
      <trkpt lat="46.64491" lon="5.77027">
        <ele>580.2</ele>
        <time>2022-05-21T13:06:52Z</time>
      </trkpt>
      <trkpt lat="46.64482" lon="5.77037">
        <ele>580.6</ele>
        <time>2022-05-21T13:06:55Z</time>
      </trkpt>
      <trkpt lat="46.64463" lon="5.77066">
        <ele>581.2</ele>
        <time>2022-05-21T13:07:01Z</time>
      </trkpt>
      <trkpt lat="46.64456" lon="5.77077">
        <ele>581.2</ele>
        <time>2022-05-21T13:07:03Z</time>
      </trkpt>
      <trkpt lat="46.64439" lon="5.77103">
        <ele>581.2</ele>
        <time>2022-05-21T13:07:08Z</time>
      </trkpt>
      <trkpt lat="46.64424" lon="5.7712">
        <ele>581.6</ele>
        <time>2022-05-21T13:07:12Z</time>
      </trkpt>
      <trkpt lat="46.64412" lon="5.7713">
        <ele>581.8</ele>
        <time>2022-05-21T13:07:15Z</time>
      </trkpt>
      <trkpt lat="46.64399" lon="5.77139">
        <ele>582.2</ele>
        <time>2022-05-21T13:07:18Z</time>
      </trkpt>
      <trkpt lat="46.64395" lon="5.77142">
        <ele>582.4</ele>
        <time>2022-05-21T13:07:19Z</time>
      </trkpt>
      <trkpt lat="46.64383" lon="5.77151">
        <ele>583.4</ele>
        <time>2022-05-21T13:07:22Z</time>
      </trkpt>
      <trkpt lat="46.64378" lon="5.77154">
        <ele>583.6</ele>
        <time>2022-05-21T13:07:23Z</time>
      </trkpt>
      <trkpt lat="46.64352" lon="5.77173">
        <ele>584.6</ele>
        <time>2022-05-21T13:07:29Z</time>
      </trkpt>
      <trkpt lat="46.64348" lon="5.77176">
        <ele>584.8</ele>
        <time>2022-05-21T13:07:30Z</time>
      </trkpt>
      <trkpt lat="46.64335" lon="5.77186">
        <ele>585.8</ele>
        <time>2022-05-21T13:07:33Z</time>
      </trkpt>
      <trkpt lat="46.64321" lon="5.77197">
        <ele>586.8</ele>
        <time>2022-05-21T13:07:36Z</time>
      </trkpt>
      <trkpt lat="46.64317" lon="5.772">
        <ele>586.8</ele>
        <time>2022-05-21T13:07:37Z</time>
      </trkpt>
      <trkpt lat="46.64308" lon="5.77206">
        <ele>587.2</ele>
        <time>2022-05-21T13:07:39Z</time>
      </trkpt>
      <trkpt lat="46.6429" lon="5.77215">
        <ele>587.8</ele>
        <time>2022-05-21T13:07:43Z</time>
      </trkpt>
      <trkpt lat="46.64286" lon="5.77217">
        <ele>588.2</ele>
        <time>2022-05-21T13:07:44Z</time>
      </trkpt>
      <trkpt lat="46.64281" lon="5.77219">
        <ele>588.8</ele>
        <time>2022-05-21T13:07:45Z</time>
      </trkpt>
      <trkpt lat="46.64268" lon="5.77219">
        <ele>589.2</ele>
        <time>2022-05-21T13:07:48Z</time>
      </trkpt>
      <trkpt lat="46.64259" lon="5.77218">
        <ele>589.2</ele>
        <time>2022-05-21T13:07:50Z</time>
      </trkpt>
      <trkpt lat="46.64254" lon="5.77217">
        <ele>589.4</ele>
        <time>2022-05-21T13:07:51Z</time>
      </trkpt>
      <trkpt lat="46.64229" lon="5.77206">
        <ele>590.2</ele>
        <time>2022-05-21T13:07:57Z</time>
      </trkpt>
      <trkpt lat="46.64217" lon="5.77202">
        <ele>591</ele>
        <time>2022-05-21T13:08:00Z</time>
      </trkpt>
      <trkpt lat="46.64213" lon="5.772">
        <ele>591.2</ele>
        <time>2022-05-21T13:08:01Z</time>
      </trkpt>
      <trkpt lat="46.64191" lon="5.77194">
        <ele>592.4</ele>
        <time>2022-05-21T13:08:07Z</time>
      </trkpt>
      <trkpt lat="46.64187" lon="5.77193">
        <ele>592.6</ele>
        <time>2022-05-21T13:08:08Z</time>
      </trkpt>
      <trkpt lat="46.64176" lon="5.77189">
        <ele>593.4</ele>
        <time>2022-05-21T13:08:11Z</time>
      </trkpt>
      <trkpt lat="46.64161" lon="5.77186">
        <ele>594.4</ele>
        <time>2022-05-21T13:08:15Z</time>
      </trkpt>
      <trkpt lat="46.64154" lon="5.77186">
        <ele>594.6</ele>
        <time>2022-05-21T13:08:17Z</time>
      </trkpt>
      <trkpt lat="46.64138" lon="5.7719">
        <ele>595.6</ele>
        <time>2022-05-21T13:08:22Z</time>
      </trkpt>
      <trkpt lat="46.64127" lon="5.77202">
        <ele>596.8</ele>
        <time>2022-05-21T13:08:26Z</time>
      </trkpt>
      <trkpt lat="46.64125" lon="5.77206">
        <ele>597.2</ele>
        <time>2022-05-21T13:08:27Z</time>
      </trkpt>
      <trkpt lat="46.64112" lon="5.77233">
        <ele>598</ele>
        <time>2022-05-21T13:08:33Z</time>
      </trkpt>
      <trkpt lat="46.64107" lon="5.77258">
        <ele>599</ele>
        <time>2022-05-21T13:08:38Z</time>
      </trkpt>
      <trkpt lat="46.64106" lon="5.77268">
        <ele>599.2</ele>
        <time>2022-05-21T13:08:40Z</time>
      </trkpt>
      <trkpt lat="46.64101" lon="5.77291">
        <ele>600</ele>
        <time>2022-05-21T13:08:44Z</time>
      </trkpt>
      <trkpt lat="46.64095" lon="5.77308">
        <ele>600.2</ele>
        <time>2022-05-21T13:08:47Z</time>
      </trkpt>
      <trkpt lat="46.64078" lon="5.77359">
        <ele>600.8</ele>
        <time>2022-05-21T13:08:55Z</time>
      </trkpt>
      <trkpt lat="46.64075" lon="5.77373">
        <ele>600.8</ele>
        <time>2022-05-21T13:08:57Z</time>
      </trkpt>
      <trkpt lat="46.6407" lon="5.77403">
        <ele>601</ele>
        <time>2022-05-21T13:09:01Z</time>
      </trkpt>
      <trkpt lat="46.64068" lon="5.7741">
        <ele>601</ele>
        <time>2022-05-21T13:09:02Z</time>
      </trkpt>
      <trkpt lat="46.64056" lon="5.77437">
        <ele>601.2</ele>
        <time>2022-05-21T13:09:06Z</time>
      </trkpt>
      <trkpt lat="46.64053" lon="5.77443">
        <ele>601.2</ele>
        <time>2022-05-21T13:09:07Z</time>
      </trkpt>
      <trkpt lat="46.64032" lon="5.77475">
        <ele>601.4</ele>
        <time>2022-05-21T13:09:13Z</time>
      </trkpt>
      <trkpt lat="46.64017" lon="5.77503">
        <ele>602.4</ele>
        <time>2022-05-21T13:09:18Z</time>
      </trkpt>
      <trkpt lat="46.64008" lon="5.77517">
        <ele>603.2</ele>
        <time>2022-05-21T13:09:21Z</time>
      </trkpt>
      <trkpt lat="46.64002" lon="5.77527">
        <ele>603.8</ele>
        <time>2022-05-21T13:09:23Z</time>
      </trkpt>
      <trkpt lat="46.63988" lon="5.7755">
        <ele>605.2</ele>
        <time>2022-05-21T13:09:28Z</time>
      </trkpt>
      <trkpt lat="46.63982" lon="5.77559">
        <ele>605.6</ele>
        <time>2022-05-21T13:09:30Z</time>
      </trkpt>
      <trkpt lat="46.63973" lon="5.77574">
        <ele>606.8</ele>
        <time>2022-05-21T13:09:33Z</time>
      </trkpt>
      <trkpt lat="46.63971" lon="5.7758">
        <ele>607</ele>
        <time>2022-05-21T13:09:34Z</time>
      </trkpt>
      <trkpt lat="46.63963" lon="5.77599">
        <ele>607.8</ele>
        <time>2022-05-21T13:09:37Z</time>
      </trkpt>
      <trkpt lat="46.6396" lon="5.77607">
        <ele>608</ele>
        <time>2022-05-21T13:09:38Z</time>
      </trkpt>
      <trkpt lat="46.63945" lon="5.77653">
        <ele>608</ele>
        <time>2022-05-21T13:09:44Z</time>
      </trkpt>
      <trkpt lat="46.63937" lon="5.77677">
        <ele>608</ele>
        <time>2022-05-21T13:09:47Z</time>
      </trkpt>
      <trkpt lat="46.63927" lon="5.77698">
        <ele>607.6</ele>
        <time>2022-05-21T13:09:50Z</time>
      </trkpt>
      <trkpt lat="46.63905" lon="5.77745">
        <ele>607.8</ele>
        <time>2022-05-21T13:09:57Z</time>
      </trkpt>
      <trkpt lat="46.639" lon="5.77758">
        <ele>608</ele>
        <time>2022-05-21T13:09:59Z</time>
      </trkpt>
      <trkpt lat="46.63893" lon="5.77771">
        <ele>608.2</ele>
        <time>2022-05-21T13:10:01Z</time>
      </trkpt>
      <trkpt lat="46.63889" lon="5.77776">
        <ele>608.2</ele>
        <time>2022-05-21T13:10:02Z</time>
      </trkpt>
      <trkpt lat="46.63857" lon="5.77804">
        <ele>608.4</ele>
        <time>2022-05-21T13:10:08Z</time>
      </trkpt>
      <trkpt lat="46.63844" lon="5.77814">
        <ele>608</ele>
        <time>2022-05-21T13:10:10Z</time>
      </trkpt>
      <trkpt lat="46.63825" lon="5.77833">
        <ele>607.6</ele>
        <time>2022-05-21T13:10:13Z</time>
      </trkpt>
      <trkpt lat="46.63801" lon="5.77859">
        <ele>606.8</ele>
        <time>2022-05-21T13:10:17Z</time>
      </trkpt>
      <trkpt lat="46.63789" lon="5.7787">
        <ele>606.2</ele>
        <time>2022-05-21T13:10:19Z</time>
      </trkpt>
      <trkpt lat="46.63777" lon="5.77879">
        <ele>605.8</ele>
        <time>2022-05-21T13:10:21Z</time>
      </trkpt>
      <trkpt lat="46.6377" lon="5.77883">
        <ele>605.8</ele>
        <time>2022-05-21T13:10:22Z</time>
      </trkpt>
      <trkpt lat="46.63755" lon="5.77889">
        <ele>604.8</ele>
        <time>2022-05-21T13:10:24Z</time>
      </trkpt>
      <trkpt lat="46.63748" lon="5.77893">
        <ele>604.4</ele>
        <time>2022-05-21T13:10:25Z</time>
      </trkpt>
      <trkpt lat="46.63721" lon="5.77907">
        <ele>603.4</ele>
        <time>2022-05-21T13:10:29Z</time>
      </trkpt>
      <trkpt lat="46.63701" lon="5.77918">
        <ele>602.8</ele>
        <time>2022-05-21T13:10:32Z</time>
      </trkpt>
      <trkpt lat="46.63664" lon="5.77934">
        <ele>602.6</ele>
        <time>2022-05-21T13:10:38Z</time>
      </trkpt>
      <trkpt lat="46.63652" lon="5.77937">
        <ele>602.8</ele>
        <time>2022-05-21T13:10:40Z</time>
      </trkpt>
      <trkpt lat="46.63636" lon="5.77941">
        <ele>603</ele>
        <time>2022-05-21T13:10:43Z</time>
      </trkpt>
      <trkpt lat="46.63598" lon="5.77955">
        <ele>604.4</ele>
        <time>2022-05-21T13:10:50Z</time>
      </trkpt>
      <trkpt lat="46.63593" lon="5.77957">
        <ele>604.8</ele>
        <time>2022-05-21T13:10:51Z</time>
      </trkpt>
      <trkpt lat="46.63582" lon="5.77961">
        <ele>605.4</ele>
        <time>2022-05-21T13:10:53Z</time>
      </trkpt>
      <trkpt lat="46.63576" lon="5.77962">
        <ele>605.8</ele>
        <time>2022-05-21T13:10:54Z</time>
      </trkpt>
      <trkpt lat="46.63554" lon="5.77966">
        <ele>606.4</ele>
        <time>2022-05-21T13:10:58Z</time>
      </trkpt>
      <trkpt lat="46.63537" lon="5.7797">
        <ele>606.8</ele>
        <time>2022-05-21T13:11:01Z</time>
      </trkpt>
      <trkpt lat="46.635" lon="5.77978">
        <ele>607.4</ele>
        <time>2022-05-21T13:11:08Z</time>
      </trkpt>
      <trkpt lat="46.6348" lon="5.77982">
        <ele>608</ele>
        <time>2022-05-21T13:11:12Z</time>
      </trkpt>
      <trkpt lat="46.63475" lon="5.77982">
        <ele>608.4</ele>
        <time>2022-05-21T13:11:13Z</time>
      </trkpt>
      <trkpt lat="46.6347" lon="5.77984">
        <ele>608.4</ele>
        <time>2022-05-21T13:11:14Z</time>
      </trkpt>
      <trkpt lat="46.63454" lon="5.77987">
        <ele>609.4</ele>
        <time>2022-05-21T13:11:17Z</time>
      </trkpt>
      <trkpt lat="46.63433" lon="5.77994">
        <ele>609.8</ele>
        <time>2022-05-21T13:11:21Z</time>
      </trkpt>
      <trkpt lat="46.63405" lon="5.78004">
        <ele>610.4</ele>
        <time>2022-05-21T13:11:26Z</time>
      </trkpt>
      <trkpt lat="46.63399" lon="5.78006">
        <ele>610.4</ele>
        <time>2022-05-21T13:11:27Z</time>
      </trkpt>
      <trkpt lat="46.63348" lon="5.78023">
        <ele>610.4</ele>
        <time>2022-05-21T13:11:35Z</time>
      </trkpt>
      <trkpt lat="46.63327" lon="5.78026">
        <ele>609.8</ele>
        <time>2022-05-21T13:11:38Z</time>
      </trkpt>
      <trkpt lat="46.63305" lon="5.78024">
        <ele>609.8</ele>
        <time>2022-05-21T13:11:41Z</time>
      </trkpt>
      <trkpt lat="46.63268" lon="5.78023">
        <ele>609.4</ele>
        <time>2022-05-21T13:11:46Z</time>
      </trkpt>
      <trkpt lat="46.63261" lon="5.78024">
        <ele>609.4</ele>
        <time>2022-05-21T13:11:47Z</time>
      </trkpt>
      <trkpt lat="46.63229" lon="5.78041">
        <ele>609.2</ele>
        <time>2022-05-21T13:11:52Z</time>
      </trkpt>
      <trkpt lat="46.63204" lon="5.78061">
        <ele>608.4</ele>
        <time>2022-05-21T13:11:56Z</time>
      </trkpt>
      <trkpt lat="46.63191" lon="5.78073">
        <ele>608</ele>
        <time>2022-05-21T13:11:58Z</time>
      </trkpt>
      <trkpt lat="46.63172" lon="5.78088">
        <ele>607.6</ele>
        <time>2022-05-21T13:12:01Z</time>
      </trkpt>
      <trkpt lat="46.63165" lon="5.78092">
        <ele>607.2</ele>
        <time>2022-05-21T13:12:02Z</time>
      </trkpt>
      <trkpt lat="46.63152" lon="5.78099">
        <ele>606.8</ele>
        <time>2022-05-21T13:12:04Z</time>
      </trkpt>
      <trkpt lat="46.63132" lon="5.78107">
        <ele>606.2</ele>
        <time>2022-05-21T13:12:07Z</time>
      </trkpt>
      <trkpt lat="46.63119" lon="5.78113">
        <ele>606</ele>
        <time>2022-05-21T13:12:09Z</time>
      </trkpt>
      <trkpt lat="46.631" lon="5.78126">
        <ele>606</ele>
        <time>2022-05-21T13:12:12Z</time>
      </trkpt>
      <trkpt lat="46.63061" lon="5.78155">
        <ele>605.2</ele>
        <time>2022-05-21T13:12:18Z</time>
      </trkpt>
      <trkpt lat="46.63047" lon="5.78163">
        <ele>605</ele>
        <time>2022-05-21T13:12:20Z</time>
      </trkpt>
      <trkpt lat="46.63028" lon="5.78178">
        <ele>604.8</ele>
        <time>2022-05-21T13:12:23Z</time>
      </trkpt>
      <trkpt lat="46.63016" lon="5.78192">
        <ele>605</ele>
        <time>2022-05-21T13:12:25Z</time>
      </trkpt>
      <trkpt lat="46.62994" lon="5.78234">
        <ele>605.2</ele>
        <time>2022-05-21T13:12:30Z</time>
      </trkpt>
      <trkpt lat="46.62965" lon="5.78307">
        <ele>606.2</ele>
        <time>2022-05-21T13:12:38Z</time>
      </trkpt>
      <trkpt lat="46.62962" lon="5.78317">
        <ele>606.4</ele>
        <time>2022-05-21T13:12:39Z</time>
      </trkpt>
      <trkpt lat="46.62945" lon="5.78369">
        <ele>606.2</ele>
        <time>2022-05-21T13:12:44Z</time>
      </trkpt>
      <trkpt lat="46.62926" lon="5.78418">
        <ele>606</ele>
        <time>2022-05-21T13:12:49Z</time>
      </trkpt>
      <trkpt lat="46.62921" lon="5.78426">
        <ele>606</ele>
        <time>2022-05-21T13:12:50Z</time>
      </trkpt>
      <trkpt lat="46.62883" lon="5.78477">
        <ele>606</ele>
        <time>2022-05-21T13:12:57Z</time>
      </trkpt>
      <trkpt lat="46.62842" lon="5.78532">
        <ele>606.2</ele>
        <time>2022-05-21T13:13:05Z</time>
      </trkpt>
      <trkpt lat="46.62837" lon="5.78538">
        <ele>606.4</ele>
        <time>2022-05-21T13:13:06Z</time>
      </trkpt>
      <trkpt lat="46.62797" lon="5.78578">
        <ele>606.8</ele>
        <time>2022-05-21T13:13:13Z</time>
      </trkpt>
      <trkpt lat="46.62792" lon="5.78584">
        <ele>606.8</ele>
        <time>2022-05-21T13:13:14Z</time>
      </trkpt>
      <trkpt lat="46.62779" lon="5.78609">
        <ele>606.8</ele>
        <time>2022-05-21T13:13:17Z</time>
      </trkpt>
      <trkpt lat="46.62765" lon="5.7865">
        <ele>607</ele>
        <time>2022-05-21T13:13:21Z</time>
      </trkpt>
      <trkpt lat="46.62751" lon="5.78692">
        <ele>607.4</ele>
        <time>2022-05-21T13:13:25Z</time>
      </trkpt>
      <trkpt lat="46.62741" lon="5.78721">
        <ele>608</ele>
        <time>2022-05-21T13:13:28Z</time>
      </trkpt>
      <trkpt lat="46.62733" lon="5.7874">
        <ele>608.6</ele>
        <time>2022-05-21T13:13:30Z</time>
      </trkpt>
      <trkpt lat="46.62717" lon="5.78775">
        <ele>609.6</ele>
        <time>2022-05-21T13:13:34Z</time>
      </trkpt>
      <trkpt lat="46.62713" lon="5.78784">
        <ele>609.8</ele>
        <time>2022-05-21T13:13:35Z</time>
      </trkpt>
      <trkpt lat="46.62681" lon="5.78849">
        <ele>610</ele>
        <time>2022-05-21T13:13:43Z</time>
      </trkpt>
      <trkpt lat="46.62677" lon="5.78858">
        <ele>610.2</ele>
        <time>2022-05-21T13:13:44Z</time>
      </trkpt>
      <trkpt lat="46.62658" lon="5.78896">
        <ele>610.8</ele>
        <time>2022-05-21T13:13:49Z</time>
      </trkpt>
      <trkpt lat="46.62646" lon="5.78919">
        <ele>611</ele>
        <time>2022-05-21T13:13:52Z</time>
      </trkpt>
      <trkpt lat="46.62613" lon="5.78984">
        <ele>610.8</ele>
        <time>2022-05-21T13:14:00Z</time>
      </trkpt>
      <trkpt lat="46.62608" lon="5.78992">
        <ele>610.8</ele>
        <time>2022-05-21T13:14:01Z</time>
      </trkpt>
      <trkpt lat="46.62571" lon="5.79055">
        <ele>611.4</ele>
        <time>2022-05-21T13:14:09Z</time>
      </trkpt>
      <trkpt lat="46.62552" lon="5.79086">
        <ele>611.4</ele>
        <time>2022-05-21T13:14:13Z</time>
      </trkpt>
      <trkpt lat="46.62535" lon="5.7912">
        <ele>611.8</ele>
        <time>2022-05-21T13:14:17Z</time>
      </trkpt>
      <trkpt lat="46.62528" lon="5.79137">
        <ele>612</ele>
        <time>2022-05-21T13:14:19Z</time>
      </trkpt>
      <trkpt lat="46.62525" lon="5.79146">
        <ele>612</ele>
        <time>2022-05-21T13:14:20Z</time>
      </trkpt>
      <trkpt lat="46.62516" lon="5.79185">
        <ele>612.6</ele>
        <time>2022-05-21T13:14:24Z</time>
      </trkpt>
      <trkpt lat="46.62499" lon="5.79241">
        <ele>612.6</ele>
        <time>2022-05-21T13:14:29Z</time>
      </trkpt>
      <trkpt lat="46.62471" lon="5.79306">
        <ele>612</ele>
        <time>2022-05-21T13:14:35Z</time>
      </trkpt>
      <trkpt lat="46.62446" lon="5.7936">
        <ele>610.6</ele>
        <time>2022-05-21T13:14:40Z</time>
      </trkpt>
      <trkpt lat="46.62427" lon="5.79406">
        <ele>609.8</ele>
        <time>2022-05-21T13:14:44Z</time>
      </trkpt>
      <trkpt lat="46.62422" lon="5.79417">
        <ele>609.6</ele>
        <time>2022-05-21T13:14:45Z</time>
      </trkpt>
      <trkpt lat="46.62407" lon="5.79465">
        <ele>609.4</ele>
        <time>2022-05-21T13:14:49Z</time>
      </trkpt>
      <trkpt lat="46.62392" lon="5.79537">
        <ele>608.8</ele>
        <time>2022-05-21T13:14:55Z</time>
      </trkpt>
      <trkpt lat="46.6238" lon="5.79567">
        <ele>609.2</ele>
        <time>2022-05-21T13:14:58Z</time>
      </trkpt>
      <trkpt lat="46.62375" lon="5.79575">
        <ele>609.6</ele>
        <time>2022-05-21T13:14:59Z</time>
      </trkpt>
      <trkpt lat="46.62339" lon="5.79629">
        <ele>610.4</ele>
        <time>2022-05-21T13:15:06Z</time>
      </trkpt>
      <trkpt lat="46.62324" lon="5.79651">
        <ele>610.8</ele>
        <time>2022-05-21T13:15:09Z</time>
      </trkpt>
      <trkpt lat="46.62302" lon="5.79685">
        <ele>611.6</ele>
        <time>2022-05-21T13:15:14Z</time>
      </trkpt>
      <trkpt lat="46.62297" lon="5.79692">
        <ele>611.8</ele>
        <time>2022-05-21T13:15:15Z</time>
      </trkpt>
      <trkpt lat="46.62272" lon="5.7972">
        <ele>613</ele>
        <time>2022-05-21T13:15:20Z</time>
      </trkpt>
      <trkpt lat="46.62267" lon="5.79725">
        <ele>613</ele>
        <time>2022-05-21T13:15:21Z</time>
      </trkpt>
      <trkpt lat="46.6225" lon="5.79738">
        <ele>613.4</ele>
        <time>2022-05-21T13:15:24Z</time>
      </trkpt>
      <trkpt lat="46.62232" lon="5.79746">
        <ele>613.8</ele>
        <time>2022-05-21T13:15:27Z</time>
      </trkpt>
      <trkpt lat="46.62214" lon="5.79752">
        <ele>614</ele>
        <time>2022-05-21T13:15:30Z</time>
      </trkpt>
      <trkpt lat="46.62193" lon="5.79761">
        <ele>614.8</ele>
        <time>2022-05-21T13:15:34Z</time>
      </trkpt>
      <trkpt lat="46.62183" lon="5.79766">
        <ele>615.4</ele>
        <time>2022-05-21T13:15:36Z</time>
      </trkpt>
      <trkpt lat="46.62164" lon="5.79777">
        <ele>616.4</ele>
        <time>2022-05-21T13:15:40Z</time>
      </trkpt>
      <trkpt lat="46.62159" lon="5.7978">
        <ele>616.8</ele>
        <time>2022-05-21T13:15:41Z</time>
      </trkpt>
      <trkpt lat="46.62139" lon="5.79792">
        <ele>617.6</ele>
        <time>2022-05-21T13:15:45Z</time>
      </trkpt>
      <trkpt lat="46.62112" lon="5.79808">
        <ele>618.8</ele>
        <time>2022-05-21T13:15:50Z</time>
      </trkpt>
      <trkpt lat="46.62092" lon="5.79822">
        <ele>619.2</ele>
        <time>2022-05-21T13:15:54Z</time>
      </trkpt>
      <trkpt lat="46.62077" lon="5.79832">
        <ele>619.8</ele>
        <time>2022-05-21T13:15:57Z</time>
      </trkpt>
      <trkpt lat="46.62059" lon="5.79845">
        <ele>620.2</ele>
        <time>2022-05-21T13:16:01Z</time>
      </trkpt>
      <trkpt lat="46.62039" lon="5.79857">
        <ele>621</ele>
        <time>2022-05-21T13:16:06Z</time>
      </trkpt>
      <trkpt lat="46.62032" lon="5.7986">
        <ele>621.4</ele>
        <time>2022-05-21T13:16:08Z</time>
      </trkpt>
      <trkpt lat="46.62025" lon="5.79864">
        <ele>622.4</ele>
        <time>2022-05-21T13:16:10Z</time>
      </trkpt>
      <trkpt lat="46.62002" lon="5.79876">
        <ele>623.6</ele>
        <time>2022-05-21T13:16:16Z</time>
      </trkpt>
      <trkpt lat="46.61988" lon="5.79885">
        <ele>624.8</ele>
        <time>2022-05-21T13:16:20Z</time>
      </trkpt>
      <trkpt lat="46.61975" lon="5.79895">
        <ele>626</ele>
        <time>2022-05-21T13:16:24Z</time>
      </trkpt>
      <trkpt lat="46.61971" lon="5.79897">
        <ele>626.2</ele>
        <time>2022-05-21T13:16:25Z</time>
      </trkpt>
      <trkpt lat="46.61952" lon="5.79913">
        <ele>627</ele>
        <time>2022-05-21T13:16:31Z</time>
      </trkpt>
      <trkpt lat="46.61941" lon="5.79921">
        <ele>627.4</ele>
        <time>2022-05-21T13:16:34Z</time>
      </trkpt>
      <trkpt lat="46.61931" lon="5.7993">
        <ele>628.2</ele>
        <time>2022-05-21T13:16:37Z</time>
      </trkpt>
      <trkpt lat="46.6191" lon="5.79949">
        <ele>629.2</ele>
        <time>2022-05-21T13:16:43Z</time>
      </trkpt>
      <trkpt lat="46.61907" lon="5.79952">
        <ele>629.6</ele>
        <time>2022-05-21T13:16:44Z</time>
      </trkpt>
      <trkpt lat="46.61885" lon="5.79975">
        <ele>630.6</ele>
        <time>2022-05-21T13:16:51Z</time>
      </trkpt>
      <trkpt lat="46.61877" lon="5.79988">
        <ele>631.2</ele>
        <time>2022-05-21T13:16:54Z</time>
      </trkpt>
      <trkpt lat="46.61873" lon="5.79997">
        <ele>631.8</ele>
        <time>2022-05-21T13:16:56Z</time>
      </trkpt>
      <trkpt lat="46.61868" lon="5.80006">
        <ele>632.4</ele>
        <time>2022-05-21T13:16:58Z</time>
      </trkpt>
      <trkpt lat="46.61861" lon="5.8002">
        <ele>632.8</ele>
        <time>2022-05-21T13:17:01Z</time>
      </trkpt>
      <trkpt lat="46.61851" lon="5.80039">
        <ele>633.8</ele>
        <time>2022-05-21T13:17:05Z</time>
      </trkpt>
      <trkpt lat="46.61838" lon="5.80063">
        <ele>635</ele>
        <time>2022-05-21T13:17:10Z</time>
      </trkpt>
      <trkpt lat="46.61829" lon="5.8008">
        <ele>636.2</ele>
        <time>2022-05-21T13:17:14Z</time>
      </trkpt>
      <trkpt lat="46.61814" lon="5.80105">
        <ele>637.2</ele>
        <time>2022-05-21T13:17:20Z</time>
      </trkpt>
      <trkpt lat="46.61809" lon="5.80114">
        <ele>637.8</ele>
        <time>2022-05-21T13:17:22Z</time>
      </trkpt>
      <trkpt lat="46.61804" lon="5.80124">
        <ele>638.4</ele>
        <time>2022-05-21T13:17:24Z</time>
      </trkpt>
      <trkpt lat="46.61793" lon="5.80154">
        <ele>639.2</ele>
        <time>2022-05-21T13:17:30Z</time>
      </trkpt>
      <trkpt lat="46.61792" lon="5.80159">
        <ele>639.4</ele>
        <time>2022-05-21T13:17:31Z</time>
      </trkpt>
      <trkpt lat="46.61786" lon="5.80186">
        <ele>640.6</ele>
        <time>2022-05-21T13:17:36Z</time>
      </trkpt>
      <trkpt lat="46.61783" lon="5.80202">
        <ele>641.2</ele>
        <time>2022-05-21T13:17:39Z</time>
      </trkpt>
      <trkpt lat="46.61782" lon="5.80213">
        <ele>641.6</ele>
        <time>2022-05-21T13:17:41Z</time>
      </trkpt>
      <trkpt lat="46.61781" lon="5.80261">
        <ele>642.8</ele>
        <time>2022-05-21T13:17:49Z</time>
      </trkpt>
      <trkpt lat="46.61781" lon="5.80306">
        <ele>644</ele>
        <time>2022-05-21T13:17:56Z</time>
      </trkpt>
      <trkpt lat="46.6178" lon="5.80313">
        <ele>644</ele>
        <time>2022-05-21T13:17:57Z</time>
      </trkpt>
      <trkpt lat="46.6177" lon="5.80351">
        <ele>644.2</ele>
        <time>2022-05-21T13:18:02Z</time>
      </trkpt>
      <trkpt lat="46.61753" lon="5.80407">
        <ele>644</ele>
        <time>2022-05-21T13:18:08Z</time>
      </trkpt>
      <trkpt lat="46.61729" lon="5.80487">
        <ele>643.4</ele>
        <time>2022-05-21T13:18:16Z</time>
      </trkpt>
      <trkpt lat="46.61726" lon="5.80498">
        <ele>643.4</ele>
        <time>2022-05-21T13:18:17Z</time>
      </trkpt>
      <trkpt lat="46.61698" lon="5.80568">
        <ele>643.4</ele>
        <time>2022-05-21T13:18:24Z</time>
      </trkpt>
      <trkpt lat="46.61688" lon="5.80599">
        <ele>643</ele>
        <time>2022-05-21T13:18:27Z</time>
      </trkpt>
      <trkpt lat="46.61682" lon="5.80633">
        <ele>642.8</ele>
        <time>2022-05-21T13:18:30Z</time>
      </trkpt>
      <trkpt lat="46.61674" lon="5.80672">
        <ele>641.6</ele>
        <time>2022-05-21T13:18:33Z</time>
      </trkpt>
      <trkpt lat="46.61666" lon="5.8071">
        <ele>640.6</ele>
        <time>2022-05-21T13:18:36Z</time>
      </trkpt>
      <trkpt lat="46.61663" lon="5.80723">
        <ele>640.2</ele>
        <time>2022-05-21T13:18:37Z</time>
      </trkpt>
      <trkpt lat="46.61657" lon="5.80747">
        <ele>639.4</ele>
        <time>2022-05-21T13:18:39Z</time>
      </trkpt>
      <trkpt lat="46.61653" lon="5.80759">
        <ele>639.2</ele>
        <time>2022-05-21T13:18:40Z</time>
      </trkpt>
      <trkpt lat="46.61643" lon="5.80793">
        <ele>639</ele>
        <time>2022-05-21T13:18:43Z</time>
      </trkpt>
      <trkpt lat="46.61618" lon="5.80853">
        <ele>639</ele>
        <time>2022-05-21T13:18:49Z</time>
      </trkpt>
      <trkpt lat="46.61606" lon="5.80865">
        <ele>639</ele>
        <time>2022-05-21T13:18:51Z</time>
      </trkpt>
      <trkpt lat="46.61599" lon="5.80869">
        <ele>639.2</ele>
        <time>2022-05-21T13:18:52Z</time>
      </trkpt>
      <trkpt lat="46.61592" lon="5.80871">
        <ele>639.4</ele>
        <time>2022-05-21T13:18:53Z</time>
      </trkpt>
      <trkpt lat="46.61578" lon="5.80871">
        <ele>639.8</ele>
        <time>2022-05-21T13:18:55Z</time>
      </trkpt>
      <trkpt lat="46.61571" lon="5.8087">
        <ele>640</ele>
        <time>2022-05-21T13:18:56Z</time>
      </trkpt>
      <trkpt lat="46.61548" lon="5.8087">
        <ele>640.2</ele>
        <time>2022-05-21T13:18:59Z</time>
      </trkpt>
      <trkpt lat="46.61539" lon="5.80873">
        <ele>640.2</ele>
        <time>2022-05-21T13:19:00Z</time>
      </trkpt>
      <trkpt lat="46.61531" lon="5.80878">
        <ele>640.2</ele>
        <time>2022-05-21T13:19:01Z</time>
      </trkpt>
      <trkpt lat="46.61508" lon="5.80897">
        <ele>640</ele>
        <time>2022-05-21T13:19:04Z</time>
      </trkpt>
      <trkpt lat="46.61492" lon="5.80907">
        <ele>639.6</ele>
        <time>2022-05-21T13:19:06Z</time>
      </trkpt>
      <trkpt lat="46.61475" lon="5.8091">
        <ele>639.2</ele>
        <time>2022-05-21T13:19:08Z</time>
      </trkpt>
      <trkpt lat="46.61452" lon="5.80901">
        <ele>638.6</ele>
        <time>2022-05-21T13:19:11Z</time>
      </trkpt>
      <trkpt lat="46.61437" lon="5.80893">
        <ele>638.2</ele>
        <time>2022-05-21T13:19:13Z</time>
      </trkpt>
      <trkpt lat="46.61398" lon="5.80876">
        <ele>638</ele>
        <time>2022-05-21T13:19:18Z</time>
      </trkpt>
      <trkpt lat="46.61363" lon="5.80868">
        <ele>636.6</ele>
        <time>2022-05-21T13:19:22Z</time>
      </trkpt>
      <trkpt lat="46.61346" lon="5.80864">
        <ele>635.4</ele>
        <time>2022-05-21T13:19:24Z</time>
      </trkpt>
      <trkpt lat="46.61305" lon="5.80849">
        <ele>634.4</ele>
        <time>2022-05-21T13:19:29Z</time>
      </trkpt>
      <trkpt lat="46.61297" lon="5.80846">
        <ele>634.2</ele>
        <time>2022-05-21T13:19:30Z</time>
      </trkpt>
      <trkpt lat="46.6129" lon="5.80842">
        <ele>633.8</ele>
        <time>2022-05-21T13:19:31Z</time>
      </trkpt>
      <trkpt lat="46.61276" lon="5.80831">
        <ele>633.4</ele>
        <time>2022-05-21T13:19:33Z</time>
      </trkpt>
      <trkpt lat="46.61269" lon="5.80825">
        <ele>632.8</ele>
        <time>2022-05-21T13:19:34Z</time>
      </trkpt>
      <trkpt lat="46.61254" lon="5.80812">
        <ele>632.2</ele>
        <time>2022-05-21T13:19:36Z</time>
      </trkpt>
      <trkpt lat="46.61232" lon="5.80789">
        <ele>631.6</ele>
        <time>2022-05-21T13:19:39Z</time>
      </trkpt>
      <trkpt lat="46.61216" lon="5.80776">
        <ele>631.2</ele>
        <time>2022-05-21T13:19:41Z</time>
      </trkpt>
      <trkpt lat="46.61208" lon="5.8077">
        <ele>631</ele>
        <time>2022-05-21T13:19:42Z</time>
      </trkpt>
      <trkpt lat="46.61191" lon="5.80762">
        <ele>630.2</ele>
        <time>2022-05-21T13:19:44Z</time>
      </trkpt>
      <trkpt lat="46.61182" lon="5.80763">
        <ele>630.2</ele>
        <time>2022-05-21T13:19:45Z</time>
      </trkpt>
      <trkpt lat="46.61175" lon="5.80766">
        <ele>629.8</ele>
        <time>2022-05-21T13:19:46Z</time>
      </trkpt>
      <trkpt lat="46.61168" lon="5.80771">
        <ele>629.8</ele>
        <time>2022-05-21T13:19:47Z</time>
      </trkpt>
      <trkpt lat="46.61149" lon="5.80787">
        <ele>629.4</ele>
        <time>2022-05-21T13:19:50Z</time>
      </trkpt>
      <trkpt lat="46.61142" lon="5.80789">
        <ele>629.2</ele>
        <time>2022-05-21T13:19:51Z</time>
      </trkpt>
      <trkpt lat="46.61112" lon="5.8079">
        <ele>629.8</ele>
        <time>2022-05-21T13:19:56Z</time>
      </trkpt>
      <trkpt lat="46.61083" lon="5.80788">
        <ele>631.2</ele>
        <time>2022-05-21T13:20:01Z</time>
      </trkpt>
      <trkpt lat="46.61074" lon="5.80786">
        <ele>631.4</ele>
        <time>2022-05-21T13:20:03Z</time>
      </trkpt>
      <trkpt lat="46.6106" lon="5.80782">
        <ele>632.2</ele>
        <time>2022-05-21T13:20:06Z</time>
      </trkpt>
      <trkpt lat="46.61043" lon="5.80774">
        <ele>633.2</ele>
        <time>2022-05-21T13:20:10Z</time>
      </trkpt>
      <trkpt lat="46.61023" lon="5.80766">
        <ele>634.2</ele>
        <time>2022-05-21T13:20:15Z</time>
      </trkpt>
      <trkpt lat="46.61019" lon="5.80764">
        <ele>634.4</ele>
        <time>2022-05-21T13:20:16Z</time>
      </trkpt>
      <trkpt lat="46.61015" lon="5.80763">
        <ele>634.6</ele>
        <time>2022-05-21T13:20:17Z</time>
      </trkpt>
      <trkpt lat="46.61003" lon="5.80757">
        <ele>635.6</ele>
        <time>2022-05-21T13:20:20Z</time>
      </trkpt>
      <trkpt lat="46.6099" lon="5.80755">
        <ele>636.6</ele>
        <time>2022-05-21T13:20:23Z</time>
      </trkpt>
      <trkpt lat="46.60986" lon="5.80756">
        <ele>636.6</ele>
        <time>2022-05-21T13:20:24Z</time>
      </trkpt>
      <trkpt lat="46.60982" lon="5.80759">
        <ele>636.8</ele>
        <time>2022-05-21T13:20:25Z</time>
      </trkpt>
      <trkpt lat="46.60979" lon="5.80762">
        <ele>637.2</ele>
        <time>2022-05-21T13:20:26Z</time>
      </trkpt>
      <trkpt lat="46.60976" lon="5.80766">
        <ele>637.2</ele>
        <time>2022-05-21T13:20:27Z</time>
      </trkpt>
      <trkpt lat="46.60974" lon="5.8077">
        <ele>637.6</ele>
        <time>2022-05-21T13:20:28Z</time>
      </trkpt>
      <trkpt lat="46.60974" lon="5.80775">
        <ele>637.6</ele>
        <time>2022-05-21T13:20:29Z</time>
      </trkpt>
      <trkpt lat="46.60974" lon="5.8078">
        <ele>637.8</ele>
        <time>2022-05-21T13:20:30Z</time>
      </trkpt>
      <trkpt lat="46.60975" lon="5.80785">
        <ele>638</ele>
        <time>2022-05-21T13:20:31Z</time>
      </trkpt>
      <trkpt lat="46.60986" lon="5.80804">
        <ele>639.2</ele>
        <time>2022-05-21T13:20:35Z</time>
      </trkpt>
      <trkpt lat="46.60989" lon="5.80808">
        <ele>639.4</ele>
        <time>2022-05-21T13:20:36Z</time>
      </trkpt>
      <trkpt lat="46.60994" lon="5.80818">
        <ele>640.2</ele>
        <time>2022-05-21T13:20:38Z</time>
      </trkpt>
      <trkpt lat="46.61012" lon="5.80845">
        <ele>641.4</ele>
        <time>2022-05-21T13:20:44Z</time>
      </trkpt>
      <trkpt lat="46.61014" lon="5.80849">
        <ele>641.4</ele>
        <time>2022-05-21T13:20:45Z</time>
      </trkpt>
      <trkpt lat="46.61017" lon="5.80853">
        <ele>641.6</ele>
        <time>2022-05-21T13:20:46Z</time>
      </trkpt>
      <trkpt lat="46.61029" lon="5.80871">
        <ele>642.4</ele>
        <time>2022-05-21T13:20:50Z</time>
      </trkpt>
      <trkpt lat="46.61034" lon="5.8088">
        <ele>642.6</ele>
        <time>2022-05-21T13:20:52Z</time>
      </trkpt>
      <trkpt lat="46.61043" lon="5.80895">
        <ele>643.4</ele>
        <time>2022-05-21T13:20:55Z</time>
      </trkpt>
      <trkpt lat="46.61057" lon="5.80925">
        <ele>644.4</ele>
        <time>2022-05-21T13:21:01Z</time>
      </trkpt>
      <trkpt lat="46.6106" lon="5.80937">
        <ele>644.6</ele>
        <time>2022-05-21T13:21:03Z</time>
      </trkpt>
      <trkpt lat="46.61063" lon="5.80956">
        <ele>644.8</ele>
        <time>2022-05-21T13:21:06Z</time>
      </trkpt>
      <trkpt lat="46.61063" lon="5.80962">
        <ele>645</ele>
        <time>2022-05-21T13:21:07Z</time>
      </trkpt>
      <trkpt lat="46.61058" lon="5.8099">
        <ele>645.6</ele>
        <time>2022-05-21T13:21:12Z</time>
      </trkpt>
      <trkpt lat="46.61054" lon="5.81">
        <ele>646.2</ele>
        <time>2022-05-21T13:21:14Z</time>
      </trkpt>
      <trkpt lat="46.61044" lon="5.8102">
        <ele>646.6</ele>
        <time>2022-05-21T13:21:18Z</time>
      </trkpt>
      <trkpt lat="46.61039" lon="5.8103">
        <ele>647</ele>
        <time>2022-05-21T13:21:20Z</time>
      </trkpt>
      <trkpt lat="46.61033" lon="5.81037">
        <ele>647.2</ele>
        <time>2022-05-21T13:21:22Z</time>
      </trkpt>
      <trkpt lat="46.61027" lon="5.81046">
        <ele>647.8</ele>
        <time>2022-05-21T13:21:24Z</time>
      </trkpt>
      <trkpt lat="46.6102" lon="5.81054">
        <ele>648.2</ele>
        <time>2022-05-21T13:21:26Z</time>
      </trkpt>
      <trkpt lat="46.61007" lon="5.81068">
        <ele>649</ele>
        <time>2022-05-21T13:21:30Z</time>
      </trkpt>
      <trkpt lat="46.61" lon="5.81074">
        <ele>649.2</ele>
        <time>2022-05-21T13:21:32Z</time>
      </trkpt>
      <trkpt lat="46.60989" lon="5.81082">
        <ele>649.6</ele>
        <time>2022-05-21T13:21:35Z</time>
      </trkpt>
      <trkpt lat="46.60977" lon="5.81088">
        <ele>650.4</ele>
        <time>2022-05-21T13:21:38Z</time>
      </trkpt>
      <trkpt lat="46.60956" lon="5.81095">
        <ele>650.8</ele>
        <time>2022-05-21T13:21:43Z</time>
      </trkpt>
      <trkpt lat="46.60947" lon="5.81097">
        <ele>651.2</ele>
        <time>2022-05-21T13:21:45Z</time>
      </trkpt>
      <trkpt lat="46.60943" lon="5.81097">
        <ele>651.4</ele>
        <time>2022-05-21T13:21:46Z</time>
      </trkpt>
      <trkpt lat="46.60915" lon="5.81099">
        <ele>652.4</ele>
        <time>2022-05-21T13:21:52Z</time>
      </trkpt>
      <trkpt lat="46.60897" lon="5.811">
        <ele>653</ele>
        <time>2022-05-21T13:21:56Z</time>
      </trkpt>
      <trkpt lat="46.60888" lon="5.81103">
        <ele>653.4</ele>
        <time>2022-05-21T13:21:58Z</time>
      </trkpt>
      <trkpt lat="46.60883" lon="5.81105">
        <ele>653.8</ele>
        <time>2022-05-21T13:21:59Z</time>
      </trkpt>
      <trkpt lat="46.6085" lon="5.81126">
        <ele>654.4</ele>
        <time>2022-05-21T13:22:06Z</time>
      </trkpt>
      <trkpt lat="46.60832" lon="5.81138">
        <ele>654.6</ele>
        <time>2022-05-21T13:22:10Z</time>
      </trkpt>
      <trkpt lat="46.60801" lon="5.81158">
        <ele>655.4</ele>
        <time>2022-05-21T13:22:17Z</time>
      </trkpt>
      <trkpt lat="46.60792" lon="5.81165">
        <ele>655.6</ele>
        <time>2022-05-21T13:22:19Z</time>
      </trkpt>
      <trkpt lat="46.60757" lon="5.81191">
        <ele>656.6</ele>
        <time>2022-05-21T13:22:27Z</time>
      </trkpt>
      <trkpt lat="46.60748" lon="5.81197">
        <ele>656.8</ele>
        <time>2022-05-21T13:22:29Z</time>
      </trkpt>
      <trkpt lat="46.60712" lon="5.81223">
        <ele>657.8</ele>
        <time>2022-05-21T13:22:37Z</time>
      </trkpt>
      <trkpt lat="46.60703" lon="5.8123">
        <ele>658</ele>
        <time>2022-05-21T13:22:39Z</time>
      </trkpt>
      <trkpt lat="46.60695" lon="5.81239">
        <ele>658.2</ele>
        <time>2022-05-21T13:22:41Z</time>
      </trkpt>
      <trkpt lat="46.60684" lon="5.81257">
        <ele>658.6</ele>
        <time>2022-05-21T13:22:44Z</time>
      </trkpt>
      <trkpt lat="46.60681" lon="5.81263">
        <ele>658.6</ele>
        <time>2022-05-21T13:22:45Z</time>
      </trkpt>
      <trkpt lat="46.60676" lon="5.81285">
        <ele>659</ele>
        <time>2022-05-21T13:22:48Z</time>
      </trkpt>
      <trkpt lat="46.60675" lon="5.81293">
        <ele>659</ele>
        <time>2022-05-21T13:22:49Z</time>
      </trkpt>
      <trkpt lat="46.6066" lon="5.81363">
        <ele>660.2</ele>
        <time>2022-05-21T13:22:59Z</time>
      </trkpt>
      <trkpt lat="46.6064" lon="5.81439">
        <ele>661</ele>
        <time>2022-05-21T13:23:09Z</time>
      </trkpt>
      <trkpt lat="46.60638" lon="5.81447">
        <ele>661</ele>
        <time>2022-05-21T13:23:10Z</time>
      </trkpt>
      <trkpt lat="46.60616" lon="5.81523">
        <ele>661</ele>
        <time>2022-05-21T13:23:20Z</time>
      </trkpt>
      <trkpt lat="46.60613" lon="5.81531">
        <ele>661.2</ele>
        <time>2022-05-21T13:23:21Z</time>
      </trkpt>
      <trkpt lat="46.6061" lon="5.81538">
        <ele>661.2</ele>
        <time>2022-05-21T13:23:22Z</time>
      </trkpt>
      <trkpt lat="46.60603" lon="5.8155">
        <ele>661.6</ele>
        <time>2022-05-21T13:23:24Z</time>
      </trkpt>
      <trkpt lat="46.60579" lon="5.81579">
        <ele>662.4</ele>
        <time>2022-05-21T13:23:30Z</time>
      </trkpt>
      <trkpt lat="46.60575" lon="5.81583">
        <ele>662.4</ele>
        <time>2022-05-21T13:23:31Z</time>
      </trkpt>
      <trkpt lat="46.60553" lon="5.816">
        <ele>663.6</ele>
        <time>2022-05-21T13:23:36Z</time>
      </trkpt>
      <trkpt lat="46.6054" lon="5.8161">
        <ele>664.2</ele>
        <time>2022-05-21T13:23:39Z</time>
      </trkpt>
      <trkpt lat="46.60532" lon="5.81617">
        <ele>664.8</ele>
        <time>2022-05-21T13:23:41Z</time>
      </trkpt>
      <trkpt lat="46.60508" lon="5.81637">
        <ele>665.4</ele>
        <time>2022-05-21T13:23:46Z</time>
      </trkpt>
      <trkpt lat="46.60477" lon="5.81664">
        <ele>665.4</ele>
        <time>2022-05-21T13:23:52Z</time>
      </trkpt>
      <trkpt lat="46.60466" lon="5.8168">
        <ele>664.6</ele>
        <time>2022-05-21T13:23:55Z</time>
      </trkpt>
      <trkpt lat="46.60463" lon="5.81687">
        <ele>664.6</ele>
        <time>2022-05-21T13:23:56Z</time>
      </trkpt>
      <trkpt lat="46.60454" lon="5.8172">
        <ele>663.6</ele>
        <time>2022-05-21T13:24:00Z</time>
      </trkpt>
      <trkpt lat="46.60453" lon="5.81729">
        <ele>663.6</ele>
        <time>2022-05-21T13:24:01Z</time>
      </trkpt>
      <trkpt lat="46.60444" lon="5.81778">
        <ele>663.6</ele>
        <time>2022-05-21T13:24:07Z</time>
      </trkpt>
      <trkpt lat="46.60434" lon="5.81845">
        <ele>663.8</ele>
        <time>2022-05-21T13:24:15Z</time>
      </trkpt>
      <trkpt lat="46.60434" lon="5.81866">
        <ele>663.8</ele>
        <time>2022-05-21T13:24:17Z</time>
      </trkpt>
      <trkpt lat="46.60437" lon="5.81887">
        <ele>663.8</ele>
        <time>2022-05-21T13:24:19Z</time>
      </trkpt>
      <trkpt lat="46.60452" lon="5.81949">
        <ele>662.8</ele>
        <time>2022-05-21T13:24:25Z</time>
      </trkpt>
      <trkpt lat="46.60461" lon="5.81988">
        <ele>662.6</ele>
        <time>2022-05-21T13:24:29Z</time>
      </trkpt>
      <trkpt lat="46.60466" lon="5.82017">
        <ele>662.6</ele>
        <time>2022-05-21T13:24:32Z</time>
      </trkpt>
      <trkpt lat="46.60467" lon="5.82027">
        <ele>662.4</ele>
        <time>2022-05-21T13:24:33Z</time>
      </trkpt>
      <trkpt lat="46.60466" lon="5.82052">
        <ele>662.6</ele>
        <time>2022-05-21T13:24:36Z</time>
      </trkpt>
      <trkpt lat="46.60463" lon="5.82084">
        <ele>663.4</ele>
        <time>2022-05-21T13:24:41Z</time>
      </trkpt>
      <trkpt lat="46.60462" lon="5.8209">
        <ele>664.2</ele>
        <time>2022-05-21T13:24:42Z</time>
      </trkpt>
      <trkpt lat="46.60459" lon="5.82114">
        <ele>665.4</ele>
        <time>2022-05-21T13:24:46Z</time>
      </trkpt>
      <trkpt lat="46.60458" lon="5.82133">
        <ele>666.8</ele>
        <time>2022-05-21T13:24:49Z</time>
      </trkpt>
      <trkpt lat="46.60458" lon="5.82156">
        <ele>668</ele>
        <time>2022-05-21T13:24:53Z</time>
      </trkpt>
      <trkpt lat="46.60461" lon="5.82179">
        <ele>669.2</ele>
        <time>2022-05-21T13:24:57Z</time>
      </trkpt>
      <trkpt lat="46.60465" lon="5.82196">
        <ele>670.2</ele>
        <time>2022-05-21T13:25:00Z</time>
      </trkpt>
      <trkpt lat="46.60471" lon="5.82213">
        <ele>671.2</ele>
        <time>2022-05-21T13:25:03Z</time>
      </trkpt>
      <trkpt lat="46.60473" lon="5.82218">
        <ele>671.4</ele>
        <time>2022-05-21T13:25:04Z</time>
      </trkpt>
      <trkpt lat="46.60483" lon="5.8224">
        <ele>672.4</ele>
        <time>2022-05-21T13:25:08Z</time>
      </trkpt>
      <trkpt lat="46.60486" lon="5.82246">
        <ele>672.4</ele>
        <time>2022-05-21T13:25:09Z</time>
      </trkpt>
      <trkpt lat="46.60493" lon="5.82266">
        <ele>672.8</ele>
        <time>2022-05-21T13:25:12Z</time>
      </trkpt>
      <trkpt lat="46.60494" lon="5.82273">
        <ele>672.8</ele>
        <time>2022-05-21T13:25:13Z</time>
      </trkpt>
      <trkpt lat="46.60495" lon="5.82287">
        <ele>672.8</ele>
        <time>2022-05-21T13:25:15Z</time>
      </trkpt>
      <trkpt lat="46.60495" lon="5.82301">
        <ele>672.8</ele>
        <time>2022-05-21T13:25:17Z</time>
      </trkpt>
      <trkpt lat="46.60489" lon="5.82352">
        <ele>673.2</ele>
        <time>2022-05-21T13:25:24Z</time>
      </trkpt>
      <trkpt lat="46.6048" lon="5.82411">
        <ele>673.4</ele>
        <time>2022-05-21T13:25:31Z</time>
      </trkpt>
      <trkpt lat="46.60477" lon="5.82428">
        <ele>673.4</ele>
        <time>2022-05-21T13:25:33Z</time>
      </trkpt>
      <trkpt lat="46.60466" lon="5.82491">
        <ele>673.6</ele>
        <time>2022-05-21T13:25:41Z</time>
      </trkpt>
      <trkpt lat="46.60459" lon="5.8252">
        <ele>674.4</ele>
        <time>2022-05-21T13:25:45Z</time>
      </trkpt>
      <trkpt lat="46.60453" lon="5.82541">
        <ele>675.4</ele>
        <time>2022-05-21T13:25:48Z</time>
      </trkpt>
      <trkpt lat="46.6045" lon="5.82548">
        <ele>675.6</ele>
        <time>2022-05-21T13:25:49Z</time>
      </trkpt>
      <trkpt lat="46.60438" lon="5.82581">
        <ele>676.8</ele>
        <time>2022-05-21T13:25:54Z</time>
      </trkpt>
      <trkpt lat="46.6043" lon="5.82602">
        <ele>677.2</ele>
        <time>2022-05-21T13:25:57Z</time>
      </trkpt>
      <trkpt lat="46.60418" lon="5.82629">
        <ele>677.8</ele>
        <time>2022-05-21T13:26:01Z</time>
      </trkpt>
      <trkpt lat="46.60408" lon="5.82648">
        <ele>678</ele>
        <time>2022-05-21T13:26:04Z</time>
      </trkpt>
      <trkpt lat="46.60384" lon="5.82684">
        <ele>678.8</ele>
        <time>2022-05-21T13:26:11Z</time>
      </trkpt>
      <trkpt lat="46.60376" lon="5.82693">
        <ele>679.2</ele>
        <time>2022-05-21T13:26:13Z</time>
      </trkpt>
      <trkpt lat="46.60359" lon="5.82707">
        <ele>679.4</ele>
        <time>2022-05-21T13:26:17Z</time>
      </trkpt>
      <trkpt lat="46.60351" lon="5.82712">
        <ele>679.6</ele>
        <time>2022-05-21T13:26:19Z</time>
      </trkpt>
      <trkpt lat="46.60338" lon="5.82721">
        <ele>680.2</ele>
        <time>2022-05-21T13:26:22Z</time>
      </trkpt>
      <trkpt lat="46.60334" lon="5.82724">
        <ele>680.2</ele>
        <time>2022-05-21T13:26:23Z</time>
      </trkpt>
      <trkpt lat="46.60315" lon="5.82736">
        <ele>681.2</ele>
        <time>2022-05-21T13:26:27Z</time>
      </trkpt>
      <trkpt lat="46.60296" lon="5.82749">
        <ele>681.6</ele>
        <time>2022-05-21T13:26:31Z</time>
      </trkpt>
      <trkpt lat="46.60262" lon="5.82784">
        <ele>682</ele>
        <time>2022-05-21T13:26:38Z</time>
      </trkpt>
      <trkpt lat="46.6024" lon="5.82819">
        <ele>681.8</ele>
        <time>2022-05-21T13:26:43Z</time>
      </trkpt>
      <trkpt lat="46.60222" lon="5.82857">
        <ele>680</ele>
        <time>2022-05-21T13:26:47Z</time>
      </trkpt>
      <trkpt lat="46.60217" lon="5.82865">
        <ele>679.6</ele>
        <time>2022-05-21T13:26:48Z</time>
      </trkpt>
      <trkpt lat="46.60202" lon="5.82887">
        <ele>679.2</ele>
        <time>2022-05-21T13:26:51Z</time>
      </trkpt>
      <trkpt lat="46.60196" lon="5.82892">
        <ele>679.2</ele>
        <time>2022-05-21T13:26:52Z</time>
      </trkpt>
      <trkpt lat="46.60185" lon="5.82902">
        <ele>678.8</ele>
        <time>2022-05-21T13:26:54Z</time>
      </trkpt>
      <trkpt lat="46.60179" lon="5.82908">
        <ele>678.6</ele>
        <time>2022-05-21T13:26:55Z</time>
      </trkpt>
      <trkpt lat="46.60169" lon="5.82921">
        <ele>678.4</ele>
        <time>2022-05-21T13:26:57Z</time>
      </trkpt>
      <trkpt lat="46.60143" lon="5.82972">
        <ele>677.8</ele>
        <time>2022-05-21T13:27:03Z</time>
      </trkpt>
      <trkpt lat="46.6014" lon="5.82979">
        <ele>677.4</ele>
        <time>2022-05-21T13:27:04Z</time>
      </trkpt>
      <trkpt lat="46.60126" lon="5.83018">
        <ele>676.4</ele>
        <time>2022-05-21T13:27:08Z</time>
      </trkpt>
      <trkpt lat="46.60121" lon="5.8304">
        <ele>676.2</ele>
        <time>2022-05-21T13:27:10Z</time>
      </trkpt>
      <trkpt lat="46.60118" lon="5.83052">
        <ele>676</ele>
        <time>2022-05-21T13:27:11Z</time>
      </trkpt>
      <trkpt lat="46.60116" lon="5.83071">
        <ele>675.4</ele>
        <time>2022-05-21T13:27:13Z</time>
      </trkpt>
      <trkpt lat="46.60115" lon="5.83081">
        <ele>675.2</ele>
        <time>2022-05-21T13:27:14Z</time>
      </trkpt>
      <trkpt lat="46.60109" lon="5.83109">
        <ele>675.2</ele>
        <time>2022-05-21T13:27:17Z</time>
      </trkpt>
      <trkpt lat="46.60107" lon="5.83116">
        <ele>675.2</ele>
        <time>2022-05-21T13:27:18Z</time>
      </trkpt>
      <trkpt lat="46.601" lon="5.83139">
        <ele>675.4</ele>
        <time>2022-05-21T13:27:21Z</time>
      </trkpt>
      <trkpt lat="46.60091" lon="5.83161">
        <ele>675.6</ele>
        <time>2022-05-21T13:27:24Z</time>
      </trkpt>
      <trkpt lat="46.60073" lon="5.83204">
        <ele>676.4</ele>
        <time>2022-05-21T13:27:30Z</time>
      </trkpt>
      <trkpt lat="46.60067" lon="5.83216">
        <ele>676.6</ele>
        <time>2022-05-21T13:27:32Z</time>
      </trkpt>
      <trkpt lat="46.60055" lon="5.83243">
        <ele>677.6</ele>
        <time>2022-05-21T13:27:36Z</time>
      </trkpt>
      <trkpt lat="46.60044" lon="5.83263">
        <ele>678.8</ele>
        <time>2022-05-21T13:27:39Z</time>
      </trkpt>
      <trkpt lat="46.60036" lon="5.83275">
        <ele>679</ele>
        <time>2022-05-21T13:27:41Z</time>
      </trkpt>
      <trkpt lat="46.60008" lon="5.83325">
        <ele>679.8</ele>
        <time>2022-05-21T13:27:49Z</time>
      </trkpt>
      <trkpt lat="46.60005" lon="5.8333">
        <ele>680</ele>
        <time>2022-05-21T13:27:50Z</time>
      </trkpt>
      <trkpt lat="46.59988" lon="5.83358">
        <ele>681</ele>
        <time>2022-05-21T13:27:55Z</time>
      </trkpt>
      <trkpt lat="46.59974" lon="5.83379">
        <ele>681.6</ele>
        <time>2022-05-21T13:27:59Z</time>
      </trkpt>
      <trkpt lat="46.59959" lon="5.834">
        <ele>682</ele>
        <time>2022-05-21T13:28:03Z</time>
      </trkpt>
      <trkpt lat="46.59934" lon="5.83427">
        <ele>683</ele>
        <time>2022-05-21T13:28:09Z</time>
      </trkpt>
      <trkpt lat="46.59929" lon="5.83431">
        <ele>683</ele>
        <time>2022-05-21T13:28:10Z</time>
      </trkpt>
      <trkpt lat="46.59907" lon="5.8345">
        <ele>684</ele>
        <time>2022-05-21T13:28:15Z</time>
      </trkpt>
      <trkpt lat="46.59889" lon="5.83463">
        <ele>684.2</ele>
        <time>2022-05-21T13:28:19Z</time>
      </trkpt>
      <trkpt lat="46.59852" lon="5.83497">
        <ele>684.8</ele>
        <time>2022-05-21T13:28:27Z</time>
      </trkpt>
      <trkpt lat="46.59837" lon="5.83512">
        <ele>685</ele>
        <time>2022-05-21T13:28:30Z</time>
      </trkpt>
      <trkpt lat="46.5981" lon="5.83533">
        <ele>684.8</ele>
        <time>2022-05-21T13:28:35Z</time>
      </trkpt>
      <trkpt lat="46.59764" lon="5.8356">
        <ele>684.8</ele>
        <time>2022-05-21T13:28:43Z</time>
      </trkpt>
      <trkpt lat="46.59735" lon="5.83583">
        <ele>685.4</ele>
        <time>2022-05-21T13:28:49Z</time>
      </trkpt>
      <trkpt lat="46.59721" lon="5.83596">
        <ele>686.2</ele>
        <time>2022-05-21T13:28:52Z</time>
      </trkpt>
      <trkpt lat="46.59708" lon="5.83609">
        <ele>687.2</ele>
        <time>2022-05-21T13:28:55Z</time>
      </trkpt>
      <trkpt lat="46.59705" lon="5.83613">
        <ele>687.6</ele>
        <time>2022-05-21T13:28:56Z</time>
      </trkpt>
      <trkpt lat="46.59693" lon="5.83624">
        <ele>689</ele>
        <time>2022-05-21T13:28:59Z</time>
      </trkpt>
      <trkpt lat="46.59689" lon="5.83629">
        <ele>689.4</ele>
        <time>2022-05-21T13:29:00Z</time>
      </trkpt>
      <trkpt lat="46.59683" lon="5.83637">
        <ele>690</ele>
        <time>2022-05-21T13:29:02Z</time>
      </trkpt>
      <trkpt lat="46.59673" lon="5.83649">
        <ele>691.2</ele>
        <time>2022-05-21T13:29:05Z</time>
      </trkpt>
      <trkpt lat="46.59667" lon="5.83656">
        <ele>691.6</ele>
        <time>2022-05-21T13:29:07Z</time>
      </trkpt>
      <trkpt lat="46.59656" lon="5.83667">
        <ele>692.4</ele>
        <time>2022-05-21T13:29:10Z</time>
      </trkpt>
      <trkpt lat="46.59644" lon="5.83674">
        <ele>693.2</ele>
        <time>2022-05-21T13:29:13Z</time>
      </trkpt>
      <trkpt lat="46.5964" lon="5.83676">
        <ele>693.6</ele>
        <time>2022-05-21T13:29:14Z</time>
      </trkpt>
      <trkpt lat="46.59624" lon="5.83677">
        <ele>694.8</ele>
        <time>2022-05-21T13:29:18Z</time>
      </trkpt>
      <trkpt lat="46.59604" lon="5.83669">
        <ele>695.8</ele>
        <time>2022-05-21T13:29:23Z</time>
      </trkpt>
      <trkpt lat="46.596" lon="5.83666">
        <ele>696.2</ele>
        <time>2022-05-21T13:29:24Z</time>
      </trkpt>
      <trkpt lat="46.59586" lon="5.83658">
        <ele>696.8</ele>
        <time>2022-05-21T13:29:28Z</time>
      </trkpt>
      <trkpt lat="46.59574" lon="5.8365">
        <ele>697.6</ele>
        <time>2022-05-21T13:29:31Z</time>
      </trkpt>
      <trkpt lat="46.59564" lon="5.83644">
        <ele>697.8</ele>
        <time>2022-05-21T13:29:34Z</time>
      </trkpt>
      <trkpt lat="46.59545" lon="5.83637">
        <ele>698.8</ele>
        <time>2022-05-21T13:29:39Z</time>
      </trkpt>
      <trkpt lat="46.59526" lon="5.8364">
        <ele>699.8</ele>
        <time>2022-05-21T13:29:44Z</time>
      </trkpt>
      <trkpt lat="46.59523" lon="5.83643">
        <ele>700.2</ele>
        <time>2022-05-21T13:29:45Z</time>
      </trkpt>
      <trkpt lat="46.5951" lon="5.83656">
        <ele>701</ele>
        <time>2022-05-21T13:29:49Z</time>
      </trkpt>
      <trkpt lat="46.595" lon="5.83667">
        <ele>701.6</ele>
        <time>2022-05-21T13:29:52Z</time>
      </trkpt>
      <trkpt lat="46.59494" lon="5.83675">
        <ele>702.2</ele>
        <time>2022-05-21T13:29:54Z</time>
      </trkpt>
      <trkpt lat="46.59477" lon="5.83699">
        <ele>703.4</ele>
        <time>2022-05-21T13:30:00Z</time>
      </trkpt>
      <trkpt lat="46.59471" lon="5.83708">
        <ele>703.6</ele>
        <time>2022-05-21T13:30:02Z</time>
      </trkpt>
      <trkpt lat="46.59462" lon="5.8372">
        <ele>704.2</ele>
        <time>2022-05-21T13:30:05Z</time>
      </trkpt>
      <trkpt lat="46.59448" lon="5.83739">
        <ele>705.2</ele>
        <time>2022-05-21T13:30:10Z</time>
      </trkpt>
      <trkpt lat="46.59445" lon="5.83743">
        <ele>705.4</ele>
        <time>2022-05-21T13:30:11Z</time>
      </trkpt>
      <trkpt lat="46.5943" lon="5.83762">
        <ele>706.4</ele>
        <time>2022-05-21T13:30:16Z</time>
      </trkpt>
      <trkpt lat="46.59424" lon="5.83769">
        <ele>706.6</ele>
        <time>2022-05-21T13:30:18Z</time>
      </trkpt>
      <trkpt lat="46.59407" lon="5.8379">
        <ele>707.4</ele>
        <time>2022-05-21T13:30:24Z</time>
      </trkpt>
      <trkpt lat="46.59396" lon="5.83799">
        <ele>708</ele>
        <time>2022-05-21T13:30:27Z</time>
      </trkpt>
      <trkpt lat="46.59393" lon="5.83801">
        <ele>708.4</ele>
        <time>2022-05-21T13:30:28Z</time>
      </trkpt>
      <trkpt lat="46.59377" lon="5.83807">
        <ele>709.4</ele>
        <time>2022-05-21T13:30:32Z</time>
      </trkpt>
      <trkpt lat="46.59374" lon="5.83807">
        <ele>710</ele>
        <time>2022-05-21T13:30:33Z</time>
      </trkpt>
      <trkpt lat="46.59366" lon="5.83807">
        <ele>711</ele>
        <time>2022-05-21T13:30:35Z</time>
      </trkpt>
      <trkpt lat="46.59346" lon="5.83805">
        <ele>712</ele>
        <time>2022-05-21T13:30:40Z</time>
      </trkpt>
      <trkpt lat="46.59338" lon="5.83804">
        <ele>712.6</ele>
        <time>2022-05-21T13:30:42Z</time>
      </trkpt>
      <trkpt lat="46.5933" lon="5.83803">
        <ele>713.2</ele>
        <time>2022-05-21T13:30:44Z</time>
      </trkpt>
      <trkpt lat="46.59311" lon="5.83801">
        <ele>714.4</ele>
        <time>2022-05-21T13:30:49Z</time>
      </trkpt>
      <trkpt lat="46.59307" lon="5.83801">
        <ele>714.6</ele>
        <time>2022-05-21T13:30:50Z</time>
      </trkpt>
      <trkpt lat="46.59295" lon="5.83801">
        <ele>715.4</ele>
        <time>2022-05-21T13:30:53Z</time>
      </trkpt>
      <trkpt lat="46.59283" lon="5.83801">
        <ele>715.8</ele>
        <time>2022-05-21T13:30:56Z</time>
      </trkpt>
      <trkpt lat="46.59275" lon="5.83802">
        <ele>716.4</ele>
        <time>2022-05-21T13:30:58Z</time>
      </trkpt>
      <trkpt lat="46.59252" lon="5.8381">
        <ele>717.6</ele>
        <time>2022-05-21T13:31:04Z</time>
      </trkpt>
      <trkpt lat="46.59236" lon="5.83823">
        <ele>718.8</ele>
        <time>2022-05-21T13:31:09Z</time>
      </trkpt>
      <trkpt lat="46.59227" lon="5.83831">
        <ele>719.6</ele>
        <time>2022-05-21T13:31:12Z</time>
      </trkpt>
      <trkpt lat="46.59221" lon="5.83835">
        <ele>719.8</ele>
        <time>2022-05-21T13:31:14Z</time>
      </trkpt>
      <trkpt lat="46.59205" lon="5.83849">
        <ele>720.6</ele>
        <time>2022-05-21T13:31:19Z</time>
      </trkpt>
      <trkpt lat="46.59202" lon="5.83852">
        <ele>721</ele>
        <time>2022-05-21T13:31:20Z</time>
      </trkpt>
      <trkpt lat="46.59183" lon="5.8387">
        <ele>722</ele>
        <time>2022-05-21T13:31:26Z</time>
      </trkpt>
      <trkpt lat="46.59175" lon="5.83878">
        <ele>722.6</ele>
        <time>2022-05-21T13:31:29Z</time>
      </trkpt>
      <trkpt lat="46.59167" lon="5.83885">
        <ele>723.2</ele>
        <time>2022-05-21T13:31:32Z</time>
      </trkpt>
      <trkpt lat="46.59157" lon="5.83892">
        <ele>723.8</ele>
        <time>2022-05-21T13:31:36Z</time>
      </trkpt>
      <trkpt lat="46.59157" lon="5.83892">
        <ele>724</ele>
        <time>2022-05-21T13:31:38Z</time>
      </trkpt>
      <trkpt lat="46.59153" lon="5.83894">
        <ele>724.2</ele>
        <time>2022-05-21T13:31:49Z</time>
      </trkpt>
      <trkpt lat="46.59161" lon="5.83908">
        <ele>724.2</ele>
        <time>2022-05-21T13:31:53Z</time>
      </trkpt>
      <trkpt lat="46.59167" lon="5.83917">
        <ele>724.2</ele>
        <time>2022-05-21T13:31:55Z</time>
      </trkpt>
      <trkpt lat="46.59171" lon="5.83929">
        <ele>724.2</ele>
        <time>2022-05-21T13:31:57Z</time>
      </trkpt>
      <trkpt lat="46.59171" lon="5.83936">
        <ele>724.4</ele>
        <time>2022-05-21T13:31:58Z</time>
      </trkpt>
      <trkpt lat="46.59169" lon="5.83942">
        <ele>724.4</ele>
        <time>2022-05-21T13:31:59Z</time>
      </trkpt>
      <trkpt lat="46.59163" lon="5.83952">
        <ele>724.4</ele>
        <time>2022-05-21T13:32:01Z</time>
      </trkpt>
      <trkpt lat="46.59156" lon="5.83962">
        <ele>724.6</ele>
        <time>2022-05-21T13:32:03Z</time>
      </trkpt>
      <trkpt lat="46.59139" lon="5.83977">
        <ele>725.4</ele>
        <time>2022-05-21T13:32:07Z</time>
      </trkpt>
      <trkpt lat="46.59129" lon="5.8398">
        <ele>725.8</ele>
        <time>2022-05-21T13:32:09Z</time>
      </trkpt>
      <trkpt lat="46.5912" lon="5.83979">
        <ele>726</ele>
        <time>2022-05-21T13:32:11Z</time>
      </trkpt>
      <trkpt lat="46.59106" lon="5.83974">
        <ele>726.4</ele>
        <time>2022-05-21T13:32:14Z</time>
      </trkpt>
      <trkpt lat="46.59099" lon="5.83968">
        <ele>726.8</ele>
        <time>2022-05-21T13:32:16Z</time>
      </trkpt>
      <trkpt lat="46.59092" lon="5.83959">
        <ele>727.4</ele>
        <time>2022-05-21T13:32:18Z</time>
      </trkpt>
      <trkpt lat="46.5909" lon="5.83954">
        <ele>727.4</ele>
        <time>2022-05-21T13:32:19Z</time>
      </trkpt>
      <trkpt lat="46.59086" lon="5.83942">
        <ele>728</ele>
        <time>2022-05-21T13:32:21Z</time>
      </trkpt>
      <trkpt lat="46.5908" lon="5.83925">
        <ele>728.2</ele>
        <time>2022-05-21T13:32:24Z</time>
      </trkpt>
      <trkpt lat="46.59076" lon="5.83914">
        <ele>728.4</ele>
        <time>2022-05-21T13:32:26Z</time>
      </trkpt>
      <trkpt lat="46.59074" lon="5.83909">
        <ele>728.6</ele>
        <time>2022-05-21T13:32:27Z</time>
      </trkpt>
      <trkpt lat="46.5907" lon="5.83904">
        <ele>728.6</ele>
        <time>2022-05-21T13:32:28Z</time>
      </trkpt>
      <trkpt lat="46.59062" lon="5.83897">
        <ele>729</ele>
        <time>2022-05-21T13:32:30Z</time>
      </trkpt>
      <trkpt lat="46.59054" lon="5.83893">
        <ele>729.4</ele>
        <time>2022-05-21T13:32:32Z</time>
      </trkpt>
      <trkpt lat="46.5905" lon="5.83891">
        <ele>729.6</ele>
        <time>2022-05-21T13:32:33Z</time>
      </trkpt>
      <trkpt lat="46.59042" lon="5.8389">
        <ele>730.2</ele>
        <time>2022-05-21T13:32:35Z</time>
      </trkpt>
      <trkpt lat="46.59034" lon="5.8389">
        <ele>730.6</ele>
        <time>2022-05-21T13:32:37Z</time>
      </trkpt>
      <trkpt lat="46.59029" lon="5.8389">
        <ele>730.8</ele>
        <time>2022-05-21T13:32:38Z</time>
      </trkpt>
      <trkpt lat="46.5901" lon="5.83898">
        <ele>731.8</ele>
        <time>2022-05-21T13:32:43Z</time>
      </trkpt>
      <trkpt lat="46.59006" lon="5.83901">
        <ele>732</ele>
        <time>2022-05-21T13:32:44Z</time>
      </trkpt>
      <trkpt lat="46.58989" lon="5.8391">
        <ele>733.2</ele>
        <time>2022-05-21T13:32:48Z</time>
      </trkpt>
      <trkpt lat="46.58977" lon="5.83918">
        <ele>733.8</ele>
        <time>2022-05-21T13:32:51Z</time>
      </trkpt>
      <trkpt lat="46.5897" lon="5.83924">
        <ele>734</ele>
        <time>2022-05-21T13:32:53Z</time>
      </trkpt>
      <trkpt lat="46.58966" lon="5.83927">
        <ele>734.2</ele>
        <time>2022-05-21T13:32:54Z</time>
      </trkpt>
      <trkpt lat="46.58962" lon="5.83928">
        <ele>734.2</ele>
        <time>2022-05-21T13:32:55Z</time>
      </trkpt>
      <trkpt lat="46.58951" lon="5.83932">
        <ele>734.8</ele>
        <time>2022-05-21T13:32:58Z</time>
      </trkpt>
      <trkpt lat="46.58942" lon="5.83933">
        <ele>735.2</ele>
        <time>2022-05-21T13:33:00Z</time>
      </trkpt>
      <trkpt lat="46.58929" lon="5.83929">
        <ele>736</ele>
        <time>2022-05-21T13:33:03Z</time>
      </trkpt>
      <trkpt lat="46.58916" lon="5.83922">
        <ele>736.2</ele>
        <time>2022-05-21T13:33:06Z</time>
      </trkpt>
      <trkpt lat="46.58903" lon="5.83913">
        <ele>737</ele>
        <time>2022-05-21T13:33:09Z</time>
      </trkpt>
      <trkpt lat="46.58898" lon="5.83911">
        <ele>737.2</ele>
        <time>2022-05-21T13:33:10Z</time>
      </trkpt>
      <trkpt lat="46.58894" lon="5.83909">
        <ele>737.4</ele>
        <time>2022-05-21T13:33:11Z</time>
      </trkpt>
      <trkpt lat="46.58891" lon="5.83906">
        <ele>737.4</ele>
        <time>2022-05-21T13:33:12Z</time>
      </trkpt>
      <trkpt lat="46.58886" lon="5.83904">
        <ele>737.6</ele>
        <time>2022-05-21T13:33:13Z</time>
      </trkpt>
      <trkpt lat="46.58883" lon="5.83901">
        <ele>737.6</ele>
        <time>2022-05-21T13:33:14Z</time>
      </trkpt>
      <trkpt lat="46.58874" lon="5.83897">
        <ele>738</ele>
        <time>2022-05-21T13:33:16Z</time>
      </trkpt>
      <trkpt lat="46.58863" lon="5.83888">
        <ele>738.4</ele>
        <time>2022-05-21T13:33:19Z</time>
      </trkpt>
      <trkpt lat="46.58852" lon="5.83879">
        <ele>738.6</ele>
        <time>2022-05-21T13:33:22Z</time>
      </trkpt>
      <trkpt lat="46.5884" lon="5.83874">
        <ele>739.2</ele>
        <time>2022-05-21T13:33:25Z</time>
      </trkpt>
      <trkpt lat="46.58831" lon="5.83873">
        <ele>739.2</ele>
        <time>2022-05-21T13:33:27Z</time>
      </trkpt>
      <trkpt lat="46.58827" lon="5.83874">
        <ele>739.4</ele>
        <time>2022-05-21T13:33:28Z</time>
      </trkpt>
      <trkpt lat="46.58823" lon="5.83876">
        <ele>739.6</ele>
        <time>2022-05-21T13:33:29Z</time>
      </trkpt>
      <trkpt lat="46.58815" lon="5.83881">
        <ele>739.8</ele>
        <time>2022-05-21T13:33:31Z</time>
      </trkpt>
      <trkpt lat="46.58808" lon="5.83889">
        <ele>739.6</ele>
        <time>2022-05-21T13:33:33Z</time>
      </trkpt>
      <trkpt lat="46.58802" lon="5.839">
        <ele>740.2</ele>
        <time>2022-05-21T13:33:35Z</time>
      </trkpt>
      <trkpt lat="46.58798" lon="5.83919">
        <ele>740.4</ele>
        <time>2022-05-21T13:33:38Z</time>
      </trkpt>
      <trkpt lat="46.58797" lon="5.83932">
        <ele>740.4</ele>
        <time>2022-05-21T13:33:40Z</time>
      </trkpt>
      <trkpt lat="46.58797" lon="5.83937">
        <ele>740.4</ele>
        <time>2022-05-21T13:33:41Z</time>
      </trkpt>
      <trkpt lat="46.58798" lon="5.83943">
        <ele>740.6</ele>
        <time>2022-05-21T13:33:43Z</time>
      </trkpt>
      <trkpt lat="46.58798" lon="5.83945">
        <ele>741</ele>
        <time>2022-05-21T13:33:48Z</time>
      </trkpt>
      <trkpt lat="46.58799" lon="5.83949">
        <ele>741</ele>
        <time>2022-05-21T13:34:00Z</time>
      </trkpt>
      <trkpt lat="46.58801" lon="5.83958">
        <ele>741</ele>
        <time>2022-05-21T13:34:02Z</time>
      </trkpt>
      <trkpt lat="46.58801" lon="5.83962">
        <ele>741</ele>
        <time>2022-05-21T13:34:03Z</time>
      </trkpt>
      <trkpt lat="46.588" lon="5.83976">
        <ele>740.8</ele>
        <time>2022-05-21T13:34:05Z</time>
      </trkpt>
      <trkpt lat="46.58798" lon="5.83985">
        <ele>740.8</ele>
        <time>2022-05-21T13:34:06Z</time>
      </trkpt>
      <trkpt lat="46.58792" lon="5.84001">
        <ele>740.8</ele>
        <time>2022-05-21T13:34:08Z</time>
      </trkpt>
      <trkpt lat="46.58766" lon="5.84054">
        <ele>740.8</ele>
        <time>2022-05-21T13:34:15Z</time>
      </trkpt>
      <trkpt lat="46.58762" lon="5.84061">
        <ele>741</ele>
        <time>2022-05-21T13:34:16Z</time>
      </trkpt>
      <trkpt lat="46.58753" lon="5.84074">
        <ele>741</ele>
        <time>2022-05-21T13:34:18Z</time>
      </trkpt>
      <trkpt lat="46.58747" lon="5.84078">
        <ele>741.2</ele>
        <time>2022-05-21T13:34:19Z</time>
      </trkpt>
      <trkpt lat="46.58741" lon="5.84082">
        <ele>741.2</ele>
        <time>2022-05-21T13:34:20Z</time>
      </trkpt>
      <trkpt lat="46.58727" lon="5.84087">
        <ele>741.2</ele>
        <time>2022-05-21T13:34:22Z</time>
      </trkpt>
      <trkpt lat="46.58714" lon="5.84089">
        <ele>741.4</ele>
        <time>2022-05-21T13:34:24Z</time>
      </trkpt>
      <trkpt lat="46.58703" lon="5.84093">
        <ele>741.4</ele>
        <time>2022-05-21T13:34:26Z</time>
      </trkpt>
      <trkpt lat="46.58698" lon="5.84097">
        <ele>741.4</ele>
        <time>2022-05-21T13:34:27Z</time>
      </trkpt>
      <trkpt lat="46.58694" lon="5.84103">
        <ele>741.2</ele>
        <time>2022-05-21T13:34:28Z</time>
      </trkpt>
      <trkpt lat="46.58689" lon="5.84119">
        <ele>741.2</ele>
        <time>2022-05-21T13:34:30Z</time>
      </trkpt>
      <trkpt lat="46.58679" lon="5.84167">
        <ele>741</ele>
        <time>2022-05-21T13:34:35Z</time>
      </trkpt>
      <trkpt lat="46.58675" lon="5.84187">
        <ele>740.2</ele>
        <time>2022-05-21T13:34:37Z</time>
      </trkpt>
      <trkpt lat="46.58666" lon="5.84238">
        <ele>739.4</ele>
        <time>2022-05-21T13:34:42Z</time>
      </trkpt>
      <trkpt lat="46.58666" lon="5.84249">
        <ele>739.4</ele>
        <time>2022-05-21T13:34:43Z</time>
      </trkpt>
      <trkpt lat="46.58666" lon="5.84259">
        <ele>739.4</ele>
        <time>2022-05-21T13:34:44Z</time>
      </trkpt>
      <trkpt lat="46.58672" lon="5.84291">
        <ele>739.2</ele>
        <time>2022-05-21T13:34:47Z</time>
      </trkpt>
      <trkpt lat="46.58674" lon="5.84303">
        <ele>739.2</ele>
        <time>2022-05-21T13:34:48Z</time>
      </trkpt>
      <trkpt lat="46.58675" lon="5.84325">
        <ele>738.8</ele>
        <time>2022-05-21T13:34:50Z</time>
      </trkpt>
      <trkpt lat="46.58672" lon="5.84347">
        <ele>738</ele>
        <time>2022-05-21T13:34:52Z</time>
      </trkpt>
      <trkpt lat="46.58654" lon="5.84423">
        <ele>737.2</ele>
        <time>2022-05-21T13:34:59Z</time>
      </trkpt>
      <trkpt lat="46.5865" lon="5.84434">
        <ele>737.2</ele>
        <time>2022-05-21T13:35:00Z</time>
      </trkpt>
      <trkpt lat="46.58645" lon="5.84443">
        <ele>737.2</ele>
        <time>2022-05-21T13:35:01Z</time>
      </trkpt>
      <trkpt lat="46.5864" lon="5.8445">
        <ele>737.2</ele>
        <time>2022-05-21T13:35:02Z</time>
      </trkpt>
      <trkpt lat="46.58628" lon="5.8446">
        <ele>737.2</ele>
        <time>2022-05-21T13:35:04Z</time>
      </trkpt>
      <trkpt lat="46.58622" lon="5.84463">
        <ele>737.2</ele>
        <time>2022-05-21T13:35:05Z</time>
      </trkpt>
      <trkpt lat="46.58615" lon="5.84465">
        <ele>737.4</ele>
        <time>2022-05-21T13:35:06Z</time>
      </trkpt>
      <trkpt lat="46.5859" lon="5.84468">
        <ele>738.2</ele>
        <time>2022-05-21T13:35:10Z</time>
      </trkpt>
      <trkpt lat="46.5857" lon="5.84468">
        <ele>738.6</ele>
        <time>2022-05-21T13:35:13Z</time>
      </trkpt>
      <trkpt lat="46.58559" lon="5.84472">
        <ele>739.2</ele>
        <time>2022-05-21T13:35:15Z</time>
      </trkpt>
      <trkpt lat="46.58549" lon="5.8448">
        <ele>739.6</ele>
        <time>2022-05-21T13:35:17Z</time>
      </trkpt>
      <trkpt lat="46.58542" lon="5.84492">
        <ele>739.8</ele>
        <time>2022-05-21T13:35:19Z</time>
      </trkpt>
      <trkpt lat="46.58534" lon="5.84519">
        <ele>740.2</ele>
        <time>2022-05-21T13:35:22Z</time>
      </trkpt>
      <trkpt lat="46.58531" lon="5.84528">
        <ele>740.4</ele>
        <time>2022-05-21T13:35:23Z</time>
      </trkpt>
      <trkpt lat="46.58522" lon="5.84545">
        <ele>740.8</ele>
        <time>2022-05-21T13:35:25Z</time>
      </trkpt>
      <trkpt lat="46.5851" lon="5.84558">
        <ele>740.8</ele>
        <time>2022-05-21T13:35:27Z</time>
      </trkpt>
      <trkpt lat="46.58473" lon="5.84597">
        <ele>740.8</ele>
        <time>2022-05-21T13:35:34Z</time>
      </trkpt>
      <trkpt lat="46.58445" lon="5.84624">
        <ele>741.2</ele>
        <time>2022-05-21T13:35:39Z</time>
      </trkpt>
      <trkpt lat="46.58434" lon="5.84633">
        <ele>741.6</ele>
        <time>2022-05-21T13:35:41Z</time>
      </trkpt>
      <trkpt lat="46.5841" lon="5.84637">
        <ele>742.4</ele>
        <time>2022-05-21T13:35:45Z</time>
      </trkpt>
      <trkpt lat="46.58405" lon="5.84636">
        <ele>742.6</ele>
        <time>2022-05-21T13:35:46Z</time>
      </trkpt>
      <trkpt lat="46.584" lon="5.84634">
        <ele>742.8</ele>
        <time>2022-05-21T13:35:47Z</time>
      </trkpt>
      <trkpt lat="46.5839" lon="5.84626">
        <ele>743</ele>
        <time>2022-05-21T13:35:49Z</time>
      </trkpt>
      <trkpt lat="46.58381" lon="5.84618">
        <ele>743.8</ele>
        <time>2022-05-21T13:35:51Z</time>
      </trkpt>
      <trkpt lat="46.58377" lon="5.84612">
        <ele>744.4</ele>
        <time>2022-05-21T13:35:52Z</time>
      </trkpt>
      <trkpt lat="46.58367" lon="5.84594">
        <ele>745</ele>
        <time>2022-05-21T13:35:55Z</time>
      </trkpt>
      <trkpt lat="46.58362" lon="5.84581">
        <ele>745.2</ele>
        <time>2022-05-21T13:35:57Z</time>
      </trkpt>
      <trkpt lat="46.5836" lon="5.84567">
        <ele>745.4</ele>
        <time>2022-05-21T13:35:59Z</time>
      </trkpt>
      <trkpt lat="46.58359" lon="5.84552">
        <ele>745.6</ele>
        <time>2022-05-21T13:36:01Z</time>
      </trkpt>
      <trkpt lat="46.5836" lon="5.84544">
        <ele>745.6</ele>
        <time>2022-05-21T13:36:02Z</time>
      </trkpt>
      <trkpt lat="46.5836" lon="5.84529">
        <ele>746.2</ele>
        <time>2022-05-21T13:36:04Z</time>
      </trkpt>
      <trkpt lat="46.5836" lon="5.84506">
        <ele>746.8</ele>
        <time>2022-05-21T13:36:07Z</time>
      </trkpt>
      <trkpt lat="46.58361" lon="5.84492">
        <ele>747.2</ele>
        <time>2022-05-21T13:36:09Z</time>
      </trkpt>
      <trkpt lat="46.58359" lon="5.84478">
        <ele>747.6</ele>
        <time>2022-05-21T13:36:11Z</time>
      </trkpt>
      <trkpt lat="46.58356" lon="5.84464">
        <ele>747.8</ele>
        <time>2022-05-21T13:36:13Z</time>
      </trkpt>
      <trkpt lat="46.58342" lon="5.84441">
        <ele>748.2</ele>
        <time>2022-05-21T13:36:17Z</time>
      </trkpt>
      <trkpt lat="46.58338" lon="5.84436">
        <ele>748.2</ele>
        <time>2022-05-21T13:36:18Z</time>
      </trkpt>
      <trkpt lat="46.58312" lon="5.84402">
        <ele>748.8</ele>
        <time>2022-05-21T13:36:25Z</time>
      </trkpt>
      <trkpt lat="46.58304" lon="5.84392">
        <ele>749.4</ele>
        <time>2022-05-21T13:36:27Z</time>
      </trkpt>
      <trkpt lat="46.5828" lon="5.84359">
        <ele>750</ele>
        <time>2022-05-21T13:36:33Z</time>
      </trkpt>
      <trkpt lat="46.58276" lon="5.84351">
        <ele>750.2</ele>
        <time>2022-05-21T13:36:34Z</time>
      </trkpt>
      <trkpt lat="46.58274" lon="5.84342">
        <ele>750.2</ele>
        <time>2022-05-21T13:36:35Z</time>
      </trkpt>
      <trkpt lat="46.58266" lon="5.84305">
        <ele>750.2</ele>
        <time>2022-05-21T13:36:39Z</time>
      </trkpt>
      <trkpt lat="46.58265" lon="5.84296">
        <ele>750.2</ele>
        <time>2022-05-21T13:36:40Z</time>
      </trkpt>
      <trkpt lat="46.58262" lon="5.84278">
        <ele>750.2</ele>
        <time>2022-05-21T13:36:42Z</time>
      </trkpt>
      <trkpt lat="46.58261" lon="5.84269">
        <ele>750.2</ele>
        <time>2022-05-21T13:36:43Z</time>
      </trkpt>
      <trkpt lat="46.58259" lon="5.84261">
        <ele>750.2</ele>
        <time>2022-05-21T13:36:44Z</time>
      </trkpt>
      <trkpt lat="46.58254" lon="5.84233">
        <ele>750.4</ele>
        <time>2022-05-21T13:36:47Z</time>
      </trkpt>
      <trkpt lat="46.58243" lon="5.84187">
        <ele>750.6</ele>
        <time>2022-05-21T13:36:52Z</time>
      </trkpt>
      <trkpt lat="46.58235" lon="5.84164">
        <ele>750.6</ele>
        <time>2022-05-21T13:36:55Z</time>
      </trkpt>
      <trkpt lat="46.58228" lon="5.84152">
        <ele>750.4</ele>
        <time>2022-05-21T13:36:57Z</time>
      </trkpt>
      <trkpt lat="46.58219" lon="5.84142">
        <ele>750.2</ele>
        <time>2022-05-21T13:36:59Z</time>
      </trkpt>
      <trkpt lat="46.58205" lon="5.84133">
        <ele>750</ele>
        <time>2022-05-21T13:37:01Z</time>
      </trkpt>
      <trkpt lat="46.58195" lon="5.84117">
        <ele>750</ele>
        <time>2022-05-21T13:37:03Z</time>
      </trkpt>
      <trkpt lat="46.58192" lon="5.84107">
        <ele>750</ele>
        <time>2022-05-21T13:37:04Z</time>
      </trkpt>
      <trkpt lat="46.5819" lon="5.84097">
        <ele>749.8</ele>
        <time>2022-05-21T13:37:05Z</time>
      </trkpt>
      <trkpt lat="46.58189" lon="5.84074">
        <ele>749.6</ele>
        <time>2022-05-21T13:37:07Z</time>
      </trkpt>
      <trkpt lat="46.58192" lon="5.84053">
        <ele>749.6</ele>
        <time>2022-05-21T13:37:09Z</time>
      </trkpt>
      <trkpt lat="46.58195" lon="5.84031">
        <ele>749.2</ele>
        <time>2022-05-21T13:37:11Z</time>
      </trkpt>
      <trkpt lat="46.58197" lon="5.8402">
        <ele>748.8</ele>
        <time>2022-05-21T13:37:12Z</time>
      </trkpt>
      <trkpt lat="46.58199" lon="5.83999">
        <ele>748.4</ele>
        <time>2022-05-21T13:37:14Z</time>
      </trkpt>
      <trkpt lat="46.58199" lon="5.83977">
        <ele>748.2</ele>
        <time>2022-05-21T13:37:16Z</time>
      </trkpt>
      <trkpt lat="46.58192" lon="5.83915">
        <ele>748.4</ele>
        <time>2022-05-21T13:37:22Z</time>
      </trkpt>
      <trkpt lat="46.58186" lon="5.83847">
        <ele>748.2</ele>
        <time>2022-05-21T13:37:29Z</time>
      </trkpt>
      <trkpt lat="46.5818" lon="5.83776">
        <ele>748.8</ele>
        <time>2022-05-21T13:37:37Z</time>
      </trkpt>
      <trkpt lat="46.58174" lon="5.83731">
        <ele>749.8</ele>
        <time>2022-05-21T13:37:42Z</time>
      </trkpt>
      <trkpt lat="46.58172" lon="5.83723">
        <ele>750</ele>
        <time>2022-05-21T13:37:43Z</time>
      </trkpt>
      <trkpt lat="46.58169" lon="5.8368">
        <ele>751</ele>
        <time>2022-05-21T13:37:48Z</time>
      </trkpt>
      <trkpt lat="46.5817" lon="5.83662">
        <ele>751</ele>
        <time>2022-05-21T13:37:50Z</time>
      </trkpt>
      <trkpt lat="46.58172" lon="5.83645">
        <ele>751.4</ele>
        <time>2022-05-21T13:37:52Z</time>
      </trkpt>
      <trkpt lat="46.58176" lon="5.83628">
        <ele>751.6</ele>
        <time>2022-05-21T13:37:54Z</time>
      </trkpt>
      <trkpt lat="46.58178" lon="5.83619">
        <ele>751.6</ele>
        <time>2022-05-21T13:37:55Z</time>
      </trkpt>
      <trkpt lat="46.58183" lon="5.83587">
        <ele>752</ele>
        <time>2022-05-21T13:37:59Z</time>
      </trkpt>
      <trkpt lat="46.58183" lon="5.83569">
        <ele>752</ele>
        <time>2022-05-21T13:38:01Z</time>
      </trkpt>
      <trkpt lat="46.58177" lon="5.83551">
        <ele>752</ele>
        <time>2022-05-21T13:38:03Z</time>
      </trkpt>
      <trkpt lat="46.58173" lon="5.83543">
        <ele>752</ele>
        <time>2022-05-21T13:38:04Z</time>
      </trkpt>
      <trkpt lat="46.58169" lon="5.83536">
        <ele>751.6</ele>
        <time>2022-05-21T13:38:05Z</time>
      </trkpt>
      <trkpt lat="46.58158" lon="5.83525">
        <ele>751.2</ele>
        <time>2022-05-21T13:38:07Z</time>
      </trkpt>
      <trkpt lat="46.58152" lon="5.83521">
        <ele>751.2</ele>
        <time>2022-05-21T13:38:08Z</time>
      </trkpt>
      <trkpt lat="46.58146" lon="5.83518">
        <ele>750.8</ele>
        <time>2022-05-21T13:38:09Z</time>
      </trkpt>
      <trkpt lat="46.58121" lon="5.83508">
        <ele>750.4</ele>
        <time>2022-05-21T13:38:13Z</time>
      </trkpt>
      <trkpt lat="46.58109" lon="5.83497">
        <ele>750.2</ele>
        <time>2022-05-21T13:38:15Z</time>
      </trkpt>
      <trkpt lat="46.58105" lon="5.83489">
        <ele>750.2</ele>
        <time>2022-05-21T13:38:16Z</time>
      </trkpt>
      <trkpt lat="46.58101" lon="5.83481">
        <ele>750.2</ele>
        <time>2022-05-21T13:38:17Z</time>
      </trkpt>
      <trkpt lat="46.58096" lon="5.83456">
        <ele>750.4</ele>
        <time>2022-05-21T13:38:20Z</time>
      </trkpt>
      <trkpt lat="46.58096" lon="5.83439">
        <ele>750.6</ele>
        <time>2022-05-21T13:38:22Z</time>
      </trkpt>
      <trkpt lat="46.58098" lon="5.83423">
        <ele>751</ele>
        <time>2022-05-21T13:38:24Z</time>
      </trkpt>
      <trkpt lat="46.58105" lon="5.83394">
        <ele>752.2</ele>
        <time>2022-05-21T13:38:28Z</time>
      </trkpt>
      <trkpt lat="46.58106" lon="5.83379">
        <ele>752.6</ele>
        <time>2022-05-21T13:38:30Z</time>
      </trkpt>
      <trkpt lat="46.58106" lon="5.83371">
        <ele>753.2</ele>
        <time>2022-05-21T13:38:31Z</time>
      </trkpt>
      <trkpt lat="46.58105" lon="5.83348">
        <ele>753.8</ele>
        <time>2022-05-21T13:38:34Z</time>
      </trkpt>
      <trkpt lat="46.58103" lon="5.83333">
        <ele>754.2</ele>
        <time>2022-05-21T13:38:36Z</time>
      </trkpt>
      <trkpt lat="46.58101" lon="5.83325">
        <ele>754.2</ele>
        <time>2022-05-21T13:38:37Z</time>
      </trkpt>
      <trkpt lat="46.58091" lon="5.8329">
        <ele>754.8</ele>
        <time>2022-05-21T13:38:42Z</time>
      </trkpt>
      <trkpt lat="46.58087" lon="5.83284">
        <ele>755</ele>
        <time>2022-05-21T13:38:43Z</time>
      </trkpt>
      <trkpt lat="46.58083" lon="5.83278">
        <ele>755.2</ele>
        <time>2022-05-21T13:38:44Z</time>
      </trkpt>
      <trkpt lat="46.58079" lon="5.83273">
        <ele>755.4</ele>
        <time>2022-05-21T13:38:45Z</time>
      </trkpt>
      <trkpt lat="46.58074" lon="5.83269">
        <ele>755.6</ele>
        <time>2022-05-21T13:38:46Z</time>
      </trkpt>
      <trkpt lat="46.58068" lon="5.83265">
        <ele>755.8</ele>
        <time>2022-05-21T13:38:47Z</time>
      </trkpt>
      <trkpt lat="46.5803" lon="5.83241">
        <ele>755.2</ele>
        <time>2022-05-21T13:38:53Z</time>
      </trkpt>
      <trkpt lat="46.58023" lon="5.83236">
        <ele>755</ele>
        <time>2022-05-21T13:38:54Z</time>
      </trkpt>
      <trkpt lat="46.58009" lon="5.83221">
        <ele>754.8</ele>
        <time>2022-05-21T13:38:56Z</time>
      </trkpt>
      <trkpt lat="46.58004" lon="5.83212">
        <ele>754.4</ele>
        <time>2022-05-21T13:38:57Z</time>
      </trkpt>
      <trkpt lat="46.58" lon="5.83202">
        <ele>754</ele>
        <time>2022-05-21T13:38:58Z</time>
      </trkpt>
      <trkpt lat="46.57998" lon="5.83181">
        <ele>753.4</ele>
        <time>2022-05-21T13:39:00Z</time>
      </trkpt>
      <trkpt lat="46.57999" lon="5.8317">
        <ele>753.2</ele>
        <time>2022-05-21T13:39:01Z</time>
      </trkpt>
      <trkpt lat="46.58003" lon="5.83105">
        <ele>753</ele>
        <time>2022-05-21T13:39:07Z</time>
      </trkpt>
      <trkpt lat="46.58007" lon="5.8303">
        <ele>754.6</ele>
        <time>2022-05-21T13:39:15Z</time>
      </trkpt>
      <trkpt lat="46.58006" lon="5.83022">
        <ele>754.6</ele>
        <time>2022-05-21T13:39:16Z</time>
      </trkpt>
      <trkpt lat="46.58001" lon="5.82997">
        <ele>755.2</ele>
        <time>2022-05-21T13:39:19Z</time>
      </trkpt>
      <trkpt lat="46.57998" lon="5.82981">
        <ele>755.6</ele>
        <time>2022-05-21T13:39:21Z</time>
      </trkpt>
      <trkpt lat="46.57992" lon="5.82943">
        <ele>756.2</ele>
        <time>2022-05-21T13:39:26Z</time>
      </trkpt>
      <trkpt lat="46.57992" lon="5.8292">
        <ele>756.4</ele>
        <time>2022-05-21T13:39:29Z</time>
      </trkpt>
      <trkpt lat="46.57994" lon="5.82905">
        <ele>756.8</ele>
        <time>2022-05-21T13:39:31Z</time>
      </trkpt>
      <trkpt lat="46.58006" lon="5.82878">
        <ele>757.4</ele>
        <time>2022-05-21T13:39:35Z</time>
      </trkpt>
      <trkpt lat="46.58016" lon="5.82855">
        <ele>757.6</ele>
        <time>2022-05-21T13:39:38Z</time>
      </trkpt>
      <trkpt lat="46.5802" lon="5.82838">
        <ele>757.6</ele>
        <time>2022-05-21T13:39:40Z</time>
      </trkpt>
      <trkpt lat="46.58019" lon="5.82819">
        <ele>757.6</ele>
        <time>2022-05-21T13:39:42Z</time>
      </trkpt>
      <trkpt lat="46.58016" lon="5.82809">
        <ele>757.6</ele>
        <time>2022-05-21T13:39:43Z</time>
      </trkpt>
      <trkpt lat="46.58013" lon="5.828">
        <ele>757.4</ele>
        <time>2022-05-21T13:39:44Z</time>
      </trkpt>
      <trkpt lat="46.57998" lon="5.82777">
        <ele>756.6</ele>
        <time>2022-05-21T13:39:47Z</time>
      </trkpt>
      <trkpt lat="46.57965" lon="5.82724">
        <ele>756.6</ele>
        <time>2022-05-21T13:39:54Z</time>
      </trkpt>
      <trkpt lat="46.57945" lon="5.82664">
        <ele>757</ele>
        <time>2022-05-21T13:40:01Z</time>
      </trkpt>
      <trkpt lat="46.5793" lon="5.82602">
        <ele>757.4</ele>
        <time>2022-05-21T13:40:08Z</time>
      </trkpt>
      <trkpt lat="46.57929" lon="5.82593">
        <ele>757.4</ele>
        <time>2022-05-21T13:40:09Z</time>
      </trkpt>
      <trkpt lat="46.57931" lon="5.82568">
        <ele>757.8</ele>
        <time>2022-05-21T13:40:12Z</time>
      </trkpt>
      <trkpt lat="46.57932" lon="5.82559">
        <ele>758</ele>
        <time>2022-05-21T13:40:13Z</time>
      </trkpt>
      <trkpt lat="46.5794" lon="5.82511">
        <ele>758.4</ele>
        <time>2022-05-21T13:40:19Z</time>
      </trkpt>
      <trkpt lat="46.57949" lon="5.82471">
        <ele>758.8</ele>
        <time>2022-05-21T13:40:24Z</time>
      </trkpt>
      <trkpt lat="46.57953" lon="5.82455">
        <ele>759</ele>
        <time>2022-05-21T13:40:26Z</time>
      </trkpt>
      <trkpt lat="46.57962" lon="5.82424">
        <ele>759.6</ele>
        <time>2022-05-21T13:40:30Z</time>
      </trkpt>
      <trkpt lat="46.57967" lon="5.82409">
        <ele>760</ele>
        <time>2022-05-21T13:40:32Z</time>
      </trkpt>
      <trkpt lat="46.57988" lon="5.82357">
        <ele>760.8</ele>
        <time>2022-05-21T13:40:39Z</time>
      </trkpt>
      <trkpt lat="46.57992" lon="5.82317">
        <ele>761</ele>
        <time>2022-05-21T13:40:44Z</time>
      </trkpt>
      <trkpt lat="46.57992" lon="5.82285">
        <ele>761.2</ele>
        <time>2022-05-21T13:40:48Z</time>
      </trkpt>
      <trkpt lat="46.5799" lon="5.82269">
        <ele>761.4</ele>
        <time>2022-05-21T13:40:50Z</time>
      </trkpt>
      <trkpt lat="46.57988" lon="5.82262">
        <ele>761.4</ele>
        <time>2022-05-21T13:40:51Z</time>
      </trkpt>
      <trkpt lat="46.57985" lon="5.82256">
        <ele>761.6</ele>
        <time>2022-05-21T13:40:52Z</time>
      </trkpt>
      <trkpt lat="46.57978" lon="5.82246">
        <ele>761.8</ele>
        <time>2022-05-21T13:40:54Z</time>
      </trkpt>
      <trkpt lat="46.57974" lon="5.82242">
        <ele>762</ele>
        <time>2022-05-21T13:40:55Z</time>
      </trkpt>
      <trkpt lat="46.5797" lon="5.82239">
        <ele>762.2</ele>
        <time>2022-05-21T13:40:56Z</time>
      </trkpt>
      <trkpt lat="46.57961" lon="5.82236">
        <ele>762.6</ele>
        <time>2022-05-21T13:40:58Z</time>
      </trkpt>
      <trkpt lat="46.57956" lon="5.82236">
        <ele>763.2</ele>
        <time>2022-05-21T13:40:59Z</time>
      </trkpt>
      <trkpt lat="46.57937" lon="5.82238">
        <ele>764.2</ele>
        <time>2022-05-21T13:41:03Z</time>
      </trkpt>
      <trkpt lat="46.57932" lon="5.8224">
        <ele>764.2</ele>
        <time>2022-05-21T13:41:04Z</time>
      </trkpt>
      <trkpt lat="46.57923" lon="5.82242">
        <ele>764.4</ele>
        <time>2022-05-21T13:41:06Z</time>
      </trkpt>
      <trkpt lat="46.57905" lon="5.82246">
        <ele>765.4</ele>
        <time>2022-05-21T13:41:10Z</time>
      </trkpt>
      <trkpt lat="46.57883" lon="5.82252">
        <ele>766</ele>
        <time>2022-05-21T13:41:15Z</time>
      </trkpt>
      <trkpt lat="46.57875" lon="5.82253">
        <ele>766.4</ele>
        <time>2022-05-21T13:41:17Z</time>
      </trkpt>
      <trkpt lat="46.57866" lon="5.82252">
        <ele>766.8</ele>
        <time>2022-05-21T13:41:19Z</time>
      </trkpt>
      <trkpt lat="46.57857" lon="5.8225">
        <ele>767.2</ele>
        <time>2022-05-21T13:41:21Z</time>
      </trkpt>
      <trkpt lat="46.57852" lon="5.82247">
        <ele>767.2</ele>
        <time>2022-05-21T13:41:22Z</time>
      </trkpt>
      <trkpt lat="46.57848" lon="5.82245">
        <ele>767.6</ele>
        <time>2022-05-21T13:41:23Z</time>
      </trkpt>
      <trkpt lat="46.5784" lon="5.82238">
        <ele>767.8</ele>
        <time>2022-05-21T13:41:25Z</time>
      </trkpt>
      <trkpt lat="46.57833" lon="5.82227">
        <ele>768</ele>
        <time>2022-05-21T13:41:27Z</time>
      </trkpt>
      <trkpt lat="46.57819" lon="5.822">
        <ele>767.8</ele>
        <time>2022-05-21T13:41:31Z</time>
      </trkpt>
      <trkpt lat="46.57808" lon="5.82192">
        <ele>767.6</ele>
        <time>2022-05-21T13:41:33Z</time>
      </trkpt>
      <trkpt lat="46.57801" lon="5.82191">
        <ele>767.6</ele>
        <time>2022-05-21T13:41:34Z</time>
      </trkpt>
      <trkpt lat="46.57794" lon="5.82193">
        <ele>767.4</ele>
        <time>2022-05-21T13:41:35Z</time>
      </trkpt>
      <trkpt lat="46.57782" lon="5.82202">
        <ele>767.2</ele>
        <time>2022-05-21T13:41:37Z</time>
      </trkpt>
      <trkpt lat="46.57755" lon="5.82229">
        <ele>766.6</ele>
        <time>2022-05-21T13:41:41Z</time>
      </trkpt>
      <trkpt lat="46.57747" lon="5.82236">
        <ele>766.6</ele>
        <time>2022-05-21T13:41:42Z</time>
      </trkpt>
      <trkpt lat="46.5774" lon="5.82244">
        <ele>766</ele>
        <time>2022-05-21T13:41:43Z</time>
      </trkpt>
      <trkpt lat="46.57733" lon="5.82253">
        <ele>765.4</ele>
        <time>2022-05-21T13:41:44Z</time>
      </trkpt>
      <trkpt lat="46.57728" lon="5.82263">
        <ele>765.2</ele>
        <time>2022-05-21T13:41:45Z</time>
      </trkpt>
      <trkpt lat="46.57718" lon="5.82285">
        <ele>764.4</ele>
        <time>2022-05-21T13:41:47Z</time>
      </trkpt>
      <trkpt lat="46.57707" lon="5.82306">
        <ele>763.4</ele>
        <time>2022-05-21T13:41:49Z</time>
      </trkpt>
      <trkpt lat="46.577" lon="5.82316">
        <ele>762.8</ele>
        <time>2022-05-21T13:41:50Z</time>
      </trkpt>
      <trkpt lat="46.57686" lon="5.82334">
        <ele>762</ele>
        <time>2022-05-21T13:41:52Z</time>
      </trkpt>
      <trkpt lat="46.57677" lon="5.82342">
        <ele>761.2</ele>
        <time>2022-05-21T13:41:53Z</time>
      </trkpt>
      <trkpt lat="46.57669" lon="5.8235">
        <ele>761</ele>
        <time>2022-05-21T13:41:54Z</time>
      </trkpt>
      <trkpt lat="46.57641" lon="5.82369">
        <ele>759.4</ele>
        <time>2022-05-21T13:41:57Z</time>
      </trkpt>
      <trkpt lat="46.57614" lon="5.82382">
        <ele>757.8</ele>
        <time>2022-05-21T13:42:00Z</time>
      </trkpt>
      <trkpt lat="46.57596" lon="5.82388">
        <ele>757.2</ele>
        <time>2022-05-21T13:42:02Z</time>
      </trkpt>
      <trkpt lat="46.57579" lon="5.82401">
        <ele>756.8</ele>
        <time>2022-05-21T13:42:04Z</time>
      </trkpt>
      <trkpt lat="46.57572" lon="5.82409">
        <ele>756.6</ele>
        <time>2022-05-21T13:42:05Z</time>
      </trkpt>
      <trkpt lat="46.57565" lon="5.82419">
        <ele>756.6</ele>
        <time>2022-05-21T13:42:06Z</time>
      </trkpt>
      <trkpt lat="46.57554" lon="5.8244">
        <ele>756.4</ele>
        <time>2022-05-21T13:42:08Z</time>
      </trkpt>
      <trkpt lat="46.57542" lon="5.82459">
        <ele>756.2</ele>
        <time>2022-05-21T13:42:10Z</time>
      </trkpt>
      <trkpt lat="46.57527" lon="5.82474">
        <ele>756</ele>
        <time>2022-05-21T13:42:12Z</time>
      </trkpt>
      <trkpt lat="46.57497" lon="5.825">
        <ele>755.6</ele>
        <time>2022-05-21T13:42:16Z</time>
      </trkpt>
      <trkpt lat="46.57466" lon="5.82524">
        <ele>755.2</ele>
        <time>2022-05-21T13:42:20Z</time>
      </trkpt>
      <trkpt lat="46.57445" lon="5.82546">
        <ele>755.2</ele>
        <time>2022-05-21T13:42:23Z</time>
      </trkpt>
      <trkpt lat="46.57439" lon="5.82555">
        <ele>755.2</ele>
        <time>2022-05-21T13:42:24Z</time>
      </trkpt>
      <trkpt lat="46.57434" lon="5.82565">
        <ele>755.2</ele>
        <time>2022-05-21T13:42:25Z</time>
      </trkpt>
      <trkpt lat="46.57416" lon="5.82604">
        <ele>755.2</ele>
        <time>2022-05-21T13:42:29Z</time>
      </trkpt>
      <trkpt lat="46.57395" lon="5.82657">
        <ele>755.8</ele>
        <time>2022-05-21T13:42:35Z</time>
      </trkpt>
      <trkpt lat="46.57383" lon="5.82688">
        <ele>756.4</ele>
        <time>2022-05-21T13:42:39Z</time>
      </trkpt>
      <trkpt lat="46.5738" lon="5.82695">
        <ele>756.6</ele>
        <time>2022-05-21T13:42:40Z</time>
      </trkpt>
      <trkpt lat="46.57377" lon="5.82702">
        <ele>756.8</ele>
        <time>2022-05-21T13:42:41Z</time>
      </trkpt>
      <trkpt lat="46.57367" lon="5.82722">
        <ele>758</ele>
        <time>2022-05-21T13:42:44Z</time>
      </trkpt>
      <trkpt lat="46.57357" lon="5.82743">
        <ele>759.4</ele>
        <time>2022-05-21T13:42:47Z</time>
      </trkpt>
      <trkpt lat="46.5733" lon="5.82794">
        <ele>760.2</ele>
        <time>2022-05-21T13:42:54Z</time>
      </trkpt>
      <trkpt lat="46.57322" lon="5.82806">
        <ele>760.2</ele>
        <time>2022-05-21T13:42:56Z</time>
      </trkpt>
      <trkpt lat="46.5731" lon="5.82826">
        <ele>760.2</ele>
        <time>2022-05-21T13:42:59Z</time>
      </trkpt>
      <trkpt lat="46.57302" lon="5.8284">
        <ele>760</ele>
        <time>2022-05-21T13:43:01Z</time>
      </trkpt>
      <trkpt lat="46.57287" lon="5.82856">
        <ele>759.8</ele>
        <time>2022-05-21T13:43:04Z</time>
      </trkpt>
      <trkpt lat="46.57275" lon="5.82861">
        <ele>759.8</ele>
        <time>2022-05-21T13:43:06Z</time>
      </trkpt>
      <trkpt lat="46.57264" lon="5.82863">
        <ele>759.8</ele>
        <time>2022-05-21T13:43:08Z</time>
      </trkpt>
      <trkpt lat="46.57238" lon="5.82859">
        <ele>760</ele>
        <time>2022-05-21T13:43:13Z</time>
      </trkpt>
      <trkpt lat="46.57233" lon="5.82859">
        <ele>760.2</ele>
        <time>2022-05-21T13:43:14Z</time>
      </trkpt>
      <trkpt lat="46.57223" lon="5.82859">
        <ele>760.8</ele>
        <time>2022-05-21T13:43:16Z</time>
      </trkpt>
      <trkpt lat="46.57206" lon="5.82859">
        <ele>761.8</ele>
        <time>2022-05-21T13:43:20Z</time>
      </trkpt>
      <trkpt lat="46.57203" lon="5.82858">
        <ele>762</ele>
        <time>2022-05-21T13:43:21Z</time>
      </trkpt>
      <trkpt lat="46.572" lon="5.82857">
        <ele>762.2</ele>
        <time>2022-05-21T13:43:22Z</time>
      </trkpt>
      <trkpt lat="46.57194" lon="5.82859">
        <ele>762.6</ele>
        <time>2022-05-21T13:43:24Z</time>
      </trkpt>
      <trkpt lat="46.57189" lon="5.8286">
        <ele>762.8</ele>
        <time>2022-05-21T13:43:26Z</time>
      </trkpt>
      <trkpt lat="46.57187" lon="5.82863">
        <ele>763</ele>
        <time>2022-05-21T13:43:28Z</time>
      </trkpt>
      <trkpt lat="46.57189" lon="5.82864">
        <ele>763.6</ele>
        <time>2022-05-21T13:43:31Z</time>
      </trkpt>
      <trkpt lat="46.5719" lon="5.82864">
        <ele>763.6</ele>
        <time>2022-05-21T13:43:32Z</time>
      </trkpt>
      <trkpt lat="46.57193" lon="5.82862">
        <ele>763.8</ele>
        <time>2022-05-21T13:43:34Z</time>
      </trkpt>
      <trkpt lat="46.57196" lon="5.82855">
        <ele>763.8</ele>
        <time>2022-05-21T13:43:36Z</time>
      </trkpt>
      <trkpt lat="46.57197" lon="5.82849">
        <ele>763.6</ele>
        <time>2022-05-21T13:43:37Z</time>
      </trkpt>
      <trkpt lat="46.57196" lon="5.82832">
        <ele>763.4</ele>
        <time>2022-05-21T13:43:39Z</time>
      </trkpt>
      <trkpt lat="46.57199" lon="5.82812">
        <ele>763.2</ele>
        <time>2022-05-21T13:43:41Z</time>
      </trkpt>
      <trkpt lat="46.57202" lon="5.82803">
        <ele>763</ele>
        <time>2022-05-21T13:43:42Z</time>
      </trkpt>
      <trkpt lat="46.57208" lon="5.82795">
        <ele>762.8</ele>
        <time>2022-05-21T13:43:43Z</time>
      </trkpt>
      <trkpt lat="46.57212" lon="5.8279">
        <ele>762</ele>
        <time>2022-05-21T13:43:44Z</time>
      </trkpt>
      <trkpt lat="46.57217" lon="5.82783">
        <ele>761.2</ele>
        <time>2022-05-21T13:43:45Z</time>
      </trkpt>
      <trkpt lat="46.57224" lon="5.82763">
        <ele>760.2</ele>
        <time>2022-05-21T13:43:47Z</time>
      </trkpt>
      <trkpt lat="46.57225" lon="5.82751">
        <ele>760.2</ele>
        <time>2022-05-21T13:43:48Z</time>
      </trkpt>
      <trkpt lat="46.57224" lon="5.82738">
        <ele>760</ele>
        <time>2022-05-21T13:43:49Z</time>
      </trkpt>
      <trkpt lat="46.57221" lon="5.82724">
        <ele>759.6</ele>
        <time>2022-05-21T13:43:50Z</time>
      </trkpt>
      <trkpt lat="46.57218" lon="5.82709">
        <ele>759</ele>
        <time>2022-05-21T13:43:51Z</time>
      </trkpt>
      <trkpt lat="46.57212" lon="5.82679">
        <ele>757.6</ele>
        <time>2022-05-21T13:43:53Z</time>
      </trkpt>
      <trkpt lat="46.57209" lon="5.82664">
        <ele>756.6</ele>
        <time>2022-05-21T13:43:54Z</time>
      </trkpt>
      <trkpt lat="46.57206" lon="5.82649">
        <ele>755.8</ele>
        <time>2022-05-21T13:43:55Z</time>
      </trkpt>
      <trkpt lat="46.57203" lon="5.82634">
        <ele>755</ele>
        <time>2022-05-21T13:43:56Z</time>
      </trkpt>
      <trkpt lat="46.57202" lon="5.82618">
        <ele>754.6</ele>
        <time>2022-05-21T13:43:57Z</time>
      </trkpt>
      <trkpt lat="46.57201" lon="5.82602">
        <ele>753.4</ele>
        <time>2022-05-21T13:43:58Z</time>
      </trkpt>
      <trkpt lat="46.57202" lon="5.82586">
        <ele>752.6</ele>
        <time>2022-05-21T13:43:59Z</time>
      </trkpt>
      <trkpt lat="46.57203" lon="5.8257">
        <ele>752.4</ele>
        <time>2022-05-21T13:44:00Z</time>
      </trkpt>
      <trkpt lat="46.57205" lon="5.82538">
        <ele>751</ele>
        <time>2022-05-21T13:44:02Z</time>
      </trkpt>
      <trkpt lat="46.57205" lon="5.82505">
        <ele>749.6</ele>
        <time>2022-05-21T13:44:04Z</time>
      </trkpt>
      <trkpt lat="46.57205" lon="5.8249">
        <ele>748.4</ele>
        <time>2022-05-21T13:44:05Z</time>
      </trkpt>
      <trkpt lat="46.57202" lon="5.82457">
        <ele>747</ele>
        <time>2022-05-21T13:44:07Z</time>
      </trkpt>
      <trkpt lat="46.57193" lon="5.82392">
        <ele>745.8</ele>
        <time>2022-05-21T13:44:11Z</time>
      </trkpt>
      <trkpt lat="46.57191" lon="5.82375">
        <ele>745.8</ele>
        <time>2022-05-21T13:44:12Z</time>
      </trkpt>
      <trkpt lat="46.57185" lon="5.82327">
        <ele>744.8</ele>
        <time>2022-05-21T13:44:15Z</time>
      </trkpt>
      <trkpt lat="46.57177" lon="5.82262">
        <ele>743.4</ele>
        <time>2022-05-21T13:44:19Z</time>
      </trkpt>
      <trkpt lat="46.57173" lon="5.8223">
        <ele>742.6</ele>
        <time>2022-05-21T13:44:21Z</time>
      </trkpt>
      <trkpt lat="46.57171" lon="5.82215">
        <ele>742.2</ele>
        <time>2022-05-21T13:44:22Z</time>
      </trkpt>
      <trkpt lat="46.57166" lon="5.82169">
        <ele>741</ele>
        <time>2022-05-21T13:44:25Z</time>
      </trkpt>
      <trkpt lat="46.5716" lon="5.82125">
        <ele>740</ele>
        <time>2022-05-21T13:44:28Z</time>
      </trkpt>
      <trkpt lat="46.57158" lon="5.82111">
        <ele>740</ele>
        <time>2022-05-21T13:44:29Z</time>
      </trkpt>
      <trkpt lat="46.5715" lon="5.82041">
        <ele>740</ele>
        <time>2022-05-21T13:44:34Z</time>
      </trkpt>
      <trkpt lat="46.57142" lon="5.8196">
        <ele>740.6</ele>
        <time>2022-05-21T13:44:40Z</time>
      </trkpt>
      <trkpt lat="46.57142" lon="5.81879">
        <ele>740.6</ele>
        <time>2022-05-21T13:44:46Z</time>
      </trkpt>
      <trkpt lat="46.57142" lon="5.81853">
        <ele>740.4</ele>
        <time>2022-05-21T13:44:48Z</time>
      </trkpt>
      <trkpt lat="46.5714" lon="5.81787">
        <ele>739.8</ele>
        <time>2022-05-21T13:44:53Z</time>
      </trkpt>
      <trkpt lat="46.57136" lon="5.81762">
        <ele>739.6</ele>
        <time>2022-05-21T13:44:55Z</time>
      </trkpt>
      <trkpt lat="46.57117" lon="5.81693">
        <ele>739</ele>
        <time>2022-05-21T13:45:01Z</time>
      </trkpt>
      <trkpt lat="46.57087" lon="5.81617">
        <ele>738.8</ele>
        <time>2022-05-21T13:45:08Z</time>
      </trkpt>
      <trkpt lat="46.57055" lon="5.81553">
        <ele>738</ele>
        <time>2022-05-21T13:45:14Z</time>
      </trkpt>
      <trkpt lat="46.57049" lon="5.81543">
        <ele>737.8</ele>
        <time>2022-05-21T13:45:15Z</time>
      </trkpt>
      <trkpt lat="46.57033" lon="5.81509">
        <ele>736.4</ele>
        <time>2022-05-21T13:45:18Z</time>
      </trkpt>
      <trkpt lat="46.57015" lon="5.81474">
        <ele>735</ele>
        <time>2022-05-21T13:45:21Z</time>
      </trkpt>
      <trkpt lat="46.56995" lon="5.81439">
        <ele>733.6</ele>
        <time>2022-05-21T13:45:24Z</time>
      </trkpt>
      <trkpt lat="46.56988" lon="5.81428">
        <ele>732.4</ele>
        <time>2022-05-21T13:45:25Z</time>
      </trkpt>
      <trkpt lat="46.5698" lon="5.81417">
        <ele>732</ele>
        <time>2022-05-21T13:45:26Z</time>
      </trkpt>
      <trkpt lat="46.56972" lon="5.81405">
        <ele>731.2</ele>
        <time>2022-05-21T13:45:27Z</time>
      </trkpt>
      <trkpt lat="46.56958" lon="5.8138">
        <ele>729.8</ele>
        <time>2022-05-21T13:45:29Z</time>
      </trkpt>
      <trkpt lat="46.56953" lon="5.81365">
        <ele>728.8</ele>
        <time>2022-05-21T13:45:30Z</time>
      </trkpt>
      <trkpt lat="46.5695" lon="5.81349">
        <ele>728.2</ele>
        <time>2022-05-21T13:45:31Z</time>
      </trkpt>
      <trkpt lat="46.56948" lon="5.81332">
        <ele>727.6</ele>
        <time>2022-05-21T13:45:32Z</time>
      </trkpt>
      <trkpt lat="46.56947" lon="5.81316">
        <ele>727</ele>
        <time>2022-05-21T13:45:33Z</time>
      </trkpt>
      <trkpt lat="46.56947" lon="5.81298">
        <ele>724.8</ele>
        <time>2022-05-21T13:45:34Z</time>
      </trkpt>
      <trkpt lat="46.56948" lon="5.81264">
        <ele>723.2</ele>
        <time>2022-05-21T13:45:36Z</time>
      </trkpt>
      <trkpt lat="46.5695" lon="5.81246">
        <ele>722.4</ele>
        <time>2022-05-21T13:45:37Z</time>
      </trkpt>
      <trkpt lat="46.56952" lon="5.81229">
        <ele>722</ele>
        <time>2022-05-21T13:45:38Z</time>
      </trkpt>
      <trkpt lat="46.56955" lon="5.81211">
        <ele>719.8</ele>
        <time>2022-05-21T13:45:39Z</time>
      </trkpt>
      <trkpt lat="46.56959" lon="5.81194">
        <ele>719.2</ele>
        <time>2022-05-21T13:45:40Z</time>
      </trkpt>
      <trkpt lat="46.56966" lon="5.81177">
        <ele>718.6</ele>
        <time>2022-05-21T13:45:41Z</time>
      </trkpt>
      <trkpt lat="46.56983" lon="5.81147">
        <ele>717.6</ele>
        <time>2022-05-21T13:45:43Z</time>
      </trkpt>
      <trkpt lat="46.56993" lon="5.81133">
        <ele>716.6</ele>
        <time>2022-05-21T13:45:44Z</time>
      </trkpt>
      <trkpt lat="46.57013" lon="5.81105">
        <ele>714.4</ele>
        <time>2022-05-21T13:45:46Z</time>
      </trkpt>
      <trkpt lat="46.57034" lon="5.81077">
        <ele>712.2</ele>
        <time>2022-05-21T13:45:48Z</time>
      </trkpt>
      <trkpt lat="46.57043" lon="5.81062">
        <ele>711.2</ele>
        <time>2022-05-21T13:45:49Z</time>
      </trkpt>
      <trkpt lat="46.57053" lon="5.81047">
        <ele>709</ele>
        <time>2022-05-21T13:45:50Z</time>
      </trkpt>
      <trkpt lat="46.57071" lon="5.81017">
        <ele>707</ele>
        <time>2022-05-21T13:45:52Z</time>
      </trkpt>
      <trkpt lat="46.57079" lon="5.81001">
        <ele>704.8</ele>
        <time>2022-05-21T13:45:53Z</time>
      </trkpt>
      <trkpt lat="46.57087" lon="5.80985">
        <ele>704</ele>
        <time>2022-05-21T13:45:54Z</time>
      </trkpt>
      <trkpt lat="46.57095" lon="5.80969">
        <ele>703</ele>
        <time>2022-05-21T13:45:55Z</time>
      </trkpt>
      <trkpt lat="46.57104" lon="5.80955">
        <ele>702.6</ele>
        <time>2022-05-21T13:45:56Z</time>
      </trkpt>
      <trkpt lat="46.57114" lon="5.80942">
        <ele>702</ele>
        <time>2022-05-21T13:45:57Z</time>
      </trkpt>
      <trkpt lat="46.57125" lon="5.80931">
        <ele>701.6</ele>
        <time>2022-05-21T13:45:58Z</time>
      </trkpt>
      <trkpt lat="46.57156" lon="5.80895">
        <ele>700.2</ele>
        <time>2022-05-21T13:46:01Z</time>
      </trkpt>
      <trkpt lat="46.57165" lon="5.80881">
        <ele>699.2</ele>
        <time>2022-05-21T13:46:02Z</time>
      </trkpt>
      <trkpt lat="46.57182" lon="5.80852">
        <ele>697.4</ele>
        <time>2022-05-21T13:46:04Z</time>
      </trkpt>
      <trkpt lat="46.57204" lon="5.80807">
        <ele>696</ele>
        <time>2022-05-21T13:46:07Z</time>
      </trkpt>
      <trkpt lat="46.57219" lon="5.80777">
        <ele>694.4</ele>
        <time>2022-05-21T13:46:09Z</time>
      </trkpt>
      <trkpt lat="46.57233" lon="5.80746">
        <ele>692.8</ele>
        <time>2022-05-21T13:46:11Z</time>
      </trkpt>
      <trkpt lat="46.57248" lon="5.80716">
        <ele>691.8</ele>
        <time>2022-05-21T13:46:13Z</time>
      </trkpt>
      <trkpt lat="46.57255" lon="5.80701">
        <ele>691</ele>
        <time>2022-05-21T13:46:14Z</time>
      </trkpt>
      <trkpt lat="46.57262" lon="5.80688">
        <ele>690.6</ele>
        <time>2022-05-21T13:46:15Z</time>
      </trkpt>
      <trkpt lat="46.57271" lon="5.80674">
        <ele>689.8</ele>
        <time>2022-05-21T13:46:16Z</time>
      </trkpt>
      <trkpt lat="46.5728" lon="5.80662">
        <ele>689.2</ele>
        <time>2022-05-21T13:46:17Z</time>
      </trkpt>
      <trkpt lat="46.57289" lon="5.80651">
        <ele>688.4</ele>
        <time>2022-05-21T13:46:18Z</time>
      </trkpt>
      <trkpt lat="46.57299" lon="5.8064">
        <ele>687.4</ele>
        <time>2022-05-21T13:46:19Z</time>
      </trkpt>
      <trkpt lat="46.57318" lon="5.80619">
        <ele>686.2</ele>
        <time>2022-05-21T13:46:21Z</time>
      </trkpt>
      <trkpt lat="46.57336" lon="5.80596">
        <ele>685</ele>
        <time>2022-05-21T13:46:23Z</time>
      </trkpt>
      <trkpt lat="46.5735" lon="5.80569">
        <ele>683.4</ele>
        <time>2022-05-21T13:46:25Z</time>
      </trkpt>
      <trkpt lat="46.57355" lon="5.80554">
        <ele>682.8</ele>
        <time>2022-05-21T13:46:26Z</time>
      </trkpt>
      <trkpt lat="46.57358" lon="5.80539">
        <ele>682.4</ele>
        <time>2022-05-21T13:46:27Z</time>
      </trkpt>
      <trkpt lat="46.57362" lon="5.80506">
        <ele>681.4</ele>
        <time>2022-05-21T13:46:29Z</time>
      </trkpt>
      <trkpt lat="46.57367" lon="5.80456">
        <ele>679.8</ele>
        <time>2022-05-21T13:46:32Z</time>
      </trkpt>
      <trkpt lat="46.5737" lon="5.80423">
        <ele>678.6</ele>
        <time>2022-05-21T13:46:34Z</time>
      </trkpt>
      <trkpt lat="46.57372" lon="5.80407">
        <ele>678</ele>
        <time>2022-05-21T13:46:35Z</time>
      </trkpt>
      <trkpt lat="46.57374" lon="5.80391">
        <ele>677.6</ele>
        <time>2022-05-21T13:46:36Z</time>
      </trkpt>
      <trkpt lat="46.57375" lon="5.80375">
        <ele>676.4</ele>
        <time>2022-05-21T13:46:37Z</time>
      </trkpt>
      <trkpt lat="46.57381" lon="5.80326">
        <ele>674.8</ele>
        <time>2022-05-21T13:46:40Z</time>
      </trkpt>
      <trkpt lat="46.57385" lon="5.80293">
        <ele>673.4</ele>
        <time>2022-05-21T13:46:42Z</time>
      </trkpt>
      <trkpt lat="46.57389" lon="5.80262">
        <ele>671.8</ele>
        <time>2022-05-21T13:46:44Z</time>
      </trkpt>
      <trkpt lat="46.57391" lon="5.80247">
        <ele>671.6</ele>
        <time>2022-05-21T13:46:45Z</time>
      </trkpt>
      <trkpt lat="46.57395" lon="5.80232">
        <ele>670.4</ele>
        <time>2022-05-21T13:46:46Z</time>
      </trkpt>
      <trkpt lat="46.574" lon="5.8022">
        <ele>669.6</ele>
        <time>2022-05-21T13:46:47Z</time>
      </trkpt>
      <trkpt lat="46.57407" lon="5.80209">
        <ele>669.2</ele>
        <time>2022-05-21T13:46:48Z</time>
      </trkpt>
      <trkpt lat="46.57415" lon="5.802">
        <ele>668.8</ele>
        <time>2022-05-21T13:46:49Z</time>
      </trkpt>
      <trkpt lat="46.5744" lon="5.80176">
        <ele>668.2</ele>
        <time>2022-05-21T13:46:52Z</time>
      </trkpt>
      <trkpt lat="46.57448" lon="5.80169">
        <ele>667.8</ele>
        <time>2022-05-21T13:46:53Z</time>
      </trkpt>
      <trkpt lat="46.57471" lon="5.80147">
        <ele>667.6</ele>
        <time>2022-05-21T13:46:56Z</time>
      </trkpt>
      <trkpt lat="46.57479" lon="5.80141">
        <ele>667.6</ele>
        <time>2022-05-21T13:46:57Z</time>
      </trkpt>
      <trkpt lat="46.57488" lon="5.80138">
        <ele>667.4</ele>
        <time>2022-05-21T13:46:58Z</time>
      </trkpt>
      <trkpt lat="46.57507" lon="5.80133">
        <ele>667.2</ele>
        <time>2022-05-21T13:47:00Z</time>
      </trkpt>
      <trkpt lat="46.57515" lon="5.80129">
        <ele>667.2</ele>
        <time>2022-05-21T13:47:01Z</time>
      </trkpt>
      <trkpt lat="46.57523" lon="5.80122">
        <ele>667.2</ele>
        <time>2022-05-21T13:47:02Z</time>
      </trkpt>
      <trkpt lat="46.57536" lon="5.80099">
        <ele>667</ele>
        <time>2022-05-21T13:47:04Z</time>
      </trkpt>
      <trkpt lat="46.57557" lon="5.80064">
        <ele>665.8</ele>
        <time>2022-05-21T13:47:07Z</time>
      </trkpt>
      <trkpt lat="46.57565" lon="5.80053">
        <ele>664.8</ele>
        <time>2022-05-21T13:47:08Z</time>
      </trkpt>
      <trkpt lat="46.57582" lon="5.80033">
        <ele>663.2</ele>
        <time>2022-05-21T13:47:10Z</time>
      </trkpt>
      <trkpt lat="46.57606" lon="5.79999">
        <ele>662</ele>
        <time>2022-05-21T13:47:13Z</time>
      </trkpt>
      <trkpt lat="46.57621" lon="5.79973">
        <ele>661</ele>
        <time>2022-05-21T13:47:15Z</time>
      </trkpt>
      <trkpt lat="46.57628" lon="5.79959">
        <ele>659.4</ele>
        <time>2022-05-21T13:47:16Z</time>
      </trkpt>
      <trkpt lat="46.57636" lon="5.79945">
        <ele>658.2</ele>
        <time>2022-05-21T13:47:17Z</time>
      </trkpt>
      <trkpt lat="46.5765" lon="5.79918">
        <ele>656.8</ele>
        <time>2022-05-21T13:47:19Z</time>
      </trkpt>
      <trkpt lat="46.57655" lon="5.79904">
        <ele>656.4</ele>
        <time>2022-05-21T13:47:20Z</time>
      </trkpt>
      <trkpt lat="46.5766" lon="5.79873">
        <ele>655.4</ele>
        <time>2022-05-21T13:47:22Z</time>
      </trkpt>
      <trkpt lat="46.57658" lon="5.79856">
        <ele>654.4</ele>
        <time>2022-05-21T13:47:23Z</time>
      </trkpt>
      <trkpt lat="46.57655" lon="5.79839">
        <ele>653.2</ele>
        <time>2022-05-21T13:47:24Z</time>
      </trkpt>
      <trkpt lat="46.5765" lon="5.79802">
        <ele>650.4</ele>
        <time>2022-05-21T13:47:26Z</time>
      </trkpt>
      <trkpt lat="46.5765" lon="5.79783">
        <ele>649.8</ele>
        <time>2022-05-21T13:47:27Z</time>
      </trkpt>
      <trkpt lat="46.57652" lon="5.79765">
        <ele>648.6</ele>
        <time>2022-05-21T13:47:28Z</time>
      </trkpt>
      <trkpt lat="46.57655" lon="5.79746">
        <ele>648.2</ele>
        <time>2022-05-21T13:47:29Z</time>
      </trkpt>
      <trkpt lat="46.57656" lon="5.79728">
        <ele>647.4</ele>
        <time>2022-05-21T13:47:30Z</time>
      </trkpt>
      <trkpt lat="46.57655" lon="5.7971">
        <ele>646.2</ele>
        <time>2022-05-21T13:47:31Z</time>
      </trkpt>
      <trkpt lat="46.57646" lon="5.79678">
        <ele>645</ele>
        <time>2022-05-21T13:47:33Z</time>
      </trkpt>
      <trkpt lat="46.57633" lon="5.79647">
        <ele>643</ele>
        <time>2022-05-21T13:47:35Z</time>
      </trkpt>
      <trkpt lat="46.57629" lon="5.7963">
        <ele>642.2</ele>
        <time>2022-05-21T13:47:36Z</time>
      </trkpt>
      <trkpt lat="46.57626" lon="5.79613">
        <ele>641.2</ele>
        <time>2022-05-21T13:47:37Z</time>
      </trkpt>
      <trkpt lat="46.57627" lon="5.79596">
        <ele>639.8</ele>
        <time>2022-05-21T13:47:38Z</time>
      </trkpt>
      <trkpt lat="46.5763" lon="5.79579">
        <ele>639.4</ele>
        <time>2022-05-21T13:47:39Z</time>
      </trkpt>
      <trkpt lat="46.57636" lon="5.79564">
        <ele>637.4</ele>
        <time>2022-05-21T13:47:40Z</time>
      </trkpt>
      <trkpt lat="46.57643" lon="5.79551">
        <ele>636.6</ele>
        <time>2022-05-21T13:47:41Z</time>
      </trkpt>
      <trkpt lat="46.57652" lon="5.79538">
        <ele>635.2</ele>
        <time>2022-05-21T13:47:42Z</time>
      </trkpt>
      <trkpt lat="46.57665" lon="5.79509">
        <ele>633.8</ele>
        <time>2022-05-21T13:47:44Z</time>
      </trkpt>
      <trkpt lat="46.57669" lon="5.79492">
        <ele>633.2</ele>
        <time>2022-05-21T13:47:45Z</time>
      </trkpt>
      <trkpt lat="46.57671" lon="5.79474">
        <ele>632.4</ele>
        <time>2022-05-21T13:47:46Z</time>
      </trkpt>
      <trkpt lat="46.57671" lon="5.79438">
        <ele>631.4</ele>
        <time>2022-05-21T13:47:48Z</time>
      </trkpt>
      <trkpt lat="46.57671" lon="5.79419">
        <ele>630</ele>
        <time>2022-05-21T13:47:49Z</time>
      </trkpt>
      <trkpt lat="46.57672" lon="5.79381">
        <ele>627.8</ele>
        <time>2022-05-21T13:47:51Z</time>
      </trkpt>
      <trkpt lat="46.57674" lon="5.79362">
        <ele>626.6</ele>
        <time>2022-05-21T13:47:52Z</time>
      </trkpt>
      <trkpt lat="46.5768" lon="5.79325">
        <ele>624.4</ele>
        <time>2022-05-21T13:47:54Z</time>
      </trkpt>
      <trkpt lat="46.57692" lon="5.79292">
        <ele>623</ele>
        <time>2022-05-21T13:47:56Z</time>
      </trkpt>
      <trkpt lat="46.57708" lon="5.7926">
        <ele>621</ele>
        <time>2022-05-21T13:47:58Z</time>
      </trkpt>
      <trkpt lat="46.57723" lon="5.79227">
        <ele>619.2</ele>
        <time>2022-05-21T13:48:00Z</time>
      </trkpt>
      <trkpt lat="46.5773" lon="5.79211">
        <ele>617.6</ele>
        <time>2022-05-21T13:48:01Z</time>
      </trkpt>
      <trkpt lat="46.57737" lon="5.79194">
        <ele>616.4</ele>
        <time>2022-05-21T13:48:02Z</time>
      </trkpt>
      <trkpt lat="46.57743" lon="5.79176">
        <ele>615</ele>
        <time>2022-05-21T13:48:03Z</time>
      </trkpt>
      <trkpt lat="46.57751" lon="5.79139">
        <ele>613.6</ele>
        <time>2022-05-21T13:48:05Z</time>
      </trkpt>
      <trkpt lat="46.57763" lon="5.79082">
        <ele>612</ele>
        <time>2022-05-21T13:48:08Z</time>
      </trkpt>
      <trkpt lat="46.5777" lon="5.79044">
        <ele>610</ele>
        <time>2022-05-21T13:48:10Z</time>
      </trkpt>
      <trkpt lat="46.57777" lon="5.79006">
        <ele>607.4</ele>
        <time>2022-05-21T13:48:12Z</time>
      </trkpt>
      <trkpt lat="46.57781" lon="5.78986">
        <ele>605.2</ele>
        <time>2022-05-21T13:48:13Z</time>
      </trkpt>
      <trkpt lat="46.57786" lon="5.78947">
        <ele>603.8</ele>
        <time>2022-05-21T13:48:15Z</time>
      </trkpt>
      <trkpt lat="46.57789" lon="5.78886">
        <ele>602.4</ele>
        <time>2022-05-21T13:48:18Z</time>
      </trkpt>
      <trkpt lat="46.57789" lon="5.78844">
        <ele>600.4</ele>
        <time>2022-05-21T13:48:20Z</time>
      </trkpt>
      <trkpt lat="46.57789" lon="5.78824">
        <ele>599.2</ele>
        <time>2022-05-21T13:48:21Z</time>
      </trkpt>
      <trkpt lat="46.57789" lon="5.78803">
        <ele>596.8</ele>
        <time>2022-05-21T13:48:22Z</time>
      </trkpt>
      <trkpt lat="46.57789" lon="5.78783">
        <ele>595.4</ele>
        <time>2022-05-21T13:48:23Z</time>
      </trkpt>
      <trkpt lat="46.57788" lon="5.78763">
        <ele>594</ele>
        <time>2022-05-21T13:48:24Z</time>
      </trkpt>
      <trkpt lat="46.57783" lon="5.78721">
        <ele>592</ele>
        <time>2022-05-21T13:48:26Z</time>
      </trkpt>
      <trkpt lat="46.57781" lon="5.78699">
        <ele>591</ele>
        <time>2022-05-21T13:48:27Z</time>
      </trkpt>
      <trkpt lat="46.57781" lon="5.78678">
        <ele>590.2</ele>
        <time>2022-05-21T13:48:28Z</time>
      </trkpt>
      <trkpt lat="46.57783" lon="5.78658">
        <ele>589.2</ele>
        <time>2022-05-21T13:48:29Z</time>
      </trkpt>
      <trkpt lat="46.57786" lon="5.78618">
        <ele>587.6</ele>
        <time>2022-05-21T13:48:31Z</time>
      </trkpt>
      <trkpt lat="46.57789" lon="5.78581">
        <ele>585.4</ele>
        <time>2022-05-21T13:48:33Z</time>
      </trkpt>
      <trkpt lat="46.57794" lon="5.78543">
        <ele>584</ele>
        <time>2022-05-21T13:48:35Z</time>
      </trkpt>
      <trkpt lat="46.57796" lon="5.78525">
        <ele>583.6</ele>
        <time>2022-05-21T13:48:36Z</time>
      </trkpt>
      <trkpt lat="46.57799" lon="5.78506">
        <ele>583.4</ele>
        <time>2022-05-21T13:48:37Z</time>
      </trkpt>
      <trkpt lat="46.57803" lon="5.78487">
        <ele>583</ele>
        <time>2022-05-21T13:48:38Z</time>
      </trkpt>
      <trkpt lat="46.57811" lon="5.78448">
        <ele>581.4</ele>
        <time>2022-05-21T13:48:40Z</time>
      </trkpt>
      <trkpt lat="46.57819" lon="5.78416">
        <ele>580.4</ele>
        <time>2022-05-21T13:48:42Z</time>
      </trkpt>
      <trkpt lat="46.57824" lon="5.78394">
        <ele>578</ele>
        <time>2022-05-21T13:48:43Z</time>
      </trkpt>
      <trkpt lat="46.57832" lon="5.78356">
        <ele>576.4</ele>
        <time>2022-05-21T13:48:45Z</time>
      </trkpt>
      <trkpt lat="46.57839" lon="5.78321">
        <ele>574.6</ele>
        <time>2022-05-21T13:48:47Z</time>
      </trkpt>
      <trkpt lat="46.57844" lon="5.78297">
        <ele>574</ele>
        <time>2022-05-21T13:48:48Z</time>
      </trkpt>
      <trkpt lat="46.57847" lon="5.78278">
        <ele>573</ele>
        <time>2022-05-21T13:48:49Z</time>
      </trkpt>
      <trkpt lat="46.5785" lon="5.78258">
        <ele>572</ele>
        <time>2022-05-21T13:48:50Z</time>
      </trkpt>
      <trkpt lat="46.57856" lon="5.78219">
        <ele>570.4</ele>
        <time>2022-05-21T13:48:52Z</time>
      </trkpt>
      <trkpt lat="46.57858" lon="5.78201">
        <ele>569.8</ele>
        <time>2022-05-21T13:48:53Z</time>
      </trkpt>
      <trkpt lat="46.5786" lon="5.78184">
        <ele>568.2</ele>
        <time>2022-05-21T13:48:54Z</time>
      </trkpt>
      <trkpt lat="46.57863" lon="5.78153">
        <ele>566</ele>
        <time>2022-05-21T13:48:56Z</time>
      </trkpt>
      <trkpt lat="46.57862" lon="5.78133">
        <ele>565</ele>
        <time>2022-05-21T13:48:57Z</time>
      </trkpt>
      <trkpt lat="46.57858" lon="5.78116">
        <ele>564.6</ele>
        <time>2022-05-21T13:48:58Z</time>
      </trkpt>
      <trkpt lat="46.57849" lon="5.78086">
        <ele>563.6</ele>
        <time>2022-05-21T13:49:00Z</time>
      </trkpt>
      <trkpt lat="46.57843" lon="5.7807">
        <ele>562.2</ele>
        <time>2022-05-21T13:49:01Z</time>
      </trkpt>
      <trkpt lat="46.57828" lon="5.78022">
        <ele>560.2</ele>
        <time>2022-05-21T13:49:04Z</time>
      </trkpt>
      <trkpt lat="46.57818" lon="5.77991">
        <ele>559.2</ele>
        <time>2022-05-21T13:49:06Z</time>
      </trkpt>
      <trkpt lat="46.57813" lon="5.77976">
        <ele>559</ele>
        <time>2022-05-21T13:49:07Z</time>
      </trkpt>
      <trkpt lat="46.57804" lon="5.77946">
        <ele>558</ele>
        <time>2022-05-21T13:49:09Z</time>
      </trkpt>
      <trkpt lat="46.5779" lon="5.77903">
        <ele>556.8</ele>
        <time>2022-05-21T13:49:12Z</time>
      </trkpt>
      <trkpt lat="46.57773" lon="5.77848">
        <ele>555.8</ele>
        <time>2022-05-21T13:49:16Z</time>
      </trkpt>
      <trkpt lat="46.57763" lon="5.77821">
        <ele>555.2</ele>
        <time>2022-05-21T13:49:18Z</time>
      </trkpt>
      <trkpt lat="46.57751" lon="5.77795">
        <ele>554.4</ele>
        <time>2022-05-21T13:49:20Z</time>
      </trkpt>
      <trkpt lat="46.57744" lon="5.77784">
        <ele>554.2</ele>
        <time>2022-05-21T13:49:21Z</time>
      </trkpt>
      <trkpt lat="46.57736" lon="5.77774">
        <ele>553.6</ele>
        <time>2022-05-21T13:49:22Z</time>
      </trkpt>
      <trkpt lat="46.57727" lon="5.77765">
        <ele>553.4</ele>
        <time>2022-05-21T13:49:23Z</time>
      </trkpt>
      <trkpt lat="46.57709" lon="5.7775">
        <ele>552.6</ele>
        <time>2022-05-21T13:49:25Z</time>
      </trkpt>
      <trkpt lat="46.5769" lon="5.77736">
        <ele>552</ele>
        <time>2022-05-21T13:49:27Z</time>
      </trkpt>
      <trkpt lat="46.57673" lon="5.77722">
        <ele>550.8</ele>
        <time>2022-05-21T13:49:29Z</time>
      </trkpt>
      <trkpt lat="46.57656" lon="5.7771">
        <ele>550</ele>
        <time>2022-05-21T13:49:31Z</time>
      </trkpt>
      <trkpt lat="46.57641" lon="5.77695">
        <ele>549.8</ele>
        <time>2022-05-21T13:49:33Z</time>
      </trkpt>
      <trkpt lat="46.57636" lon="5.77686">
        <ele>549.6</ele>
        <time>2022-05-21T13:49:34Z</time>
      </trkpt>
      <trkpt lat="46.57632" lon="5.77677">
        <ele>549.6</ele>
        <time>2022-05-21T13:49:35Z</time>
      </trkpt>
      <trkpt lat="46.57631" lon="5.77667">
        <ele>549.6</ele>
        <time>2022-05-21T13:49:36Z</time>
      </trkpt>
      <trkpt lat="46.57631" lon="5.77657">
        <ele>549.6</ele>
        <time>2022-05-21T13:49:37Z</time>
      </trkpt>
      <trkpt lat="46.57629" lon="5.77619">
        <ele>550.2</ele>
        <time>2022-05-21T13:49:41Z</time>
      </trkpt>
      <trkpt lat="46.57625" lon="5.77572">
        <ele>551</ele>
        <time>2022-05-21T13:49:46Z</time>
      </trkpt>
      <trkpt lat="46.57624" lon="5.77562">
        <ele>551.2</ele>
        <time>2022-05-21T13:49:47Z</time>
      </trkpt>
      <trkpt lat="46.57618" lon="5.7748">
        <ele>551.6</ele>
        <time>2022-05-21T13:49:55Z</time>
      </trkpt>
      <trkpt lat="46.57617" lon="5.77469">
        <ele>551.6</ele>
        <time>2022-05-21T13:49:56Z</time>
      </trkpt>
      <trkpt lat="46.57604" lon="5.77386">
        <ele>551.4</ele>
        <time>2022-05-21T13:50:04Z</time>
      </trkpt>
      <trkpt lat="46.57591" lon="5.77299">
        <ele>550.8</ele>
        <time>2022-05-21T13:50:12Z</time>
      </trkpt>
      <trkpt lat="46.57589" lon="5.77289">
        <ele>550.8</ele>
        <time>2022-05-21T13:50:13Z</time>
      </trkpt>
      <trkpt lat="46.57578" lon="5.77211">
        <ele>551.2</ele>
        <time>2022-05-21T13:50:20Z</time>
      </trkpt>
      <trkpt lat="46.57566" lon="5.77131">
        <ele>551.4</ele>
        <time>2022-05-21T13:50:27Z</time>
      </trkpt>
      <trkpt lat="46.57565" lon="5.7712">
        <ele>551.4</ele>
        <time>2022-05-21T13:50:28Z</time>
      </trkpt>
      <trkpt lat="46.57552" lon="5.77042">
        <ele>551.4</ele>
        <time>2022-05-21T13:50:35Z</time>
      </trkpt>
      <trkpt lat="46.57547" lon="5.77012">
        <ele>551.4</ele>
        <time>2022-05-21T13:50:38Z</time>
      </trkpt>
      <trkpt lat="46.57537" lon="5.76944">
        <ele>551.6</ele>
        <time>2022-05-21T13:50:45Z</time>
      </trkpt>
      <trkpt lat="46.57532" lon="5.76908">
        <ele>552.4</ele>
        <time>2022-05-21T13:50:49Z</time>
      </trkpt>
      <trkpt lat="46.57527" lon="5.76882">
        <ele>552.8</ele>
        <time>2022-05-21T13:50:52Z</time>
      </trkpt>
      <trkpt lat="46.57521" lon="5.76849">
        <ele>553.4</ele>
        <time>2022-05-21T13:50:56Z</time>
      </trkpt>
      <trkpt lat="46.57515" lon="5.76825">
        <ele>553.8</ele>
        <time>2022-05-21T13:50:59Z</time>
      </trkpt>
      <trkpt lat="46.57508" lon="5.76792">
        <ele>554.4</ele>
        <time>2022-05-21T13:51:03Z</time>
      </trkpt>
      <trkpt lat="46.57503" lon="5.76769">
        <ele>555.2</ele>
        <time>2022-05-21T13:51:06Z</time>
      </trkpt>
      <trkpt lat="46.57501" lon="5.76753">
        <ele>555.4</ele>
        <time>2022-05-21T13:51:08Z</time>
      </trkpt>
      <trkpt lat="46.57497" lon="5.76728">
        <ele>555.8</ele>
        <time>2022-05-21T13:51:11Z</time>
      </trkpt>
      <trkpt lat="46.57495" lon="5.76712">
        <ele>556</ele>
        <time>2022-05-21T13:51:13Z</time>
      </trkpt>
      <trkpt lat="46.57494" lon="5.76703">
        <ele>556.2</ele>
        <time>2022-05-21T13:51:14Z</time>
      </trkpt>
      <trkpt lat="46.57492" lon="5.76686">
        <ele>556.4</ele>
        <time>2022-05-21T13:51:16Z</time>
      </trkpt>
      <trkpt lat="46.57492" lon="5.76678">
        <ele>556.4</ele>
        <time>2022-05-21T13:51:17Z</time>
      </trkpt>
      <trkpt lat="46.57492" lon="5.76652">
        <ele>556.6</ele>
        <time>2022-05-21T13:51:20Z</time>
      </trkpt>
      <trkpt lat="46.57491" lon="5.76568">
        <ele>557.2</ele>
        <time>2022-05-21T13:51:29Z</time>
      </trkpt>
      <trkpt lat="46.57489" lon="5.76546">
        <ele>557</ele>
        <time>2022-05-21T13:51:31Z</time>
      </trkpt>
      <trkpt lat="46.57487" lon="5.76524">
        <ele>556.8</ele>
        <time>2022-05-21T13:51:33Z</time>
      </trkpt>
      <trkpt lat="46.57485" lon="5.76502">
        <ele>556.6</ele>
        <time>2022-05-21T13:51:35Z</time>
      </trkpt>
      <trkpt lat="46.5748" lon="5.7648">
        <ele>556.4</ele>
        <time>2022-05-21T13:51:37Z</time>
      </trkpt>
      <trkpt lat="46.57476" lon="5.7647">
        <ele>556</ele>
        <time>2022-05-21T13:51:38Z</time>
      </trkpt>
      <trkpt lat="46.57462" lon="5.7643">
        <ele>555.4</ele>
        <time>2022-05-21T13:51:42Z</time>
      </trkpt>
      <trkpt lat="46.57447" lon="5.76379">
        <ele>554.8</ele>
        <time>2022-05-21T13:51:47Z</time>
      </trkpt>
      <trkpt lat="46.5744" lon="5.76338">
        <ele>554.2</ele>
        <time>2022-05-21T13:51:51Z</time>
      </trkpt>
      <trkpt lat="46.57438" lon="5.76328">
        <ele>554.4</ele>
        <time>2022-05-21T13:51:52Z</time>
      </trkpt>
      <trkpt lat="46.5742" lon="5.76271">
        <ele>555</ele>
        <time>2022-05-21T13:51:58Z</time>
      </trkpt>
      <trkpt lat="46.57416" lon="5.76263">
        <ele>555</ele>
        <time>2022-05-21T13:51:59Z</time>
      </trkpt>
      <trkpt lat="46.57405" lon="5.76237">
        <ele>555.6</ele>
        <time>2022-05-21T13:52:02Z</time>
      </trkpt>
      <trkpt lat="46.57389" lon="5.76199">
        <ele>555.8</ele>
        <time>2022-05-21T13:52:06Z</time>
      </trkpt>
      <trkpt lat="46.57382" lon="5.76179">
        <ele>555.6</ele>
        <time>2022-05-21T13:52:08Z</time>
      </trkpt>
      <trkpt lat="46.57378" lon="5.76158">
        <ele>555.6</ele>
        <time>2022-05-21T13:52:10Z</time>
      </trkpt>
      <trkpt lat="46.57376" lon="5.76138">
        <ele>555.6</ele>
        <time>2022-05-21T13:52:12Z</time>
      </trkpt>
      <trkpt lat="46.57372" lon="5.76065">
        <ele>556.4</ele>
        <time>2022-05-21T13:52:19Z</time>
      </trkpt>
      <trkpt lat="46.57367" lon="5.76044">
        <ele>556.4</ele>
        <time>2022-05-21T13:52:21Z</time>
      </trkpt>
      <trkpt lat="46.57358" lon="5.76013">
        <ele>556.4</ele>
        <time>2022-05-21T13:52:24Z</time>
      </trkpt>
      <trkpt lat="46.57354" lon="5.75992">
        <ele>556.2</ele>
        <time>2022-05-21T13:52:26Z</time>
      </trkpt>
      <trkpt lat="46.5735" lon="5.75959">
        <ele>556</ele>
        <time>2022-05-21T13:52:29Z</time>
      </trkpt>
      <trkpt lat="46.5735" lon="5.75947">
        <ele>556</ele>
        <time>2022-05-21T13:52:30Z</time>
      </trkpt>
      <trkpt lat="46.57352" lon="5.75904">
        <ele>555.8</ele>
        <time>2022-05-21T13:52:34Z</time>
      </trkpt>
      <trkpt lat="46.57356" lon="5.75884">
        <ele>555.4</ele>
        <time>2022-05-21T13:52:36Z</time>
      </trkpt>
      <trkpt lat="46.57359" lon="5.75854">
        <ele>555.2</ele>
        <time>2022-05-21T13:52:39Z</time>
      </trkpt>
      <trkpt lat="46.57358" lon="5.75814">
        <ele>555.2</ele>
        <time>2022-05-21T13:52:43Z</time>
      </trkpt>
      <trkpt lat="46.57352" lon="5.75787">
        <ele>555.2</ele>
        <time>2022-05-21T13:52:46Z</time>
      </trkpt>
      <trkpt lat="46.57345" lon="5.75771">
        <ele>555.4</ele>
        <time>2022-05-21T13:52:48Z</time>
      </trkpt>
      <trkpt lat="46.57331" lon="5.7572">
        <ele>556</ele>
        <time>2022-05-21T13:52:54Z</time>
      </trkpt>
      <trkpt lat="46.5733" lon="5.7571">
        <ele>556</ele>
        <time>2022-05-21T13:52:55Z</time>
      </trkpt>
      <trkpt lat="46.57329" lon="5.75683">
        <ele>556.4</ele>
        <time>2022-05-21T13:52:58Z</time>
      </trkpt>
      <trkpt lat="46.57331" lon="5.75654">
        <ele>556.6</ele>
        <time>2022-05-21T13:53:01Z</time>
      </trkpt>
      <trkpt lat="46.57336" lon="5.75618">
        <ele>556.8</ele>
        <time>2022-05-21T13:53:05Z</time>
      </trkpt>
      <trkpt lat="46.57336" lon="5.75575">
        <ele>557</ele>
        <time>2022-05-21T13:53:10Z</time>
      </trkpt>
      <trkpt lat="46.57335" lon="5.75566">
        <ele>557.2</ele>
        <time>2022-05-21T13:53:11Z</time>
      </trkpt>
      <trkpt lat="46.57324" lon="5.75516">
        <ele>557.8</ele>
        <time>2022-05-21T13:53:17Z</time>
      </trkpt>
      <trkpt lat="46.57322" lon="5.75507">
        <ele>557.8</ele>
        <time>2022-05-21T13:53:18Z</time>
      </trkpt>
      <trkpt lat="46.57315" lon="5.75464">
        <ele>558</ele>
        <time>2022-05-21T13:53:23Z</time>
      </trkpt>
      <trkpt lat="46.57315" lon="5.75456">
        <ele>558</ele>
        <time>2022-05-21T13:53:24Z</time>
      </trkpt>
      <trkpt lat="46.57316" lon="5.75447">
        <ele>558</ele>
        <time>2022-05-21T13:53:25Z</time>
      </trkpt>
      <trkpt lat="46.57321" lon="5.75423">
        <ele>558.2</ele>
        <time>2022-05-21T13:53:28Z</time>
      </trkpt>
      <trkpt lat="46.5733" lon="5.75382">
        <ele>558.6</ele>
        <time>2022-05-21T13:53:33Z</time>
      </trkpt>
      <trkpt lat="46.5733" lon="5.75373">
        <ele>558.8</ele>
        <time>2022-05-21T13:53:34Z</time>
      </trkpt>
      <trkpt lat="46.5733" lon="5.75365">
        <ele>558.6</ele>
        <time>2022-05-21T13:53:35Z</time>
      </trkpt>
      <trkpt lat="46.57323" lon="5.75335">
        <ele>558.6</ele>
        <time>2022-05-21T13:53:39Z</time>
      </trkpt>
      <trkpt lat="46.5732" lon="5.75329">
        <ele>558.6</ele>
        <time>2022-05-21T13:53:41Z</time>
      </trkpt>
      <trkpt lat="46.57319" lon="5.75328">
        <ele>558.4</ele>
        <time>2022-05-21T13:53:42Z</time>
      </trkpt>
      <trkpt lat="46.57318" lon="5.75327">
        <ele>558.2</ele>
        <time>2022-05-21T13:53:44Z</time>
      </trkpt>
      <trkpt lat="46.57315" lon="5.75325">
        <ele>558.2</ele>
        <time>2022-05-21T13:53:46Z</time>
      </trkpt>
      <trkpt lat="46.57303" lon="5.75335">
        <ele>558.2</ele>
        <time>2022-05-21T13:53:50Z</time>
      </trkpt>
      <trkpt lat="46.57283" lon="5.75358">
        <ele>558.2</ele>
        <time>2022-05-21T13:53:55Z</time>
      </trkpt>
      <trkpt lat="46.57252" lon="5.75393">
        <ele>558.8</ele>
        <time>2022-05-21T13:54:02Z</time>
      </trkpt>
      <trkpt lat="46.57227" lon="5.75414">
        <ele>559.4</ele>
        <time>2022-05-21T13:54:07Z</time>
      </trkpt>
      <trkpt lat="46.57221" lon="5.75416">
        <ele>559.4</ele>
        <time>2022-05-21T13:54:08Z</time>
      </trkpt>
      <trkpt lat="46.57173" lon="5.75434">
        <ele>560</ele>
        <time>2022-05-21T13:54:16Z</time>
      </trkpt>
      <trkpt lat="46.57162" lon="5.7544">
        <ele>560.2</ele>
        <time>2022-05-21T13:54:18Z</time>
      </trkpt>
      <trkpt lat="46.57116" lon="5.75461">
        <ele>560.6</ele>
        <time>2022-05-21T13:54:26Z</time>
      </trkpt>
      <trkpt lat="46.57104" lon="5.75467">
        <ele>560.8</ele>
        <time>2022-05-21T13:54:28Z</time>
      </trkpt>
      <trkpt lat="46.57093" lon="5.75473">
        <ele>560.8</ele>
        <time>2022-05-21T13:54:30Z</time>
      </trkpt>
      <trkpt lat="46.57082" lon="5.7548">
        <ele>560.8</ele>
        <time>2022-05-21T13:54:32Z</time>
      </trkpt>
      <trkpt lat="46.57076" lon="5.75482">
        <ele>560.8</ele>
        <time>2022-05-21T13:54:33Z</time>
      </trkpt>
      <trkpt lat="46.57045" lon="5.75495">
        <ele>561.4</ele>
        <time>2022-05-21T13:54:38Z</time>
      </trkpt>
      <trkpt lat="46.5704" lon="5.75497">
        <ele>561.4</ele>
        <time>2022-05-21T13:54:39Z</time>
      </trkpt>
      <trkpt lat="46.56986" lon="5.75523">
        <ele>562</ele>
        <time>2022-05-21T13:54:48Z</time>
      </trkpt>
      <trkpt lat="46.56932" lon="5.75547">
        <ele>562.4</ele>
        <time>2022-05-21T13:54:57Z</time>
      </trkpt>
      <trkpt lat="46.56879" lon="5.75574">
        <ele>563.2</ele>
        <time>2022-05-21T13:55:06Z</time>
      </trkpt>
      <trkpt lat="46.56841" lon="5.75607">
        <ele>563.6</ele>
        <time>2022-05-21T13:55:13Z</time>
      </trkpt>
      <trkpt lat="46.56826" lon="5.75625">
        <ele>563.6</ele>
        <time>2022-05-21T13:55:16Z</time>
      </trkpt>
      <trkpt lat="46.568" lon="5.75654">
        <ele>564</ele>
        <time>2022-05-21T13:55:21Z</time>
      </trkpt>
      <trkpt lat="46.56762" lon="5.75677">
        <ele>564</ele>
        <time>2022-05-21T13:55:27Z</time>
      </trkpt>
      <trkpt lat="46.56706" lon="5.75699">
        <ele>564.4</ele>
        <time>2022-05-21T13:55:36Z</time>
      </trkpt>
      <trkpt lat="46.56694" lon="5.75704">
        <ele>564.8</ele>
        <time>2022-05-21T13:55:38Z</time>
      </trkpt>
      <trkpt lat="46.56683" lon="5.75708">
        <ele>565</ele>
        <time>2022-05-21T13:55:40Z</time>
      </trkpt>
      <trkpt lat="46.56667" lon="5.75714">
        <ele>565.6</ele>
        <time>2022-05-21T13:55:43Z</time>
      </trkpt>
      <trkpt lat="46.56661" lon="5.75716">
        <ele>566</ele>
        <time>2022-05-21T13:55:44Z</time>
      </trkpt>
      <trkpt lat="46.56631" lon="5.75731">
        <ele>567</ele>
        <time>2022-05-21T13:55:50Z</time>
      </trkpt>
      <trkpt lat="46.56611" lon="5.75742">
        <ele>568.4</ele>
        <time>2022-05-21T13:55:54Z</time>
      </trkpt>
      <trkpt lat="46.56583" lon="5.75762">
        <ele>569.4</ele>
        <time>2022-05-21T13:56:00Z</time>
      </trkpt>
      <trkpt lat="46.56569" lon="5.75772">
        <ele>570.4</ele>
        <time>2022-05-21T13:56:03Z</time>
      </trkpt>
      <trkpt lat="46.56565" lon="5.75776">
        <ele>570.6</ele>
        <time>2022-05-21T13:56:04Z</time>
      </trkpt>
      <trkpt lat="46.56549" lon="5.75792">
        <ele>571.8</ele>
        <time>2022-05-21T13:56:08Z</time>
      </trkpt>
      <trkpt lat="46.56535" lon="5.75806">
        <ele>572.8</ele>
        <time>2022-05-21T13:56:11Z</time>
      </trkpt>
      <trkpt lat="46.56531" lon="5.7581">
        <ele>573.4</ele>
        <time>2022-05-21T13:56:12Z</time>
      </trkpt>
      <trkpt lat="46.56518" lon="5.75823">
        <ele>573.8</ele>
        <time>2022-05-21T13:56:15Z</time>
      </trkpt>
      <trkpt lat="46.56501" lon="5.75841">
        <ele>575</ele>
        <time>2022-05-21T13:56:19Z</time>
      </trkpt>
      <trkpt lat="46.56493" lon="5.75849">
        <ele>575.4</ele>
        <time>2022-05-21T13:56:21Z</time>
      </trkpt>
      <trkpt lat="46.56481" lon="5.75862">
        <ele>576.2</ele>
        <time>2022-05-21T13:56:24Z</time>
      </trkpt>
      <trkpt lat="46.56462" lon="5.75886">
        <ele>577.6</ele>
        <time>2022-05-21T13:56:29Z</time>
      </trkpt>
      <trkpt lat="46.56459" lon="5.75891">
        <ele>577.8</ele>
        <time>2022-05-21T13:56:30Z</time>
      </trkpt>
      <trkpt lat="46.56441" lon="5.75915">
        <ele>578.6</ele>
        <time>2022-05-21T13:56:35Z</time>
      </trkpt>
      <trkpt lat="46.56426" lon="5.7594">
        <ele>579.6</ele>
        <time>2022-05-21T13:56:40Z</time>
      </trkpt>
      <trkpt lat="46.56423" lon="5.75945">
        <ele>579.8</ele>
        <time>2022-05-21T13:56:41Z</time>
      </trkpt>
      <trkpt lat="46.56417" lon="5.75955">
        <ele>580.4</ele>
        <time>2022-05-21T13:56:43Z</time>
      </trkpt>
      <trkpt lat="46.56412" lon="5.75966">
        <ele>580.6</ele>
        <time>2022-05-21T13:56:45Z</time>
      </trkpt>
      <trkpt lat="46.56402" lon="5.75989">
        <ele>581.8</ele>
        <time>2022-05-21T13:56:49Z</time>
      </trkpt>
      <trkpt lat="46.56391" lon="5.76012">
        <ele>583</ele>
        <time>2022-05-21T13:56:53Z</time>
      </trkpt>
      <trkpt lat="46.56381" lon="5.76034">
        <ele>584</ele>
        <time>2022-05-21T13:56:57Z</time>
      </trkpt>
      <trkpt lat="46.56373" lon="5.7605">
        <ele>584.2</ele>
        <time>2022-05-21T13:57:00Z</time>
      </trkpt>
      <trkpt lat="46.56362" lon="5.76072">
        <ele>585.2</ele>
        <time>2022-05-21T13:57:04Z</time>
      </trkpt>
      <trkpt lat="46.5635" lon="5.76095">
        <ele>586.2</ele>
        <time>2022-05-21T13:57:08Z</time>
      </trkpt>
      <trkpt lat="46.56341" lon="5.7611">
        <ele>586.8</ele>
        <time>2022-05-21T13:57:11Z</time>
      </trkpt>
      <trkpt lat="46.56326" lon="5.7613">
        <ele>587.6</ele>
        <time>2022-05-21T13:57:15Z</time>
      </trkpt>
      <trkpt lat="46.5631" lon="5.76146">
        <ele>588.4</ele>
        <time>2022-05-21T13:57:19Z</time>
      </trkpt>
      <trkpt lat="46.56306" lon="5.76149">
        <ele>588.6</ele>
        <time>2022-05-21T13:57:20Z</time>
      </trkpt>
      <trkpt lat="46.56301" lon="5.76152">
        <ele>588.8</ele>
        <time>2022-05-21T13:57:21Z</time>
      </trkpt>
      <trkpt lat="46.56286" lon="5.76155">
        <ele>589.6</ele>
        <time>2022-05-21T13:57:24Z</time>
      </trkpt>
      <trkpt lat="46.56275" lon="5.76156">
        <ele>590</ele>
        <time>2022-05-21T13:57:26Z</time>
      </trkpt>
      <trkpt lat="46.56266" lon="5.76155">
        <ele>590.6</ele>
        <time>2022-05-21T13:57:28Z</time>
      </trkpt>
      <trkpt lat="46.56256" lon="5.76153">
        <ele>591</ele>
        <time>2022-05-21T13:57:30Z</time>
      </trkpt>
      <trkpt lat="46.56252" lon="5.76152">
        <ele>591.6</ele>
        <time>2022-05-21T13:57:31Z</time>
      </trkpt>
      <trkpt lat="46.56243" lon="5.76149">
        <ele>592.2</ele>
        <time>2022-05-21T13:57:33Z</time>
      </trkpt>
      <trkpt lat="46.5622" lon="5.76142">
        <ele>593.6</ele>
        <time>2022-05-21T13:57:38Z</time>
      </trkpt>
      <trkpt lat="46.56206" lon="5.76139">
        <ele>594.6</ele>
        <time>2022-05-21T13:57:41Z</time>
      </trkpt>
      <trkpt lat="46.56188" lon="5.76136">
        <ele>595.6</ele>
        <time>2022-05-21T13:57:45Z</time>
      </trkpt>
      <trkpt lat="46.56175" lon="5.76134">
        <ele>597</ele>
        <time>2022-05-21T13:57:48Z</time>
      </trkpt>
      <trkpt lat="46.56167" lon="5.76132">
        <ele>598.2</ele>
        <time>2022-05-21T13:57:50Z</time>
      </trkpt>
      <trkpt lat="46.56156" lon="5.76132">
        <ele>599.6</ele>
        <time>2022-05-21T13:57:53Z</time>
      </trkpt>
      <trkpt lat="46.5614" lon="5.76133">
        <ele>600.8</ele>
        <time>2022-05-21T13:57:57Z</time>
      </trkpt>
      <trkpt lat="46.56136" lon="5.76134">
        <ele>601</ele>
        <time>2022-05-21T13:57:58Z</time>
      </trkpt>
      <trkpt lat="46.56128" lon="5.76136">
        <ele>602</ele>
        <time>2022-05-21T13:58:00Z</time>
      </trkpt>
      <trkpt lat="46.56112" lon="5.76144">
        <ele>603</ele>
        <time>2022-05-21T13:58:04Z</time>
      </trkpt>
      <trkpt lat="46.56105" lon="5.76148">
        <ele>604</ele>
        <time>2022-05-21T13:58:06Z</time>
      </trkpt>
      <trkpt lat="46.56101" lon="5.7615">
        <ele>604.4</ele>
        <time>2022-05-21T13:58:07Z</time>
      </trkpt>
      <trkpt lat="46.56083" lon="5.76167">
        <ele>605.4</ele>
        <time>2022-05-21T13:58:12Z</time>
      </trkpt>
      <trkpt lat="46.56076" lon="5.76175">
        <ele>606.2</ele>
        <time>2022-05-21T13:58:14Z</time>
      </trkpt>
      <trkpt lat="46.56069" lon="5.76183">
        <ele>607</ele>
        <time>2022-05-21T13:58:16Z</time>
      </trkpt>
      <trkpt lat="46.56049" lon="5.76202">
        <ele>608.2</ele>
        <time>2022-05-21T13:58:21Z</time>
      </trkpt>
      <trkpt lat="46.56041" lon="5.76209">
        <ele>608.8</ele>
        <time>2022-05-21T13:58:23Z</time>
      </trkpt>
      <trkpt lat="46.56032" lon="5.76217">
        <ele>609.2</ele>
        <time>2022-05-21T13:58:25Z</time>
      </trkpt>
      <trkpt lat="46.56004" lon="5.76242">
        <ele>610.4</ele>
        <time>2022-05-21T13:58:32Z</time>
      </trkpt>
      <trkpt lat="46.55987" lon="5.76254">
        <ele>611.4</ele>
        <time>2022-05-21T13:58:36Z</time>
      </trkpt>
      <trkpt lat="46.5597" lon="5.76264">
        <ele>612.4</ele>
        <time>2022-05-21T13:58:40Z</time>
      </trkpt>
      <trkpt lat="46.55966" lon="5.76265">
        <ele>612.8</ele>
        <time>2022-05-21T13:58:41Z</time>
      </trkpt>
      <trkpt lat="46.55939" lon="5.76276">
        <ele>613.8</ele>
        <time>2022-05-21T13:58:47Z</time>
      </trkpt>
      <trkpt lat="46.55934" lon="5.76278">
        <ele>614.4</ele>
        <time>2022-05-21T13:58:48Z</time>
      </trkpt>
      <trkpt lat="46.5593" lon="5.7628">
        <ele>615</ele>
        <time>2022-05-21T13:58:49Z</time>
      </trkpt>
      <trkpt lat="46.55917" lon="5.76284">
        <ele>615.4</ele>
        <time>2022-05-21T13:58:52Z</time>
      </trkpt>
      <trkpt lat="46.55904" lon="5.76288">
        <ele>616.2</ele>
        <time>2022-05-21T13:58:55Z</time>
      </trkpt>
      <trkpt lat="46.559" lon="5.7629">
        <ele>616.8</ele>
        <time>2022-05-21T13:58:56Z</time>
      </trkpt>
      <trkpt lat="46.55892" lon="5.76294">
        <ele>617.6</ele>
        <time>2022-05-21T13:58:58Z</time>
      </trkpt>
      <trkpt lat="46.55868" lon="5.76311">
        <ele>618.6</ele>
        <time>2022-05-21T13:59:04Z</time>
      </trkpt>
      <trkpt lat="46.55851" lon="5.76331">
        <ele>619.8</ele>
        <time>2022-05-21T13:59:09Z</time>
      </trkpt>
      <trkpt lat="46.55842" lon="5.76345">
        <ele>620.8</ele>
        <time>2022-05-21T13:59:12Z</time>
      </trkpt>
      <trkpt lat="46.55829" lon="5.76366">
        <ele>622</ele>
        <time>2022-05-21T13:59:16Z</time>
      </trkpt>
      <trkpt lat="46.55821" lon="5.7638">
        <ele>623</ele>
        <time>2022-05-21T13:59:19Z</time>
      </trkpt>
      <trkpt lat="46.55811" lon="5.76396">
        <ele>623.4</ele>
        <time>2022-05-21T13:59:22Z</time>
      </trkpt>
      <trkpt lat="46.55806" lon="5.76406">
        <ele>623.8</ele>
        <time>2022-05-21T13:59:24Z</time>
      </trkpt>
      <trkpt lat="46.55795" lon="5.76427">
        <ele>625</ele>
        <time>2022-05-21T13:59:28Z</time>
      </trkpt>
      <trkpt lat="46.55787" lon="5.76441">
        <ele>625.6</ele>
        <time>2022-05-21T13:59:31Z</time>
      </trkpt>
      <trkpt lat="46.55778" lon="5.76456">
        <ele>626</ele>
        <time>2022-05-21T13:59:34Z</time>
      </trkpt>
      <trkpt lat="46.55773" lon="5.76466">
        <ele>626.2</ele>
        <time>2022-05-21T13:59:36Z</time>
      </trkpt>
      <trkpt lat="46.55768" lon="5.76477">
        <ele>626.8</ele>
        <time>2022-05-21T13:59:38Z</time>
      </trkpt>
      <trkpt lat="46.55766" lon="5.76482">
        <ele>627</ele>
        <time>2022-05-21T13:59:39Z</time>
      </trkpt>
      <trkpt lat="46.55757" lon="5.76512">
        <ele>628.2</ele>
        <time>2022-05-21T13:59:44Z</time>
      </trkpt>
      <trkpt lat="46.55754" lon="5.76524">
        <ele>628.4</ele>
        <time>2022-05-21T13:59:46Z</time>
      </trkpt>
      <trkpt lat="46.55753" lon="5.76531">
        <ele>628.8</ele>
        <time>2022-05-21T13:59:47Z</time>
      </trkpt>
      <trkpt lat="46.55752" lon="5.76543">
        <ele>629.2</ele>
        <time>2022-05-21T13:59:49Z</time>
      </trkpt>
      <trkpt lat="46.55752" lon="5.7655">
        <ele>629.4</ele>
        <time>2022-05-21T13:59:50Z</time>
      </trkpt>
      <trkpt lat="46.55753" lon="5.76563">
        <ele>630.2</ele>
        <time>2022-05-21T13:59:52Z</time>
      </trkpt>
      <trkpt lat="46.55753" lon="5.7657">
        <ele>630.2</ele>
        <time>2022-05-21T13:59:53Z</time>
      </trkpt>
      <trkpt lat="46.55759" lon="5.76595">
        <ele>631.6</ele>
        <time>2022-05-21T13:59:57Z</time>
      </trkpt>
      <trkpt lat="46.55764" lon="5.76606">
        <ele>632</ele>
        <time>2022-05-21T13:59:59Z</time>
      </trkpt>
      <trkpt lat="46.55768" lon="5.76618">
        <ele>632.6</ele>
        <time>2022-05-21T14:00:01Z</time>
      </trkpt>
      <trkpt lat="46.5577" lon="5.76623">
        <ele>632.8</ele>
        <time>2022-05-21T14:00:02Z</time>
      </trkpt>
      <trkpt lat="46.55775" lon="5.76641">
        <ele>633.2</ele>
        <time>2022-05-21T14:00:05Z</time>
      </trkpt>
      <trkpt lat="46.55778" lon="5.76659">
        <ele>634</ele>
        <time>2022-05-21T14:00:08Z</time>
      </trkpt>
      <trkpt lat="46.55779" lon="5.76684">
        <ele>635.2</ele>
        <time>2022-05-21T14:00:12Z</time>
      </trkpt>
      <trkpt lat="46.55778" lon="5.76696">
        <ele>635.6</ele>
        <time>2022-05-21T14:00:14Z</time>
      </trkpt>
      <trkpt lat="46.55776" lon="5.7672">
        <ele>636.4</ele>
        <time>2022-05-21T14:00:18Z</time>
      </trkpt>
      <trkpt lat="46.55775" lon="5.76732">
        <ele>637.4</ele>
        <time>2022-05-21T14:00:20Z</time>
      </trkpt>
      <trkpt lat="46.55772" lon="5.76755">
        <ele>638.6</ele>
        <time>2022-05-21T14:00:24Z</time>
      </trkpt>
      <trkpt lat="46.55772" lon="5.7676">
        <ele>638.8</ele>
        <time>2022-05-21T14:00:25Z</time>
      </trkpt>
      <trkpt lat="46.5577" lon="5.76785">
        <ele>639.8</ele>
        <time>2022-05-21T14:00:29Z</time>
      </trkpt>
      <trkpt lat="46.5577" lon="5.76798">
        <ele>640.2</ele>
        <time>2022-05-21T14:00:31Z</time>
      </trkpt>
      <trkpt lat="46.55771" lon="5.76817">
        <ele>640.8</ele>
        <time>2022-05-21T14:00:34Z</time>
      </trkpt>
      <trkpt lat="46.55771" lon="5.7683">
        <ele>641</ele>
        <time>2022-05-21T14:00:36Z</time>
      </trkpt>
      <trkpt lat="46.55771" lon="5.76844">
        <ele>641.2</ele>
        <time>2022-05-21T14:00:38Z</time>
      </trkpt>
      <trkpt lat="46.5577" lon="5.76863">
        <ele>642</ele>
        <time>2022-05-21T14:00:41Z</time>
      </trkpt>
      <trkpt lat="46.55769" lon="5.76876">
        <ele>642.4</ele>
        <time>2022-05-21T14:00:43Z</time>
      </trkpt>
      <trkpt lat="46.55764" lon="5.76911">
        <ele>643.4</ele>
        <time>2022-05-21T14:00:49Z</time>
      </trkpt>
      <trkpt lat="46.5576" lon="5.76939">
        <ele>644.6</ele>
        <time>2022-05-21T14:00:54Z</time>
      </trkpt>
      <trkpt lat="46.55759" lon="5.76968">
        <ele>645.6</ele>
        <time>2022-05-21T14:00:59Z</time>
      </trkpt>
      <trkpt lat="46.5576" lon="5.7698">
        <ele>645.8</ele>
        <time>2022-05-21T14:01:01Z</time>
      </trkpt>
      <trkpt lat="46.5576" lon="5.77016">
        <ele>647</ele>
        <time>2022-05-21T14:01:07Z</time>
      </trkpt>
      <trkpt lat="46.5576" lon="5.77022">
        <ele>647.6</ele>
        <time>2022-05-21T14:01:08Z</time>
      </trkpt>
      <trkpt lat="46.55759" lon="5.77034">
        <ele>648.2</ele>
        <time>2022-05-21T14:01:10Z</time>
      </trkpt>
      <trkpt lat="46.55753" lon="5.77062">
        <ele>648.8</ele>
        <time>2022-05-21T14:01:15Z</time>
      </trkpt>
      <trkpt lat="46.55752" lon="5.77067">
        <ele>649.2</ele>
        <time>2022-05-21T14:01:16Z</time>
      </trkpt>
      <trkpt lat="46.55745" lon="5.77087">
        <ele>650.2</ele>
        <time>2022-05-21T14:01:20Z</time>
      </trkpt>
      <trkpt lat="46.5574" lon="5.77098">
        <ele>650.8</ele>
        <time>2022-05-21T14:01:22Z</time>
      </trkpt>
      <trkpt lat="46.55738" lon="5.77103">
        <ele>651.2</ele>
        <time>2022-05-21T14:01:23Z</time>
      </trkpt>
      <trkpt lat="46.55725" lon="5.77134">
        <ele>651.8</ele>
        <time>2022-05-21T14:01:29Z</time>
      </trkpt>
      <trkpt lat="46.55721" lon="5.77145">
        <ele>652</ele>
        <time>2022-05-21T14:01:31Z</time>
      </trkpt>
      <trkpt lat="46.55719" lon="5.7715">
        <ele>652.4</ele>
        <time>2022-05-21T14:01:32Z</time>
      </trkpt>
      <trkpt lat="46.55712" lon="5.77171">
        <ele>653.6</ele>
        <time>2022-05-21T14:01:36Z</time>
      </trkpt>
      <trkpt lat="46.55705" lon="5.77192">
        <ele>654.4</ele>
        <time>2022-05-21T14:01:40Z</time>
      </trkpt>
      <trkpt lat="46.55701" lon="5.77207">
        <ele>654.8</ele>
        <time>2022-05-21T14:01:43Z</time>
      </trkpt>
      <trkpt lat="46.55693" lon="5.77232">
        <ele>656</ele>
        <time>2022-05-21T14:01:48Z</time>
      </trkpt>
      <trkpt lat="46.55691" lon="5.77237">
        <ele>656</ele>
        <time>2022-05-21T14:01:49Z</time>
      </trkpt>
      <trkpt lat="46.55683" lon="5.77267">
        <ele>657.4</ele>
        <time>2022-05-21T14:01:55Z</time>
      </trkpt>
      <trkpt lat="46.55681" lon="5.77273">
        <ele>657.6</ele>
        <time>2022-05-21T14:01:56Z</time>
      </trkpt>
      <trkpt lat="46.55677" lon="5.77283">
        <ele>658.6</ele>
        <time>2022-05-21T14:01:58Z</time>
      </trkpt>
      <trkpt lat="46.55666" lon="5.77306">
        <ele>659.6</ele>
        <time>2022-05-21T14:02:03Z</time>
      </trkpt>
      <trkpt lat="46.55654" lon="5.7733">
        <ele>660.6</ele>
        <time>2022-05-21T14:02:08Z</time>
      </trkpt>
      <trkpt lat="46.55648" lon="5.77339">
        <ele>661</ele>
        <time>2022-05-21T14:02:10Z</time>
      </trkpt>
      <trkpt lat="46.55642" lon="5.77346">
        <ele>661.8</ele>
        <time>2022-05-21T14:02:12Z</time>
      </trkpt>
      <trkpt lat="46.55639" lon="5.7735">
        <ele>662</ele>
        <time>2022-05-21T14:02:13Z</time>
      </trkpt>
      <trkpt lat="46.55623" lon="5.77362">
        <ele>662.8</ele>
        <time>2022-05-21T14:02:17Z</time>
      </trkpt>
      <trkpt lat="46.55619" lon="5.77365">
        <ele>663</ele>
        <time>2022-05-21T14:02:18Z</time>
      </trkpt>
      <trkpt lat="46.55601" lon="5.7738">
        <ele>664</ele>
        <time>2022-05-21T14:02:23Z</time>
      </trkpt>
      <trkpt lat="46.55597" lon="5.77385">
        <ele>664.2</ele>
        <time>2022-05-21T14:02:24Z</time>
      </trkpt>
      <trkpt lat="46.55593" lon="5.77389">
        <ele>664.4</ele>
        <time>2022-05-21T14:02:25Z</time>
      </trkpt>
      <trkpt lat="46.5559" lon="5.77394">
        <ele>664.6</ele>
        <time>2022-05-21T14:02:26Z</time>
      </trkpt>
      <trkpt lat="46.55582" lon="5.77409">
        <ele>665</ele>
        <time>2022-05-21T14:02:29Z</time>
      </trkpt>
      <trkpt lat="46.5558" lon="5.77415">
        <ele>665.4</ele>
        <time>2022-05-21T14:02:30Z</time>
      </trkpt>
      <trkpt lat="46.55578" lon="5.7742">
        <ele>665.4</ele>
        <time>2022-05-21T14:02:31Z</time>
      </trkpt>
      <trkpt lat="46.55574" lon="5.77432">
        <ele>666</ele>
        <time>2022-05-21T14:02:33Z</time>
      </trkpt>
      <trkpt lat="46.55568" lon="5.77456">
        <ele>666.6</ele>
        <time>2022-05-21T14:02:37Z</time>
      </trkpt>
      <trkpt lat="46.55559" lon="5.77491">
        <ele>667.8</ele>
        <time>2022-05-21T14:02:43Z</time>
      </trkpt>
      <trkpt lat="46.55557" lon="5.77497">
        <ele>668.2</ele>
        <time>2022-05-21T14:02:44Z</time>
      </trkpt>
      <trkpt lat="46.5555" lon="5.77512">
        <ele>668.6</ele>
        <time>2022-05-21T14:02:47Z</time>
      </trkpt>
      <trkpt lat="46.55547" lon="5.77517">
        <ele>668.8</ele>
        <time>2022-05-21T14:02:48Z</time>
      </trkpt>
      <trkpt lat="46.55544" lon="5.77522">
        <ele>669.2</ele>
        <time>2022-05-21T14:02:49Z</time>
      </trkpt>
      <trkpt lat="46.55529" lon="5.7754">
        <ele>670.2</ele>
        <time>2022-05-21T14:02:53Z</time>
      </trkpt>
      <trkpt lat="46.55522" lon="5.77551">
        <ele>670.2</ele>
        <time>2022-05-21T14:02:55Z</time>
      </trkpt>
      <trkpt lat="46.55519" lon="5.77557">
        <ele>670.4</ele>
        <time>2022-05-21T14:02:56Z</time>
      </trkpt>
      <trkpt lat="46.55506" lon="5.77577">
        <ele>671.2</ele>
        <time>2022-05-21T14:03:00Z</time>
      </trkpt>
      <trkpt lat="46.55498" lon="5.77593">
        <ele>671.6</ele>
        <time>2022-05-21T14:03:03Z</time>
      </trkpt>
      <trkpt lat="46.55492" lon="5.7761">
        <ele>672.4</ele>
        <time>2022-05-21T14:03:06Z</time>
      </trkpt>
      <trkpt lat="46.55479" lon="5.77636">
        <ele>673.6</ele>
        <time>2022-05-21T14:03:11Z</time>
      </trkpt>
      <trkpt lat="46.55474" lon="5.77646">
        <ele>673.8</ele>
        <time>2022-05-21T14:03:13Z</time>
      </trkpt>
      <trkpt lat="46.55469" lon="5.77655">
        <ele>673.8</ele>
        <time>2022-05-21T14:03:15Z</time>
      </trkpt>
      <trkpt lat="46.55466" lon="5.7766">
        <ele>674</ele>
        <time>2022-05-21T14:03:16Z</time>
      </trkpt>
      <trkpt lat="46.5546" lon="5.77668">
        <ele>674.2</ele>
        <time>2022-05-21T14:03:18Z</time>
      </trkpt>
      <trkpt lat="46.55457" lon="5.77672">
        <ele>674.4</ele>
        <time>2022-05-21T14:03:19Z</time>
      </trkpt>
      <trkpt lat="46.5545" lon="5.77678">
        <ele>674.6</ele>
        <time>2022-05-21T14:03:21Z</time>
      </trkpt>
      <trkpt lat="46.55442" lon="5.77683">
        <ele>675</ele>
        <time>2022-05-21T14:03:23Z</time>
      </trkpt>
      <trkpt lat="46.55434" lon="5.77686">
        <ele>675.6</ele>
        <time>2022-05-21T14:03:25Z</time>
      </trkpt>
      <trkpt lat="46.5543" lon="5.77687">
        <ele>675.8</ele>
        <time>2022-05-21T14:03:26Z</time>
      </trkpt>
      <trkpt lat="46.55417" lon="5.77691">
        <ele>676.4</ele>
        <time>2022-05-21T14:03:29Z</time>
      </trkpt>
      <trkpt lat="46.55408" lon="5.77693">
        <ele>676.8</ele>
        <time>2022-05-21T14:03:31Z</time>
      </trkpt>
      <trkpt lat="46.55399" lon="5.77697">
        <ele>677.2</ele>
        <time>2022-05-21T14:03:33Z</time>
      </trkpt>
      <trkpt lat="46.55382" lon="5.77709">
        <ele>678</ele>
        <time>2022-05-21T14:03:37Z</time>
      </trkpt>
      <trkpt lat="46.5537" lon="5.77718">
        <ele>678.4</ele>
        <time>2022-05-21T14:03:40Z</time>
      </trkpt>
      <trkpt lat="46.55353" lon="5.77732">
        <ele>679.2</ele>
        <time>2022-05-21T14:03:44Z</time>
      </trkpt>
      <trkpt lat="46.55341" lon="5.77744">
        <ele>679.6</ele>
        <time>2022-05-21T14:03:47Z</time>
      </trkpt>
      <trkpt lat="46.55336" lon="5.77747">
        <ele>679.8</ele>
        <time>2022-05-21T14:03:48Z</time>
      </trkpt>
      <trkpt lat="46.55324" lon="5.77756">
        <ele>680.4</ele>
        <time>2022-05-21T14:03:51Z</time>
      </trkpt>
      <trkpt lat="46.55316" lon="5.77761">
        <ele>680.8</ele>
        <time>2022-05-21T14:03:53Z</time>
      </trkpt>
      <trkpt lat="46.55312" lon="5.77765">
        <ele>681</ele>
        <time>2022-05-21T14:03:54Z</time>
      </trkpt>
      <trkpt lat="46.55304" lon="5.7777">
        <ele>681.6</ele>
        <time>2022-05-21T14:03:56Z</time>
      </trkpt>
      <trkpt lat="46.553" lon="5.77772">
        <ele>681.8</ele>
        <time>2022-05-21T14:03:57Z</time>
      </trkpt>
      <trkpt lat="46.55287" lon="5.77779">
        <ele>682.6</ele>
        <time>2022-05-21T14:04:00Z</time>
      </trkpt>
      <trkpt lat="46.55278" lon="5.77782">
        <ele>683</ele>
        <time>2022-05-21T14:04:02Z</time>
      </trkpt>
      <trkpt lat="46.55267" lon="5.77785">
        <ele>683.6</ele>
        <time>2022-05-21T14:04:04Z</time>
      </trkpt>
      <trkpt lat="46.55262" lon="5.77787">
        <ele>683.8</ele>
        <time>2022-05-21T14:04:05Z</time>
      </trkpt>
      <trkpt lat="46.55247" lon="5.77793">
        <ele>684.2</ele>
        <time>2022-05-21T14:04:08Z</time>
      </trkpt>
      <trkpt lat="46.55234" lon="5.77803">
        <ele>685</ele>
        <time>2022-05-21T14:04:11Z</time>
      </trkpt>
      <trkpt lat="46.55225" lon="5.77813">
        <ele>685.4</ele>
        <time>2022-05-21T14:04:13Z</time>
      </trkpt>
      <trkpt lat="46.5521" lon="5.77831">
        <ele>686.2</ele>
        <time>2022-05-21T14:04:17Z</time>
      </trkpt>
      <trkpt lat="46.55208" lon="5.77835">
        <ele>686.2</ele>
        <time>2022-05-21T14:04:18Z</time>
      </trkpt>
      <trkpt lat="46.55189" lon="5.77864">
        <ele>687.4</ele>
        <time>2022-05-21T14:04:24Z</time>
      </trkpt>
      <trkpt lat="46.55173" lon="5.77891">
        <ele>688</ele>
        <time>2022-05-21T14:04:29Z</time>
      </trkpt>
      <trkpt lat="46.55168" lon="5.77904">
        <ele>688.2</ele>
        <time>2022-05-21T14:04:31Z</time>
      </trkpt>
      <trkpt lat="46.55166" lon="5.77911">
        <ele>688.4</ele>
        <time>2022-05-21T14:04:32Z</time>
      </trkpt>
      <trkpt lat="46.55164" lon="5.77918">
        <ele>688.6</ele>
        <time>2022-05-21T14:04:33Z</time>
      </trkpt>
      <trkpt lat="46.55151" lon="5.77953">
        <ele>689.4</ele>
        <time>2022-05-21T14:04:38Z</time>
      </trkpt>
      <trkpt lat="46.55149" lon="5.77959">
        <ele>689.4</ele>
        <time>2022-05-21T14:04:39Z</time>
      </trkpt>
      <trkpt lat="46.55137" lon="5.78">
        <ele>690.4</ele>
        <time>2022-05-21T14:04:45Z</time>
      </trkpt>
      <trkpt lat="46.55136" lon="5.78008">
        <ele>690.6</ele>
        <time>2022-05-21T14:04:46Z</time>
      </trkpt>
      <trkpt lat="46.55122" lon="5.78049">
        <ele>691.6</ele>
        <time>2022-05-21T14:04:52Z</time>
      </trkpt>
      <trkpt lat="46.55119" lon="5.78056">
        <ele>691.8</ele>
        <time>2022-05-21T14:04:53Z</time>
      </trkpt>
      <trkpt lat="46.5511" lon="5.78081">
        <ele>692.6</ele>
        <time>2022-05-21T14:04:57Z</time>
      </trkpt>
      <trkpt lat="46.55107" lon="5.78086">
        <ele>692.8</ele>
        <time>2022-05-21T14:04:58Z</time>
      </trkpt>
      <trkpt lat="46.55105" lon="5.78091">
        <ele>693</ele>
        <time>2022-05-21T14:04:59Z</time>
      </trkpt>
      <trkpt lat="46.55092" lon="5.78119">
        <ele>693.6</ele>
        <time>2022-05-21T14:05:04Z</time>
      </trkpt>
      <trkpt lat="46.55087" lon="5.7813">
        <ele>694.2</ele>
        <time>2022-05-21T14:05:06Z</time>
      </trkpt>
      <trkpt lat="46.55084" lon="5.78136">
        <ele>694.4</ele>
        <time>2022-05-21T14:05:07Z</time>
      </trkpt>
      <trkpt lat="46.55072" lon="5.78154">
        <ele>694.8</ele>
        <time>2022-05-21T14:05:11Z</time>
      </trkpt>
      <trkpt lat="46.55069" lon="5.7816">
        <ele>695</ele>
        <time>2022-05-21T14:05:12Z</time>
      </trkpt>
      <trkpt lat="46.55063" lon="5.7817">
        <ele>695.2</ele>
        <time>2022-05-21T14:05:14Z</time>
      </trkpt>
      <trkpt lat="46.55052" lon="5.78194">
        <ele>696.2</ele>
        <time>2022-05-21T14:05:18Z</time>
      </trkpt>
      <trkpt lat="46.5505" lon="5.78201">
        <ele>696.2</ele>
        <time>2022-05-21T14:05:19Z</time>
      </trkpt>
      <trkpt lat="46.55048" lon="5.78207">
        <ele>696.6</ele>
        <time>2022-05-21T14:05:20Z</time>
      </trkpt>
      <trkpt lat="46.55042" lon="5.78227">
        <ele>697</ele>
        <time>2022-05-21T14:05:23Z</time>
      </trkpt>
      <trkpt lat="46.5504" lon="5.78242">
        <ele>697.2</ele>
        <time>2022-05-21T14:05:25Z</time>
      </trkpt>
      <trkpt lat="46.5504" lon="5.78249">
        <ele>697.4</ele>
        <time>2022-05-21T14:05:26Z</time>
      </trkpt>
      <trkpt lat="46.55037" lon="5.78287">
        <ele>698</ele>
        <time>2022-05-21T14:05:31Z</time>
      </trkpt>
      <trkpt lat="46.55036" lon="5.78295">
        <ele>698</ele>
        <time>2022-05-21T14:05:32Z</time>
      </trkpt>
      <trkpt lat="46.55034" lon="5.7831">
        <ele>698.4</ele>
        <time>2022-05-21T14:05:34Z</time>
      </trkpt>
      <trkpt lat="46.55032" lon="5.78324">
        <ele>698.8</ele>
        <time>2022-05-21T14:05:36Z</time>
      </trkpt>
      <trkpt lat="46.5503" lon="5.78336">
        <ele>699</ele>
        <time>2022-05-21T14:05:38Z</time>
      </trkpt>
      <trkpt lat="46.55022" lon="5.78364">
        <ele>699.6</ele>
        <time>2022-05-21T14:05:42Z</time>
      </trkpt>
      <trkpt lat="46.5502" lon="5.7837">
        <ele>699.8</ele>
        <time>2022-05-21T14:05:43Z</time>
      </trkpt>
      <trkpt lat="46.55013" lon="5.78389">
        <ele>700.4</ele>
        <time>2022-05-21T14:05:46Z</time>
      </trkpt>
      <trkpt lat="46.55011" lon="5.78395">
        <ele>700.6</ele>
        <time>2022-05-21T14:05:47Z</time>
      </trkpt>
      <trkpt lat="46.55004" lon="5.78422">
        <ele>701.2</ele>
        <time>2022-05-21T14:05:51Z</time>
      </trkpt>
      <trkpt lat="46.55001" lon="5.78438">
        <ele>701.6</ele>
        <time>2022-05-21T14:05:53Z</time>
      </trkpt>
      <trkpt lat="46.55" lon="5.78445">
        <ele>701.8</ele>
        <time>2022-05-21T14:05:54Z</time>
      </trkpt>
      <trkpt lat="46.54998" lon="5.78471">
        <ele>702.2</ele>
        <time>2022-05-21T14:05:57Z</time>
      </trkpt>
      <trkpt lat="46.54998" lon="5.78498">
        <ele>702.2</ele>
        <time>2022-05-21T14:06:00Z</time>
      </trkpt>
      <trkpt lat="46.54998" lon="5.78566">
        <ele>702.4</ele>
        <time>2022-05-21T14:06:07Z</time>
      </trkpt>
      <trkpt lat="46.54994" lon="5.78607">
        <ele>702.4</ele>
        <time>2022-05-21T14:06:11Z</time>
      </trkpt>
      <trkpt lat="46.54991" lon="5.78617">
        <ele>702.4</ele>
        <time>2022-05-21T14:06:12Z</time>
      </trkpt>
      <trkpt lat="46.5498" lon="5.78643">
        <ele>702.4</ele>
        <time>2022-05-21T14:06:15Z</time>
      </trkpt>
      <trkpt lat="46.5497" lon="5.78656">
        <ele>702.4</ele>
        <time>2022-05-21T14:06:17Z</time>
      </trkpt>
      <trkpt lat="46.54955" lon="5.78665">
        <ele>702.4</ele>
        <time>2022-05-21T14:06:19Z</time>
      </trkpt>
      <trkpt lat="46.54939" lon="5.78671">
        <ele>702.4</ele>
        <time>2022-05-21T14:06:21Z</time>
      </trkpt>
      <trkpt lat="46.54888" lon="5.78685">
        <ele>701.8</ele>
        <time>2022-05-21T14:06:27Z</time>
      </trkpt>
      <trkpt lat="46.54859" lon="5.78691">
        <ele>701.4</ele>
        <time>2022-05-21T14:06:30Z</time>
      </trkpt>
      <trkpt lat="46.54849" lon="5.78693">
        <ele>701.2</ele>
        <time>2022-05-21T14:06:31Z</time>
      </trkpt>
      <trkpt lat="46.5483" lon="5.78697">
        <ele>700.8</ele>
        <time>2022-05-21T14:06:33Z</time>
      </trkpt>
      <trkpt lat="46.54812" lon="5.78703">
        <ele>700.4</ele>
        <time>2022-05-21T14:06:35Z</time>
      </trkpt>
      <trkpt lat="46.54804" lon="5.78707">
        <ele>700.2</ele>
        <time>2022-05-21T14:06:36Z</time>
      </trkpt>
      <trkpt lat="46.54761" lon="5.78737">
        <ele>699.4</ele>
        <time>2022-05-21T14:06:41Z</time>
      </trkpt>
      <trkpt lat="46.54754" lon="5.78744">
        <ele>699.4</ele>
        <time>2022-05-21T14:06:42Z</time>
      </trkpt>
      <trkpt lat="46.54748" lon="5.78753">
        <ele>699.4</ele>
        <time>2022-05-21T14:06:43Z</time>
      </trkpt>
      <trkpt lat="46.54743" lon="5.78764">
        <ele>699.2</ele>
        <time>2022-05-21T14:06:44Z</time>
      </trkpt>
      <trkpt lat="46.54739" lon="5.78775">
        <ele>699.2</ele>
        <time>2022-05-21T14:06:45Z</time>
      </trkpt>
      <trkpt lat="46.54735" lon="5.78803">
        <ele>698.8</ele>
        <time>2022-05-21T14:06:47Z</time>
      </trkpt>
      <trkpt lat="46.54736" lon="5.78815">
        <ele>698.4</ele>
        <time>2022-05-21T14:06:48Z</time>
      </trkpt>
      <trkpt lat="46.54739" lon="5.78865">
        <ele>698</ele>
        <time>2022-05-21T14:06:52Z</time>
      </trkpt>
      <trkpt lat="46.54742" lon="5.78889">
        <ele>697.8</ele>
        <time>2022-05-21T14:06:54Z</time>
      </trkpt>
      <trkpt lat="46.54755" lon="5.78956">
        <ele>698</ele>
        <time>2022-05-21T14:07:00Z</time>
      </trkpt>
      <trkpt lat="46.54757" lon="5.78967">
        <ele>698.2</ele>
        <time>2022-05-21T14:07:01Z</time>
      </trkpt>
      <trkpt lat="46.54764" lon="5.78995">
        <ele>698.6</ele>
        <time>2022-05-21T14:07:04Z</time>
      </trkpt>
      <trkpt lat="46.54772" lon="5.79031">
        <ele>699.2</ele>
        <time>2022-05-21T14:07:08Z</time>
      </trkpt>
      <trkpt lat="46.54773" lon="5.79041">
        <ele>699.6</ele>
        <time>2022-05-21T14:07:09Z</time>
      </trkpt>
      <trkpt lat="46.54774" lon="5.79059">
        <ele>700.4</ele>
        <time>2022-05-21T14:07:11Z</time>
      </trkpt>
      <trkpt lat="46.54774" lon="5.79069">
        <ele>700.6</ele>
        <time>2022-05-21T14:07:12Z</time>
      </trkpt>
      <trkpt lat="46.54773" lon="5.79078">
        <ele>700.6</ele>
        <time>2022-05-21T14:07:13Z</time>
      </trkpt>
      <trkpt lat="46.54771" lon="5.79095">
        <ele>701</ele>
        <time>2022-05-21T14:07:15Z</time>
      </trkpt>
      <trkpt lat="46.54768" lon="5.79102">
        <ele>701.4</ele>
        <time>2022-05-21T14:07:16Z</time>
      </trkpt>
      <trkpt lat="46.54765" lon="5.79109">
        <ele>701.8</ele>
        <time>2022-05-21T14:07:17Z</time>
      </trkpt>
      <trkpt lat="46.54757" lon="5.79121">
        <ele>702.6</ele>
        <time>2022-05-21T14:07:19Z</time>
      </trkpt>
      <trkpt lat="46.54748" lon="5.79128">
        <ele>702.8</ele>
        <time>2022-05-21T14:07:21Z</time>
      </trkpt>
      <trkpt lat="46.54736" lon="5.79134">
        <ele>704</ele>
        <time>2022-05-21T14:07:24Z</time>
      </trkpt>
      <trkpt lat="46.54731" lon="5.79135">
        <ele>704</ele>
        <time>2022-05-21T14:07:25Z</time>
      </trkpt>
      <trkpt lat="46.5471" lon="5.79143">
        <ele>705</ele>
        <time>2022-05-21T14:07:30Z</time>
      </trkpt>
      <trkpt lat="46.54703" lon="5.79149">
        <ele>705.8</ele>
        <time>2022-05-21T14:07:32Z</time>
      </trkpt>
      <trkpt lat="46.54699" lon="5.79152">
        <ele>706.2</ele>
        <time>2022-05-21T14:07:33Z</time>
      </trkpt>
      <trkpt lat="46.54677" lon="5.79172">
        <ele>707.4</ele>
        <time>2022-05-21T14:07:38Z</time>
      </trkpt>
      <trkpt lat="46.54653" lon="5.79195">
        <ele>708.4</ele>
        <time>2022-05-21T14:07:44Z</time>
      </trkpt>
      <trkpt lat="46.54649" lon="5.79198">
        <ele>708.6</ele>
        <time>2022-05-21T14:07:45Z</time>
      </trkpt>
      <trkpt lat="46.54626" lon="5.79221">
        <ele>709.4</ele>
        <time>2022-05-21T14:07:51Z</time>
      </trkpt>
      <trkpt lat="46.54621" lon="5.79225">
        <ele>709.6</ele>
        <time>2022-05-21T14:07:52Z</time>
      </trkpt>
      <trkpt lat="46.54584" lon="5.79249">
        <ele>710.4</ele>
        <time>2022-05-21T14:08:00Z</time>
      </trkpt>
      <trkpt lat="46.54578" lon="5.7925">
        <ele>710.6</ele>
        <time>2022-05-21T14:08:01Z</time>
      </trkpt>
      <trkpt lat="46.54558" lon="5.79251">
        <ele>710.8</ele>
        <time>2022-05-21T14:08:05Z</time>
      </trkpt>
      <trkpt lat="46.54554" lon="5.79252">
        <ele>711</ele>
        <time>2022-05-21T14:08:06Z</time>
      </trkpt>
      <trkpt lat="46.54536" lon="5.79257">
        <ele>711.4</ele>
        <time>2022-05-21T14:08:10Z</time>
      </trkpt>
      <trkpt lat="46.54526" lon="5.79262">
        <ele>711.6</ele>
        <time>2022-05-21T14:08:12Z</time>
      </trkpt>
      <trkpt lat="46.54522" lon="5.79265">
        <ele>711.8</ele>
        <time>2022-05-21T14:08:13Z</time>
      </trkpt>
      <trkpt lat="46.54512" lon="5.79278">
        <ele>712.2</ele>
        <time>2022-05-21T14:08:16Z</time>
      </trkpt>
      <trkpt lat="46.54501" lon="5.79294">
        <ele>712.6</ele>
        <time>2022-05-21T14:08:19Z</time>
      </trkpt>
      <trkpt lat="46.54497" lon="5.79299">
        <ele>713</ele>
        <time>2022-05-21T14:08:20Z</time>
      </trkpt>
      <trkpt lat="46.54483" lon="5.79315">
        <ele>713.6</ele>
        <time>2022-05-21T14:08:24Z</time>
      </trkpt>
      <trkpt lat="46.54473" lon="5.79326">
        <ele>714.2</ele>
        <time>2022-05-21T14:08:27Z</time>
      </trkpt>
      <trkpt lat="46.54467" lon="5.79332">
        <ele>714.8</ele>
        <time>2022-05-21T14:08:29Z</time>
      </trkpt>
      <trkpt lat="46.54457" lon="5.79343">
        <ele>715.2</ele>
        <time>2022-05-21T14:08:32Z</time>
      </trkpt>
      <trkpt lat="46.54435" lon="5.79364">
        <ele>716.2</ele>
        <time>2022-05-21T14:08:37Z</time>
      </trkpt>
      <trkpt lat="46.54431" lon="5.79367">
        <ele>716.6</ele>
        <time>2022-05-21T14:08:38Z</time>
      </trkpt>
      <trkpt lat="46.54399" lon="5.79389">
        <ele>717.6</ele>
        <time>2022-05-21T14:08:45Z</time>
      </trkpt>
      <trkpt lat="46.54373" lon="5.79408">
        <ele>718.6</ele>
        <time>2022-05-21T14:08:51Z</time>
      </trkpt>
      <trkpt lat="46.54355" lon="5.79414">
        <ele>719.8</ele>
        <time>2022-05-21T14:08:55Z</time>
      </trkpt>
      <trkpt lat="46.54348" lon="5.79415">
        <ele>720.4</ele>
        <time>2022-05-21T14:08:57Z</time>
      </trkpt>
      <trkpt lat="46.54335" lon="5.79414">
        <ele>720.6</ele>
        <time>2022-05-21T14:09:01Z</time>
      </trkpt>
      <trkpt lat="46.54331" lon="5.79414">
        <ele>721</ele>
        <time>2022-05-21T14:09:02Z</time>
      </trkpt>
      <trkpt lat="46.54315" lon="5.79412">
        <ele>721.8</ele>
        <time>2022-05-21T14:09:06Z</time>
      </trkpt>
      <trkpt lat="46.54303" lon="5.7941">
        <ele>722.4</ele>
        <time>2022-05-21T14:09:09Z</time>
      </trkpt>
      <trkpt lat="46.54295" lon="5.79408">
        <ele>723</ele>
        <time>2022-05-21T14:09:11Z</time>
      </trkpt>
      <trkpt lat="46.54278" lon="5.79406">
        <ele>724</ele>
        <time>2022-05-21T14:09:15Z</time>
      </trkpt>
      <trkpt lat="46.54274" lon="5.79406">
        <ele>724</ele>
        <time>2022-05-21T14:09:16Z</time>
      </trkpt>
      <trkpt lat="46.54259" lon="5.79406">
        <ele>725.2</ele>
        <time>2022-05-21T14:09:20Z</time>
      </trkpt>
      <trkpt lat="46.5425" lon="5.79408">
        <ele>725.6</ele>
        <time>2022-05-21T14:09:22Z</time>
      </trkpt>
      <trkpt lat="46.54243" lon="5.79412">
        <ele>726.2</ele>
        <time>2022-05-21T14:09:24Z</time>
      </trkpt>
      <trkpt lat="46.54229" lon="5.79421">
        <ele>727</ele>
        <time>2022-05-21T14:09:28Z</time>
      </trkpt>
      <trkpt lat="46.54227" lon="5.79424">
        <ele>727.4</ele>
        <time>2022-05-21T14:09:29Z</time>
      </trkpt>
      <trkpt lat="46.54215" lon="5.79443">
        <ele>728.4</ele>
        <time>2022-05-21T14:09:34Z</time>
      </trkpt>
      <trkpt lat="46.54212" lon="5.79447">
        <ele>728.4</ele>
        <time>2022-05-21T14:09:35Z</time>
      </trkpt>
      <trkpt lat="46.54198" lon="5.79466">
        <ele>729.4</ele>
        <time>2022-05-21T14:09:40Z</time>
      </trkpt>
      <trkpt lat="46.54193" lon="5.79473">
        <ele>730</ele>
        <time>2022-05-21T14:09:42Z</time>
      </trkpt>
      <trkpt lat="46.54179" lon="5.79488">
        <ele>730.6</ele>
        <time>2022-05-21T14:09:46Z</time>
      </trkpt>
      <trkpt lat="46.54171" lon="5.79495">
        <ele>730.8</ele>
        <time>2022-05-21T14:09:48Z</time>
      </trkpt>
      <trkpt lat="46.54163" lon="5.79504">
        <ele>731</ele>
        <time>2022-05-21T14:09:50Z</time>
      </trkpt>
      <trkpt lat="46.54148" lon="5.79516">
        <ele>731</ele>
        <time>2022-05-21T14:09:53Z</time>
      </trkpt>
      <trkpt lat="46.54108" lon="5.79537">
        <ele>731.2</ele>
        <time>2022-05-21T14:10:00Z</time>
      </trkpt>
      <trkpt lat="46.54073" lon="5.79546">
        <ele>731.2</ele>
        <time>2022-05-21T14:10:06Z</time>
      </trkpt>
      <trkpt lat="46.54062" lon="5.79547">
        <ele>731.2</ele>
        <time>2022-05-21T14:10:08Z</time>
      </trkpt>
      <trkpt lat="46.54057" lon="5.79546">
        <ele>731.4</ele>
        <time>2022-05-21T14:10:09Z</time>
      </trkpt>
      <trkpt lat="46.54034" lon="5.79542">
        <ele>731.8</ele>
        <time>2022-05-21T14:10:13Z</time>
      </trkpt>
      <trkpt lat="46.54013" lon="5.79533">
        <ele>731.8</ele>
        <time>2022-05-21T14:10:17Z</time>
      </trkpt>
      <trkpt lat="46.54004" lon="5.79525">
        <ele>732</ele>
        <time>2022-05-21T14:10:19Z</time>
      </trkpt>
      <trkpt lat="46.53985" lon="5.79508">
        <ele>732.4</ele>
        <time>2022-05-21T14:10:23Z</time>
      </trkpt>
      <trkpt lat="46.53965" lon="5.79492">
        <ele>732.6</ele>
        <time>2022-05-21T14:10:27Z</time>
      </trkpt>
      <trkpt lat="46.53933" lon="5.79476">
        <ele>732.8</ele>
        <time>2022-05-21T14:10:32Z</time>
      </trkpt>
      <trkpt lat="46.53886" lon="5.7946">
        <ele>731.8</ele>
        <time>2022-05-21T14:10:39Z</time>
      </trkpt>
      <trkpt lat="46.53858" lon="5.79454">
        <ele>731</ele>
        <time>2022-05-21T14:10:43Z</time>
      </trkpt>
      <trkpt lat="46.53831" lon="5.7945">
        <ele>730.6</ele>
        <time>2022-05-21T14:10:47Z</time>
      </trkpt>
      <trkpt lat="46.53795" lon="5.79436">
        <ele>730.2</ele>
        <time>2022-05-21T14:10:52Z</time>
      </trkpt>
      <trkpt lat="46.53772" lon="5.79427">
        <ele>730</ele>
        <time>2022-05-21T14:10:55Z</time>
      </trkpt>
      <trkpt lat="46.53744" lon="5.79417">
        <ele>729.8</ele>
        <time>2022-05-21T14:10:59Z</time>
      </trkpt>
      <trkpt lat="46.53714" lon="5.79404">
        <ele>729.8</ele>
        <time>2022-05-21T14:11:04Z</time>
      </trkpt>
      <trkpt lat="46.53708" lon="5.79403">
        <ele>730.2</ele>
        <time>2022-05-21T14:11:05Z</time>
      </trkpt>
      <trkpt lat="46.53689" lon="5.79402">
        <ele>730.8</ele>
        <time>2022-05-21T14:11:08Z</time>
      </trkpt>
      <trkpt lat="46.53683" lon="5.79403">
        <ele>731</ele>
        <time>2022-05-21T14:11:09Z</time>
      </trkpt>
      <trkpt lat="46.5366" lon="5.79405">
        <ele>731.6</ele>
        <time>2022-05-21T14:11:13Z</time>
      </trkpt>
      <trkpt lat="46.53632" lon="5.7941">
        <ele>732</ele>
        <time>2022-05-21T14:11:18Z</time>
      </trkpt>
      <trkpt lat="46.53627" lon="5.7941">
        <ele>732.4</ele>
        <time>2022-05-21T14:11:19Z</time>
      </trkpt>
      <trkpt lat="46.53622" lon="5.7941">
        <ele>732.4</ele>
        <time>2022-05-21T14:11:20Z</time>
      </trkpt>
      <trkpt lat="46.53608" lon="5.79411">
        <ele>733.4</ele>
        <time>2022-05-21T14:11:23Z</time>
      </trkpt>
      <trkpt lat="46.53602" lon="5.79413">
        <ele>733.6</ele>
        <time>2022-05-21T14:11:24Z</time>
      </trkpt>
      <trkpt lat="46.53586" lon="5.79412">
        <ele>734.4</ele>
        <time>2022-05-21T14:11:27Z</time>
      </trkpt>
      <trkpt lat="46.53568" lon="5.79414">
        <ele>734.8</ele>
        <time>2022-05-21T14:11:30Z</time>
      </trkpt>
      <trkpt lat="46.5355" lon="5.79411">
        <ele>735.4</ele>
        <time>2022-05-21T14:11:33Z</time>
      </trkpt>
      <trkpt lat="46.53545" lon="5.79408">
        <ele>735.4</ele>
        <time>2022-05-21T14:11:34Z</time>
      </trkpt>
      <trkpt lat="46.53542" lon="5.79405">
        <ele>735.8</ele>
        <time>2022-05-21T14:11:35Z</time>
      </trkpt>
      <trkpt lat="46.53537" lon="5.79404">
        <ele>735.8</ele>
        <time>2022-05-21T14:11:36Z</time>
      </trkpt>
      <trkpt lat="46.53523" lon="5.79403">
        <ele>736.2</ele>
        <time>2022-05-21T14:11:39Z</time>
      </trkpt>
      <trkpt lat="46.53514" lon="5.794">
        <ele>736.8</ele>
        <time>2022-05-21T14:11:41Z</time>
      </trkpt>
      <trkpt lat="46.53509" lon="5.79398">
        <ele>737</ele>
        <time>2022-05-21T14:11:42Z</time>
      </trkpt>
      <trkpt lat="46.535" lon="5.79394">
        <ele>737.4</ele>
        <time>2022-05-21T14:11:44Z</time>
      </trkpt>
      <trkpt lat="46.53495" lon="5.79392">
        <ele>737.4</ele>
        <time>2022-05-21T14:11:45Z</time>
      </trkpt>
      <trkpt lat="46.53486" lon="5.79388">
        <ele>737.8</ele>
        <time>2022-05-21T14:11:47Z</time>
      </trkpt>
      <trkpt lat="46.53481" lon="5.79386">
        <ele>738</ele>
        <time>2022-05-21T14:11:48Z</time>
      </trkpt>
      <trkpt lat="46.53476" lon="5.79385">
        <ele>738.2</ele>
        <time>2022-05-21T14:11:49Z</time>
      </trkpt>
      <trkpt lat="46.53447" lon="5.79371">
        <ele>739.2</ele>
        <time>2022-05-21T14:11:55Z</time>
      </trkpt>
      <trkpt lat="46.53417" lon="5.79346">
        <ele>739.6</ele>
        <time>2022-05-21T14:12:02Z</time>
      </trkpt>
      <trkpt lat="46.53391" lon="5.79308">
        <ele>740.2</ele>
        <time>2022-05-21T14:12:09Z</time>
      </trkpt>
      <trkpt lat="46.53388" lon="5.79302">
        <ele>740.4</ele>
        <time>2022-05-21T14:12:10Z</time>
      </trkpt>
      <trkpt lat="46.53378" lon="5.79284">
        <ele>740.8</ele>
        <time>2022-05-21T14:12:13Z</time>
      </trkpt>
      <trkpt lat="46.53363" lon="5.79262">
        <ele>741</ele>
        <time>2022-05-21T14:12:17Z</time>
      </trkpt>
      <trkpt lat="46.53359" lon="5.79258">
        <ele>741</ele>
        <time>2022-05-21T14:12:18Z</time>
      </trkpt>
      <trkpt lat="46.53331" lon="5.79235">
        <ele>742</ele>
        <time>2022-05-21T14:12:24Z</time>
      </trkpt>
      <trkpt lat="46.53322" lon="5.79228">
        <ele>742.2</ele>
        <time>2022-05-21T14:12:26Z</time>
      </trkpt>
      <trkpt lat="46.53288" lon="5.79204">
        <ele>743</ele>
        <time>2022-05-21T14:12:33Z</time>
      </trkpt>
      <trkpt lat="46.53284" lon="5.792">
        <ele>743.2</ele>
        <time>2022-05-21T14:12:34Z</time>
      </trkpt>
      <trkpt lat="46.53244" lon="5.79158">
        <ele>743.6</ele>
        <time>2022-05-21T14:12:43Z</time>
      </trkpt>
      <trkpt lat="46.5323" lon="5.79145">
        <ele>744.2</ele>
        <time>2022-05-21T14:12:46Z</time>
      </trkpt>
      <trkpt lat="46.53209" lon="5.79131">
        <ele>744.4</ele>
        <time>2022-05-21T14:12:50Z</time>
      </trkpt>
      <trkpt lat="46.53169" lon="5.79108">
        <ele>745.4</ele>
        <time>2022-05-21T14:12:58Z</time>
      </trkpt>
      <trkpt lat="46.53164" lon="5.79106">
        <ele>745.4</ele>
        <time>2022-05-21T14:12:59Z</time>
      </trkpt>
      <trkpt lat="46.53133" lon="5.79092">
        <ele>746.4</ele>
        <time>2022-05-21T14:13:05Z</time>
      </trkpt>
      <trkpt lat="46.53102" lon="5.79076">
        <ele>746.8</ele>
        <time>2022-05-21T14:13:11Z</time>
      </trkpt>
      <trkpt lat="46.53058" lon="5.79059">
        <ele>747</ele>
        <time>2022-05-21T14:13:19Z</time>
      </trkpt>
      <trkpt lat="46.53004" lon="5.79047">
        <ele>747</ele>
        <time>2022-05-21T14:13:28Z</time>
      </trkpt>
      <trkpt lat="46.52971" lon="5.79048">
        <ele>746.6</ele>
        <time>2022-05-21T14:13:33Z</time>
      </trkpt>
      <trkpt lat="46.52958" lon="5.79054">
        <ele>746.4</ele>
        <time>2022-05-21T14:13:35Z</time>
      </trkpt>
      <trkpt lat="46.52947" lon="5.79063">
        <ele>746.4</ele>
        <time>2022-05-21T14:13:37Z</time>
      </trkpt>
      <trkpt lat="46.52923" lon="5.79091">
        <ele>746.4</ele>
        <time>2022-05-21T14:13:42Z</time>
      </trkpt>
      <trkpt lat="46.52905" lon="5.79108">
        <ele>747.2</ele>
        <time>2022-05-21T14:13:46Z</time>
      </trkpt>
      <trkpt lat="46.529" lon="5.79111">
        <ele>747.4</ele>
        <time>2022-05-21T14:13:47Z</time>
      </trkpt>
      <trkpt lat="46.52879" lon="5.79121">
        <ele>748.6</ele>
        <time>2022-05-21T14:13:52Z</time>
      </trkpt>
      <trkpt lat="46.52871" lon="5.79124">
        <ele>749.2</ele>
        <time>2022-05-21T14:13:54Z</time>
      </trkpt>
      <trkpt lat="46.52863" lon="5.79127">
        <ele>749.6</ele>
        <time>2022-05-21T14:13:56Z</time>
      </trkpt>
      <trkpt lat="46.52842" lon="5.79129">
        <ele>750.2</ele>
        <time>2022-05-21T14:14:01Z</time>
      </trkpt>
      <trkpt lat="46.5283" lon="5.79127">
        <ele>750.8</ele>
        <time>2022-05-21T14:14:04Z</time>
      </trkpt>
      <trkpt lat="46.52822" lon="5.79125">
        <ele>751.4</ele>
        <time>2022-05-21T14:14:06Z</time>
      </trkpt>
      <trkpt lat="46.52814" lon="5.79123">
        <ele>751.8</ele>
        <time>2022-05-21T14:14:08Z</time>
      </trkpt>
      <trkpt lat="46.5281" lon="5.79122">
        <ele>751.8</ele>
        <time>2022-05-21T14:14:09Z</time>
      </trkpt>
      <trkpt lat="46.52794" lon="5.79119">
        <ele>753</ele>
        <time>2022-05-21T14:14:13Z</time>
      </trkpt>
      <trkpt lat="46.52782" lon="5.79119">
        <ele>753.4</ele>
        <time>2022-05-21T14:14:16Z</time>
      </trkpt>
      <trkpt lat="46.5277" lon="5.79122">
        <ele>754</ele>
        <time>2022-05-21T14:14:19Z</time>
      </trkpt>
      <trkpt lat="46.52759" lon="5.79127">
        <ele>754.8</ele>
        <time>2022-05-21T14:14:22Z</time>
      </trkpt>
      <trkpt lat="46.52752" lon="5.79133">
        <ele>755.2</ele>
        <time>2022-05-21T14:14:24Z</time>
      </trkpt>
      <trkpt lat="46.52742" lon="5.7915">
        <ele>755.8</ele>
        <time>2022-05-21T14:14:28Z</time>
      </trkpt>
      <trkpt lat="46.52736" lon="5.79165">
        <ele>756.2</ele>
        <time>2022-05-21T14:14:31Z</time>
      </trkpt>
      <trkpt lat="46.52732" lon="5.79182">
        <ele>756.6</ele>
        <time>2022-05-21T14:14:34Z</time>
      </trkpt>
      <trkpt lat="46.52728" lon="5.79199">
        <ele>757</ele>
        <time>2022-05-21T14:14:37Z</time>
      </trkpt>
      <trkpt lat="46.52725" lon="5.7921">
        <ele>757.4</ele>
        <time>2022-05-21T14:14:39Z</time>
      </trkpt>
      <trkpt lat="46.52724" lon="5.79216">
        <ele>757.4</ele>
        <time>2022-05-21T14:14:40Z</time>
      </trkpt>
      <trkpt lat="46.5272" lon="5.79232">
        <ele>758.2</ele>
        <time>2022-05-21T14:14:43Z</time>
      </trkpt>
      <trkpt lat="46.52717" lon="5.79243">
        <ele>758.6</ele>
        <time>2022-05-21T14:14:45Z</time>
      </trkpt>
      <trkpt lat="46.52716" lon="5.79249">
        <ele>758.6</ele>
        <time>2022-05-21T14:14:46Z</time>
      </trkpt>
      <trkpt lat="46.52712" lon="5.79262">
        <ele>759.2</ele>
        <time>2022-05-21T14:14:48Z</time>
      </trkpt>
      <trkpt lat="46.52706" lon="5.79274">
        <ele>759.4</ele>
        <time>2022-05-21T14:14:50Z</time>
      </trkpt>
      <trkpt lat="46.52703" lon="5.79281">
        <ele>759.6</ele>
        <time>2022-05-21T14:14:51Z</time>
      </trkpt>
      <trkpt lat="46.52699" lon="5.79287">
        <ele>759.6</ele>
        <time>2022-05-21T14:14:52Z</time>
      </trkpt>
      <trkpt lat="46.52697" lon="5.79294">
        <ele>759.6</ele>
        <time>2022-05-21T14:14:53Z</time>
      </trkpt>
      <trkpt lat="46.52691" lon="5.79308">
        <ele>759.4</ele>
        <time>2022-05-21T14:14:55Z</time>
      </trkpt>
      <trkpt lat="46.52667" lon="5.79359">
        <ele>759</ele>
        <time>2022-05-21T14:15:02Z</time>
      </trkpt>
      <trkpt lat="46.52659" lon="5.79388">
        <ele>759</ele>
        <time>2022-05-21T14:15:06Z</time>
      </trkpt>
      <trkpt lat="46.52657" lon="5.79403">
        <ele>759.2</ele>
        <time>2022-05-21T14:15:08Z</time>
      </trkpt>
      <trkpt lat="46.5266" lon="5.79439">
        <ele>760.2</ele>
        <time>2022-05-21T14:15:13Z</time>
      </trkpt>
      <trkpt lat="46.52661" lon="5.79462">
        <ele>761</ele>
        <time>2022-05-21T14:15:16Z</time>
      </trkpt>
      <trkpt lat="46.5266" lon="5.79482">
        <ele>761.8</ele>
        <time>2022-05-21T14:15:19Z</time>
      </trkpt>
      <trkpt lat="46.52658" lon="5.79488">
        <ele>762.4</ele>
        <time>2022-05-21T14:15:20Z</time>
      </trkpt>
      <trkpt lat="46.5265" lon="5.79513">
        <ele>763</ele>
        <time>2022-05-21T14:15:24Z</time>
      </trkpt>
      <trkpt lat="46.52645" lon="5.79524">
        <ele>763.4</ele>
        <time>2022-05-21T14:15:26Z</time>
      </trkpt>
      <trkpt lat="46.52643" lon="5.7953">
        <ele>763.8</ele>
        <time>2022-05-21T14:15:27Z</time>
      </trkpt>
      <trkpt lat="46.52635" lon="5.79541">
        <ele>764.6</ele>
        <time>2022-05-21T14:15:30Z</time>
      </trkpt>
      <trkpt lat="46.52628" lon="5.79546">
        <ele>765.2</ele>
        <time>2022-05-21T14:15:32Z</time>
      </trkpt>
      <trkpt lat="46.52621" lon="5.7955">
        <ele>765.8</ele>
        <time>2022-05-21T14:15:34Z</time>
      </trkpt>
      <trkpt lat="46.52603" lon="5.79562">
        <ele>767.2</ele>
        <time>2022-05-21T14:15:39Z</time>
      </trkpt>
      <trkpt lat="46.52593" lon="5.79571">
        <ele>767.6</ele>
        <time>2022-05-21T14:15:42Z</time>
      </trkpt>
      <trkpt lat="46.52586" lon="5.79578">
        <ele>768.2</ele>
        <time>2022-05-21T14:15:44Z</time>
      </trkpt>
      <trkpt lat="46.52568" lon="5.79598">
        <ele>769.2</ele>
        <time>2022-05-21T14:15:50Z</time>
      </trkpt>
      <trkpt lat="46.52565" lon="5.79601">
        <ele>769.2</ele>
        <time>2022-05-21T14:15:51Z</time>
      </trkpt>
      <trkpt lat="46.5255" lon="5.79621">
        <ele>770.4</ele>
        <time>2022-05-21T14:15:57Z</time>
      </trkpt>
      <trkpt lat="46.52539" lon="5.79634">
        <ele>771</ele>
        <time>2022-05-21T14:16:01Z</time>
      </trkpt>
      <trkpt lat="46.52529" lon="5.79642">
        <ele>771.6</ele>
        <time>2022-05-21T14:16:04Z</time>
      </trkpt>
      <trkpt lat="46.52518" lon="5.79645">
        <ele>772.2</ele>
        <time>2022-05-21T14:16:07Z</time>
      </trkpt>
      <trkpt lat="46.52511" lon="5.79644">
        <ele>772.6</ele>
        <time>2022-05-21T14:16:09Z</time>
      </trkpt>
      <trkpt lat="46.52502" lon="5.79637">
        <ele>773</ele>
        <time>2022-05-21T14:16:12Z</time>
      </trkpt>
      <trkpt lat="46.52494" lon="5.79628">
        <ele>773.6</ele>
        <time>2022-05-21T14:16:15Z</time>
      </trkpt>
      <trkpt lat="46.52482" lon="5.79617">
        <ele>774.4</ele>
        <time>2022-05-21T14:16:19Z</time>
      </trkpt>
      <trkpt lat="46.52479" lon="5.79614">
        <ele>774.6</ele>
        <time>2022-05-21T14:16:20Z</time>
      </trkpt>
      <trkpt lat="46.52463" lon="5.79601">
        <ele>775.8</ele>
        <time>2022-05-21T14:16:25Z</time>
      </trkpt>
      <trkpt lat="46.52456" lon="5.79595">
        <ele>776.4</ele>
        <time>2022-05-21T14:16:27Z</time>
      </trkpt>
      <trkpt lat="46.52446" lon="5.79587">
        <ele>777</ele>
        <time>2022-05-21T14:16:30Z</time>
      </trkpt>
      <trkpt lat="46.52433" lon="5.79576">
        <ele>778.2</ele>
        <time>2022-05-21T14:16:34Z</time>
      </trkpt>
      <trkpt lat="46.52419" lon="5.79563">
        <ele>779</ele>
        <time>2022-05-21T14:16:39Z</time>
      </trkpt>
      <trkpt lat="46.52412" lon="5.79557">
        <ele>779.4</ele>
        <time>2022-05-21T14:16:41Z</time>
      </trkpt>
      <trkpt lat="46.52396" lon="5.79545">
        <ele>780.6</ele>
        <time>2022-05-21T14:16:46Z</time>
      </trkpt>
      <trkpt lat="46.52393" lon="5.79543">
        <ele>780.6</ele>
        <time>2022-05-21T14:16:47Z</time>
      </trkpt>
      <trkpt lat="46.52376" lon="5.79537">
        <ele>781.6</ele>
        <time>2022-05-21T14:16:52Z</time>
      </trkpt>
      <trkpt lat="46.52372" lon="5.79536">
        <ele>781.8</ele>
        <time>2022-05-21T14:16:53Z</time>
      </trkpt>
      <trkpt lat="46.52361" lon="5.79536">
        <ele>782.6</ele>
        <time>2022-05-21T14:16:56Z</time>
      </trkpt>
      <trkpt lat="46.5234" lon="5.79538">
        <ele>783.4</ele>
        <time>2022-05-21T14:17:01Z</time>
      </trkpt>
      <trkpt lat="46.52329" lon="5.79538">
        <ele>783.6</ele>
        <time>2022-05-21T14:17:04Z</time>
      </trkpt>
      <trkpt lat="46.52315" lon="5.79535">
        <ele>784.4</ele>
        <time>2022-05-21T14:17:08Z</time>
      </trkpt>
      <trkpt lat="46.52311" lon="5.79534">
        <ele>785</ele>
        <time>2022-05-21T14:17:09Z</time>
      </trkpt>
      <trkpt lat="46.523" lon="5.79527">
        <ele>786.4</ele>
        <time>2022-05-21T14:17:12Z</time>
      </trkpt>
      <trkpt lat="46.52294" lon="5.7952">
        <ele>786.8</ele>
        <time>2022-05-21T14:17:14Z</time>
      </trkpt>
      <trkpt lat="46.52292" lon="5.79516">
        <ele>786.8</ele>
        <time>2022-05-21T14:17:15Z</time>
      </trkpt>
      <trkpt lat="46.52278" lon="5.79499">
        <ele>787.4</ele>
        <time>2022-05-21T14:17:19Z</time>
      </trkpt>
      <trkpt lat="46.5227" lon="5.79491">
        <ele>787.8</ele>
        <time>2022-05-21T14:17:21Z</time>
      </trkpt>
      <trkpt lat="46.52261" lon="5.79483">
        <ele>788</ele>
        <time>2022-05-21T14:17:23Z</time>
      </trkpt>
      <trkpt lat="46.52254" lon="5.79477">
        <ele>788.2</ele>
        <time>2022-05-21T14:17:25Z</time>
      </trkpt>
      <trkpt lat="46.52246" lon="5.7947">
        <ele>788.6</ele>
        <time>2022-05-21T14:17:27Z</time>
      </trkpt>
      <trkpt lat="46.52236" lon="5.79459">
        <ele>789</ele>
        <time>2022-05-21T14:17:30Z</time>
      </trkpt>
      <trkpt lat="46.52222" lon="5.7944">
        <ele>789.4</ele>
        <time>2022-05-21T14:17:34Z</time>
      </trkpt>
      <trkpt lat="46.52218" lon="5.79434">
        <ele>789.6</ele>
        <time>2022-05-21T14:17:35Z</time>
      </trkpt>
      <trkpt lat="46.52205" lon="5.79403">
        <ele>789.8</ele>
        <time>2022-05-21T14:17:40Z</time>
      </trkpt>
      <trkpt lat="46.52181" lon="5.79346">
        <ele>790.4</ele>
        <time>2022-05-21T14:17:49Z</time>
      </trkpt>
      <trkpt lat="46.52174" lon="5.79335">
        <ele>790.4</ele>
        <time>2022-05-21T14:17:51Z</time>
      </trkpt>
      <trkpt lat="46.52166" lon="5.79327">
        <ele>790.4</ele>
        <time>2022-05-21T14:17:53Z</time>
      </trkpt>
      <trkpt lat="46.52161" lon="5.79323">
        <ele>790.8</ele>
        <time>2022-05-21T14:17:54Z</time>
      </trkpt>
      <trkpt lat="46.52157" lon="5.7932">
        <ele>791</ele>
        <time>2022-05-21T14:17:55Z</time>
      </trkpt>
      <trkpt lat="46.5213" lon="5.79309">
        <ele>791.4</ele>
        <time>2022-05-21T14:18:00Z</time>
      </trkpt>
      <trkpt lat="46.52098" lon="5.79293">
        <ele>791.6</ele>
        <time>2022-05-21T14:18:06Z</time>
      </trkpt>
      <trkpt lat="46.52082" lon="5.79283">
        <ele>791.8</ele>
        <time>2022-05-21T14:18:09Z</time>
      </trkpt>
      <trkpt lat="46.52078" lon="5.7928">
        <ele>792</ele>
        <time>2022-05-21T14:18:10Z</time>
      </trkpt>
      <trkpt lat="46.52069" lon="5.79272">
        <ele>792.2</ele>
        <time>2022-05-21T14:18:12Z</time>
      </trkpt>
      <trkpt lat="46.52054" lon="5.79255">
        <ele>792.8</ele>
        <time>2022-05-21T14:18:16Z</time>
      </trkpt>
      <trkpt lat="46.52048" lon="5.79245">
        <ele>793.2</ele>
        <time>2022-05-21T14:18:18Z</time>
      </trkpt>
      <trkpt lat="46.52038" lon="5.79231">
        <ele>793.8</ele>
        <time>2022-05-21T14:18:21Z</time>
      </trkpt>
      <trkpt lat="46.5203" lon="5.79221">
        <ele>794</ele>
        <time>2022-05-21T14:18:23Z</time>
      </trkpt>
      <trkpt lat="46.52026" lon="5.79217">
        <ele>794.2</ele>
        <time>2022-05-21T14:18:24Z</time>
      </trkpt>
      <trkpt lat="46.52018" lon="5.79209">
        <ele>794.8</ele>
        <time>2022-05-21T14:18:26Z</time>
      </trkpt>
      <trkpt lat="46.52007" lon="5.79196">
        <ele>796</ele>
        <time>2022-05-21T14:18:29Z</time>
      </trkpt>
      <trkpt lat="46.52003" lon="5.79193">
        <ele>796.2</ele>
        <time>2022-05-21T14:18:30Z</time>
      </trkpt>
      <trkpt lat="46.52" lon="5.7919">
        <ele>796.6</ele>
        <time>2022-05-21T14:18:31Z</time>
      </trkpt>
      <trkpt lat="46.5199" lon="5.79182">
        <ele>797.2</ele>
        <time>2022-05-21T14:18:34Z</time>
      </trkpt>
      <trkpt lat="46.51973" lon="5.79172">
        <ele>797.6</ele>
        <time>2022-05-21T14:18:38Z</time>
      </trkpt>
      <trkpt lat="46.51965" lon="5.79167">
        <ele>798.2</ele>
        <time>2022-05-21T14:18:40Z</time>
      </trkpt>
      <trkpt lat="46.51951" lon="5.79157">
        <ele>798.8</ele>
        <time>2022-05-21T14:18:44Z</time>
      </trkpt>
      <trkpt lat="46.51941" lon="5.79145">
        <ele>799.2</ele>
        <time>2022-05-21T14:18:47Z</time>
      </trkpt>
      <trkpt lat="46.51932" lon="5.79132">
        <ele>799.4</ele>
        <time>2022-05-21T14:18:50Z</time>
      </trkpt>
      <trkpt lat="46.51913" lon="5.79105">
        <ele>800.4</ele>
        <time>2022-05-21T14:18:57Z</time>
      </trkpt>
      <trkpt lat="46.51906" lon="5.79092">
        <ele>800.8</ele>
        <time>2022-05-21T14:19:00Z</time>
      </trkpt>
      <trkpt lat="46.51896" lon="5.79081">
        <ele>801.4</ele>
        <time>2022-05-21T14:19:03Z</time>
      </trkpt>
      <trkpt lat="46.51885" lon="5.79065">
        <ele>802</ele>
        <time>2022-05-21T14:19:07Z</time>
      </trkpt>
      <trkpt lat="46.51877" lon="5.79054">
        <ele>802.4</ele>
        <time>2022-05-21T14:19:10Z</time>
      </trkpt>
      <trkpt lat="46.51864" lon="5.79034">
        <ele>803.2</ele>
        <time>2022-05-21T14:19:15Z</time>
      </trkpt>
      <trkpt lat="46.51857" lon="5.79027">
        <ele>803.4</ele>
        <time>2022-05-21T14:19:17Z</time>
      </trkpt>
      <trkpt lat="46.51845" lon="5.79012">
        <ele>804.6</ele>
        <time>2022-05-21T14:19:21Z</time>
      </trkpt>
      <trkpt lat="46.51835" lon="5.79">
        <ele>805.6</ele>
        <time>2022-05-21T14:19:24Z</time>
      </trkpt>
      <trkpt lat="46.51832" lon="5.78996">
        <ele>805.8</ele>
        <time>2022-05-21T14:19:25Z</time>
      </trkpt>
      <trkpt lat="46.51816" lon="5.78975">
        <ele>806.2</ele>
        <time>2022-05-21T14:19:30Z</time>
      </trkpt>
      <trkpt lat="46.51809" lon="5.78968">
        <ele>806.4</ele>
        <time>2022-05-21T14:19:32Z</time>
      </trkpt>
      <trkpt lat="46.51803" lon="5.78961">
        <ele>806.8</ele>
        <time>2022-05-21T14:19:34Z</time>
      </trkpt>
      <trkpt lat="46.51789" lon="5.78948">
        <ele>807.4</ele>
        <time>2022-05-21T14:19:38Z</time>
      </trkpt>
      <trkpt lat="46.51785" lon="5.78945">
        <ele>807.6</ele>
        <time>2022-05-21T14:19:39Z</time>
      </trkpt>
      <trkpt lat="46.51782" lon="5.78941">
        <ele>807.8</ele>
        <time>2022-05-21T14:19:40Z</time>
      </trkpt>
      <trkpt lat="46.51771" lon="5.78929">
        <ele>808.2</ele>
        <time>2022-05-21T14:19:43Z</time>
      </trkpt>
      <trkpt lat="46.51764" lon="5.78921">
        <ele>808.4</ele>
        <time>2022-05-21T14:19:45Z</time>
      </trkpt>
      <trkpt lat="46.51759" lon="5.78918">
        <ele>808.6</ele>
        <time>2022-05-21T14:19:46Z</time>
      </trkpt>
      <trkpt lat="46.5175" lon="5.78911">
        <ele>808.8</ele>
        <time>2022-05-21T14:19:48Z</time>
      </trkpt>
      <trkpt lat="46.51728" lon="5.78892">
        <ele>809.4</ele>
        <time>2022-05-21T14:19:53Z</time>
      </trkpt>
      <trkpt lat="46.51714" lon="5.78882">
        <ele>809.4</ele>
        <time>2022-05-21T14:19:56Z</time>
      </trkpt>
      <trkpt lat="46.51691" lon="5.78867">
        <ele>809.4</ele>
        <time>2022-05-21T14:20:01Z</time>
      </trkpt>
      <trkpt lat="46.51682" lon="5.78862">
        <ele>809.8</ele>
        <time>2022-05-21T14:20:03Z</time>
      </trkpt>
      <trkpt lat="46.51668" lon="5.78857">
        <ele>810</ele>
        <time>2022-05-21T14:20:06Z</time>
      </trkpt>
      <trkpt lat="46.51633" lon="5.78834">
        <ele>810.2</ele>
        <time>2022-05-21T14:20:13Z</time>
      </trkpt>
      <trkpt lat="46.51625" lon="5.78826">
        <ele>810.4</ele>
        <time>2022-05-21T14:20:15Z</time>
      </trkpt>
      <trkpt lat="46.51617" lon="5.78817">
        <ele>810.4</ele>
        <time>2022-05-21T14:20:17Z</time>
      </trkpt>
      <trkpt lat="46.51602" lon="5.78806">
        <ele>810.8</ele>
        <time>2022-05-21T14:20:20Z</time>
      </trkpt>
      <trkpt lat="46.51594" lon="5.78799">
        <ele>810.8</ele>
        <time>2022-05-21T14:20:22Z</time>
      </trkpt>
      <trkpt lat="46.51576" lon="5.78786">
        <ele>810.8</ele>
        <time>2022-05-21T14:20:25Z</time>
      </trkpt>
      <trkpt lat="46.51539" lon="5.78761">
        <ele>810.8</ele>
        <time>2022-05-21T14:20:31Z</time>
      </trkpt>
      <trkpt lat="46.51503" lon="5.78749">
        <ele>810.2</ele>
        <time>2022-05-21T14:20:36Z</time>
      </trkpt>
      <trkpt lat="46.51479" lon="5.78748">
        <ele>809.4</ele>
        <time>2022-05-21T14:20:39Z</time>
      </trkpt>
      <trkpt lat="46.51462" lon="5.7875">
        <ele>809</ele>
        <time>2022-05-21T14:20:41Z</time>
      </trkpt>
      <trkpt lat="46.51436" lon="5.78757">
        <ele>808.4</ele>
        <time>2022-05-21T14:20:44Z</time>
      </trkpt>
      <trkpt lat="46.51402" lon="5.78767">
        <ele>807</ele>
        <time>2022-05-21T14:20:48Z</time>
      </trkpt>
      <trkpt lat="46.51368" lon="5.78776">
        <ele>806</ele>
        <time>2022-05-21T14:20:52Z</time>
      </trkpt>
      <trkpt lat="46.5132" lon="5.78789">
        <ele>805.4</ele>
        <time>2022-05-21T14:20:58Z</time>
      </trkpt>
      <trkpt lat="46.51276" lon="5.78802">
        <ele>806.2</ele>
        <time>2022-05-21T14:21:04Z</time>
      </trkpt>
      <trkpt lat="46.51262" lon="5.78807">
        <ele>806.6</ele>
        <time>2022-05-21T14:21:06Z</time>
      </trkpt>
      <trkpt lat="46.51242" lon="5.78814">
        <ele>806.8</ele>
        <time>2022-05-21T14:21:09Z</time>
      </trkpt>
      <trkpt lat="46.51229" lon="5.78822">
        <ele>807</ele>
        <time>2022-05-21T14:21:11Z</time>
      </trkpt>
      <trkpt lat="46.51223" lon="5.78827">
        <ele>807.6</ele>
        <time>2022-05-21T14:21:12Z</time>
      </trkpt>
      <trkpt lat="46.51212" lon="5.78838">
        <ele>808</ele>
        <time>2022-05-21T14:21:14Z</time>
      </trkpt>
      <trkpt lat="46.51207" lon="5.78845">
        <ele>808</ele>
        <time>2022-05-21T14:21:15Z</time>
      </trkpt>
      <trkpt lat="46.51202" lon="5.78853">
        <ele>808</ele>
        <time>2022-05-21T14:21:16Z</time>
      </trkpt>
      <trkpt lat="46.51182" lon="5.78893">
        <ele>807.8</ele>
        <time>2022-05-21T14:21:21Z</time>
      </trkpt>
      <trkpt lat="46.51151" lon="5.78956">
        <ele>808</ele>
        <time>2022-05-21T14:21:29Z</time>
      </trkpt>
      <trkpt lat="46.51147" lon="5.78964">
        <ele>808</ele>
        <time>2022-05-21T14:21:30Z</time>
      </trkpt>
      <trkpt lat="46.51116" lon="5.79025">
        <ele>808.4</ele>
        <time>2022-05-21T14:21:38Z</time>
      </trkpt>
      <trkpt lat="46.5108" lon="5.7909">
        <ele>809</ele>
        <time>2022-05-21T14:21:47Z</time>
      </trkpt>
      <trkpt lat="46.51076" lon="5.79097">
        <ele>809</ele>
        <time>2022-05-21T14:21:48Z</time>
      </trkpt>
      <trkpt lat="46.51048" lon="5.79125">
        <ele>809</ele>
        <time>2022-05-21T14:21:53Z</time>
      </trkpt>
      <trkpt lat="46.51004" lon="5.79161">
        <ele>809.8</ele>
        <time>2022-05-21T14:22:01Z</time>
      </trkpt>
      <trkpt lat="46.50993" lon="5.79169">
        <ele>810.2</ele>
        <time>2022-05-21T14:22:03Z</time>
      </trkpt>
      <trkpt lat="46.50961" lon="5.79197">
        <ele>811</ele>
        <time>2022-05-21T14:22:09Z</time>
      </trkpt>
      <trkpt lat="46.50951" lon="5.79208">
        <ele>811.2</ele>
        <time>2022-05-21T14:22:11Z</time>
      </trkpt>
      <trkpt lat="46.50946" lon="5.79214">
        <ele>811.6</ele>
        <time>2022-05-21T14:22:12Z</time>
      </trkpt>
      <trkpt lat="46.50938" lon="5.79228">
        <ele>812</ele>
        <time>2022-05-21T14:22:14Z</time>
      </trkpt>
      <trkpt lat="46.50928" lon="5.7925">
        <ele>812.6</ele>
        <time>2022-05-21T14:22:17Z</time>
      </trkpt>
      <trkpt lat="46.50909" lon="5.79288">
        <ele>813.4</ele>
        <time>2022-05-21T14:22:22Z</time>
      </trkpt>
      <trkpt lat="46.50894" lon="5.79305">
        <ele>813.4</ele>
        <time>2022-05-21T14:22:25Z</time>
      </trkpt>
      <trkpt lat="46.50883" lon="5.79313">
        <ele>813.4</ele>
        <time>2022-05-21T14:22:27Z</time>
      </trkpt>
      <trkpt lat="46.50864" lon="5.7932">
        <ele>813.4</ele>
        <time>2022-05-21T14:22:30Z</time>
      </trkpt>
      <trkpt lat="46.50852" lon="5.79325">
        <ele>813.4</ele>
        <time>2022-05-21T14:22:32Z</time>
      </trkpt>
      <trkpt lat="46.5081" lon="5.79338">
        <ele>813.2</ele>
        <time>2022-05-21T14:22:39Z</time>
      </trkpt>
      <trkpt lat="46.50762" lon="5.79352">
        <ele>813.8</ele>
        <time>2022-05-21T14:22:47Z</time>
      </trkpt>
      <trkpt lat="46.5071" lon="5.79368">
        <ele>813</ele>
        <time>2022-05-21T14:22:55Z</time>
      </trkpt>
      <trkpt lat="46.50697" lon="5.79372">
        <ele>812.6</ele>
        <time>2022-05-21T14:22:57Z</time>
      </trkpt>
      <trkpt lat="46.50671" lon="5.79375">
        <ele>812.4</ele>
        <time>2022-05-21T14:23:01Z</time>
      </trkpt>
      <trkpt lat="46.50628" lon="5.79369">
        <ele>812.6</ele>
        <time>2022-05-21T14:23:08Z</time>
      </trkpt>
      <trkpt lat="46.50612" lon="5.79366">
        <ele>812.6</ele>
        <time>2022-05-21T14:23:11Z</time>
      </trkpt>
      <trkpt lat="46.50608" lon="5.79367">
        <ele>812.6</ele>
        <time>2022-05-21T14:23:12Z</time>
      </trkpt>
      <trkpt lat="46.50602" lon="5.79367">
        <ele>812.4</ele>
        <time>2022-05-21T14:23:15Z</time>
      </trkpt>
      <trkpt lat="46.50602" lon="5.79367">
        <ele>812.4</ele>
        <time>2022-05-21T14:23:17Z</time>
      </trkpt>
      <trkpt lat="46.50604" lon="5.79362">
        <ele>811.6</ele>
        <time>2022-05-21T14:24:11Z</time>
      </trkpt>
      <trkpt lat="46.50604" lon="5.79359">
        <ele>811.6</ele>
        <time>2022-05-21T14:24:12Z</time>
      </trkpt>
      <trkpt lat="46.50611" lon="5.79339">
        <ele>812</ele>
        <time>2022-05-21T14:24:17Z</time>
      </trkpt>
      <trkpt lat="46.5062" lon="5.79322">
        <ele>812.6</ele>
        <time>2022-05-21T14:24:21Z</time>
      </trkpt>
      <trkpt lat="46.50623" lon="5.79317">
        <ele>813</ele>
        <time>2022-05-21T14:24:22Z</time>
      </trkpt>
      <trkpt lat="46.50627" lon="5.79312">
        <ele>813.2</ele>
        <time>2022-05-21T14:24:23Z</time>
      </trkpt>
      <trkpt lat="46.50636" lon="5.79305">
        <ele>813.4</ele>
        <time>2022-05-21T14:24:25Z</time>
      </trkpt>
      <trkpt lat="46.50643" lon="5.79302">
        <ele>813.4</ele>
        <time>2022-05-21T14:24:26Z</time>
      </trkpt>
      <trkpt lat="46.50651" lon="5.79299">
        <ele>813.4</ele>
        <time>2022-05-21T14:24:27Z</time>
      </trkpt>
      <trkpt lat="46.50663" lon="5.79286">
        <ele>813.4</ele>
        <time>2022-05-21T14:24:29Z</time>
      </trkpt>
      <trkpt lat="46.50682" lon="5.79249">
        <ele>812</ele>
        <time>2022-05-21T14:24:33Z</time>
      </trkpt>
      <trkpt lat="46.50686" lon="5.79239">
        <ele>811.2</ele>
        <time>2022-05-21T14:24:34Z</time>
      </trkpt>
      <trkpt lat="46.5069" lon="5.79229">
        <ele>810.8</ele>
        <time>2022-05-21T14:24:35Z</time>
      </trkpt>
      <trkpt lat="46.50692" lon="5.79204">
        <ele>809.6</ele>
        <time>2022-05-21T14:24:37Z</time>
      </trkpt>
      <trkpt lat="46.50691" lon="5.79177">
        <ele>808.6</ele>
        <time>2022-05-21T14:24:39Z</time>
      </trkpt>
      <trkpt lat="46.50693" lon="5.79164">
        <ele>808.2</ele>
        <time>2022-05-21T14:24:40Z</time>
      </trkpt>
      <trkpt lat="46.50697" lon="5.79151">
        <ele>807.6</ele>
        <time>2022-05-21T14:24:41Z</time>
      </trkpt>
      <trkpt lat="46.50708" lon="5.79129">
        <ele>806.4</ele>
        <time>2022-05-21T14:24:43Z</time>
      </trkpt>
      <trkpt lat="46.50713" lon="5.79118">
        <ele>805.4</ele>
        <time>2022-05-21T14:24:44Z</time>
      </trkpt>
      <trkpt lat="46.50718" lon="5.79106">
        <ele>804.8</ele>
        <time>2022-05-21T14:24:45Z</time>
      </trkpt>
      <trkpt lat="46.5072" lon="5.79092">
        <ele>804.4</ele>
        <time>2022-05-21T14:24:46Z</time>
      </trkpt>
      <trkpt lat="46.50721" lon="5.79079">
        <ele>804.2</ele>
        <time>2022-05-21T14:24:47Z</time>
      </trkpt>
      <trkpt lat="46.50718" lon="5.79067">
        <ele>803.8</ele>
        <time>2022-05-21T14:24:48Z</time>
      </trkpt>
      <trkpt lat="46.50713" lon="5.79056">
        <ele>803.4</ele>
        <time>2022-05-21T14:24:49Z</time>
      </trkpt>
      <trkpt lat="46.50706" lon="5.79047">
        <ele>803.2</ele>
        <time>2022-05-21T14:24:50Z</time>
      </trkpt>
      <trkpt lat="46.50699" lon="5.7904">
        <ele>803</ele>
        <time>2022-05-21T14:24:51Z</time>
      </trkpt>
      <trkpt lat="46.50685" lon="5.79024">
        <ele>803</ele>
        <time>2022-05-21T14:24:53Z</time>
      </trkpt>
      <trkpt lat="46.50676" lon="5.79006">
        <ele>803</ele>
        <time>2022-05-21T14:24:55Z</time>
      </trkpt>
      <trkpt lat="46.50667" lon="5.78963">
        <ele>803.2</ele>
        <time>2022-05-21T14:24:59Z</time>
      </trkpt>
      <trkpt lat="46.5065" lon="5.78888">
        <ele>803.2</ele>
        <time>2022-05-21T14:25:06Z</time>
      </trkpt>
      <trkpt lat="46.50644" lon="5.78868">
        <ele>802.8</ele>
        <time>2022-05-21T14:25:08Z</time>
      </trkpt>
      <trkpt lat="46.50628" lon="5.78817">
        <ele>802</ele>
        <time>2022-05-21T14:25:13Z</time>
      </trkpt>
      <trkpt lat="46.50617" lon="5.78789">
        <ele>801.4</ele>
        <time>2022-05-21T14:25:16Z</time>
      </trkpt>
      <trkpt lat="46.50604" lon="5.78762">
        <ele>801.2</ele>
        <time>2022-05-21T14:25:19Z</time>
      </trkpt>
      <trkpt lat="46.50593" lon="5.78747">
        <ele>800.8</ele>
        <time>2022-05-21T14:25:21Z</time>
      </trkpt>
      <trkpt lat="46.50564" lon="5.78714">
        <ele>799.6</ele>
        <time>2022-05-21T14:25:26Z</time>
      </trkpt>
      <trkpt lat="46.50552" lon="5.78702">
        <ele>799.2</ele>
        <time>2022-05-21T14:25:28Z</time>
      </trkpt>
      <trkpt lat="46.5054" lon="5.78689">
        <ele>798.4</ele>
        <time>2022-05-21T14:25:30Z</time>
      </trkpt>
      <trkpt lat="46.50528" lon="5.78676">
        <ele>797.2</ele>
        <time>2022-05-21T14:25:32Z</time>
      </trkpt>
      <trkpt lat="46.50499" lon="5.78643">
        <ele>796.4</ele>
        <time>2022-05-21T14:25:37Z</time>
      </trkpt>
      <trkpt lat="46.50453" lon="5.78602">
        <ele>796.4</ele>
        <time>2022-05-21T14:25:44Z</time>
      </trkpt>
      <trkpt lat="46.50418" lon="5.78571">
        <ele>796.2</ele>
        <time>2022-05-21T14:25:49Z</time>
      </trkpt>
      <trkpt lat="46.50404" lon="5.78558">
        <ele>796.2</ele>
        <time>2022-05-21T14:25:51Z</time>
      </trkpt>
      <trkpt lat="46.5039" lon="5.78547">
        <ele>796.2</ele>
        <time>2022-05-21T14:25:53Z</time>
      </trkpt>
      <trkpt lat="46.50375" lon="5.78541">
        <ele>796.4</ele>
        <time>2022-05-21T14:25:55Z</time>
      </trkpt>
      <trkpt lat="46.50338" lon="5.78533">
        <ele>797</ele>
        <time>2022-05-21T14:26:00Z</time>
      </trkpt>
      <trkpt lat="46.50279" lon="5.78513">
        <ele>796.8</ele>
        <time>2022-05-21T14:26:08Z</time>
      </trkpt>
      <trkpt lat="46.50224" lon="5.78483">
        <ele>796.8</ele>
        <time>2022-05-21T14:26:16Z</time>
      </trkpt>
      <trkpt lat="46.50218" lon="5.78479">
        <ele>797.2</ele>
        <time>2022-05-21T14:26:17Z</time>
      </trkpt>
      <trkpt lat="46.50212" lon="5.78476">
        <ele>797.2</ele>
        <time>2022-05-21T14:26:18Z</time>
      </trkpt>
      <trkpt lat="46.50187" lon="5.78461">
        <ele>798</ele>
        <time>2022-05-21T14:26:22Z</time>
      </trkpt>
      <trkpt lat="46.50176" lon="5.78452">
        <ele>798.2</ele>
        <time>2022-05-21T14:26:24Z</time>
      </trkpt>
      <trkpt lat="46.50166" lon="5.78441">
        <ele>798.6</ele>
        <time>2022-05-21T14:26:26Z</time>
      </trkpt>
      <trkpt lat="46.50161" lon="5.78434">
        <ele>798.8</ele>
        <time>2022-05-21T14:26:27Z</time>
      </trkpt>
      <trkpt lat="46.50142" lon="5.78394">
        <ele>799</ele>
        <time>2022-05-21T14:26:32Z</time>
      </trkpt>
      <trkpt lat="46.5014" lon="5.78386">
        <ele>799.2</ele>
        <time>2022-05-21T14:26:33Z</time>
      </trkpt>
      <trkpt lat="46.50138" lon="5.78377">
        <ele>799.4</ele>
        <time>2022-05-21T14:26:34Z</time>
      </trkpt>
      <trkpt lat="46.50137" lon="5.78359">
        <ele>799.8</ele>
        <time>2022-05-21T14:26:36Z</time>
      </trkpt>
      <trkpt lat="46.50138" lon="5.78349">
        <ele>799.8</ele>
        <time>2022-05-21T14:26:37Z</time>
      </trkpt>
      <trkpt lat="46.50149" lon="5.78293">
        <ele>800</ele>
        <time>2022-05-21T14:26:43Z</time>
      </trkpt>
      <trkpt lat="46.50154" lon="5.78264">
        <ele>799.8</ele>
        <time>2022-05-21T14:26:46Z</time>
      </trkpt>
      <trkpt lat="46.50152" lon="5.78245">
        <ele>799.8</ele>
        <time>2022-05-21T14:26:48Z</time>
      </trkpt>
      <trkpt lat="46.50146" lon="5.78228">
        <ele>799.6</ele>
        <time>2022-05-21T14:26:50Z</time>
      </trkpt>
      <trkpt lat="46.50137" lon="5.78213">
        <ele>799.4</ele>
        <time>2022-05-21T14:26:52Z</time>
      </trkpt>
      <trkpt lat="46.50131" lon="5.78206">
        <ele>799.4</ele>
        <time>2022-05-21T14:26:53Z</time>
      </trkpt>
      <trkpt lat="46.50112" lon="5.78188">
        <ele>799.2</ele>
        <time>2022-05-21T14:26:56Z</time>
      </trkpt>
      <trkpt lat="46.50084" lon="5.78163">
        <ele>798.2</ele>
        <time>2022-05-21T14:27:00Z</time>
      </trkpt>
      <trkpt lat="46.50068" lon="5.7815">
        <ele>797.4</ele>
        <time>2022-05-21T14:27:02Z</time>
      </trkpt>
      <trkpt lat="46.5006" lon="5.78143">
        <ele>797</ele>
        <time>2022-05-21T14:27:03Z</time>
      </trkpt>
      <trkpt lat="46.50014" lon="5.78104">
        <ele>796</ele>
        <time>2022-05-21T14:27:09Z</time>
      </trkpt>
      <trkpt lat="46.49999" lon="5.78091">
        <ele>795.8</ele>
        <time>2022-05-21T14:27:10Z</time>
      </trkpt>
      <trkpt lat="46.49948" lon="5.78047">
        <ele>795.6</ele>
        <time>2022-05-21T14:27:17Z</time>
      </trkpt>
      <trkpt lat="46.49927" lon="5.78028">
        <ele>795.2</ele>
        <time>2022-05-21T14:27:20Z</time>
      </trkpt>
      <trkpt lat="46.49881" lon="5.77987">
        <ele>795.2</ele>
        <time>2022-05-21T14:27:27Z</time>
      </trkpt>
      <trkpt lat="46.49845" lon="5.77955">
        <ele>795</ele>
        <time>2022-05-21T14:27:32Z</time>
      </trkpt>
      <trkpt lat="46.49836" lon="5.7795">
        <ele>794.8</ele>
        <time>2022-05-21T14:27:33Z</time>
      </trkpt>
      <trkpt lat="46.49827" lon="5.77945">
        <ele>794.6</ele>
        <time>2022-05-21T14:27:34Z</time>
      </trkpt>
      <trkpt lat="46.49808" lon="5.77939">
        <ele>794.2</ele>
        <time>2022-05-21T14:27:36Z</time>
      </trkpt>
      <trkpt lat="46.49789" lon="5.77932">
        <ele>793</ele>
        <time>2022-05-21T14:27:38Z</time>
      </trkpt>
      <trkpt lat="46.49779" lon="5.77927">
        <ele>792.8</ele>
        <time>2022-05-21T14:27:39Z</time>
      </trkpt>
      <trkpt lat="46.49769" lon="5.7792">
        <ele>792</ele>
        <time>2022-05-21T14:27:40Z</time>
      </trkpt>
      <trkpt lat="46.49761" lon="5.77912">
        <ele>791.6</ele>
        <time>2022-05-21T14:27:41Z</time>
      </trkpt>
      <trkpt lat="46.49753" lon="5.77903">
        <ele>790.4</ele>
        <time>2022-05-21T14:27:43Z</time>
      </trkpt>
      <trkpt lat="46.49736" lon="5.77885">
        <ele>790</ele>
        <time>2022-05-21T14:27:44Z</time>
      </trkpt>
      <trkpt lat="46.49736" lon="5.77885">
        <ele>789.2</ele>
        <time>2022-05-21T14:27:45Z</time>
      </trkpt>
      <trkpt lat="46.49708" lon="5.77859">
        <ele>788</ele>
        <time>2022-05-21T14:27:47Z</time>
      </trkpt>
      <trkpt lat="46.49687" lon="5.77839">
        <ele>786.8</ele>
        <time>2022-05-21T14:27:49Z</time>
      </trkpt>
      <trkpt lat="46.49679" lon="5.77833">
        <ele>786</ele>
        <time>2022-05-21T14:27:50Z</time>
      </trkpt>
      <trkpt lat="46.49657" lon="5.77824">
        <ele>784.8</ele>
        <time>2022-05-21T14:27:52Z</time>
      </trkpt>
      <trkpt lat="46.49646" lon="5.77822">
        <ele>784.4</ele>
        <time>2022-05-21T14:27:53Z</time>
      </trkpt>
      <trkpt lat="46.49635" lon="5.7782">
        <ele>783.8</ele>
        <time>2022-05-21T14:27:54Z</time>
      </trkpt>
      <trkpt lat="46.49624" lon="5.7782">
        <ele>782.8</ele>
        <time>2022-05-21T14:27:55Z</time>
      </trkpt>
      <trkpt lat="46.49601" lon="5.77818">
        <ele>781.4</ele>
        <time>2022-05-21T14:27:57Z</time>
      </trkpt>
      <trkpt lat="46.4959" lon="5.77816">
        <ele>781.2</ele>
        <time>2022-05-21T14:27:58Z</time>
      </trkpt>
      <trkpt lat="46.49555" lon="5.77814">
        <ele>779.6</ele>
        <time>2022-05-21T14:28:01Z</time>
      </trkpt>
      <trkpt lat="46.49544" lon="5.77814">
        <ele>778.8</ele>
        <time>2022-05-21T14:28:02Z</time>
      </trkpt>
      <trkpt lat="46.49533" lon="5.77815">
        <ele>778.4</ele>
        <time>2022-05-21T14:28:03Z</time>
      </trkpt>
      <trkpt lat="46.49511" lon="5.77814">
        <ele>777.8</ele>
        <time>2022-05-21T14:28:05Z</time>
      </trkpt>
      <trkpt lat="46.495" lon="5.77812">
        <ele>777.4</ele>
        <time>2022-05-21T14:28:06Z</time>
      </trkpt>
      <trkpt lat="46.4949" lon="5.77808">
        <ele>777.2</ele>
        <time>2022-05-21T14:28:07Z</time>
      </trkpt>
      <trkpt lat="46.49471" lon="5.77799">
        <ele>776.4</ele>
        <time>2022-05-21T14:28:09Z</time>
      </trkpt>
      <trkpt lat="46.49453" lon="5.7779">
        <ele>776</ele>
        <time>2022-05-21T14:28:11Z</time>
      </trkpt>
      <trkpt lat="46.49419" lon="5.77768">
        <ele>775.8</ele>
        <time>2022-05-21T14:28:15Z</time>
      </trkpt>
      <trkpt lat="46.4941" lon="5.77761">
        <ele>775.6</ele>
        <time>2022-05-21T14:28:16Z</time>
      </trkpt>
      <trkpt lat="46.49392" lon="5.77743">
        <ele>775.2</ele>
        <time>2022-05-21T14:28:18Z</time>
      </trkpt>
      <trkpt lat="46.49365" lon="5.77715">
        <ele>774.4</ele>
        <time>2022-05-21T14:28:21Z</time>
      </trkpt>
      <trkpt lat="46.49356" lon="5.77706">
        <ele>773.6</ele>
        <time>2022-05-21T14:28:22Z</time>
      </trkpt>
      <trkpt lat="46.49338" lon="5.77693">
        <ele>772.8</ele>
        <time>2022-05-21T14:28:24Z</time>
      </trkpt>
      <trkpt lat="46.4933" lon="5.77687">
        <ele>772.4</ele>
        <time>2022-05-21T14:28:25Z</time>
      </trkpt>
      <trkpt lat="46.49322" lon="5.77681">
        <ele>772.2</ele>
        <time>2022-05-21T14:28:26Z</time>
      </trkpt>
      <trkpt lat="46.49315" lon="5.77673">
        <ele>772</ele>
        <time>2022-05-21T14:28:27Z</time>
      </trkpt>
      <trkpt lat="46.49302" lon="5.77651">
        <ele>771.4</ele>
        <time>2022-05-21T14:28:29Z</time>
      </trkpt>
      <trkpt lat="46.49299" lon="5.77639">
        <ele>771</ele>
        <time>2022-05-21T14:28:30Z</time>
      </trkpt>
      <trkpt lat="46.49298" lon="5.77627">
        <ele>770.4</ele>
        <time>2022-05-21T14:28:31Z</time>
      </trkpt>
      <trkpt lat="46.49299" lon="5.77616">
        <ele>769.6</ele>
        <time>2022-05-21T14:28:32Z</time>
      </trkpt>
      <trkpt lat="46.49301" lon="5.776">
        <ele>768.8</ele>
        <time>2022-05-21T14:28:34Z</time>
      </trkpt>
      <trkpt lat="46.49298" lon="5.77589">
        <ele>768.2</ele>
        <time>2022-05-21T14:28:36Z</time>
      </trkpt>
      <trkpt lat="46.49294" lon="5.77585">
        <ele>768</ele>
        <time>2022-05-21T14:28:37Z</time>
      </trkpt>
      <trkpt lat="46.49294" lon="5.77584">
        <ele>767.8</ele>
        <time>2022-05-21T14:28:38Z</time>
      </trkpt>
      <trkpt lat="46.49302" lon="5.77589">
        <ele>767</ele>
        <time>2022-05-21T14:28:40Z</time>
      </trkpt>
      <trkpt lat="46.49335" lon="5.77599">
        <ele>766.4</ele>
        <time>2022-05-21T14:28:42Z</time>
      </trkpt>
      <trkpt lat="46.49345" lon="5.77606">
        <ele>766.2</ele>
        <time>2022-05-21T14:28:43Z</time>
      </trkpt>
      <trkpt lat="46.49357" lon="5.77605">
        <ele>766.2</ele>
        <time>2022-05-21T14:28:44Z</time>
      </trkpt>
      <trkpt lat="46.49381" lon="5.77594">
        <ele>765.8</ele>
        <time>2022-05-21T14:28:46Z</time>
      </trkpt>
      <trkpt lat="46.49399" lon="5.77574">
        <ele>765.8</ele>
        <time>2022-05-21T14:28:48Z</time>
      </trkpt>
      <trkpt lat="46.49405" lon="5.77563">
        <ele>765.8</ele>
        <time>2022-05-21T14:28:49Z</time>
      </trkpt>
      <trkpt lat="46.49417" lon="5.77541">
        <ele>765.8</ele>
        <time>2022-05-21T14:28:51Z</time>
      </trkpt>
      <trkpt lat="46.49424" lon="5.7752">
        <ele>765.8</ele>
        <time>2022-05-21T14:28:53Z</time>
      </trkpt>
      <trkpt lat="46.49432" lon="5.775">
        <ele>765.8</ele>
        <time>2022-05-21T14:28:55Z</time>
      </trkpt>
      <trkpt lat="46.49438" lon="5.7749">
        <ele>765.6</ele>
        <time>2022-05-21T14:28:56Z</time>
      </trkpt>
      <trkpt lat="46.49447" lon="5.77479">
        <ele>765.8</ele>
        <time>2022-05-21T14:28:57Z</time>
      </trkpt>
      <trkpt lat="46.49467" lon="5.77475">
        <ele>765.2</ele>
        <time>2022-05-21T14:28:59Z</time>
      </trkpt>
      <trkpt lat="46.49492" lon="5.77475">
        <ele>764.8</ele>
        <time>2022-05-21T14:29:01Z</time>
      </trkpt>
      <trkpt lat="46.49501" lon="5.77469">
        <ele>764.4</ele>
        <time>2022-05-21T14:29:02Z</time>
      </trkpt>
      <trkpt lat="46.49507" lon="5.77461">
        <ele>764.2</ele>
        <time>2022-05-21T14:29:03Z</time>
      </trkpt>
      <trkpt lat="46.49519" lon="5.77439">
        <ele>763.6</ele>
        <time>2022-05-21T14:29:05Z</time>
      </trkpt>
      <trkpt lat="46.49527" lon="5.77428">
        <ele>763.4</ele>
        <time>2022-05-21T14:29:06Z</time>
      </trkpt>
      <trkpt lat="46.49535" lon="5.7742">
        <ele>763.2</ele>
        <time>2022-05-21T14:29:07Z</time>
      </trkpt>
      <trkpt lat="46.49541" lon="5.77413">
        <ele>763</ele>
        <time>2022-05-21T14:29:08Z</time>
      </trkpt>
      <trkpt lat="46.49562" lon="5.77396">
        <ele>762.4</ele>
        <time>2022-05-21T14:29:11Z</time>
      </trkpt>
      <trkpt lat="46.49562" lon="5.77396">
        <ele>762</ele>
        <time>2022-05-21T14:29:12Z</time>
      </trkpt>
      <trkpt lat="46.4959" lon="5.77388">
        <ele>761</ele>
        <time>2022-05-21T14:29:14Z</time>
      </trkpt>
      <trkpt lat="46.49599" lon="5.77388">
        <ele>760.8</ele>
        <time>2022-05-21T14:29:15Z</time>
      </trkpt>
      <trkpt lat="46.49608" lon="5.7739">
        <ele>760.6</ele>
        <time>2022-05-21T14:29:16Z</time>
      </trkpt>
      <trkpt lat="46.49628" lon="5.77394">
        <ele>760.4</ele>
        <time>2022-05-21T14:29:18Z</time>
      </trkpt>
      <trkpt lat="46.49643" lon="5.77399">
        <ele>759.6</ele>
        <time>2022-05-21T14:29:20Z</time>
      </trkpt>
      <trkpt lat="46.49648" lon="5.77403">
        <ele>759</ele>
        <time>2022-05-21T14:29:21Z</time>
      </trkpt>
      <trkpt lat="46.49652" lon="5.77404">
        <ele>758.8</ele>
        <time>2022-05-21T14:29:22Z</time>
      </trkpt>
      <trkpt lat="46.49658" lon="5.77405">
        <ele>758.2</ele>
        <time>2022-05-21T14:29:23Z</time>
      </trkpt>
      <trkpt lat="46.49663" lon="5.77406">
        <ele>758</ele>
        <time>2022-05-21T14:29:24Z</time>
      </trkpt>
      <trkpt lat="46.49686" lon="5.77404">
        <ele>756.8</ele>
        <time>2022-05-21T14:29:26Z</time>
      </trkpt>
      <trkpt lat="46.49697" lon="5.77402">
        <ele>756.4</ele>
        <time>2022-05-21T14:29:27Z</time>
      </trkpt>
      <trkpt lat="46.49706" lon="5.77398">
        <ele>755.6</ele>
        <time>2022-05-21T14:29:28Z</time>
      </trkpt>
      <trkpt lat="46.49716" lon="5.77394">
        <ele>754.8</ele>
        <time>2022-05-21T14:29:30Z</time>
      </trkpt>
      <trkpt lat="46.49737" lon="5.77378">
        <ele>754.6</ele>
        <time>2022-05-21T14:29:31Z</time>
      </trkpt>
      <trkpt lat="46.4975" lon="5.77367">
        <ele>754.2</ele>
        <time>2022-05-21T14:29:32Z</time>
      </trkpt>
      <trkpt lat="46.49773" lon="5.77349">
        <ele>753</ele>
        <time>2022-05-21T14:29:34Z</time>
      </trkpt>
      <trkpt lat="46.49797" lon="5.7733">
        <ele>751.4</ele>
        <time>2022-05-21T14:29:36Z</time>
      </trkpt>
      <trkpt lat="46.4981" lon="5.77322">
        <ele>750.6</ele>
        <time>2022-05-21T14:29:37Z</time>
      </trkpt>
      <trkpt lat="46.49824" lon="5.77311">
        <ele>750.2</ele>
        <time>2022-05-21T14:29:38Z</time>
      </trkpt>
      <trkpt lat="46.49861" lon="5.77281">
        <ele>749</ele>
        <time>2022-05-21T14:29:41Z</time>
      </trkpt>
      <trkpt lat="46.49871" lon="5.7727">
        <ele>748.2</ele>
        <time>2022-05-21T14:29:42Z</time>
      </trkpt>
      <trkpt lat="46.49878" lon="5.77259">
        <ele>747.8</ele>
        <time>2022-05-21T14:29:43Z</time>
      </trkpt>
      <trkpt lat="46.49908" lon="5.77216">
        <ele>746.2</ele>
        <time>2022-05-21T14:29:46Z</time>
      </trkpt>
      <trkpt lat="46.4992" lon="5.77194">
        <ele>744.8</ele>
        <time>2022-05-21T14:29:48Z</time>
      </trkpt>
      <trkpt lat="46.49938" lon="5.77168">
        <ele>743.6</ele>
        <time>2022-05-21T14:29:50Z</time>
      </trkpt>
      <trkpt lat="46.49943" lon="5.77157">
        <ele>743</ele>
        <time>2022-05-21T14:29:51Z</time>
      </trkpt>
      <trkpt lat="46.49952" lon="5.77143">
        <ele>742.8</ele>
        <time>2022-05-21T14:29:52Z</time>
      </trkpt>
      <trkpt lat="46.4996" lon="5.77131">
        <ele>742.4</ele>
        <time>2022-05-21T14:29:53Z</time>
      </trkpt>
      <trkpt lat="46.49969" lon="5.77118">
        <ele>742</ele>
        <time>2022-05-21T14:29:54Z</time>
      </trkpt>
      <trkpt lat="46.49977" lon="5.77104">
        <ele>741.2</ele>
        <time>2022-05-21T14:29:55Z</time>
      </trkpt>
      <trkpt lat="46.49996" lon="5.77061">
        <ele>739.6</ele>
        <time>2022-05-21T14:29:58Z</time>
      </trkpt>
      <trkpt lat="46.50001" lon="5.77045">
        <ele>739.4</ele>
        <time>2022-05-21T14:29:59Z</time>
      </trkpt>
      <trkpt lat="46.50012" lon="5.77018">
        <ele>738.4</ele>
        <time>2022-05-21T14:30:01Z</time>
      </trkpt>
      <trkpt lat="46.50024" lon="5.76998">
        <ele>737</ele>
        <time>2022-05-21T14:30:03Z</time>
      </trkpt>
      <trkpt lat="46.5009" lon="5.76979">
        <ele>736</ele>
        <time>2022-05-21T14:30:05Z</time>
      </trkpt>
      <trkpt lat="46.5009" lon="5.76979">
        <ele>735.8</ele>
        <time>2022-05-21T14:30:06Z</time>
      </trkpt>
      <trkpt lat="46.50099" lon="5.76969">
        <ele>734.4</ele>
        <time>2022-05-21T14:30:08Z</time>
      </trkpt>
      <trkpt lat="46.50096" lon="5.76971">
        <ele>733.6</ele>
        <time>2022-05-21T14:30:09Z</time>
      </trkpt>
      <trkpt lat="46.50096" lon="5.76971">
        <ele>733.4</ele>
        <time>2022-05-21T14:30:10Z</time>
      </trkpt>
      <trkpt lat="46.50089" lon="5.76974">
        <ele>731.8</ele>
        <time>2022-05-21T14:30:12Z</time>
      </trkpt>
      <trkpt lat="46.50097" lon="5.76976">
        <ele>731.4</ele>
        <time>2022-05-21T14:30:13Z</time>
      </trkpt>
      <trkpt lat="46.50105" lon="5.76977">
        <ele>730.6</ele>
        <time>2022-05-21T14:30:14Z</time>
      </trkpt>
      <trkpt lat="46.5012" lon="5.76968">
        <ele>729.4</ele>
        <time>2022-05-21T14:30:16Z</time>
      </trkpt>
      <trkpt lat="46.5012" lon="5.76949">
        <ele>728.4</ele>
        <time>2022-05-21T14:30:18Z</time>
      </trkpt>
      <trkpt lat="46.50108" lon="5.76927">
        <ele>727.4</ele>
        <time>2022-05-21T14:30:21Z</time>
      </trkpt>
      <trkpt lat="46.50102" lon="5.76921">
        <ele>727.2</ele>
        <time>2022-05-21T14:30:22Z</time>
      </trkpt>
      <trkpt lat="46.50072" lon="5.76889">
        <ele>726.4</ele>
        <time>2022-05-21T14:30:26Z</time>
      </trkpt>
      <trkpt lat="46.50064" lon="5.76881">
        <ele>726.2</ele>
        <time>2022-05-21T14:30:27Z</time>
      </trkpt>
      <trkpt lat="46.50056" lon="5.76871">
        <ele>725.6</ele>
        <time>2022-05-21T14:30:28Z</time>
      </trkpt>
      <trkpt lat="46.5005" lon="5.76858">
        <ele>725.2</ele>
        <time>2022-05-21T14:30:29Z</time>
      </trkpt>
      <trkpt lat="46.50045" lon="5.76844">
        <ele>724.4</ele>
        <time>2022-05-21T14:30:30Z</time>
      </trkpt>
      <trkpt lat="46.50038" lon="5.76832">
        <ele>724.2</ele>
        <time>2022-05-21T14:30:31Z</time>
      </trkpt>
      <trkpt lat="46.5003" lon="5.76817">
        <ele>723.6</ele>
        <time>2022-05-21T14:30:32Z</time>
      </trkpt>
      <trkpt lat="46.50024" lon="5.76808">
        <ele>722.2</ele>
        <time>2022-05-21T14:30:33Z</time>
      </trkpt>
      <trkpt lat="46.50009" lon="5.76786">
        <ele>720.8</ele>
        <time>2022-05-21T14:30:35Z</time>
      </trkpt>
      <trkpt lat="46.49985" lon="5.76754">
        <ele>719.6</ele>
        <time>2022-05-21T14:30:38Z</time>
      </trkpt>
      <trkpt lat="46.49966" lon="5.7674">
        <ele>718.4</ele>
        <time>2022-05-21T14:30:40Z</time>
      </trkpt>
      <trkpt lat="46.49956" lon="5.76737">
        <ele>718.2</ele>
        <time>2022-05-21T14:30:41Z</time>
      </trkpt>
      <trkpt lat="46.49936" lon="5.76732">
        <ele>717</ele>
        <time>2022-05-21T14:30:43Z</time>
      </trkpt>
      <trkpt lat="46.49927" lon="5.76728">
        <ele>716.2</ele>
        <time>2022-05-21T14:30:44Z</time>
      </trkpt>
      <trkpt lat="46.49916" lon="5.76719">
        <ele>716</ele>
        <time>2022-05-21T14:30:45Z</time>
      </trkpt>
      <trkpt lat="46.49908" lon="5.76709">
        <ele>714.8</ele>
        <time>2022-05-21T14:30:46Z</time>
      </trkpt>
      <trkpt lat="46.49901" lon="5.76698">
        <ele>714</ele>
        <time>2022-05-21T14:30:47Z</time>
      </trkpt>
      <trkpt lat="46.49894" lon="5.76688">
        <ele>713.4</ele>
        <time>2022-05-21T14:30:48Z</time>
      </trkpt>
      <trkpt lat="46.49879" lon="5.76662">
        <ele>712.4</ele>
        <time>2022-05-21T14:30:50Z</time>
      </trkpt>
      <trkpt lat="46.49872" lon="5.76653">
        <ele>711.8</ele>
        <time>2022-05-21T14:30:51Z</time>
      </trkpt>
      <trkpt lat="46.49855" lon="5.76631">
        <ele>711</ele>
        <time>2022-05-21T14:30:53Z</time>
      </trkpt>
      <trkpt lat="46.49847" lon="5.7662">
        <ele>710.4</ele>
        <time>2022-05-21T14:30:54Z</time>
      </trkpt>
      <trkpt lat="46.4983" lon="5.76599">
        <ele>709.6</ele>
        <time>2022-05-21T14:30:56Z</time>
      </trkpt>
      <trkpt lat="46.49823" lon="5.76592">
        <ele>709.2</ele>
        <time>2022-05-21T14:30:57Z</time>
      </trkpt>
      <trkpt lat="46.49813" lon="5.76588">
        <ele>708.4</ele>
        <time>2022-05-21T14:30:58Z</time>
      </trkpt>
      <trkpt lat="46.49801" lon="5.76583">
        <ele>706.8</ele>
        <time>2022-05-21T14:31:00Z</time>
      </trkpt>
      <trkpt lat="46.4979" lon="5.76579">
        <ele>706</ele>
        <time>2022-05-21T14:31:01Z</time>
      </trkpt>
      <trkpt lat="46.49771" lon="5.7657">
        <ele>705.4</ele>
        <time>2022-05-21T14:31:02Z</time>
      </trkpt>
      <trkpt lat="46.49751" lon="5.76559">
        <ele>705</ele>
        <time>2022-05-21T14:31:03Z</time>
      </trkpt>
      <trkpt lat="46.49718" lon="5.76535">
        <ele>704</ele>
        <time>2022-05-21T14:31:05Z</time>
      </trkpt>
      <trkpt lat="46.49701" lon="5.76514">
        <ele>702.8</ele>
        <time>2022-05-21T14:31:07Z</time>
      </trkpt>
      <trkpt lat="46.49682" lon="5.76495">
        <ele>701.2</ele>
        <time>2022-05-21T14:31:09Z</time>
      </trkpt>
      <trkpt lat="46.49672" lon="5.76488">
        <ele>700</ele>
        <time>2022-05-21T14:31:10Z</time>
      </trkpt>
      <trkpt lat="46.49665" lon="5.76484">
        <ele>699.6</ele>
        <time>2022-05-21T14:31:11Z</time>
      </trkpt>
      <trkpt lat="46.49643" lon="5.76474">
        <ele>698.8</ele>
        <time>2022-05-21T14:31:13Z</time>
      </trkpt>
      <trkpt lat="46.49623" lon="5.76467">
        <ele>697</ele>
        <time>2022-05-21T14:31:15Z</time>
      </trkpt>
      <trkpt lat="46.49613" lon="5.76462">
        <ele>696.8</ele>
        <time>2022-05-21T14:31:16Z</time>
      </trkpt>
      <trkpt lat="46.49592" lon="5.76449">
        <ele>695.6</ele>
        <time>2022-05-21T14:31:18Z</time>
      </trkpt>
      <trkpt lat="46.49581" lon="5.76441">
        <ele>694.4</ele>
        <time>2022-05-21T14:31:19Z</time>
      </trkpt>
      <trkpt lat="46.4957" lon="5.76432">
        <ele>694</ele>
        <time>2022-05-21T14:31:20Z</time>
      </trkpt>
      <trkpt lat="46.49549" lon="5.76414">
        <ele>692.6</ele>
        <time>2022-05-21T14:31:22Z</time>
      </trkpt>
      <trkpt lat="46.49528" lon="5.76396">
        <ele>690.8</ele>
        <time>2022-05-21T14:31:24Z</time>
      </trkpt>
      <trkpt lat="46.49509" lon="5.76377">
        <ele>689.6</ele>
        <time>2022-05-21T14:31:26Z</time>
      </trkpt>
      <trkpt lat="46.49501" lon="5.76366">
        <ele>689.2</ele>
        <time>2022-05-21T14:31:27Z</time>
      </trkpt>
      <trkpt lat="46.49494" lon="5.76354">
        <ele>688.4</ele>
        <time>2022-05-21T14:31:28Z</time>
      </trkpt>
      <trkpt lat="46.49483" lon="5.76328">
        <ele>686.8</ele>
        <time>2022-05-21T14:31:30Z</time>
      </trkpt>
      <trkpt lat="46.49473" lon="5.76288">
        <ele>685.8</ele>
        <time>2022-05-21T14:31:32Z</time>
      </trkpt>
      <trkpt lat="46.4947" lon="5.7627">
        <ele>685.2</ele>
        <time>2022-05-21T14:31:33Z</time>
      </trkpt>
      <trkpt lat="46.49469" lon="5.76257">
        <ele>684.6</ele>
        <time>2022-05-21T14:31:34Z</time>
      </trkpt>
      <trkpt lat="46.49464" lon="5.76247">
        <ele>683.6</ele>
        <time>2022-05-21T14:31:35Z</time>
      </trkpt>
      <trkpt lat="46.4945" lon="5.76234">
        <ele>682.8</ele>
        <time>2022-05-21T14:31:37Z</time>
      </trkpt>
      <trkpt lat="46.49442" lon="5.76227">
        <ele>682</ele>
        <time>2022-05-21T14:31:38Z</time>
      </trkpt>
      <trkpt lat="46.49433" lon="5.76219">
        <ele>681.6</ele>
        <time>2022-05-21T14:31:39Z</time>
      </trkpt>
      <trkpt lat="46.49422" lon="5.76209">
        <ele>680.8</ele>
        <time>2022-05-21T14:31:40Z</time>
      </trkpt>
      <trkpt lat="46.49405" lon="5.76189">
        <ele>679.6</ele>
        <time>2022-05-21T14:31:42Z</time>
      </trkpt>
      <trkpt lat="46.49379" lon="5.76164">
        <ele>678.8</ele>
        <time>2022-05-21T14:31:44Z</time>
      </trkpt>
      <trkpt lat="46.49371" lon="5.76155">
        <ele>678.2</ele>
        <time>2022-05-21T14:31:45Z</time>
      </trkpt>
      <trkpt lat="46.49347" lon="5.76131">
        <ele>676.8</ele>
        <time>2022-05-21T14:31:47Z</time>
      </trkpt>
      <trkpt lat="46.49314" lon="5.761">
        <ele>675.4</ele>
        <time>2022-05-21T14:31:50Z</time>
      </trkpt>
      <trkpt lat="46.49302" lon="5.76091">
        <ele>674</ele>
        <time>2022-05-21T14:31:51Z</time>
      </trkpt>
      <trkpt lat="46.4929" lon="5.76082">
        <ele>673.2</ele>
        <time>2022-05-21T14:31:52Z</time>
      </trkpt>
      <trkpt lat="46.49281" lon="5.76074">
        <ele>672.8</ele>
        <time>2022-05-21T14:31:53Z</time>
      </trkpt>
      <trkpt lat="46.49258" lon="5.76055">
        <ele>671.6</ele>
        <time>2022-05-21T14:31:55Z</time>
      </trkpt>
      <trkpt lat="46.49238" lon="5.76038">
        <ele>670.6</ele>
        <time>2022-05-21T14:31:57Z</time>
      </trkpt>
      <trkpt lat="46.49226" lon="5.76027">
        <ele>670</ele>
        <time>2022-05-21T14:31:58Z</time>
      </trkpt>
      <trkpt lat="46.49217" lon="5.76021">
        <ele>669.2</ele>
        <time>2022-05-21T14:31:59Z</time>
      </trkpt>
      <trkpt lat="46.49192" lon="5.76008">
        <ele>667.8</ele>
        <time>2022-05-21T14:32:01Z</time>
      </trkpt>
      <trkpt lat="46.49168" lon="5.75998">
        <ele>666.4</ele>
        <time>2022-05-21T14:32:03Z</time>
      </trkpt>
      <trkpt lat="46.49159" lon="5.75994">
        <ele>666</ele>
        <time>2022-05-21T14:32:04Z</time>
      </trkpt>
      <trkpt lat="46.49148" lon="5.75985">
        <ele>664.8</ele>
        <time>2022-05-21T14:32:05Z</time>
      </trkpt>
      <trkpt lat="46.49138" lon="5.75975">
        <ele>664</ele>
        <time>2022-05-21T14:32:06Z</time>
      </trkpt>
      <trkpt lat="46.49129" lon="5.75962">
        <ele>663.8</ele>
        <time>2022-05-21T14:32:07Z</time>
      </trkpt>
      <trkpt lat="46.49121" lon="5.75949">
        <ele>662.6</ele>
        <time>2022-05-21T14:32:08Z</time>
      </trkpt>
      <trkpt lat="46.49113" lon="5.75935">
        <ele>662.2</ele>
        <time>2022-05-21T14:32:09Z</time>
      </trkpt>
      <trkpt lat="46.49106" lon="5.7592">
        <ele>661.4</ele>
        <time>2022-05-21T14:32:10Z</time>
      </trkpt>
      <trkpt lat="46.49092" lon="5.75892">
        <ele>660</ele>
        <time>2022-05-21T14:32:12Z</time>
      </trkpt>
      <trkpt lat="46.49085" lon="5.75878">
        <ele>659</ele>
        <time>2022-05-21T14:32:13Z</time>
      </trkpt>
      <trkpt lat="46.49069" lon="5.75851">
        <ele>657.8</ele>
        <time>2022-05-21T14:32:15Z</time>
      </trkpt>
      <trkpt lat="46.49052" lon="5.75826">
        <ele>656.6</ele>
        <time>2022-05-21T14:32:17Z</time>
      </trkpt>
      <trkpt lat="46.49031" lon="5.75809">
        <ele>655.8</ele>
        <time>2022-05-21T14:32:19Z</time>
      </trkpt>
      <trkpt lat="46.4902" lon="5.75804">
        <ele>655.2</ele>
        <time>2022-05-21T14:32:20Z</time>
      </trkpt>
      <trkpt lat="46.48995" lon="5.75794">
        <ele>654</ele>
        <time>2022-05-21T14:32:22Z</time>
      </trkpt>
      <trkpt lat="46.48984" lon="5.7579">
        <ele>653.6</ele>
        <time>2022-05-21T14:32:23Z</time>
      </trkpt>
      <trkpt lat="46.48974" lon="5.75786">
        <ele>652.6</ele>
        <time>2022-05-21T14:32:24Z</time>
      </trkpt>
      <trkpt lat="46.48952" lon="5.75776">
        <ele>651.2</ele>
        <time>2022-05-21T14:32:26Z</time>
      </trkpt>
      <trkpt lat="46.48939" lon="5.75768">
        <ele>650.6</ele>
        <time>2022-05-21T14:32:27Z</time>
      </trkpt>
      <trkpt lat="46.48927" lon="5.75759">
        <ele>650.2</ele>
        <time>2022-05-21T14:32:28Z</time>
      </trkpt>
      <trkpt lat="46.48919" lon="5.75753">
        <ele>650</ele>
        <time>2022-05-21T14:32:29Z</time>
      </trkpt>
      <trkpt lat="46.48885" lon="5.75726">
        <ele>648.8</ele>
        <time>2022-05-21T14:32:32Z</time>
      </trkpt>
      <trkpt lat="46.48877" lon="5.75722">
        <ele>648.2</ele>
        <time>2022-05-21T14:32:33Z</time>
      </trkpt>
      <trkpt lat="46.48867" lon="5.75717">
        <ele>647.6</ele>
        <time>2022-05-21T14:32:34Z</time>
      </trkpt>
      <trkpt lat="46.48836" lon="5.75706">
        <ele>646.6</ele>
        <time>2022-05-21T14:32:37Z</time>
      </trkpt>
      <trkpt lat="46.48827" lon="5.75702">
        <ele>646.4</ele>
        <time>2022-05-21T14:32:38Z</time>
      </trkpt>
      <trkpt lat="46.48819" lon="5.75696">
        <ele>646.2</ele>
        <time>2022-05-21T14:32:39Z</time>
      </trkpt>
      <trkpt lat="46.48804" lon="5.7568">
        <ele>646</ele>
        <time>2022-05-21T14:32:41Z</time>
      </trkpt>
      <trkpt lat="46.48793" lon="5.7566">
        <ele>645.8</ele>
        <time>2022-05-21T14:32:43Z</time>
      </trkpt>
      <trkpt lat="46.48788" lon="5.75648">
        <ele>645.8</ele>
        <time>2022-05-21T14:32:44Z</time>
      </trkpt>
      <trkpt lat="46.48784" lon="5.75633">
        <ele>645.4</ele>
        <time>2022-05-21T14:32:45Z</time>
      </trkpt>
      <trkpt lat="46.48772" lon="5.75584">
        <ele>644.8</ele>
        <time>2022-05-21T14:32:49Z</time>
      </trkpt>
      <trkpt lat="46.4877" lon="5.75572">
        <ele>644.8</ele>
        <time>2022-05-21T14:32:50Z</time>
      </trkpt>
      <trkpt lat="46.4877" lon="5.75548">
        <ele>644.6</ele>
        <time>2022-05-21T14:32:52Z</time>
      </trkpt>
      <trkpt lat="46.48777" lon="5.75519">
        <ele>644.6</ele>
        <time>2022-05-21T14:32:54Z</time>
      </trkpt>
      <trkpt lat="46.48781" lon="5.75509">
        <ele>644.4</ele>
        <time>2022-05-21T14:32:55Z</time>
      </trkpt>
      <trkpt lat="46.4879" lon="5.75484">
        <ele>644.2</ele>
        <time>2022-05-21T14:32:57Z</time>
      </trkpt>
      <trkpt lat="46.488" lon="5.75457">
        <ele>644</ele>
        <time>2022-05-21T14:32:59Z</time>
      </trkpt>
      <trkpt lat="46.4881" lon="5.75417">
        <ele>643.2</ele>
        <time>2022-05-21T14:33:02Z</time>
      </trkpt>
      <trkpt lat="46.48821" lon="5.75389">
        <ele>641.6</ele>
        <time>2022-05-21T14:33:04Z</time>
      </trkpt>
      <trkpt lat="46.48831" lon="5.75363">
        <ele>640.8</ele>
        <time>2022-05-21T14:33:06Z</time>
      </trkpt>
      <trkpt lat="46.48839" lon="5.75338">
        <ele>640</ele>
        <time>2022-05-21T14:33:08Z</time>
      </trkpt>
      <trkpt lat="46.4885" lon="5.75298">
        <ele>638.8</ele>
        <time>2022-05-21T14:33:11Z</time>
      </trkpt>
      <trkpt lat="46.48853" lon="5.75285">
        <ele>638.4</ele>
        <time>2022-05-21T14:33:12Z</time>
      </trkpt>
      <trkpt lat="46.48859" lon="5.7526">
        <ele>637.8</ele>
        <time>2022-05-21T14:33:14Z</time>
      </trkpt>
      <trkpt lat="46.48871" lon="5.75212">
        <ele>636.8</ele>
        <time>2022-05-21T14:33:18Z</time>
      </trkpt>
      <trkpt lat="46.48874" lon="5.75202">
        <ele>636.8</ele>
        <time>2022-05-21T14:33:19Z</time>
      </trkpt>
      <trkpt lat="46.48894" lon="5.75118">
        <ele>636.2</ele>
        <time>2022-05-21T14:33:26Z</time>
      </trkpt>
      <trkpt lat="46.4891" lon="5.75061">
        <ele>635.8</ele>
        <time>2022-05-21T14:33:31Z</time>
      </trkpt>
      <trkpt lat="46.48912" lon="5.75049">
        <ele>635.6</ele>
        <time>2022-05-21T14:33:32Z</time>
      </trkpt>
      <trkpt lat="46.48931" lon="5.74971">
        <ele>635.2</ele>
        <time>2022-05-21T14:33:39Z</time>
      </trkpt>
      <trkpt lat="46.48936" lon="5.74963">
        <ele>635</ele>
        <time>2022-05-21T14:33:40Z</time>
      </trkpt>
      <trkpt lat="46.48948" lon="5.74943">
        <ele>635</ele>
        <time>2022-05-21T14:33:42Z</time>
      </trkpt>
      <trkpt lat="46.48966" lon="5.74922">
        <ele>634.8</ele>
        <time>2022-05-21T14:33:45Z</time>
      </trkpt>
      <trkpt lat="46.48996" lon="5.7488">
        <ele>635</ele>
        <time>2022-05-21T14:33:50Z</time>
      </trkpt>
      <trkpt lat="46.49025" lon="5.74823">
        <ele>635</ele>
        <time>2022-05-21T14:33:56Z</time>
      </trkpt>
      <trkpt lat="46.49041" lon="5.7478">
        <ele>634.8</ele>
        <time>2022-05-21T14:34:00Z</time>
      </trkpt>
      <trkpt lat="46.49044" lon="5.74769">
        <ele>634.8</ele>
        <time>2022-05-21T14:34:01Z</time>
      </trkpt>
      <trkpt lat="46.49054" lon="5.74749">
        <ele>634.8</ele>
        <time>2022-05-21T14:34:03Z</time>
      </trkpt>
      <trkpt lat="46.49068" lon="5.74719">
        <ele>634.6</ele>
        <time>2022-05-21T14:34:06Z</time>
      </trkpt>
      <trkpt lat="46.49102" lon="5.74678">
        <ele>634.4</ele>
        <time>2022-05-21T14:34:11Z</time>
      </trkpt>
      <trkpt lat="46.49115" lon="5.74662">
        <ele>634.4</ele>
        <time>2022-05-21T14:34:13Z</time>
      </trkpt>
      <trkpt lat="46.49121" lon="5.74655">
        <ele>634.4</ele>
        <time>2022-05-21T14:34:14Z</time>
      </trkpt>
      <trkpt lat="46.49139" lon="5.74628">
        <ele>634.2</ele>
        <time>2022-05-21T14:34:17Z</time>
      </trkpt>
      <trkpt lat="46.49153" lon="5.7461">
        <ele>634.2</ele>
        <time>2022-05-21T14:34:19Z</time>
      </trkpt>
      <trkpt lat="46.49163" lon="5.74594">
        <ele>634</ele>
        <time>2022-05-21T14:34:21Z</time>
      </trkpt>
      <trkpt lat="46.49171" lon="5.74574">
        <ele>634</ele>
        <time>2022-05-21T14:34:23Z</time>
      </trkpt>
      <trkpt lat="46.49176" lon="5.7455">
        <ele>633.4</ele>
        <time>2022-05-21T14:34:25Z</time>
      </trkpt>
      <trkpt lat="46.4919" lon="5.74518">
        <ele>633.2</ele>
        <time>2022-05-21T14:34:28Z</time>
      </trkpt>
      <trkpt lat="46.49197" lon="5.745">
        <ele>632.8</ele>
        <time>2022-05-21T14:34:30Z</time>
      </trkpt>
      <trkpt lat="46.49202" lon="5.74476">
        <ele>632.6</ele>
        <time>2022-05-21T14:34:32Z</time>
      </trkpt>
      <trkpt lat="46.49205" lon="5.74461">
        <ele>632.4</ele>
        <time>2022-05-21T14:34:33Z</time>
      </trkpt>
      <trkpt lat="46.49217" lon="5.74429">
        <ele>631.2</ele>
        <time>2022-05-21T14:34:36Z</time>
      </trkpt>
      <trkpt lat="46.49223" lon="5.74422">
        <ele>631</ele>
        <time>2022-05-21T14:34:37Z</time>
      </trkpt>
      <trkpt lat="46.49249" lon="5.74402">
        <ele>630.8</ele>
        <time>2022-05-21T14:34:41Z</time>
      </trkpt>
      <trkpt lat="46.49272" lon="5.74381">
        <ele>631</ele>
        <time>2022-05-21T14:34:45Z</time>
      </trkpt>
      <trkpt lat="46.49282" lon="5.7437">
        <ele>631</ele>
        <time>2022-05-21T14:34:47Z</time>
      </trkpt>
      <trkpt lat="46.49293" lon="5.74356">
        <ele>631.6</ele>
        <time>2022-05-21T14:34:50Z</time>
      </trkpt>
      <trkpt lat="46.49293" lon="5.74349">
        <ele>632.2</ele>
        <time>2022-05-21T14:34:51Z</time>
      </trkpt>
      <trkpt lat="46.49299" lon="5.74341">
        <ele>632.8</ele>
        <time>2022-05-21T14:34:53Z</time>
      </trkpt>
      <trkpt lat="46.49302" lon="5.74339">
        <ele>633</ele>
        <time>2022-05-21T14:34:54Z</time>
      </trkpt>
      <trkpt lat="46.49306" lon="5.74336">
        <ele>633.2</ele>
        <time>2022-05-21T14:34:55Z</time>
      </trkpt>
      <trkpt lat="46.49309" lon="5.74331">
        <ele>633.6</ele>
        <time>2022-05-21T14:34:56Z</time>
      </trkpt>
      <trkpt lat="46.49318" lon="5.7432">
        <ele>633.8</ele>
        <time>2022-05-21T14:34:58Z</time>
      </trkpt>
      <trkpt lat="46.49322" lon="5.74313">
        <ele>634</ele>
        <time>2022-05-21T14:34:59Z</time>
      </trkpt>
      <trkpt lat="46.49326" lon="5.74308">
        <ele>634.2</ele>
        <time>2022-05-21T14:35:00Z</time>
      </trkpt>
      <trkpt lat="46.49334" lon="5.74296">
        <ele>634.6</ele>
        <time>2022-05-21T14:35:02Z</time>
      </trkpt>
      <trkpt lat="46.4934" lon="5.74286">
        <ele>635</ele>
        <time>2022-05-21T14:35:04Z</time>
      </trkpt>
      <trkpt lat="46.49343" lon="5.74279">
        <ele>635.2</ele>
        <time>2022-05-21T14:35:05Z</time>
      </trkpt>
      <trkpt lat="46.49346" lon="5.74272">
        <ele>635.4</ele>
        <time>2022-05-21T14:35:06Z</time>
      </trkpt>
      <trkpt lat="46.49353" lon="5.74258">
        <ele>635.8</ele>
        <time>2022-05-21T14:35:08Z</time>
      </trkpt>
      <trkpt lat="46.49356" lon="5.7425">
        <ele>636.6</ele>
        <time>2022-05-21T14:35:09Z</time>
      </trkpt>
      <trkpt lat="46.49361" lon="5.74242">
        <ele>636.8</ele>
        <time>2022-05-21T14:35:10Z</time>
      </trkpt>
      <trkpt lat="46.49374" lon="5.74222">
        <ele>637.6</ele>
        <time>2022-05-21T14:35:13Z</time>
      </trkpt>
      <trkpt lat="46.49385" lon="5.7421">
        <ele>637.8</ele>
        <time>2022-05-21T14:35:15Z</time>
      </trkpt>
      <trkpt lat="46.49391" lon="5.74204">
        <ele>637.8</ele>
        <time>2022-05-21T14:35:16Z</time>
      </trkpt>
      <trkpt lat="46.49397" lon="5.74198">
        <ele>638</ele>
        <time>2022-05-21T14:35:17Z</time>
      </trkpt>
      <trkpt lat="46.49415" lon="5.74187">
        <ele>638.4</ele>
        <time>2022-05-21T14:35:20Z</time>
      </trkpt>
      <trkpt lat="46.4943" lon="5.74175">
        <ele>638.6</ele>
        <time>2022-05-21T14:35:23Z</time>
      </trkpt>
      <trkpt lat="46.49441" lon="5.74165">
        <ele>638.8</ele>
        <time>2022-05-21T14:35:25Z</time>
      </trkpt>
      <trkpt lat="46.49441" lon="5.74165">
        <ele>638.8</ele>
        <time>2022-05-21T14:35:26Z</time>
      </trkpt>
      <trkpt lat="46.49469" lon="5.74118">
        <ele>639.4</ele>
        <time>2022-05-21T14:35:32Z</time>
      </trkpt>
      <trkpt lat="46.49484" lon="5.74086">
        <ele>639.2</ele>
        <time>2022-05-21T14:35:37Z</time>
      </trkpt>
      <trkpt lat="46.49487" lon="5.7408">
        <ele>639.2</ele>
        <time>2022-05-21T14:35:38Z</time>
      </trkpt>
      <trkpt lat="46.49495" lon="5.74064">
        <ele>639</ele>
        <time>2022-05-21T14:35:41Z</time>
      </trkpt>
      <trkpt lat="46.49497" lon="5.74058">
        <ele>639.4</ele>
        <time>2022-05-21T14:35:43Z</time>
      </trkpt>
      <trkpt lat="46.49497" lon="5.74058">
        <ele>639.6</ele>
        <time>2022-05-21T14:35:47Z</time>
      </trkpt>
      <trkpt lat="46.49498" lon="5.74052">
        <ele>639.6</ele>
        <time>2022-05-21T14:36:39Z</time>
      </trkpt>
      <trkpt lat="46.49499" lon="5.74049">
        <ele>639.6</ele>
        <time>2022-05-21T14:36:40Z</time>
      </trkpt>
      <trkpt lat="46.49499" lon="5.74044">
        <ele>639.6</ele>
        <time>2022-05-21T14:36:41Z</time>
      </trkpt>
      <trkpt lat="46.49499" lon="5.74022">
        <ele>639.6</ele>
        <time>2022-05-21T14:36:44Z</time>
      </trkpt>
      <trkpt lat="46.49497" lon="5.74013">
        <ele>639.6</ele>
        <time>2022-05-21T14:36:45Z</time>
      </trkpt>
      <trkpt lat="46.49486" lon="5.7396">
        <ele>638.8</ele>
        <time>2022-05-21T14:36:51Z</time>
      </trkpt>
      <trkpt lat="46.49478" lon="5.7392">
        <ele>638.2</ele>
        <time>2022-05-21T14:36:55Z</time>
      </trkpt>
      <trkpt lat="46.49475" lon="5.73908">
        <ele>638</ele>
        <time>2022-05-21T14:36:56Z</time>
      </trkpt>
      <trkpt lat="46.49466" lon="5.73863">
        <ele>637.2</ele>
        <time>2022-05-21T14:37:00Z</time>
      </trkpt>
      <trkpt lat="46.49459" lon="5.73817">
        <ele>636</ele>
        <time>2022-05-21T14:37:04Z</time>
      </trkpt>
      <trkpt lat="46.49458" lon="5.73806">
        <ele>635.8</ele>
        <time>2022-05-21T14:37:05Z</time>
      </trkpt>
      <trkpt lat="46.49456" lon="5.73795">
        <ele>635.6</ele>
        <time>2022-05-21T14:37:06Z</time>
      </trkpt>
      <trkpt lat="46.49457" lon="5.73771">
        <ele>635.2</ele>
        <time>2022-05-21T14:37:08Z</time>
      </trkpt>
      <trkpt lat="46.49458" lon="5.73758">
        <ele>635</ele>
        <time>2022-05-21T14:37:09Z</time>
      </trkpt>
      <trkpt lat="46.49461" lon="5.73746">
        <ele>634.8</ele>
        <time>2022-05-21T14:37:10Z</time>
      </trkpt>
      <trkpt lat="46.4947" lon="5.73722">
        <ele>634.4</ele>
        <time>2022-05-21T14:37:12Z</time>
      </trkpt>
      <trkpt lat="46.49482" lon="5.73699">
        <ele>633.8</ele>
        <time>2022-05-21T14:37:14Z</time>
      </trkpt>
      <trkpt lat="46.49496" lon="5.73676">
        <ele>632.4</ele>
        <time>2022-05-21T14:37:16Z</time>
      </trkpt>
      <trkpt lat="46.49503" lon="5.73665">
        <ele>631.4</ele>
        <time>2022-05-21T14:37:17Z</time>
      </trkpt>
      <trkpt lat="46.49518" lon="5.73643">
        <ele>629.8</ele>
        <time>2022-05-21T14:37:19Z</time>
      </trkpt>
      <trkpt lat="46.49532" lon="5.7362">
        <ele>628.2</ele>
        <time>2022-05-21T14:37:21Z</time>
      </trkpt>
      <trkpt lat="46.49538" lon="5.73608">
        <ele>627.6</ele>
        <time>2022-05-21T14:37:22Z</time>
      </trkpt>
      <trkpt lat="46.49544" lon="5.73595">
        <ele>627.4</ele>
        <time>2022-05-21T14:37:23Z</time>
      </trkpt>
      <trkpt lat="46.49548" lon="5.73583">
        <ele>626.8</ele>
        <time>2022-05-21T14:37:24Z</time>
      </trkpt>
      <trkpt lat="46.49559" lon="5.73542">
        <ele>625.8</ele>
        <time>2022-05-21T14:37:27Z</time>
      </trkpt>
      <trkpt lat="46.49565" lon="5.73513">
        <ele>624.6</ele>
        <time>2022-05-21T14:37:29Z</time>
      </trkpt>
      <trkpt lat="46.49571" lon="5.73484">
        <ele>623.6</ele>
        <time>2022-05-21T14:37:31Z</time>
      </trkpt>
      <trkpt lat="46.49575" lon="5.7347">
        <ele>623.4</ele>
        <time>2022-05-21T14:37:32Z</time>
      </trkpt>
      <trkpt lat="46.49581" lon="5.73457">
        <ele>622.6</ele>
        <time>2022-05-21T14:37:33Z</time>
      </trkpt>
      <trkpt lat="46.49589" lon="5.73446">
        <ele>622.2</ele>
        <time>2022-05-21T14:37:34Z</time>
      </trkpt>
      <trkpt lat="46.49607" lon="5.73428">
        <ele>621.8</ele>
        <time>2022-05-21T14:37:36Z</time>
      </trkpt>
      <trkpt lat="46.49627" lon="5.73412">
        <ele>620.2</ele>
        <time>2022-05-21T14:37:38Z</time>
      </trkpt>
      <trkpt lat="46.49648" lon="5.73396">
        <ele>618.2</ele>
        <time>2022-05-21T14:37:40Z</time>
      </trkpt>
      <trkpt lat="46.49658" lon="5.73387">
        <ele>617.6</ele>
        <time>2022-05-21T14:37:41Z</time>
      </trkpt>
      <trkpt lat="46.49668" lon="5.73376">
        <ele>616.6</ele>
        <time>2022-05-21T14:37:42Z</time>
      </trkpt>
      <trkpt lat="46.49684" lon="5.73351">
        <ele>615.4</ele>
        <time>2022-05-21T14:37:44Z</time>
      </trkpt>
      <trkpt lat="46.49697" lon="5.73325">
        <ele>614.2</ele>
        <time>2022-05-21T14:37:46Z</time>
      </trkpt>
      <trkpt lat="46.49708" lon="5.73298">
        <ele>613.4</ele>
        <time>2022-05-21T14:37:48Z</time>
      </trkpt>
      <trkpt lat="46.4972" lon="5.73275">
        <ele>613.2</ele>
        <time>2022-05-21T14:37:50Z</time>
      </trkpt>
      <trkpt lat="46.49726" lon="5.73264">
        <ele>612.6</ele>
        <time>2022-05-21T14:37:51Z</time>
      </trkpt>
      <trkpt lat="46.49731" lon="5.73254">
        <ele>612.4</ele>
        <time>2022-05-21T14:37:52Z</time>
      </trkpt>
      <trkpt lat="46.49746" lon="5.7322">
        <ele>612.2</ele>
        <time>2022-05-21T14:37:55Z</time>
      </trkpt>
      <trkpt lat="46.4975" lon="5.73208">
        <ele>612</ele>
        <time>2022-05-21T14:37:56Z</time>
      </trkpt>
      <trkpt lat="46.49755" lon="5.73198">
        <ele>612</ele>
        <time>2022-05-21T14:37:57Z</time>
      </trkpt>
      <trkpt lat="46.49768" lon="5.73179">
        <ele>611.6</ele>
        <time>2022-05-21T14:37:59Z</time>
      </trkpt>
      <trkpt lat="46.49783" lon="5.73165">
        <ele>611</ele>
        <time>2022-05-21T14:38:01Z</time>
      </trkpt>
      <trkpt lat="46.49798" lon="5.7315">
        <ele>610.6</ele>
        <time>2022-05-21T14:38:03Z</time>
      </trkpt>
      <trkpt lat="46.49831" lon="5.73112">
        <ele>609.8</ele>
        <time>2022-05-21T14:38:08Z</time>
      </trkpt>
      <trkpt lat="46.49836" lon="5.73104">
        <ele>609.6</ele>
        <time>2022-05-21T14:38:09Z</time>
      </trkpt>
      <trkpt lat="46.49856" lon="5.73058">
        <ele>609</ele>
        <time>2022-05-21T14:38:14Z</time>
      </trkpt>
      <trkpt lat="46.49862" lon="5.73037">
        <ele>608.8</ele>
        <time>2022-05-21T14:38:16Z</time>
      </trkpt>
      <trkpt lat="46.49864" lon="5.73025">
        <ele>608.8</ele>
        <time>2022-05-21T14:38:17Z</time>
      </trkpt>
      <trkpt lat="46.49865" lon="5.73012">
        <ele>608.6</ele>
        <time>2022-05-21T14:38:18Z</time>
      </trkpt>
      <trkpt lat="46.49865" lon="5.72957">
        <ele>607.8</ele>
        <time>2022-05-21T14:38:22Z</time>
      </trkpt>
      <trkpt lat="46.49865" lon="5.72943">
        <ele>607.6</ele>
        <time>2022-05-21T14:38:23Z</time>
      </trkpt>
      <trkpt lat="46.49863" lon="5.72915">
        <ele>606.4</ele>
        <time>2022-05-21T14:38:25Z</time>
      </trkpt>
      <trkpt lat="46.49861" lon="5.72889">
        <ele>605.2</ele>
        <time>2022-05-21T14:38:27Z</time>
      </trkpt>
      <trkpt lat="46.49859" lon="5.72876">
        <ele>605</ele>
        <time>2022-05-21T14:38:28Z</time>
      </trkpt>
      <trkpt lat="46.49853" lon="5.72852">
        <ele>604.4</ele>
        <time>2022-05-21T14:38:30Z</time>
      </trkpt>
      <trkpt lat="46.4985" lon="5.72839">
        <ele>604</ele>
        <time>2022-05-21T14:38:31Z</time>
      </trkpt>
      <trkpt lat="46.49848" lon="5.72823">
        <ele>603.8</ele>
        <time>2022-05-21T14:38:32Z</time>
      </trkpt>
      <trkpt lat="46.49846" lon="5.72797">
        <ele>603</ele>
        <time>2022-05-21T14:38:34Z</time>
      </trkpt>
      <trkpt lat="46.49846" lon="5.72771">
        <ele>602.8</ele>
        <time>2022-05-21T14:38:36Z</time>
      </trkpt>
      <trkpt lat="46.49848" lon="5.72755">
        <ele>602.6</ele>
        <time>2022-05-21T14:38:37Z</time>
      </trkpt>
      <trkpt lat="46.49852" lon="5.72742">
        <ele>602.4</ele>
        <time>2022-05-21T14:38:38Z</time>
      </trkpt>
      <trkpt lat="46.49861" lon="5.72719">
        <ele>601.4</ele>
        <time>2022-05-21T14:38:40Z</time>
      </trkpt>
      <trkpt lat="46.49865" lon="5.7271">
        <ele>601</ele>
        <time>2022-05-21T14:38:41Z</time>
      </trkpt>
      <trkpt lat="46.49869" lon="5.727">
        <ele>600.6</ele>
        <time>2022-05-21T14:38:42Z</time>
      </trkpt>
      <trkpt lat="46.49873" lon="5.72689">
        <ele>600.4</ele>
        <time>2022-05-21T14:38:43Z</time>
      </trkpt>
      <trkpt lat="46.49881" lon="5.72668">
        <ele>600</ele>
        <time>2022-05-21T14:38:45Z</time>
      </trkpt>
      <trkpt lat="46.49902" lon="5.72617">
        <ele>599.4</ele>
        <time>2022-05-21T14:38:50Z</time>
      </trkpt>
      <trkpt lat="46.49907" lon="5.72608">
        <ele>599.4</ele>
        <time>2022-05-21T14:38:51Z</time>
      </trkpt>
      <trkpt lat="46.49911" lon="5.72599">
        <ele>599.2</ele>
        <time>2022-05-21T14:38:52Z</time>
      </trkpt>
      <trkpt lat="46.49925" lon="5.7257">
        <ele>598.4</ele>
        <time>2022-05-21T14:38:55Z</time>
      </trkpt>
      <trkpt lat="46.49925" lon="5.72548">
        <ele>597.4</ele>
        <time>2022-05-21T14:38:57Z</time>
      </trkpt>
      <trkpt lat="46.49925" lon="5.72536">
        <ele>597.4</ele>
        <time>2022-05-21T14:38:58Z</time>
      </trkpt>
      <trkpt lat="46.49924" lon="5.72525">
        <ele>597.2</ele>
        <time>2022-05-21T14:38:59Z</time>
      </trkpt>
      <trkpt lat="46.49921" lon="5.72492">
        <ele>596.8</ele>
        <time>2022-05-21T14:39:02Z</time>
      </trkpt>
      <trkpt lat="46.49922" lon="5.72482">
        <ele>596.8</ele>
        <time>2022-05-21T14:39:03Z</time>
      </trkpt>
      <trkpt lat="46.49923" lon="5.72462">
        <ele>596.6</ele>
        <time>2022-05-21T14:39:05Z</time>
      </trkpt>
      <trkpt lat="46.49923" lon="5.72452">
        <ele>596.4</ele>
        <time>2022-05-21T14:39:06Z</time>
      </trkpt>
      <trkpt lat="46.49924" lon="5.72432">
        <ele>596.2</ele>
        <time>2022-05-21T14:39:08Z</time>
      </trkpt>
      <trkpt lat="46.49925" lon="5.72412">
        <ele>596</ele>
        <time>2022-05-21T14:39:10Z</time>
      </trkpt>
      <trkpt lat="46.49925" lon="5.7237">
        <ele>596</ele>
        <time>2022-05-21T14:39:14Z</time>
      </trkpt>
      <trkpt lat="46.49925" lon="5.7236">
        <ele>596</ele>
        <time>2022-05-21T14:39:15Z</time>
      </trkpt>
      <trkpt lat="46.49926" lon="5.7232">
        <ele>596</ele>
        <time>2022-05-21T14:39:19Z</time>
      </trkpt>
      <trkpt lat="46.49926" lon="5.72309">
        <ele>596</ele>
        <time>2022-05-21T14:39:20Z</time>
      </trkpt>
      <trkpt lat="46.4993" lon="5.72243">
        <ele>596</ele>
        <time>2022-05-21T14:39:27Z</time>
      </trkpt>
      <trkpt lat="46.49937" lon="5.72227">
        <ele>596</ele>
        <time>2022-05-21T14:39:29Z</time>
      </trkpt>
      <trkpt lat="46.49941" lon="5.7222">
        <ele>596</ele>
        <time>2022-05-21T14:39:30Z</time>
      </trkpt>
      <trkpt lat="46.49947" lon="5.72213">
        <ele>595.8</ele>
        <time>2022-05-21T14:39:31Z</time>
      </trkpt>
      <trkpt lat="46.49966" lon="5.72194">
        <ele>595.4</ele>
        <time>2022-05-21T14:39:34Z</time>
      </trkpt>
      <trkpt lat="46.49994" lon="5.72166">
        <ele>594.2</ele>
        <time>2022-05-21T14:39:38Z</time>
      </trkpt>
      <trkpt lat="46.5" lon="5.72158">
        <ele>593.4</ele>
        <time>2022-05-21T14:39:39Z</time>
      </trkpt>
      <trkpt lat="46.50006" lon="5.72148">
        <ele>593</ele>
        <time>2022-05-21T14:39:40Z</time>
      </trkpt>
      <trkpt lat="46.50028" lon="5.72109">
        <ele>592.4</ele>
        <time>2022-05-21T14:39:44Z</time>
      </trkpt>
      <trkpt lat="46.50037" lon="5.72086">
        <ele>591.8</ele>
        <time>2022-05-21T14:39:46Z</time>
      </trkpt>
      <trkpt lat="46.50056" lon="5.7204">
        <ele>590.8</ele>
        <time>2022-05-21T14:39:50Z</time>
      </trkpt>
      <trkpt lat="46.50088" lon="5.71963">
        <ele>590</ele>
        <time>2022-05-21T14:39:57Z</time>
      </trkpt>
      <trkpt lat="46.50093" lon="5.71953">
        <ele>589.8</ele>
        <time>2022-05-21T14:39:58Z</time>
      </trkpt>
      <trkpt lat="46.50103" lon="5.71935">
        <ele>588.6</ele>
        <time>2022-05-21T14:40:00Z</time>
      </trkpt>
      <trkpt lat="46.50109" lon="5.71927">
        <ele>588.4</ele>
        <time>2022-05-21T14:40:01Z</time>
      </trkpt>
      <trkpt lat="46.50116" lon="5.71919">
        <ele>588.2</ele>
        <time>2022-05-21T14:40:02Z</time>
      </trkpt>
      <trkpt lat="46.50154" lon="5.71865">
        <ele>587.8</ele>
        <time>2022-05-21T14:40:09Z</time>
      </trkpt>
      <trkpt lat="46.50196" lon="5.71803">
        <ele>589.2</ele>
        <time>2022-05-21T14:40:17Z</time>
      </trkpt>
      <trkpt lat="46.5023" lon="5.7175">
        <ele>589.2</ele>
        <time>2022-05-21T14:40:24Z</time>
      </trkpt>
      <trkpt lat="46.50243" lon="5.71719">
        <ele>588.2</ele>
        <time>2022-05-21T14:40:27Z</time>
      </trkpt>
      <trkpt lat="46.50246" lon="5.71706">
        <ele>587.8</ele>
        <time>2022-05-21T14:40:28Z</time>
      </trkpt>
      <trkpt lat="46.50249" lon="5.71693">
        <ele>587.6</ele>
        <time>2022-05-21T14:40:29Z</time>
      </trkpt>
      <trkpt lat="46.50253" lon="5.7168">
        <ele>587</ele>
        <time>2022-05-21T14:40:30Z</time>
      </trkpt>
      <trkpt lat="46.50263" lon="5.71654">
        <ele>586</ele>
        <time>2022-05-21T14:40:32Z</time>
      </trkpt>
      <trkpt lat="46.50281" lon="5.71618">
        <ele>584.2</ele>
        <time>2022-05-21T14:40:35Z</time>
      </trkpt>
      <trkpt lat="46.50287" lon="5.71605">
        <ele>582.8</ele>
        <time>2022-05-21T14:40:36Z</time>
      </trkpt>
      <trkpt lat="46.50294" lon="5.71593">
        <ele>581.8</ele>
        <time>2022-05-21T14:40:37Z</time>
      </trkpt>
      <trkpt lat="46.50308" lon="5.71568">
        <ele>580.4</ele>
        <time>2022-05-21T14:40:39Z</time>
      </trkpt>
      <trkpt lat="46.50324" lon="5.71545">
        <ele>578.8</ele>
        <time>2022-05-21T14:40:41Z</time>
      </trkpt>
      <trkpt lat="46.50341" lon="5.71522">
        <ele>577.4</ele>
        <time>2022-05-21T14:40:43Z</time>
      </trkpt>
      <trkpt lat="46.5035" lon="5.7151">
        <ele>576.8</ele>
        <time>2022-05-21T14:40:44Z</time>
      </trkpt>
      <trkpt lat="46.50367" lon="5.71487">
        <ele>575.6</ele>
        <time>2022-05-21T14:40:46Z</time>
      </trkpt>
      <trkpt lat="46.50401" lon="5.71441">
        <ele>574.2</ele>
        <time>2022-05-21T14:40:50Z</time>
      </trkpt>
      <trkpt lat="46.50409" lon="5.71429">
        <ele>573.6</ele>
        <time>2022-05-21T14:40:51Z</time>
      </trkpt>
      <trkpt lat="46.50425" lon="5.71405">
        <ele>573</ele>
        <time>2022-05-21T14:40:53Z</time>
      </trkpt>
      <trkpt lat="46.50454" lon="5.71354">
        <ele>572</ele>
        <time>2022-05-21T14:40:57Z</time>
      </trkpt>
      <trkpt lat="46.5046" lon="5.71341">
        <ele>571.6</ele>
        <time>2022-05-21T14:40:58Z</time>
      </trkpt>
      <trkpt lat="46.50478" lon="5.713">
        <ele>570.2</ele>
        <time>2022-05-21T14:41:01Z</time>
      </trkpt>
      <trkpt lat="46.5049" lon="5.71272">
        <ele>569.4</ele>
        <time>2022-05-21T14:41:03Z</time>
      </trkpt>
      <trkpt lat="46.50496" lon="5.71258">
        <ele>569</ele>
        <time>2022-05-21T14:41:04Z</time>
      </trkpt>
      <trkpt lat="46.50502" lon="5.71244">
        <ele>568.8</ele>
        <time>2022-05-21T14:41:05Z</time>
      </trkpt>
      <trkpt lat="46.5052" lon="5.71201">
        <ele>568</ele>
        <time>2022-05-21T14:41:08Z</time>
      </trkpt>
      <trkpt lat="46.50532" lon="5.71173">
        <ele>566.6</ele>
        <time>2022-05-21T14:41:10Z</time>
      </trkpt>
      <trkpt lat="46.50544" lon="5.71144">
        <ele>565.2</ele>
        <time>2022-05-21T14:41:12Z</time>
      </trkpt>
      <trkpt lat="46.50563" lon="5.71102">
        <ele>564.4</ele>
        <time>2022-05-21T14:41:15Z</time>
      </trkpt>
      <trkpt lat="46.50575" lon="5.71074">
        <ele>563.4</ele>
        <time>2022-05-21T14:41:17Z</time>
      </trkpt>
      <trkpt lat="46.50586" lon="5.71047">
        <ele>562.2</ele>
        <time>2022-05-21T14:41:19Z</time>
      </trkpt>
      <trkpt lat="46.50604" lon="5.71008">
        <ele>561</ele>
        <time>2022-05-21T14:41:22Z</time>
      </trkpt>
      <trkpt lat="46.5061" lon="5.70996">
        <ele>560.6</ele>
        <time>2022-05-21T14:41:23Z</time>
      </trkpt>
      <trkpt lat="46.50649" lon="5.70927">
        <ele>560.2</ele>
        <time>2022-05-21T14:41:29Z</time>
      </trkpt>
      <trkpt lat="46.50676" lon="5.70884">
        <ele>560</ele>
        <time>2022-05-21T14:41:33Z</time>
      </trkpt>
      <trkpt lat="46.5071" lon="5.70831">
        <ele>559</ele>
        <time>2022-05-21T14:41:38Z</time>
      </trkpt>
      <trkpt lat="46.50716" lon="5.7082">
        <ele>558.8</ele>
        <time>2022-05-21T14:41:39Z</time>
      </trkpt>
      <trkpt lat="46.50743" lon="5.70779">
        <ele>557.8</ele>
        <time>2022-05-21T14:41:43Z</time>
      </trkpt>
      <trkpt lat="46.50755" lon="5.70759">
        <ele>556.8</ele>
        <time>2022-05-21T14:41:45Z</time>
      </trkpt>
      <trkpt lat="46.50774" lon="5.70729">
        <ele>555.8</ele>
        <time>2022-05-21T14:41:48Z</time>
      </trkpt>
      <trkpt lat="46.5078" lon="5.7072">
        <ele>555.6</ele>
        <time>2022-05-21T14:41:49Z</time>
      </trkpt>
      <trkpt lat="46.50817" lon="5.70661">
        <ele>554.8</ele>
        <time>2022-05-21T14:41:55Z</time>
      </trkpt>
      <trkpt lat="46.50824" lon="5.70651">
        <ele>554.8</ele>
        <time>2022-05-21T14:41:56Z</time>
      </trkpt>
      <trkpt lat="46.50861" lon="5.70591">
        <ele>554.6</ele>
        <time>2022-05-21T14:42:02Z</time>
      </trkpt>
      <trkpt lat="46.50867" lon="5.70581">
        <ele>554.6</ele>
        <time>2022-05-21T14:42:03Z</time>
      </trkpt>
      <trkpt lat="46.50892" lon="5.70541">
        <ele>553.4</ele>
        <time>2022-05-21T14:42:07Z</time>
      </trkpt>
      <trkpt lat="46.50924" lon="5.7049">
        <ele>552.2</ele>
        <time>2022-05-21T14:42:12Z</time>
      </trkpt>
      <trkpt lat="46.5095" lon="5.7045">
        <ele>551.4</ele>
        <time>2022-05-21T14:42:16Z</time>
      </trkpt>
      <trkpt lat="46.50956" lon="5.7044">
        <ele>550.8</ele>
        <time>2022-05-21T14:42:17Z</time>
      </trkpt>
      <trkpt lat="46.50994" lon="5.70379">
        <ele>550</ele>
        <time>2022-05-21T14:42:23Z</time>
      </trkpt>
      <trkpt lat="46.51018" lon="5.70339">
        <ele>549.4</ele>
        <time>2022-05-21T14:42:27Z</time>
      </trkpt>
      <trkpt lat="46.51054" lon="5.70268">
        <ele>549.4</ele>
        <time>2022-05-21T14:42:34Z</time>
      </trkpt>
      <trkpt lat="46.51072" lon="5.70225">
        <ele>548.8</ele>
        <time>2022-05-21T14:42:38Z</time>
      </trkpt>
      <trkpt lat="46.51084" lon="5.70192">
        <ele>548.6</ele>
        <time>2022-05-21T14:42:41Z</time>
      </trkpt>
      <trkpt lat="46.51113" lon="5.70111">
        <ele>548.2</ele>
        <time>2022-05-21T14:42:48Z</time>
      </trkpt>
      <trkpt lat="46.51117" lon="5.70099">
        <ele>548</ele>
        <time>2022-05-21T14:42:49Z</time>
      </trkpt>
      <trkpt lat="46.51131" lon="5.70063">
        <ele>547.2</ele>
        <time>2022-05-21T14:42:52Z</time>
      </trkpt>
      <trkpt lat="46.51135" lon="5.70051">
        <ele>546.8</ele>
        <time>2022-05-21T14:42:53Z</time>
      </trkpt>
      <trkpt lat="46.51157" lon="5.69991">
        <ele>545.4</ele>
        <time>2022-05-21T14:42:58Z</time>
      </trkpt>
      <trkpt lat="46.51179" lon="5.69929">
        <ele>544</ele>
        <time>2022-05-21T14:43:03Z</time>
      </trkpt>
      <trkpt lat="46.51203" lon="5.69854">
        <ele>543.4</ele>
        <time>2022-05-21T14:43:09Z</time>
      </trkpt>
      <trkpt lat="46.51207" lon="5.69841">
        <ele>543.2</ele>
        <time>2022-05-21T14:43:10Z</time>
      </trkpt>
      <trkpt lat="46.5121" lon="5.69828">
        <ele>543</ele>
        <time>2022-05-21T14:43:11Z</time>
      </trkpt>
      <trkpt lat="46.51221" lon="5.69774">
        <ele>542</ele>
        <time>2022-05-21T14:43:15Z</time>
      </trkpt>
      <trkpt lat="46.51227" lon="5.69732">
        <ele>541</ele>
        <time>2022-05-21T14:43:18Z</time>
      </trkpt>
      <trkpt lat="46.51229" lon="5.69718">
        <ele>540.8</ele>
        <time>2022-05-21T14:43:19Z</time>
      </trkpt>
      <trkpt lat="46.51234" lon="5.69645">
        <ele>539.6</ele>
        <time>2022-05-21T14:43:24Z</time>
      </trkpt>
      <trkpt lat="46.51235" lon="5.6963">
        <ele>539.4</ele>
        <time>2022-05-21T14:43:25Z</time>
      </trkpt>
      <trkpt lat="46.51235" lon="5.69601">
        <ele>538.2</ele>
        <time>2022-05-21T14:43:27Z</time>
      </trkpt>
      <trkpt lat="46.51232" lon="5.69542">
        <ele>537.2</ele>
        <time>2022-05-21T14:43:31Z</time>
      </trkpt>
      <trkpt lat="46.51231" lon="5.69527">
        <ele>537</ele>
        <time>2022-05-21T14:43:32Z</time>
      </trkpt>
      <trkpt lat="46.51223" lon="5.69468">
        <ele>536</ele>
        <time>2022-05-21T14:43:36Z</time>
      </trkpt>
      <trkpt lat="46.51218" lon="5.69438">
        <ele>535.4</ele>
        <time>2022-05-21T14:43:38Z</time>
      </trkpt>
      <trkpt lat="46.51211" lon="5.69408">
        <ele>534.8</ele>
        <time>2022-05-21T14:43:40Z</time>
      </trkpt>
      <trkpt lat="46.51198" lon="5.69346">
        <ele>533.6</ele>
        <time>2022-05-21T14:43:44Z</time>
      </trkpt>
      <trkpt lat="46.51195" lon="5.6933">
        <ele>532.6</ele>
        <time>2022-05-21T14:43:45Z</time>
      </trkpt>
      <trkpt lat="46.51189" lon="5.69295">
        <ele>531.2</ele>
        <time>2022-05-21T14:43:47Z</time>
      </trkpt>
      <trkpt lat="46.51184" lon="5.69259">
        <ele>529.8</ele>
        <time>2022-05-21T14:43:49Z</time>
      </trkpt>
      <trkpt lat="46.51183" lon="5.6924">
        <ele>529.4</ele>
        <time>2022-05-21T14:43:50Z</time>
      </trkpt>
      <trkpt lat="46.51183" lon="5.6922">
        <ele>528.8</ele>
        <time>2022-05-21T14:43:51Z</time>
      </trkpt>
      <trkpt lat="46.51183" lon="5.6918">
        <ele>527.4</ele>
        <time>2022-05-21T14:43:53Z</time>
      </trkpt>
      <trkpt lat="46.51185" lon="5.6916">
        <ele>526.4</ele>
        <time>2022-05-21T14:43:54Z</time>
      </trkpt>
      <trkpt lat="46.51187" lon="5.69139">
        <ele>525</ele>
        <time>2022-05-21T14:43:55Z</time>
      </trkpt>
      <trkpt lat="46.51194" lon="5.69099">
        <ele>522.8</ele>
        <time>2022-05-21T14:43:57Z</time>
      </trkpt>
      <trkpt lat="46.51198" lon="5.69079">
        <ele>521.8</ele>
        <time>2022-05-21T14:43:58Z</time>
      </trkpt>
      <trkpt lat="46.51203" lon="5.69059">
        <ele>520.4</ele>
        <time>2022-05-21T14:43:59Z</time>
      </trkpt>
      <trkpt lat="46.51215" lon="5.6902">
        <ele>517.8</ele>
        <time>2022-05-21T14:44:01Z</time>
      </trkpt>
      <trkpt lat="46.5122" lon="5.69">
        <ele>516</ele>
        <time>2022-05-21T14:44:02Z</time>
      </trkpt>
      <trkpt lat="46.51226" lon="5.68981">
        <ele>515.4</ele>
        <time>2022-05-21T14:44:03Z</time>
      </trkpt>
      <trkpt lat="46.51232" lon="5.68962">
        <ele>513.8</ele>
        <time>2022-05-21T14:44:04Z</time>
      </trkpt>
      <trkpt lat="46.51242" lon="5.68922">
        <ele>511.8</ele>
        <time>2022-05-21T14:44:06Z</time>
      </trkpt>
      <trkpt lat="46.5125" lon="5.68881">
        <ele>509.8</ele>
        <time>2022-05-21T14:44:08Z</time>
      </trkpt>
      <trkpt lat="46.51256" lon="5.6884">
        <ele>508.4</ele>
        <time>2022-05-21T14:44:10Z</time>
      </trkpt>
      <trkpt lat="46.51259" lon="5.68819">
        <ele>506.8</ele>
        <time>2022-05-21T14:44:11Z</time>
      </trkpt>
      <trkpt lat="46.51264" lon="5.68778">
        <ele>505.2</ele>
        <time>2022-05-21T14:44:13Z</time>
      </trkpt>
      <trkpt lat="46.51267" lon="5.68758">
        <ele>504.6</ele>
        <time>2022-05-21T14:44:14Z</time>
      </trkpt>
      <trkpt lat="46.5127" lon="5.68738">
        <ele>502.6</ele>
        <time>2022-05-21T14:44:15Z</time>
      </trkpt>
      <trkpt lat="46.51273" lon="5.68718">
        <ele>500.6</ele>
        <time>2022-05-21T14:44:16Z</time>
      </trkpt>
      <trkpt lat="46.5128" lon="5.68678">
        <ele>499</ele>
        <time>2022-05-21T14:44:18Z</time>
      </trkpt>
      <trkpt lat="46.51284" lon="5.68658">
        <ele>498.6</ele>
        <time>2022-05-21T14:44:19Z</time>
      </trkpt>
      <trkpt lat="46.51288" lon="5.68638">
        <ele>497.4</ele>
        <time>2022-05-21T14:44:20Z</time>
      </trkpt>
      <trkpt lat="46.51296" lon="5.68599">
        <ele>495.4</ele>
        <time>2022-05-21T14:44:22Z</time>
      </trkpt>
      <trkpt lat="46.513" lon="5.68579">
        <ele>494.2</ele>
        <time>2022-05-21T14:44:23Z</time>
      </trkpt>
      <trkpt lat="46.51308" lon="5.6854">
        <ele>492.8</ele>
        <time>2022-05-21T14:44:25Z</time>
      </trkpt>
      <trkpt lat="46.51316" lon="5.685">
        <ele>491.2</ele>
        <time>2022-05-21T14:44:27Z</time>
      </trkpt>
      <trkpt lat="46.5132" lon="5.68481">
        <ele>490.8</ele>
        <time>2022-05-21T14:44:28Z</time>
      </trkpt>
      <trkpt lat="46.51325" lon="5.68461">
        <ele>489.8</ele>
        <time>2022-05-21T14:44:29Z</time>
      </trkpt>
      <trkpt lat="46.51329" lon="5.68441">
        <ele>488.6</ele>
        <time>2022-05-21T14:44:30Z</time>
      </trkpt>
      <trkpt lat="46.51338" lon="5.68401">
        <ele>487.2</ele>
        <time>2022-05-21T14:44:32Z</time>
      </trkpt>
      <trkpt lat="46.51348" lon="5.68362">
        <ele>485.2</ele>
        <time>2022-05-21T14:44:34Z</time>
      </trkpt>
      <trkpt lat="46.51359" lon="5.68322">
        <ele>483.4</ele>
        <time>2022-05-21T14:44:36Z</time>
      </trkpt>
      <trkpt lat="46.51369" lon="5.68283">
        <ele>482</ele>
        <time>2022-05-21T14:44:38Z</time>
      </trkpt>
      <trkpt lat="46.51374" lon="5.68264">
        <ele>480.8</ele>
        <time>2022-05-21T14:44:39Z</time>
      </trkpt>
      <trkpt lat="46.51384" lon="5.68227">
        <ele>479</ele>
        <time>2022-05-21T14:44:41Z</time>
      </trkpt>
      <trkpt lat="46.51389" lon="5.68209">
        <ele>478.6</ele>
        <time>2022-05-21T14:44:42Z</time>
      </trkpt>
      <trkpt lat="46.51397" lon="5.68175">
        <ele>477.8</ele>
        <time>2022-05-21T14:44:44Z</time>
      </trkpt>
      <trkpt lat="46.51406" lon="5.68125">
        <ele>477</ele>
        <time>2022-05-21T14:44:47Z</time>
      </trkpt>
      <trkpt lat="46.51408" lon="5.68109">
        <ele>476.8</ele>
        <time>2022-05-21T14:44:48Z</time>
      </trkpt>
      <trkpt lat="46.51415" lon="5.68045">
        <ele>476.6</ele>
        <time>2022-05-21T14:44:52Z</time>
      </trkpt>
      <trkpt lat="46.51423" lon="5.67968">
        <ele>476.2</ele>
        <time>2022-05-21T14:44:57Z</time>
      </trkpt>
      <trkpt lat="46.51436" lon="5.67911">
        <ele>476</ele>
        <time>2022-05-21T14:45:01Z</time>
      </trkpt>
      <trkpt lat="46.5144" lon="5.67897">
        <ele>475.8</ele>
        <time>2022-05-21T14:45:02Z</time>
      </trkpt>
      <trkpt lat="46.51458" lon="5.67845">
        <ele>475.8</ele>
        <time>2022-05-21T14:45:06Z</time>
      </trkpt>
      <trkpt lat="46.51489" lon="5.67771">
        <ele>475.4</ele>
        <time>2022-05-21T14:45:12Z</time>
      </trkpt>
      <trkpt lat="46.515" lon="5.67748">
        <ele>475.4</ele>
        <time>2022-05-21T14:45:14Z</time>
      </trkpt>
      <trkpt lat="46.51515" lon="5.67713">
        <ele>475</ele>
        <time>2022-05-21T14:45:17Z</time>
      </trkpt>
      <trkpt lat="46.51541" lon="5.67654">
        <ele>474.4</ele>
        <time>2022-05-21T14:45:22Z</time>
      </trkpt>
      <trkpt lat="46.51571" lon="5.67586">
        <ele>474</ele>
        <time>2022-05-21T14:45:28Z</time>
      </trkpt>
      <trkpt lat="46.51585" lon="5.67552">
        <ele>473.8</ele>
        <time>2022-05-21T14:45:31Z</time>
      </trkpt>
      <trkpt lat="46.51614" lon="5.67485">
        <ele>473.6</ele>
        <time>2022-05-21T14:45:37Z</time>
      </trkpt>
      <trkpt lat="46.51629" lon="5.67453">
        <ele>473.2</ele>
        <time>2022-05-21T14:45:40Z</time>
      </trkpt>
      <trkpt lat="46.51647" lon="5.6741">
        <ele>472.6</ele>
        <time>2022-05-21T14:45:44Z</time>
      </trkpt>
      <trkpt lat="46.51666" lon="5.67368">
        <ele>472.2</ele>
        <time>2022-05-21T14:45:48Z</time>
      </trkpt>
      <trkpt lat="46.51678" lon="5.67351">
        <ele>471.8</ele>
        <time>2022-05-21T14:45:50Z</time>
      </trkpt>
      <trkpt lat="46.51708" lon="5.67327">
        <ele>471.6</ele>
        <time>2022-05-21T14:45:54Z</time>
      </trkpt>
      <trkpt lat="46.51764" lon="5.67289">
        <ele>471.4</ele>
        <time>2022-05-21T14:46:01Z</time>
      </trkpt>
      <trkpt lat="46.5177" lon="5.67285">
        <ele>471.4</ele>
        <time>2022-05-21T14:46:02Z</time>
      </trkpt>
      <trkpt lat="46.51778" lon="5.67279">
        <ele>471.4</ele>
        <time>2022-05-21T14:46:03Z</time>
      </trkpt>
      <trkpt lat="46.51829" lon="5.67234">
        <ele>470.4</ele>
        <time>2022-05-21T14:46:10Z</time>
      </trkpt>
      <trkpt lat="46.51836" lon="5.67227">
        <ele>470.4</ele>
        <time>2022-05-21T14:46:11Z</time>
      </trkpt>
      <trkpt lat="46.51886" lon="5.67176">
        <ele>470.4</ele>
        <time>2022-05-21T14:46:18Z</time>
      </trkpt>
      <trkpt lat="46.51915" lon="5.67146">
        <ele>471</ele>
        <time>2022-05-21T14:46:23Z</time>
      </trkpt>
      <trkpt lat="46.51921" lon="5.67139">
        <ele>471.2</ele>
        <time>2022-05-21T14:46:24Z</time>
      </trkpt>
      <trkpt lat="46.51929" lon="5.67127">
        <ele>471.6</ele>
        <time>2022-05-21T14:46:26Z</time>
      </trkpt>
      <trkpt lat="46.51933" lon="5.67122">
        <ele>471.8</ele>
        <time>2022-05-21T14:46:27Z</time>
      </trkpt>
      <trkpt lat="46.5194" lon="5.67112">
        <ele>472.6</ele>
        <time>2022-05-21T14:46:29Z</time>
      </trkpt>
      <trkpt lat="46.51949" lon="5.67099">
        <ele>473.6</ele>
        <time>2022-05-21T14:46:31Z</time>
      </trkpt>
      <trkpt lat="46.51958" lon="5.67082">
        <ele>474.4</ele>
        <time>2022-05-21T14:46:34Z</time>
      </trkpt>
      <trkpt lat="46.51961" lon="5.67076">
        <ele>474.8</ele>
        <time>2022-05-21T14:46:35Z</time>
      </trkpt>
      <trkpt lat="46.51964" lon="5.67071">
        <ele>475</ele>
        <time>2022-05-21T14:46:36Z</time>
      </trkpt>
      <trkpt lat="46.5197" lon="5.67052">
        <ele>476.4</ele>
        <time>2022-05-21T14:46:39Z</time>
      </trkpt>
      <trkpt lat="46.51973" lon="5.67046">
        <ele>477</ele>
        <time>2022-05-21T14:46:40Z</time>
      </trkpt>
      <trkpt lat="46.51977" lon="5.67033">
        <ele>477.6</ele>
        <time>2022-05-21T14:46:42Z</time>
      </trkpt>
      <trkpt lat="46.51984" lon="5.66997">
        <ele>478.6</ele>
        <time>2022-05-21T14:46:47Z</time>
      </trkpt>
      <trkpt lat="46.51985" lon="5.66991">
        <ele>478.8</ele>
        <time>2022-05-21T14:46:48Z</time>
      </trkpt>
      <trkpt lat="46.51989" lon="5.66962">
        <ele>479.8</ele>
        <time>2022-05-21T14:46:52Z</time>
      </trkpt>
      <trkpt lat="46.51991" lon="5.66941">
        <ele>480.2</ele>
        <time>2022-05-21T14:46:55Z</time>
      </trkpt>
      <trkpt lat="46.51993" lon="5.6693">
        <ele>480.8</ele>
        <time>2022-05-21T14:46:57Z</time>
      </trkpt>
      <trkpt lat="46.51999" lon="5.66906">
        <ele>482</ele>
        <time>2022-05-21T14:47:01Z</time>
      </trkpt>
      <trkpt lat="46.52002" lon="5.66893">
        <ele>482.4</ele>
        <time>2022-05-21T14:47:03Z</time>
      </trkpt>
      <trkpt lat="46.52007" lon="5.66877">
        <ele>483.2</ele>
        <time>2022-05-21T14:47:06Z</time>
      </trkpt>
      <trkpt lat="46.52012" lon="5.66864">
        <ele>483.8</ele>
        <time>2022-05-21T14:47:08Z</time>
      </trkpt>
      <trkpt lat="46.52023" lon="5.66836">
        <ele>484.4</ele>
        <time>2022-05-21T14:47:13Z</time>
      </trkpt>
      <trkpt lat="46.5203" lon="5.66826">
        <ele>484.6</ele>
        <time>2022-05-21T14:47:15Z</time>
      </trkpt>
      <trkpt lat="46.52055" lon="5.66786">
        <ele>484.8</ele>
        <time>2022-05-21T14:47:22Z</time>
      </trkpt>
      <trkpt lat="46.5206" lon="5.6678">
        <ele>484.8</ele>
        <time>2022-05-21T14:47:23Z</time>
      </trkpt>
      <trkpt lat="46.52093" lon="5.66742">
        <ele>484.2</ele>
        <time>2022-05-21T14:47:29Z</time>
      </trkpt>
      <trkpt lat="46.52111" lon="5.66724">
        <ele>483.2</ele>
        <time>2022-05-21T14:47:32Z</time>
      </trkpt>
      <trkpt lat="46.52126" lon="5.66707">
        <ele>482.4</ele>
        <time>2022-05-21T14:47:34Z</time>
      </trkpt>
      <trkpt lat="46.52137" lon="5.66692">
        <ele>482</ele>
        <time>2022-05-21T14:47:36Z</time>
      </trkpt>
      <trkpt lat="46.52161" lon="5.66664">
        <ele>480.8</ele>
        <time>2022-05-21T14:47:39Z</time>
      </trkpt>
      <trkpt lat="46.52172" lon="5.66649">
        <ele>480</ele>
        <time>2022-05-21T14:47:41Z</time>
      </trkpt>
      <trkpt lat="46.52181" lon="5.66639">
        <ele>479.8</ele>
        <time>2022-05-21T14:47:42Z</time>
      </trkpt>
      <trkpt lat="46.52203" lon="5.66613">
        <ele>478.4</ele>
        <time>2022-05-21T14:47:45Z</time>
      </trkpt>
      <trkpt lat="46.52232" lon="5.66576">
        <ele>478</ele>
        <time>2022-05-21T14:47:50Z</time>
      </trkpt>
      <trkpt lat="46.52253" lon="5.66547">
        <ele>478.6</ele>
        <time>2022-05-21T14:47:55Z</time>
      </trkpt>
      <trkpt lat="46.52263" lon="5.66534">
        <ele>479.4</ele>
        <time>2022-05-21T14:47:58Z</time>
      </trkpt>
      <trkpt lat="46.52264" lon="5.66528">
        <ele>480</ele>
        <time>2022-05-21T14:47:59Z</time>
      </trkpt>
      <trkpt lat="46.52265" lon="5.66522">
        <ele>480.2</ele>
        <time>2022-05-21T14:48:00Z</time>
      </trkpt>
      <trkpt lat="46.52263" lon="5.66515">
        <ele>480.6</ele>
        <time>2022-05-21T14:48:01Z</time>
      </trkpt>
      <trkpt lat="46.5226" lon="5.66508">
        <ele>480.8</ele>
        <time>2022-05-21T14:48:02Z</time>
      </trkpt>
      <trkpt lat="46.52245" lon="5.66489">
        <ele>481</ele>
        <time>2022-05-21T14:48:05Z</time>
      </trkpt>
      <trkpt lat="46.52229" lon="5.66482">
        <ele>481</ele>
        <time>2022-05-21T14:48:07Z</time>
      </trkpt>
      <trkpt lat="46.5222" lon="5.66481">
        <ele>481.2</ele>
        <time>2022-05-21T14:48:08Z</time>
      </trkpt>
      <trkpt lat="46.52178" lon="5.66484">
        <ele>480.4</ele>
        <time>2022-05-21T14:48:12Z</time>
      </trkpt>
      <trkpt lat="46.52158" lon="5.66485">
        <ele>479.4</ele>
        <time>2022-05-21T14:48:14Z</time>
      </trkpt>
      <trkpt lat="46.52138" lon="5.66485">
        <ele>477.4</ele>
        <time>2022-05-21T14:48:16Z</time>
      </trkpt>
      <trkpt lat="46.5212" lon="5.66485">
        <ele>476.4</ele>
        <time>2022-05-21T14:48:18Z</time>
      </trkpt>
      <trkpt lat="46.52111" lon="5.66485">
        <ele>476</ele>
        <time>2022-05-21T14:48:19Z</time>
      </trkpt>
      <trkpt lat="46.52085" lon="5.66479">
        <ele>475.2</ele>
        <time>2022-05-21T14:48:22Z</time>
      </trkpt>
      <trkpt lat="46.5206" lon="5.66467">
        <ele>475</ele>
        <time>2022-05-21T14:48:25Z</time>
      </trkpt>
      <trkpt lat="46.52044" lon="5.66458">
        <ele>475</ele>
        <time>2022-05-21T14:48:27Z</time>
      </trkpt>
      <trkpt lat="46.51993" lon="5.66425">
        <ele>474.4</ele>
        <time>2022-05-21T14:48:34Z</time>
      </trkpt>
      <trkpt lat="46.51955" lon="5.66393">
        <ele>475.6</ele>
        <time>2022-05-21T14:48:40Z</time>
      </trkpt>
      <trkpt lat="46.51913" lon="5.66358">
        <ele>475.8</ele>
        <time>2022-05-21T14:48:46Z</time>
      </trkpt>
      <trkpt lat="46.51868" lon="5.66321">
        <ele>474.2</ele>
        <time>2022-05-21T14:48:52Z</time>
      </trkpt>
      <trkpt lat="46.51861" lon="5.66315">
        <ele>474</ele>
        <time>2022-05-21T14:48:53Z</time>
      </trkpt>
      <trkpt lat="46.51821" lon="5.66291">
        <ele>473.6</ele>
        <time>2022-05-21T14:48:58Z</time>
      </trkpt>
      <trkpt lat="46.51787" lon="5.66273">
        <ele>473</ele>
        <time>2022-05-21T14:49:02Z</time>
      </trkpt>
      <trkpt lat="46.5177" lon="5.66262">
        <ele>472.8</ele>
        <time>2022-05-21T14:49:04Z</time>
      </trkpt>
      <trkpt lat="46.51715" lon="5.66221">
        <ele>472</ele>
        <time>2022-05-21T14:49:11Z</time>
      </trkpt>
      <trkpt lat="46.51691" lon="5.66201">
        <ele>471.4</ele>
        <time>2022-05-21T14:49:14Z</time>
      </trkpt>
      <trkpt lat="46.51677" lon="5.66184">
        <ele>471.2</ele>
        <time>2022-05-21T14:49:16Z</time>
      </trkpt>
      <trkpt lat="46.51658" lon="5.6616">
        <ele>471</ele>
        <time>2022-05-21T14:49:19Z</time>
      </trkpt>
      <trkpt lat="46.51625" lon="5.66122">
        <ele>471.4</ele>
        <time>2022-05-21T14:49:24Z</time>
      </trkpt>
      <trkpt lat="46.51572" lon="5.66074">
        <ele>471.2</ele>
        <time>2022-05-21T14:49:31Z</time>
      </trkpt>
      <trkpt lat="46.51557" lon="5.6606">
        <ele>470.2</ele>
        <time>2022-05-21T14:49:33Z</time>
      </trkpt>
      <trkpt lat="46.51526" lon="5.66033">
        <ele>469.2</ele>
        <time>2022-05-21T14:49:37Z</time>
      </trkpt>
      <trkpt lat="46.51518" lon="5.66028">
        <ele>469</ele>
        <time>2022-05-21T14:49:38Z</time>
      </trkpt>
      <trkpt lat="46.51468" lon="5.65998">
        <ele>468.6</ele>
        <time>2022-05-21T14:49:44Z</time>
      </trkpt>
      <trkpt lat="46.5142" lon="5.65979">
        <ele>469</ele>
        <time>2022-05-21T14:49:50Z</time>
      </trkpt>
      <trkpt lat="46.51368" lon="5.65957">
        <ele>469.4</ele>
        <time>2022-05-21T14:49:57Z</time>
      </trkpt>
      <trkpt lat="46.51361" lon="5.65954">
        <ele>469.6</ele>
        <time>2022-05-21T14:49:58Z</time>
      </trkpt>
      <trkpt lat="46.51316" lon="5.65925">
        <ele>469.6</ele>
        <time>2022-05-21T14:50:04Z</time>
      </trkpt>
      <trkpt lat="46.51287" lon="5.659">
        <ele>469.6</ele>
        <time>2022-05-21T14:50:08Z</time>
      </trkpt>
      <trkpt lat="46.51266" lon="5.65879">
        <ele>469.2</ele>
        <time>2022-05-21T14:50:11Z</time>
      </trkpt>
      <trkpt lat="46.51218" lon="5.65826">
        <ele>468.6</ele>
        <time>2022-05-21T14:50:18Z</time>
      </trkpt>
      <trkpt lat="46.51211" lon="5.65819">
        <ele>468</ele>
        <time>2022-05-21T14:50:19Z</time>
      </trkpt>
      <trkpt lat="46.51191" lon="5.65801">
        <ele>467.8</ele>
        <time>2022-05-21T14:50:22Z</time>
      </trkpt>
      <trkpt lat="46.51175" lon="5.65793">
        <ele>467.8</ele>
        <time>2022-05-21T14:50:24Z</time>
      </trkpt>
      <trkpt lat="46.51135" lon="5.65785">
        <ele>467.6</ele>
        <time>2022-05-21T14:50:29Z</time>
      </trkpt>
      <trkpt lat="46.51079" lon="5.6578">
        <ele>467.2</ele>
        <time>2022-05-21T14:50:36Z</time>
      </trkpt>
      <trkpt lat="46.51064" lon="5.65777">
        <ele>467.4</ele>
        <time>2022-05-21T14:50:38Z</time>
      </trkpt>
      <trkpt lat="46.5101" lon="5.65764">
        <ele>467.8</ele>
        <time>2022-05-21T14:50:45Z</time>
      </trkpt>
      <trkpt lat="46.50994" lon="5.65759">
        <ele>467.8</ele>
        <time>2022-05-21T14:50:47Z</time>
      </trkpt>
      <trkpt lat="46.5095" lon="5.6575">
        <ele>468</ele>
        <time>2022-05-21T14:50:53Z</time>
      </trkpt>
      <trkpt lat="46.50898" lon="5.65743">
        <ele>468</ele>
        <time>2022-05-21T14:51:00Z</time>
      </trkpt>
      <trkpt lat="46.50863" lon="5.65725">
        <ele>468.2</ele>
        <time>2022-05-21T14:51:05Z</time>
      </trkpt>
      <trkpt lat="46.50822" lon="5.657">
        <ele>468.4</ele>
        <time>2022-05-21T14:51:11Z</time>
      </trkpt>
      <trkpt lat="46.50816" lon="5.65695">
        <ele>468.6</ele>
        <time>2022-05-21T14:51:12Z</time>
      </trkpt>
      <trkpt lat="46.50809" lon="5.6569">
        <ele>468.4</ele>
        <time>2022-05-21T14:51:13Z</time>
      </trkpt>
      <trkpt lat="46.50784" lon="5.65665">
        <ele>468.6</ele>
        <time>2022-05-21T14:51:17Z</time>
      </trkpt>
      <trkpt lat="46.50743" lon="5.65642">
        <ele>468.8</ele>
        <time>2022-05-21T14:51:23Z</time>
      </trkpt>
      <trkpt lat="46.50695" lon="5.65623">
        <ele>469</ele>
        <time>2022-05-21T14:51:30Z</time>
      </trkpt>
      <trkpt lat="46.50642" lon="5.65604">
        <ele>469.4</ele>
        <time>2022-05-21T14:51:38Z</time>
      </trkpt>
      <trkpt lat="46.50636" lon="5.65603">
        <ele>469.4</ele>
        <time>2022-05-21T14:51:39Z</time>
      </trkpt>
      <trkpt lat="46.50624" lon="5.65601">
        <ele>470</ele>
        <time>2022-05-21T14:51:41Z</time>
      </trkpt>
      <trkpt lat="46.50592" lon="5.65596">
        <ele>470.6</ele>
        <time>2022-05-21T14:51:46Z</time>
      </trkpt>
      <trkpt lat="46.50568" lon="5.65595">
        <ele>471</ele>
        <time>2022-05-21T14:51:50Z</time>
      </trkpt>
      <trkpt lat="46.50526" lon="5.65591">
        <ele>471.4</ele>
        <time>2022-05-21T14:51:57Z</time>
      </trkpt>
      <trkpt lat="46.50485" lon="5.65588">
        <ele>472.4</ele>
        <time>2022-05-21T14:52:04Z</time>
      </trkpt>
      <trkpt lat="46.50468" lon="5.65587">
        <ele>472.6</ele>
        <time>2022-05-21T14:52:07Z</time>
      </trkpt>
      <trkpt lat="46.50458" lon="5.65585">
        <ele>472.8</ele>
        <time>2022-05-21T14:52:09Z</time>
      </trkpt>
      <trkpt lat="46.5045" lon="5.65579">
        <ele>472.8</ele>
        <time>2022-05-21T14:52:11Z</time>
      </trkpt>
      <trkpt lat="46.5045" lon="5.65568">
        <ele>473.2</ele>
        <time>2022-05-21T14:52:13Z</time>
      </trkpt>
      <trkpt lat="46.50465" lon="5.65547">
        <ele>473.2</ele>
        <time>2022-05-21T14:52:17Z</time>
      </trkpt>
      <trkpt lat="46.50495" lon="5.65508">
        <ele>473.2</ele>
        <time>2022-05-21T14:52:23Z</time>
      </trkpt>
      <trkpt lat="46.50532" lon="5.65456">
        <ele>472.6</ele>
        <time>2022-05-21T14:52:30Z</time>
      </trkpt>
      <trkpt lat="46.50538" lon="5.65448">
        <ele>472.4</ele>
        <time>2022-05-21T14:52:31Z</time>
      </trkpt>
      <trkpt lat="46.50573" lon="5.65402">
        <ele>471.4</ele>
        <time>2022-05-21T14:52:37Z</time>
      </trkpt>
      <trkpt lat="46.5059" lon="5.65379">
        <ele>471</ele>
        <time>2022-05-21T14:52:40Z</time>
      </trkpt>
      <trkpt lat="46.50607" lon="5.65355">
        <ele>470.4</ele>
        <time>2022-05-21T14:52:43Z</time>
      </trkpt>
      <trkpt lat="46.50648" lon="5.65299">
        <ele>470</ele>
        <time>2022-05-21T14:52:50Z</time>
      </trkpt>
      <trkpt lat="46.50654" lon="5.65292">
        <ele>469.8</ele>
        <time>2022-05-21T14:52:51Z</time>
      </trkpt>
      <trkpt lat="46.50671" lon="5.65268">
        <ele>469.6</ele>
        <time>2022-05-21T14:52:54Z</time>
      </trkpt>
      <trkpt lat="46.50699" lon="5.65229">
        <ele>469</ele>
        <time>2022-05-21T14:52:59Z</time>
      </trkpt>
      <trkpt lat="46.50733" lon="5.65183">
        <ele>468.6</ele>
        <time>2022-05-21T14:53:05Z</time>
      </trkpt>
      <trkpt lat="46.50744" lon="5.65168">
        <ele>468.6</ele>
        <time>2022-05-21T14:53:07Z</time>
      </trkpt>
      <trkpt lat="46.50784" lon="5.65114">
        <ele>468</ele>
        <time>2022-05-21T14:53:14Z</time>
      </trkpt>
      <trkpt lat="46.50806" lon="5.65082">
        <ele>467.8</ele>
        <time>2022-05-21T14:53:18Z</time>
      </trkpt>
      <trkpt lat="46.5085" lon="5.65022">
        <ele>467.2</ele>
        <time>2022-05-21T14:53:26Z</time>
      </trkpt>
      <trkpt lat="46.50856" lon="5.65014">
        <ele>467.2</ele>
        <time>2022-05-21T14:53:27Z</time>
      </trkpt>
      <trkpt lat="46.50896" lon="5.64959">
        <ele>467.2</ele>
        <time>2022-05-21T14:53:34Z</time>
      </trkpt>
      <trkpt lat="46.50908" lon="5.64943">
        <ele>467.2</ele>
        <time>2022-05-21T14:53:36Z</time>
      </trkpt>
      <trkpt lat="46.50938" lon="5.64902">
        <ele>466.8</ele>
        <time>2022-05-21T14:53:41Z</time>
      </trkpt>
      <trkpt lat="46.50967" lon="5.64862">
        <ele>466.2</ele>
        <time>2022-05-21T14:53:46Z</time>
      </trkpt>
      <trkpt lat="46.51007" lon="5.64808">
        <ele>466</ele>
        <time>2022-05-21T14:53:53Z</time>
      </trkpt>
      <trkpt lat="46.51029" lon="5.64778">
        <ele>466</ele>
        <time>2022-05-21T14:53:57Z</time>
      </trkpt>
      <trkpt lat="46.51067" lon="5.64726">
        <ele>466.2</ele>
        <time>2022-05-21T14:54:04Z</time>
      </trkpt>
      <trkpt lat="46.51108" lon="5.6467">
        <ele>466.2</ele>
        <time>2022-05-21T14:54:12Z</time>
      </trkpt>
      <trkpt lat="46.51149" lon="5.64612">
        <ele>466.6</ele>
        <time>2022-05-21T14:54:20Z</time>
      </trkpt>
      <trkpt lat="46.51154" lon="5.64605">
        <ele>466.4</ele>
        <time>2022-05-21T14:54:21Z</time>
      </trkpt>
      <trkpt lat="46.51196" lon="5.64549">
        <ele>466.2</ele>
        <time>2022-05-21T14:54:29Z</time>
      </trkpt>
      <trkpt lat="46.51207" lon="5.64534">
        <ele>466.2</ele>
        <time>2022-05-21T14:54:31Z</time>
      </trkpt>
      <trkpt lat="46.51222" lon="5.64513">
        <ele>466.2</ele>
        <time>2022-05-21T14:54:34Z</time>
      </trkpt>
      <trkpt lat="46.51263" lon="5.64456">
        <ele>467</ele>
        <time>2022-05-21T14:54:42Z</time>
      </trkpt>
      <trkpt lat="46.51278" lon="5.64435">
        <ele>467</ele>
        <time>2022-05-21T14:54:45Z</time>
      </trkpt>
      <trkpt lat="46.51318" lon="5.6438">
        <ele>467</ele>
        <time>2022-05-21T14:54:53Z</time>
      </trkpt>
      <trkpt lat="46.51353" lon="5.6433">
        <ele>467.6</ele>
        <time>2022-05-21T14:55:00Z</time>
      </trkpt>
      <trkpt lat="46.51358" lon="5.64323">
        <ele>467.6</ele>
        <time>2022-05-21T14:55:01Z</time>
      </trkpt>
      <trkpt lat="46.51402" lon="5.64263">
        <ele>467.8</ele>
        <time>2022-05-21T14:55:10Z</time>
      </trkpt>
      <trkpt lat="46.51411" lon="5.64251">
        <ele>468</ele>
        <time>2022-05-21T14:55:12Z</time>
      </trkpt>
      <trkpt lat="46.51424" lon="5.64233">
        <ele>468.8</ele>
        <time>2022-05-21T14:55:15Z</time>
      </trkpt>
      <trkpt lat="46.51444" lon="5.64205">
        <ele>469.8</ele>
        <time>2022-05-21T14:55:20Z</time>
      </trkpt>
      <trkpt lat="46.51452" lon="5.64194">
        <ele>470</ele>
        <time>2022-05-21T14:55:22Z</time>
      </trkpt>
      <trkpt lat="46.51474" lon="5.64163">
        <ele>470.8</ele>
        <time>2022-05-21T14:55:28Z</time>
      </trkpt>
      <trkpt lat="46.51478" lon="5.64157">
        <ele>471</ele>
        <time>2022-05-21T14:55:29Z</time>
      </trkpt>
      <trkpt lat="46.515" lon="5.64127">
        <ele>472.2</ele>
        <time>2022-05-21T14:55:35Z</time>
      </trkpt>
      <trkpt lat="46.51513" lon="5.64114">
        <ele>472.4</ele>
        <time>2022-05-21T14:55:38Z</time>
      </trkpt>
      <trkpt lat="46.51543" lon="5.641">
        <ele>473.4</ele>
        <time>2022-05-21T14:55:44Z</time>
      </trkpt>
      <trkpt lat="46.51579" lon="5.64089">
        <ele>474.6</ele>
        <time>2022-05-21T14:55:51Z</time>
      </trkpt>
      <trkpt lat="46.51594" lon="5.64085">
        <ele>474.8</ele>
        <time>2022-05-21T14:55:54Z</time>
      </trkpt>
      <trkpt lat="46.51599" lon="5.64084">
        <ele>475</ele>
        <time>2022-05-21T14:55:55Z</time>
      </trkpt>
      <trkpt lat="46.51613" lon="5.64077">
        <ele>475.4</ele>
        <time>2022-05-21T14:55:58Z</time>
      </trkpt>
      <trkpt lat="46.51617" lon="5.64074">
        <ele>475.6</ele>
        <time>2022-05-21T14:55:59Z</time>
      </trkpt>
      <trkpt lat="46.51622" lon="5.6407">
        <ele>475.8</ele>
        <time>2022-05-21T14:56:00Z</time>
      </trkpt>
      <trkpt lat="46.51626" lon="5.64066">
        <ele>476</ele>
        <time>2022-05-21T14:56:01Z</time>
      </trkpt>
      <trkpt lat="46.51636" lon="5.6405">
        <ele>476.8</ele>
        <time>2022-05-21T14:56:04Z</time>
      </trkpt>
      <trkpt lat="46.51639" lon="5.64044">
        <ele>477</ele>
        <time>2022-05-21T14:56:05Z</time>
      </trkpt>
      <trkpt lat="46.51644" lon="5.64031">
        <ele>477.4</ele>
        <time>2022-05-21T14:56:07Z</time>
      </trkpt>
      <trkpt lat="46.51646" lon="5.64016">
        <ele>477.6</ele>
        <time>2022-05-21T14:56:09Z</time>
      </trkpt>
      <trkpt lat="46.51647" lon="5.64009">
        <ele>477.8</ele>
        <time>2022-05-21T14:56:10Z</time>
      </trkpt>
      <trkpt lat="46.51648" lon="5.64001">
        <ele>478</ele>
        <time>2022-05-21T14:56:11Z</time>
      </trkpt>
      <trkpt lat="46.5165" lon="5.63942">
        <ele>478.6</ele>
        <time>2022-05-21T14:56:18Z</time>
      </trkpt>
      <trkpt lat="46.51653" lon="5.63916">
        <ele>478.6</ele>
        <time>2022-05-21T14:56:21Z</time>
      </trkpt>
      <trkpt lat="46.51657" lon="5.63891">
        <ele>478.4</ele>
        <time>2022-05-21T14:56:24Z</time>
      </trkpt>
      <trkpt lat="46.51667" lon="5.6382">
        <ele>478.2</ele>
        <time>2022-05-21T14:56:32Z</time>
      </trkpt>
      <trkpt lat="46.51669" lon="5.63811">
        <ele>478.2</ele>
        <time>2022-05-21T14:56:33Z</time>
      </trkpt>
      <trkpt lat="46.51679" lon="5.6373">
        <ele>478.2</ele>
        <time>2022-05-21T14:56:42Z</time>
      </trkpt>
      <trkpt lat="46.51678" lon="5.63702">
        <ele>478.2</ele>
        <time>2022-05-21T14:56:45Z</time>
      </trkpt>
      <trkpt lat="46.51674" lon="5.63684">
        <ele>478.4</ele>
        <time>2022-05-21T14:56:47Z</time>
      </trkpt>
      <trkpt lat="46.51656" lon="5.63628">
        <ele>478.4</ele>
        <time>2022-05-21T14:56:54Z</time>
      </trkpt>
      <trkpt lat="46.51643" lon="5.63585">
        <ele>479.6</ele>
        <time>2022-05-21T14:57:00Z</time>
      </trkpt>
      <trkpt lat="46.51641" lon="5.63578">
        <ele>479.8</ele>
        <time>2022-05-21T14:57:01Z</time>
      </trkpt>
      <trkpt lat="46.51636" lon="5.63535">
        <ele>480.6</ele>
        <time>2022-05-21T14:57:07Z</time>
      </trkpt>
      <trkpt lat="46.51636" lon="5.6352">
        <ele>481</ele>
        <time>2022-05-21T14:57:09Z</time>
      </trkpt>
      <trkpt lat="46.51639" lon="5.63493">
        <ele>481.6</ele>
        <time>2022-05-21T14:57:13Z</time>
      </trkpt>
      <trkpt lat="46.5164" lon="5.63486">
        <ele>481.8</ele>
        <time>2022-05-21T14:57:14Z</time>
      </trkpt>
      <trkpt lat="46.51647" lon="5.63451">
        <ele>483.2</ele>
        <time>2022-05-21T14:57:19Z</time>
      </trkpt>
      <trkpt lat="46.51649" lon="5.63438">
        <ele>483.6</ele>
        <time>2022-05-21T14:57:21Z</time>
      </trkpt>
      <trkpt lat="46.51653" lon="5.63419">
        <ele>484.4</ele>
        <time>2022-05-21T14:57:24Z</time>
      </trkpt>
      <trkpt lat="46.51662" lon="5.63388">
        <ele>485.4</ele>
        <time>2022-05-21T14:57:29Z</time>
      </trkpt>
      <trkpt lat="46.51664" lon="5.63383">
        <ele>485.6</ele>
        <time>2022-05-21T14:57:30Z</time>
      </trkpt>
      <trkpt lat="46.51676" lon="5.63351">
        <ele>486.8</ele>
        <time>2022-05-21T14:57:36Z</time>
      </trkpt>
      <trkpt lat="46.5168" lon="5.63341">
        <ele>487.2</ele>
        <time>2022-05-21T14:57:38Z</time>
      </trkpt>
      <trkpt lat="46.51687" lon="5.6332">
        <ele>488</ele>
        <time>2022-05-21T14:57:42Z</time>
      </trkpt>
      <trkpt lat="46.51694" lon="5.63293">
        <ele>489.2</ele>
        <time>2022-05-21T14:57:47Z</time>
      </trkpt>
      <trkpt lat="46.51698" lon="5.63283">
        <ele>489.4</ele>
        <time>2022-05-21T14:57:49Z</time>
      </trkpt>
      <trkpt lat="46.51707" lon="5.63251">
        <ele>490.4</ele>
        <time>2022-05-21T14:57:55Z</time>
      </trkpt>
      <trkpt lat="46.51718" lon="5.63218">
        <ele>491.4</ele>
        <time>2022-05-21T14:58:01Z</time>
      </trkpt>
      <trkpt lat="46.51734" lon="5.63168">
        <ele>492.8</ele>
        <time>2022-05-21T14:58:10Z</time>
      </trkpt>
      <trkpt lat="46.51736" lon="5.63162">
        <ele>493</ele>
        <time>2022-05-21T14:58:11Z</time>
      </trkpt>
      <trkpt lat="46.5175" lon="5.63132">
        <ele>494</ele>
        <time>2022-05-21T14:58:17Z</time>
      </trkpt>
      <trkpt lat="46.51755" lon="5.63124">
        <ele>494.4</ele>
        <time>2022-05-21T14:58:19Z</time>
      </trkpt>
      <trkpt lat="46.51767" lon="5.63107">
        <ele>495</ele>
        <time>2022-05-21T14:58:23Z</time>
      </trkpt>
      <trkpt lat="46.51782" lon="5.63087">
        <ele>495.8</ele>
        <time>2022-05-21T14:58:28Z</time>
      </trkpt>
      <trkpt lat="46.51785" lon="5.63082">
        <ele>496.4</ele>
        <time>2022-05-21T14:58:29Z</time>
      </trkpt>
      <trkpt lat="46.5181" lon="5.63058">
        <ele>497</ele>
        <time>2022-05-21T14:58:35Z</time>
      </trkpt>
      <trkpt lat="46.51815" lon="5.63054">
        <ele>497</ele>
        <time>2022-05-21T14:58:36Z</time>
      </trkpt>
      <trkpt lat="46.5184" lon="5.63041">
        <ele>497</ele>
        <time>2022-05-21T14:58:41Z</time>
      </trkpt>
      <trkpt lat="46.51891" lon="5.63016">
        <ele>496.8</ele>
        <time>2022-05-21T14:58:51Z</time>
      </trkpt>
      <trkpt lat="46.5191" lon="5.63002">
        <ele>497.2</ele>
        <time>2022-05-21T14:58:55Z</time>
      </trkpt>
      <trkpt lat="46.51918" lon="5.62991">
        <ele>497.2</ele>
        <time>2022-05-21T14:58:57Z</time>
      </trkpt>
      <trkpt lat="46.51939" lon="5.62962">
        <ele>497.6</ele>
        <time>2022-05-21T14:59:02Z</time>
      </trkpt>
      <trkpt lat="46.51955" lon="5.62938">
        <ele>497.6</ele>
        <time>2022-05-21T14:59:06Z</time>
      </trkpt>
      <trkpt lat="46.51996" lon="5.62877">
        <ele>497.6</ele>
        <time>2022-05-21T14:59:16Z</time>
      </trkpt>
      <trkpt lat="46.51999" lon="5.62872">
        <ele>497.6</ele>
        <time>2022-05-21T14:59:17Z</time>
      </trkpt>
      <trkpt lat="46.52028" lon="5.62828">
        <ele>498</ele>
        <time>2022-05-21T14:59:24Z</time>
      </trkpt>
      <trkpt lat="46.52066" lon="5.62771">
        <ele>498.4</ele>
        <time>2022-05-21T14:59:33Z</time>
      </trkpt>
      <trkpt lat="46.52071" lon="5.62764">
        <ele>498.4</ele>
        <time>2022-05-21T14:59:34Z</time>
      </trkpt>
      <trkpt lat="46.52104" lon="5.62722">
        <ele>498.8</ele>
        <time>2022-05-21T14:59:41Z</time>
      </trkpt>
      <trkpt lat="46.5211" lon="5.62717">
        <ele>498.8</ele>
        <time>2022-05-21T14:59:42Z</time>
      </trkpt>
      <trkpt lat="46.52123" lon="5.6271">
        <ele>498.8</ele>
        <time>2022-05-21T14:59:44Z</time>
      </trkpt>
      <trkpt lat="46.52137" lon="5.62707">
        <ele>498.8</ele>
        <time>2022-05-21T14:59:46Z</time>
      </trkpt>
      <trkpt lat="46.52144" lon="5.62706">
        <ele>498.6</ele>
        <time>2022-05-21T14:59:47Z</time>
      </trkpt>
      <trkpt lat="46.52181" lon="5.6271">
        <ele>498.8</ele>
        <time>2022-05-21T14:59:53Z</time>
      </trkpt>
      <trkpt lat="46.52193" lon="5.62711">
        <ele>499.2</ele>
        <time>2022-05-21T14:59:55Z</time>
      </trkpt>
      <trkpt lat="46.52216" lon="5.62713">
        <ele>500</ele>
        <time>2022-05-21T14:59:59Z</time>
      </trkpt>
      <trkpt lat="46.52236" lon="5.62713">
        <ele>501.2</ele>
        <time>2022-05-21T15:00:03Z</time>
      </trkpt>
      <trkpt lat="46.52256" lon="5.62714">
        <ele>502.6</ele>
        <time>2022-05-21T15:00:07Z</time>
      </trkpt>
      <trkpt lat="46.52266" lon="5.62714">
        <ele>503.4</ele>
        <time>2022-05-21T15:00:09Z</time>
      </trkpt>
      <trkpt lat="46.52275" lon="5.62713">
        <ele>503.6</ele>
        <time>2022-05-21T15:00:11Z</time>
      </trkpt>
      <trkpt lat="46.52293" lon="5.6271">
        <ele>504.6</ele>
        <time>2022-05-21T15:00:15Z</time>
      </trkpt>
      <trkpt lat="46.52301" lon="5.62707">
        <ele>505.2</ele>
        <time>2022-05-21T15:00:17Z</time>
      </trkpt>
      <trkpt lat="46.52309" lon="5.62704">
        <ele>506</ele>
        <time>2022-05-21T15:00:19Z</time>
      </trkpt>
      <trkpt lat="46.5232" lon="5.62696">
        <ele>507</ele>
        <time>2022-05-21T15:00:22Z</time>
      </trkpt>
      <trkpt lat="46.52323" lon="5.62693">
        <ele>507</ele>
        <time>2022-05-21T15:00:23Z</time>
      </trkpt>
      <trkpt lat="46.52339" lon="5.62676">
        <ele>508.6</ele>
        <time>2022-05-21T15:00:28Z</time>
      </trkpt>
      <trkpt lat="46.52352" lon="5.62656">
        <ele>509.6</ele>
        <time>2022-05-21T15:00:33Z</time>
      </trkpt>
      <trkpt lat="46.52359" lon="5.62642">
        <ele>510.4</ele>
        <time>2022-05-21T15:00:36Z</time>
      </trkpt>
      <trkpt lat="46.52364" lon="5.62632">
        <ele>510.8</ele>
        <time>2022-05-21T15:00:38Z</time>
      </trkpt>
      <trkpt lat="46.52371" lon="5.6261">
        <ele>511.8</ele>
        <time>2022-05-21T15:00:42Z</time>
      </trkpt>
      <trkpt lat="46.52377" lon="5.62577">
        <ele>512.4</ele>
        <time>2022-05-21T15:00:47Z</time>
      </trkpt>
      <trkpt lat="46.52378" lon="5.62563">
        <ele>512.6</ele>
        <time>2022-05-21T15:00:49Z</time>
      </trkpt>
      <trkpt lat="46.52375" lon="5.62515">
        <ele>512.6</ele>
        <time>2022-05-21T15:00:55Z</time>
      </trkpt>
      <trkpt lat="46.52372" lon="5.62472">
        <ele>512.4</ele>
        <time>2022-05-21T15:01:00Z</time>
      </trkpt>
      <trkpt lat="46.52373" lon="5.62463">
        <ele>512.2</ele>
        <time>2022-05-21T15:01:01Z</time>
      </trkpt>
      <trkpt lat="46.52376" lon="5.62456">
        <ele>512</ele>
        <time>2022-05-21T15:01:02Z</time>
      </trkpt>
      <trkpt lat="46.52381" lon="5.62448">
        <ele>511.8</ele>
        <time>2022-05-21T15:01:04Z</time>
      </trkpt>
      <trkpt lat="46.52388" lon="5.6244">
        <ele>511.8</ele>
        <time>2022-05-21T15:01:08Z</time>
      </trkpt>
      <trkpt lat="46.52389" lon="5.62437">
        <ele>511.8</ele>
        <time>2022-05-21T15:01:11Z</time>
      </trkpt>
      <trkpt lat="46.52391" lon="5.62422">
        <ele>511.8</ele>
        <time>2022-05-21T15:01:14Z</time>
      </trkpt>
      <trkpt lat="46.52384" lon="5.62394">
        <ele>511.8</ele>
        <time>2022-05-21T15:01:17Z</time>
      </trkpt>
      <trkpt lat="46.52377" lon="5.62357">
        <ele>510.8</ele>
        <time>2022-05-21T15:01:20Z</time>
      </trkpt>
      <trkpt lat="46.52375" lon="5.62344">
        <ele>510.6</ele>
        <time>2022-05-21T15:01:21Z</time>
      </trkpt>
      <trkpt lat="46.52374" lon="5.6233">
        <ele>509.8</ele>
        <time>2022-05-21T15:01:22Z</time>
      </trkpt>
      <trkpt lat="46.52373" lon="5.62303">
        <ele>508.8</ele>
        <time>2022-05-21T15:01:24Z</time>
      </trkpt>
      <trkpt lat="46.52374" lon="5.62275">
        <ele>507.6</ele>
        <time>2022-05-21T15:01:26Z</time>
      </trkpt>
      <trkpt lat="46.52376" lon="5.62246">
        <ele>506.4</ele>
        <time>2022-05-21T15:01:28Z</time>
      </trkpt>
      <trkpt lat="46.52378" lon="5.62217">
        <ele>505</ele>
        <time>2022-05-21T15:01:30Z</time>
      </trkpt>
      <trkpt lat="46.5238" lon="5.62173">
        <ele>504.6</ele>
        <time>2022-05-21T15:01:33Z</time>
      </trkpt>
      <trkpt lat="46.52381" lon="5.62158">
        <ele>504</ele>
        <time>2022-05-21T15:01:34Z</time>
      </trkpt>
      <trkpt lat="46.52386" lon="5.62076">
        <ele>503.2</ele>
        <time>2022-05-21T15:01:40Z</time>
      </trkpt>
      <trkpt lat="46.52389" lon="5.62013">
        <ele>503.2</ele>
        <time>2022-05-21T15:01:45Z</time>
      </trkpt>
      <trkpt lat="46.52395" lon="5.61929">
        <ele>504</ele>
        <time>2022-05-21T15:01:52Z</time>
      </trkpt>
      <trkpt lat="46.52396" lon="5.61918">
        <ele>504.4</ele>
        <time>2022-05-21T15:01:53Z</time>
      </trkpt>
      <trkpt lat="46.52397" lon="5.61866">
        <ele>505.2</ele>
        <time>2022-05-21T15:01:58Z</time>
      </trkpt>
      <trkpt lat="46.52396" lon="5.61847">
        <ele>505.4</ele>
        <time>2022-05-21T15:02:00Z</time>
      </trkpt>
      <trkpt lat="46.52391" lon="5.61815">
        <ele>506.4</ele>
        <time>2022-05-21T15:02:04Z</time>
      </trkpt>
      <trkpt lat="46.52387" lon="5.61794">
        <ele>507.8</ele>
        <time>2022-05-21T15:02:07Z</time>
      </trkpt>
      <trkpt lat="46.52385" lon="5.61786">
        <ele>508</ele>
        <time>2022-05-21T15:02:08Z</time>
      </trkpt>
      <trkpt lat="46.52382" lon="5.61773">
        <ele>509</ele>
        <time>2022-05-21T15:02:10Z</time>
      </trkpt>
      <trkpt lat="46.52381" lon="5.61767">
        <ele>509.4</ele>
        <time>2022-05-21T15:02:11Z</time>
      </trkpt>
      <trkpt lat="46.5238" lon="5.61754">
        <ele>510.2</ele>
        <time>2022-05-21T15:02:13Z</time>
      </trkpt>
      <trkpt lat="46.5238" lon="5.61747">
        <ele>510.8</ele>
        <time>2022-05-21T15:02:14Z</time>
      </trkpt>
      <trkpt lat="46.52378" lon="5.61734">
        <ele>511.4</ele>
        <time>2022-05-21T15:02:16Z</time>
      </trkpt>
      <trkpt lat="46.52375" lon="5.61713">
        <ele>512.2</ele>
        <time>2022-05-21T15:02:19Z</time>
      </trkpt>
      <trkpt lat="46.52374" lon="5.61706">
        <ele>512.4</ele>
        <time>2022-05-21T15:02:20Z</time>
      </trkpt>
      <trkpt lat="46.52369" lon="5.61685">
        <ele>513.4</ele>
        <time>2022-05-21T15:02:23Z</time>
      </trkpt>
      <trkpt lat="46.52363" lon="5.61665">
        <ele>514.6</ele>
        <time>2022-05-21T15:02:26Z</time>
      </trkpt>
      <trkpt lat="46.52361" lon="5.61658">
        <ele>514.8</ele>
        <time>2022-05-21T15:02:27Z</time>
      </trkpt>
      <trkpt lat="46.5235" lon="5.61635">
        <ele>515.8</ele>
        <time>2022-05-21T15:02:31Z</time>
      </trkpt>
      <trkpt lat="46.52344" lon="5.61626">
        <ele>516.4</ele>
        <time>2022-05-21T15:02:33Z</time>
      </trkpt>
      <trkpt lat="46.52336" lon="5.6162">
        <ele>517</ele>
        <time>2022-05-21T15:02:35Z</time>
      </trkpt>
      <trkpt lat="46.52321" lon="5.61609">
        <ele>518</ele>
        <time>2022-05-21T15:02:38Z</time>
      </trkpt>
      <trkpt lat="46.52316" lon="5.61606">
        <ele>518.4</ele>
        <time>2022-05-21T15:02:39Z</time>
      </trkpt>
      <trkpt lat="46.52283" lon="5.61576">
        <ele>519</ele>
        <time>2022-05-21T15:02:46Z</time>
      </trkpt>
      <trkpt lat="46.52253" lon="5.61547">
        <ele>519</ele>
        <time>2022-05-21T15:02:52Z</time>
      </trkpt>
      <trkpt lat="46.52208" lon="5.615">
        <ele>518.6</ele>
        <time>2022-05-21T15:03:00Z</time>
      </trkpt>
      <trkpt lat="46.52199" lon="5.6149">
        <ele>518.6</ele>
        <time>2022-05-21T15:03:02Z</time>
      </trkpt>
      <trkpt lat="46.5219" lon="5.6148">
        <ele>518.8</ele>
        <time>2022-05-21T15:03:04Z</time>
      </trkpt>
      <trkpt lat="46.5218" lon="5.6147">
        <ele>519</ele>
        <time>2022-05-21T15:03:06Z</time>
      </trkpt>
      <trkpt lat="46.52169" lon="5.61457">
        <ele>519.2</ele>
        <time>2022-05-21T15:03:08Z</time>
      </trkpt>
      <trkpt lat="46.52164" lon="5.61452">
        <ele>519.2</ele>
        <time>2022-05-21T15:03:09Z</time>
      </trkpt>
      <trkpt lat="46.52138" lon="5.61425">
        <ele>519.6</ele>
        <time>2022-05-21T15:03:15Z</time>
      </trkpt>
      <trkpt lat="46.52134" lon="5.6142">
        <ele>519.6</ele>
        <time>2022-05-21T15:03:16Z</time>
      </trkpt>
      <trkpt lat="46.52122" lon="5.614">
        <ele>520.2</ele>
        <time>2022-05-21T15:03:19Z</time>
      </trkpt>
      <trkpt lat="46.52119" lon="5.61393">
        <ele>520.2</ele>
        <time>2022-05-21T15:03:20Z</time>
      </trkpt>
      <trkpt lat="46.52116" lon="5.61385">
        <ele>520.4</ele>
        <time>2022-05-21T15:03:21Z</time>
      </trkpt>
      <trkpt lat="46.52113" lon="5.61367">
        <ele>520.4</ele>
        <time>2022-05-21T15:03:23Z</time>
      </trkpt>
      <trkpt lat="46.52102" lon="5.61315">
        <ele>521.4</ele>
        <time>2022-05-21T15:03:29Z</time>
      </trkpt>
      <trkpt lat="46.52099" lon="5.61299">
        <ele>521.8</ele>
        <time>2022-05-21T15:03:31Z</time>
      </trkpt>
      <trkpt lat="46.52098" lon="5.61291">
        <ele>521.8</ele>
        <time>2022-05-21T15:03:32Z</time>
      </trkpt>
      <trkpt lat="46.52097" lon="5.61257">
        <ele>522.4</ele>
        <time>2022-05-21T15:03:36Z</time>
      </trkpt>
      <trkpt lat="46.52099" lon="5.61226">
        <ele>522.4</ele>
        <time>2022-05-21T15:03:40Z</time>
      </trkpt>
      <trkpt lat="46.52099" lon="5.61218">
        <ele>522.6</ele>
        <time>2022-05-21T15:03:41Z</time>
      </trkpt>
      <trkpt lat="46.52098" lon="5.61193">
        <ele>523</ele>
        <time>2022-05-21T15:03:44Z</time>
      </trkpt>
      <trkpt lat="46.52096" lon="5.61169">
        <ele>523.8</ele>
        <time>2022-05-21T15:03:47Z</time>
      </trkpt>
      <trkpt lat="46.52093" lon="5.61128">
        <ele>524.6</ele>
        <time>2022-05-21T15:03:52Z</time>
      </trkpt>
      <trkpt lat="46.52093" lon="5.6112">
        <ele>524.6</ele>
        <time>2022-05-21T15:03:53Z</time>
      </trkpt>
      <trkpt lat="46.52094" lon="5.61112">
        <ele>524.8</ele>
        <time>2022-05-21T15:03:54Z</time>
      </trkpt>
      <trkpt lat="46.52095" lon="5.61104">
        <ele>524.8</ele>
        <time>2022-05-21T15:03:55Z</time>
      </trkpt>
      <trkpt lat="46.521" lon="5.61075">
        <ele>525.2</ele>
        <time>2022-05-21T15:03:59Z</time>
      </trkpt>
      <trkpt lat="46.52102" lon="5.61067">
        <ele>525.2</ele>
        <time>2022-05-21T15:04:00Z</time>
      </trkpt>
      <trkpt lat="46.52101" lon="5.61053">
        <ele>525.6</ele>
        <time>2022-05-21T15:04:02Z</time>
      </trkpt>
      <trkpt lat="46.52099" lon="5.61037">
        <ele>525.6</ele>
        <time>2022-05-21T15:04:04Z</time>
      </trkpt>
      <trkpt lat="46.521" lon="5.61029">
        <ele>525.6</ele>
        <time>2022-05-21T15:04:05Z</time>
      </trkpt>
      <trkpt lat="46.52104" lon="5.61021">
        <ele>525.8</ele>
        <time>2022-05-21T15:04:06Z</time>
      </trkpt>
      <trkpt lat="46.52113" lon="5.61009">
        <ele>525.8</ele>
        <time>2022-05-21T15:04:08Z</time>
      </trkpt>
      <trkpt lat="46.52122" lon="5.60998">
        <ele>525.8</ele>
        <time>2022-05-21T15:04:10Z</time>
      </trkpt>
      <trkpt lat="46.52134" lon="5.60978">
        <ele>525.8</ele>
        <time>2022-05-21T15:04:13Z</time>
      </trkpt>
      <trkpt lat="46.52141" lon="5.60965">
        <ele>525.8</ele>
        <time>2022-05-21T15:04:15Z</time>
      </trkpt>
      <trkpt lat="46.52142" lon="5.60948">
        <ele>526.4</ele>
        <time>2022-05-21T15:04:17Z</time>
      </trkpt>
      <trkpt lat="46.52143" lon="5.6094">
        <ele>527</ele>
        <time>2022-05-21T15:04:18Z</time>
      </trkpt>
      <trkpt lat="46.52144" lon="5.60932">
        <ele>527.2</ele>
        <time>2022-05-21T15:04:19Z</time>
      </trkpt>
      <trkpt lat="46.52148" lon="5.60893">
        <ele>528</ele>
        <time>2022-05-21T15:04:24Z</time>
      </trkpt>
      <trkpt lat="46.52149" lon="5.60885">
        <ele>528.2</ele>
        <time>2022-05-21T15:04:25Z</time>
      </trkpt>
      <trkpt lat="46.52156" lon="5.60839">
        <ele>528.6</ele>
        <time>2022-05-21T15:04:31Z</time>
      </trkpt>
      <trkpt lat="46.52158" lon="5.60832">
        <ele>528.6</ele>
        <time>2022-05-21T15:04:32Z</time>
      </trkpt>
      <trkpt lat="46.52162" lon="5.60811">
        <ele>528.8</ele>
        <time>2022-05-21T15:04:35Z</time>
      </trkpt>
      <trkpt lat="46.52163" lon="5.60791">
        <ele>529</ele>
        <time>2022-05-21T15:04:38Z</time>
      </trkpt>
      <trkpt lat="46.52163" lon="5.60784">
        <ele>529.4</ele>
        <time>2022-05-21T15:04:39Z</time>
      </trkpt>
      <trkpt lat="46.52162" lon="5.60744">
        <ele>530.2</ele>
        <time>2022-05-21T15:04:44Z</time>
      </trkpt>
      <trkpt lat="46.5217" lon="5.60729">
        <ele>530.4</ele>
        <time>2022-05-21T15:04:46Z</time>
      </trkpt>
      <trkpt lat="46.52177" lon="5.60723">
        <ele>530.4</ele>
        <time>2022-05-21T15:04:47Z</time>
      </trkpt>
      <trkpt lat="46.52186" lon="5.6072">
        <ele>530.2</ele>
        <time>2022-05-21T15:04:48Z</time>
      </trkpt>
      <trkpt lat="46.52211" lon="5.60715">
        <ele>528.2</ele>
        <time>2022-05-21T15:04:51Z</time>
      </trkpt>
      <trkpt lat="46.52227" lon="5.60712">
        <ele>527</ele>
        <time>2022-05-21T15:04:53Z</time>
      </trkpt>
      <trkpt lat="46.52243" lon="5.60702">
        <ele>525.6</ele>
        <time>2022-05-21T15:04:55Z</time>
      </trkpt>
      <trkpt lat="46.52256" lon="5.60687">
        <ele>525</ele>
        <time>2022-05-21T15:04:57Z</time>
      </trkpt>
      <trkpt lat="46.52261" lon="5.60677">
        <ele>524.6</ele>
        <time>2022-05-21T15:04:58Z</time>
      </trkpt>
      <trkpt lat="46.52264" lon="5.60666">
        <ele>524.4</ele>
        <time>2022-05-21T15:04:59Z</time>
      </trkpt>
      <trkpt lat="46.52268" lon="5.60642">
        <ele>524</ele>
        <time>2022-05-21T15:05:01Z</time>
      </trkpt>
      <trkpt lat="46.52271" lon="5.60605">
        <ele>523.4</ele>
        <time>2022-05-21T15:05:04Z</time>
      </trkpt>
      <trkpt lat="46.52274" lon="5.60556">
        <ele>522.2</ele>
        <time>2022-05-21T15:05:08Z</time>
      </trkpt>
      <trkpt lat="46.52278" lon="5.60498">
        <ele>521.2</ele>
        <time>2022-05-21T15:05:13Z</time>
      </trkpt>
      <trkpt lat="46.52281" lon="5.60466">
        <ele>520.6</ele>
        <time>2022-05-21T15:05:16Z</time>
      </trkpt>
      <trkpt lat="46.52286" lon="5.60394">
        <ele>520.6</ele>
        <time>2022-05-21T15:05:23Z</time>
      </trkpt>
      <trkpt lat="46.52291" lon="5.60316">
        <ele>520.6</ele>
        <time>2022-05-21T15:05:30Z</time>
      </trkpt>
      <trkpt lat="46.52292" lon="5.60304">
        <ele>520.4</ele>
        <time>2022-05-21T15:05:31Z</time>
      </trkpt>
      <trkpt lat="46.52294" lon="5.60281">
        <ele>520</ele>
        <time>2022-05-21T15:05:33Z</time>
      </trkpt>
      <trkpt lat="46.523" lon="5.60213">
        <ele>519.6</ele>
        <time>2022-05-21T15:05:39Z</time>
      </trkpt>
      <trkpt lat="46.52304" lon="5.60168">
        <ele>519.2</ele>
        <time>2022-05-21T15:05:43Z</time>
      </trkpt>
      <trkpt lat="46.52306" lon="5.60134">
        <ele>519</ele>
        <time>2022-05-21T15:05:46Z</time>
      </trkpt>
      <trkpt lat="46.52312" lon="5.60067">
        <ele>518.8</ele>
        <time>2022-05-21T15:05:52Z</time>
      </trkpt>
      <trkpt lat="46.52318" lon="5.59987">
        <ele>518.6</ele>
        <time>2022-05-21T15:05:59Z</time>
      </trkpt>
      <trkpt lat="46.5232" lon="5.59963">
        <ele>518.4</ele>
        <time>2022-05-21T15:06:01Z</time>
      </trkpt>
      <trkpt lat="46.52322" lon="5.59939">
        <ele>518.2</ele>
        <time>2022-05-21T15:06:03Z</time>
      </trkpt>
      <trkpt lat="46.52328" lon="5.59854">
        <ele>517.4</ele>
        <time>2022-05-21T15:06:10Z</time>
      </trkpt>
      <trkpt lat="46.52335" lon="5.5977">
        <ele>516.2</ele>
        <time>2022-05-21T15:06:17Z</time>
      </trkpt>
      <trkpt lat="46.52338" lon="5.59735">
        <ele>516</ele>
        <time>2022-05-21T15:06:20Z</time>
      </trkpt>
      <trkpt lat="46.52343" lon="5.5965">
        <ele>515.8</ele>
        <time>2022-05-21T15:06:27Z</time>
      </trkpt>
      <trkpt lat="46.52345" lon="5.59626">
        <ele>515.6</ele>
        <time>2022-05-21T15:06:29Z</time>
      </trkpt>
      <trkpt lat="46.52352" lon="5.5954">
        <ele>515.2</ele>
        <time>2022-05-21T15:06:36Z</time>
      </trkpt>
      <trkpt lat="46.52355" lon="5.59502">
        <ele>515</ele>
        <time>2022-05-21T15:06:39Z</time>
      </trkpt>
      <trkpt lat="46.5236" lon="5.59436">
        <ele>514.2</ele>
        <time>2022-05-21T15:06:44Z</time>
      </trkpt>
      <trkpt lat="46.52363" lon="5.59384">
        <ele>513</ele>
        <time>2022-05-21T15:06:48Z</time>
      </trkpt>
      <trkpt lat="46.52367" lon="5.59343">
        <ele>512</ele>
        <time>2022-05-21T15:06:51Z</time>
      </trkpt>
      <trkpt lat="46.5237" lon="5.593">
        <ele>510.8</ele>
        <time>2022-05-21T15:06:54Z</time>
      </trkpt>
      <trkpt lat="46.52372" lon="5.59272">
        <ele>509.6</ele>
        <time>2022-05-21T15:06:56Z</time>
      </trkpt>
      <trkpt lat="46.52375" lon="5.5923">
        <ele>508.8</ele>
        <time>2022-05-21T15:06:59Z</time>
      </trkpt>
      <trkpt lat="46.52377" lon="5.59202">
        <ele>508.6</ele>
        <time>2022-05-21T15:07:01Z</time>
      </trkpt>
      <trkpt lat="46.52382" lon="5.59134">
        <ele>507.6</ele>
        <time>2022-05-21T15:07:06Z</time>
      </trkpt>
      <trkpt lat="46.52384" lon="5.59107">
        <ele>507.4</ele>
        <time>2022-05-21T15:07:08Z</time>
      </trkpt>
      <trkpt lat="46.52388" lon="5.59055">
        <ele>506.8</ele>
        <time>2022-05-21T15:07:12Z</time>
      </trkpt>
      <trkpt lat="46.52394" lon="5.58989">
        <ele>506.4</ele>
        <time>2022-05-21T15:07:17Z</time>
      </trkpt>
      <trkpt lat="46.524" lon="5.5891">
        <ele>506</ele>
        <time>2022-05-21T15:07:23Z</time>
      </trkpt>
      <trkpt lat="46.52403" lon="5.58858">
        <ele>505.8</ele>
        <time>2022-05-21T15:07:27Z</time>
      </trkpt>
      <trkpt lat="46.52406" lon="5.58819">
        <ele>505.6</ele>
        <time>2022-05-21T15:07:30Z</time>
      </trkpt>
      <trkpt lat="46.52413" lon="5.5873">
        <ele>505.2</ele>
        <time>2022-05-21T15:07:37Z</time>
      </trkpt>
      <trkpt lat="46.52414" lon="5.58717">
        <ele>505.2</ele>
        <time>2022-05-21T15:07:38Z</time>
      </trkpt>
      <trkpt lat="46.52421" lon="5.5863">
        <ele>505.4</ele>
        <time>2022-05-21T15:07:45Z</time>
      </trkpt>
      <trkpt lat="46.52423" lon="5.58593">
        <ele>505.6</ele>
        <time>2022-05-21T15:07:48Z</time>
      </trkpt>
      <trkpt lat="46.5243" lon="5.58507">
        <ele>505.4</ele>
        <time>2022-05-21T15:07:55Z</time>
      </trkpt>
      <trkpt lat="46.52433" lon="5.5846">
        <ele>505.2</ele>
        <time>2022-05-21T15:07:59Z</time>
      </trkpt>
      <trkpt lat="46.52439" lon="5.58381">
        <ele>505.4</ele>
        <time>2022-05-21T15:08:06Z</time>
      </trkpt>
      <trkpt lat="46.52441" lon="5.58358">
        <ele>505.6</ele>
        <time>2022-05-21T15:08:08Z</time>
      </trkpt>
      <trkpt lat="46.52447" lon="5.58279">
        <ele>505.8</ele>
        <time>2022-05-21T15:08:15Z</time>
      </trkpt>
      <trkpt lat="46.52451" lon="5.58222">
        <ele>505.4</ele>
        <time>2022-05-21T15:08:20Z</time>
      </trkpt>
      <trkpt lat="46.52457" lon="5.58142">
        <ele>505.2</ele>
        <time>2022-05-21T15:08:27Z</time>
      </trkpt>
      <trkpt lat="46.52459" lon="5.58118">
        <ele>505</ele>
        <time>2022-05-21T15:08:29Z</time>
      </trkpt>
      <trkpt lat="46.52461" lon="5.58096">
        <ele>504.8</ele>
        <time>2022-05-21T15:08:31Z</time>
      </trkpt>
      <trkpt lat="46.52467" lon="5.58014">
        <ele>504.4</ele>
        <time>2022-05-21T15:08:38Z</time>
      </trkpt>
      <trkpt lat="46.5247" lon="5.5798">
        <ele>504.4</ele>
        <time>2022-05-21T15:08:41Z</time>
      </trkpt>
      <trkpt lat="46.52475" lon="5.57901">
        <ele>504.2</ele>
        <time>2022-05-21T15:08:48Z</time>
      </trkpt>
      <trkpt lat="46.52477" lon="5.57879">
        <ele>504.2</ele>
        <time>2022-05-21T15:08:50Z</time>
      </trkpt>
      <trkpt lat="46.52483" lon="5.578">
        <ele>504.6</ele>
        <time>2022-05-21T15:08:57Z</time>
      </trkpt>
      <trkpt lat="46.52486" lon="5.57754">
        <ele>504.6</ele>
        <time>2022-05-21T15:09:01Z</time>
      </trkpt>
      <trkpt lat="46.52492" lon="5.57672">
        <ele>504.6</ele>
        <time>2022-05-21T15:09:08Z</time>
      </trkpt>
      <trkpt lat="46.52496" lon="5.57615">
        <ele>504.8</ele>
        <time>2022-05-21T15:09:13Z</time>
      </trkpt>
      <trkpt lat="46.52503" lon="5.57537">
        <ele>505</ele>
        <time>2022-05-21T15:09:20Z</time>
      </trkpt>
      <trkpt lat="46.52505" lon="5.57515">
        <ele>505</ele>
        <time>2022-05-21T15:09:22Z</time>
      </trkpt>
      <trkpt lat="46.52511" lon="5.57437">
        <ele>504.8</ele>
        <time>2022-05-21T15:09:29Z</time>
      </trkpt>
      <trkpt lat="46.52513" lon="5.57402">
        <ele>504.8</ele>
        <time>2022-05-21T15:09:32Z</time>
      </trkpt>
      <trkpt lat="46.52519" lon="5.57321">
        <ele>504.8</ele>
        <time>2022-05-21T15:09:39Z</time>
      </trkpt>
      <trkpt lat="46.52523" lon="5.57275">
        <ele>504.8</ele>
        <time>2022-05-21T15:09:43Z</time>
      </trkpt>
      <trkpt lat="46.52529" lon="5.57196">
        <ele>504.8</ele>
        <time>2022-05-21T15:09:50Z</time>
      </trkpt>
      <trkpt lat="46.52535" lon="5.57117">
        <ele>505</ele>
        <time>2022-05-21T15:09:57Z</time>
      </trkpt>
      <trkpt lat="46.52541" lon="5.57038">
        <ele>505</ele>
        <time>2022-05-21T15:10:04Z</time>
      </trkpt>
      <trkpt lat="46.52544" lon="5.57004">
        <ele>505</ele>
        <time>2022-05-21T15:10:07Z</time>
      </trkpt>
      <trkpt lat="46.52548" lon="5.5696">
        <ele>504.4</ele>
        <time>2022-05-21T15:10:11Z</time>
      </trkpt>
      <trkpt lat="46.52553" lon="5.56893">
        <ele>504</ele>
        <time>2022-05-21T15:10:17Z</time>
      </trkpt>
      <trkpt lat="46.52559" lon="5.56805">
        <ele>504.8</ele>
        <time>2022-05-21T15:10:25Z</time>
      </trkpt>
      <trkpt lat="46.52561" lon="5.56783">
        <ele>505</ele>
        <time>2022-05-21T15:10:27Z</time>
      </trkpt>
      <trkpt lat="46.52568" lon="5.56696">
        <ele>504.8</ele>
        <time>2022-05-21T15:10:35Z</time>
      </trkpt>
      <trkpt lat="46.5257" lon="5.56674">
        <ele>504.8</ele>
        <time>2022-05-21T15:10:37Z</time>
      </trkpt>
      <trkpt lat="46.52576" lon="5.56589">
        <ele>505.6</ele>
        <time>2022-05-21T15:10:45Z</time>
      </trkpt>
      <trkpt lat="46.52577" lon="5.56568">
        <ele>505.6</ele>
        <time>2022-05-21T15:10:47Z</time>
      </trkpt>
      <trkpt lat="46.52579" lon="5.56546">
        <ele>506</ele>
        <time>2022-05-21T15:10:49Z</time>
      </trkpt>
      <trkpt lat="46.52584" lon="5.56485">
        <ele>506.8</ele>
        <time>2022-05-21T15:10:55Z</time>
      </trkpt>
      <trkpt lat="46.52585" lon="5.56475">
        <ele>507</ele>
        <time>2022-05-21T15:10:56Z</time>
      </trkpt>
      <trkpt lat="46.52591" lon="5.56409">
        <ele>508</ele>
        <time>2022-05-21T15:11:03Z</time>
      </trkpt>
      <trkpt lat="46.52598" lon="5.56328">
        <ele>508</ele>
        <time>2022-05-21T15:11:11Z</time>
      </trkpt>
      <trkpt lat="46.52604" lon="5.56245">
        <ele>507.2</ele>
        <time>2022-05-21T15:11:18Z</time>
      </trkpt>
      <trkpt lat="46.52609" lon="5.56184">
        <ele>506.2</ele>
        <time>2022-05-21T15:11:23Z</time>
      </trkpt>
      <trkpt lat="46.52612" lon="5.56149">
        <ele>505.4</ele>
        <time>2022-05-21T15:11:26Z</time>
      </trkpt>
      <trkpt lat="46.52613" lon="5.56137">
        <ele>505.2</ele>
        <time>2022-05-21T15:11:27Z</time>
      </trkpt>
      <trkpt lat="46.52617" lon="5.56092">
        <ele>504</ele>
        <time>2022-05-21T15:11:31Z</time>
      </trkpt>
      <trkpt lat="46.5262" lon="5.56044">
        <ele>503.6</ele>
        <time>2022-05-21T15:11:35Z</time>
      </trkpt>
      <trkpt lat="46.52628" lon="5.55961">
        <ele>503.4</ele>
        <time>2022-05-21T15:11:42Z</time>
      </trkpt>
      <trkpt lat="46.5263" lon="5.55937">
        <ele>503.4</ele>
        <time>2022-05-21T15:11:44Z</time>
      </trkpt>
      <trkpt lat="46.52632" lon="5.55914">
        <ele>503.2</ele>
        <time>2022-05-21T15:11:46Z</time>
      </trkpt>
      <trkpt lat="46.52636" lon="5.55855">
        <ele>503</ele>
        <time>2022-05-21T15:11:51Z</time>
      </trkpt>
      <trkpt lat="46.52642" lon="5.55776">
        <ele>503</ele>
        <time>2022-05-21T15:11:58Z</time>
      </trkpt>
      <trkpt lat="46.52643" lon="5.55766">
        <ele>503</ele>
        <time>2022-05-21T15:11:59Z</time>
      </trkpt>
      <trkpt lat="46.5265" lon="5.55687">
        <ele>503.4</ele>
        <time>2022-05-21T15:12:06Z</time>
      </trkpt>
      <trkpt lat="46.52652" lon="5.55652">
        <ele>503.6</ele>
        <time>2022-05-21T15:12:09Z</time>
      </trkpt>
      <trkpt lat="46.52658" lon="5.55571">
        <ele>504</ele>
        <time>2022-05-21T15:12:16Z</time>
      </trkpt>
      <trkpt lat="46.52662" lon="5.55514">
        <ele>503.8</ele>
        <time>2022-05-21T15:12:21Z</time>
      </trkpt>
      <trkpt lat="46.52669" lon="5.55425">
        <ele>503.8</ele>
        <time>2022-05-21T15:12:29Z</time>
      </trkpt>
      <trkpt lat="46.5267" lon="5.55414">
        <ele>503.8</ele>
        <time>2022-05-21T15:12:30Z</time>
      </trkpt>
      <trkpt lat="46.52675" lon="5.55331">
        <ele>504.4</ele>
        <time>2022-05-21T15:12:38Z</time>
      </trkpt>
      <trkpt lat="46.52676" lon="5.55321">
        <ele>504.6</ele>
        <time>2022-05-21T15:12:39Z</time>
      </trkpt>
      <trkpt lat="46.5268" lon="5.55264">
        <ele>505.6</ele>
        <time>2022-05-21T15:12:45Z</time>
      </trkpt>
      <trkpt lat="46.52681" lon="5.55254">
        <ele>506</ele>
        <time>2022-05-21T15:12:46Z</time>
      </trkpt>
      <trkpt lat="46.52687" lon="5.55188">
        <ele>506.6</ele>
        <time>2022-05-21T15:12:53Z</time>
      </trkpt>
      <trkpt lat="46.52688" lon="5.55178">
        <ele>506.8</ele>
        <time>2022-05-21T15:12:54Z</time>
      </trkpt>
      <trkpt lat="46.52695" lon="5.55095">
        <ele>507</ele>
        <time>2022-05-21T15:13:02Z</time>
      </trkpt>
      <trkpt lat="46.52701" lon="5.55015">
        <ele>507.4</ele>
        <time>2022-05-21T15:13:10Z</time>
      </trkpt>
      <trkpt lat="46.52702" lon="5.54996">
        <ele>507.4</ele>
        <time>2022-05-21T15:13:12Z</time>
      </trkpt>
      <trkpt lat="46.52703" lon="5.54978">
        <ele>508</ele>
        <time>2022-05-21T15:13:14Z</time>
      </trkpt>
      <trkpt lat="46.52706" lon="5.54936">
        <ele>508.6</ele>
        <time>2022-05-21T15:13:19Z</time>
      </trkpt>
      <trkpt lat="46.52708" lon="5.54906">
        <ele>509.4</ele>
        <time>2022-05-21T15:13:23Z</time>
      </trkpt>
      <trkpt lat="46.5271" lon="5.54878">
        <ele>510.4</ele>
        <time>2022-05-21T15:13:27Z</time>
      </trkpt>
      <trkpt lat="46.52711" lon="5.54871">
        <ele>510.6</ele>
        <time>2022-05-21T15:13:28Z</time>
      </trkpt>
      <trkpt lat="46.52714" lon="5.54827">
        <ele>511.6</ele>
        <time>2022-05-21T15:13:34Z</time>
      </trkpt>
      <trkpt lat="46.52714" lon="5.5482">
        <ele>511.8</ele>
        <time>2022-05-21T15:13:35Z</time>
      </trkpt>
      <trkpt lat="46.52718" lon="5.54764">
        <ele>512.8</ele>
        <time>2022-05-21T15:13:43Z</time>
      </trkpt>
      <trkpt lat="46.52718" lon="5.54757">
        <ele>513</ele>
        <time>2022-05-21T15:13:44Z</time>
      </trkpt>
      <trkpt lat="46.52724" lon="5.5469">
        <ele>513.8</ele>
        <time>2022-05-21T15:13:53Z</time>
      </trkpt>
      <trkpt lat="46.52724" lon="5.54682">
        <ele>514</ele>
        <time>2022-05-21T15:13:54Z</time>
      </trkpt>
      <trkpt lat="46.52726" lon="5.54661">
        <ele>514.2</ele>
        <time>2022-05-21T15:13:57Z</time>
      </trkpt>
      <trkpt lat="46.52728" lon="5.5464">
        <ele>515</ele>
        <time>2022-05-21T15:14:00Z</time>
      </trkpt>
      <trkpt lat="46.52731" lon="5.54627">
        <ele>515.2</ele>
        <time>2022-05-21T15:14:02Z</time>
      </trkpt>
      <trkpt lat="46.52737" lon="5.54617">
        <ele>515.4</ele>
        <time>2022-05-21T15:14:04Z</time>
      </trkpt>
      <trkpt lat="46.52745" lon="5.54611">
        <ele>515.8</ele>
        <time>2022-05-21T15:14:06Z</time>
      </trkpt>
      <trkpt lat="46.52749" lon="5.5461">
        <ele>516.2</ele>
        <time>2022-05-21T15:14:07Z</time>
      </trkpt>
      <trkpt lat="46.52753" lon="5.54609">
        <ele>516.6</ele>
        <time>2022-05-21T15:14:08Z</time>
      </trkpt>
      <trkpt lat="46.52768" lon="5.5461">
        <ele>517.4</ele>
        <time>2022-05-21T15:14:12Z</time>
      </trkpt>
      <trkpt lat="46.52785" lon="5.5461">
        <ele>518.6</ele>
        <time>2022-05-21T15:14:16Z</time>
      </trkpt>
      <trkpt lat="46.52806" lon="5.5461">
        <ele>519.8</ele>
        <time>2022-05-21T15:14:21Z</time>
      </trkpt>
      <trkpt lat="46.52817" lon="5.54611">
        <ele>520.6</ele>
        <time>2022-05-21T15:14:24Z</time>
      </trkpt>
      <trkpt lat="46.52825" lon="5.54612">
        <ele>521.2</ele>
        <time>2022-05-21T15:14:26Z</time>
      </trkpt>
      <trkpt lat="46.52839" lon="5.54613">
        <ele>522.2</ele>
        <time>2022-05-21T15:14:30Z</time>
      </trkpt>
      <trkpt lat="46.52847" lon="5.54614">
        <ele>522.8</ele>
        <time>2022-05-21T15:14:32Z</time>
      </trkpt>
      <trkpt lat="46.52859" lon="5.54615">
        <ele>523.2</ele>
        <time>2022-05-21T15:14:35Z</time>
      </trkpt>
      <trkpt lat="46.52876" lon="5.54617">
        <ele>524.4</ele>
        <time>2022-05-21T15:14:39Z</time>
      </trkpt>
      <trkpt lat="46.52885" lon="5.54617">
        <ele>524.8</ele>
        <time>2022-05-21T15:14:41Z</time>
      </trkpt>
      <trkpt lat="46.52908" lon="5.5462">
        <ele>525.6</ele>
        <time>2022-05-21T15:14:46Z</time>
      </trkpt>
      <trkpt lat="46.52923" lon="5.54621">
        <ele>525.8</ele>
        <time>2022-05-21T15:14:49Z</time>
      </trkpt>
      <trkpt lat="46.52946" lon="5.54623">
        <ele>526.8</ele>
        <time>2022-05-21T15:14:54Z</time>
      </trkpt>
      <trkpt lat="46.52979" lon="5.54624">
        <ele>527.6</ele>
        <time>2022-05-21T15:15:01Z</time>
      </trkpt>
      <trkpt lat="46.52989" lon="5.54626">
        <ele>527.8</ele>
        <time>2022-05-21T15:15:03Z</time>
      </trkpt>
      <trkpt lat="46.53018" lon="5.54629">
        <ele>528.6</ele>
        <time>2022-05-21T15:15:09Z</time>
      </trkpt>
      <trkpt lat="46.53027" lon="5.5463">
        <ele>529</ele>
        <time>2022-05-21T15:15:11Z</time>
      </trkpt>
      <trkpt lat="46.53058" lon="5.54633">
        <ele>530.2</ele>
        <time>2022-05-21T15:15:18Z</time>
      </trkpt>
      <trkpt lat="46.53091" lon="5.54635">
        <ele>531.4</ele>
        <time>2022-05-21T15:15:25Z</time>
      </trkpt>
      <trkpt lat="46.53096" lon="5.54635">
        <ele>531.6</ele>
        <time>2022-05-21T15:15:26Z</time>
      </trkpt>
      <trkpt lat="46.53101" lon="5.54635">
        <ele>531.8</ele>
        <time>2022-05-21T15:15:27Z</time>
      </trkpt>
      <trkpt lat="46.5313" lon="5.5464">
        <ele>532.4</ele>
        <time>2022-05-21T15:15:33Z</time>
      </trkpt>
      <trkpt lat="46.5314" lon="5.54643">
        <ele>532.6</ele>
        <time>2022-05-21T15:15:35Z</time>
      </trkpt>
      <trkpt lat="46.53158" lon="5.54648">
        <ele>533.6</ele>
        <time>2022-05-21T15:15:39Z</time>
      </trkpt>
      <trkpt lat="46.53171" lon="5.54651">
        <ele>534.4</ele>
        <time>2022-05-21T15:15:42Z</time>
      </trkpt>
      <trkpt lat="46.53179" lon="5.54652">
        <ele>534.6</ele>
        <time>2022-05-21T15:15:44Z</time>
      </trkpt>
      <trkpt lat="46.53197" lon="5.54652">
        <ele>535.8</ele>
        <time>2022-05-21T15:15:48Z</time>
      </trkpt>
      <trkpt lat="46.53207" lon="5.54653">
        <ele>536</ele>
        <time>2022-05-21T15:15:50Z</time>
      </trkpt>
      <trkpt lat="46.53239" lon="5.54658">
        <ele>536.8</ele>
        <time>2022-05-21T15:15:57Z</time>
      </trkpt>
      <trkpt lat="46.53252" lon="5.5466">
        <ele>537.2</ele>
        <time>2022-05-21T15:16:00Z</time>
      </trkpt>
      <trkpt lat="46.5327" lon="5.54664">
        <ele>537.8</ele>
        <time>2022-05-21T15:16:04Z</time>
      </trkpt>
      <trkpt lat="46.53274" lon="5.54665">
        <ele>538</ele>
        <time>2022-05-21T15:16:05Z</time>
      </trkpt>
      <trkpt lat="46.53302" lon="5.54674">
        <ele>538.8</ele>
        <time>2022-05-21T15:16:11Z</time>
      </trkpt>
      <trkpt lat="46.53306" lon="5.54675">
        <ele>538.8</ele>
        <time>2022-05-21T15:16:12Z</time>
      </trkpt>
      <trkpt lat="46.53348" lon="5.54689">
        <ele>540.2</ele>
        <time>2022-05-21T15:16:21Z</time>
      </trkpt>
      <trkpt lat="46.53384" lon="5.547">
        <ele>541.2</ele>
        <time>2022-05-21T15:16:28Z</time>
      </trkpt>
      <trkpt lat="46.53389" lon="5.54701">
        <ele>541.6</ele>
        <time>2022-05-21T15:16:29Z</time>
      </trkpt>
      <trkpt lat="46.53429" lon="5.54715">
        <ele>542.4</ele>
        <time>2022-05-21T15:16:37Z</time>
      </trkpt>
      <trkpt lat="46.53439" lon="5.54718">
        <ele>542.6</ele>
        <time>2022-05-21T15:16:39Z</time>
      </trkpt>
      <trkpt lat="46.53473" lon="5.5473">
        <ele>543.2</ele>
        <time>2022-05-21T15:16:46Z</time>
      </trkpt>
      <trkpt lat="46.53483" lon="5.54733">
        <ele>543.6</ele>
        <time>2022-05-21T15:16:48Z</time>
      </trkpt>
      <trkpt lat="46.5351" lon="5.54742">
        <ele>544.6</ele>
        <time>2022-05-21T15:16:54Z</time>
      </trkpt>
      <trkpt lat="46.53515" lon="5.54743">
        <ele>544.8</ele>
        <time>2022-05-21T15:16:55Z</time>
      </trkpt>
      <trkpt lat="46.53542" lon="5.54753">
        <ele>545.8</ele>
        <time>2022-05-21T15:17:01Z</time>
      </trkpt>
      <trkpt lat="46.53562" lon="5.5476">
        <ele>546.2</ele>
        <time>2022-05-21T15:17:05Z</time>
      </trkpt>
      <trkpt lat="46.53575" lon="5.54764">
        <ele>546.8</ele>
        <time>2022-05-21T15:17:08Z</time>
      </trkpt>
      <trkpt lat="46.53603" lon="5.54772">
        <ele>548</ele>
        <time>2022-05-21T15:17:14Z</time>
      </trkpt>
      <trkpt lat="46.53613" lon="5.54775">
        <ele>548.2</ele>
        <time>2022-05-21T15:17:16Z</time>
      </trkpt>
      <trkpt lat="46.53627" lon="5.5478">
        <ele>548.6</ele>
        <time>2022-05-21T15:17:19Z</time>
      </trkpt>
      <trkpt lat="46.53637" lon="5.54783">
        <ele>549</ele>
        <time>2022-05-21T15:17:21Z</time>
      </trkpt>
      <trkpt lat="46.53668" lon="5.54794">
        <ele>550.2</ele>
        <time>2022-05-21T15:17:28Z</time>
      </trkpt>
      <trkpt lat="46.53708" lon="5.54808">
        <ele>551.2</ele>
        <time>2022-05-21T15:17:37Z</time>
      </trkpt>
      <trkpt lat="46.53746" lon="5.54821">
        <ele>552.2</ele>
        <time>2022-05-21T15:17:45Z</time>
      </trkpt>
      <trkpt lat="46.53765" lon="5.54825">
        <ele>552.8</ele>
        <time>2022-05-21T15:17:49Z</time>
      </trkpt>
      <trkpt lat="46.5378" lon="5.54825">
        <ele>553.2</ele>
        <time>2022-05-21T15:17:52Z</time>
      </trkpt>
      <trkpt lat="46.53806" lon="5.5482">
        <ele>554.2</ele>
        <time>2022-05-21T15:17:57Z</time>
      </trkpt>
      <trkpt lat="46.53816" lon="5.54818">
        <ele>554.4</ele>
        <time>2022-05-21T15:17:59Z</time>
      </trkpt>
      <trkpt lat="46.53845" lon="5.54811">
        <ele>554.8</ele>
        <time>2022-05-21T15:18:05Z</time>
      </trkpt>
      <trkpt lat="46.53865" lon="5.54806">
        <ele>555.6</ele>
        <time>2022-05-21T15:18:09Z</time>
      </trkpt>
      <trkpt lat="46.53896" lon="5.54796">
        <ele>556</ele>
        <time>2022-05-21T15:18:15Z</time>
      </trkpt>
      <trkpt lat="46.53921" lon="5.54783">
        <ele>556.6</ele>
        <time>2022-05-21T15:18:20Z</time>
      </trkpt>
      <trkpt lat="46.5393" lon="5.54776">
        <ele>556.6</ele>
        <time>2022-05-21T15:18:22Z</time>
      </trkpt>
      <trkpt lat="46.53966" lon="5.54742">
        <ele>557.4</ele>
        <time>2022-05-21T15:18:30Z</time>
      </trkpt>
      <trkpt lat="46.53982" lon="5.5472">
        <ele>557.6</ele>
        <time>2022-05-21T15:18:34Z</time>
      </trkpt>
      <trkpt lat="46.53988" lon="5.54706">
        <ele>557.6</ele>
        <time>2022-05-21T15:18:36Z</time>
      </trkpt>
      <trkpt lat="46.54002" lon="5.54663">
        <ele>557.2</ele>
        <time>2022-05-21T15:18:41Z</time>
      </trkpt>
      <trkpt lat="46.54021" lon="5.54591">
        <ele>556.4</ele>
        <time>2022-05-21T15:18:48Z</time>
      </trkpt>
      <trkpt lat="46.54035" lon="5.54538">
        <ele>555.6</ele>
        <time>2022-05-21T15:18:53Z</time>
      </trkpt>
      <trkpt lat="46.54041" lon="5.54517">
        <ele>555.2</ele>
        <time>2022-05-21T15:18:55Z</time>
      </trkpt>
      <trkpt lat="46.54049" lon="5.54486">
        <ele>554.8</ele>
        <time>2022-05-21T15:18:58Z</time>
      </trkpt>
      <trkpt lat="46.54054" lon="5.54464">
        <ele>554.8</ele>
        <time>2022-05-21T15:19:00Z</time>
      </trkpt>
      <trkpt lat="46.54069" lon="5.54412">
        <ele>554.6</ele>
        <time>2022-05-21T15:19:05Z</time>
      </trkpt>
      <trkpt lat="46.54078" lon="5.54381">
        <ele>554.2</ele>
        <time>2022-05-21T15:19:08Z</time>
      </trkpt>
      <trkpt lat="46.54086" lon="5.54349">
        <ele>553.2</ele>
        <time>2022-05-21T15:19:11Z</time>
      </trkpt>
      <trkpt lat="46.54094" lon="5.54316">
        <ele>552</ele>
        <time>2022-05-21T15:19:14Z</time>
      </trkpt>
      <trkpt lat="46.54103" lon="5.54282">
        <ele>551</ele>
        <time>2022-05-21T15:19:17Z</time>
      </trkpt>
      <trkpt lat="46.54106" lon="5.5427">
        <ele>550.6</ele>
        <time>2022-05-21T15:19:18Z</time>
      </trkpt>
      <trkpt lat="46.54116" lon="5.54233">
        <ele>549.6</ele>
        <time>2022-05-21T15:19:21Z</time>
      </trkpt>
      <trkpt lat="46.5412" lon="5.5422">
        <ele>549.2</ele>
        <time>2022-05-21T15:19:22Z</time>
      </trkpt>
      <trkpt lat="46.54123" lon="5.54207">
        <ele>548.2</ele>
        <time>2022-05-21T15:19:23Z</time>
      </trkpt>
      <trkpt lat="46.54131" lon="5.54181">
        <ele>547</ele>
        <time>2022-05-21T15:19:25Z</time>
      </trkpt>
      <trkpt lat="46.54138" lon="5.54155">
        <ele>546.6</ele>
        <time>2022-05-21T15:19:27Z</time>
      </trkpt>
      <trkpt lat="46.54144" lon="5.54127">
        <ele>546</ele>
        <time>2022-05-21T15:19:29Z</time>
      </trkpt>
      <trkpt lat="46.54155" lon="5.54088">
        <ele>544.2</ele>
        <time>2022-05-21T15:19:32Z</time>
      </trkpt>
      <trkpt lat="46.54166" lon="5.5405">
        <ele>543.2</ele>
        <time>2022-05-21T15:19:35Z</time>
      </trkpt>
      <trkpt lat="46.54186" lon="5.53976">
        <ele>542</ele>
        <time>2022-05-21T15:19:41Z</time>
      </trkpt>
      <trkpt lat="46.54195" lon="5.53928">
        <ele>541.6</ele>
        <time>2022-05-21T15:19:45Z</time>
      </trkpt>
      <trkpt lat="46.54199" lon="5.53869">
        <ele>541</ele>
        <time>2022-05-21T15:19:50Z</time>
      </trkpt>
      <trkpt lat="46.54201" lon="5.53824">
        <ele>541</ele>
        <time>2022-05-21T15:19:54Z</time>
      </trkpt>
      <trkpt lat="46.54201" lon="5.53812">
        <ele>541</ele>
        <time>2022-05-21T15:19:55Z</time>
      </trkpt>
      <trkpt lat="46.54202" lon="5.5374">
        <ele>540.2</ele>
        <time>2022-05-21T15:20:01Z</time>
      </trkpt>
      <trkpt lat="46.54202" lon="5.53726">
        <ele>540</ele>
        <time>2022-05-21T15:20:02Z</time>
      </trkpt>
      <trkpt lat="46.54204" lon="5.5369">
        <ele>539.8</ele>
        <time>2022-05-21T15:20:05Z</time>
      </trkpt>
      <trkpt lat="46.54207" lon="5.53679">
        <ele>539.8</ele>
        <time>2022-05-21T15:20:06Z</time>
      </trkpt>
      <trkpt lat="46.54227" lon="5.53627">
        <ele>539.4</ele>
        <time>2022-05-21T15:20:11Z</time>
      </trkpt>
      <trkpt lat="46.54245" lon="5.53592">
        <ele>538.8</ele>
        <time>2022-05-21T15:20:15Z</time>
      </trkpt>
      <trkpt lat="46.54258" lon="5.53536">
        <ele>538.2</ele>
        <time>2022-05-21T15:20:20Z</time>
      </trkpt>
      <trkpt lat="46.54274" lon="5.53495">
        <ele>537.6</ele>
        <time>2022-05-21T15:20:24Z</time>
      </trkpt>
      <trkpt lat="46.54281" lon="5.53475">
        <ele>537.4</ele>
        <time>2022-05-21T15:20:26Z</time>
      </trkpt>
      <trkpt lat="46.54286" lon="5.53465">
        <ele>537.4</ele>
        <time>2022-05-21T15:20:27Z</time>
      </trkpt>
      <trkpt lat="46.54297" lon="5.53449">
        <ele>537.2</ele>
        <time>2022-05-21T15:20:29Z</time>
      </trkpt>
      <trkpt lat="46.54303" lon="5.53441">
        <ele>537.2</ele>
        <time>2022-05-21T15:20:30Z</time>
      </trkpt>
      <trkpt lat="46.54324" lon="5.53418">
        <ele>536.8</ele>
        <time>2022-05-21T15:20:33Z</time>
      </trkpt>
      <trkpt lat="46.54337" lon="5.53399">
        <ele>536.6</ele>
        <time>2022-05-21T15:20:35Z</time>
      </trkpt>
      <trkpt lat="46.54348" lon="5.53365">
        <ele>536</ele>
        <time>2022-05-21T15:20:38Z</time>
      </trkpt>
      <trkpt lat="46.54352" lon="5.53341">
        <ele>535.4</ele>
        <time>2022-05-21T15:20:40Z</time>
      </trkpt>
      <trkpt lat="46.54363" lon="5.53309">
        <ele>535</ele>
        <time>2022-05-21T15:20:43Z</time>
      </trkpt>
      <trkpt lat="46.54368" lon="5.53299">
        <ele>534.8</ele>
        <time>2022-05-21T15:20:44Z</time>
      </trkpt>
      <trkpt lat="46.54374" lon="5.53289">
        <ele>534.6</ele>
        <time>2022-05-21T15:20:45Z</time>
      </trkpt>
      <trkpt lat="46.54387" lon="5.53273">
        <ele>534.2</ele>
        <time>2022-05-21T15:20:47Z</time>
      </trkpt>
      <trkpt lat="46.54395" lon="5.53267">
        <ele>534</ele>
        <time>2022-05-21T15:20:48Z</time>
      </trkpt>
      <trkpt lat="46.54404" lon="5.53262">
        <ele>533.8</ele>
        <time>2022-05-21T15:20:49Z</time>
      </trkpt>
      <trkpt lat="46.54412" lon="5.53259">
        <ele>533.2</ele>
        <time>2022-05-21T15:20:50Z</time>
      </trkpt>
      <trkpt lat="46.5443" lon="5.53254">
        <ele>532.6</ele>
        <time>2022-05-21T15:20:52Z</time>
      </trkpt>
      <trkpt lat="46.5445" lon="5.5325">
        <ele>531.8</ele>
        <time>2022-05-21T15:20:54Z</time>
      </trkpt>
      <trkpt lat="46.54471" lon="5.53246">
        <ele>530.4</ele>
        <time>2022-05-21T15:20:56Z</time>
      </trkpt>
      <trkpt lat="46.54504" lon="5.53239">
        <ele>528.8</ele>
        <time>2022-05-21T15:20:59Z</time>
      </trkpt>
      <trkpt lat="46.54527" lon="5.53234">
        <ele>527.6</ele>
        <time>2022-05-21T15:21:01Z</time>
      </trkpt>
      <trkpt lat="46.5455" lon="5.5323">
        <ele>526.2</ele>
        <time>2022-05-21T15:21:03Z</time>
      </trkpt>
      <trkpt lat="46.54561" lon="5.53227">
        <ele>524.6</ele>
        <time>2022-05-21T15:21:04Z</time>
      </trkpt>
      <trkpt lat="46.54583" lon="5.5322">
        <ele>523.2</ele>
        <time>2022-05-21T15:21:06Z</time>
      </trkpt>
      <trkpt lat="46.54605" lon="5.53212">
        <ele>521.2</ele>
        <time>2022-05-21T15:21:08Z</time>
      </trkpt>
      <trkpt lat="46.54626" lon="5.53203">
        <ele>519.8</ele>
        <time>2022-05-21T15:21:10Z</time>
      </trkpt>
      <trkpt lat="46.54636" lon="5.532">
        <ele>518.8</ele>
        <time>2022-05-21T15:21:11Z</time>
      </trkpt>
      <trkpt lat="46.54659" lon="5.53195">
        <ele>517.6</ele>
        <time>2022-05-21T15:21:13Z</time>
      </trkpt>
      <trkpt lat="46.54681" lon="5.53195">
        <ele>517</ele>
        <time>2022-05-21T15:21:15Z</time>
      </trkpt>
      <trkpt lat="46.54704" lon="5.53197">
        <ele>516.2</ele>
        <time>2022-05-21T15:21:17Z</time>
      </trkpt>
      <trkpt lat="46.54728" lon="5.532">
        <ele>515</ele>
        <time>2022-05-21T15:21:19Z</time>
      </trkpt>
      <trkpt lat="46.54752" lon="5.53199">
        <ele>514</ele>
        <time>2022-05-21T15:21:21Z</time>
      </trkpt>
      <trkpt lat="46.54764" lon="5.53197">
        <ele>513.4</ele>
        <time>2022-05-21T15:21:22Z</time>
      </trkpt>
      <trkpt lat="46.54786" lon="5.53188">
        <ele>512.4</ele>
        <time>2022-05-21T15:21:24Z</time>
      </trkpt>
      <trkpt lat="46.54798" lon="5.53183">
        <ele>511.6</ele>
        <time>2022-05-21T15:21:25Z</time>
      </trkpt>
      <trkpt lat="46.5483" lon="5.53166">
        <ele>510.4</ele>
        <time>2022-05-21T15:21:28Z</time>
      </trkpt>
      <trkpt lat="46.54851" lon="5.53154">
        <ele>509.2</ele>
        <time>2022-05-21T15:21:30Z</time>
      </trkpt>
      <trkpt lat="46.54871" lon="5.53139">
        <ele>508</ele>
        <time>2022-05-21T15:21:32Z</time>
      </trkpt>
      <trkpt lat="46.54887" lon="5.53118">
        <ele>507.4</ele>
        <time>2022-05-21T15:21:34Z</time>
      </trkpt>
      <trkpt lat="46.54893" lon="5.53105">
        <ele>507.4</ele>
        <time>2022-05-21T15:21:35Z</time>
      </trkpt>
      <trkpt lat="46.54907" lon="5.53078">
        <ele>506.8</ele>
        <time>2022-05-21T15:21:37Z</time>
      </trkpt>
      <trkpt lat="46.54933" lon="5.53023">
        <ele>505.6</ele>
        <time>2022-05-21T15:21:41Z</time>
      </trkpt>
      <trkpt lat="46.54944" lon="5.52994">
        <ele>504.6</ele>
        <time>2022-05-21T15:21:43Z</time>
      </trkpt>
      <trkpt lat="46.54948" lon="5.52979">
        <ele>503.4</ele>
        <time>2022-05-21T15:21:44Z</time>
      </trkpt>
      <trkpt lat="46.54958" lon="5.52931">
        <ele>502.2</ele>
        <time>2022-05-21T15:21:47Z</time>
      </trkpt>
      <trkpt lat="46.54966" lon="5.52901">
        <ele>501.6</ele>
        <time>2022-05-21T15:21:49Z</time>
      </trkpt>
      <trkpt lat="46.54971" lon="5.52887">
        <ele>501</ele>
        <time>2022-05-21T15:21:50Z</time>
      </trkpt>
      <trkpt lat="46.54988" lon="5.5285">
        <ele>499.6</ele>
        <time>2022-05-21T15:21:53Z</time>
      </trkpt>
      <trkpt lat="46.55022" lon="5.52802">
        <ele>498.8</ele>
        <time>2022-05-21T15:21:58Z</time>
      </trkpt>
      <trkpt lat="46.55045" lon="5.52763">
        <ele>498.6</ele>
        <time>2022-05-21T15:22:02Z</time>
      </trkpt>
      <trkpt lat="46.55072" lon="5.52695">
        <ele>498.6</ele>
        <time>2022-05-21T15:22:08Z</time>
      </trkpt>
      <trkpt lat="46.55071" lon="5.5267">
        <ele>498.4</ele>
        <time>2022-05-21T15:22:10Z</time>
      </trkpt>
      <trkpt lat="46.55062" lon="5.52652">
        <ele>498</ele>
        <time>2022-05-21T15:22:12Z</time>
      </trkpt>
      <trkpt lat="46.55018" lon="5.52596">
        <ele>498.6</ele>
        <time>2022-05-21T15:22:19Z</time>
      </trkpt>
      <trkpt lat="46.54974" lon="5.52535">
        <ele>499</ele>
        <time>2022-05-21T15:22:26Z</time>
      </trkpt>
      <trkpt lat="46.54943" lon="5.52479">
        <ele>499.2</ele>
        <time>2022-05-21T15:22:32Z</time>
      </trkpt>
      <trkpt lat="46.5492" lon="5.52453">
        <ele>499.4</ele>
        <time>2022-05-21T15:22:36Z</time>
      </trkpt>
      <trkpt lat="46.54913" lon="5.52448">
        <ele>499.4</ele>
        <time>2022-05-21T15:22:37Z</time>
      </trkpt>
      <trkpt lat="46.54899" lon="5.52441">
        <ele>499.8</ele>
        <time>2022-05-21T15:22:39Z</time>
      </trkpt>
      <trkpt lat="46.54885" lon="5.52438">
        <ele>500.4</ele>
        <time>2022-05-21T15:22:41Z</time>
      </trkpt>
      <trkpt lat="46.54877" lon="5.52438">
        <ele>500.6</ele>
        <time>2022-05-21T15:22:42Z</time>
      </trkpt>
      <trkpt lat="46.54863" lon="5.52438">
        <ele>501</ele>
        <time>2022-05-21T15:22:44Z</time>
      </trkpt>
      <trkpt lat="46.54834" lon="5.52442">
        <ele>502.2</ele>
        <time>2022-05-21T15:22:48Z</time>
      </trkpt>
      <trkpt lat="46.5482" lon="5.52443">
        <ele>502.6</ele>
        <time>2022-05-21T15:22:50Z</time>
      </trkpt>
      <trkpt lat="46.54799" lon="5.52446">
        <ele>503.2</ele>
        <time>2022-05-21T15:22:53Z</time>
      </trkpt>
      <trkpt lat="46.5476" lon="5.52449">
        <ele>504.4</ele>
        <time>2022-05-21T15:22:59Z</time>
      </trkpt>
      <trkpt lat="46.54722" lon="5.52451">
        <ele>505.6</ele>
        <time>2022-05-21T15:23:05Z</time>
      </trkpt>
      <trkpt lat="46.54703" lon="5.52451">
        <ele>506</ele>
        <time>2022-05-21T15:23:08Z</time>
      </trkpt>
      <trkpt lat="46.54649" lon="5.52444">
        <ele>506.4</ele>
        <time>2022-05-21T15:23:16Z</time>
      </trkpt>
      <trkpt lat="46.54606" lon="5.52436">
        <ele>505.8</ele>
        <time>2022-05-21T15:23:22Z</time>
      </trkpt>
      <trkpt lat="46.54561" lon="5.52425">
        <ele>505.6</ele>
        <time>2022-05-21T15:23:28Z</time>
      </trkpt>
      <trkpt lat="46.54523" lon="5.52414">
        <ele>505.8</ele>
        <time>2022-05-21T15:23:33Z</time>
      </trkpt>
      <trkpt lat="46.54464" lon="5.52401">
        <ele>506.2</ele>
        <time>2022-05-21T15:23:41Z</time>
      </trkpt>
      <trkpt lat="46.54457" lon="5.524">
        <ele>506.2</ele>
        <time>2022-05-21T15:23:42Z</time>
      </trkpt>
      <trkpt lat="46.5442" lon="5.52396">
        <ele>506.8</ele>
        <time>2022-05-21T15:23:47Z</time>
      </trkpt>
      <trkpt lat="46.54398" lon="5.52395">
        <ele>506.8</ele>
        <time>2022-05-21T15:23:50Z</time>
      </trkpt>
      <trkpt lat="46.54355" lon="5.52383">
        <ele>507.2</ele>
        <time>2022-05-21T15:23:56Z</time>
      </trkpt>
      <trkpt lat="46.54323" lon="5.52367">
        <ele>507.8</ele>
        <time>2022-05-21T15:24:01Z</time>
      </trkpt>
      <trkpt lat="46.54304" lon="5.52359">
        <ele>508.6</ele>
        <time>2022-05-21T15:24:04Z</time>
      </trkpt>
      <trkpt lat="46.54291" lon="5.52354">
        <ele>509</ele>
        <time>2022-05-21T15:24:06Z</time>
      </trkpt>
      <trkpt lat="46.54253" lon="5.5234">
        <ele>509.8</ele>
        <time>2022-05-21T15:24:12Z</time>
      </trkpt>
      <trkpt lat="46.54247" lon="5.52338">
        <ele>510.2</ele>
        <time>2022-05-21T15:24:13Z</time>
      </trkpt>
      <trkpt lat="46.54189" lon="5.5232">
        <ele>511</ele>
        <time>2022-05-21T15:24:22Z</time>
      </trkpt>
      <trkpt lat="46.54176" lon="5.52317">
        <ele>511.2</ele>
        <time>2022-05-21T15:24:24Z</time>
      </trkpt>
      <trkpt lat="46.54134" lon="5.52299">
        <ele>511.6</ele>
        <time>2022-05-21T15:24:30Z</time>
      </trkpt>
      <trkpt lat="46.54098" lon="5.52276">
        <ele>511.6</ele>
        <time>2022-05-21T15:24:35Z</time>
      </trkpt>
      <trkpt lat="46.54046" lon="5.52243">
        <ele>511</ele>
        <time>2022-05-21T15:24:42Z</time>
      </trkpt>
      <trkpt lat="46.54032" lon="5.52234">
        <ele>510.8</ele>
        <time>2022-05-21T15:24:44Z</time>
      </trkpt>
      <trkpt lat="46.5398" lon="5.52209">
        <ele>510.8</ele>
        <time>2022-05-21T15:24:51Z</time>
      </trkpt>
      <trkpt lat="46.53944" lon="5.52191">
        <ele>510.8</ele>
        <time>2022-05-21T15:24:56Z</time>
      </trkpt>
      <trkpt lat="46.53937" lon="5.52185">
        <ele>511</ele>
        <time>2022-05-21T15:24:57Z</time>
      </trkpt>
      <trkpt lat="46.53886" lon="5.5214">
        <ele>511.4</ele>
        <time>2022-05-21T15:25:05Z</time>
      </trkpt>
      <trkpt lat="46.53874" lon="5.52128">
        <ele>511.4</ele>
        <time>2022-05-21T15:25:07Z</time>
      </trkpt>
      <trkpt lat="46.5385" lon="5.52103">
        <ele>511.6</ele>
        <time>2022-05-21T15:25:11Z</time>
      </trkpt>
      <trkpt lat="46.5384" lon="5.52087">
        <ele>511.6</ele>
        <time>2022-05-21T15:25:13Z</time>
      </trkpt>
      <trkpt lat="46.53827" lon="5.52061">
        <ele>511.8</ele>
        <time>2022-05-21T15:25:16Z</time>
      </trkpt>
      <trkpt lat="46.53817" lon="5.52047">
        <ele>512</ele>
        <time>2022-05-21T15:25:18Z</time>
      </trkpt>
      <trkpt lat="46.53811" lon="5.5204">
        <ele>512.2</ele>
        <time>2022-05-21T15:25:19Z</time>
      </trkpt>
      <trkpt lat="46.53775" lon="5.52003">
        <ele>512.8</ele>
        <time>2022-05-21T15:25:25Z</time>
      </trkpt>
      <trkpt lat="46.53742" lon="5.5198">
        <ele>513.8</ele>
        <time>2022-05-21T15:25:30Z</time>
      </trkpt>
      <trkpt lat="46.53722" lon="5.51966">
        <ele>514.4</ele>
        <time>2022-05-21T15:25:33Z</time>
      </trkpt>
      <trkpt lat="46.53695" lon="5.5195">
        <ele>514.8</ele>
        <time>2022-05-21T15:25:37Z</time>
      </trkpt>
      <trkpt lat="46.5367" lon="5.5193">
        <ele>515.2</ele>
        <time>2022-05-21T15:25:41Z</time>
      </trkpt>
      <trkpt lat="46.53638" lon="5.51889">
        <ele>515.8</ele>
        <time>2022-05-21T15:25:47Z</time>
      </trkpt>
      <trkpt lat="46.53633" lon="5.51883">
        <ele>516</ele>
        <time>2022-05-21T15:25:48Z</time>
      </trkpt>
      <trkpt lat="46.53603" lon="5.51841">
        <ele>517</ele>
        <time>2022-05-21T15:25:54Z</time>
      </trkpt>
      <trkpt lat="46.53599" lon="5.51833">
        <ele>517</ele>
        <time>2022-05-21T15:25:55Z</time>
      </trkpt>
      <trkpt lat="46.53575" lon="5.51788">
        <ele>517.8</ele>
        <time>2022-05-21T15:26:01Z</time>
      </trkpt>
      <trkpt lat="46.5357" lon="5.51782">
        <ele>518</ele>
        <time>2022-05-21T15:26:02Z</time>
      </trkpt>
      <trkpt lat="46.53533" lon="5.51746">
        <ele>519</ele>
        <time>2022-05-21T15:26:09Z</time>
      </trkpt>
      <trkpt lat="46.53527" lon="5.51741">
        <ele>519.2</ele>
        <time>2022-05-21T15:26:10Z</time>
      </trkpt>
      <trkpt lat="46.53478" lon="5.51696">
        <ele>519.6</ele>
        <time>2022-05-21T15:26:19Z</time>
      </trkpt>
      <trkpt lat="46.53466" lon="5.51686">
        <ele>520</ele>
        <time>2022-05-21T15:26:21Z</time>
      </trkpt>
      <trkpt lat="46.53436" lon="5.51663">
        <ele>521</ele>
        <time>2022-05-21T15:26:26Z</time>
      </trkpt>
      <trkpt lat="46.53425" lon="5.51656">
        <ele>521.6</ele>
        <time>2022-05-21T15:26:28Z</time>
      </trkpt>
      <trkpt lat="46.53389" lon="5.51635">
        <ele>522.4</ele>
        <time>2022-05-21T15:26:34Z</time>
      </trkpt>
      <trkpt lat="46.53373" lon="5.51626">
        <ele>522.6</ele>
        <time>2022-05-21T15:26:37Z</time>
      </trkpt>
      <trkpt lat="46.53345" lon="5.5161">
        <ele>523.6</ele>
        <time>2022-05-21T15:26:42Z</time>
      </trkpt>
      <trkpt lat="46.5334" lon="5.51607">
        <ele>523.8</ele>
        <time>2022-05-21T15:26:43Z</time>
      </trkpt>
      <trkpt lat="46.53314" lon="5.5159">
        <ele>524.8</ele>
        <time>2022-05-21T15:26:48Z</time>
      </trkpt>
      <trkpt lat="46.53289" lon="5.51574">
        <ele>526</ele>
        <time>2022-05-21T15:26:53Z</time>
      </trkpt>
      <trkpt lat="46.53284" lon="5.5157">
        <ele>526.2</ele>
        <time>2022-05-21T15:26:54Z</time>
      </trkpt>
      <trkpt lat="46.53271" lon="5.5156">
        <ele>527.2</ele>
        <time>2022-05-21T15:26:57Z</time>
      </trkpt>
      <trkpt lat="46.53257" lon="5.51553">
        <ele>527.8</ele>
        <time>2022-05-21T15:27:00Z</time>
      </trkpt>
      <trkpt lat="46.53252" lon="5.51552">
        <ele>528</ele>
        <time>2022-05-21T15:27:01Z</time>
      </trkpt>
      <trkpt lat="46.53244" lon="5.51549">
        <ele>528.4</ele>
        <time>2022-05-21T15:27:03Z</time>
      </trkpt>
      <trkpt lat="46.5323" lon="5.51547">
        <ele>529.2</ele>
        <time>2022-05-21T15:27:06Z</time>
      </trkpt>
      <trkpt lat="46.53221" lon="5.51545">
        <ele>529.4</ele>
        <time>2022-05-21T15:27:08Z</time>
      </trkpt>
      <trkpt lat="46.53211" lon="5.51546">
        <ele>529.8</ele>
        <time>2022-05-21T15:27:10Z</time>
      </trkpt>
      <trkpt lat="46.53201" lon="5.51548">
        <ele>530.4</ele>
        <time>2022-05-21T15:27:12Z</time>
      </trkpt>
      <trkpt lat="46.53195" lon="5.51549">
        <ele>530.8</ele>
        <time>2022-05-21T15:27:13Z</time>
      </trkpt>
      <trkpt lat="46.53177" lon="5.5155">
        <ele>531.6</ele>
        <time>2022-05-21T15:27:17Z</time>
      </trkpt>
      <trkpt lat="46.53167" lon="5.51551">
        <ele>532</ele>
        <time>2022-05-21T15:27:19Z</time>
      </trkpt>
      <trkpt lat="46.53137" lon="5.51554">
        <ele>533</ele>
        <time>2022-05-21T15:27:25Z</time>
      </trkpt>
      <trkpt lat="46.53122" lon="5.51555">
        <ele>533.6</ele>
        <time>2022-05-21T15:27:28Z</time>
      </trkpt>
      <trkpt lat="46.53107" lon="5.51554">
        <ele>534.2</ele>
        <time>2022-05-21T15:27:31Z</time>
      </trkpt>
      <trkpt lat="46.53087" lon="5.51549">
        <ele>535.4</ele>
        <time>2022-05-21T15:27:35Z</time>
      </trkpt>
      <trkpt lat="46.5306" lon="5.51539">
        <ele>536.2</ele>
        <time>2022-05-21T15:27:40Z</time>
      </trkpt>
      <trkpt lat="46.53054" lon="5.51537">
        <ele>536.2</ele>
        <time>2022-05-21T15:27:41Z</time>
      </trkpt>
      <trkpt lat="46.53018" lon="5.51511">
        <ele>536.2</ele>
        <time>2022-05-21T15:27:47Z</time>
      </trkpt>
      <trkpt lat="46.5298" lon="5.51477">
        <ele>536.2</ele>
        <time>2022-05-21T15:27:53Z</time>
      </trkpt>
      <trkpt lat="46.52937" lon="5.51432">
        <ele>536</ele>
        <time>2022-05-21T15:28:00Z</time>
      </trkpt>
      <trkpt lat="46.52896" lon="5.51405">
        <ele>535.6</ele>
        <time>2022-05-21T15:28:06Z</time>
      </trkpt>
      <trkpt lat="46.52858" lon="5.51386">
        <ele>535.8</ele>
        <time>2022-05-21T15:28:12Z</time>
      </trkpt>
      <trkpt lat="46.52814" lon="5.51362">
        <ele>536.6</ele>
        <time>2022-05-21T15:28:19Z</time>
      </trkpt>
      <trkpt lat="46.52807" lon="5.51358">
        <ele>536.8</ele>
        <time>2022-05-21T15:28:20Z</time>
      </trkpt>
      <trkpt lat="46.52769" lon="5.51335">
        <ele>537.4</ele>
        <time>2022-05-21T15:28:26Z</time>
      </trkpt>
      <trkpt lat="46.52762" lon="5.51332">
        <ele>537.6</ele>
        <time>2022-05-21T15:28:27Z</time>
      </trkpt>
      <trkpt lat="46.52755" lon="5.51329">
        <ele>537.8</ele>
        <time>2022-05-21T15:28:28Z</time>
      </trkpt>
      <trkpt lat="46.52723" lon="5.51314">
        <ele>538.6</ele>
        <time>2022-05-21T15:28:33Z</time>
      </trkpt>
      <trkpt lat="46.52705" lon="5.51302">
        <ele>538.8</ele>
        <time>2022-05-21T15:28:36Z</time>
      </trkpt>
      <trkpt lat="46.52698" lon="5.51299">
        <ele>539</ele>
        <time>2022-05-21T15:28:37Z</time>
      </trkpt>
      <trkpt lat="46.52692" lon="5.51296">
        <ele>539.2</ele>
        <time>2022-05-21T15:28:38Z</time>
      </trkpt>
      <trkpt lat="46.52668" lon="5.51282">
        <ele>539.8</ele>
        <time>2022-05-21T15:28:42Z</time>
      </trkpt>
      <trkpt lat="46.52655" lon="5.51276">
        <ele>539.8</ele>
        <time>2022-05-21T15:28:44Z</time>
      </trkpt>
      <trkpt lat="46.52612" lon="5.51254">
        <ele>540</ele>
        <time>2022-05-21T15:28:51Z</time>
      </trkpt>
      <trkpt lat="46.52599" lon="5.5125">
        <ele>540</ele>
        <time>2022-05-21T15:28:53Z</time>
      </trkpt>
      <trkpt lat="46.52593" lon="5.51247">
        <ele>540</ele>
        <time>2022-05-21T15:28:54Z</time>
      </trkpt>
      <trkpt lat="46.52581" lon="5.51241">
        <ele>540.4</ele>
        <time>2022-05-21T15:28:56Z</time>
      </trkpt>
      <trkpt lat="46.52538" lon="5.51222">
        <ele>541.2</ele>
        <time>2022-05-21T15:29:03Z</time>
      </trkpt>
      <trkpt lat="46.52497" lon="5.51203">
        <ele>542.2</ele>
        <time>2022-05-21T15:29:10Z</time>
      </trkpt>
      <trkpt lat="46.52463" lon="5.51182">
        <ele>543.6</ele>
        <time>2022-05-21T15:29:16Z</time>
      </trkpt>
      <trkpt lat="46.52457" lon="5.51178">
        <ele>543.8</ele>
        <time>2022-05-21T15:29:17Z</time>
      </trkpt>
      <trkpt lat="46.52422" lon="5.51156">
        <ele>544.8</ele>
        <time>2022-05-21T15:29:23Z</time>
      </trkpt>
      <trkpt lat="46.5238" lon="5.5113">
        <ele>545.8</ele>
        <time>2022-05-21T15:29:30Z</time>
      </trkpt>
      <trkpt lat="46.52374" lon="5.51126">
        <ele>546</ele>
        <time>2022-05-21T15:29:31Z</time>
      </trkpt>
      <trkpt lat="46.52328" lon="5.51097">
        <ele>546</ele>
        <time>2022-05-21T15:29:38Z</time>
      </trkpt>
      <trkpt lat="46.52289" lon="5.51073">
        <ele>545</ele>
        <time>2022-05-21T15:29:43Z</time>
      </trkpt>
      <trkpt lat="46.52281" lon="5.51068">
        <ele>544.8</ele>
        <time>2022-05-21T15:29:44Z</time>
      </trkpt>
      <trkpt lat="46.52265" lon="5.51057">
        <ele>543.8</ele>
        <time>2022-05-21T15:29:46Z</time>
      </trkpt>
      <trkpt lat="46.5224" lon="5.51039">
        <ele>542.6</ele>
        <time>2022-05-21T15:29:49Z</time>
      </trkpt>
      <trkpt lat="46.52232" lon="5.51033">
        <ele>542.4</ele>
        <time>2022-05-21T15:29:50Z</time>
      </trkpt>
      <trkpt lat="46.52201" lon="5.51005">
        <ele>541.6</ele>
        <time>2022-05-21T15:29:54Z</time>
      </trkpt>
      <trkpt lat="46.52189" lon="5.50988">
        <ele>541.4</ele>
        <time>2022-05-21T15:29:56Z</time>
      </trkpt>
      <trkpt lat="46.52165" lon="5.50945">
        <ele>541.2</ele>
        <time>2022-05-21T15:30:01Z</time>
      </trkpt>
      <trkpt lat="46.52155" lon="5.50932">
        <ele>541.4</ele>
        <time>2022-05-21T15:30:03Z</time>
      </trkpt>
      <trkpt lat="46.52144" lon="5.50922">
        <ele>541.6</ele>
        <time>2022-05-21T15:30:05Z</time>
      </trkpt>
      <trkpt lat="46.52121" lon="5.50904">
        <ele>541.6</ele>
        <time>2022-05-21T15:30:08Z</time>
      </trkpt>
      <trkpt lat="46.52073" lon="5.50873">
        <ele>541.8</ele>
        <time>2022-05-21T15:30:14Z</time>
      </trkpt>
      <trkpt lat="46.52017" lon="5.50845">
        <ele>542</ele>
        <time>2022-05-21T15:30:21Z</time>
      </trkpt>
      <trkpt lat="46.5201" lon="5.50842">
        <ele>542.2</ele>
        <time>2022-05-21T15:30:22Z</time>
      </trkpt>
      <trkpt lat="46.5198" lon="5.50832">
        <ele>542.6</ele>
        <time>2022-05-21T15:30:26Z</time>
      </trkpt>
      <trkpt lat="46.51973" lon="5.50832">
        <ele>542.6</ele>
        <time>2022-05-21T15:30:27Z</time>
      </trkpt>
      <trkpt lat="46.51966" lon="5.50833">
        <ele>542.8</ele>
        <time>2022-05-21T15:30:28Z</time>
      </trkpt>
      <trkpt lat="46.51932" lon="5.50837">
        <ele>544</ele>
        <time>2022-05-21T15:30:33Z</time>
      </trkpt>
      <trkpt lat="46.51925" lon="5.50838">
        <ele>544</ele>
        <time>2022-05-21T15:30:34Z</time>
      </trkpt>
      <trkpt lat="46.51886" lon="5.50832">
        <ele>545.2</ele>
        <time>2022-05-21T15:30:40Z</time>
      </trkpt>
      <trkpt lat="46.51843" lon="5.50813">
        <ele>546</ele>
        <time>2022-05-21T15:30:47Z</time>
      </trkpt>
      <trkpt lat="46.51837" lon="5.50809">
        <ele>546.2</ele>
        <time>2022-05-21T15:30:48Z</time>
      </trkpt>
      <trkpt lat="46.51811" lon="5.50791">
        <ele>547.4</ele>
        <time>2022-05-21T15:30:53Z</time>
      </trkpt>
      <trkpt lat="46.51788" lon="5.50777">
        <ele>548.8</ele>
        <time>2022-05-21T15:30:57Z</time>
      </trkpt>
      <trkpt lat="46.51765" lon="5.50762">
        <ele>549.6</ele>
        <time>2022-05-21T15:31:01Z</time>
      </trkpt>
      <trkpt lat="46.51732" lon="5.50738">
        <ele>549.8</ele>
        <time>2022-05-21T15:31:06Z</time>
      </trkpt>
      <trkpt lat="46.51692" lon="5.50719">
        <ele>549</ele>
        <time>2022-05-21T15:31:11Z</time>
      </trkpt>
      <trkpt lat="46.51656" lon="5.5071">
        <ele>547.4</ele>
        <time>2022-05-21T15:31:15Z</time>
      </trkpt>
      <trkpt lat="46.51629" lon="5.50701">
        <ele>546.4</ele>
        <time>2022-05-21T15:31:18Z</time>
      </trkpt>
      <trkpt lat="46.51576" lon="5.50679">
        <ele>545.8</ele>
        <time>2022-05-21T15:31:24Z</time>
      </trkpt>
      <trkpt lat="46.51567" lon="5.50676">
        <ele>545.8</ele>
        <time>2022-05-21T15:31:25Z</time>
      </trkpt>
      <trkpt lat="46.51514" lon="5.50668">
        <ele>545.8</ele>
        <time>2022-05-21T15:31:31Z</time>
      </trkpt>
      <trkpt lat="46.51479" lon="5.50668">
        <ele>545.8</ele>
        <time>2022-05-21T15:31:35Z</time>
      </trkpt>
      <trkpt lat="46.51443" lon="5.50663">
        <ele>545.6</ele>
        <time>2022-05-21T15:31:39Z</time>
      </trkpt>
      <trkpt lat="46.51426" lon="5.50658">
        <ele>545.6</ele>
        <time>2022-05-21T15:31:41Z</time>
      </trkpt>
      <trkpt lat="46.51392" lon="5.50647">
        <ele>545.4</ele>
        <time>2022-05-21T15:31:45Z</time>
      </trkpt>
      <trkpt lat="46.51338" lon="5.50641">
        <ele>545.4</ele>
        <time>2022-05-21T15:31:51Z</time>
      </trkpt>
      <trkpt lat="46.51329" lon="5.5064">
        <ele>545.2</ele>
        <time>2022-05-21T15:31:52Z</time>
      </trkpt>
      <trkpt lat="46.51282" lon="5.50632">
        <ele>544.4</ele>
        <time>2022-05-21T15:31:57Z</time>
      </trkpt>
      <trkpt lat="46.51263" lon="5.5063">
        <ele>544.2</ele>
        <time>2022-05-21T15:31:59Z</time>
      </trkpt>
      <trkpt lat="46.51207" lon="5.50629">
        <ele>543.4</ele>
        <time>2022-05-21T15:32:05Z</time>
      </trkpt>
      <trkpt lat="46.51188" lon="5.50631">
        <ele>543.2</ele>
        <time>2022-05-21T15:32:07Z</time>
      </trkpt>
      <trkpt lat="46.51148" lon="5.50638">
        <ele>542.2</ele>
        <time>2022-05-21T15:32:11Z</time>
      </trkpt>
      <trkpt lat="46.51117" lon="5.50641">
        <ele>541.4</ele>
        <time>2022-05-21T15:32:14Z</time>
      </trkpt>
      <trkpt lat="46.51107" lon="5.5064">
        <ele>541.2</ele>
        <time>2022-05-21T15:32:15Z</time>
      </trkpt>
      <trkpt lat="46.51054" lon="5.50628">
        <ele>540.4</ele>
        <time>2022-05-21T15:32:20Z</time>
      </trkpt>
      <trkpt lat="46.51044" lon="5.50625">
        <ele>540.2</ele>
        <time>2022-05-21T15:32:21Z</time>
      </trkpt>
      <trkpt lat="46.51004" lon="5.50615">
        <ele>539</ele>
        <time>2022-05-21T15:32:25Z</time>
      </trkpt>
      <trkpt lat="46.50973" lon="5.50608">
        <ele>538.4</ele>
        <time>2022-05-21T15:32:28Z</time>
      </trkpt>
      <trkpt lat="46.50953" lon="5.50604">
        <ele>538</ele>
        <time>2022-05-21T15:32:30Z</time>
      </trkpt>
      <trkpt lat="46.50913" lon="5.50602">
        <ele>537.6</ele>
        <time>2022-05-21T15:32:34Z</time>
      </trkpt>
      <trkpt lat="46.50866" lon="5.50612">
        <ele>537.4</ele>
        <time>2022-05-21T15:32:39Z</time>
      </trkpt>
      <trkpt lat="46.50812" lon="5.50613">
        <ele>538</ele>
        <time>2022-05-21T15:32:45Z</time>
      </trkpt>
      <trkpt lat="46.50766" lon="5.50608">
        <ele>538.4</ele>
        <time>2022-05-21T15:32:50Z</time>
      </trkpt>
      <trkpt lat="46.50749" lon="5.50601">
        <ele>538.6</ele>
        <time>2022-05-21T15:32:52Z</time>
      </trkpt>
      <trkpt lat="46.50725" lon="5.50589">
        <ele>538.4</ele>
        <time>2022-05-21T15:32:55Z</time>
      </trkpt>
      <trkpt lat="46.50693" lon="5.50578">
        <ele>538.6</ele>
        <time>2022-05-21T15:32:59Z</time>
      </trkpt>
      <trkpt lat="46.50667" lon="5.50573">
        <ele>539.2</ele>
        <time>2022-05-21T15:33:02Z</time>
      </trkpt>
      <trkpt lat="46.50649" lon="5.50566">
        <ele>539.2</ele>
        <time>2022-05-21T15:33:04Z</time>
      </trkpt>
      <trkpt lat="46.50626" lon="5.50551">
        <ele>539.2</ele>
        <time>2022-05-21T15:33:07Z</time>
      </trkpt>
      <trkpt lat="46.50619" lon="5.50545">
        <ele>539.2</ele>
        <time>2022-05-21T15:33:08Z</time>
      </trkpt>
      <trkpt lat="46.50613" lon="5.50538">
        <ele>539.2</ele>
        <time>2022-05-21T15:33:09Z</time>
      </trkpt>
      <trkpt lat="46.50574" lon="5.5049">
        <ele>538.8</ele>
        <time>2022-05-21T15:33:15Z</time>
      </trkpt>
      <trkpt lat="46.50557" lon="5.50477">
        <ele>538.8</ele>
        <time>2022-05-21T15:33:17Z</time>
      </trkpt>
      <trkpt lat="46.50548" lon="5.50472">
        <ele>538.6</ele>
        <time>2022-05-21T15:33:18Z</time>
      </trkpt>
      <trkpt lat="46.50539" lon="5.50467">
        <ele>538.2</ele>
        <time>2022-05-21T15:33:19Z</time>
      </trkpt>
      <trkpt lat="46.50529" lon="5.50463">
        <ele>537.8</ele>
        <time>2022-05-21T15:33:20Z</time>
      </trkpt>
      <trkpt lat="46.5051" lon="5.5046">
        <ele>536.8</ele>
        <time>2022-05-21T15:33:22Z</time>
      </trkpt>
      <trkpt lat="46.50489" lon="5.50462">
        <ele>535.4</ele>
        <time>2022-05-21T15:33:24Z</time>
      </trkpt>
      <trkpt lat="46.50469" lon="5.50463">
        <ele>535</ele>
        <time>2022-05-21T15:33:26Z</time>
      </trkpt>
      <trkpt lat="46.50459" lon="5.50461">
        <ele>534.6</ele>
        <time>2022-05-21T15:33:27Z</time>
      </trkpt>
      <trkpt lat="46.50449" lon="5.50457">
        <ele>534</ele>
        <time>2022-05-21T15:33:28Z</time>
      </trkpt>
      <trkpt lat="46.50411" lon="5.5044">
        <ele>533</ele>
        <time>2022-05-21T15:33:32Z</time>
      </trkpt>
      <trkpt lat="46.50402" lon="5.50436">
        <ele>532.6</ele>
        <time>2022-05-21T15:33:33Z</time>
      </trkpt>
      <trkpt lat="46.50363" lon="5.50426">
        <ele>531.8</ele>
        <time>2022-05-21T15:33:37Z</time>
      </trkpt>
      <trkpt lat="46.50344" lon="5.50421">
        <ele>531.6</ele>
        <time>2022-05-21T15:33:39Z</time>
      </trkpt>
      <trkpt lat="46.50334" lon="5.50421">
        <ele>530.8</ele>
        <time>2022-05-21T15:33:40Z</time>
      </trkpt>
      <trkpt lat="46.50315" lon="5.50424">
        <ele>530</ele>
        <time>2022-05-21T15:33:42Z</time>
      </trkpt>
      <trkpt lat="46.50306" lon="5.50428">
        <ele>529.8</ele>
        <time>2022-05-21T15:33:43Z</time>
      </trkpt>
      <trkpt lat="46.50297" lon="5.50433">
        <ele>529.6</ele>
        <time>2022-05-21T15:33:44Z</time>
      </trkpt>
      <trkpt lat="46.5028" lon="5.50448">
        <ele>529.4</ele>
        <time>2022-05-21T15:33:46Z</time>
      </trkpt>
      <trkpt lat="46.50262" lon="5.50463">
        <ele>528.8</ele>
        <time>2022-05-21T15:33:48Z</time>
      </trkpt>
      <trkpt lat="46.50252" lon="5.50467">
        <ele>528.2</ele>
        <time>2022-05-21T15:33:49Z</time>
      </trkpt>
      <trkpt lat="46.50243" lon="5.50469">
        <ele>528</ele>
        <time>2022-05-21T15:33:50Z</time>
      </trkpt>
      <trkpt lat="46.50223" lon="5.5046">
        <ele>527.2</ele>
        <time>2022-05-21T15:33:52Z</time>
      </trkpt>
      <trkpt lat="46.50195" lon="5.50439">
        <ele>525.8</ele>
        <time>2022-05-21T15:33:55Z</time>
      </trkpt>
      <trkpt lat="46.50176" lon="5.50429">
        <ele>525</ele>
        <time>2022-05-21T15:33:57Z</time>
      </trkpt>
      <trkpt lat="46.50166" lon="5.50424">
        <ele>524.6</ele>
        <time>2022-05-21T15:33:58Z</time>
      </trkpt>
      <trkpt lat="46.50147" lon="5.50413">
        <ele>523.6</ele>
        <time>2022-05-21T15:34:00Z</time>
      </trkpt>
      <trkpt lat="46.5013" lon="5.50404">
        <ele>522.8</ele>
        <time>2022-05-21T15:34:02Z</time>
      </trkpt>
      <trkpt lat="46.50114" lon="5.50398">
        <ele>522.4</ele>
        <time>2022-05-21T15:34:04Z</time>
      </trkpt>
      <trkpt lat="46.50107" lon="5.50396">
        <ele>522.2</ele>
        <time>2022-05-21T15:34:05Z</time>
      </trkpt>
      <trkpt lat="46.50093" lon="5.50402">
        <ele>521.8</ele>
        <time>2022-05-21T15:34:07Z</time>
      </trkpt>
      <trkpt lat="46.50068" lon="5.50431">
        <ele>521.8</ele>
        <time>2022-05-21T15:34:11Z</time>
      </trkpt>
      <trkpt lat="46.50062" lon="5.5044">
        <ele>522</ele>
        <time>2022-05-21T15:34:12Z</time>
      </trkpt>
      <trkpt lat="46.50038" lon="5.50477">
        <ele>522</ele>
        <time>2022-05-21T15:34:16Z</time>
      </trkpt>
      <trkpt lat="46.50031" lon="5.50484">
        <ele>522.2</ele>
        <time>2022-05-21T15:34:17Z</time>
      </trkpt>
      <trkpt lat="46.4999" lon="5.50515">
        <ele>523.2</ele>
        <time>2022-05-21T15:34:23Z</time>
      </trkpt>
      <trkpt lat="46.49961" lon="5.50529">
        <ele>523.6</ele>
        <time>2022-05-21T15:34:27Z</time>
      </trkpt>
      <trkpt lat="46.49954" lon="5.50531">
        <ele>523.8</ele>
        <time>2022-05-21T15:34:28Z</time>
      </trkpt>
      <trkpt lat="46.49947" lon="5.50531">
        <ele>523.8</ele>
        <time>2022-05-21T15:34:29Z</time>
      </trkpt>
      <trkpt lat="46.49925" lon="5.50526">
        <ele>523.8</ele>
        <time>2022-05-21T15:34:32Z</time>
      </trkpt>
      <trkpt lat="46.49889" lon="5.50505">
        <ele>524</ele>
        <time>2022-05-21T15:34:37Z</time>
      </trkpt>
      <trkpt lat="46.49882" lon="5.50499">
        <ele>523.8</ele>
        <time>2022-05-21T15:34:38Z</time>
      </trkpt>
      <trkpt lat="46.49869" lon="5.50486">
        <ele>523.6</ele>
        <time>2022-05-21T15:34:40Z</time>
      </trkpt>
      <trkpt lat="46.49855" lon="5.50477">
        <ele>523.6</ele>
        <time>2022-05-21T15:34:42Z</time>
      </trkpt>
      <trkpt lat="46.49817" lon="5.50464">
        <ele>523.2</ele>
        <time>2022-05-21T15:34:47Z</time>
      </trkpt>
      <trkpt lat="46.49765" lon="5.50448">
        <ele>524</ele>
        <time>2022-05-21T15:34:54Z</time>
      </trkpt>
      <trkpt lat="46.49758" lon="5.50445">
        <ele>524.2</ele>
        <time>2022-05-21T15:34:55Z</time>
      </trkpt>
      <trkpt lat="46.49738" lon="5.50428">
        <ele>524.6</ele>
        <time>2022-05-21T15:34:58Z</time>
      </trkpt>
      <trkpt lat="46.49721" lon="5.504">
        <ele>524.8</ele>
        <time>2022-05-21T15:35:02Z</time>
      </trkpt>
      <trkpt lat="46.49705" lon="5.50375">
        <ele>526.2</ele>
        <time>2022-05-21T15:35:06Z</time>
      </trkpt>
      <trkpt lat="46.49695" lon="5.50365">
        <ele>526.6</ele>
        <time>2022-05-21T15:35:08Z</time>
      </trkpt>
      <trkpt lat="46.49663" lon="5.50322">
        <ele>527.2</ele>
        <time>2022-05-21T15:35:15Z</time>
      </trkpt>
    </trkseg>
  </trk>
</gpx>